<?xml version="1.0" encoding="utf-8"?>
<gpx xmlns:xsi="http://www.w3.org/2001/XMLSchema-instance" xmlns:xsd="http://www.w3.org/2001/XMLSchema" version="1.1" creator="Shapelink.com" xmlns="http://www.topografix.com/GPX/1/1" xmlns:gpxtpx="http://www.garmin.com/xmlschemas/TrackPointExtension/v1">
  <metadata>
    <name>Sykling 40.82 km, 2014-06-15</name>
    <desc></desc>
    <author><name>Mikael Blom</name></author> 
    <time>2014-06-15T12:03:46Z</time>
  </metadata>
  <trk>
    <name>Sykling 40.82 km, 2014-06-15</name>
    <trkseg>
      <trkpt lat="59.9788075" lon="17.7392156">
        <ele>47.7225</ele>
        <time>2014-06-15T12:03:46Z</time>
      </trkpt>
      <trkpt lat="59.9787774" lon="17.739217">
        <ele>47.7225</ele>
        <time>2014-06-15T12:03:47Z</time>
      </trkpt>
      <trkpt lat="59.9787412" lon="17.7392109">
        <ele>47.2418</ele>
        <time>2014-06-15T12:03:48Z</time>
      </trkpt>
      <trkpt lat="59.9787013" lon="17.7392023">
        <ele>46.7612</ele>
        <time>2014-06-15T12:03:49Z</time>
      </trkpt>
      <trkpt lat="59.9786605" lon="17.7391905">
        <ele>47.2418</ele>
        <time>2014-06-15T12:03:50Z</time>
      </trkpt>
      <trkpt lat="59.9786165" lon="17.7391864">
        <ele>47.2418</ele>
        <time>2014-06-15T12:03:51Z</time>
      </trkpt>
      <trkpt lat="59.9785697" lon="17.7391796">
        <ele>47.2418</ele>
        <time>2014-06-15T12:03:52Z</time>
      </trkpt>
      <trkpt lat="59.9785233" lon="17.7391741">
        <ele>47.2418</ele>
        <time>2014-06-15T12:03:53Z</time>
      </trkpt>
      <trkpt lat="59.9784765" lon="17.7391694">
        <ele>46.7612</ele>
        <time>2014-06-15T12:03:54Z</time>
      </trkpt>
      <trkpt lat="59.9784287" lon="17.7391652">
        <ele>46.7612</ele>
        <time>2014-06-15T12:03:55Z</time>
      </trkpt>
      <trkpt lat="59.9783795" lon="17.7391554">
        <ele>46.7612</ele>
        <time>2014-06-15T12:03:56Z</time>
      </trkpt>
      <trkpt lat="59.9783284" lon="17.7391477">
        <ele>46.7612</ele>
        <time>2014-06-15T12:03:57Z</time>
      </trkpt>
      <trkpt lat="59.9782766" lon="17.7391409">
        <ele>47.2418</ele>
        <time>2014-06-15T12:03:58Z</time>
      </trkpt>
      <trkpt lat="59.9782242" lon="17.7391362">
        <ele>47.2418</ele>
        <time>2014-06-15T12:03:59Z</time>
      </trkpt>
      <trkpt lat="59.9781663" lon="17.7391227">
        <ele>47.7225</ele>
        <time>2014-06-15T12:04:00Z</time>
      </trkpt>
      <trkpt lat="59.9781125" lon="17.7391106">
        <ele>47.7225</ele>
        <time>2014-06-15T12:04:01Z</time>
      </trkpt>
      <trkpt lat="59.9780589" lon="17.7390854">
        <ele>47.7225</ele>
        <time>2014-06-15T12:04:02Z</time>
      </trkpt>
      <trkpt lat="59.9780037" lon="17.7390554">
        <ele>47.7225</ele>
        <time>2014-06-15T12:04:03Z</time>
      </trkpt>
      <trkpt lat="59.9779349" lon="17.7390394">
        <ele>47.7225</ele>
        <time>2014-06-15T12:04:04Z</time>
      </trkpt>
      <trkpt lat="59.9778673" lon="17.7389959">
        <ele>47.2418</ele>
        <time>2014-06-15T12:04:05Z</time>
      </trkpt>
      <trkpt lat="59.9777996" lon="17.7389615">
        <ele>46.7612</ele>
        <time>2014-06-15T12:04:06Z</time>
      </trkpt>
      <trkpt lat="59.97773" lon="17.7389325">
        <ele>46.2806</ele>
        <time>2014-06-15T12:04:07Z</time>
      </trkpt>
      <trkpt lat="59.9776575" lon="17.7389135">
        <ele>45.7999</ele>
        <time>2014-06-15T12:04:08Z</time>
      </trkpt>
      <trkpt lat="59.9775815" lon="17.7389087">
        <ele>45.3192</ele>
        <time>2014-06-15T12:04:09Z</time>
      </trkpt>
      <trkpt lat="59.9775022" lon="17.7389188">
        <ele>44.8386</ele>
        <time>2014-06-15T12:04:10Z</time>
      </trkpt>
      <trkpt lat="59.9774196" lon="17.7389435">
        <ele>44.358</ele>
        <time>2014-06-15T12:04:11Z</time>
      </trkpt>
      <trkpt lat="59.9773354" lon="17.7389792">
        <ele>43.3966</ele>
        <time>2014-06-15T12:04:12Z</time>
      </trkpt>
      <trkpt lat="59.9772504" lon="17.7390215">
        <ele>42.916</ele>
        <time>2014-06-15T12:04:13Z</time>
      </trkpt>
      <trkpt lat="59.9771649" lon="17.7390688">
        <ele>42.4354</ele>
        <time>2014-06-15T12:04:14Z</time>
      </trkpt>
      <trkpt lat="59.9770772" lon="17.7391145">
        <ele>41.9547</ele>
        <time>2014-06-15T12:04:15Z</time>
      </trkpt>
      <trkpt lat="59.9769888" lon="17.7391571">
        <ele>41.9547</ele>
        <time>2014-06-15T12:04:16Z</time>
      </trkpt>
      <trkpt lat="59.9768998" lon="17.7391994">
        <ele>41.474</ele>
        <time>2014-06-15T12:04:17Z</time>
      </trkpt>
      <trkpt lat="59.9768121" lon="17.7392402">
        <ele>40.9934</ele>
        <time>2014-06-15T12:04:18Z</time>
      </trkpt>
      <trkpt lat="59.9767232" lon="17.7392793">
        <ele>40.5128</ele>
        <time>2014-06-15T12:04:19Z</time>
      </trkpt>
      <trkpt lat="59.9766349" lon="17.7393277">
        <ele>40.0321</ele>
        <time>2014-06-15T12:04:20Z</time>
      </trkpt>
      <trkpt lat="59.976547" lon="17.7393894">
        <ele>40.0321</ele>
        <time>2014-06-15T12:04:21Z</time>
      </trkpt>
      <trkpt lat="59.9764626" lon="17.7394707">
        <ele>39.5513</ele>
        <time>2014-06-15T12:04:22Z</time>
      </trkpt>
      <trkpt lat="59.9763858" lon="17.7395729">
        <ele>39.0707</ele>
        <time>2014-06-15T12:04:23Z</time>
      </trkpt>
      <trkpt lat="59.9763118" lon="17.7396682">
        <ele>39.0707</ele>
        <time>2014-06-15T12:04:24Z</time>
      </trkpt>
      <trkpt lat="59.9762372" lon="17.7397144">
        <ele>38.5901</ele>
        <time>2014-06-15T12:04:25Z</time>
      </trkpt>
      <trkpt lat="59.9761599" lon="17.7396929">
        <ele>37.6287</ele>
        <time>2014-06-15T12:04:26Z</time>
      </trkpt>
      <trkpt lat="59.9760891" lon="17.7396128">
        <ele>37.1481</ele>
        <time>2014-06-15T12:04:27Z</time>
      </trkpt>
      <trkpt lat="59.9760219" lon="17.7394867">
        <ele>36.1868</ele>
        <time>2014-06-15T12:04:28Z</time>
      </trkpt>
      <trkpt lat="59.9759539" lon="17.7393377">
        <ele>35.2255</ele>
        <time>2014-06-15T12:04:29Z</time>
      </trkpt>
      <trkpt lat="59.975876" lon="17.739179">
        <ele>34.7449</ele>
        <time>2014-06-15T12:04:30Z</time>
      </trkpt>
      <trkpt lat="59.975784" lon="17.7390053">
        <ele>34.2642</ele>
        <time>2014-06-15T12:04:31Z</time>
      </trkpt>
      <trkpt lat="59.9756959" lon="17.7388425">
        <ele>33.7834</ele>
        <time>2014-06-15T12:04:32Z</time>
      </trkpt>
      <trkpt lat="59.9756095" lon="17.738684">
        <ele>33.7834</ele>
        <time>2014-06-15T12:04:33Z</time>
      </trkpt>
      <trkpt lat="59.9755263" lon="17.7385342">
        <ele>33.3029</ele>
        <time>2014-06-15T12:04:34Z</time>
      </trkpt>
      <trkpt lat="59.9754425" lon="17.7383851">
        <ele>33.3029</ele>
        <time>2014-06-15T12:04:35Z</time>
      </trkpt>
      <trkpt lat="59.9753587" lon="17.7382383">
        <ele>33.3029</ele>
        <time>2014-06-15T12:04:36Z</time>
      </trkpt>
      <trkpt lat="59.9752758" lon="17.7380938">
        <ele>33.3029</ele>
        <time>2014-06-15T12:04:37Z</time>
      </trkpt>
      <trkpt lat="59.9751939" lon="17.737952">
        <ele>32.8223</ele>
        <time>2014-06-15T12:04:38Z</time>
      </trkpt>
      <trkpt lat="59.9751137" lon="17.7378102">
        <ele>32.8223</ele>
        <time>2014-06-15T12:04:39Z</time>
      </trkpt>
      <trkpt lat="59.9750343" lon="17.7376675">
        <ele>32.8223</ele>
        <time>2014-06-15T12:04:40Z</time>
      </trkpt>
      <trkpt lat="59.9749553" lon="17.7375255">
        <ele>32.8223</ele>
        <time>2014-06-15T12:04:41Z</time>
      </trkpt>
      <trkpt lat="59.9748785" lon="17.7373831">
        <ele>32.8223</ele>
        <time>2014-06-15T12:04:42Z</time>
      </trkpt>
      <trkpt lat="59.9748065" lon="17.7372341">
        <ele>32.3416</ele>
        <time>2014-06-15T12:04:43Z</time>
      </trkpt>
      <trkpt lat="59.9747403" lon="17.7370773">
        <ele>32.3416</ele>
        <time>2014-06-15T12:04:44Z</time>
      </trkpt>
      <trkpt lat="59.9746784" lon="17.7369156">
        <ele>32.3416</ele>
        <time>2014-06-15T12:04:45Z</time>
      </trkpt>
      <trkpt lat="59.9746199" lon="17.7367516">
        <ele>32.3416</ele>
        <time>2014-06-15T12:04:46Z</time>
      </trkpt>
      <trkpt lat="59.9745661" lon="17.7365859">
        <ele>32.3416</ele>
        <time>2014-06-15T12:04:47Z</time>
      </trkpt>
      <trkpt lat="59.9745185" lon="17.7364167">
        <ele>32.3416</ele>
        <time>2014-06-15T12:04:48Z</time>
      </trkpt>
      <trkpt lat="59.9744758" lon="17.7362447">
        <ele>31.8607</ele>
        <time>2014-06-15T12:04:49Z</time>
      </trkpt>
      <trkpt lat="59.9744362" lon="17.7360705">
        <ele>31.8607</ele>
        <time>2014-06-15T12:04:50Z</time>
      </trkpt>
      <trkpt lat="59.9743999" lon="17.735895">
        <ele>31.8607</ele>
        <time>2014-06-15T12:04:51Z</time>
      </trkpt>
      <trkpt lat="59.9743672" lon="17.7357175">
        <ele>31.8607</ele>
        <time>2014-06-15T12:04:52Z</time>
      </trkpt>
      <trkpt lat="59.9743393" lon="17.7355388">
        <ele>31.8607</ele>
        <time>2014-06-15T12:04:53Z</time>
      </trkpt>
      <trkpt lat="59.9743159" lon="17.7353603">
        <ele>31.8607</ele>
        <time>2014-06-15T12:04:54Z</time>
      </trkpt>
      <trkpt lat="59.9742964" lon="17.7351817">
        <ele>31.3801</ele>
        <time>2014-06-15T12:04:55Z</time>
      </trkpt>
      <trkpt lat="59.9742818" lon="17.7350025">
        <ele>31.3801</ele>
        <time>2014-06-15T12:04:56Z</time>
      </trkpt>
      <trkpt lat="59.9742704" lon="17.7348234">
        <ele>31.3801</ele>
        <time>2014-06-15T12:04:57Z</time>
      </trkpt>
      <trkpt lat="59.9742615" lon="17.7346446">
        <ele>31.3801</ele>
        <time>2014-06-15T12:04:58Z</time>
      </trkpt>
      <trkpt lat="59.974256" lon="17.7344658">
        <ele>31.3801</ele>
        <time>2014-06-15T12:04:59Z</time>
      </trkpt>
      <trkpt lat="59.9742569" lon="17.7342877">
        <ele>30.8995</ele>
        <time>2014-06-15T12:05:00Z</time>
      </trkpt>
      <trkpt lat="59.9742632" lon="17.7341115">
        <ele>30.8995</ele>
        <time>2014-06-15T12:05:01Z</time>
      </trkpt>
      <trkpt lat="59.9742714" lon="17.7339383">
        <ele>30.8995</ele>
        <time>2014-06-15T12:05:02Z</time>
      </trkpt>
      <trkpt lat="59.9742797" lon="17.7337691">
        <ele>30.8995</ele>
        <time>2014-06-15T12:05:03Z</time>
      </trkpt>
      <trkpt lat="59.9742886" lon="17.7336044">
        <ele>30.8995</ele>
        <time>2014-06-15T12:05:04Z</time>
      </trkpt>
      <trkpt lat="59.9742982" lon="17.7334441">
        <ele>31.3801</ele>
        <time>2014-06-15T12:05:05Z</time>
      </trkpt>
      <trkpt lat="59.9743066" lon="17.7332863">
        <ele>31.3801</ele>
        <time>2014-06-15T12:05:06Z</time>
      </trkpt>
      <trkpt lat="59.9743126" lon="17.7331302">
        <ele>31.3801</ele>
        <time>2014-06-15T12:05:07Z</time>
      </trkpt>
      <trkpt lat="59.9743175" lon="17.7329745">
        <ele>31.3801</ele>
        <time>2014-06-15T12:05:08Z</time>
      </trkpt>
      <trkpt lat="59.9743212" lon="17.7328189">
        <ele>31.3801</ele>
        <time>2014-06-15T12:05:09Z</time>
      </trkpt>
      <trkpt lat="59.9743228" lon="17.7326643">
        <ele>31.3801</ele>
        <time>2014-06-15T12:05:10Z</time>
      </trkpt>
      <trkpt lat="59.9743233" lon="17.7325105">
        <ele>31.3801</ele>
        <time>2014-06-15T12:05:11Z</time>
      </trkpt>
      <trkpt lat="59.9743223" lon="17.7323573">
        <ele>31.3801</ele>
        <time>2014-06-15T12:05:12Z</time>
      </trkpt>
      <trkpt lat="59.9743196" lon="17.7322046">
        <ele>31.3801</ele>
        <time>2014-06-15T12:05:13Z</time>
      </trkpt>
      <trkpt lat="59.9743166" lon="17.7320513">
        <ele>31.3801</ele>
        <time>2014-06-15T12:05:14Z</time>
      </trkpt>
      <trkpt lat="59.9743137" lon="17.7318971">
        <ele>31.3801</ele>
        <time>2014-06-15T12:05:15Z</time>
      </trkpt>
      <trkpt lat="59.9743113" lon="17.7317421">
        <ele>31.3801</ele>
        <time>2014-06-15T12:05:16Z</time>
      </trkpt>
      <trkpt lat="59.9743109" lon="17.7315857">
        <ele>31.3801</ele>
        <time>2014-06-15T12:05:17Z</time>
      </trkpt>
      <trkpt lat="59.9743135" lon="17.7314293">
        <ele>31.3801</ele>
        <time>2014-06-15T12:05:18Z</time>
      </trkpt>
      <trkpt lat="59.9743191" lon="17.7312739">
        <ele>31.3801</ele>
        <time>2014-06-15T12:05:19Z</time>
      </trkpt>
      <trkpt lat="59.9743264" lon="17.7311207">
        <ele>31.3801</ele>
        <time>2014-06-15T12:05:20Z</time>
      </trkpt>
      <trkpt lat="59.9743339" lon="17.7309696">
        <ele>31.3801</ele>
        <time>2014-06-15T12:05:21Z</time>
      </trkpt>
      <trkpt lat="59.9743412" lon="17.7308205">
        <ele>31.3801</ele>
        <time>2014-06-15T12:05:22Z</time>
      </trkpt>
      <trkpt lat="59.9743504" lon="17.730673">
        <ele>31.3801</ele>
        <time>2014-06-15T12:05:23Z</time>
      </trkpt>
      <trkpt lat="59.9743615" lon="17.7305269">
        <ele>31.3801</ele>
        <time>2014-06-15T12:05:24Z</time>
      </trkpt>
      <trkpt lat="59.9743738" lon="17.7303832">
        <ele>31.3801</ele>
        <time>2014-06-15T12:05:25Z</time>
      </trkpt>
      <trkpt lat="59.9743865" lon="17.730242">
        <ele>31.3801</ele>
        <time>2014-06-15T12:05:26Z</time>
      </trkpt>
      <trkpt lat="59.9743993" lon="17.7301027">
        <ele>31.3801</ele>
        <time>2014-06-15T12:05:27Z</time>
      </trkpt>
      <trkpt lat="59.9744121" lon="17.7299643">
        <ele>31.3801</ele>
        <time>2014-06-15T12:05:28Z</time>
      </trkpt>
      <trkpt lat="59.9744241" lon="17.729826">
        <ele>31.3801</ele>
        <time>2014-06-15T12:05:29Z</time>
      </trkpt>
      <trkpt lat="59.9744331" lon="17.7296867">
        <ele>31.3801</ele>
        <time>2014-06-15T12:05:30Z</time>
      </trkpt>
      <trkpt lat="59.9744406" lon="17.7295462">
        <ele>31.3801</ele>
        <time>2014-06-15T12:05:31Z</time>
      </trkpt>
      <trkpt lat="59.9744459" lon="17.7294048">
        <ele>31.3801</ele>
        <time>2014-06-15T12:05:32Z</time>
      </trkpt>
      <trkpt lat="59.974447" lon="17.7292626">
        <ele>31.3801</ele>
        <time>2014-06-15T12:05:33Z</time>
      </trkpt>
      <trkpt lat="59.9744448" lon="17.72912">
        <ele>31.3801</ele>
        <time>2014-06-15T12:05:34Z</time>
      </trkpt>
      <trkpt lat="59.9744414" lon="17.7289765">
        <ele>31.3801</ele>
        <time>2014-06-15T12:05:35Z</time>
      </trkpt>
      <trkpt lat="59.9744372" lon="17.7288312">
        <ele>31.3801</ele>
        <time>2014-06-15T12:05:36Z</time>
      </trkpt>
      <trkpt lat="59.9744324" lon="17.7286841">
        <ele>31.3801</ele>
        <time>2014-06-15T12:05:37Z</time>
      </trkpt>
      <trkpt lat="59.9744289" lon="17.7285357">
        <ele>31.3801</ele>
        <time>2014-06-15T12:05:38Z</time>
      </trkpt>
      <trkpt lat="59.9744264" lon="17.7283865">
        <ele>31.3801</ele>
        <time>2014-06-15T12:05:39Z</time>
      </trkpt>
      <trkpt lat="59.974423" lon="17.7282366">
        <ele>31.3801</ele>
        <time>2014-06-15T12:05:40Z</time>
      </trkpt>
      <trkpt lat="59.9744194" lon="17.7280864">
        <ele>31.3801</ele>
        <time>2014-06-15T12:05:41Z</time>
      </trkpt>
      <trkpt lat="59.9744164" lon="17.7279363">
        <ele>31.3801</ele>
        <time>2014-06-15T12:05:42Z</time>
      </trkpt>
      <trkpt lat="59.9744138" lon="17.7277877">
        <ele>31.3801</ele>
        <time>2014-06-15T12:05:43Z</time>
      </trkpt>
      <trkpt lat="59.9744118" lon="17.7276415">
        <ele>31.3801</ele>
        <time>2014-06-15T12:05:44Z</time>
      </trkpt>
      <trkpt lat="59.9744097" lon="17.7274976">
        <ele>31.8607</ele>
        <time>2014-06-15T12:05:45Z</time>
      </trkpt>
      <trkpt lat="59.9744075" lon="17.7273571">
        <ele>31.8607</ele>
        <time>2014-06-15T12:05:46Z</time>
      </trkpt>
      <trkpt lat="59.9744045" lon="17.7272206">
        <ele>31.8607</ele>
        <time>2014-06-15T12:05:47Z</time>
      </trkpt>
      <trkpt lat="59.9744014" lon="17.7270878">
        <ele>31.8607</ele>
        <time>2014-06-15T12:05:48Z</time>
      </trkpt>
      <trkpt lat="59.9743993" lon="17.7269578">
        <ele>32.3416</ele>
        <time>2014-06-15T12:05:49Z</time>
      </trkpt>
      <trkpt lat="59.9743978" lon="17.726833">
        <ele>32.3416</ele>
        <time>2014-06-15T12:05:50Z</time>
      </trkpt>
      <trkpt lat="59.9743956" lon="17.7267103">
        <ele>32.3416</ele>
        <time>2014-06-15T12:05:51Z</time>
      </trkpt>
      <trkpt lat="59.9743934" lon="17.7265886">
        <ele>32.3416</ele>
        <time>2014-06-15T12:05:52Z</time>
      </trkpt>
      <trkpt lat="59.9743905" lon="17.7264667">
        <ele>32.8223</ele>
        <time>2014-06-15T12:05:53Z</time>
      </trkpt>
      <trkpt lat="59.9743869" lon="17.7263448">
        <ele>32.8223</ele>
        <time>2014-06-15T12:05:54Z</time>
      </trkpt>
      <trkpt lat="59.9743817" lon="17.7262221">
        <ele>32.8223</ele>
        <time>2014-06-15T12:05:55Z</time>
      </trkpt>
      <trkpt lat="59.9743755" lon="17.7260995">
        <ele>32.8223</ele>
        <time>2014-06-15T12:05:56Z</time>
      </trkpt>
      <trkpt lat="59.9743677" lon="17.7259746">
        <ele>32.8223</ele>
        <time>2014-06-15T12:05:57Z</time>
      </trkpt>
      <trkpt lat="59.9743604" lon="17.7258458">
        <ele>32.8223</ele>
        <time>2014-06-15T12:05:58Z</time>
      </trkpt>
      <trkpt lat="59.9743528" lon="17.7257136">
        <ele>32.8223</ele>
        <time>2014-06-15T12:05:59Z</time>
      </trkpt>
      <trkpt lat="59.9743428" lon="17.7255747">
        <ele>32.3416</ele>
        <time>2014-06-15T12:06:00Z</time>
      </trkpt>
      <trkpt lat="59.9743316" lon="17.7254336">
        <ele>32.3416</ele>
        <time>2014-06-15T12:06:01Z</time>
      </trkpt>
      <trkpt lat="59.974318" lon="17.7252945">
        <ele>32.3416</ele>
        <time>2014-06-15T12:06:02Z</time>
      </trkpt>
      <trkpt lat="59.9743018" lon="17.725156">
        <ele>31.8607</ele>
        <time>2014-06-15T12:06:03Z</time>
      </trkpt>
      <trkpt lat="59.9742837" lon="17.7250174">
        <ele>31.8607</ele>
        <time>2014-06-15T12:06:04Z</time>
      </trkpt>
      <trkpt lat="59.9742651" lon="17.7248791">
        <ele>31.8607</ele>
        <time>2014-06-15T12:06:05Z</time>
      </trkpt>
      <trkpt lat="59.974246" lon="17.7247406">
        <ele>31.8607</ele>
        <time>2014-06-15T12:06:06Z</time>
      </trkpt>
      <trkpt lat="59.9742258" lon="17.7246014">
        <ele>31.8607</ele>
        <time>2014-06-15T12:06:07Z</time>
      </trkpt>
      <trkpt lat="59.9742057" lon="17.7244614">
        <ele>31.8607</ele>
        <time>2014-06-15T12:06:08Z</time>
      </trkpt>
      <trkpt lat="59.9741854" lon="17.7243209">
        <ele>31.8607</ele>
        <time>2014-06-15T12:06:09Z</time>
      </trkpt>
      <trkpt lat="59.974165" lon="17.7241797">
        <ele>31.8607</ele>
        <time>2014-06-15T12:06:10Z</time>
      </trkpt>
      <trkpt lat="59.974144" lon="17.7240362">
        <ele>31.8607</ele>
        <time>2014-06-15T12:06:11Z</time>
      </trkpt>
      <trkpt lat="59.9741222" lon="17.7238907">
        <ele>31.8607</ele>
        <time>2014-06-15T12:06:12Z</time>
      </trkpt>
      <trkpt lat="59.9741" lon="17.7237444">
        <ele>31.8607</ele>
        <time>2014-06-15T12:06:13Z</time>
      </trkpt>
      <trkpt lat="59.9740772" lon="17.7235978">
        <ele>31.8607</ele>
        <time>2014-06-15T12:06:14Z</time>
      </trkpt>
      <trkpt lat="59.9740541" lon="17.7234513">
        <ele>31.8607</ele>
        <time>2014-06-15T12:06:15Z</time>
      </trkpt>
      <trkpt lat="59.9740304" lon="17.7233057">
        <ele>31.8607</ele>
        <time>2014-06-15T12:06:16Z</time>
      </trkpt>
      <trkpt lat="59.9740044" lon="17.7231621">
        <ele>31.8607</ele>
        <time>2014-06-15T12:06:17Z</time>
      </trkpt>
      <trkpt lat="59.9739739" lon="17.7230203">
        <ele>31.8607</ele>
        <time>2014-06-15T12:06:18Z</time>
      </trkpt>
      <trkpt lat="59.9739402" lon="17.7228786">
        <ele>31.8607</ele>
        <time>2014-06-15T12:06:19Z</time>
      </trkpt>
      <trkpt lat="59.9739048" lon="17.7227375">
        <ele>31.8607</ele>
        <time>2014-06-15T12:06:20Z</time>
      </trkpt>
      <trkpt lat="59.9738672" lon="17.7225967">
        <ele>31.8607</ele>
        <time>2014-06-15T12:06:21Z</time>
      </trkpt>
      <trkpt lat="59.9738283" lon="17.7224548">
        <ele>31.8607</ele>
        <time>2014-06-15T12:06:22Z</time>
      </trkpt>
      <trkpt lat="59.9737886" lon="17.7223113">
        <ele>31.8607</ele>
        <time>2014-06-15T12:06:23Z</time>
      </trkpt>
      <trkpt lat="59.9737461" lon="17.7221683">
        <ele>31.8607</ele>
        <time>2014-06-15T12:06:24Z</time>
      </trkpt>
      <trkpt lat="59.9737007" lon="17.7220277">
        <ele>31.8607</ele>
        <time>2014-06-15T12:06:25Z</time>
      </trkpt>
      <trkpt lat="59.9736529" lon="17.7218918">
        <ele>31.8607</ele>
        <time>2014-06-15T12:06:26Z</time>
      </trkpt>
      <trkpt lat="59.9736025" lon="17.7217609">
        <ele>31.8607</ele>
        <time>2014-06-15T12:06:27Z</time>
      </trkpt>
      <trkpt lat="59.9735494" lon="17.7216333">
        <ele>31.8607</ele>
        <time>2014-06-15T12:06:28Z</time>
      </trkpt>
      <trkpt lat="59.9734945" lon="17.7215082">
        <ele>32.3416</ele>
        <time>2014-06-15T12:06:29Z</time>
      </trkpt>
      <trkpt lat="59.9734383" lon="17.7213845">
        <ele>32.3416</ele>
        <time>2014-06-15T12:06:30Z</time>
      </trkpt>
      <trkpt lat="59.9733802" lon="17.7212638">
        <ele>32.3416</ele>
        <time>2014-06-15T12:06:31Z</time>
      </trkpt>
      <trkpt lat="59.9733196" lon="17.7211481">
        <ele>32.3416</ele>
        <time>2014-06-15T12:06:32Z</time>
      </trkpt>
      <trkpt lat="59.9732551" lon="17.7210353">
        <ele>32.3416</ele>
        <time>2014-06-15T12:06:33Z</time>
      </trkpt>
      <trkpt lat="59.9731888" lon="17.7209277">
        <ele>32.8223</ele>
        <time>2014-06-15T12:06:34Z</time>
      </trkpt>
      <trkpt lat="59.9731213" lon="17.7208241">
        <ele>32.8223</ele>
        <time>2014-06-15T12:06:35Z</time>
      </trkpt>
      <trkpt lat="59.9730528" lon="17.7207236">
        <ele>32.8223</ele>
        <time>2014-06-15T12:06:36Z</time>
      </trkpt>
      <trkpt lat="59.9729832" lon="17.7206267">
        <ele>33.3029</ele>
        <time>2014-06-15T12:06:37Z</time>
      </trkpt>
      <trkpt lat="59.9729132" lon="17.7205335">
        <ele>33.3029</ele>
        <time>2014-06-15T12:06:38Z</time>
      </trkpt>
      <trkpt lat="59.9728425" lon="17.7204462">
        <ele>33.3029</ele>
        <time>2014-06-15T12:06:39Z</time>
      </trkpt>
      <trkpt lat="59.9727708" lon="17.7203656">
        <ele>33.7834</ele>
        <time>2014-06-15T12:06:40Z</time>
      </trkpt>
      <trkpt lat="59.972699" lon="17.7202908">
        <ele>33.7834</ele>
        <time>2014-06-15T12:06:41Z</time>
      </trkpt>
      <trkpt lat="59.9726266" lon="17.720221">
        <ele>33.7834</ele>
        <time>2014-06-15T12:06:42Z</time>
      </trkpt>
      <trkpt lat="59.9725542" lon="17.7201542">
        <ele>33.7834</ele>
        <time>2014-06-15T12:06:43Z</time>
      </trkpt>
      <trkpt lat="59.9724823" lon="17.720088">
        <ele>33.7834</ele>
        <time>2014-06-15T12:06:44Z</time>
      </trkpt>
      <trkpt lat="59.9724102" lon="17.7200212">
        <ele>33.7834</ele>
        <time>2014-06-15T12:06:45Z</time>
      </trkpt>
      <trkpt lat="59.9723371" lon="17.719956">
        <ele>34.2642</ele>
        <time>2014-06-15T12:06:46Z</time>
      </trkpt>
      <trkpt lat="59.9722636" lon="17.7198916">
        <ele>34.2642</ele>
        <time>2014-06-15T12:06:47Z</time>
      </trkpt>
      <trkpt lat="59.9721901" lon="17.7198272">
        <ele>34.2642</ele>
        <time>2014-06-15T12:06:48Z</time>
      </trkpt>
      <trkpt lat="59.9721174" lon="17.7197626">
        <ele>34.2642</ele>
        <time>2014-06-15T12:06:49Z</time>
      </trkpt>
      <trkpt lat="59.9720461" lon="17.7196967">
        <ele>34.2642</ele>
        <time>2014-06-15T12:06:50Z</time>
      </trkpt>
      <trkpt lat="59.9719756" lon="17.7196325">
        <ele>34.7449</ele>
        <time>2014-06-15T12:06:51Z</time>
      </trkpt>
      <trkpt lat="59.9719052" lon="17.7195706">
        <ele>34.7449</ele>
        <time>2014-06-15T12:06:52Z</time>
      </trkpt>
      <trkpt lat="59.9718352" lon="17.7195093">
        <ele>34.7449</ele>
        <time>2014-06-15T12:06:53Z</time>
      </trkpt>
      <trkpt lat="59.9717657" lon="17.7194487">
        <ele>34.7449</ele>
        <time>2014-06-15T12:06:54Z</time>
      </trkpt>
      <trkpt lat="59.9716962" lon="17.7193872">
        <ele>34.7449</ele>
        <time>2014-06-15T12:06:55Z</time>
      </trkpt>
      <trkpt lat="59.971627" lon="17.7193245">
        <ele>34.7449</ele>
        <time>2014-06-15T12:06:56Z</time>
      </trkpt>
      <trkpt lat="59.9715586" lon="17.7192616">
        <ele>34.7449</ele>
        <time>2014-06-15T12:06:57Z</time>
      </trkpt>
      <trkpt lat="59.9714919" lon="17.7192006">
        <ele>35.2255</ele>
        <time>2014-06-15T12:06:58Z</time>
      </trkpt>
      <trkpt lat="59.9714268" lon="17.719144">
        <ele>35.2255</ele>
        <time>2014-06-15T12:06:59Z</time>
      </trkpt>
      <trkpt lat="59.9713627" lon="17.7190871">
        <ele>35.2255</ele>
        <time>2014-06-15T12:07:00Z</time>
      </trkpt>
      <trkpt lat="59.9712994" lon="17.7190292">
        <ele>35.2255</ele>
        <time>2014-06-15T12:07:01Z</time>
      </trkpt>
      <trkpt lat="59.9712358" lon="17.7189723">
        <ele>35.2255</ele>
        <time>2014-06-15T12:07:02Z</time>
      </trkpt>
      <trkpt lat="59.9711722" lon="17.7189152">
        <ele>35.2255</ele>
        <time>2014-06-15T12:07:03Z</time>
      </trkpt>
      <trkpt lat="59.971109" lon="17.7188573">
        <ele>35.2255</ele>
        <time>2014-06-15T12:07:04Z</time>
      </trkpt>
      <trkpt lat="59.9710463" lon="17.7188">
        <ele>35.2255</ele>
        <time>2014-06-15T12:07:05Z</time>
      </trkpt>
      <trkpt lat="59.9709839" lon="17.7187436">
        <ele>35.2255</ele>
        <time>2014-06-15T12:07:06Z</time>
      </trkpt>
      <trkpt lat="59.9709218" lon="17.7186881">
        <ele>35.2255</ele>
        <time>2014-06-15T12:07:07Z</time>
      </trkpt>
      <trkpt lat="59.9708599" lon="17.7186325">
        <ele>35.2255</ele>
        <time>2014-06-15T12:07:08Z</time>
      </trkpt>
      <trkpt lat="59.970798" lon="17.7185776">
        <ele>35.2255</ele>
        <time>2014-06-15T12:07:09Z</time>
      </trkpt>
      <trkpt lat="59.9707358" lon="17.7185221">
        <ele>35.2255</ele>
        <time>2014-06-15T12:07:10Z</time>
      </trkpt>
      <trkpt lat="59.9706738" lon="17.7184661">
        <ele>35.7061</ele>
        <time>2014-06-15T12:07:11Z</time>
      </trkpt>
      <trkpt lat="59.9706115" lon="17.71841">
        <ele>35.7061</ele>
        <time>2014-06-15T12:07:12Z</time>
      </trkpt>
      <trkpt lat="59.9705493" lon="17.7183541">
        <ele>35.7061</ele>
        <time>2014-06-15T12:07:13Z</time>
      </trkpt>
      <trkpt lat="59.9704871" lon="17.7182993">
        <ele>35.7061</ele>
        <time>2014-06-15T12:07:14Z</time>
      </trkpt>
      <trkpt lat="59.9704247" lon="17.7182448">
        <ele>35.7061</ele>
        <time>2014-06-15T12:07:15Z</time>
      </trkpt>
      <trkpt lat="59.9703618" lon="17.7181884">
        <ele>35.7061</ele>
        <time>2014-06-15T12:07:16Z</time>
      </trkpt>
      <trkpt lat="59.9702988" lon="17.7181305">
        <ele>35.7061</ele>
        <time>2014-06-15T12:07:17Z</time>
      </trkpt>
      <trkpt lat="59.9702349" lon="17.718072">
        <ele>35.7061</ele>
        <time>2014-06-15T12:07:18Z</time>
      </trkpt>
      <trkpt lat="59.9701699" lon="17.7180127">
        <ele>35.7061</ele>
        <time>2014-06-15T12:07:19Z</time>
      </trkpt>
      <trkpt lat="59.970105" lon="17.7179539">
        <ele>35.7061</ele>
        <time>2014-06-15T12:07:20Z</time>
      </trkpt>
      <trkpt lat="59.9700398" lon="17.7178953">
        <ele>35.7061</ele>
        <time>2014-06-15T12:07:21Z</time>
      </trkpt>
      <trkpt lat="59.9699754" lon="17.7178367">
        <ele>36.1868</ele>
        <time>2014-06-15T12:07:22Z</time>
      </trkpt>
      <trkpt lat="59.9699114" lon="17.7177788">
        <ele>36.1868</ele>
        <time>2014-06-15T12:07:23Z</time>
      </trkpt>
      <trkpt lat="59.9698477" lon="17.7177238">
        <ele>36.1868</ele>
        <time>2014-06-15T12:07:24Z</time>
      </trkpt>
      <trkpt lat="59.9697839" lon="17.717672">
        <ele>36.1868</ele>
        <time>2014-06-15T12:07:25Z</time>
      </trkpt>
      <trkpt lat="59.96972" lon="17.7176222">
        <ele>36.1868</ele>
        <time>2014-06-15T12:07:26Z</time>
      </trkpt>
      <trkpt lat="59.9696555" lon="17.7175741">
        <ele>36.1868</ele>
        <time>2014-06-15T12:07:27Z</time>
      </trkpt>
      <trkpt lat="59.9695912" lon="17.7175295">
        <ele>36.6675</ele>
        <time>2014-06-15T12:07:28Z</time>
      </trkpt>
      <trkpt lat="59.9695272" lon="17.7174869">
        <ele>36.6675</ele>
        <time>2014-06-15T12:07:29Z</time>
      </trkpt>
      <trkpt lat="59.9694633" lon="17.7174457">
        <ele>36.6675</ele>
        <time>2014-06-15T12:07:30Z</time>
      </trkpt>
      <trkpt lat="59.9693998" lon="17.7174093">
        <ele>36.6675</ele>
        <time>2014-06-15T12:07:31Z</time>
      </trkpt>
      <trkpt lat="59.9693364" lon="17.7173787">
        <ele>36.6675</ele>
        <time>2014-06-15T12:07:32Z</time>
      </trkpt>
      <trkpt lat="59.9692716" lon="17.7173494">
        <ele>36.6675</ele>
        <time>2014-06-15T12:07:33Z</time>
      </trkpt>
      <trkpt lat="59.9692074" lon="17.71732">
        <ele>37.1481</ele>
        <time>2014-06-15T12:07:34Z</time>
      </trkpt>
      <trkpt lat="59.969143" lon="17.7172931">
        <ele>37.1481</ele>
        <time>2014-06-15T12:07:35Z</time>
      </trkpt>
      <trkpt lat="59.9690773" lon="17.7172667">
        <ele>37.1481</ele>
        <time>2014-06-15T12:07:36Z</time>
      </trkpt>
      <trkpt lat="59.9690118" lon="17.7172387">
        <ele>37.1481</ele>
        <time>2014-06-15T12:07:37Z</time>
      </trkpt>
      <trkpt lat="59.968946" lon="17.7172108">
        <ele>37.1481</ele>
        <time>2014-06-15T12:07:38Z</time>
      </trkpt>
      <trkpt lat="59.9688799" lon="17.7171835">
        <ele>37.1481</ele>
        <time>2014-06-15T12:07:39Z</time>
      </trkpt>
      <trkpt lat="59.9688129" lon="17.7171559">
        <ele>37.1481</ele>
        <time>2014-06-15T12:07:40Z</time>
      </trkpt>
      <trkpt lat="59.9687451" lon="17.7171279">
        <ele>36.6675</ele>
        <time>2014-06-15T12:07:41Z</time>
      </trkpt>
      <trkpt lat="59.9686764" lon="17.7171001">
        <ele>36.6675</ele>
        <time>2014-06-15T12:07:42Z</time>
      </trkpt>
      <trkpt lat="59.9686065" lon="17.7170711">
        <ele>36.6675</ele>
        <time>2014-06-15T12:07:43Z</time>
      </trkpt>
      <trkpt lat="59.9685358" lon="17.7170374">
        <ele>36.1868</ele>
        <time>2014-06-15T12:07:44Z</time>
      </trkpt>
      <trkpt lat="59.968463" lon="17.7170006">
        <ele>36.1868</ele>
        <time>2014-06-15T12:07:45Z</time>
      </trkpt>
      <trkpt lat="59.9683892" lon="17.7169597">
        <ele>35.7061</ele>
        <time>2014-06-15T12:07:46Z</time>
      </trkpt>
      <trkpt lat="59.9683149" lon="17.7169095">
        <ele>35.7061</ele>
        <time>2014-06-15T12:07:47Z</time>
      </trkpt>
      <trkpt lat="59.9682402" lon="17.7168466">
        <ele>35.2255</ele>
        <time>2014-06-15T12:07:48Z</time>
      </trkpt>
      <trkpt lat="59.9681647" lon="17.7167691">
        <ele>34.7449</ele>
        <time>2014-06-15T12:07:49Z</time>
      </trkpt>
      <trkpt lat="59.9680891" lon="17.7166753">
        <ele>34.2642</ele>
        <time>2014-06-15T12:07:50Z</time>
      </trkpt>
      <trkpt lat="59.9680137" lon="17.716567">
        <ele>33.7834</ele>
        <time>2014-06-15T12:07:51Z</time>
      </trkpt>
      <trkpt lat="59.9679378" lon="17.716447">
        <ele>33.3029</ele>
        <time>2014-06-15T12:07:52Z</time>
      </trkpt>
      <trkpt lat="59.9678615" lon="17.7163137">
        <ele>32.3416</ele>
        <time>2014-06-15T12:07:53Z</time>
      </trkpt>
      <trkpt lat="59.967787" lon="17.7161634">
        <ele>31.8607</ele>
        <time>2014-06-15T12:07:54Z</time>
      </trkpt>
      <trkpt lat="59.9677185" lon="17.715994">
        <ele>30.8995</ele>
        <time>2014-06-15T12:07:55Z</time>
      </trkpt>
      <trkpt lat="59.9676565" lon="17.7158076">
        <ele>30.4188</ele>
        <time>2014-06-15T12:07:56Z</time>
      </trkpt>
      <trkpt lat="59.9676009" lon="17.7156114">
        <ele>29.9381</ele>
        <time>2014-06-15T12:07:57Z</time>
      </trkpt>
      <trkpt lat="59.9675543" lon="17.7153989">
        <ele>29.4575</ele>
        <time>2014-06-15T12:07:58Z</time>
      </trkpt>
      <trkpt lat="59.9675216" lon="17.7151814">
        <ele>28.4962</ele>
        <time>2014-06-15T12:07:59Z</time>
      </trkpt>
      <trkpt lat="59.9675035" lon="17.7149522">
        <ele>28.0155</ele>
        <time>2014-06-15T12:08:00Z</time>
      </trkpt>
      <trkpt lat="59.9674771" lon="17.7147673">
        <ele>28.0155</ele>
        <time>2014-06-15T12:08:01Z</time>
      </trkpt>
      <trkpt lat="59.9674548" lon="17.7145758">
        <ele>28.4962</ele>
        <time>2014-06-15T12:08:02Z</time>
      </trkpt>
      <trkpt lat="59.9674327" lon="17.7143935">
        <ele>28.9769</ele>
        <time>2014-06-15T12:08:03Z</time>
      </trkpt>
      <trkpt lat="59.9674123" lon="17.7142178">
        <ele>29.4575</ele>
        <time>2014-06-15T12:08:04Z</time>
      </trkpt>
      <trkpt lat="59.9673897" lon="17.7140568">
        <ele>29.9381</ele>
        <time>2014-06-15T12:08:05Z</time>
      </trkpt>
      <trkpt lat="59.9673697" lon="17.7139034">
        <ele>30.4188</ele>
        <time>2014-06-15T12:08:06Z</time>
      </trkpt>
      <trkpt lat="59.9673491" lon="17.7137559">
        <ele>30.8995</ele>
        <time>2014-06-15T12:08:07Z</time>
      </trkpt>
      <trkpt lat="59.967328" lon="17.7136123">
        <ele>31.3801</ele>
        <time>2014-06-15T12:08:08Z</time>
      </trkpt>
      <trkpt lat="59.9673068" lon="17.7134717">
        <ele>31.8607</ele>
        <time>2014-06-15T12:08:09Z</time>
      </trkpt>
      <trkpt lat="59.9672834" lon="17.7133357">
        <ele>31.8607</ele>
        <time>2014-06-15T12:08:10Z</time>
      </trkpt>
      <trkpt lat="59.9672585" lon="17.7132055">
        <ele>32.3416</ele>
        <time>2014-06-15T12:08:11Z</time>
      </trkpt>
      <trkpt lat="59.9672322" lon="17.7130799">
        <ele>32.8223</ele>
        <time>2014-06-15T12:08:12Z</time>
      </trkpt>
      <trkpt lat="59.9672057" lon="17.7129572">
        <ele>32.8223</ele>
        <time>2014-06-15T12:08:13Z</time>
      </trkpt>
      <trkpt lat="59.9671772" lon="17.7128363">
        <ele>33.3029</ele>
        <time>2014-06-15T12:08:14Z</time>
      </trkpt>
      <trkpt lat="59.9671456" lon="17.7127181">
        <ele>33.3029</ele>
        <time>2014-06-15T12:08:15Z</time>
      </trkpt>
      <trkpt lat="59.9671125" lon="17.7126034">
        <ele>33.7834</ele>
        <time>2014-06-15T12:08:16Z</time>
      </trkpt>
      <trkpt lat="59.9670771" lon="17.7124924">
        <ele>33.7834</ele>
        <time>2014-06-15T12:08:17Z</time>
      </trkpt>
      <trkpt lat="59.9670403" lon="17.7123831">
        <ele>33.7834</ele>
        <time>2014-06-15T12:08:18Z</time>
      </trkpt>
      <trkpt lat="59.9670016" lon="17.7122753">
        <ele>34.2642</ele>
        <time>2014-06-15T12:08:19Z</time>
      </trkpt>
      <trkpt lat="59.9669608" lon="17.7121695">
        <ele>34.2642</ele>
        <time>2014-06-15T12:08:20Z</time>
      </trkpt>
      <trkpt lat="59.9669192" lon="17.712064">
        <ele>34.2642</ele>
        <time>2014-06-15T12:08:21Z</time>
      </trkpt>
      <trkpt lat="59.9668774" lon="17.7119566">
        <ele>34.2642</ele>
        <time>2014-06-15T12:08:22Z</time>
      </trkpt>
      <trkpt lat="59.9668354" lon="17.7118474">
        <ele>34.2642</ele>
        <time>2014-06-15T12:08:23Z</time>
      </trkpt>
      <trkpt lat="59.9667932" lon="17.7117371">
        <ele>34.2642</ele>
        <time>2014-06-15T12:08:24Z</time>
      </trkpt>
      <trkpt lat="59.9667505" lon="17.7116263">
        <ele>34.2642</ele>
        <time>2014-06-15T12:08:25Z</time>
      </trkpt>
      <trkpt lat="59.9667077" lon="17.7115144">
        <ele>34.2642</ele>
        <time>2014-06-15T12:08:26Z</time>
      </trkpt>
      <trkpt lat="59.9666659" lon="17.7113987">
        <ele>33.7834</ele>
        <time>2014-06-15T12:08:27Z</time>
      </trkpt>
      <trkpt lat="59.9666262" lon="17.7112787">
        <ele>33.7834</ele>
        <time>2014-06-15T12:08:28Z</time>
      </trkpt>
      <trkpt lat="59.9665883" lon="17.7111533">
        <ele>33.7834</ele>
        <time>2014-06-15T12:08:29Z</time>
      </trkpt>
      <trkpt lat="59.9665515" lon="17.7110241">
        <ele>33.7834</ele>
        <time>2014-06-15T12:08:30Z</time>
      </trkpt>
      <trkpt lat="59.9665127" lon="17.7108902">
        <ele>33.3029</ele>
        <time>2014-06-15T12:08:31Z</time>
      </trkpt>
      <trkpt lat="59.9664753" lon="17.710757">
        <ele>33.3029</ele>
        <time>2014-06-15T12:08:32Z</time>
      </trkpt>
      <trkpt lat="59.966438" lon="17.710627">
        <ele>33.3029</ele>
        <time>2014-06-15T12:08:33Z</time>
      </trkpt>
      <trkpt lat="59.9664018" lon="17.7104945">
        <ele>33.3029</ele>
        <time>2014-06-15T12:08:34Z</time>
      </trkpt>
      <trkpt lat="59.9663649" lon="17.7103627">
        <ele>33.3029</ele>
        <time>2014-06-15T12:08:35Z</time>
      </trkpt>
      <trkpt lat="59.9663276" lon="17.7102323">
        <ele>32.8223</ele>
        <time>2014-06-15T12:08:36Z</time>
      </trkpt>
      <trkpt lat="59.9662897" lon="17.7101024">
        <ele>32.8223</ele>
        <time>2014-06-15T12:08:37Z</time>
      </trkpt>
      <trkpt lat="59.9662522" lon="17.7099711">
        <ele>32.8223</ele>
        <time>2014-06-15T12:08:38Z</time>
      </trkpt>
      <trkpt lat="59.9662153" lon="17.7098359">
        <ele>32.8223</ele>
        <time>2014-06-15T12:08:39Z</time>
      </trkpt>
      <trkpt lat="59.966177" lon="17.7097019">
        <ele>32.8223</ele>
        <time>2014-06-15T12:08:40Z</time>
      </trkpt>
      <trkpt lat="59.9661397" lon="17.7095681">
        <ele>32.8223</ele>
        <time>2014-06-15T12:08:41Z</time>
      </trkpt>
      <trkpt lat="59.9661019" lon="17.709435">
        <ele>32.8223</ele>
        <time>2014-06-15T12:08:42Z</time>
      </trkpt>
      <trkpt lat="59.966063" lon="17.709302">
        <ele>32.8223</ele>
        <time>2014-06-15T12:08:43Z</time>
      </trkpt>
      <trkpt lat="59.9660227" lon="17.7091688">
        <ele>32.8223</ele>
        <time>2014-06-15T12:08:44Z</time>
      </trkpt>
      <trkpt lat="59.9659812" lon="17.709035">
        <ele>32.8223</ele>
        <time>2014-06-15T12:08:45Z</time>
      </trkpt>
      <trkpt lat="59.9659383" lon="17.7089016">
        <ele>32.8223</ele>
        <time>2014-06-15T12:08:46Z</time>
      </trkpt>
      <trkpt lat="59.9658934" lon="17.7087708">
        <ele>32.8223</ele>
        <time>2014-06-15T12:08:47Z</time>
      </trkpt>
      <trkpt lat="59.9658465" lon="17.7086414">
        <ele>32.8223</ele>
        <time>2014-06-15T12:08:48Z</time>
      </trkpt>
      <trkpt lat="59.9657978" lon="17.708513">
        <ele>32.8223</ele>
        <time>2014-06-15T12:08:49Z</time>
      </trkpt>
      <trkpt lat="59.9657444" lon="17.7083883">
        <ele>33.3029</ele>
        <time>2014-06-15T12:08:50Z</time>
      </trkpt>
      <trkpt lat="59.9656844" lon="17.7082711">
        <ele>33.3029</ele>
        <time>2014-06-15T12:08:51Z</time>
      </trkpt>
      <trkpt lat="59.9656139" lon="17.7081575">
        <ele>33.3029</ele>
        <time>2014-06-15T12:08:52Z</time>
      </trkpt>
      <trkpt lat="59.9655396" lon="17.7080593">
        <ele>33.3029</ele>
        <time>2014-06-15T12:08:53Z</time>
      </trkpt>
      <trkpt lat="59.9654615" lon="17.7079731">
        <ele>33.7834</ele>
        <time>2014-06-15T12:08:54Z</time>
      </trkpt>
      <trkpt lat="59.9653808" lon="17.7078966">
        <ele>33.7834</ele>
        <time>2014-06-15T12:08:55Z</time>
      </trkpt>
      <trkpt lat="59.965299" lon="17.7078282">
        <ele>33.7834</ele>
        <time>2014-06-15T12:08:56Z</time>
      </trkpt>
      <trkpt lat="59.9652175" lon="17.707762">
        <ele>33.7834</ele>
        <time>2014-06-15T12:08:57Z</time>
      </trkpt>
      <trkpt lat="59.9651382" lon="17.7076956">
        <ele>33.7834</ele>
        <time>2014-06-15T12:08:58Z</time>
      </trkpt>
      <trkpt lat="59.9650611" lon="17.7076317">
        <ele>34.2642</ele>
        <time>2014-06-15T12:08:59Z</time>
      </trkpt>
      <trkpt lat="59.9649854" lon="17.7075722">
        <ele>34.2642</ele>
        <time>2014-06-15T12:09:00Z</time>
      </trkpt>
      <trkpt lat="59.9649104" lon="17.7075177">
        <ele>34.2642</ele>
        <time>2014-06-15T12:09:01Z</time>
      </trkpt>
      <trkpt lat="59.9648359" lon="17.7074641">
        <ele>34.2642</ele>
        <time>2014-06-15T12:09:02Z</time>
      </trkpt>
      <trkpt lat="59.9647624" lon="17.7074107">
        <ele>34.2642</ele>
        <time>2014-06-15T12:09:03Z</time>
      </trkpt>
      <trkpt lat="59.9646892" lon="17.707361">
        <ele>34.7449</ele>
        <time>2014-06-15T12:09:04Z</time>
      </trkpt>
      <trkpt lat="59.9646162" lon="17.7073153">
        <ele>34.7449</ele>
        <time>2014-06-15T12:09:05Z</time>
      </trkpt>
      <trkpt lat="59.9645442" lon="17.7072714">
        <ele>34.7449</ele>
        <time>2014-06-15T12:09:06Z</time>
      </trkpt>
      <trkpt lat="59.9644713" lon="17.7072331">
        <ele>34.7449</ele>
        <time>2014-06-15T12:09:07Z</time>
      </trkpt>
      <trkpt lat="59.964398" lon="17.7072014">
        <ele>34.7449</ele>
        <time>2014-06-15T12:09:08Z</time>
      </trkpt>
      <trkpt lat="59.9643231" lon="17.7071748">
        <ele>34.2642</ele>
        <time>2014-06-15T12:09:09Z</time>
      </trkpt>
      <trkpt lat="59.9642469" lon="17.7071517">
        <ele>34.2642</ele>
        <time>2014-06-15T12:09:10Z</time>
      </trkpt>
      <trkpt lat="59.9641703" lon="17.7071314">
        <ele>34.2642</ele>
        <time>2014-06-15T12:09:11Z</time>
      </trkpt>
      <trkpt lat="59.9640942" lon="17.707114">
        <ele>34.7449</ele>
        <time>2014-06-15T12:09:12Z</time>
      </trkpt>
      <trkpt lat="59.9640188" lon="17.7070987">
        <ele>34.7449</ele>
        <time>2014-06-15T12:09:13Z</time>
      </trkpt>
      <trkpt lat="59.9639432" lon="17.7070862">
        <ele>34.7449</ele>
        <time>2014-06-15T12:09:14Z</time>
      </trkpt>
      <trkpt lat="59.9638677" lon="17.7070766">
        <ele>34.7449</ele>
        <time>2014-06-15T12:09:15Z</time>
      </trkpt>
      <trkpt lat="59.9637932" lon="17.7070672">
        <ele>34.7449</ele>
        <time>2014-06-15T12:09:16Z</time>
      </trkpt>
      <trkpt lat="59.9637198" lon="17.7070573">
        <ele>34.2642</ele>
        <time>2014-06-15T12:09:17Z</time>
      </trkpt>
      <trkpt lat="59.9636466" lon="17.7070492">
        <ele>34.7449</ele>
        <time>2014-06-15T12:09:18Z</time>
      </trkpt>
      <trkpt lat="59.963574" lon="17.7070439">
        <ele>34.7449</ele>
        <time>2014-06-15T12:09:19Z</time>
      </trkpt>
      <trkpt lat="59.9635007" lon="17.7070393">
        <ele>34.7449</ele>
        <time>2014-06-15T12:09:20Z</time>
      </trkpt>
      <trkpt lat="59.9634272" lon="17.7070358">
        <ele>34.7449</ele>
        <time>2014-06-15T12:09:21Z</time>
      </trkpt>
      <trkpt lat="59.9633539" lon="17.7070336">
        <ele>34.7449</ele>
        <time>2014-06-15T12:09:22Z</time>
      </trkpt>
      <trkpt lat="59.9632817" lon="17.7070332">
        <ele>34.7449</ele>
        <time>2014-06-15T12:09:23Z</time>
      </trkpt>
      <trkpt lat="59.9632103" lon="17.7070345">
        <ele>34.7449</ele>
        <time>2014-06-15T12:09:24Z</time>
      </trkpt>
      <trkpt lat="59.9631386" lon="17.707037">
        <ele>34.7449</ele>
        <time>2014-06-15T12:09:25Z</time>
      </trkpt>
      <trkpt lat="59.9630663" lon="17.7070417">
        <ele>35.2255</ele>
        <time>2014-06-15T12:09:26Z</time>
      </trkpt>
      <trkpt lat="59.9629938" lon="17.7070467">
        <ele>35.2255</ele>
        <time>2014-06-15T12:09:27Z</time>
      </trkpt>
      <trkpt lat="59.9629207" lon="17.7070497">
        <ele>35.2255</ele>
        <time>2014-06-15T12:09:28Z</time>
      </trkpt>
      <trkpt lat="59.9628467" lon="17.7070496">
        <ele>35.2255</ele>
        <time>2014-06-15T12:09:29Z</time>
      </trkpt>
      <trkpt lat="59.962772" lon="17.7070475">
        <ele>35.2255</ele>
        <time>2014-06-15T12:09:30Z</time>
      </trkpt>
      <trkpt lat="59.9626975" lon="17.7070403">
        <ele>35.7061</ele>
        <time>2014-06-15T12:09:31Z</time>
      </trkpt>
      <trkpt lat="59.9626227" lon="17.7070241">
        <ele>35.2255</ele>
        <time>2014-06-15T12:09:32Z</time>
      </trkpt>
      <trkpt lat="59.9625477" lon="17.7070041">
        <ele>35.2255</ele>
        <time>2014-06-15T12:09:33Z</time>
      </trkpt>
      <trkpt lat="59.9624732" lon="17.7069818">
        <ele>35.7061</ele>
        <time>2014-06-15T12:09:34Z</time>
      </trkpt>
      <trkpt lat="59.9624002" lon="17.706956">
        <ele>35.7061</ele>
        <time>2014-06-15T12:09:35Z</time>
      </trkpt>
      <trkpt lat="59.9623276" lon="17.7069264">
        <ele>35.7061</ele>
        <time>2014-06-15T12:09:36Z</time>
      </trkpt>
      <trkpt lat="59.9622562" lon="17.7068937">
        <ele>35.7061</ele>
        <time>2014-06-15T12:09:37Z</time>
      </trkpt>
      <trkpt lat="59.9621863" lon="17.7068593">
        <ele>35.7061</ele>
        <time>2014-06-15T12:09:38Z</time>
      </trkpt>
      <trkpt lat="59.9621172" lon="17.7068217">
        <ele>35.7061</ele>
        <time>2014-06-15T12:09:39Z</time>
      </trkpt>
      <trkpt lat="59.9620484" lon="17.7067803">
        <ele>35.7061</ele>
        <time>2014-06-15T12:09:40Z</time>
      </trkpt>
      <trkpt lat="59.9619799" lon="17.7067366">
        <ele>35.7061</ele>
        <time>2014-06-15T12:09:41Z</time>
      </trkpt>
      <trkpt lat="59.9619116" lon="17.7066921">
        <ele>35.7061</ele>
        <time>2014-06-15T12:09:42Z</time>
      </trkpt>
      <trkpt lat="59.9618438" lon="17.7066441">
        <ele>35.7061</ele>
        <time>2014-06-15T12:09:43Z</time>
      </trkpt>
      <trkpt lat="59.9617775" lon="17.7065892">
        <ele>35.7061</ele>
        <time>2014-06-15T12:09:44Z</time>
      </trkpt>
      <trkpt lat="59.9617123" lon="17.7065286">
        <ele>35.7061</ele>
        <time>2014-06-15T12:09:45Z</time>
      </trkpt>
      <trkpt lat="59.9616484" lon="17.7064634">
        <ele>35.7061</ele>
        <time>2014-06-15T12:09:46Z</time>
      </trkpt>
      <trkpt lat="59.961586" lon="17.7063911">
        <ele>35.7061</ele>
        <time>2014-06-15T12:09:47Z</time>
      </trkpt>
      <trkpt lat="59.9615264" lon="17.7063027">
        <ele>35.2255</ele>
        <time>2014-06-15T12:09:48Z</time>
      </trkpt>
      <trkpt lat="59.9614683" lon="17.7062105">
        <ele>35.2255</ele>
        <time>2014-06-15T12:09:49Z</time>
      </trkpt>
      <trkpt lat="59.9614135" lon="17.7061126">
        <ele>35.2255</ele>
        <time>2014-06-15T12:09:50Z</time>
      </trkpt>
      <trkpt lat="59.9613595" lon="17.706014">
        <ele>35.2255</ele>
        <time>2014-06-15T12:09:51Z</time>
      </trkpt>
      <trkpt lat="59.9613036" lon="17.7059163">
        <ele>35.2255</ele>
        <time>2014-06-15T12:09:52Z</time>
      </trkpt>
      <trkpt lat="59.9612487" lon="17.7058141">
        <ele>35.7061</ele>
        <time>2014-06-15T12:09:53Z</time>
      </trkpt>
      <trkpt lat="59.9611935" lon="17.7057101">
        <ele>35.7061</ele>
        <time>2014-06-15T12:09:54Z</time>
      </trkpt>
      <trkpt lat="59.9611368" lon="17.705606">
        <ele>35.7061</ele>
        <time>2014-06-15T12:09:55Z</time>
      </trkpt>
      <trkpt lat="59.9610797" lon="17.7055032">
        <ele>35.7061</ele>
        <time>2014-06-15T12:09:56Z</time>
      </trkpt>
      <trkpt lat="59.9610213" lon="17.7054027">
        <ele>35.7061</ele>
        <time>2014-06-15T12:09:57Z</time>
      </trkpt>
      <trkpt lat="59.960962" lon="17.7053066">
        <ele>35.2255</ele>
        <time>2014-06-15T12:09:58Z</time>
      </trkpt>
      <trkpt lat="59.9609004" lon="17.7052178">
        <ele>35.7061</ele>
        <time>2014-06-15T12:09:59Z</time>
      </trkpt>
      <trkpt lat="59.9608408" lon="17.7051342">
        <ele>35.7061</ele>
        <time>2014-06-15T12:10:00Z</time>
      </trkpt>
      <trkpt lat="59.9607805" lon="17.705053">
        <ele>36.1868</ele>
        <time>2014-06-15T12:10:01Z</time>
      </trkpt>
      <trkpt lat="59.9607171" lon="17.7049651">
        <ele>36.1868</ele>
        <time>2014-06-15T12:10:02Z</time>
      </trkpt>
      <trkpt lat="59.9606566" lon="17.7048889">
        <ele>36.1868</ele>
        <time>2014-06-15T12:10:03Z</time>
      </trkpt>
      <trkpt lat="59.9605923" lon="17.7048139">
        <ele>36.1868</ele>
        <time>2014-06-15T12:10:04Z</time>
      </trkpt>
      <trkpt lat="59.9605277" lon="17.7047378">
        <ele>36.1868</ele>
        <time>2014-06-15T12:10:05Z</time>
      </trkpt>
      <trkpt lat="59.9604611" lon="17.7046586">
        <ele>36.1868</ele>
        <time>2014-06-15T12:10:06Z</time>
      </trkpt>
      <trkpt lat="59.9603961" lon="17.7045855">
        <ele>36.1868</ele>
        <time>2014-06-15T12:10:07Z</time>
      </trkpt>
      <trkpt lat="59.9603313" lon="17.7045133">
        <ele>36.1868</ele>
        <time>2014-06-15T12:10:08Z</time>
      </trkpt>
      <trkpt lat="59.9602659" lon="17.7044404">
        <ele>36.1868</ele>
        <time>2014-06-15T12:10:09Z</time>
      </trkpt>
      <trkpt lat="59.9601991" lon="17.7043628">
        <ele>36.1868</ele>
        <time>2014-06-15T12:10:10Z</time>
      </trkpt>
      <trkpt lat="59.9601334" lon="17.7042727">
        <ele>36.1868</ele>
        <time>2014-06-15T12:10:11Z</time>
      </trkpt>
      <trkpt lat="59.9600722" lon="17.7041676">
        <ele>36.1868</ele>
        <time>2014-06-15T12:10:12Z</time>
      </trkpt>
      <trkpt lat="59.9600153" lon="17.7040437">
        <ele>36.1868</ele>
        <time>2014-06-15T12:10:13Z</time>
      </trkpt>
      <trkpt lat="59.9599684" lon="17.7039018">
        <ele>36.1868</ele>
        <time>2014-06-15T12:10:14Z</time>
      </trkpt>
      <trkpt lat="59.9599218" lon="17.7037511">
        <ele>36.1868</ele>
        <time>2014-06-15T12:10:15Z</time>
      </trkpt>
      <trkpt lat="59.9598868" lon="17.7035815">
        <ele>36.1868</ele>
        <time>2014-06-15T12:10:16Z</time>
      </trkpt>
      <trkpt lat="59.9598459" lon="17.7034562">
        <ele>36.6675</ele>
        <time>2014-06-15T12:10:17Z</time>
      </trkpt>
      <trkpt lat="59.9598094" lon="17.7033204">
        <ele>37.1481</ele>
        <time>2014-06-15T12:10:18Z</time>
      </trkpt>
      <trkpt lat="59.959767" lon="17.7031893">
        <ele>37.1481</ele>
        <time>2014-06-15T12:10:19Z</time>
      </trkpt>
      <trkpt lat="59.9597204" lon="17.7030589">
        <ele>37.6287</ele>
        <time>2014-06-15T12:10:20Z</time>
      </trkpt>
      <trkpt lat="59.9596755" lon="17.7029251">
        <ele>37.6287</ele>
        <time>2014-06-15T12:10:21Z</time>
      </trkpt>
      <trkpt lat="59.9596247" lon="17.7027771">
        <ele>37.6287</ele>
        <time>2014-06-15T12:10:22Z</time>
      </trkpt>
      <trkpt lat="59.959573" lon="17.702617">
        <ele>37.6287</ele>
        <time>2014-06-15T12:10:23Z</time>
      </trkpt>
      <trkpt lat="59.9595288" lon="17.7024735">
        <ele>37.1481</ele>
        <time>2014-06-15T12:10:24Z</time>
      </trkpt>
      <trkpt lat="59.9594895" lon="17.7023279">
        <ele>37.1481</ele>
        <time>2014-06-15T12:10:25Z</time>
      </trkpt>
      <trkpt lat="59.9594509" lon="17.7021877">
        <ele>37.1481</ele>
        <time>2014-06-15T12:10:26Z</time>
      </trkpt>
      <trkpt lat="59.9594128" lon="17.7020414">
        <ele>37.1481</ele>
        <time>2014-06-15T12:10:27Z</time>
      </trkpt>
      <trkpt lat="59.9593766" lon="17.7018939">
        <ele>37.1481</ele>
        <time>2014-06-15T12:10:28Z</time>
      </trkpt>
      <trkpt lat="59.9593397" lon="17.7017472">
        <ele>37.1481</ele>
        <time>2014-06-15T12:10:29Z</time>
      </trkpt>
      <trkpt lat="59.9593075" lon="17.7015985">
        <ele>37.1481</ele>
        <time>2014-06-15T12:10:30Z</time>
      </trkpt>
      <trkpt lat="59.959276" lon="17.7014506">
        <ele>37.1481</ele>
        <time>2014-06-15T12:10:31Z</time>
      </trkpt>
      <trkpt lat="59.959249" lon="17.7012971">
        <ele>36.6675</ele>
        <time>2014-06-15T12:10:32Z</time>
      </trkpt>
      <trkpt lat="59.9592272" lon="17.7011381">
        <ele>36.6675</ele>
        <time>2014-06-15T12:10:33Z</time>
      </trkpt>
      <trkpt lat="59.9592118" lon="17.700968">
        <ele>36.6675</ele>
        <time>2014-06-15T12:10:34Z</time>
      </trkpt>
      <trkpt lat="59.959192" lon="17.7008097">
        <ele>36.6675</ele>
        <time>2014-06-15T12:10:35Z</time>
      </trkpt>
      <trkpt lat="59.9591749" lon="17.7006517">
        <ele>36.6675</ele>
        <time>2014-06-15T12:10:36Z</time>
      </trkpt>
      <trkpt lat="59.9591582" lon="17.7004937">
        <ele>36.1868</ele>
        <time>2014-06-15T12:10:37Z</time>
      </trkpt>
      <trkpt lat="59.9591413" lon="17.7003348">
        <ele>36.1868</ele>
        <time>2014-06-15T12:10:38Z</time>
      </trkpt>
      <trkpt lat="59.9591252" lon="17.7001758">
        <ele>36.1868</ele>
        <time>2014-06-15T12:10:39Z</time>
      </trkpt>
      <trkpt lat="59.9591099" lon="17.7000181">
        <ele>36.1868</ele>
        <time>2014-06-15T12:10:40Z</time>
      </trkpt>
      <trkpt lat="59.9590963" lon="17.699861">
        <ele>36.1868</ele>
        <time>2014-06-15T12:10:41Z</time>
      </trkpt>
      <trkpt lat="59.959084" lon="17.6997048">
        <ele>36.1868</ele>
        <time>2014-06-15T12:10:42Z</time>
      </trkpt>
      <trkpt lat="59.9590729" lon="17.6995495">
        <ele>36.1868</ele>
        <time>2014-06-15T12:10:43Z</time>
      </trkpt>
      <trkpt lat="59.9590629" lon="17.6993945">
        <ele>36.1868</ele>
        <time>2014-06-15T12:10:44Z</time>
      </trkpt>
      <trkpt lat="59.9590541" lon="17.6992402">
        <ele>36.1868</ele>
        <time>2014-06-15T12:10:45Z</time>
      </trkpt>
      <trkpt lat="59.9590466" lon="17.6990868">
        <ele>36.1868</ele>
        <time>2014-06-15T12:10:46Z</time>
      </trkpt>
      <trkpt lat="59.959043" lon="17.6989324">
        <ele>36.1868</ele>
        <time>2014-06-15T12:10:47Z</time>
      </trkpt>
      <trkpt lat="59.9590408" lon="17.6987796">
        <ele>36.1868</ele>
        <time>2014-06-15T12:10:48Z</time>
      </trkpt>
      <trkpt lat="59.9590403" lon="17.6986289">
        <ele>36.6675</ele>
        <time>2014-06-15T12:10:49Z</time>
      </trkpt>
      <trkpt lat="59.9590405" lon="17.6984802">
        <ele>36.6675</ele>
        <time>2014-06-15T12:10:50Z</time>
      </trkpt>
      <trkpt lat="59.959037" lon="17.6983291">
        <ele>36.6675</ele>
        <time>2014-06-15T12:10:51Z</time>
      </trkpt>
      <trkpt lat="59.9590318" lon="17.6981766">
        <ele>36.1868</ele>
        <time>2014-06-15T12:10:52Z</time>
      </trkpt>
      <trkpt lat="59.9590211" lon="17.698026">
        <ele>36.1868</ele>
        <time>2014-06-15T12:10:53Z</time>
      </trkpt>
      <trkpt lat="59.9590067" lon="17.6978716">
        <ele>35.7061</ele>
        <time>2014-06-15T12:10:54Z</time>
      </trkpt>
      <trkpt lat="59.958989" lon="17.6977145">
        <ele>35.7061</ele>
        <time>2014-06-15T12:10:55Z</time>
      </trkpt>
      <trkpt lat="59.9589663" lon="17.6975562">
        <ele>35.2255</ele>
        <time>2014-06-15T12:10:56Z</time>
      </trkpt>
      <trkpt lat="59.9589423" lon="17.6973963">
        <ele>34.7449</ele>
        <time>2014-06-15T12:10:57Z</time>
      </trkpt>
      <trkpt lat="59.9589143" lon="17.6972365">
        <ele>34.7449</ele>
        <time>2014-06-15T12:10:58Z</time>
      </trkpt>
      <trkpt lat="59.9588843" lon="17.697078">
        <ele>34.7449</ele>
        <time>2014-06-15T12:10:59Z</time>
      </trkpt>
      <trkpt lat="59.9588533" lon="17.6969221">
        <ele>34.2642</ele>
        <time>2014-06-15T12:11:00Z</time>
      </trkpt>
      <trkpt lat="59.95882" lon="17.6967696">
        <ele>34.2642</ele>
        <time>2014-06-15T12:11:01Z</time>
      </trkpt>
      <trkpt lat="59.958783" lon="17.6966207">
        <ele>34.2642</ele>
        <time>2014-06-15T12:11:02Z</time>
      </trkpt>
      <trkpt lat="59.9587415" lon="17.6964772">
        <ele>34.2642</ele>
        <time>2014-06-15T12:11:03Z</time>
      </trkpt>
      <trkpt lat="59.9586954" lon="17.6963367">
        <ele>34.2642</ele>
        <time>2014-06-15T12:11:04Z</time>
      </trkpt>
      <trkpt lat="59.9586464" lon="17.6961968">
        <ele>34.2642</ele>
        <time>2014-06-15T12:11:05Z</time>
      </trkpt>
      <trkpt lat="59.9585947" lon="17.6960584">
        <ele>33.7834</ele>
        <time>2014-06-15T12:11:06Z</time>
      </trkpt>
      <trkpt lat="59.9585406" lon="17.6959211">
        <ele>33.7834</ele>
        <time>2014-06-15T12:11:07Z</time>
      </trkpt>
      <trkpt lat="59.9584845" lon="17.6957846">
        <ele>33.7834</ele>
        <time>2014-06-15T12:11:08Z</time>
      </trkpt>
      <trkpt lat="59.958427" lon="17.6956467">
        <ele>33.7834</ele>
        <time>2014-06-15T12:11:09Z</time>
      </trkpt>
      <trkpt lat="59.9583695" lon="17.6955058">
        <ele>33.7834</ele>
        <time>2014-06-15T12:11:10Z</time>
      </trkpt>
      <trkpt lat="59.9583136" lon="17.6953628">
        <ele>33.7834</ele>
        <time>2014-06-15T12:11:11Z</time>
      </trkpt>
      <trkpt lat="59.958258" lon="17.6952188">
        <ele>33.7834</ele>
        <time>2014-06-15T12:11:12Z</time>
      </trkpt>
      <trkpt lat="59.9582031" lon="17.6950746">
        <ele>33.7834</ele>
        <time>2014-06-15T12:11:13Z</time>
      </trkpt>
      <trkpt lat="59.9581499" lon="17.6949287">
        <ele>33.7834</ele>
        <time>2014-06-15T12:11:14Z</time>
      </trkpt>
      <trkpt lat="59.9580979" lon="17.6947828">
        <ele>33.3029</ele>
        <time>2014-06-15T12:11:15Z</time>
      </trkpt>
      <trkpt lat="59.9580462" lon="17.6946379">
        <ele>33.3029</ele>
        <time>2014-06-15T12:11:16Z</time>
      </trkpt>
      <trkpt lat="59.9579941" lon="17.6944945">
        <ele>33.3029</ele>
        <time>2014-06-15T12:11:17Z</time>
      </trkpt>
      <trkpt lat="59.9579422" lon="17.6943515">
        <ele>33.3029</ele>
        <time>2014-06-15T12:11:18Z</time>
      </trkpt>
      <trkpt lat="59.9578914" lon="17.6942083">
        <ele>33.3029</ele>
        <time>2014-06-15T12:11:19Z</time>
      </trkpt>
      <trkpt lat="59.9578415" lon="17.6940651">
        <ele>33.3029</ele>
        <time>2014-06-15T12:11:20Z</time>
      </trkpt>
      <trkpt lat="59.9577919" lon="17.6939216">
        <ele>33.3029</ele>
        <time>2014-06-15T12:11:21Z</time>
      </trkpt>
      <trkpt lat="59.9577417" lon="17.6937782">
        <ele>33.3029</ele>
        <time>2014-06-15T12:11:22Z</time>
      </trkpt>
      <trkpt lat="59.9576912" lon="17.6936335">
        <ele>33.3029</ele>
        <time>2014-06-15T12:11:23Z</time>
      </trkpt>
      <trkpt lat="59.9576407" lon="17.6934879">
        <ele>33.3029</ele>
        <time>2014-06-15T12:11:24Z</time>
      </trkpt>
      <trkpt lat="59.9575905" lon="17.6933437">
        <ele>33.3029</ele>
        <time>2014-06-15T12:11:25Z</time>
      </trkpt>
      <trkpt lat="59.9575408" lon="17.6932011">
        <ele>33.3029</ele>
        <time>2014-06-15T12:11:26Z</time>
      </trkpt>
      <trkpt lat="59.957492" lon="17.6930597">
        <ele>33.3029</ele>
        <time>2014-06-15T12:11:27Z</time>
      </trkpt>
      <trkpt lat="59.9574434" lon="17.6929188">
        <ele>33.3029</ele>
        <time>2014-06-15T12:11:28Z</time>
      </trkpt>
      <trkpt lat="59.9573923" lon="17.6927746">
        <ele>33.3029</ele>
        <time>2014-06-15T12:11:29Z</time>
      </trkpt>
      <trkpt lat="59.9573435" lon="17.6926332">
        <ele>33.3029</ele>
        <time>2014-06-15T12:11:30Z</time>
      </trkpt>
      <trkpt lat="59.9572917" lon="17.6924965">
        <ele>33.3029</ele>
        <time>2014-06-15T12:11:31Z</time>
      </trkpt>
      <trkpt lat="59.957246" lon="17.6923579">
        <ele>33.3029</ele>
        <time>2014-06-15T12:11:32Z</time>
      </trkpt>
      <trkpt lat="59.9571958" lon="17.6922197">
        <ele>33.3029</ele>
        <time>2014-06-15T12:11:33Z</time>
      </trkpt>
      <trkpt lat="59.9571499" lon="17.6920867">
        <ele>33.3029</ele>
        <time>2014-06-15T12:11:34Z</time>
      </trkpt>
      <trkpt lat="59.9571056" lon="17.6919521">
        <ele>33.3029</ele>
        <time>2014-06-15T12:11:35Z</time>
      </trkpt>
      <trkpt lat="59.957057" lon="17.6918216">
        <ele>33.3029</ele>
        <time>2014-06-15T12:11:36Z</time>
      </trkpt>
      <trkpt lat="59.9570111" lon="17.6916908">
        <ele>33.3029</ele>
        <time>2014-06-15T12:11:37Z</time>
      </trkpt>
      <trkpt lat="59.9569666" lon="17.6915606">
        <ele>33.3029</ele>
        <time>2014-06-15T12:11:38Z</time>
      </trkpt>
      <trkpt lat="59.9569222" lon="17.6914322">
        <ele>33.7834</ele>
        <time>2014-06-15T12:11:39Z</time>
      </trkpt>
      <trkpt lat="59.9568771" lon="17.6913037">
        <ele>33.7834</ele>
        <time>2014-06-15T12:11:40Z</time>
      </trkpt>
      <trkpt lat="59.9568347" lon="17.6911789">
        <ele>34.2642</ele>
        <time>2014-06-15T12:11:41Z</time>
      </trkpt>
      <trkpt lat="59.9567936" lon="17.6910575">
        <ele>34.7449</ele>
        <time>2014-06-15T12:11:42Z</time>
      </trkpt>
      <trkpt lat="59.9567512" lon="17.6909336">
        <ele>35.2255</ele>
        <time>2014-06-15T12:11:43Z</time>
      </trkpt>
      <trkpt lat="59.9567127" lon="17.6908204">
        <ele>35.7061</ele>
        <time>2014-06-15T12:11:44Z</time>
      </trkpt>
      <trkpt lat="59.9566739" lon="17.6907102">
        <ele>35.7061</ele>
        <time>2014-06-15T12:11:45Z</time>
      </trkpt>
      <trkpt lat="59.9566352" lon="17.690607">
        <ele>36.1868</ele>
        <time>2014-06-15T12:11:46Z</time>
      </trkpt>
      <trkpt lat="59.9566004" lon="17.6904982">
        <ele>36.6675</ele>
        <time>2014-06-15T12:11:47Z</time>
      </trkpt>
      <trkpt lat="59.9565648" lon="17.6903947">
        <ele>36.6675</ele>
        <time>2014-06-15T12:11:48Z</time>
      </trkpt>
      <trkpt lat="59.9565254" lon="17.690275">
        <ele>37.1481</ele>
        <time>2014-06-15T12:11:49Z</time>
      </trkpt>
      <trkpt lat="59.956486" lon="17.6901913">
        <ele>37.1481</ele>
        <time>2014-06-15T12:11:50Z</time>
      </trkpt>
      <trkpt lat="59.956444" lon="17.6901">
        <ele>37.6287</ele>
        <time>2014-06-15T12:11:51Z</time>
      </trkpt>
      <trkpt lat="59.9564006" lon="17.6900071">
        <ele>37.6287</ele>
        <time>2014-06-15T12:11:52Z</time>
      </trkpt>
      <trkpt lat="59.9563591" lon="17.6899075">
        <ele>37.6287</ele>
        <time>2014-06-15T12:11:53Z</time>
      </trkpt>
      <trkpt lat="59.9563217" lon="17.6897992">
        <ele>37.6287</ele>
        <time>2014-06-15T12:11:54Z</time>
      </trkpt>
      <trkpt lat="59.9562861" lon="17.689686">
        <ele>37.1481</ele>
        <time>2014-06-15T12:11:55Z</time>
      </trkpt>
      <trkpt lat="59.9562494" lon="17.6895694">
        <ele>37.1481</ele>
        <time>2014-06-15T12:11:56Z</time>
      </trkpt>
      <trkpt lat="59.9562099" lon="17.6894509">
        <ele>36.6675</ele>
        <time>2014-06-15T12:11:57Z</time>
      </trkpt>
      <trkpt lat="59.9561659" lon="17.6893305">
        <ele>36.1868</ele>
        <time>2014-06-15T12:11:58Z</time>
      </trkpt>
      <trkpt lat="59.9561251" lon="17.6891958">
        <ele>36.1868</ele>
        <time>2014-06-15T12:11:59Z</time>
      </trkpt>
      <trkpt lat="59.9560942" lon="17.6890458">
        <ele>36.1868</ele>
        <time>2014-06-15T12:12:00Z</time>
      </trkpt>
      <trkpt lat="59.9560686" lon="17.6888908">
        <ele>36.1868</ele>
        <time>2014-06-15T12:12:01Z</time>
      </trkpt>
      <trkpt lat="59.9560453" lon="17.6887343">
        <ele>35.7061</ele>
        <time>2014-06-15T12:12:02Z</time>
      </trkpt>
      <trkpt lat="59.9560219" lon="17.6885741">
        <ele>35.7061</ele>
        <time>2014-06-15T12:12:03Z</time>
      </trkpt>
      <trkpt lat="59.9559981" lon="17.6884116">
        <ele>35.7061</ele>
        <time>2014-06-15T12:12:04Z</time>
      </trkpt>
      <trkpt lat="59.9559742" lon="17.6882498">
        <ele>35.2255</ele>
        <time>2014-06-15T12:12:05Z</time>
      </trkpt>
      <trkpt lat="59.9559498" lon="17.6880888">
        <ele>35.2255</ele>
        <time>2014-06-15T12:12:06Z</time>
      </trkpt>
      <trkpt lat="59.9559256" lon="17.6879276">
        <ele>35.2255</ele>
        <time>2014-06-15T12:12:07Z</time>
      </trkpt>
      <trkpt lat="59.9559021" lon="17.6877662">
        <ele>35.2255</ele>
        <time>2014-06-15T12:12:08Z</time>
      </trkpt>
      <trkpt lat="59.9558775" lon="17.6876057">
        <ele>35.2255</ele>
        <time>2014-06-15T12:12:09Z</time>
      </trkpt>
      <trkpt lat="59.9558529" lon="17.6874477">
        <ele>35.2255</ele>
        <time>2014-06-15T12:12:10Z</time>
      </trkpt>
      <trkpt lat="59.9558292" lon="17.6872902">
        <ele>35.2255</ele>
        <time>2014-06-15T12:12:11Z</time>
      </trkpt>
      <trkpt lat="59.955806" lon="17.6871321">
        <ele>35.2255</ele>
        <time>2014-06-15T12:12:12Z</time>
      </trkpt>
      <trkpt lat="59.9557825" lon="17.6869724">
        <ele>34.7449</ele>
        <time>2014-06-15T12:12:13Z</time>
      </trkpt>
      <trkpt lat="59.9557587" lon="17.6868124">
        <ele>34.7449</ele>
        <time>2014-06-15T12:12:14Z</time>
      </trkpt>
      <trkpt lat="59.9557353" lon="17.6866525">
        <ele>34.7449</ele>
        <time>2014-06-15T12:12:15Z</time>
      </trkpt>
      <trkpt lat="59.9557115" lon="17.6864935">
        <ele>34.7449</ele>
        <time>2014-06-15T12:12:16Z</time>
      </trkpt>
      <trkpt lat="59.9556873" lon="17.6863345">
        <ele>34.7449</ele>
        <time>2014-06-15T12:12:17Z</time>
      </trkpt>
      <trkpt lat="59.9556644" lon="17.6861749">
        <ele>34.7449</ele>
        <time>2014-06-15T12:12:18Z</time>
      </trkpt>
      <trkpt lat="59.955643" lon="17.6860154">
        <ele>34.2642</ele>
        <time>2014-06-15T12:12:19Z</time>
      </trkpt>
      <trkpt lat="59.9556221" lon="17.6858563">
        <ele>34.2642</ele>
        <time>2014-06-15T12:12:20Z</time>
      </trkpt>
      <trkpt lat="59.9556013" lon="17.6856945">
        <ele>34.2642</ele>
        <time>2014-06-15T12:12:21Z</time>
      </trkpt>
      <trkpt lat="59.9555793" lon="17.6855294">
        <ele>34.2642</ele>
        <time>2014-06-15T12:12:22Z</time>
      </trkpt>
      <trkpt lat="59.9555557" lon="17.6853615">
        <ele>34.2642</ele>
        <time>2014-06-15T12:12:23Z</time>
      </trkpt>
      <trkpt lat="59.9555313" lon="17.6851912">
        <ele>34.2642</ele>
        <time>2014-06-15T12:12:24Z</time>
      </trkpt>
      <trkpt lat="59.955505" lon="17.6850202">
        <ele>33.7834</ele>
        <time>2014-06-15T12:12:25Z</time>
      </trkpt>
      <trkpt lat="59.9554788" lon="17.6848482">
        <ele>33.7834</ele>
        <time>2014-06-15T12:12:26Z</time>
      </trkpt>
      <trkpt lat="59.9554529" lon="17.6846758">
        <ele>33.7834</ele>
        <time>2014-06-15T12:12:27Z</time>
      </trkpt>
      <trkpt lat="59.955426" lon="17.6845052">
        <ele>33.7834</ele>
        <time>2014-06-15T12:12:28Z</time>
      </trkpt>
      <trkpt lat="59.9553972" lon="17.6843373">
        <ele>33.7834</ele>
        <time>2014-06-15T12:12:29Z</time>
      </trkpt>
      <trkpt lat="59.9553676" lon="17.6841739">
        <ele>33.7834</ele>
        <time>2014-06-15T12:12:30Z</time>
      </trkpt>
      <trkpt lat="59.9553377" lon="17.6840125">
        <ele>33.3029</ele>
        <time>2014-06-15T12:12:31Z</time>
      </trkpt>
      <trkpt lat="59.955308" lon="17.683853">
        <ele>33.3029</ele>
        <time>2014-06-15T12:12:32Z</time>
      </trkpt>
      <trkpt lat="59.9552764" lon="17.6836957">
        <ele>33.3029</ele>
        <time>2014-06-15T12:12:33Z</time>
      </trkpt>
      <trkpt lat="59.9552419" lon="17.6835407">
        <ele>33.3029</ele>
        <time>2014-06-15T12:12:34Z</time>
      </trkpt>
      <trkpt lat="59.9552058" lon="17.683388">
        <ele>33.3029</ele>
        <time>2014-06-15T12:12:35Z</time>
      </trkpt>
      <trkpt lat="59.955169" lon="17.6832372">
        <ele>33.3029</ele>
        <time>2014-06-15T12:12:36Z</time>
      </trkpt>
      <trkpt lat="59.9551314" lon="17.6830882">
        <ele>32.8223</ele>
        <time>2014-06-15T12:12:37Z</time>
      </trkpt>
      <trkpt lat="59.9550935" lon="17.6829409">
        <ele>32.8223</ele>
        <time>2014-06-15T12:12:38Z</time>
      </trkpt>
      <trkpt lat="59.9550547" lon="17.6827968">
        <ele>32.8223</ele>
        <time>2014-06-15T12:12:39Z</time>
      </trkpt>
      <trkpt lat="59.9550147" lon="17.6826577">
        <ele>32.8223</ele>
        <time>2014-06-15T12:12:40Z</time>
      </trkpt>
      <trkpt lat="59.9549736" lon="17.6825213">
        <ele>32.3416</ele>
        <time>2014-06-15T12:12:41Z</time>
      </trkpt>
      <trkpt lat="59.9549325" lon="17.6823836">
        <ele>32.3416</ele>
        <time>2014-06-15T12:12:42Z</time>
      </trkpt>
      <trkpt lat="59.9548894" lon="17.6822458">
        <ele>32.3416</ele>
        <time>2014-06-15T12:12:43Z</time>
      </trkpt>
      <trkpt lat="59.9548445" lon="17.6821085">
        <ele>32.3416</ele>
        <time>2014-06-15T12:12:44Z</time>
      </trkpt>
      <trkpt lat="59.9547983" lon="17.6819701">
        <ele>32.3416</ele>
        <time>2014-06-15T12:12:45Z</time>
      </trkpt>
      <trkpt lat="59.9547511" lon="17.6818299">
        <ele>32.3416</ele>
        <time>2014-06-15T12:12:46Z</time>
      </trkpt>
      <trkpt lat="59.9547047" lon="17.6816873">
        <ele>32.3416</ele>
        <time>2014-06-15T12:12:47Z</time>
      </trkpt>
      <trkpt lat="59.954661" lon="17.6815458">
        <ele>31.8607</ele>
        <time>2014-06-15T12:12:48Z</time>
      </trkpt>
      <trkpt lat="59.9546172" lon="17.6814119">
        <ele>31.8607</ele>
        <time>2014-06-15T12:12:49Z</time>
      </trkpt>
      <trkpt lat="59.9545723" lon="17.6812862">
        <ele>31.8607</ele>
        <time>2014-06-15T12:12:50Z</time>
      </trkpt>
      <trkpt lat="59.9545255" lon="17.6811719">
        <ele>31.8607</ele>
        <time>2014-06-15T12:12:51Z</time>
      </trkpt>
      <trkpt lat="59.954477" lon="17.681078">
        <ele>31.8607</ele>
        <time>2014-06-15T12:12:52Z</time>
      </trkpt>
      <trkpt lat="59.954428" lon="17.6810086">
        <ele>31.8607</ele>
        <time>2014-06-15T12:12:53Z</time>
      </trkpt>
      <trkpt lat="59.9543814" lon="17.6809447">
        <ele>31.8607</ele>
        <time>2014-06-15T12:12:54Z</time>
      </trkpt>
      <trkpt lat="59.9543425" lon="17.680862">
        <ele>31.8607</ele>
        <time>2014-06-15T12:12:55Z</time>
      </trkpt>
      <trkpt lat="59.9543083" lon="17.6807661">
        <ele>31.8607</ele>
        <time>2014-06-15T12:12:56Z</time>
      </trkpt>
      <trkpt lat="59.9542739" lon="17.6806636">
        <ele>31.8607</ele>
        <time>2014-06-15T12:12:57Z</time>
      </trkpt>
      <trkpt lat="59.9542378" lon="17.680555">
        <ele>31.8607</ele>
        <time>2014-06-15T12:12:58Z</time>
      </trkpt>
      <trkpt lat="59.9542001" lon="17.6804447">
        <ele>31.8607</ele>
        <time>2014-06-15T12:12:59Z</time>
      </trkpt>
      <trkpt lat="59.9541623" lon="17.6803344">
        <ele>31.8607</ele>
        <time>2014-06-15T12:13:00Z</time>
      </trkpt>
      <trkpt lat="59.9541244" lon="17.6802255">
        <ele>31.8607</ele>
        <time>2014-06-15T12:13:01Z</time>
      </trkpt>
      <trkpt lat="59.9540854" lon="17.6801167">
        <ele>31.8607</ele>
        <time>2014-06-15T12:13:02Z</time>
      </trkpt>
      <trkpt lat="59.9540457" lon="17.6800054">
        <ele>31.8607</ele>
        <time>2014-06-15T12:13:03Z</time>
      </trkpt>
      <trkpt lat="59.9540068" lon="17.6798894">
        <ele>31.8607</ele>
        <time>2014-06-15T12:13:04Z</time>
      </trkpt>
      <trkpt lat="59.9539684" lon="17.6797717">
        <ele>31.8607</ele>
        <time>2014-06-15T12:13:05Z</time>
      </trkpt>
      <trkpt lat="59.9539295" lon="17.679654">
        <ele>31.8607</ele>
        <time>2014-06-15T12:13:06Z</time>
      </trkpt>
      <trkpt lat="59.9538901" lon="17.679535">
        <ele>31.8607</ele>
        <time>2014-06-15T12:13:07Z</time>
      </trkpt>
      <trkpt lat="59.9538509" lon="17.6794152">
        <ele>31.8607</ele>
        <time>2014-06-15T12:13:08Z</time>
      </trkpt>
      <trkpt lat="59.9538119" lon="17.679294">
        <ele>32.3416</ele>
        <time>2014-06-15T12:13:09Z</time>
      </trkpt>
      <trkpt lat="59.9537727" lon="17.679172">
        <ele>32.3416</ele>
        <time>2014-06-15T12:13:10Z</time>
      </trkpt>
      <trkpt lat="59.9537332" lon="17.6790502">
        <ele>32.3416</ele>
        <time>2014-06-15T12:13:11Z</time>
      </trkpt>
      <trkpt lat="59.9536929" lon="17.6789324">
        <ele>32.3416</ele>
        <time>2014-06-15T12:13:12Z</time>
      </trkpt>
      <trkpt lat="59.9536523" lon="17.678816">
        <ele>32.3416</ele>
        <time>2014-06-15T12:13:13Z</time>
      </trkpt>
      <trkpt lat="59.9536125" lon="17.6786985">
        <ele>32.3416</ele>
        <time>2014-06-15T12:13:14Z</time>
      </trkpt>
      <trkpt lat="59.9535739" lon="17.6785801">
        <ele>32.3416</ele>
        <time>2014-06-15T12:13:15Z</time>
      </trkpt>
      <trkpt lat="59.9535359" lon="17.6784618">
        <ele>32.8223</ele>
        <time>2014-06-15T12:13:16Z</time>
      </trkpt>
      <trkpt lat="59.9534956" lon="17.6783315">
        <ele>32.8223</ele>
        <time>2014-06-15T12:13:17Z</time>
      </trkpt>
      <trkpt lat="59.9534572" lon="17.6782095">
        <ele>32.8223</ele>
        <time>2014-06-15T12:13:18Z</time>
      </trkpt>
      <trkpt lat="59.9534171" lon="17.6780915">
        <ele>32.8223</ele>
        <time>2014-06-15T12:13:19Z</time>
      </trkpt>
      <trkpt lat="59.9533762" lon="17.6779754">
        <ele>32.8223</ele>
        <time>2014-06-15T12:13:20Z</time>
      </trkpt>
      <trkpt lat="59.9533266" lon="17.677855">
        <ele>32.8223</ele>
        <time>2014-06-15T12:13:21Z</time>
      </trkpt>
      <trkpt lat="59.9532908" lon="17.677742">
        <ele>32.8223</ele>
        <time>2014-06-15T12:13:22Z</time>
      </trkpt>
      <trkpt lat="59.953246" lon="17.6776315">
        <ele>32.8223</ele>
        <time>2014-06-15T12:13:23Z</time>
      </trkpt>
      <trkpt lat="59.9532075" lon="17.6775143">
        <ele>32.8223</ele>
        <time>2014-06-15T12:13:24Z</time>
      </trkpt>
      <trkpt lat="59.9531667" lon="17.6773977">
        <ele>32.8223</ele>
        <time>2014-06-15T12:13:25Z</time>
      </trkpt>
      <trkpt lat="59.9531234" lon="17.6772796">
        <ele>32.8223</ele>
        <time>2014-06-15T12:13:26Z</time>
      </trkpt>
      <trkpt lat="59.9530785" lon="17.6771601">
        <ele>33.3029</ele>
        <time>2014-06-15T12:13:27Z</time>
      </trkpt>
      <trkpt lat="59.9530319" lon="17.6770356">
        <ele>33.3029</ele>
        <time>2014-06-15T12:13:28Z</time>
      </trkpt>
      <trkpt lat="59.9529839" lon="17.6769077">
        <ele>33.3029</ele>
        <time>2014-06-15T12:13:29Z</time>
      </trkpt>
      <trkpt lat="59.9529351" lon="17.6767854">
        <ele>33.3029</ele>
        <time>2014-06-15T12:13:30Z</time>
      </trkpt>
      <trkpt lat="59.9528851" lon="17.6766663">
        <ele>33.3029</ele>
        <time>2014-06-15T12:13:31Z</time>
      </trkpt>
      <trkpt lat="59.9528347" lon="17.6765492">
        <ele>33.3029</ele>
        <time>2014-06-15T12:13:32Z</time>
      </trkpt>
      <trkpt lat="59.9527862" lon="17.6764314">
        <ele>33.3029</ele>
        <time>2014-06-15T12:13:33Z</time>
      </trkpt>
      <trkpt lat="59.9527415" lon="17.6763121">
        <ele>33.3029</ele>
        <time>2014-06-15T12:13:34Z</time>
      </trkpt>
      <trkpt lat="59.9527002" lon="17.6761908">
        <ele>33.3029</ele>
        <time>2014-06-15T12:13:35Z</time>
      </trkpt>
      <trkpt lat="59.9526594" lon="17.6760685">
        <ele>33.7834</ele>
        <time>2014-06-15T12:13:36Z</time>
      </trkpt>
      <trkpt lat="59.9526179" lon="17.6759482">
        <ele>33.7834</ele>
        <time>2014-06-15T12:13:37Z</time>
      </trkpt>
      <trkpt lat="59.9525751" lon="17.6758328">
        <ele>33.7834</ele>
        <time>2014-06-15T12:13:38Z</time>
      </trkpt>
      <trkpt lat="59.952531" lon="17.6757225">
        <ele>34.2642</ele>
        <time>2014-06-15T12:13:39Z</time>
      </trkpt>
      <trkpt lat="59.9524876" lon="17.6756172">
        <ele>34.7449</ele>
        <time>2014-06-15T12:13:40Z</time>
      </trkpt>
      <trkpt lat="59.9524464" lon="17.6755151">
        <ele>34.7449</ele>
        <time>2014-06-15T12:13:41Z</time>
      </trkpt>
      <trkpt lat="59.9524075" lon="17.6754138">
        <ele>35.2255</ele>
        <time>2014-06-15T12:13:42Z</time>
      </trkpt>
      <trkpt lat="59.9523705" lon="17.6753122">
        <ele>35.7061</ele>
        <time>2014-06-15T12:13:43Z</time>
      </trkpt>
      <trkpt lat="59.9523361" lon="17.6752111">
        <ele>35.7061</ele>
        <time>2014-06-15T12:13:44Z</time>
      </trkpt>
      <trkpt lat="59.9523055" lon="17.67511">
        <ele>35.7061</ele>
        <time>2014-06-15T12:13:45Z</time>
      </trkpt>
      <trkpt lat="59.952278" lon="17.6750041">
        <ele>35.7061</ele>
        <time>2014-06-15T12:13:46Z</time>
      </trkpt>
      <trkpt lat="59.9522532" lon="17.6748914">
        <ele>35.7061</ele>
        <time>2014-06-15T12:13:47Z</time>
      </trkpt>
      <trkpt lat="59.952232" lon="17.6747692">
        <ele>35.7061</ele>
        <time>2014-06-15T12:13:48Z</time>
      </trkpt>
      <trkpt lat="59.9522113" lon="17.67463">
        <ele>35.2255</ele>
        <time>2014-06-15T12:13:49Z</time>
      </trkpt>
      <trkpt lat="59.9521891" lon="17.6744855">
        <ele>34.7449</ele>
        <time>2014-06-15T12:13:50Z</time>
      </trkpt>
      <trkpt lat="59.9521622" lon="17.674332">
        <ele>34.2642</ele>
        <time>2014-06-15T12:13:51Z</time>
      </trkpt>
      <trkpt lat="59.952132" lon="17.6741815">
        <ele>34.2642</ele>
        <time>2014-06-15T12:13:52Z</time>
      </trkpt>
      <trkpt lat="59.9521014" lon="17.674038">
        <ele>34.2642</ele>
        <time>2014-06-15T12:13:53Z</time>
      </trkpt>
      <trkpt lat="59.9520746" lon="17.6738888">
        <ele>33.7834</ele>
        <time>2014-06-15T12:13:54Z</time>
      </trkpt>
      <trkpt lat="59.9520482" lon="17.673738">
        <ele>33.7834</ele>
        <time>2014-06-15T12:13:55Z</time>
      </trkpt>
      <trkpt lat="59.9520212" lon="17.6735863">
        <ele>33.7834</ele>
        <time>2014-06-15T12:13:56Z</time>
      </trkpt>
      <trkpt lat="59.9519948" lon="17.6734327">
        <ele>33.3029</ele>
        <time>2014-06-15T12:13:57Z</time>
      </trkpt>
      <trkpt lat="59.9519699" lon="17.6732749">
        <ele>33.3029</ele>
        <time>2014-06-15T12:13:58Z</time>
      </trkpt>
      <trkpt lat="59.9519453" lon="17.6731138">
        <ele>32.8223</ele>
        <time>2014-06-15T12:13:59Z</time>
      </trkpt>
      <trkpt lat="59.9519217" lon="17.6729511">
        <ele>32.8223</ele>
        <time>2014-06-15T12:14:00Z</time>
      </trkpt>
      <trkpt lat="59.9518991" lon="17.6727857">
        <ele>32.8223</ele>
        <time>2014-06-15T12:14:01Z</time>
      </trkpt>
      <trkpt lat="59.9518777" lon="17.6726175">
        <ele>32.3416</ele>
        <time>2014-06-15T12:14:02Z</time>
      </trkpt>
      <trkpt lat="59.9518569" lon="17.6724456">
        <ele>32.3416</ele>
        <time>2014-06-15T12:14:03Z</time>
      </trkpt>
      <trkpt lat="59.9518374" lon="17.6722706">
        <ele>31.8607</ele>
        <time>2014-06-15T12:14:04Z</time>
      </trkpt>
      <trkpt lat="59.9518188" lon="17.6720947">
        <ele>31.8607</ele>
        <time>2014-06-15T12:14:05Z</time>
      </trkpt>
      <trkpt lat="59.9518023" lon="17.6719186">
        <ele>31.8607</ele>
        <time>2014-06-15T12:14:06Z</time>
      </trkpt>
      <trkpt lat="59.9517942" lon="17.6717434">
        <ele>31.8607</ele>
        <time>2014-06-15T12:14:07Z</time>
      </trkpt>
      <trkpt lat="59.9517927" lon="17.6715686">
        <ele>31.3801</ele>
        <time>2014-06-15T12:14:08Z</time>
      </trkpt>
      <trkpt lat="59.9517849" lon="17.6713934">
        <ele>31.3801</ele>
        <time>2014-06-15T12:14:09Z</time>
      </trkpt>
      <trkpt lat="59.9517645" lon="17.6712201">
        <ele>30.8995</ele>
        <time>2014-06-15T12:14:10Z</time>
      </trkpt>
      <trkpt lat="59.951736" lon="17.671045">
        <ele>29.9381</ele>
        <time>2014-06-15T12:14:11Z</time>
      </trkpt>
      <trkpt lat="59.9517157" lon="17.6708603">
        <ele>29.9381</ele>
        <time>2014-06-15T12:14:12Z</time>
      </trkpt>
      <trkpt lat="59.9517141" lon="17.6706688">
        <ele>29.4575</ele>
        <time>2014-06-15T12:14:13Z</time>
      </trkpt>
      <trkpt lat="59.9517251" lon="17.6704792">
        <ele>28.9769</ele>
        <time>2014-06-15T12:14:14Z</time>
      </trkpt>
      <trkpt lat="59.9517403" lon="17.6702936">
        <ele>28.9769</ele>
        <time>2014-06-15T12:14:15Z</time>
      </trkpt>
      <trkpt lat="59.9517546" lon="17.6701107">
        <ele>28.9769</ele>
        <time>2014-06-15T12:14:16Z</time>
      </trkpt>
      <trkpt lat="59.951767" lon="17.6699291">
        <ele>28.4962</ele>
        <time>2014-06-15T12:14:17Z</time>
      </trkpt>
      <trkpt lat="59.9517769" lon="17.6697494">
        <ele>28.4962</ele>
        <time>2014-06-15T12:14:18Z</time>
      </trkpt>
      <trkpt lat="59.9517857" lon="17.6695728">
        <ele>28.4962</ele>
        <time>2014-06-15T12:14:19Z</time>
      </trkpt>
      <trkpt lat="59.9517938" lon="17.6693994">
        <ele>28.4962</ele>
        <time>2014-06-15T12:14:20Z</time>
      </trkpt>
      <trkpt lat="59.951801" lon="17.6692297">
        <ele>28.4962</ele>
        <time>2014-06-15T12:14:21Z</time>
      </trkpt>
      <trkpt lat="59.9518069" lon="17.6690634">
        <ele>28.0155</ele>
        <time>2014-06-15T12:14:22Z</time>
      </trkpt>
      <trkpt lat="59.9518082" lon="17.6688982">
        <ele>28.0155</ele>
        <time>2014-06-15T12:14:23Z</time>
      </trkpt>
      <trkpt lat="59.9517994" lon="17.6687336">
        <ele>27.5349</ele>
        <time>2014-06-15T12:14:24Z</time>
      </trkpt>
      <trkpt lat="59.9517777" lon="17.668572">
        <ele>27.5349</ele>
        <time>2014-06-15T12:14:25Z</time>
      </trkpt>
      <trkpt lat="59.9517442" lon="17.6684144">
        <ele>27.5349</ele>
        <time>2014-06-15T12:14:26Z</time>
      </trkpt>
      <trkpt lat="59.9517012" lon="17.668262">
        <ele>27.5349</ele>
        <time>2014-06-15T12:14:27Z</time>
      </trkpt>
      <trkpt lat="59.9516461" lon="17.6681304">
        <ele>27.5349</ele>
        <time>2014-06-15T12:14:28Z</time>
      </trkpt>
      <trkpt lat="59.9515557" lon="17.6680511">
        <ele>27.5349</ele>
        <time>2014-06-15T12:14:29Z</time>
      </trkpt>
      <trkpt lat="59.9514624" lon="17.6680331">
        <ele>27.5349</ele>
        <time>2014-06-15T12:14:30Z</time>
      </trkpt>
      <trkpt lat="59.9513738" lon="17.6680448">
        <ele>28.0155</ele>
        <time>2014-06-15T12:14:31Z</time>
      </trkpt>
      <trkpt lat="59.9512857" lon="17.6680704">
        <ele>28.0155</ele>
        <time>2014-06-15T12:14:32Z</time>
      </trkpt>
      <trkpt lat="59.9511986" lon="17.6680989">
        <ele>28.0155</ele>
        <time>2014-06-15T12:14:33Z</time>
      </trkpt>
      <trkpt lat="59.9511126" lon="17.668126">
        <ele>28.4962</ele>
        <time>2014-06-15T12:14:34Z</time>
      </trkpt>
      <trkpt lat="59.9510278" lon="17.6681513">
        <ele>28.4962</ele>
        <time>2014-06-15T12:14:35Z</time>
      </trkpt>
      <trkpt lat="59.9509438" lon="17.668177">
        <ele>28.9769</ele>
        <time>2014-06-15T12:14:36Z</time>
      </trkpt>
      <trkpt lat="59.9508611" lon="17.6682029">
        <ele>28.9769</ele>
        <time>2014-06-15T12:14:37Z</time>
      </trkpt>
      <trkpt lat="59.9507802" lon="17.6682254">
        <ele>29.4575</ele>
        <time>2014-06-15T12:14:38Z</time>
      </trkpt>
      <trkpt lat="59.9507008" lon="17.6682434">
        <ele>29.4575</ele>
        <time>2014-06-15T12:14:39Z</time>
      </trkpt>
      <trkpt lat="59.9506225" lon="17.6682578">
        <ele>29.4575</ele>
        <time>2014-06-15T12:14:40Z</time>
      </trkpt>
      <trkpt lat="59.950545" lon="17.6682674">
        <ele>29.9381</ele>
        <time>2014-06-15T12:14:41Z</time>
      </trkpt>
      <trkpt lat="59.9504674" lon="17.6682721">
        <ele>29.9381</ele>
        <time>2014-06-15T12:14:42Z</time>
      </trkpt>
      <trkpt lat="59.9503892" lon="17.6682735">
        <ele>29.9381</ele>
        <time>2014-06-15T12:14:43Z</time>
      </trkpt>
      <trkpt lat="59.9503107" lon="17.6682707">
        <ele>29.9381</ele>
        <time>2014-06-15T12:14:44Z</time>
      </trkpt>
      <trkpt lat="59.9502326" lon="17.6682632">
        <ele>29.9381</ele>
        <time>2014-06-15T12:14:45Z</time>
      </trkpt>
      <trkpt lat="59.9501554" lon="17.668251">
        <ele>30.4188</ele>
        <time>2014-06-15T12:14:46Z</time>
      </trkpt>
      <trkpt lat="59.9500783" lon="17.6682334">
        <ele>30.4188</ele>
        <time>2014-06-15T12:14:47Z</time>
      </trkpt>
      <trkpt lat="59.9500021" lon="17.6682085">
        <ele>30.4188</ele>
        <time>2014-06-15T12:14:48Z</time>
      </trkpt>
      <trkpt lat="59.9499266" lon="17.6681785">
        <ele>30.4188</ele>
        <time>2014-06-15T12:14:49Z</time>
      </trkpt>
      <trkpt lat="59.9498518" lon="17.6681474">
        <ele>30.4188</ele>
        <time>2014-06-15T12:14:50Z</time>
      </trkpt>
      <trkpt lat="59.9497771" lon="17.668116">
        <ele>30.4188</ele>
        <time>2014-06-15T12:14:51Z</time>
      </trkpt>
      <trkpt lat="59.9497022" lon="17.6680818">
        <ele>30.4188</ele>
        <time>2014-06-15T12:14:52Z</time>
      </trkpt>
      <trkpt lat="59.949628" lon="17.668044">
        <ele>30.4188</ele>
        <time>2014-06-15T12:14:53Z</time>
      </trkpt>
      <trkpt lat="59.949554" lon="17.668006">
        <ele>30.4188</ele>
        <time>2014-06-15T12:14:54Z</time>
      </trkpt>
      <trkpt lat="59.94948" lon="17.6679699">
        <ele>30.4188</ele>
        <time>2014-06-15T12:14:55Z</time>
      </trkpt>
      <trkpt lat="59.9494063" lon="17.6679343">
        <ele>30.4188</ele>
        <time>2014-06-15T12:14:56Z</time>
      </trkpt>
      <trkpt lat="59.949334" lon="17.6678952">
        <ele>30.4188</ele>
        <time>2014-06-15T12:14:57Z</time>
      </trkpt>
      <trkpt lat="59.9492634" lon="17.6678519">
        <ele>30.4188</ele>
        <time>2014-06-15T12:14:58Z</time>
      </trkpt>
      <trkpt lat="59.9491938" lon="17.6678084">
        <ele>30.4188</ele>
        <time>2014-06-15T12:14:59Z</time>
      </trkpt>
      <trkpt lat="59.9491246" lon="17.667767">
        <ele>30.4188</ele>
        <time>2014-06-15T12:15:00Z</time>
      </trkpt>
      <trkpt lat="59.9490556" lon="17.6677278">
        <ele>30.4188</ele>
        <time>2014-06-15T12:15:01Z</time>
      </trkpt>
      <trkpt lat="59.9489866" lon="17.6676877">
        <ele>30.4188</ele>
        <time>2014-06-15T12:15:02Z</time>
      </trkpt>
      <trkpt lat="59.9489178" lon="17.6676473">
        <ele>30.4188</ele>
        <time>2014-06-15T12:15:03Z</time>
      </trkpt>
      <trkpt lat="59.9488486" lon="17.6676089">
        <ele>30.8995</ele>
        <time>2014-06-15T12:15:04Z</time>
      </trkpt>
      <trkpt lat="59.9487801" lon="17.6675711">
        <ele>30.8995</ele>
        <time>2014-06-15T12:15:05Z</time>
      </trkpt>
      <trkpt lat="59.9487123" lon="17.6675313">
        <ele>30.8995</ele>
        <time>2014-06-15T12:15:06Z</time>
      </trkpt>
      <trkpt lat="59.9486445" lon="17.6674908">
        <ele>30.8995</ele>
        <time>2014-06-15T12:15:07Z</time>
      </trkpt>
      <trkpt lat="59.9485765" lon="17.6674509">
        <ele>30.8995</ele>
        <time>2014-06-15T12:15:08Z</time>
      </trkpt>
      <trkpt lat="59.9485071" lon="17.6674115">
        <ele>30.8995</ele>
        <time>2014-06-15T12:15:09Z</time>
      </trkpt>
      <trkpt lat="59.9484372" lon="17.6673712">
        <ele>30.8995</ele>
        <time>2014-06-15T12:15:10Z</time>
      </trkpt>
      <trkpt lat="59.9483667" lon="17.6673302">
        <ele>30.8995</ele>
        <time>2014-06-15T12:15:11Z</time>
      </trkpt>
      <trkpt lat="59.9482947" lon="17.6672903">
        <ele>30.8995</ele>
        <time>2014-06-15T12:15:12Z</time>
      </trkpt>
      <trkpt lat="59.9482223" lon="17.6672515">
        <ele>30.8995</ele>
        <time>2014-06-15T12:15:13Z</time>
      </trkpt>
      <trkpt lat="59.94815" lon="17.6672112">
        <ele>31.3801</ele>
        <time>2014-06-15T12:15:14Z</time>
      </trkpt>
      <trkpt lat="59.9480776" lon="17.6671708">
        <ele>31.3801</ele>
        <time>2014-06-15T12:15:15Z</time>
      </trkpt>
      <trkpt lat="59.9480047" lon="17.6671303">
        <ele>31.3801</ele>
        <time>2014-06-15T12:15:16Z</time>
      </trkpt>
      <trkpt lat="59.9479314" lon="17.6670893">
        <ele>31.3801</ele>
        <time>2014-06-15T12:15:17Z</time>
      </trkpt>
      <trkpt lat="59.9478577" lon="17.6670488">
        <ele>31.3801</ele>
        <time>2014-06-15T12:15:18Z</time>
      </trkpt>
      <trkpt lat="59.9477838" lon="17.6670105">
        <ele>31.3801</ele>
        <time>2014-06-15T12:15:19Z</time>
      </trkpt>
      <trkpt lat="59.9477095" lon="17.6669738">
        <ele>31.3801</ele>
        <time>2014-06-15T12:15:20Z</time>
      </trkpt>
      <trkpt lat="59.9476357" lon="17.6669369">
        <ele>31.3801</ele>
        <time>2014-06-15T12:15:21Z</time>
      </trkpt>
      <trkpt lat="59.9475622" lon="17.6669003">
        <ele>31.3801</ele>
        <time>2014-06-15T12:15:22Z</time>
      </trkpt>
      <trkpt lat="59.947489" lon="17.6668635">
        <ele>31.8607</ele>
        <time>2014-06-15T12:15:23Z</time>
      </trkpt>
      <trkpt lat="59.9474162" lon="17.6668261">
        <ele>31.8607</ele>
        <time>2014-06-15T12:15:24Z</time>
      </trkpt>
      <trkpt lat="59.9473436" lon="17.6667898">
        <ele>31.8607</ele>
        <time>2014-06-15T12:15:25Z</time>
      </trkpt>
      <trkpt lat="59.9472711" lon="17.6667552">
        <ele>31.8607</ele>
        <time>2014-06-15T12:15:26Z</time>
      </trkpt>
      <trkpt lat="59.9471986" lon="17.6667226">
        <ele>31.8607</ele>
        <time>2014-06-15T12:15:27Z</time>
      </trkpt>
      <trkpt lat="59.9471261" lon="17.6666899">
        <ele>31.8607</ele>
        <time>2014-06-15T12:15:28Z</time>
      </trkpt>
      <trkpt lat="59.9470537" lon="17.6666574">
        <ele>31.8607</ele>
        <time>2014-06-15T12:15:29Z</time>
      </trkpt>
      <trkpt lat="59.9469819" lon="17.6666247">
        <ele>31.8607</ele>
        <time>2014-06-15T12:15:30Z</time>
      </trkpt>
      <trkpt lat="59.9469105" lon="17.6665934">
        <ele>31.8607</ele>
        <time>2014-06-15T12:15:31Z</time>
      </trkpt>
      <trkpt lat="59.9468395" lon="17.6665671">
        <ele>31.8607</ele>
        <time>2014-06-15T12:15:32Z</time>
      </trkpt>
      <trkpt lat="59.9467692" lon="17.6665465">
        <ele>32.3416</ele>
        <time>2014-06-15T12:15:33Z</time>
      </trkpt>
      <trkpt lat="59.9466998" lon="17.6665297">
        <ele>32.3416</ele>
        <time>2014-06-15T12:15:34Z</time>
      </trkpt>
      <trkpt lat="59.94663" lon="17.666518">
        <ele>32.3416</ele>
        <time>2014-06-15T12:15:35Z</time>
      </trkpt>
      <trkpt lat="59.9465599" lon="17.6665113">
        <ele>32.3416</ele>
        <time>2014-06-15T12:15:36Z</time>
      </trkpt>
      <trkpt lat="59.946489" lon="17.6664979">
        <ele>32.3416</ele>
        <time>2014-06-15T12:15:37Z</time>
      </trkpt>
      <trkpt lat="59.9464175" lon="17.666473">
        <ele>32.3416</ele>
        <time>2014-06-15T12:15:38Z</time>
      </trkpt>
      <trkpt lat="59.9463465" lon="17.6664391">
        <ele>32.3416</ele>
        <time>2014-06-15T12:15:39Z</time>
      </trkpt>
      <trkpt lat="59.9462769" lon="17.6663937">
        <ele>32.3416</ele>
        <time>2014-06-15T12:15:40Z</time>
      </trkpt>
      <trkpt lat="59.946208" lon="17.6663442">
        <ele>32.3416</ele>
        <time>2014-06-15T12:15:41Z</time>
      </trkpt>
      <trkpt lat="59.9461377" lon="17.6663043">
        <ele>32.3416</ele>
        <time>2014-06-15T12:15:42Z</time>
      </trkpt>
      <trkpt lat="59.9460652" lon="17.6662771">
        <ele>32.3416</ele>
        <time>2014-06-15T12:15:43Z</time>
      </trkpt>
      <trkpt lat="59.9459915" lon="17.6662543">
        <ele>32.3416</ele>
        <time>2014-06-15T12:15:44Z</time>
      </trkpt>
      <trkpt lat="59.9459176" lon="17.66623">
        <ele>32.8223</ele>
        <time>2014-06-15T12:15:45Z</time>
      </trkpt>
      <trkpt lat="59.9458439" lon="17.6662015">
        <ele>32.8223</ele>
        <time>2014-06-15T12:15:46Z</time>
      </trkpt>
      <trkpt lat="59.9457698" lon="17.6661673">
        <ele>32.8223</ele>
        <time>2014-06-15T12:15:47Z</time>
      </trkpt>
      <trkpt lat="59.9456952" lon="17.6661316">
        <ele>32.8223</ele>
        <time>2014-06-15T12:15:48Z</time>
      </trkpt>
      <trkpt lat="59.9456206" lon="17.6660985">
        <ele>32.8223</ele>
        <time>2014-06-15T12:15:49Z</time>
      </trkpt>
      <trkpt lat="59.9455462" lon="17.6660687">
        <ele>32.8223</ele>
        <time>2014-06-15T12:15:50Z</time>
      </trkpt>
      <trkpt lat="59.9454726" lon="17.6660402">
        <ele>32.8223</ele>
        <time>2014-06-15T12:15:51Z</time>
      </trkpt>
      <trkpt lat="59.9454" lon="17.6660102">
        <ele>32.8223</ele>
        <time>2014-06-15T12:15:52Z</time>
      </trkpt>
      <trkpt lat="59.9453281" lon="17.6659803">
        <ele>32.8223</ele>
        <time>2014-06-15T12:15:53Z</time>
      </trkpt>
      <trkpt lat="59.9452571" lon="17.6659517">
        <ele>32.8223</ele>
        <time>2014-06-15T12:15:54Z</time>
      </trkpt>
      <trkpt lat="59.9451867" lon="17.6659234">
        <ele>32.8223</ele>
        <time>2014-06-15T12:15:55Z</time>
      </trkpt>
      <trkpt lat="59.9451166" lon="17.6658958">
        <ele>32.8223</ele>
        <time>2014-06-15T12:15:56Z</time>
      </trkpt>
      <trkpt lat="59.9450472" lon="17.6658682">
        <ele>32.8223</ele>
        <time>2014-06-15T12:15:57Z</time>
      </trkpt>
      <trkpt lat="59.9449778" lon="17.6658425">
        <ele>32.8223</ele>
        <time>2014-06-15T12:15:58Z</time>
      </trkpt>
      <trkpt lat="59.9449084" lon="17.6658193">
        <ele>32.8223</ele>
        <time>2014-06-15T12:15:59Z</time>
      </trkpt>
      <trkpt lat="59.9448392" lon="17.6657964">
        <ele>33.3029</ele>
        <time>2014-06-15T12:16:00Z</time>
      </trkpt>
      <trkpt lat="59.9447703" lon="17.6657716">
        <ele>33.3029</ele>
        <time>2014-06-15T12:16:01Z</time>
      </trkpt>
      <trkpt lat="59.9447016" lon="17.665743">
        <ele>33.3029</ele>
        <time>2014-06-15T12:16:02Z</time>
      </trkpt>
      <trkpt lat="59.9446324" lon="17.6657134">
        <ele>33.3029</ele>
        <time>2014-06-15T12:16:03Z</time>
      </trkpt>
      <trkpt lat="59.9445633" lon="17.6656862">
        <ele>33.3029</ele>
        <time>2014-06-15T12:16:04Z</time>
      </trkpt>
      <trkpt lat="59.9444944" lon="17.6656611">
        <ele>33.3029</ele>
        <time>2014-06-15T12:16:05Z</time>
      </trkpt>
      <trkpt lat="59.944426" lon="17.6656353">
        <ele>33.3029</ele>
        <time>2014-06-15T12:16:06Z</time>
      </trkpt>
      <trkpt lat="59.9443583" lon="17.6656089">
        <ele>33.3029</ele>
        <time>2014-06-15T12:16:07Z</time>
      </trkpt>
      <trkpt lat="59.944291" lon="17.6655829">
        <ele>33.7834</ele>
        <time>2014-06-15T12:16:08Z</time>
      </trkpt>
      <trkpt lat="59.9442237" lon="17.6655561">
        <ele>33.7834</ele>
        <time>2014-06-15T12:16:09Z</time>
      </trkpt>
      <trkpt lat="59.9441569" lon="17.6655268">
        <ele>33.7834</ele>
        <time>2014-06-15T12:16:10Z</time>
      </trkpt>
      <trkpt lat="59.9440904" lon="17.6654959">
        <ele>33.7834</ele>
        <time>2014-06-15T12:16:11Z</time>
      </trkpt>
      <trkpt lat="59.9440247" lon="17.6654644">
        <ele>33.7834</ele>
        <time>2014-06-15T12:16:12Z</time>
      </trkpt>
      <trkpt lat="59.94396" lon="17.6654323">
        <ele>33.7834</ele>
        <time>2014-06-15T12:16:13Z</time>
      </trkpt>
      <trkpt lat="59.9438958" lon="17.6653979">
        <ele>33.7834</ele>
        <time>2014-06-15T12:16:14Z</time>
      </trkpt>
      <trkpt lat="59.9438322" lon="17.6653611">
        <ele>34.2642</ele>
        <time>2014-06-15T12:16:15Z</time>
      </trkpt>
      <trkpt lat="59.943769" lon="17.6653235">
        <ele>34.2642</ele>
        <time>2014-06-15T12:16:16Z</time>
      </trkpt>
      <trkpt lat="59.9437057" lon="17.6652846">
        <ele>34.2642</ele>
        <time>2014-06-15T12:16:17Z</time>
      </trkpt>
      <trkpt lat="59.943642" lon="17.6652463">
        <ele>34.2642</ele>
        <time>2014-06-15T12:16:18Z</time>
      </trkpt>
      <trkpt lat="59.9435786" lon="17.6652069">
        <ele>34.7449</ele>
        <time>2014-06-15T12:16:19Z</time>
      </trkpt>
      <trkpt lat="59.9435144" lon="17.6651652">
        <ele>34.7449</ele>
        <time>2014-06-15T12:16:20Z</time>
      </trkpt>
      <trkpt lat="59.9434493" lon="17.6651205">
        <ele>34.7449</ele>
        <time>2014-06-15T12:16:21Z</time>
      </trkpt>
      <trkpt lat="59.9433855" lon="17.6650715">
        <ele>34.7449</ele>
        <time>2014-06-15T12:16:22Z</time>
      </trkpt>
      <trkpt lat="59.9433218" lon="17.6650198">
        <ele>34.7449</ele>
        <time>2014-06-15T12:16:23Z</time>
      </trkpt>
      <trkpt lat="59.9432577" lon="17.6649669">
        <ele>35.2255</ele>
        <time>2014-06-15T12:16:24Z</time>
      </trkpt>
      <trkpt lat="59.9431939" lon="17.664912">
        <ele>35.2255</ele>
        <time>2014-06-15T12:16:25Z</time>
      </trkpt>
      <trkpt lat="59.9431308" lon="17.6648546">
        <ele>35.2255</ele>
        <time>2014-06-15T12:16:26Z</time>
      </trkpt>
      <trkpt lat="59.9430684" lon="17.664797">
        <ele>35.2255</ele>
        <time>2014-06-15T12:16:27Z</time>
      </trkpt>
      <trkpt lat="59.9430064" lon="17.6647412">
        <ele>35.7061</ele>
        <time>2014-06-15T12:16:28Z</time>
      </trkpt>
      <trkpt lat="59.9429453" lon="17.6646846">
        <ele>35.7061</ele>
        <time>2014-06-15T12:16:29Z</time>
      </trkpt>
      <trkpt lat="59.9428858" lon="17.6646252">
        <ele>35.7061</ele>
        <time>2014-06-15T12:16:30Z</time>
      </trkpt>
      <trkpt lat="59.9428277" lon="17.6645645">
        <ele>35.7061</ele>
        <time>2014-06-15T12:16:31Z</time>
      </trkpt>
      <trkpt lat="59.9427706" lon="17.6645032">
        <ele>35.7061</ele>
        <time>2014-06-15T12:16:32Z</time>
      </trkpt>
      <trkpt lat="59.9427146" lon="17.6644409">
        <ele>36.1868</ele>
        <time>2014-06-15T12:16:33Z</time>
      </trkpt>
      <trkpt lat="59.9426591" lon="17.6643796">
        <ele>36.1868</ele>
        <time>2014-06-15T12:16:34Z</time>
      </trkpt>
      <trkpt lat="59.9426043" lon="17.664319">
        <ele>36.1868</ele>
        <time>2014-06-15T12:16:35Z</time>
      </trkpt>
      <trkpt lat="59.9425505" lon="17.664257">
        <ele>36.1868</ele>
        <time>2014-06-15T12:16:36Z</time>
      </trkpt>
      <trkpt lat="59.9424977" lon="17.6641932">
        <ele>36.6675</ele>
        <time>2014-06-15T12:16:37Z</time>
      </trkpt>
      <trkpt lat="59.9424463" lon="17.664128">
        <ele>36.6675</ele>
        <time>2014-06-15T12:16:38Z</time>
      </trkpt>
      <trkpt lat="59.9423956" lon="17.6640611">
        <ele>36.6675</ele>
        <time>2014-06-15T12:16:39Z</time>
      </trkpt>
      <trkpt lat="59.942344" lon="17.6639953">
        <ele>37.1481</ele>
        <time>2014-06-15T12:16:40Z</time>
      </trkpt>
      <trkpt lat="59.9422924" lon="17.6639295">
        <ele>37.1481</ele>
        <time>2014-06-15T12:16:41Z</time>
      </trkpt>
      <trkpt lat="59.9422416" lon="17.6638602">
        <ele>37.1481</ele>
        <time>2014-06-15T12:16:42Z</time>
      </trkpt>
      <trkpt lat="59.942191" lon="17.6637896">
        <ele>37.1481</ele>
        <time>2014-06-15T12:16:43Z</time>
      </trkpt>
      <trkpt lat="59.9421398" lon="17.6637207">
        <ele>37.6287</ele>
        <time>2014-06-15T12:16:44Z</time>
      </trkpt>
      <trkpt lat="59.9420893" lon="17.6636504">
        <ele>37.6287</ele>
        <time>2014-06-15T12:16:45Z</time>
      </trkpt>
      <trkpt lat="59.9420398" lon="17.6635755">
        <ele>37.6287</ele>
        <time>2014-06-15T12:16:46Z</time>
      </trkpt>
      <trkpt lat="59.9419909" lon="17.6634972">
        <ele>37.6287</ele>
        <time>2014-06-15T12:16:47Z</time>
      </trkpt>
      <trkpt lat="59.9419419" lon="17.6634182">
        <ele>37.6287</ele>
        <time>2014-06-15T12:16:48Z</time>
      </trkpt>
      <trkpt lat="59.9418926" lon="17.6633396">
        <ele>37.6287</ele>
        <time>2014-06-15T12:16:49Z</time>
      </trkpt>
      <trkpt lat="59.9418432" lon="17.6632602">
        <ele>37.6287</ele>
        <time>2014-06-15T12:16:50Z</time>
      </trkpt>
      <trkpt lat="59.941794" lon="17.6631769">
        <ele>38.1094</ele>
        <time>2014-06-15T12:16:51Z</time>
      </trkpt>
      <trkpt lat="59.9417449" lon="17.6630922">
        <ele>38.1094</ele>
        <time>2014-06-15T12:16:52Z</time>
      </trkpt>
      <trkpt lat="59.9416956" lon="17.6630064">
        <ele>38.1094</ele>
        <time>2014-06-15T12:16:53Z</time>
      </trkpt>
      <trkpt lat="59.9416466" lon="17.6629189">
        <ele>38.1094</ele>
        <time>2014-06-15T12:16:54Z</time>
      </trkpt>
      <trkpt lat="59.9415972" lon="17.6628303">
        <ele>38.1094</ele>
        <time>2014-06-15T12:16:55Z</time>
      </trkpt>
      <trkpt lat="59.941547" lon="17.6627422">
        <ele>38.1094</ele>
        <time>2014-06-15T12:16:56Z</time>
      </trkpt>
      <trkpt lat="59.9414954" lon="17.6626572">
        <ele>38.1094</ele>
        <time>2014-06-15T12:16:57Z</time>
      </trkpt>
      <trkpt lat="59.9414419" lon="17.6625784">
        <ele>38.1094</ele>
        <time>2014-06-15T12:16:58Z</time>
      </trkpt>
      <trkpt lat="59.9413862" lon="17.6625047">
        <ele>37.6287</ele>
        <time>2014-06-15T12:16:59Z</time>
      </trkpt>
      <trkpt lat="59.941329" lon="17.6624346">
        <ele>37.6287</ele>
        <time>2014-06-15T12:17:00Z</time>
      </trkpt>
      <trkpt lat="59.9412695" lon="17.6623713">
        <ele>37.6287</ele>
        <time>2014-06-15T12:17:01Z</time>
      </trkpt>
      <trkpt lat="59.9412078" lon="17.6623154">
        <ele>37.6287</ele>
        <time>2014-06-15T12:17:02Z</time>
      </trkpt>
      <trkpt lat="59.9411441" lon="17.6622647">
        <ele>37.6287</ele>
        <time>2014-06-15T12:17:03Z</time>
      </trkpt>
      <trkpt lat="59.9410781" lon="17.6622212">
        <ele>37.1481</ele>
        <time>2014-06-15T12:17:04Z</time>
      </trkpt>
      <trkpt lat="59.9410094" lon="17.6621849">
        <ele>37.1481</ele>
        <time>2014-06-15T12:17:05Z</time>
      </trkpt>
      <trkpt lat="59.9409388" lon="17.6621532">
        <ele>37.1481</ele>
        <time>2014-06-15T12:17:06Z</time>
      </trkpt>
      <trkpt lat="59.940867" lon="17.6621268">
        <ele>37.1481</ele>
        <time>2014-06-15T12:17:07Z</time>
      </trkpt>
      <trkpt lat="59.9407945" lon="17.6621076">
        <ele>37.1481</ele>
        <time>2014-06-15T12:17:08Z</time>
      </trkpt>
      <trkpt lat="59.9407214" lon="17.6620926">
        <ele>37.1481</ele>
        <time>2014-06-15T12:17:09Z</time>
      </trkpt>
      <trkpt lat="59.9406479" lon="17.6620698">
        <ele>36.6675</ele>
        <time>2014-06-15T12:17:10Z</time>
      </trkpt>
      <trkpt lat="59.940576" lon="17.6620236">
        <ele>36.6675</ele>
        <time>2014-06-15T12:17:11Z</time>
      </trkpt>
      <trkpt lat="59.9405091" lon="17.6619464">
        <ele>36.1868</ele>
        <time>2014-06-15T12:17:12Z</time>
      </trkpt>
      <trkpt lat="59.9404508" lon="17.6618372">
        <ele>36.1868</ele>
        <time>2014-06-15T12:17:13Z</time>
      </trkpt>
      <trkpt lat="59.940407" lon="17.6616992">
        <ele>35.7061</ele>
        <time>2014-06-15T12:17:14Z</time>
      </trkpt>
      <trkpt lat="59.9403801" lon="17.6615402">
        <ele>35.2255</ele>
        <time>2014-06-15T12:17:15Z</time>
      </trkpt>
      <trkpt lat="59.9403662" lon="17.6613696">
        <ele>34.7449</ele>
        <time>2014-06-15T12:17:16Z</time>
      </trkpt>
      <trkpt lat="59.9403605" lon="17.6611964">
        <ele>34.7449</ele>
        <time>2014-06-15T12:17:17Z</time>
      </trkpt>
      <trkpt lat="59.9403688" lon="17.6610254">
        <ele>34.7449</ele>
        <time>2014-06-15T12:17:18Z</time>
      </trkpt>
      <trkpt lat="59.9403959" lon="17.6608632">
        <ele>34.7449</ele>
        <time>2014-06-15T12:17:19Z</time>
      </trkpt>
      <trkpt lat="59.9404337" lon="17.6607137">
        <ele>34.7449</ele>
        <time>2014-06-15T12:17:20Z</time>
      </trkpt>
      <trkpt lat="59.9404682" lon="17.6605713">
        <ele>35.2255</ele>
        <time>2014-06-15T12:17:21Z</time>
      </trkpt>
      <trkpt lat="59.9404878" lon="17.6604267">
        <ele>35.2255</ele>
        <time>2014-06-15T12:17:22Z</time>
      </trkpt>
      <trkpt lat="59.940492" lon="17.6602838">
        <ele>35.7061</ele>
        <time>2014-06-15T12:17:23Z</time>
      </trkpt>
      <trkpt lat="59.9404826" lon="17.6601468">
        <ele>35.7061</ele>
        <time>2014-06-15T12:17:24Z</time>
      </trkpt>
      <trkpt lat="59.9404674" lon="17.660019">
        <ele>36.1868</ele>
        <time>2014-06-15T12:17:25Z</time>
      </trkpt>
      <trkpt lat="59.9404423" lon="17.6599041">
        <ele>36.1868</ele>
        <time>2014-06-15T12:17:26Z</time>
      </trkpt>
      <trkpt lat="59.9403964" lon="17.6597387">
        <ele>36.1868</ele>
        <time>2014-06-15T12:17:27Z</time>
      </trkpt>
      <trkpt lat="59.9403625" lon="17.6596021">
        <ele>36.1868</ele>
        <time>2014-06-15T12:17:28Z</time>
      </trkpt>
      <trkpt lat="59.9403349" lon="17.659459">
        <ele>35.2255</ele>
        <time>2014-06-15T12:17:29Z</time>
      </trkpt>
      <trkpt lat="59.9403104" lon="17.6592969">
        <ele>35.2255</ele>
        <time>2014-06-15T12:17:30Z</time>
      </trkpt>
      <trkpt lat="59.9402857" lon="17.6591411">
        <ele>35.2255</ele>
        <time>2014-06-15T12:17:31Z</time>
      </trkpt>
      <trkpt lat="59.9402595" lon="17.6589866">
        <ele>35.2255</ele>
        <time>2014-06-15T12:17:32Z</time>
      </trkpt>
      <trkpt lat="59.9402298" lon="17.6588331">
        <ele>34.7449</ele>
        <time>2014-06-15T12:17:33Z</time>
      </trkpt>
      <trkpt lat="59.9401963" lon="17.6586803">
        <ele>35.2255</ele>
        <time>2014-06-15T12:17:34Z</time>
      </trkpt>
      <trkpt lat="59.9401613" lon="17.6585283">
        <ele>35.2255</ele>
        <time>2014-06-15T12:17:35Z</time>
      </trkpt>
      <trkpt lat="59.9401269" lon="17.6583762">
        <ele>35.2255</ele>
        <time>2014-06-15T12:17:36Z</time>
      </trkpt>
      <trkpt lat="59.9400941" lon="17.6582239">
        <ele>35.7061</ele>
        <time>2014-06-15T12:17:37Z</time>
      </trkpt>
      <trkpt lat="59.9400619" lon="17.6580726">
        <ele>35.7061</ele>
        <time>2014-06-15T12:17:38Z</time>
      </trkpt>
      <trkpt lat="59.9400298" lon="17.6579245">
        <ele>36.1868</ele>
        <time>2014-06-15T12:17:39Z</time>
      </trkpt>
      <trkpt lat="59.9399979" lon="17.6577797">
        <ele>36.1868</ele>
        <time>2014-06-15T12:17:40Z</time>
      </trkpt>
      <trkpt lat="59.9399683" lon="17.6576362">
        <ele>36.6675</ele>
        <time>2014-06-15T12:17:41Z</time>
      </trkpt>
      <trkpt lat="59.9399398" lon="17.6574947">
        <ele>36.6675</ele>
        <time>2014-06-15T12:17:42Z</time>
      </trkpt>
      <trkpt lat="59.9399114" lon="17.6573565">
        <ele>36.6675</ele>
        <time>2014-06-15T12:17:43Z</time>
      </trkpt>
      <trkpt lat="59.9398831" lon="17.6572215">
        <ele>37.1481</ele>
        <time>2014-06-15T12:17:44Z</time>
      </trkpt>
      <trkpt lat="59.9398556" lon="17.6570892">
        <ele>37.1481</ele>
        <time>2014-06-15T12:17:45Z</time>
      </trkpt>
      <trkpt lat="59.9398294" lon="17.6569592">
        <ele>37.1481</ele>
        <time>2014-06-15T12:17:46Z</time>
      </trkpt>
      <trkpt lat="59.9398044" lon="17.6568315">
        <ele>37.6287</ele>
        <time>2014-06-15T12:17:47Z</time>
      </trkpt>
      <trkpt lat="59.9397797" lon="17.6567058">
        <ele>37.6287</ele>
        <time>2014-06-15T12:17:48Z</time>
      </trkpt>
      <trkpt lat="59.9397559" lon="17.6565819">
        <ele>37.6287</ele>
        <time>2014-06-15T12:17:49Z</time>
      </trkpt>
      <trkpt lat="59.9397321" lon="17.6564602">
        <ele>37.6287</ele>
        <time>2014-06-15T12:17:50Z</time>
      </trkpt>
      <trkpt lat="59.9397077" lon="17.656339">
        <ele>38.1094</ele>
        <time>2014-06-15T12:17:51Z</time>
      </trkpt>
      <trkpt lat="59.9396828" lon="17.6562166">
        <ele>38.1094</ele>
        <time>2014-06-15T12:17:52Z</time>
      </trkpt>
      <trkpt lat="59.939658" lon="17.6560935">
        <ele>38.1094</ele>
        <time>2014-06-15T12:17:53Z</time>
      </trkpt>
      <trkpt lat="59.9396334" lon="17.6559708">
        <ele>38.1094</ele>
        <time>2014-06-15T12:17:54Z</time>
      </trkpt>
      <trkpt lat="59.9396082" lon="17.655852">
        <ele>38.1094</ele>
        <time>2014-06-15T12:17:55Z</time>
      </trkpt>
      <trkpt lat="59.9395839" lon="17.6557315">
        <ele>38.5901</ele>
        <time>2014-06-15T12:17:56Z</time>
      </trkpt>
      <trkpt lat="59.9395601" lon="17.6556102">
        <ele>38.5901</ele>
        <time>2014-06-15T12:17:57Z</time>
      </trkpt>
      <trkpt lat="59.9395362" lon="17.6554884">
        <ele>38.5901</ele>
        <time>2014-06-15T12:17:58Z</time>
      </trkpt>
      <trkpt lat="59.9395119" lon="17.6553662">
        <ele>38.5901</ele>
        <time>2014-06-15T12:17:59Z</time>
      </trkpt>
      <trkpt lat="59.9394869" lon="17.6552446">
        <ele>38.5901</ele>
        <time>2014-06-15T12:18:00Z</time>
      </trkpt>
      <trkpt lat="59.9394615" lon="17.6551244">
        <ele>38.5901</ele>
        <time>2014-06-15T12:18:01Z</time>
      </trkpt>
      <trkpt lat="59.9394358" lon="17.6550042">
        <ele>38.5901</ele>
        <time>2014-06-15T12:18:02Z</time>
      </trkpt>
      <trkpt lat="59.9394105" lon="17.6548809">
        <ele>38.5901</ele>
        <time>2014-06-15T12:18:03Z</time>
      </trkpt>
      <trkpt lat="59.9393865" lon="17.6547553">
        <ele>38.5901</ele>
        <time>2014-06-15T12:18:04Z</time>
      </trkpt>
      <trkpt lat="59.9393622" lon="17.6546294">
        <ele>38.5901</ele>
        <time>2014-06-15T12:18:05Z</time>
      </trkpt>
      <trkpt lat="59.9393377" lon="17.6545038">
        <ele>38.5901</ele>
        <time>2014-06-15T12:18:06Z</time>
      </trkpt>
      <trkpt lat="59.9393129" lon="17.6543793">
        <ele>38.5901</ele>
        <time>2014-06-15T12:18:07Z</time>
      </trkpt>
      <trkpt lat="59.9392876" lon="17.6542556">
        <ele>38.5901</ele>
        <time>2014-06-15T12:18:08Z</time>
      </trkpt>
      <trkpt lat="59.9392623" lon="17.6541313">
        <ele>38.5901</ele>
        <time>2014-06-15T12:18:09Z</time>
      </trkpt>
      <trkpt lat="59.9392371" lon="17.6540064">
        <ele>38.5901</ele>
        <time>2014-06-15T12:18:10Z</time>
      </trkpt>
      <trkpt lat="59.9392104" lon="17.6538816">
        <ele>38.5901</ele>
        <time>2014-06-15T12:18:11Z</time>
      </trkpt>
      <trkpt lat="59.939183" lon="17.6537572">
        <ele>38.5901</ele>
        <time>2014-06-15T12:18:12Z</time>
      </trkpt>
      <trkpt lat="59.939155" lon="17.653633">
        <ele>38.5901</ele>
        <time>2014-06-15T12:18:13Z</time>
      </trkpt>
      <trkpt lat="59.9391266" lon="17.6535092">
        <ele>38.5901</ele>
        <time>2014-06-15T12:18:14Z</time>
      </trkpt>
      <trkpt lat="59.939098" lon="17.6533859">
        <ele>38.5901</ele>
        <time>2014-06-15T12:18:15Z</time>
      </trkpt>
      <trkpt lat="59.9390695" lon="17.6532626">
        <ele>38.5901</ele>
        <time>2014-06-15T12:18:16Z</time>
      </trkpt>
      <trkpt lat="59.9390413" lon="17.6531424">
        <ele>38.5901</ele>
        <time>2014-06-15T12:18:17Z</time>
      </trkpt>
      <trkpt lat="59.9390129" lon="17.6530231">
        <ele>38.5901</ele>
        <time>2014-06-15T12:18:18Z</time>
      </trkpt>
      <trkpt lat="59.9389844" lon="17.6529036">
        <ele>38.5901</ele>
        <time>2014-06-15T12:18:19Z</time>
      </trkpt>
      <trkpt lat="59.9389546" lon="17.652783">
        <ele>38.5901</ele>
        <time>2014-06-15T12:18:20Z</time>
      </trkpt>
      <trkpt lat="59.9389238" lon="17.6526622">
        <ele>38.1094</ele>
        <time>2014-06-15T12:18:21Z</time>
      </trkpt>
      <trkpt lat="59.9388912" lon="17.6525419">
        <ele>38.1094</ele>
        <time>2014-06-15T12:18:22Z</time>
      </trkpt>
      <trkpt lat="59.9388574" lon="17.6524219">
        <ele>38.1094</ele>
        <time>2014-06-15T12:18:23Z</time>
      </trkpt>
      <trkpt lat="59.9388235" lon="17.652301">
        <ele>38.1094</ele>
        <time>2014-06-15T12:18:24Z</time>
      </trkpt>
      <trkpt lat="59.9387903" lon="17.6521779">
        <ele>38.1094</ele>
        <time>2014-06-15T12:18:25Z</time>
      </trkpt>
      <trkpt lat="59.938756" lon="17.6520555">
        <ele>38.1094</ele>
        <time>2014-06-15T12:18:26Z</time>
      </trkpt>
      <trkpt lat="59.9387194" lon="17.6519344">
        <ele>38.1094</ele>
        <time>2014-06-15T12:18:27Z</time>
      </trkpt>
      <trkpt lat="59.9386825" lon="17.6518127">
        <ele>38.1094</ele>
        <time>2014-06-15T12:18:28Z</time>
      </trkpt>
      <trkpt lat="59.9386457" lon="17.6516904">
        <ele>38.1094</ele>
        <time>2014-06-15T12:18:29Z</time>
      </trkpt>
      <trkpt lat="59.938608" lon="17.6515691">
        <ele>37.6287</ele>
        <time>2014-06-15T12:18:30Z</time>
      </trkpt>
      <trkpt lat="59.9385697" lon="17.6514484">
        <ele>37.6287</ele>
        <time>2014-06-15T12:18:31Z</time>
      </trkpt>
      <trkpt lat="59.9385313" lon="17.6513294">
        <ele>37.6287</ele>
        <time>2014-06-15T12:18:32Z</time>
      </trkpt>
      <trkpt lat="59.9384924" lon="17.6512128">
        <ele>37.6287</ele>
        <time>2014-06-15T12:18:33Z</time>
      </trkpt>
      <trkpt lat="59.9384523" lon="17.6511009">
        <ele>37.1481</ele>
        <time>2014-06-15T12:18:34Z</time>
      </trkpt>
      <trkpt lat="59.9384111" lon="17.650993">
        <ele>37.1481</ele>
        <time>2014-06-15T12:18:35Z</time>
      </trkpt>
      <trkpt lat="59.9383662" lon="17.6508916">
        <ele>37.1481</ele>
        <time>2014-06-15T12:18:36Z</time>
      </trkpt>
      <trkpt lat="59.9383175" lon="17.6507944">
        <ele>37.6287</ele>
        <time>2014-06-15T12:18:37Z</time>
      </trkpt>
      <trkpt lat="59.938271" lon="17.6506962">
        <ele>37.6287</ele>
        <time>2014-06-15T12:18:38Z</time>
      </trkpt>
      <trkpt lat="59.9382288" lon="17.6505937">
        <ele>37.6287</ele>
        <time>2014-06-15T12:18:39Z</time>
      </trkpt>
      <trkpt lat="59.9381904" lon="17.6504876">
        <ele>37.6287</ele>
        <time>2014-06-15T12:18:40Z</time>
      </trkpt>
      <trkpt lat="59.9381535" lon="17.6503784">
        <ele>37.6287</ele>
        <time>2014-06-15T12:18:41Z</time>
      </trkpt>
      <trkpt lat="59.9381164" lon="17.6502675">
        <ele>37.6287</ele>
        <time>2014-06-15T12:18:42Z</time>
      </trkpt>
      <trkpt lat="59.9380776" lon="17.650157">
        <ele>38.1094</ele>
        <time>2014-06-15T12:18:43Z</time>
      </trkpt>
      <trkpt lat="59.9380371" lon="17.650049">
        <ele>38.1094</ele>
        <time>2014-06-15T12:18:44Z</time>
      </trkpt>
      <trkpt lat="59.9379953" lon="17.6499441">
        <ele>38.1094</ele>
        <time>2014-06-15T12:18:45Z</time>
      </trkpt>
      <trkpt lat="59.9379523" lon="17.6498406">
        <ele>38.1094</ele>
        <time>2014-06-15T12:18:46Z</time>
      </trkpt>
      <trkpt lat="59.9379092" lon="17.649737">
        <ele>38.1094</ele>
        <time>2014-06-15T12:18:47Z</time>
      </trkpt>
      <trkpt lat="59.9378671" lon="17.6496313">
        <ele>38.1094</ele>
        <time>2014-06-15T12:18:48Z</time>
      </trkpt>
      <trkpt lat="59.9378245" lon="17.6495241">
        <ele>38.1094</ele>
        <time>2014-06-15T12:18:49Z</time>
      </trkpt>
      <trkpt lat="59.9377834" lon="17.6494112">
        <ele>38.1094</ele>
        <time>2014-06-15T12:18:50Z</time>
      </trkpt>
      <trkpt lat="59.9377425" lon="17.6492967">
        <ele>38.1094</ele>
        <time>2014-06-15T12:18:51Z</time>
      </trkpt>
      <trkpt lat="59.9376987" lon="17.6491872">
        <ele>38.5901</ele>
        <time>2014-06-15T12:18:52Z</time>
      </trkpt>
      <trkpt lat="59.9376544" lon="17.6490766">
        <ele>38.5901</ele>
        <time>2014-06-15T12:18:53Z</time>
      </trkpt>
      <trkpt lat="59.9376135" lon="17.64896">
        <ele>38.5901</ele>
        <time>2014-06-15T12:18:54Z</time>
      </trkpt>
      <trkpt lat="59.9375761" lon="17.6488389">
        <ele>39.0707</ele>
        <time>2014-06-15T12:18:55Z</time>
      </trkpt>
      <trkpt lat="59.937537" lon="17.6487229">
        <ele>39.0707</ele>
        <time>2014-06-15T12:18:56Z</time>
      </trkpt>
      <trkpt lat="59.9374927" lon="17.6486175">
        <ele>39.0707</ele>
        <time>2014-06-15T12:18:57Z</time>
      </trkpt>
      <trkpt lat="59.937444" lon="17.6485182">
        <ele>39.0707</ele>
        <time>2014-06-15T12:18:58Z</time>
      </trkpt>
      <trkpt lat="59.937397" lon="17.6484149">
        <ele>39.0707</ele>
        <time>2014-06-15T12:18:59Z</time>
      </trkpt>
      <trkpt lat="59.9373482" lon="17.6483083">
        <ele>38.5901</ele>
        <time>2014-06-15T12:19:00Z</time>
      </trkpt>
      <trkpt lat="59.9372922" lon="17.6482042">
        <ele>39.0707</ele>
        <time>2014-06-15T12:19:01Z</time>
      </trkpt>
      <trkpt lat="59.9372326" lon="17.6481109">
        <ele>39.0707</ele>
        <time>2014-06-15T12:19:02Z</time>
      </trkpt>
      <trkpt lat="59.937171" lon="17.6480333">
        <ele>39.0707</ele>
        <time>2014-06-15T12:19:03Z</time>
      </trkpt>
      <trkpt lat="59.9371088" lon="17.6479621">
        <ele>39.5513</ele>
        <time>2014-06-15T12:19:04Z</time>
      </trkpt>
      <trkpt lat="59.9370467" lon="17.647891">
        <ele>39.5513</ele>
        <time>2014-06-15T12:19:05Z</time>
      </trkpt>
      <trkpt lat="59.9369845" lon="17.6478212">
        <ele>39.5513</ele>
        <time>2014-06-15T12:19:06Z</time>
      </trkpt>
      <trkpt lat="59.9369229" lon="17.6477497">
        <ele>39.5513</ele>
        <time>2014-06-15T12:19:07Z</time>
      </trkpt>
      <trkpt lat="59.9368618" lon="17.6476765">
        <ele>39.5513</ele>
        <time>2014-06-15T12:19:08Z</time>
      </trkpt>
      <trkpt lat="59.9367948" lon="17.6475982">
        <ele>40.0321</ele>
        <time>2014-06-15T12:19:09Z</time>
      </trkpt>
      <trkpt lat="59.9367321" lon="17.647526">
        <ele>40.0321</ele>
        <time>2014-06-15T12:19:10Z</time>
      </trkpt>
      <trkpt lat="59.9366732" lon="17.6474541">
        <ele>40.0321</ele>
        <time>2014-06-15T12:19:11Z</time>
      </trkpt>
      <trkpt lat="59.9366151" lon="17.6473799">
        <ele>40.0321</ele>
        <time>2014-06-15T12:19:12Z</time>
      </trkpt>
      <trkpt lat="59.9365566" lon="17.6473018">
        <ele>39.5513</ele>
        <time>2014-06-15T12:19:13Z</time>
      </trkpt>
      <trkpt lat="59.9364984" lon="17.64722">
        <ele>39.5513</ele>
        <time>2014-06-15T12:19:14Z</time>
      </trkpt>
      <trkpt lat="59.9364402" lon="17.6471382">
        <ele>40.0321</ele>
        <time>2014-06-15T12:19:15Z</time>
      </trkpt>
      <trkpt lat="59.9363825" lon="17.647059">
        <ele>40.0321</ele>
        <time>2014-06-15T12:19:16Z</time>
      </trkpt>
      <trkpt lat="59.9363264" lon="17.6469838">
        <ele>40.0321</ele>
        <time>2014-06-15T12:19:17Z</time>
      </trkpt>
      <trkpt lat="59.9362717" lon="17.646913">
        <ele>40.5128</ele>
        <time>2014-06-15T12:19:18Z</time>
      </trkpt>
      <trkpt lat="59.936218" lon="17.6468439">
        <ele>40.5128</ele>
        <time>2014-06-15T12:19:19Z</time>
      </trkpt>
      <trkpt lat="59.9361645" lon="17.6467734">
        <ele>40.5128</ele>
        <time>2014-06-15T12:19:20Z</time>
      </trkpt>
      <trkpt lat="59.9361105" lon="17.6467024">
        <ele>40.5128</ele>
        <time>2014-06-15T12:19:21Z</time>
      </trkpt>
      <trkpt lat="59.9360557" lon="17.6466316">
        <ele>40.5128</ele>
        <time>2014-06-15T12:19:22Z</time>
      </trkpt>
      <trkpt lat="59.9360001" lon="17.6465646">
        <ele>40.5128</ele>
        <time>2014-06-15T12:19:23Z</time>
      </trkpt>
      <trkpt lat="59.9359428" lon="17.646503">
        <ele>40.9934</ele>
        <time>2014-06-15T12:19:24Z</time>
      </trkpt>
      <trkpt lat="59.9358849" lon="17.6464398">
        <ele>40.9934</ele>
        <time>2014-06-15T12:19:25Z</time>
      </trkpt>
      <trkpt lat="59.9358278" lon="17.646371">
        <ele>40.9934</ele>
        <time>2014-06-15T12:19:26Z</time>
      </trkpt>
      <trkpt lat="59.9357701" lon="17.6462996">
        <ele>40.9934</ele>
        <time>2014-06-15T12:19:27Z</time>
      </trkpt>
      <trkpt lat="59.9357103" lon="17.6462253">
        <ele>40.5128</ele>
        <time>2014-06-15T12:19:28Z</time>
      </trkpt>
      <trkpt lat="59.9356499" lon="17.6461462">
        <ele>40.5128</ele>
        <time>2014-06-15T12:19:29Z</time>
      </trkpt>
      <trkpt lat="59.9355894" lon="17.6460644">
        <ele>40.5128</ele>
        <time>2014-06-15T12:19:30Z</time>
      </trkpt>
      <trkpt lat="59.9355274" lon="17.6459847">
        <ele>40.5128</ele>
        <time>2014-06-15T12:19:31Z</time>
      </trkpt>
      <trkpt lat="59.9354625" lon="17.6459114">
        <ele>40.0321</ele>
        <time>2014-06-15T12:19:32Z</time>
      </trkpt>
      <trkpt lat="59.9353958" lon="17.6458421">
        <ele>40.0321</ele>
        <time>2014-06-15T12:19:33Z</time>
      </trkpt>
      <trkpt lat="59.9353295" lon="17.6457731">
        <ele>40.0321</ele>
        <time>2014-06-15T12:19:34Z</time>
      </trkpt>
      <trkpt lat="59.935265" lon="17.6456992">
        <ele>40.0321</ele>
        <time>2014-06-15T12:19:35Z</time>
      </trkpt>
      <trkpt lat="59.935202" lon="17.6456183">
        <ele>40.0321</ele>
        <time>2014-06-15T12:19:36Z</time>
      </trkpt>
      <trkpt lat="59.9351388" lon="17.6455352">
        <ele>40.0321</ele>
        <time>2014-06-15T12:19:37Z</time>
      </trkpt>
      <trkpt lat="59.9350741" lon="17.6454567">
        <ele>40.0321</ele>
        <time>2014-06-15T12:19:38Z</time>
      </trkpt>
      <trkpt lat="59.9350073" lon="17.6453878">
        <ele>40.0321</ele>
        <time>2014-06-15T12:19:39Z</time>
      </trkpt>
      <trkpt lat="59.9349404" lon="17.64532">
        <ele>40.0321</ele>
        <time>2014-06-15T12:19:40Z</time>
      </trkpt>
      <trkpt lat="59.9348743" lon="17.6452481">
        <ele>39.5513</ele>
        <time>2014-06-15T12:19:41Z</time>
      </trkpt>
      <trkpt lat="59.93481" lon="17.6451714">
        <ele>39.5513</ele>
        <time>2014-06-15T12:19:42Z</time>
      </trkpt>
      <trkpt lat="59.9347462" lon="17.645092">
        <ele>39.5513</ele>
        <time>2014-06-15T12:19:43Z</time>
      </trkpt>
      <trkpt lat="59.9346814" lon="17.6450133">
        <ele>39.5513</ele>
        <time>2014-06-15T12:19:44Z</time>
      </trkpt>
      <trkpt lat="59.9346166" lon="17.6449338">
        <ele>39.5513</ele>
        <time>2014-06-15T12:19:45Z</time>
      </trkpt>
      <trkpt lat="59.9345513" lon="17.6448538">
        <ele>39.5513</ele>
        <time>2014-06-15T12:19:46Z</time>
      </trkpt>
      <trkpt lat="59.9344873" lon="17.6447722">
        <ele>39.0707</ele>
        <time>2014-06-15T12:19:47Z</time>
      </trkpt>
      <trkpt lat="59.9344267" lon="17.6446818">
        <ele>39.0707</ele>
        <time>2014-06-15T12:19:48Z</time>
      </trkpt>
      <trkpt lat="59.9343676" lon="17.6445823">
        <ele>38.5901</ele>
        <time>2014-06-15T12:19:49Z</time>
      </trkpt>
      <trkpt lat="59.9343046" lon="17.6444787">
        <ele>38.1094</ele>
        <time>2014-06-15T12:19:50Z</time>
      </trkpt>
      <trkpt lat="59.9342366" lon="17.6443775">
        <ele>38.1094</ele>
        <time>2014-06-15T12:19:51Z</time>
      </trkpt>
      <trkpt lat="59.9341655" lon="17.6442807">
        <ele>37.6287</ele>
        <time>2014-06-15T12:19:52Z</time>
      </trkpt>
      <trkpt lat="59.934093" lon="17.6441871">
        <ele>37.6287</ele>
        <time>2014-06-15T12:19:53Z</time>
      </trkpt>
      <trkpt lat="59.934021" lon="17.6440947">
        <ele>37.1481</ele>
        <time>2014-06-15T12:19:54Z</time>
      </trkpt>
      <trkpt lat="59.9339498" lon="17.644002">
        <ele>37.1481</ele>
        <time>2014-06-15T12:19:55Z</time>
      </trkpt>
      <trkpt lat="59.9338781" lon="17.6439145">
        <ele>36.6675</ele>
        <time>2014-06-15T12:19:56Z</time>
      </trkpt>
      <trkpt lat="59.9338045" lon="17.6438365">
        <ele>36.6675</ele>
        <time>2014-06-15T12:19:57Z</time>
      </trkpt>
      <trkpt lat="59.9337289" lon="17.6437657">
        <ele>36.6675</ele>
        <time>2014-06-15T12:19:58Z</time>
      </trkpt>
      <trkpt lat="59.9336523" lon="17.643694">
        <ele>36.1868</ele>
        <time>2014-06-15T12:19:59Z</time>
      </trkpt>
      <trkpt lat="59.9335759" lon="17.6436152">
        <ele>35.7061</ele>
        <time>2014-06-15T12:20:00Z</time>
      </trkpt>
      <trkpt lat="59.9334995" lon="17.6435275">
        <ele>35.7061</ele>
        <time>2014-06-15T12:20:01Z</time>
      </trkpt>
      <trkpt lat="59.9334227" lon="17.6434343">
        <ele>35.2255</ele>
        <time>2014-06-15T12:20:02Z</time>
      </trkpt>
      <trkpt lat="59.9333455" lon="17.6433327">
        <ele>34.7449</ele>
        <time>2014-06-15T12:20:03Z</time>
      </trkpt>
      <trkpt lat="59.9332687" lon="17.6432163">
        <ele>34.2642</ele>
        <time>2014-06-15T12:20:04Z</time>
      </trkpt>
      <trkpt lat="59.9331937" lon="17.6430885">
        <ele>33.3029</ele>
        <time>2014-06-15T12:20:05Z</time>
      </trkpt>
      <trkpt lat="59.9331145" lon="17.6429615">
        <ele>32.3416</ele>
        <time>2014-06-15T12:20:06Z</time>
      </trkpt>
      <trkpt lat="59.93303" lon="17.6428437">
        <ele>31.8607</ele>
        <time>2014-06-15T12:20:07Z</time>
      </trkpt>
      <trkpt lat="59.932943" lon="17.642731">
        <ele>31.3801</ele>
        <time>2014-06-15T12:20:08Z</time>
      </trkpt>
      <trkpt lat="59.9328586" lon="17.6426142">
        <ele>30.8995</ele>
        <time>2014-06-15T12:20:09Z</time>
      </trkpt>
      <trkpt lat="59.9327801" lon="17.6424863">
        <ele>30.8995</ele>
        <time>2014-06-15T12:20:10Z</time>
      </trkpt>
      <trkpt lat="59.9327063" lon="17.6423529">
        <ele>30.4188</ele>
        <time>2014-06-15T12:20:11Z</time>
      </trkpt>
      <trkpt lat="59.9326305" lon="17.6422291">
        <ele>30.4188</ele>
        <time>2014-06-15T12:20:12Z</time>
      </trkpt>
      <trkpt lat="59.9325483" lon="17.6421244">
        <ele>29.9381</ele>
        <time>2014-06-15T12:20:13Z</time>
      </trkpt>
      <trkpt lat="59.9324624" lon="17.6420322">
        <ele>29.9381</ele>
        <time>2014-06-15T12:20:14Z</time>
      </trkpt>
      <trkpt lat="59.9323748" lon="17.6419468">
        <ele>29.9381</ele>
        <time>2014-06-15T12:20:15Z</time>
      </trkpt>
      <trkpt lat="59.9322865" lon="17.6418679">
        <ele>29.9381</ele>
        <time>2014-06-15T12:20:16Z</time>
      </trkpt>
      <trkpt lat="59.9321989" lon="17.6417917">
        <ele>29.9381</ele>
        <time>2014-06-15T12:20:17Z</time>
      </trkpt>
      <trkpt lat="59.9321142" lon="17.6417113">
        <ele>29.9381</ele>
        <time>2014-06-15T12:20:18Z</time>
      </trkpt>
      <trkpt lat="59.9320333" lon="17.6416279">
        <ele>30.4188</ele>
        <time>2014-06-15T12:20:19Z</time>
      </trkpt>
      <trkpt lat="59.9319532" lon="17.6415536">
        <ele>30.4188</ele>
        <time>2014-06-15T12:20:20Z</time>
      </trkpt>
      <trkpt lat="59.9318692" lon="17.641495">
        <ele>29.9381</ele>
        <time>2014-06-15T12:20:21Z</time>
      </trkpt>
      <trkpt lat="59.9317817" lon="17.6414421">
        <ele>29.9381</ele>
        <time>2014-06-15T12:20:22Z</time>
      </trkpt>
      <trkpt lat="59.9316941" lon="17.6413868">
        <ele>29.4575</ele>
        <time>2014-06-15T12:20:23Z</time>
      </trkpt>
      <trkpt lat="59.9316076" lon="17.6413283">
        <ele>29.4575</ele>
        <time>2014-06-15T12:20:24Z</time>
      </trkpt>
      <trkpt lat="59.9315226" lon="17.6412669">
        <ele>29.4575</ele>
        <time>2014-06-15T12:20:25Z</time>
      </trkpt>
      <trkpt lat="59.9314385" lon="17.6412047">
        <ele>29.4575</ele>
        <time>2014-06-15T12:20:26Z</time>
      </trkpt>
      <trkpt lat="59.9313553" lon="17.6411427">
        <ele>29.4575</ele>
        <time>2014-06-15T12:20:27Z</time>
      </trkpt>
      <trkpt lat="59.931272" lon="17.6410804">
        <ele>28.9769</ele>
        <time>2014-06-15T12:20:28Z</time>
      </trkpt>
      <trkpt lat="59.9311855" lon="17.6410161">
        <ele>28.4962</ele>
        <time>2014-06-15T12:20:29Z</time>
      </trkpt>
      <trkpt lat="59.9310943" lon="17.6409493">
        <ele>28.0155</ele>
        <time>2014-06-15T12:20:30Z</time>
      </trkpt>
      <trkpt lat="59.9309997" lon="17.6408828">
        <ele>27.5349</ele>
        <time>2014-06-15T12:20:31Z</time>
      </trkpt>
      <trkpt lat="59.9309031" lon="17.6408255">
        <ele>27.0543</ele>
        <time>2014-06-15T12:20:32Z</time>
      </trkpt>
      <trkpt lat="59.9308053" lon="17.6407874">
        <ele>27.0543</ele>
        <time>2014-06-15T12:20:33Z</time>
      </trkpt>
      <trkpt lat="59.9307081" lon="17.6407734">
        <ele>27.0543</ele>
        <time>2014-06-15T12:20:34Z</time>
      </trkpt>
      <trkpt lat="59.9306123" lon="17.6407801">
        <ele>27.0543</ele>
        <time>2014-06-15T12:20:35Z</time>
      </trkpt>
      <trkpt lat="59.9305161" lon="17.6407977">
        <ele>27.0543</ele>
        <time>2014-06-15T12:20:36Z</time>
      </trkpt>
      <trkpt lat="59.9304183" lon="17.6408106">
        <ele>26.5736</ele>
        <time>2014-06-15T12:20:37Z</time>
      </trkpt>
      <trkpt lat="59.9303192" lon="17.6408105">
        <ele>26.5736</ele>
        <time>2014-06-15T12:20:38Z</time>
      </trkpt>
      <trkpt lat="59.9302198" lon="17.6408044">
        <ele>26.0929</ele>
        <time>2014-06-15T12:20:39Z</time>
      </trkpt>
      <trkpt lat="59.9301204" lon="17.6407999">
        <ele>26.0929</ele>
        <time>2014-06-15T12:20:40Z</time>
      </trkpt>
      <trkpt lat="59.930021" lon="17.6407991">
        <ele>26.0929</ele>
        <time>2014-06-15T12:20:41Z</time>
      </trkpt>
      <trkpt lat="59.929922" lon="17.6407993">
        <ele>26.0929</ele>
        <time>2014-06-15T12:20:42Z</time>
      </trkpt>
      <trkpt lat="59.9298235" lon="17.640801">
        <ele>26.0929</ele>
        <time>2014-06-15T12:20:43Z</time>
      </trkpt>
      <trkpt lat="59.9297275" lon="17.6408103">
        <ele>26.0929</ele>
        <time>2014-06-15T12:20:44Z</time>
      </trkpt>
      <trkpt lat="59.9296327" lon="17.6408283">
        <ele>26.0929</ele>
        <time>2014-06-15T12:20:45Z</time>
      </trkpt>
      <trkpt lat="59.9295372" lon="17.6408511">
        <ele>26.0929</ele>
        <time>2014-06-15T12:20:46Z</time>
      </trkpt>
      <trkpt lat="59.9294418" lon="17.6408737">
        <ele>26.0929</ele>
        <time>2014-06-15T12:20:47Z</time>
      </trkpt>
      <trkpt lat="59.9293469" lon="17.6408905">
        <ele>26.0929</ele>
        <time>2014-06-15T12:20:48Z</time>
      </trkpt>
      <trkpt lat="59.9292536" lon="17.6409006">
        <ele>26.0929</ele>
        <time>2014-06-15T12:20:49Z</time>
      </trkpt>
      <trkpt lat="59.9291626" lon="17.6409059">
        <ele>25.6123</ele>
        <time>2014-06-15T12:20:50Z</time>
      </trkpt>
      <trkpt lat="59.9290736" lon="17.6409086">
        <ele>25.6123</ele>
        <time>2014-06-15T12:20:51Z</time>
      </trkpt>
      <trkpt lat="59.928986" lon="17.6409132">
        <ele>26.0929</ele>
        <time>2014-06-15T12:20:52Z</time>
      </trkpt>
      <trkpt lat="59.9288993" lon="17.6409211">
        <ele>26.0929</ele>
        <time>2014-06-15T12:20:53Z</time>
      </trkpt>
      <trkpt lat="59.928813" lon="17.6409341">
        <ele>26.0929</ele>
        <time>2014-06-15T12:20:54Z</time>
      </trkpt>
      <trkpt lat="59.9287279" lon="17.6409543">
        <ele>26.0929</ele>
        <time>2014-06-15T12:20:55Z</time>
      </trkpt>
      <trkpt lat="59.9286435" lon="17.6409764">
        <ele>26.0929</ele>
        <time>2014-06-15T12:20:56Z</time>
      </trkpt>
      <trkpt lat="59.9285596" lon="17.6409977">
        <ele>26.0929</ele>
        <time>2014-06-15T12:20:57Z</time>
      </trkpt>
      <trkpt lat="59.9284757" lon="17.6410148">
        <ele>26.0929</ele>
        <time>2014-06-15T12:20:58Z</time>
      </trkpt>
      <trkpt lat="59.9283907" lon="17.6410257">
        <ele>26.0929</ele>
        <time>2014-06-15T12:20:59Z</time>
      </trkpt>
      <trkpt lat="59.9283048" lon="17.6410354">
        <ele>26.0929</ele>
        <time>2014-06-15T12:21:00Z</time>
      </trkpt>
      <trkpt lat="59.9282188" lon="17.6410463">
        <ele>26.0929</ele>
        <time>2014-06-15T12:21:01Z</time>
      </trkpt>
      <trkpt lat="59.9281327" lon="17.6410582">
        <ele>26.0929</ele>
        <time>2014-06-15T12:21:02Z</time>
      </trkpt>
      <trkpt lat="59.9280463" lon="17.6410697">
        <ele>26.0929</ele>
        <time>2014-06-15T12:21:03Z</time>
      </trkpt>
      <trkpt lat="59.927959" lon="17.64108">
        <ele>26.0929</ele>
        <time>2014-06-15T12:21:04Z</time>
      </trkpt>
      <trkpt lat="59.9278712" lon="17.6410887">
        <ele>26.0929</ele>
        <time>2014-06-15T12:21:05Z</time>
      </trkpt>
      <trkpt lat="59.9277834" lon="17.6410969">
        <ele>26.0929</ele>
        <time>2014-06-15T12:21:06Z</time>
      </trkpt>
      <trkpt lat="59.9276957" lon="17.641107">
        <ele>26.0929</ele>
        <time>2014-06-15T12:21:07Z</time>
      </trkpt>
      <trkpt lat="59.9276085" lon="17.6411178">
        <ele>26.0929</ele>
        <time>2014-06-15T12:21:08Z</time>
      </trkpt>
      <trkpt lat="59.9275215" lon="17.6411277">
        <ele>26.0929</ele>
        <time>2014-06-15T12:21:09Z</time>
      </trkpt>
      <trkpt lat="59.927435" lon="17.6411363">
        <ele>26.0929</ele>
        <time>2014-06-15T12:21:10Z</time>
      </trkpt>
      <trkpt lat="59.9273491" lon="17.6411444">
        <ele>26.0929</ele>
        <time>2014-06-15T12:21:11Z</time>
      </trkpt>
      <trkpt lat="59.9272637" lon="17.6411525">
        <ele>26.0929</ele>
        <time>2014-06-15T12:21:12Z</time>
      </trkpt>
      <trkpt lat="59.9271789" lon="17.6411598">
        <ele>26.0929</ele>
        <time>2014-06-15T12:21:13Z</time>
      </trkpt>
      <trkpt lat="59.9270942" lon="17.6411666">
        <ele>26.0929</ele>
        <time>2014-06-15T12:21:14Z</time>
      </trkpt>
      <trkpt lat="59.9270097" lon="17.6411743">
        <ele>26.0929</ele>
        <time>2014-06-15T12:21:15Z</time>
      </trkpt>
      <trkpt lat="59.9269258" lon="17.6411842">
        <ele>26.0929</ele>
        <time>2014-06-15T12:21:16Z</time>
      </trkpt>
      <trkpt lat="59.9268422" lon="17.6411956">
        <ele>26.0929</ele>
        <time>2014-06-15T12:21:17Z</time>
      </trkpt>
      <trkpt lat="59.9267588" lon="17.6412064">
        <ele>26.0929</ele>
        <time>2014-06-15T12:21:18Z</time>
      </trkpt>
      <trkpt lat="59.9266757" lon="17.6412153">
        <ele>26.0929</ele>
        <time>2014-06-15T12:21:19Z</time>
      </trkpt>
      <trkpt lat="59.926593" lon="17.6412235">
        <ele>26.0929</ele>
        <time>2014-06-15T12:21:20Z</time>
      </trkpt>
      <trkpt lat="59.9265098" lon="17.6412321">
        <ele>26.0929</ele>
        <time>2014-06-15T12:21:21Z</time>
      </trkpt>
      <trkpt lat="59.9264265" lon="17.641242">
        <ele>26.0929</ele>
        <time>2014-06-15T12:21:22Z</time>
      </trkpt>
      <trkpt lat="59.9263431" lon="17.6412515">
        <ele>26.0929</ele>
        <time>2014-06-15T12:21:23Z</time>
      </trkpt>
      <trkpt lat="59.92626" lon="17.641262">
        <ele>26.5736</ele>
        <time>2014-06-15T12:21:24Z</time>
      </trkpt>
      <trkpt lat="59.9261773" lon="17.6412744">
        <ele>26.5736</ele>
        <time>2014-06-15T12:21:25Z</time>
      </trkpt>
      <trkpt lat="59.9260954" lon="17.6412862">
        <ele>26.5736</ele>
        <time>2014-06-15T12:21:26Z</time>
      </trkpt>
      <trkpt lat="59.9260139" lon="17.6412971">
        <ele>26.5736</ele>
        <time>2014-06-15T12:21:27Z</time>
      </trkpt>
      <trkpt lat="59.9259332" lon="17.641308">
        <ele>26.5736</ele>
        <time>2014-06-15T12:21:28Z</time>
      </trkpt>
      <trkpt lat="59.925853" lon="17.6413199">
        <ele>27.0543</ele>
        <time>2014-06-15T12:21:29Z</time>
      </trkpt>
      <trkpt lat="59.9257732" lon="17.6413334">
        <ele>27.0543</ele>
        <time>2014-06-15T12:21:30Z</time>
      </trkpt>
      <trkpt lat="59.9256932" lon="17.6413472">
        <ele>27.0543</ele>
        <time>2014-06-15T12:21:31Z</time>
      </trkpt>
      <trkpt lat="59.9256132" lon="17.6413596">
        <ele>27.0543</ele>
        <time>2014-06-15T12:21:32Z</time>
      </trkpt>
      <trkpt lat="59.925533" lon="17.6413707">
        <ele>27.0543</ele>
        <time>2014-06-15T12:21:33Z</time>
      </trkpt>
      <trkpt lat="59.9254531" lon="17.6413801">
        <ele>27.5349</ele>
        <time>2014-06-15T12:21:34Z</time>
      </trkpt>
      <trkpt lat="59.9253738" lon="17.6413894">
        <ele>27.5349</ele>
        <time>2014-06-15T12:21:35Z</time>
      </trkpt>
      <trkpt lat="59.9252956" lon="17.6413975">
        <ele>27.5349</ele>
        <time>2014-06-15T12:21:36Z</time>
      </trkpt>
      <trkpt lat="59.9252187" lon="17.6414015">
        <ele>27.5349</ele>
        <time>2014-06-15T12:21:37Z</time>
      </trkpt>
      <trkpt lat="59.9251422" lon="17.6414029">
        <ele>28.0155</ele>
        <time>2014-06-15T12:21:38Z</time>
      </trkpt>
      <trkpt lat="59.9250659" lon="17.6414018">
        <ele>28.0155</ele>
        <time>2014-06-15T12:21:39Z</time>
      </trkpt>
      <trkpt lat="59.9249898" lon="17.641402">
        <ele>28.0155</ele>
        <time>2014-06-15T12:21:40Z</time>
      </trkpt>
      <trkpt lat="59.9249142" lon="17.6414055">
        <ele>28.0155</ele>
        <time>2014-06-15T12:21:41Z</time>
      </trkpt>
      <trkpt lat="59.9248388" lon="17.641412">
        <ele>28.0155</ele>
        <time>2014-06-15T12:21:42Z</time>
      </trkpt>
      <trkpt lat="59.9247637" lon="17.6414234">
        <ele>28.0155</ele>
        <time>2014-06-15T12:21:43Z</time>
      </trkpt>
      <trkpt lat="59.9246884" lon="17.6414393">
        <ele>28.4962</ele>
        <time>2014-06-15T12:21:44Z</time>
      </trkpt>
      <trkpt lat="59.9246127" lon="17.641459">
        <ele>28.4962</ele>
        <time>2014-06-15T12:21:45Z</time>
      </trkpt>
      <trkpt lat="59.9245362" lon="17.6414789">
        <ele>28.4962</ele>
        <time>2014-06-15T12:21:46Z</time>
      </trkpt>
      <trkpt lat="59.9244594" lon="17.6414942">
        <ele>28.4962</ele>
        <time>2014-06-15T12:21:47Z</time>
      </trkpt>
      <trkpt lat="59.9243822" lon="17.6415049">
        <ele>28.4962</ele>
        <time>2014-06-15T12:21:48Z</time>
      </trkpt>
      <trkpt lat="59.9243046" lon="17.6415146">
        <ele>28.4962</ele>
        <time>2014-06-15T12:21:49Z</time>
      </trkpt>
      <trkpt lat="59.9242266" lon="17.6415223">
        <ele>28.4962</ele>
        <time>2014-06-15T12:21:50Z</time>
      </trkpt>
      <trkpt lat="59.9241485" lon="17.6415265">
        <ele>28.4962</ele>
        <time>2014-06-15T12:21:51Z</time>
      </trkpt>
      <trkpt lat="59.92407" lon="17.6415296">
        <ele>28.4962</ele>
        <time>2014-06-15T12:21:52Z</time>
      </trkpt>
      <trkpt lat="59.9239917" lon="17.6415348">
        <ele>28.4962</ele>
        <time>2014-06-15T12:21:53Z</time>
      </trkpt>
      <trkpt lat="59.9239136" lon="17.6415436">
        <ele>28.4962</ele>
        <time>2014-06-15T12:21:54Z</time>
      </trkpt>
      <trkpt lat="59.9238353" lon="17.6415535">
        <ele>28.9769</ele>
        <time>2014-06-15T12:21:55Z</time>
      </trkpt>
      <trkpt lat="59.9237567" lon="17.6415639">
        <ele>28.9769</ele>
        <time>2014-06-15T12:21:56Z</time>
      </trkpt>
      <trkpt lat="59.9236784" lon="17.6415748">
        <ele>28.9769</ele>
        <time>2014-06-15T12:21:57Z</time>
      </trkpt>
      <trkpt lat="59.9236011" lon="17.6415866">
        <ele>29.4575</ele>
        <time>2014-06-15T12:21:58Z</time>
      </trkpt>
      <trkpt lat="59.9235254" lon="17.6415985">
        <ele>29.4575</ele>
        <time>2014-06-15T12:21:59Z</time>
      </trkpt>
      <trkpt lat="59.9234515" lon="17.6416095">
        <ele>29.9381</ele>
        <time>2014-06-15T12:22:00Z</time>
      </trkpt>
      <trkpt lat="59.923379" lon="17.6416208">
        <ele>29.9381</ele>
        <time>2014-06-15T12:22:01Z</time>
      </trkpt>
      <trkpt lat="59.9233076" lon="17.6416312">
        <ele>29.9381</ele>
        <time>2014-06-15T12:22:02Z</time>
      </trkpt>
      <trkpt lat="59.9232374" lon="17.641641">
        <ele>30.4188</ele>
        <time>2014-06-15T12:22:03Z</time>
      </trkpt>
      <trkpt lat="59.9231677" lon="17.6416519">
        <ele>30.4188</ele>
        <time>2014-06-15T12:22:04Z</time>
      </trkpt>
      <trkpt lat="59.9230982" lon="17.6416633">
        <ele>30.4188</ele>
        <time>2014-06-15T12:22:05Z</time>
      </trkpt>
      <trkpt lat="59.9230288" lon="17.6416726">
        <ele>30.8995</ele>
        <time>2014-06-15T12:22:06Z</time>
      </trkpt>
      <trkpt lat="59.9229594" lon="17.6416793">
        <ele>30.8995</ele>
        <time>2014-06-15T12:22:07Z</time>
      </trkpt>
      <trkpt lat="59.92289" lon="17.6416854">
        <ele>30.8995</ele>
        <time>2014-06-15T12:22:08Z</time>
      </trkpt>
      <trkpt lat="59.9228211" lon="17.6416918">
        <ele>31.3801</ele>
        <time>2014-06-15T12:22:09Z</time>
      </trkpt>
      <trkpt lat="59.9227526" lon="17.6416991">
        <ele>31.3801</ele>
        <time>2014-06-15T12:22:10Z</time>
      </trkpt>
      <trkpt lat="59.9226853" lon="17.6417074">
        <ele>31.3801</ele>
        <time>2014-06-15T12:22:11Z</time>
      </trkpt>
      <trkpt lat="59.9226191" lon="17.6417166">
        <ele>31.8607</ele>
        <time>2014-06-15T12:22:12Z</time>
      </trkpt>
      <trkpt lat="59.9225533" lon="17.641724">
        <ele>31.8607</ele>
        <time>2014-06-15T12:22:13Z</time>
      </trkpt>
      <trkpt lat="59.9224874" lon="17.6417313">
        <ele>31.8607</ele>
        <time>2014-06-15T12:22:14Z</time>
      </trkpt>
      <trkpt lat="59.9224215" lon="17.6417419">
        <ele>31.8607</ele>
        <time>2014-06-15T12:22:15Z</time>
      </trkpt>
      <trkpt lat="59.922354" lon="17.641754">
        <ele>31.8607</ele>
        <time>2014-06-15T12:22:16Z</time>
      </trkpt>
      <trkpt lat="59.9222859" lon="17.6417643">
        <ele>31.8607</ele>
        <time>2014-06-15T12:22:17Z</time>
      </trkpt>
      <trkpt lat="59.9222172" lon="17.6417725">
        <ele>31.8607</ele>
        <time>2014-06-15T12:22:18Z</time>
      </trkpt>
      <trkpt lat="59.9221478" lon="17.6417794">
        <ele>31.8607</ele>
        <time>2014-06-15T12:22:19Z</time>
      </trkpt>
      <trkpt lat="59.9220778" lon="17.6417856">
        <ele>32.3416</ele>
        <time>2014-06-15T12:22:20Z</time>
      </trkpt>
      <trkpt lat="59.9220072" lon="17.6417918">
        <ele>32.3416</ele>
        <time>2014-06-15T12:22:21Z</time>
      </trkpt>
      <trkpt lat="59.9219362" lon="17.6417989">
        <ele>32.3416</ele>
        <time>2014-06-15T12:22:22Z</time>
      </trkpt>
      <trkpt lat="59.9218652" lon="17.6418076">
        <ele>32.3416</ele>
        <time>2014-06-15T12:22:23Z</time>
      </trkpt>
      <trkpt lat="59.9217943" lon="17.6418194">
        <ele>32.3416</ele>
        <time>2014-06-15T12:22:24Z</time>
      </trkpt>
      <trkpt lat="59.921723" lon="17.6418321">
        <ele>32.3416</ele>
        <time>2014-06-15T12:22:25Z</time>
      </trkpt>
      <trkpt lat="59.921652" lon="17.641844">
        <ele>32.3416</ele>
        <time>2014-06-15T12:22:26Z</time>
      </trkpt>
      <trkpt lat="59.9215825" lon="17.6418553">
        <ele>32.3416</ele>
        <time>2014-06-15T12:22:27Z</time>
      </trkpt>
      <trkpt lat="59.921514" lon="17.6418644">
        <ele>32.3416</ele>
        <time>2014-06-15T12:22:28Z</time>
      </trkpt>
      <trkpt lat="59.9214454" lon="17.6418716">
        <ele>32.3416</ele>
        <time>2014-06-15T12:22:29Z</time>
      </trkpt>
      <trkpt lat="59.9213753" lon="17.6418782">
        <ele>31.8607</ele>
        <time>2014-06-15T12:22:30Z</time>
      </trkpt>
      <trkpt lat="59.9213029" lon="17.6418848">
        <ele>31.8607</ele>
        <time>2014-06-15T12:22:31Z</time>
      </trkpt>
      <trkpt lat="59.9212288" lon="17.6418916">
        <ele>31.3801</ele>
        <time>2014-06-15T12:22:32Z</time>
      </trkpt>
      <trkpt lat="59.9211525" lon="17.6418976">
        <ele>30.8995</ele>
        <time>2014-06-15T12:22:33Z</time>
      </trkpt>
      <trkpt lat="59.9210743" lon="17.6419032">
        <ele>30.8995</ele>
        <time>2014-06-15T12:22:34Z</time>
      </trkpt>
      <trkpt lat="59.9209964" lon="17.6419072">
        <ele>30.8995</ele>
        <time>2014-06-15T12:22:35Z</time>
      </trkpt>
      <trkpt lat="59.9209193" lon="17.6419055">
        <ele>30.8995</ele>
        <time>2014-06-15T12:22:36Z</time>
      </trkpt>
      <trkpt lat="59.9208424" lon="17.6418962">
        <ele>30.8995</ele>
        <time>2014-06-15T12:22:37Z</time>
      </trkpt>
      <trkpt lat="59.9207645" lon="17.6418913">
        <ele>30.8995</ele>
        <time>2014-06-15T12:22:38Z</time>
      </trkpt>
      <trkpt lat="59.9206852" lon="17.6418932">
        <ele>30.4188</ele>
        <time>2014-06-15T12:22:39Z</time>
      </trkpt>
      <trkpt lat="59.9206056" lon="17.641897">
        <ele>30.4188</ele>
        <time>2014-06-15T12:22:40Z</time>
      </trkpt>
      <trkpt lat="59.9205262" lon="17.6418999">
        <ele>30.4188</ele>
        <time>2014-06-15T12:22:41Z</time>
      </trkpt>
      <trkpt lat="59.9204476" lon="17.6419021">
        <ele>30.4188</ele>
        <time>2014-06-15T12:22:42Z</time>
      </trkpt>
      <trkpt lat="59.9203702" lon="17.6419066">
        <ele>30.4188</ele>
        <time>2014-06-15T12:22:43Z</time>
      </trkpt>
      <trkpt lat="59.9202931" lon="17.641912">
        <ele>30.8995</ele>
        <time>2014-06-15T12:22:44Z</time>
      </trkpt>
      <trkpt lat="59.9202161" lon="17.6419177">
        <ele>30.8995</ele>
        <time>2014-06-15T12:22:45Z</time>
      </trkpt>
      <trkpt lat="59.9201398" lon="17.6419232">
        <ele>30.8995</ele>
        <time>2014-06-15T12:22:46Z</time>
      </trkpt>
      <trkpt lat="59.9200628" lon="17.6419275">
        <ele>30.8995</ele>
        <time>2014-06-15T12:22:47Z</time>
      </trkpt>
      <trkpt lat="59.9199848" lon="17.641934">
        <ele>30.8995</ele>
        <time>2014-06-15T12:22:48Z</time>
      </trkpt>
      <trkpt lat="59.9199062" lon="17.6419446">
        <ele>30.8995</ele>
        <time>2014-06-15T12:22:49Z</time>
      </trkpt>
      <trkpt lat="59.9198278" lon="17.6419612">
        <ele>30.8995</ele>
        <time>2014-06-15T12:22:50Z</time>
      </trkpt>
      <trkpt lat="59.9197498" lon="17.6419833">
        <ele>30.8995</ele>
        <time>2014-06-15T12:22:51Z</time>
      </trkpt>
      <trkpt lat="59.919672" lon="17.6420055">
        <ele>30.8995</ele>
        <time>2014-06-15T12:22:52Z</time>
      </trkpt>
      <trkpt lat="59.9195939" lon="17.6420222">
        <ele>30.8995</ele>
        <time>2014-06-15T12:22:53Z</time>
      </trkpt>
      <trkpt lat="59.9195162" lon="17.6420332">
        <ele>31.3801</ele>
        <time>2014-06-15T12:22:54Z</time>
      </trkpt>
      <trkpt lat="59.9194388" lon="17.6420426">
        <ele>31.3801</ele>
        <time>2014-06-15T12:22:55Z</time>
      </trkpt>
      <trkpt lat="59.9193617" lon="17.6420527">
        <ele>31.3801</ele>
        <time>2014-06-15T12:22:56Z</time>
      </trkpt>
      <trkpt lat="59.9192851" lon="17.6420616">
        <ele>31.3801</ele>
        <time>2014-06-15T12:22:57Z</time>
      </trkpt>
      <trkpt lat="59.919209" lon="17.6420689">
        <ele>31.3801</ele>
        <time>2014-06-15T12:22:58Z</time>
      </trkpt>
      <trkpt lat="59.9191335" lon="17.6420762">
        <ele>31.3801</ele>
        <time>2014-06-15T12:22:59Z</time>
      </trkpt>
      <trkpt lat="59.9190586" lon="17.642086">
        <ele>31.8607</ele>
        <time>2014-06-15T12:23:00Z</time>
      </trkpt>
      <trkpt lat="59.9189832" lon="17.6420964">
        <ele>31.3801</ele>
        <time>2014-06-15T12:23:01Z</time>
      </trkpt>
      <trkpt lat="59.9189074" lon="17.6421061">
        <ele>31.3801</ele>
        <time>2014-06-15T12:23:02Z</time>
      </trkpt>
      <trkpt lat="59.9188306" lon="17.6421166">
        <ele>31.3801</ele>
        <time>2014-06-15T12:23:03Z</time>
      </trkpt>
      <trkpt lat="59.9187531" lon="17.6421288">
        <ele>31.3801</ele>
        <time>2014-06-15T12:23:04Z</time>
      </trkpt>
      <trkpt lat="59.9186748" lon="17.6421399">
        <ele>31.3801</ele>
        <time>2014-06-15T12:23:05Z</time>
      </trkpt>
      <trkpt lat="59.9185965" lon="17.6421497">
        <ele>31.3801</ele>
        <time>2014-06-15T12:23:06Z</time>
      </trkpt>
      <trkpt lat="59.9185183" lon="17.6421585">
        <ele>31.3801</ele>
        <time>2014-06-15T12:23:07Z</time>
      </trkpt>
      <trkpt lat="59.9184403" lon="17.6421684">
        <ele>31.3801</ele>
        <time>2014-06-15T12:23:08Z</time>
      </trkpt>
      <trkpt lat="59.918363" lon="17.6421793">
        <ele>30.8995</ele>
        <time>2014-06-15T12:23:09Z</time>
      </trkpt>
      <trkpt lat="59.9182852" lon="17.6421877">
        <ele>30.8995</ele>
        <time>2014-06-15T12:23:10Z</time>
      </trkpt>
      <trkpt lat="59.9182066" lon="17.6421952">
        <ele>30.4188</ele>
        <time>2014-06-15T12:23:11Z</time>
      </trkpt>
      <trkpt lat="59.9181269" lon="17.6422031">
        <ele>30.4188</ele>
        <time>2014-06-15T12:23:12Z</time>
      </trkpt>
      <trkpt lat="59.9180459" lon="17.6422102">
        <ele>29.9381</ele>
        <time>2014-06-15T12:23:13Z</time>
      </trkpt>
      <trkpt lat="59.9179625" lon="17.6422176">
        <ele>29.4575</ele>
        <time>2014-06-15T12:23:14Z</time>
      </trkpt>
      <trkpt lat="59.9178766" lon="17.6422267">
        <ele>29.4575</ele>
        <time>2014-06-15T12:23:15Z</time>
      </trkpt>
      <trkpt lat="59.9177894" lon="17.6422347">
        <ele>29.4575</ele>
        <time>2014-06-15T12:23:16Z</time>
      </trkpt>
      <trkpt lat="59.9177015" lon="17.6422403">
        <ele>29.4575</ele>
        <time>2014-06-15T12:23:17Z</time>
      </trkpt>
      <trkpt lat="59.9176131" lon="17.6422419">
        <ele>29.4575</ele>
        <time>2014-06-15T12:23:18Z</time>
      </trkpt>
      <trkpt lat="59.9175244" lon="17.6422414">
        <ele>28.9769</ele>
        <time>2014-06-15T12:23:19Z</time>
      </trkpt>
      <trkpt lat="59.9174353" lon="17.6422436">
        <ele>28.9769</ele>
        <time>2014-06-15T12:23:20Z</time>
      </trkpt>
      <trkpt lat="59.9173458" lon="17.642248">
        <ele>28.9769</ele>
        <time>2014-06-15T12:23:21Z</time>
      </trkpt>
      <trkpt lat="59.9172564" lon="17.6422491">
        <ele>28.9769</ele>
        <time>2014-06-15T12:23:22Z</time>
      </trkpt>
      <trkpt lat="59.9171679" lon="17.6422483">
        <ele>28.9769</ele>
        <time>2014-06-15T12:23:23Z</time>
      </trkpt>
      <trkpt lat="59.9170804" lon="17.6422619">
        <ele>28.9769</ele>
        <time>2014-06-15T12:23:24Z</time>
      </trkpt>
      <trkpt lat="59.9169948" lon="17.6422901">
        <ele>29.4575</ele>
        <time>2014-06-15T12:23:25Z</time>
      </trkpt>
      <trkpt lat="59.9169105" lon="17.642315">
        <ele>29.4575</ele>
        <time>2014-06-15T12:23:26Z</time>
      </trkpt>
      <trkpt lat="59.9168267" lon="17.64233">
        <ele>29.4575</ele>
        <time>2014-06-15T12:23:27Z</time>
      </trkpt>
      <trkpt lat="59.9167442" lon="17.6423414">
        <ele>29.9381</ele>
        <time>2014-06-15T12:23:28Z</time>
      </trkpt>
      <trkpt lat="59.9166631" lon="17.6423532">
        <ele>29.9381</ele>
        <time>2014-06-15T12:23:29Z</time>
      </trkpt>
      <trkpt lat="59.9165841" lon="17.6423647">
        <ele>30.4188</ele>
        <time>2014-06-15T12:23:30Z</time>
      </trkpt>
      <trkpt lat="59.9165065" lon="17.6423766">
        <ele>30.4188</ele>
        <time>2014-06-15T12:23:31Z</time>
      </trkpt>
      <trkpt lat="59.9164299" lon="17.6423891">
        <ele>30.4188</ele>
        <time>2014-06-15T12:23:32Z</time>
      </trkpt>
      <trkpt lat="59.9163536" lon="17.6424025">
        <ele>30.4188</ele>
        <time>2014-06-15T12:23:33Z</time>
      </trkpt>
      <trkpt lat="59.916277" lon="17.6424151">
        <ele>30.4188</ele>
        <time>2014-06-15T12:23:34Z</time>
      </trkpt>
      <trkpt lat="59.9161999" lon="17.6424237">
        <ele>30.4188</ele>
        <time>2014-06-15T12:23:35Z</time>
      </trkpt>
      <trkpt lat="59.9161215" lon="17.6424289">
        <ele>30.4188</ele>
        <time>2014-06-15T12:23:36Z</time>
      </trkpt>
      <trkpt lat="59.9160412" lon="17.6424321">
        <ele>30.4188</ele>
        <time>2014-06-15T12:23:37Z</time>
      </trkpt>
      <trkpt lat="59.915959" lon="17.6424326">
        <ele>30.4188</ele>
        <time>2014-06-15T12:23:38Z</time>
      </trkpt>
      <trkpt lat="59.9158755" lon="17.6424322">
        <ele>29.9381</ele>
        <time>2014-06-15T12:23:39Z</time>
      </trkpt>
      <trkpt lat="59.915791" lon="17.6424341">
        <ele>29.9381</ele>
        <time>2014-06-15T12:23:40Z</time>
      </trkpt>
      <trkpt lat="59.9157052" lon="17.6424384">
        <ele>29.9381</ele>
        <time>2014-06-15T12:23:41Z</time>
      </trkpt>
      <trkpt lat="59.9156187" lon="17.6424469">
        <ele>29.9381</ele>
        <time>2014-06-15T12:23:42Z</time>
      </trkpt>
      <trkpt lat="59.9155317" lon="17.6424601">
        <ele>29.9381</ele>
        <time>2014-06-15T12:23:43Z</time>
      </trkpt>
      <trkpt lat="59.9154441" lon="17.6424781">
        <ele>29.4575</ele>
        <time>2014-06-15T12:23:44Z</time>
      </trkpt>
      <trkpt lat="59.9153567" lon="17.6425025">
        <ele>29.9381</ele>
        <time>2014-06-15T12:23:45Z</time>
      </trkpt>
      <trkpt lat="59.91527" lon="17.6425404">
        <ele>29.9381</ele>
        <time>2014-06-15T12:23:46Z</time>
      </trkpt>
      <trkpt lat="59.9151849" lon="17.6425941">
        <ele>29.9381</ele>
        <time>2014-06-15T12:23:47Z</time>
      </trkpt>
      <trkpt lat="59.9151062" lon="17.6426495">
        <ele>29.9381</ele>
        <time>2014-06-15T12:23:48Z</time>
      </trkpt>
      <trkpt lat="59.9150307" lon="17.6426919">
        <ele>29.9381</ele>
        <time>2014-06-15T12:23:49Z</time>
      </trkpt>
      <trkpt lat="59.9149524" lon="17.6427114">
        <ele>29.9381</ele>
        <time>2014-06-15T12:23:50Z</time>
      </trkpt>
      <trkpt lat="59.9148748" lon="17.6427205">
        <ele>30.4188</ele>
        <time>2014-06-15T12:23:51Z</time>
      </trkpt>
      <trkpt lat="59.9147977" lon="17.642732">
        <ele>30.4188</ele>
        <time>2014-06-15T12:23:52Z</time>
      </trkpt>
      <trkpt lat="59.9147203" lon="17.6427449">
        <ele>30.4188</ele>
        <time>2014-06-15T12:23:53Z</time>
      </trkpt>
      <trkpt lat="59.9146428" lon="17.6427578">
        <ele>30.8995</ele>
        <time>2014-06-15T12:23:54Z</time>
      </trkpt>
      <trkpt lat="59.9145662" lon="17.6427703">
        <ele>30.8995</ele>
        <time>2014-06-15T12:23:55Z</time>
      </trkpt>
      <trkpt lat="59.914491" lon="17.6427833">
        <ele>30.8995</ele>
        <time>2014-06-15T12:23:56Z</time>
      </trkpt>
      <trkpt lat="59.914416" lon="17.6427978">
        <ele>31.3801</ele>
        <time>2014-06-15T12:23:57Z</time>
      </trkpt>
      <trkpt lat="59.9143408" lon="17.6428127">
        <ele>31.3801</ele>
        <time>2014-06-15T12:23:58Z</time>
      </trkpt>
      <trkpt lat="59.9142661" lon="17.642825">
        <ele>31.3801</ele>
        <time>2014-06-15T12:23:59Z</time>
      </trkpt>
      <trkpt lat="59.914192" lon="17.6428408">
        <ele>31.8607</ele>
        <time>2014-06-15T12:24:00Z</time>
      </trkpt>
      <trkpt lat="59.9141191" lon="17.6428587">
        <ele>31.8607</ele>
        <time>2014-06-15T12:24:01Z</time>
      </trkpt>
      <trkpt lat="59.9140466" lon="17.6428737">
        <ele>31.8607</ele>
        <time>2014-06-15T12:24:02Z</time>
      </trkpt>
      <trkpt lat="59.9139734" lon="17.6428851">
        <ele>32.3416</ele>
        <time>2014-06-15T12:24:03Z</time>
      </trkpt>
      <trkpt lat="59.9139007" lon="17.6428957">
        <ele>32.3416</ele>
        <time>2014-06-15T12:24:04Z</time>
      </trkpt>
      <trkpt lat="59.9138275" lon="17.6429071">
        <ele>32.8223</ele>
        <time>2014-06-15T12:24:05Z</time>
      </trkpt>
      <trkpt lat="59.9137543" lon="17.6429189">
        <ele>32.8223</ele>
        <time>2014-06-15T12:24:06Z</time>
      </trkpt>
      <trkpt lat="59.9136818" lon="17.6429284">
        <ele>33.3029</ele>
        <time>2014-06-15T12:24:07Z</time>
      </trkpt>
      <trkpt lat="59.9136092" lon="17.6429407">
        <ele>33.3029</ele>
        <time>2014-06-15T12:24:08Z</time>
      </trkpt>
      <trkpt lat="59.9135361" lon="17.642959">
        <ele>33.3029</ele>
        <time>2014-06-15T12:24:09Z</time>
      </trkpt>
      <trkpt lat="59.9134632" lon="17.6429766">
        <ele>33.3029</ele>
        <time>2014-06-15T12:24:10Z</time>
      </trkpt>
      <trkpt lat="59.9133905" lon="17.6429889">
        <ele>33.3029</ele>
        <time>2014-06-15T12:24:11Z</time>
      </trkpt>
      <trkpt lat="59.9133185" lon="17.643004">
        <ele>33.7834</ele>
        <time>2014-06-15T12:24:12Z</time>
      </trkpt>
      <trkpt lat="59.9132472" lon="17.6430232">
        <ele>33.7834</ele>
        <time>2014-06-15T12:24:13Z</time>
      </trkpt>
      <trkpt lat="59.9131759" lon="17.6430396">
        <ele>33.7834</ele>
        <time>2014-06-15T12:24:14Z</time>
      </trkpt>
      <trkpt lat="59.9131046" lon="17.6430506">
        <ele>33.7834</ele>
        <time>2014-06-15T12:24:15Z</time>
      </trkpt>
      <trkpt lat="59.9130334" lon="17.6430624">
        <ele>33.7834</ele>
        <time>2014-06-15T12:24:16Z</time>
      </trkpt>
      <trkpt lat="59.9129626" lon="17.6430811">
        <ele>33.7834</ele>
        <time>2014-06-15T12:24:17Z</time>
      </trkpt>
      <trkpt lat="59.9128919" lon="17.6430975">
        <ele>33.7834</ele>
        <time>2014-06-15T12:24:18Z</time>
      </trkpt>
      <trkpt lat="59.9128213" lon="17.6431094">
        <ele>34.2642</ele>
        <time>2014-06-15T12:24:19Z</time>
      </trkpt>
      <trkpt lat="59.9127497" lon="17.6431168">
        <ele>34.2642</ele>
        <time>2014-06-15T12:24:20Z</time>
      </trkpt>
      <trkpt lat="59.9126779" lon="17.6431107">
        <ele>33.7834</ele>
        <time>2014-06-15T12:24:21Z</time>
      </trkpt>
      <trkpt lat="59.9125986" lon="17.6430863">
        <ele>33.3029</ele>
        <time>2014-06-15T12:24:22Z</time>
      </trkpt>
      <trkpt lat="59.9125166" lon="17.6430598">
        <ele>33.3029</ele>
        <time>2014-06-15T12:24:23Z</time>
      </trkpt>
      <trkpt lat="59.9124371" lon="17.6430426">
        <ele>33.3029</ele>
        <time>2014-06-15T12:24:24Z</time>
      </trkpt>
      <trkpt lat="59.9123605" lon="17.643041">
        <ele>33.3029</ele>
        <time>2014-06-15T12:24:25Z</time>
      </trkpt>
      <trkpt lat="59.9122815" lon="17.6430537">
        <ele>33.3029</ele>
        <time>2014-06-15T12:24:26Z</time>
      </trkpt>
      <trkpt lat="59.912202" lon="17.6430748">
        <ele>33.3029</ele>
        <time>2014-06-15T12:24:27Z</time>
      </trkpt>
      <trkpt lat="59.9121236" lon="17.6430991">
        <ele>33.3029</ele>
        <time>2014-06-15T12:24:28Z</time>
      </trkpt>
      <trkpt lat="59.9120468" lon="17.643127">
        <ele>33.3029</ele>
        <time>2014-06-15T12:24:29Z</time>
      </trkpt>
      <trkpt lat="59.9119717" lon="17.6431538">
        <ele>33.7834</ele>
        <time>2014-06-15T12:24:30Z</time>
      </trkpt>
      <trkpt lat="59.9118989" lon="17.6431728">
        <ele>33.7834</ele>
        <time>2014-06-15T12:24:31Z</time>
      </trkpt>
      <trkpt lat="59.9118288" lon="17.6431869">
        <ele>34.2642</ele>
        <time>2014-06-15T12:24:32Z</time>
      </trkpt>
      <trkpt lat="59.9117567" lon="17.6432022">
        <ele>34.2642</ele>
        <time>2014-06-15T12:24:33Z</time>
      </trkpt>
      <trkpt lat="59.9116834" lon="17.6432166">
        <ele>34.2642</ele>
        <time>2014-06-15T12:24:34Z</time>
      </trkpt>
      <trkpt lat="59.9116096" lon="17.6432308">
        <ele>34.2642</ele>
        <time>2014-06-15T12:24:35Z</time>
      </trkpt>
      <trkpt lat="59.9115355" lon="17.6432452">
        <ele>34.2642</ele>
        <time>2014-06-15T12:24:36Z</time>
      </trkpt>
      <trkpt lat="59.9114621" lon="17.6432592">
        <ele>34.2642</ele>
        <time>2014-06-15T12:24:37Z</time>
      </trkpt>
      <trkpt lat="59.9113902" lon="17.6432738">
        <ele>34.2642</ele>
        <time>2014-06-15T12:24:38Z</time>
      </trkpt>
      <trkpt lat="59.9113191" lon="17.6432888">
        <ele>34.2642</ele>
        <time>2014-06-15T12:24:39Z</time>
      </trkpt>
      <trkpt lat="59.9112472" lon="17.6433071">
        <ele>34.2642</ele>
        <time>2014-06-15T12:24:40Z</time>
      </trkpt>
      <trkpt lat="59.911175" lon="17.6433285">
        <ele>34.2642</ele>
        <time>2014-06-15T12:24:41Z</time>
      </trkpt>
      <trkpt lat="59.9111021" lon="17.6433464">
        <ele>34.2642</ele>
        <time>2014-06-15T12:24:42Z</time>
      </trkpt>
      <trkpt lat="59.9110291" lon="17.6433596">
        <ele>34.2642</ele>
        <time>2014-06-15T12:24:43Z</time>
      </trkpt>
      <trkpt lat="59.9109571" lon="17.6433721">
        <ele>34.2642</ele>
        <time>2014-06-15T12:24:44Z</time>
      </trkpt>
      <trkpt lat="59.9108854" lon="17.6433837">
        <ele>34.2642</ele>
        <time>2014-06-15T12:24:45Z</time>
      </trkpt>
      <trkpt lat="59.910814" lon="17.6433966">
        <ele>34.2642</ele>
        <time>2014-06-15T12:24:46Z</time>
      </trkpt>
      <trkpt lat="59.910743" lon="17.6434111">
        <ele>34.2642</ele>
        <time>2014-06-15T12:24:47Z</time>
      </trkpt>
      <trkpt lat="59.9106725" lon="17.6434251">
        <ele>34.2642</ele>
        <time>2014-06-15T12:24:48Z</time>
      </trkpt>
      <trkpt lat="59.9106033" lon="17.6434425">
        <ele>34.2642</ele>
        <time>2014-06-15T12:24:49Z</time>
      </trkpt>
      <trkpt lat="59.9105365" lon="17.6434689">
        <ele>34.2642</ele>
        <time>2014-06-15T12:24:50Z</time>
      </trkpt>
      <trkpt lat="59.9104722" lon="17.6435033">
        <ele>34.2642</ele>
        <time>2014-06-15T12:24:51Z</time>
      </trkpt>
      <trkpt lat="59.9104095" lon="17.6435355">
        <ele>34.2642</ele>
        <time>2014-06-15T12:24:52Z</time>
      </trkpt>
      <trkpt lat="59.9103465" lon="17.6435602">
        <ele>34.2642</ele>
        <time>2014-06-15T12:24:53Z</time>
      </trkpt>
      <trkpt lat="59.9102826" lon="17.6435811">
        <ele>34.2642</ele>
        <time>2014-06-15T12:24:54Z</time>
      </trkpt>
      <trkpt lat="59.9102164" lon="17.6436048">
        <ele>34.2642</ele>
        <time>2014-06-15T12:24:55Z</time>
      </trkpt>
      <trkpt lat="59.9101455" lon="17.6436209">
        <ele>34.2642</ele>
        <time>2014-06-15T12:24:56Z</time>
      </trkpt>
      <trkpt lat="59.9100712" lon="17.6436181">
        <ele>34.2642</ele>
        <time>2014-06-15T12:24:57Z</time>
      </trkpt>
      <trkpt lat="59.9099941" lon="17.6435971">
        <ele>33.7834</ele>
        <time>2014-06-15T12:24:58Z</time>
      </trkpt>
      <trkpt lat="59.9099128" lon="17.6435653">
        <ele>33.3029</ele>
        <time>2014-06-15T12:24:59Z</time>
      </trkpt>
      <trkpt lat="59.9098287" lon="17.6435352">
        <ele>33.3029</ele>
        <time>2014-06-15T12:25:00Z</time>
      </trkpt>
      <trkpt lat="59.9097428" lon="17.6435231">
        <ele>33.3029</ele>
        <time>2014-06-15T12:25:01Z</time>
      </trkpt>
      <trkpt lat="59.9096553" lon="17.6435323">
        <ele>32.8223</ele>
        <time>2014-06-15T12:25:02Z</time>
      </trkpt>
      <trkpt lat="59.9095672" lon="17.643551">
        <ele>32.8223</ele>
        <time>2014-06-15T12:25:03Z</time>
      </trkpt>
      <trkpt lat="59.9094787" lon="17.6435706">
        <ele>32.8223</ele>
        <time>2014-06-15T12:25:04Z</time>
      </trkpt>
      <trkpt lat="59.9093906" lon="17.6435899">
        <ele>32.8223</ele>
        <time>2014-06-15T12:25:05Z</time>
      </trkpt>
      <trkpt lat="59.9093031" lon="17.6436073">
        <ele>32.8223</ele>
        <time>2014-06-15T12:25:06Z</time>
      </trkpt>
      <trkpt lat="59.9092155" lon="17.643621">
        <ele>32.8223</ele>
        <time>2014-06-15T12:25:07Z</time>
      </trkpt>
      <trkpt lat="59.9091279" lon="17.6436338">
        <ele>32.8223</ele>
        <time>2014-06-15T12:25:08Z</time>
      </trkpt>
      <trkpt lat="59.9090405" lon="17.6436464">
        <ele>32.8223</ele>
        <time>2014-06-15T12:25:09Z</time>
      </trkpt>
      <trkpt lat="59.9089534" lon="17.6436582">
        <ele>32.8223</ele>
        <time>2014-06-15T12:25:10Z</time>
      </trkpt>
      <trkpt lat="59.9088664" lon="17.643668">
        <ele>32.8223</ele>
        <time>2014-06-15T12:25:11Z</time>
      </trkpt>
      <trkpt lat="59.9087798" lon="17.6436771">
        <ele>32.8223</ele>
        <time>2014-06-15T12:25:12Z</time>
      </trkpt>
      <trkpt lat="59.9086938" lon="17.6436861">
        <ele>32.8223</ele>
        <time>2014-06-15T12:25:13Z</time>
      </trkpt>
      <trkpt lat="59.9086075" lon="17.6436916">
        <ele>32.8223</ele>
        <time>2014-06-15T12:25:14Z</time>
      </trkpt>
      <trkpt lat="59.9085214" lon="17.6436948">
        <ele>33.3029</ele>
        <time>2014-06-15T12:25:15Z</time>
      </trkpt>
      <trkpt lat="59.9084355" lon="17.6436958">
        <ele>33.3029</ele>
        <time>2014-06-15T12:25:16Z</time>
      </trkpt>
      <trkpt lat="59.9083516" lon="17.643694">
        <ele>33.3029</ele>
        <time>2014-06-15T12:25:17Z</time>
      </trkpt>
      <trkpt lat="59.9082686" lon="17.6436881">
        <ele>33.3029</ele>
        <time>2014-06-15T12:25:18Z</time>
      </trkpt>
      <trkpt lat="59.9081853" lon="17.6436777">
        <ele>32.8223</ele>
        <time>2014-06-15T12:25:19Z</time>
      </trkpt>
      <trkpt lat="59.9081013" lon="17.6436661">
        <ele>32.8223</ele>
        <time>2014-06-15T12:25:20Z</time>
      </trkpt>
      <trkpt lat="59.908018" lon="17.643654">
        <ele>32.8223</ele>
        <time>2014-06-15T12:25:21Z</time>
      </trkpt>
      <trkpt lat="59.9079353" lon="17.6436411">
        <ele>32.8223</ele>
        <time>2014-06-15T12:25:22Z</time>
      </trkpt>
      <trkpt lat="59.9078526" lon="17.6436277">
        <ele>32.3416</ele>
        <time>2014-06-15T12:25:23Z</time>
      </trkpt>
      <trkpt lat="59.9077688" lon="17.6436136">
        <ele>32.3416</ele>
        <time>2014-06-15T12:25:24Z</time>
      </trkpt>
      <trkpt lat="59.9076836" lon="17.6436008">
        <ele>31.8607</ele>
        <time>2014-06-15T12:25:25Z</time>
      </trkpt>
      <trkpt lat="59.9075966" lon="17.6435909">
        <ele>31.8607</ele>
        <time>2014-06-15T12:25:26Z</time>
      </trkpt>
      <trkpt lat="59.9075085" lon="17.6435811">
        <ele>31.8607</ele>
        <time>2014-06-15T12:25:27Z</time>
      </trkpt>
      <trkpt lat="59.9074191" lon="17.6435681">
        <ele>31.3801</ele>
        <time>2014-06-15T12:25:28Z</time>
      </trkpt>
      <trkpt lat="59.907329" lon="17.6435515">
        <ele>31.3801</ele>
        <time>2014-06-15T12:25:29Z</time>
      </trkpt>
      <trkpt lat="59.9072393" lon="17.643534">
        <ele>31.3801</ele>
        <time>2014-06-15T12:25:30Z</time>
      </trkpt>
      <trkpt lat="59.9071501" lon="17.6435178">
        <ele>30.8995</ele>
        <time>2014-06-15T12:25:31Z</time>
      </trkpt>
      <trkpt lat="59.9070612" lon="17.6435007">
        <ele>30.8995</ele>
        <time>2014-06-15T12:25:32Z</time>
      </trkpt>
      <trkpt lat="59.9069725" lon="17.64348">
        <ele>30.8995</ele>
        <time>2014-06-15T12:25:33Z</time>
      </trkpt>
      <trkpt lat="59.906883" lon="17.6434566">
        <ele>30.8995</ele>
        <time>2014-06-15T12:25:34Z</time>
      </trkpt>
      <trkpt lat="59.9067927" lon="17.6434287">
        <ele>30.4188</ele>
        <time>2014-06-15T12:25:35Z</time>
      </trkpt>
      <trkpt lat="59.9067017" lon="17.6433967">
        <ele>30.4188</ele>
        <time>2014-06-15T12:25:36Z</time>
      </trkpt>
      <trkpt lat="59.9066105" lon="17.6433645">
        <ele>30.4188</ele>
        <time>2014-06-15T12:25:37Z</time>
      </trkpt>
      <trkpt lat="59.9065188" lon="17.6433343">
        <ele>29.9381</ele>
        <time>2014-06-15T12:25:38Z</time>
      </trkpt>
      <trkpt lat="59.9064269" lon="17.6433029">
        <ele>29.9381</ele>
        <time>2014-06-15T12:25:39Z</time>
      </trkpt>
      <trkpt lat="59.9063349" lon="17.6432676">
        <ele>29.4575</ele>
        <time>2014-06-15T12:25:40Z</time>
      </trkpt>
      <trkpt lat="59.9062437" lon="17.6432296">
        <ele>28.9769</ele>
        <time>2014-06-15T12:25:41Z</time>
      </trkpt>
      <trkpt lat="59.9061526" lon="17.643191">
        <ele>28.9769</ele>
        <time>2014-06-15T12:25:42Z</time>
      </trkpt>
      <trkpt lat="59.9060614" lon="17.6431527">
        <ele>28.4962</ele>
        <time>2014-06-15T12:25:43Z</time>
      </trkpt>
      <trkpt lat="59.9059702" lon="17.6431116">
        <ele>28.4962</ele>
        <time>2014-06-15T12:25:44Z</time>
      </trkpt>
      <trkpt lat="59.9058791" lon="17.6430664">
        <ele>28.0155</ele>
        <time>2014-06-15T12:25:45Z</time>
      </trkpt>
      <trkpt lat="59.9057874" lon="17.6430198">
        <ele>27.5349</ele>
        <time>2014-06-15T12:25:46Z</time>
      </trkpt>
      <trkpt lat="59.9056946" lon="17.6429787">
        <ele>27.5349</ele>
        <time>2014-06-15T12:25:47Z</time>
      </trkpt>
      <trkpt lat="59.905601" lon="17.6429449">
        <ele>27.5349</ele>
        <time>2014-06-15T12:25:48Z</time>
      </trkpt>
      <trkpt lat="59.9055082" lon="17.64292">
        <ele>27.5349</ele>
        <time>2014-06-15T12:25:49Z</time>
      </trkpt>
      <trkpt lat="59.9054165" lon="17.6429098">
        <ele>27.5349</ele>
        <time>2014-06-15T12:25:50Z</time>
      </trkpt>
      <trkpt lat="59.9053261" lon="17.6428976">
        <ele>27.5349</ele>
        <time>2014-06-15T12:25:51Z</time>
      </trkpt>
      <trkpt lat="59.9052367" lon="17.6428682">
        <ele>27.5349</ele>
        <time>2014-06-15T12:25:52Z</time>
      </trkpt>
      <trkpt lat="59.9051488" lon="17.6428269">
        <ele>27.0543</ele>
        <time>2014-06-15T12:25:53Z</time>
      </trkpt>
      <trkpt lat="59.9050625" lon="17.6427831">
        <ele>27.0543</ele>
        <time>2014-06-15T12:25:54Z</time>
      </trkpt>
      <trkpt lat="59.9049767" lon="17.642743">
        <ele>27.0543</ele>
        <time>2014-06-15T12:25:55Z</time>
      </trkpt>
      <trkpt lat="59.9048974" lon="17.6426994">
        <ele>26.5736</ele>
        <time>2014-06-15T12:25:56Z</time>
      </trkpt>
      <trkpt lat="59.904813" lon="17.6426672">
        <ele>26.5736</ele>
        <time>2014-06-15T12:25:57Z</time>
      </trkpt>
      <trkpt lat="59.9047414" lon="17.6425911">
        <ele>26.0929</ele>
        <time>2014-06-15T12:25:58Z</time>
      </trkpt>
      <trkpt lat="59.9046612" lon="17.6425252">
        <ele>25.6123</ele>
        <time>2014-06-15T12:25:59Z</time>
      </trkpt>
      <trkpt lat="59.9045807" lon="17.6424609">
        <ele>25.1317</ele>
        <time>2014-06-15T12:26:00Z</time>
      </trkpt>
      <trkpt lat="59.9044965" lon="17.6424002">
        <ele>25.6123</ele>
        <time>2014-06-15T12:26:01Z</time>
      </trkpt>
      <trkpt lat="59.9044125" lon="17.6423521">
        <ele>25.6123</ele>
        <time>2014-06-15T12:26:02Z</time>
      </trkpt>
      <trkpt lat="59.9043312" lon="17.6423111">
        <ele>25.6123</ele>
        <time>2014-06-15T12:26:03Z</time>
      </trkpt>
      <trkpt lat="59.9042488" lon="17.6422713">
        <ele>26.0929</ele>
        <time>2014-06-15T12:26:04Z</time>
      </trkpt>
      <trkpt lat="59.9041658" lon="17.6422327">
        <ele>26.0929</ele>
        <time>2014-06-15T12:26:05Z</time>
      </trkpt>
      <trkpt lat="59.9040831" lon="17.6421917">
        <ele>26.5736</ele>
        <time>2014-06-15T12:26:06Z</time>
      </trkpt>
      <trkpt lat="59.9040009" lon="17.6421438">
        <ele>26.5736</ele>
        <time>2014-06-15T12:26:07Z</time>
      </trkpt>
      <trkpt lat="59.9039188" lon="17.6420938">
        <ele>26.5736</ele>
        <time>2014-06-15T12:26:08Z</time>
      </trkpt>
      <trkpt lat="59.903837" lon="17.6420473">
        <ele>26.5736</ele>
        <time>2014-06-15T12:26:09Z</time>
      </trkpt>
      <trkpt lat="59.9037568" lon="17.6420001">
        <ele>27.0543</ele>
        <time>2014-06-15T12:26:10Z</time>
      </trkpt>
      <trkpt lat="59.9036784" lon="17.6419608">
        <ele>27.0543</ele>
        <time>2014-06-15T12:26:11Z</time>
      </trkpt>
      <trkpt lat="59.9036019" lon="17.6419435">
        <ele>27.5349</ele>
        <time>2014-06-15T12:26:12Z</time>
      </trkpt>
      <trkpt lat="59.9035279" lon="17.6419446">
        <ele>27.5349</ele>
        <time>2014-06-15T12:26:13Z</time>
      </trkpt>
      <trkpt lat="59.9034561" lon="17.6419304">
        <ele>27.5349</ele>
        <time>2014-06-15T12:26:14Z</time>
      </trkpt>
      <trkpt lat="59.9033854" lon="17.6418853">
        <ele>27.0543</ele>
        <time>2014-06-15T12:26:15Z</time>
      </trkpt>
      <trkpt lat="59.9033133" lon="17.6418338">
        <ele>27.0543</ele>
        <time>2014-06-15T12:26:16Z</time>
      </trkpt>
      <trkpt lat="59.9032388" lon="17.6417877">
        <ele>26.5736</ele>
        <time>2014-06-15T12:26:17Z</time>
      </trkpt>
      <trkpt lat="59.9031637" lon="17.6417364">
        <ele>26.5736</ele>
        <time>2014-06-15T12:26:18Z</time>
      </trkpt>
      <trkpt lat="59.9030921" lon="17.6416644">
        <ele>26.5736</ele>
        <time>2014-06-15T12:26:19Z</time>
      </trkpt>
      <trkpt lat="59.9030279" lon="17.641567">
        <ele>26.5736</ele>
        <time>2014-06-15T12:26:20Z</time>
      </trkpt>
      <trkpt lat="59.9029702" lon="17.6414531">
        <ele>26.0929</ele>
        <time>2014-06-15T12:26:21Z</time>
      </trkpt>
      <trkpt lat="59.9029139" lon="17.6413357">
        <ele>26.0929</ele>
        <time>2014-06-15T12:26:22Z</time>
      </trkpt>
      <trkpt lat="59.9028527" lon="17.6412252">
        <ele>26.0929</ele>
        <time>2014-06-15T12:26:23Z</time>
      </trkpt>
      <trkpt lat="59.9027848" lon="17.6411303">
        <ele>26.0929</ele>
        <time>2014-06-15T12:26:24Z</time>
      </trkpt>
      <trkpt lat="59.9027117" lon="17.6410478">
        <ele>26.0929</ele>
        <time>2014-06-15T12:26:25Z</time>
      </trkpt>
      <trkpt lat="59.9026362" lon="17.6409726">
        <ele>26.0929</ele>
        <time>2014-06-15T12:26:26Z</time>
      </trkpt>
      <trkpt lat="59.9025602" lon="17.6408996">
        <ele>26.0929</ele>
        <time>2014-06-15T12:26:27Z</time>
      </trkpt>
      <trkpt lat="59.9024845" lon="17.6408271">
        <ele>26.0929</ele>
        <time>2014-06-15T12:26:28Z</time>
      </trkpt>
      <trkpt lat="59.9024087" lon="17.6407547">
        <ele>26.0929</ele>
        <time>2014-06-15T12:26:29Z</time>
      </trkpt>
      <trkpt lat="59.9023328" lon="17.6406813">
        <ele>26.0929</ele>
        <time>2014-06-15T12:26:30Z</time>
      </trkpt>
      <trkpt lat="59.9022571" lon="17.6406076">
        <ele>26.0929</ele>
        <time>2014-06-15T12:26:31Z</time>
      </trkpt>
      <trkpt lat="59.9021815" lon="17.6405356">
        <ele>26.0929</ele>
        <time>2014-06-15T12:26:32Z</time>
      </trkpt>
      <trkpt lat="59.9021062" lon="17.640464">
        <ele>26.0929</ele>
        <time>2014-06-15T12:26:33Z</time>
      </trkpt>
      <trkpt lat="59.9020313" lon="17.6403917">
        <ele>26.0929</ele>
        <time>2014-06-15T12:26:34Z</time>
      </trkpt>
      <trkpt lat="59.9019576" lon="17.6403196">
        <ele>26.0929</ele>
        <time>2014-06-15T12:26:35Z</time>
      </trkpt>
      <trkpt lat="59.9018853" lon="17.6402502">
        <ele>26.5736</ele>
        <time>2014-06-15T12:26:36Z</time>
      </trkpt>
      <trkpt lat="59.9018143" lon="17.6401844">
        <ele>26.5736</ele>
        <time>2014-06-15T12:26:37Z</time>
      </trkpt>
      <trkpt lat="59.9017448" lon="17.6401194">
        <ele>26.5736</ele>
        <time>2014-06-15T12:26:38Z</time>
      </trkpt>
      <trkpt lat="59.901677" lon="17.6400529">
        <ele>26.5736</ele>
        <time>2014-06-15T12:26:39Z</time>
      </trkpt>
      <trkpt lat="59.9016094" lon="17.6399848">
        <ele>26.5736</ele>
        <time>2014-06-15T12:26:40Z</time>
      </trkpt>
      <trkpt lat="59.9015407" lon="17.6399185">
        <ele>26.5736</ele>
        <time>2014-06-15T12:26:41Z</time>
      </trkpt>
      <trkpt lat="59.9014719" lon="17.6398537">
        <ele>27.0543</ele>
        <time>2014-06-15T12:26:42Z</time>
      </trkpt>
      <trkpt lat="59.9014033" lon="17.6397886">
        <ele>27.0543</ele>
        <time>2014-06-15T12:26:43Z</time>
      </trkpt>
      <trkpt lat="59.9013347" lon="17.639723">
        <ele>27.0543</ele>
        <time>2014-06-15T12:26:44Z</time>
      </trkpt>
      <trkpt lat="59.9012665" lon="17.6396571">
        <ele>27.0543</ele>
        <time>2014-06-15T12:26:45Z</time>
      </trkpt>
      <trkpt lat="59.9011981" lon="17.6395913">
        <ele>27.0543</ele>
        <time>2014-06-15T12:26:46Z</time>
      </trkpt>
      <trkpt lat="59.9011294" lon="17.6395263">
        <ele>27.0543</ele>
        <time>2014-06-15T12:26:47Z</time>
      </trkpt>
      <trkpt lat="59.9010605" lon="17.6394628">
        <ele>27.0543</ele>
        <time>2014-06-15T12:26:48Z</time>
      </trkpt>
      <trkpt lat="59.9009909" lon="17.6394001">
        <ele>27.0543</ele>
        <time>2014-06-15T12:26:49Z</time>
      </trkpt>
      <trkpt lat="59.9009207" lon="17.6393378">
        <ele>27.0543</ele>
        <time>2014-06-15T12:26:50Z</time>
      </trkpt>
      <trkpt lat="59.9008497" lon="17.6392749">
        <ele>27.0543</ele>
        <time>2014-06-15T12:26:51Z</time>
      </trkpt>
      <trkpt lat="59.9007782" lon="17.6392111">
        <ele>27.5349</ele>
        <time>2014-06-15T12:26:52Z</time>
      </trkpt>
      <trkpt lat="59.900706" lon="17.639148">
        <ele>27.5349</ele>
        <time>2014-06-15T12:26:53Z</time>
      </trkpt>
      <trkpt lat="59.9006324" lon="17.6390872">
        <ele>27.5349</ele>
        <time>2014-06-15T12:26:54Z</time>
      </trkpt>
      <trkpt lat="59.9005587" lon="17.6390276">
        <ele>27.5349</ele>
        <time>2014-06-15T12:26:55Z</time>
      </trkpt>
      <trkpt lat="59.9004859" lon="17.6389697">
        <ele>27.5349</ele>
        <time>2014-06-15T12:26:56Z</time>
      </trkpt>
      <trkpt lat="59.9004146" lon="17.6389131">
        <ele>28.0155</ele>
        <time>2014-06-15T12:26:57Z</time>
      </trkpt>
      <trkpt lat="59.9003453" lon="17.6388565">
        <ele>28.0155</ele>
        <time>2014-06-15T12:26:58Z</time>
      </trkpt>
      <trkpt lat="59.9002781" lon="17.6388008">
        <ele>28.0155</ele>
        <time>2014-06-15T12:26:59Z</time>
      </trkpt>
      <trkpt lat="59.9002125" lon="17.638748">
        <ele>28.4962</ele>
        <time>2014-06-15T12:27:00Z</time>
      </trkpt>
      <trkpt lat="59.9001487" lon="17.6386977">
        <ele>28.4962</ele>
        <time>2014-06-15T12:27:01Z</time>
      </trkpt>
      <trkpt lat="59.9000861" lon="17.6386486">
        <ele>28.9769</ele>
        <time>2014-06-15T12:27:02Z</time>
      </trkpt>
      <trkpt lat="59.9000253" lon="17.6386015">
        <ele>28.9769</ele>
        <time>2014-06-15T12:27:03Z</time>
      </trkpt>
      <trkpt lat="59.899966" lon="17.6385564">
        <ele>29.4575</ele>
        <time>2014-06-15T12:27:04Z</time>
      </trkpt>
      <trkpt lat="59.8999084" lon="17.6385138">
        <ele>29.4575</ele>
        <time>2014-06-15T12:27:05Z</time>
      </trkpt>
      <trkpt lat="59.899852" lon="17.6384742">
        <ele>29.9381</ele>
        <time>2014-06-15T12:27:06Z</time>
      </trkpt>
      <trkpt lat="59.8997961" lon="17.6384364">
        <ele>29.9381</ele>
        <time>2014-06-15T12:27:07Z</time>
      </trkpt>
      <trkpt lat="59.8997401" lon="17.6383978">
        <ele>29.9381</ele>
        <time>2014-06-15T12:27:08Z</time>
      </trkpt>
      <trkpt lat="59.8996842" lon="17.6383589">
        <ele>30.4188</ele>
        <time>2014-06-15T12:27:09Z</time>
      </trkpt>
      <trkpt lat="59.8996286" lon="17.63832">
        <ele>30.4188</ele>
        <time>2014-06-15T12:27:10Z</time>
      </trkpt>
      <trkpt lat="59.8995726" lon="17.6382813">
        <ele>30.4188</ele>
        <time>2014-06-15T12:27:11Z</time>
      </trkpt>
      <trkpt lat="59.8995161" lon="17.6382443">
        <ele>30.8995</ele>
        <time>2014-06-15T12:27:12Z</time>
      </trkpt>
      <trkpt lat="59.8994597" lon="17.6382062">
        <ele>30.8995</ele>
        <time>2014-06-15T12:27:13Z</time>
      </trkpt>
      <trkpt lat="59.8994034" lon="17.6381684">
        <ele>30.8995</ele>
        <time>2014-06-15T12:27:14Z</time>
      </trkpt>
      <trkpt lat="59.8993463" lon="17.6381313">
        <ele>30.8995</ele>
        <time>2014-06-15T12:27:15Z</time>
      </trkpt>
      <trkpt lat="59.8992884" lon="17.6380896">
        <ele>30.8995</ele>
        <time>2014-06-15T12:27:16Z</time>
      </trkpt>
      <trkpt lat="59.8992321" lon="17.6380424">
        <ele>30.8995</ele>
        <time>2014-06-15T12:27:17Z</time>
      </trkpt>
      <trkpt lat="59.8991776" lon="17.6379927">
        <ele>30.8995</ele>
        <time>2014-06-15T12:27:18Z</time>
      </trkpt>
      <trkpt lat="59.899125" lon="17.6379412">
        <ele>30.4188</ele>
        <time>2014-06-15T12:27:19Z</time>
      </trkpt>
      <trkpt lat="59.8990738" lon="17.6378824">
        <ele>30.4188</ele>
        <time>2014-06-15T12:27:20Z</time>
      </trkpt>
      <trkpt lat="59.8990216" lon="17.6378224">
        <ele>30.4188</ele>
        <time>2014-06-15T12:27:21Z</time>
      </trkpt>
      <trkpt lat="59.8989676" lon="17.6377625">
        <ele>29.9381</ele>
        <time>2014-06-15T12:27:22Z</time>
      </trkpt>
      <trkpt lat="59.8989103" lon="17.6377064">
        <ele>29.9381</ele>
        <time>2014-06-15T12:27:23Z</time>
      </trkpt>
      <trkpt lat="59.8988505" lon="17.637658">
        <ele>29.9381</ele>
        <time>2014-06-15T12:27:24Z</time>
      </trkpt>
      <trkpt lat="59.8987873" lon="17.6376283">
        <ele>29.9381</ele>
        <time>2014-06-15T12:27:25Z</time>
      </trkpt>
      <trkpt lat="59.8987215" lon="17.6376167">
        <ele>29.9381</ele>
        <time>2014-06-15T12:27:26Z</time>
      </trkpt>
      <trkpt lat="59.8986569" lon="17.6376136">
        <ele>29.9381</ele>
        <time>2014-06-15T12:27:27Z</time>
      </trkpt>
      <trkpt lat="59.8985918" lon="17.6376182">
        <ele>29.9381</ele>
        <time>2014-06-15T12:27:28Z</time>
      </trkpt>
      <trkpt lat="59.8985281" lon="17.6376095">
        <ele>29.9381</ele>
        <time>2014-06-15T12:27:29Z</time>
      </trkpt>
      <trkpt lat="59.8984669" lon="17.6375834">
        <ele>30.4188</ele>
        <time>2014-06-15T12:27:30Z</time>
      </trkpt>
      <trkpt lat="59.8984093" lon="17.6375452">
        <ele>30.4188</ele>
        <time>2014-06-15T12:27:31Z</time>
      </trkpt>
      <trkpt lat="59.8983574" lon="17.6375036">
        <ele>30.4188</ele>
        <time>2014-06-15T12:27:32Z</time>
      </trkpt>
      <trkpt lat="59.8983119" lon="17.6374741">
        <ele>30.8995</ele>
        <time>2014-06-15T12:27:33Z</time>
      </trkpt>
      <trkpt lat="59.8982721" lon="17.637476">
        <ele>30.8995</ele>
        <time>2014-06-15T12:27:34Z</time>
      </trkpt>
      <trkpt lat="59.8982504" lon="17.6375382">
        <ele>30.8995</ele>
        <time>2014-06-15T12:27:35Z</time>
      </trkpt>
      <trkpt lat="59.8982405" lon="17.6376105">
        <ele>30.8995</ele>
        <time>2014-06-15T12:27:36Z</time>
      </trkpt>
      <trkpt lat="59.8982361" lon="17.6376889">
        <ele>31.3801</ele>
        <time>2014-06-15T12:27:37Z</time>
      </trkpt>
      <trkpt lat="59.8982265" lon="17.6377648">
        <ele>31.3801</ele>
        <time>2014-06-15T12:27:38Z</time>
      </trkpt>
      <trkpt lat="59.8982094" lon="17.6378312">
        <ele>31.8607</ele>
        <time>2014-06-15T12:27:39Z</time>
      </trkpt>
      <trkpt lat="59.8981809" lon="17.6378788">
        <ele>31.8607</ele>
        <time>2014-06-15T12:27:40Z</time>
      </trkpt>
      <trkpt lat="59.8981431" lon="17.637887">
        <ele>31.8607</ele>
        <time>2014-06-15T12:27:41Z</time>
      </trkpt>
      <trkpt lat="59.898103" lon="17.6378547">
        <ele>31.8607</ele>
        <time>2014-06-15T12:27:42Z</time>
      </trkpt>
      <trkpt lat="59.8980623" lon="17.637803">
        <ele>31.8607</ele>
        <time>2014-06-15T12:27:43Z</time>
      </trkpt>
      <trkpt lat="59.8980181" lon="17.6377524">
        <ele>31.8607</ele>
        <time>2014-06-15T12:27:44Z</time>
      </trkpt>
      <trkpt lat="59.8979725" lon="17.6377">
        <ele>31.8607</ele>
        <time>2014-06-15T12:27:45Z</time>
      </trkpt>
      <trkpt lat="59.8979272" lon="17.6376429">
        <ele>31.8607</ele>
        <time>2014-06-15T12:27:46Z</time>
      </trkpt>
      <trkpt lat="59.8978828" lon="17.6375859">
        <ele>31.8607</ele>
        <time>2014-06-15T12:27:47Z</time>
      </trkpt>
      <trkpt lat="59.8978371" lon="17.6375292">
        <ele>31.8607</ele>
        <time>2014-06-15T12:27:48Z</time>
      </trkpt>
      <trkpt lat="59.8977906" lon="17.63747">
        <ele>31.8607</ele>
        <time>2014-06-15T12:27:49Z</time>
      </trkpt>
      <trkpt lat="59.8977431" lon="17.637411">
        <ele>32.3416</ele>
        <time>2014-06-15T12:27:50Z</time>
      </trkpt>
      <trkpt lat="59.8976953" lon="17.637351">
        <ele>32.3416</ele>
        <time>2014-06-15T12:27:51Z</time>
      </trkpt>
      <trkpt lat="59.8976453" lon="17.6372916">
        <ele>32.3416</ele>
        <time>2014-06-15T12:27:52Z</time>
      </trkpt>
      <trkpt lat="59.8975923" lon="17.6372341">
        <ele>32.3416</ele>
        <time>2014-06-15T12:27:53Z</time>
      </trkpt>
      <trkpt lat="59.8975373" lon="17.6371767">
        <ele>32.3416</ele>
        <time>2014-06-15T12:27:54Z</time>
      </trkpt>
      <trkpt lat="59.8974806" lon="17.6371191">
        <ele>32.8223</ele>
        <time>2014-06-15T12:27:55Z</time>
      </trkpt>
      <trkpt lat="59.8974228" lon="17.6370647">
        <ele>32.8223</ele>
        <time>2014-06-15T12:27:56Z</time>
      </trkpt>
      <trkpt lat="59.8973649" lon="17.6370152">
        <ele>33.3029</ele>
        <time>2014-06-15T12:27:57Z</time>
      </trkpt>
      <trkpt lat="59.8973075" lon="17.6369711">
        <ele>33.3029</ele>
        <time>2014-06-15T12:27:58Z</time>
      </trkpt>
      <trkpt lat="59.89725" lon="17.6369323">
        <ele>33.3029</ele>
        <time>2014-06-15T12:27:59Z</time>
      </trkpt>
      <trkpt lat="59.8971915" lon="17.6368993">
        <ele>33.7834</ele>
        <time>2014-06-15T12:28:00Z</time>
      </trkpt>
      <trkpt lat="59.8971325" lon="17.6368696">
        <ele>33.7834</ele>
        <time>2014-06-15T12:28:01Z</time>
      </trkpt>
      <trkpt lat="59.897073" lon="17.63684">
        <ele>33.7834</ele>
        <time>2014-06-15T12:28:02Z</time>
      </trkpt>
      <trkpt lat="59.8970136" lon="17.6368099">
        <ele>33.7834</ele>
        <time>2014-06-15T12:28:03Z</time>
      </trkpt>
      <trkpt lat="59.8969554" lon="17.6367722">
        <ele>33.7834</ele>
        <time>2014-06-15T12:28:04Z</time>
      </trkpt>
      <trkpt lat="59.8968979" lon="17.6367286">
        <ele>34.2642</ele>
        <time>2014-06-15T12:28:05Z</time>
      </trkpt>
      <trkpt lat="59.8968387" lon="17.6366907">
        <ele>34.2642</ele>
        <time>2014-06-15T12:28:06Z</time>
      </trkpt>
      <trkpt lat="59.8967781" lon="17.6366556">
        <ele>34.2642</ele>
        <time>2014-06-15T12:28:07Z</time>
      </trkpt>
      <trkpt lat="59.8967174" lon="17.6366221">
        <ele>34.2642</ele>
        <time>2014-06-15T12:28:08Z</time>
      </trkpt>
      <trkpt lat="59.8966553" lon="17.6365947">
        <ele>34.2642</ele>
        <time>2014-06-15T12:28:09Z</time>
      </trkpt>
      <trkpt lat="59.8965855" lon="17.6365703">
        <ele>34.7449</ele>
        <time>2014-06-15T12:28:10Z</time>
      </trkpt>
      <trkpt lat="59.8965195" lon="17.6365501">
        <ele>34.7449</ele>
        <time>2014-06-15T12:28:11Z</time>
      </trkpt>
      <trkpt lat="59.8964548" lon="17.6365293">
        <ele>34.7449</ele>
        <time>2014-06-15T12:28:12Z</time>
      </trkpt>
      <trkpt lat="59.896389" lon="17.6365037">
        <ele>34.7449</ele>
        <time>2014-06-15T12:28:13Z</time>
      </trkpt>
      <trkpt lat="59.8963239" lon="17.6364778">
        <ele>35.2255</ele>
        <time>2014-06-15T12:28:14Z</time>
      </trkpt>
      <trkpt lat="59.8962581" lon="17.6364523">
        <ele>35.2255</ele>
        <time>2014-06-15T12:28:15Z</time>
      </trkpt>
      <trkpt lat="59.8961917" lon="17.6364268">
        <ele>35.2255</ele>
        <time>2014-06-15T12:28:16Z</time>
      </trkpt>
      <trkpt lat="59.8961254" lon="17.6364017">
        <ele>34.7449</ele>
        <time>2014-06-15T12:28:17Z</time>
      </trkpt>
      <trkpt lat="59.8960575" lon="17.6363761">
        <ele>34.7449</ele>
        <time>2014-06-15T12:28:18Z</time>
      </trkpt>
      <trkpt lat="59.8959895" lon="17.6363553">
        <ele>34.7449</ele>
        <time>2014-06-15T12:28:19Z</time>
      </trkpt>
      <trkpt lat="59.8959213" lon="17.6363512">
        <ele>34.7449</ele>
        <time>2014-06-15T12:28:20Z</time>
      </trkpt>
      <trkpt lat="59.8958519" lon="17.636347">
        <ele>34.7449</ele>
        <time>2014-06-15T12:28:21Z</time>
      </trkpt>
      <trkpt lat="59.8957849" lon="17.6363542">
        <ele>34.7449</ele>
        <time>2014-06-15T12:28:22Z</time>
      </trkpt>
      <trkpt lat="59.8957171" lon="17.6363672">
        <ele>35.2255</ele>
        <time>2014-06-15T12:28:23Z</time>
      </trkpt>
      <trkpt lat="59.8956467" lon="17.6363815">
        <ele>35.2255</ele>
        <time>2014-06-15T12:28:24Z</time>
      </trkpt>
      <trkpt lat="59.8955747" lon="17.6364003">
        <ele>34.7449</ele>
        <time>2014-06-15T12:28:25Z</time>
      </trkpt>
      <trkpt lat="59.8955021" lon="17.6364334">
        <ele>34.7449</ele>
        <time>2014-06-15T12:28:26Z</time>
      </trkpt>
      <trkpt lat="59.8954293" lon="17.6364763">
        <ele>34.7449</ele>
        <time>2014-06-15T12:28:27Z</time>
      </trkpt>
      <trkpt lat="59.8953558" lon="17.6365251">
        <ele>35.2255</ele>
        <time>2014-06-15T12:28:28Z</time>
      </trkpt>
      <trkpt lat="59.8952817" lon="17.6365723">
        <ele>34.7449</ele>
        <time>2014-06-15T12:28:29Z</time>
      </trkpt>
      <trkpt lat="59.8952076" lon="17.636621">
        <ele>34.7449</ele>
        <time>2014-06-15T12:28:30Z</time>
      </trkpt>
      <trkpt lat="59.8951335" lon="17.6366697">
        <ele>34.7449</ele>
        <time>2014-06-15T12:28:31Z</time>
      </trkpt>
      <trkpt lat="59.8950594" lon="17.6367183">
        <ele>34.7449</ele>
        <time>2014-06-15T12:28:32Z</time>
      </trkpt>
      <trkpt lat="59.8949859" lon="17.6367656">
        <ele>34.7449</ele>
        <time>2014-06-15T12:28:33Z</time>
      </trkpt>
      <trkpt lat="59.8949131" lon="17.6368096">
        <ele>34.7449</ele>
        <time>2014-06-15T12:28:34Z</time>
      </trkpt>
      <trkpt lat="59.8948411" lon="17.6368541">
        <ele>34.7449</ele>
        <time>2014-06-15T12:28:35Z</time>
      </trkpt>
      <trkpt lat="59.8947682" lon="17.6368966">
        <ele>34.7449</ele>
        <time>2014-06-15T12:28:36Z</time>
      </trkpt>
      <trkpt lat="59.8946932" lon="17.6369458">
        <ele>34.7449</ele>
        <time>2014-06-15T12:28:37Z</time>
      </trkpt>
      <trkpt lat="59.8946183" lon="17.6369927">
        <ele>34.7449</ele>
        <time>2014-06-15T12:28:38Z</time>
      </trkpt>
      <trkpt lat="59.8945346" lon="17.6370477">
        <ele>34.7449</ele>
        <time>2014-06-15T12:28:39Z</time>
      </trkpt>
      <trkpt lat="59.8944657" lon="17.6371027">
        <ele>34.7449</ele>
        <time>2014-06-15T12:28:40Z</time>
      </trkpt>
      <trkpt lat="59.894392" lon="17.6371454">
        <ele>34.7449</ele>
        <time>2014-06-15T12:28:41Z</time>
      </trkpt>
      <trkpt lat="59.8943189" lon="17.6371918">
        <ele>34.7449</ele>
        <time>2014-06-15T12:28:42Z</time>
      </trkpt>
      <trkpt lat="59.8942439" lon="17.6372391">
        <ele>34.7449</ele>
        <time>2014-06-15T12:28:43Z</time>
      </trkpt>
      <trkpt lat="59.8941652" lon="17.6372933">
        <ele>34.7449</ele>
        <time>2014-06-15T12:28:44Z</time>
      </trkpt>
      <trkpt lat="59.8940884" lon="17.6373488">
        <ele>34.7449</ele>
        <time>2014-06-15T12:28:45Z</time>
      </trkpt>
      <trkpt lat="59.8940146" lon="17.6374023">
        <ele>35.2255</ele>
        <time>2014-06-15T12:28:46Z</time>
      </trkpt>
      <trkpt lat="59.8939423" lon="17.6374508">
        <ele>35.2255</ele>
        <time>2014-06-15T12:28:47Z</time>
      </trkpt>
      <trkpt lat="59.8938699" lon="17.6375036">
        <ele>35.2255</ele>
        <time>2014-06-15T12:28:48Z</time>
      </trkpt>
      <trkpt lat="59.8937995" lon="17.6375584">
        <ele>35.2255</ele>
        <time>2014-06-15T12:28:49Z</time>
      </trkpt>
      <trkpt lat="59.8937302" lon="17.637612">
        <ele>35.2255</ele>
        <time>2014-06-15T12:28:50Z</time>
      </trkpt>
      <trkpt lat="59.8936621" lon="17.6376638">
        <ele>35.2255</ele>
        <time>2014-06-15T12:28:51Z</time>
      </trkpt>
      <trkpt lat="59.8935955" lon="17.6377156">
        <ele>35.2255</ele>
        <time>2014-06-15T12:28:52Z</time>
      </trkpt>
      <trkpt lat="59.8935286" lon="17.6377635">
        <ele>35.2255</ele>
        <time>2014-06-15T12:28:53Z</time>
      </trkpt>
      <trkpt lat="59.8934627" lon="17.6378083">
        <ele>35.7061</ele>
        <time>2014-06-15T12:28:54Z</time>
      </trkpt>
      <trkpt lat="59.8933981" lon="17.6378539">
        <ele>35.2255</ele>
        <time>2014-06-15T12:28:55Z</time>
      </trkpt>
      <trkpt lat="59.8933344" lon="17.6379005">
        <ele>35.2255</ele>
        <time>2014-06-15T12:28:56Z</time>
      </trkpt>
      <trkpt lat="59.8932687" lon="17.6379455">
        <ele>35.2255</ele>
        <time>2014-06-15T12:28:57Z</time>
      </trkpt>
      <trkpt lat="59.8932023" lon="17.6379901">
        <ele>35.2255</ele>
        <time>2014-06-15T12:28:58Z</time>
      </trkpt>
      <trkpt lat="59.8931355" lon="17.6380308">
        <ele>34.7449</ele>
        <time>2014-06-15T12:28:59Z</time>
      </trkpt>
      <trkpt lat="59.8930676" lon="17.6380658">
        <ele>34.7449</ele>
        <time>2014-06-15T12:29:00Z</time>
      </trkpt>
      <trkpt lat="59.8929993" lon="17.6381005">
        <ele>34.2642</ele>
        <time>2014-06-15T12:29:01Z</time>
      </trkpt>
      <trkpt lat="59.8929331" lon="17.6381314">
        <ele>33.7834</ele>
        <time>2014-06-15T12:29:02Z</time>
      </trkpt>
      <trkpt lat="59.8928703" lon="17.638159">
        <ele>33.7834</ele>
        <time>2014-06-15T12:29:03Z</time>
      </trkpt>
      <trkpt lat="59.8928096" lon="17.6381792">
        <ele>33.7834</ele>
        <time>2014-06-15T12:29:04Z</time>
      </trkpt>
      <trkpt lat="59.8927483" lon="17.6381883">
        <ele>33.3029</ele>
        <time>2014-06-15T12:29:05Z</time>
      </trkpt>
      <trkpt lat="59.8926879" lon="17.6381928">
        <ele>32.8223</ele>
        <time>2014-06-15T12:29:06Z</time>
      </trkpt>
      <trkpt lat="59.8926309" lon="17.6382098">
        <ele>32.8223</ele>
        <time>2014-06-15T12:29:07Z</time>
      </trkpt>
      <trkpt lat="59.8925834" lon="17.6382609">
        <ele>32.3416</ele>
        <time>2014-06-15T12:29:08Z</time>
      </trkpt>
      <trkpt lat="59.8925699" lon="17.638367">
        <ele>32.3416</ele>
        <time>2014-06-15T12:29:09Z</time>
      </trkpt>
      <trkpt lat="59.8925772" lon="17.6384735">
        <ele>32.3416</ele>
        <time>2014-06-15T12:29:10Z</time>
      </trkpt>
      <trkpt lat="59.8926012" lon="17.6385759">
        <ele>31.8607</ele>
        <time>2014-06-15T12:29:11Z</time>
      </trkpt>
      <trkpt lat="59.8926276" lon="17.6386794">
        <ele>31.8607</ele>
        <time>2014-06-15T12:29:12Z</time>
      </trkpt>
      <trkpt lat="59.8926464" lon="17.6387892">
        <ele>31.8607</ele>
        <time>2014-06-15T12:29:13Z</time>
      </trkpt>
      <trkpt lat="59.8926553" lon="17.6389058">
        <ele>31.8607</ele>
        <time>2014-06-15T12:29:14Z</time>
      </trkpt>
      <trkpt lat="59.8926587" lon="17.6390283">
        <ele>31.8607</ele>
        <time>2014-06-15T12:29:15Z</time>
      </trkpt>
      <trkpt lat="59.8926589" lon="17.6391586">
        <ele>32.3416</ele>
        <time>2014-06-15T12:29:16Z</time>
      </trkpt>
      <trkpt lat="59.8926567" lon="17.6392938">
        <ele>32.3416</ele>
        <time>2014-06-15T12:29:17Z</time>
      </trkpt>
      <trkpt lat="59.8926551" lon="17.6394286">
        <ele>32.8223</ele>
        <time>2014-06-15T12:29:18Z</time>
      </trkpt>
      <trkpt lat="59.8926538" lon="17.6395643">
        <ele>32.8223</ele>
        <time>2014-06-15T12:29:19Z</time>
      </trkpt>
      <trkpt lat="59.8926533" lon="17.6397006">
        <ele>32.8223</ele>
        <time>2014-06-15T12:29:20Z</time>
      </trkpt>
      <trkpt lat="59.8926526" lon="17.6398384">
        <ele>32.8223</ele>
        <time>2014-06-15T12:29:21Z</time>
      </trkpt>
      <trkpt lat="59.8926516" lon="17.6399782">
        <ele>33.3029</ele>
        <time>2014-06-15T12:29:22Z</time>
      </trkpt>
      <trkpt lat="59.8926475" lon="17.64012">
        <ele>33.3029</ele>
        <time>2014-06-15T12:29:23Z</time>
      </trkpt>
      <trkpt lat="59.8926359" lon="17.6402666">
        <ele>33.3029</ele>
        <time>2014-06-15T12:29:24Z</time>
      </trkpt>
      <trkpt lat="59.8926252" lon="17.6404135">
        <ele>33.3029</ele>
        <time>2014-06-15T12:29:25Z</time>
      </trkpt>
      <trkpt lat="59.8926183" lon="17.6405599">
        <ele>33.3029</ele>
        <time>2014-06-15T12:29:26Z</time>
      </trkpt>
      <trkpt lat="59.8926109" lon="17.6407049">
        <ele>33.3029</ele>
        <time>2014-06-15T12:29:27Z</time>
      </trkpt>
      <trkpt lat="59.8926029" lon="17.640851">
        <ele>33.3029</ele>
        <time>2014-06-15T12:29:28Z</time>
      </trkpt>
      <trkpt lat="59.8925957" lon="17.6409931">
        <ele>33.7834</ele>
        <time>2014-06-15T12:29:29Z</time>
      </trkpt>
      <trkpt lat="59.8925895" lon="17.6411318">
        <ele>33.3029</ele>
        <time>2014-06-15T12:29:30Z</time>
      </trkpt>
      <trkpt lat="59.8925838" lon="17.64127">
        <ele>33.3029</ele>
        <time>2014-06-15T12:29:31Z</time>
      </trkpt>
      <trkpt lat="59.8925774" lon="17.6414069">
        <ele>33.3029</ele>
        <time>2014-06-15T12:29:32Z</time>
      </trkpt>
      <trkpt lat="59.8925701" lon="17.6415457">
        <ele>33.3029</ele>
        <time>2014-06-15T12:29:33Z</time>
      </trkpt>
      <trkpt lat="59.8925606" lon="17.6416844">
        <ele>33.3029</ele>
        <time>2014-06-15T12:29:34Z</time>
      </trkpt>
      <trkpt lat="59.8925502" lon="17.6418229">
        <ele>33.3029</ele>
        <time>2014-06-15T12:29:35Z</time>
      </trkpt>
      <trkpt lat="59.8925425" lon="17.6419636">
        <ele>33.7834</ele>
        <time>2014-06-15T12:29:36Z</time>
      </trkpt>
      <trkpt lat="59.8925357" lon="17.6421066">
        <ele>33.3029</ele>
        <time>2014-06-15T12:29:37Z</time>
      </trkpt>
      <trkpt lat="59.8925283" lon="17.6422506">
        <ele>33.3029</ele>
        <time>2014-06-15T12:29:38Z</time>
      </trkpt>
      <trkpt lat="59.8925192" lon="17.6423956">
        <ele>33.7834</ele>
        <time>2014-06-15T12:29:39Z</time>
      </trkpt>
      <trkpt lat="59.8925073" lon="17.6425414">
        <ele>33.7834</ele>
        <time>2014-06-15T12:29:40Z</time>
      </trkpt>
      <trkpt lat="59.8924959" lon="17.6426848">
        <ele>33.7834</ele>
        <time>2014-06-15T12:29:41Z</time>
      </trkpt>
      <trkpt lat="59.8924831" lon="17.6428278">
        <ele>33.7834</ele>
        <time>2014-06-15T12:29:42Z</time>
      </trkpt>
      <trkpt lat="59.8924704" lon="17.6429711">
        <ele>34.2642</ele>
        <time>2014-06-15T12:29:43Z</time>
      </trkpt>
      <trkpt lat="59.8924572" lon="17.6431128">
        <ele>34.2642</ele>
        <time>2014-06-15T12:29:44Z</time>
      </trkpt>
      <trkpt lat="59.8924434" lon="17.6432522">
        <ele>34.2642</ele>
        <time>2014-06-15T12:29:45Z</time>
      </trkpt>
      <trkpt lat="59.8924301" lon="17.6433896">
        <ele>34.2642</ele>
        <time>2014-06-15T12:29:46Z</time>
      </trkpt>
      <trkpt lat="59.892417" lon="17.6435257">
        <ele>34.7449</ele>
        <time>2014-06-15T12:29:47Z</time>
      </trkpt>
      <trkpt lat="59.8924041" lon="17.6436619">
        <ele>34.7449</ele>
        <time>2014-06-15T12:29:48Z</time>
      </trkpt>
      <trkpt lat="59.892391" lon="17.6438004">
        <ele>34.7449</ele>
        <time>2014-06-15T12:29:49Z</time>
      </trkpt>
      <trkpt lat="59.8923771" lon="17.6439405">
        <ele>34.7449</ele>
        <time>2014-06-15T12:29:50Z</time>
      </trkpt>
      <trkpt lat="59.892362" lon="17.6440818">
        <ele>34.7449</ele>
        <time>2014-06-15T12:29:51Z</time>
      </trkpt>
      <trkpt lat="59.8923462" lon="17.6442266">
        <ele>34.7449</ele>
        <time>2014-06-15T12:29:52Z</time>
      </trkpt>
      <trkpt lat="59.892331" lon="17.6443733">
        <ele>34.2642</ele>
        <time>2014-06-15T12:29:53Z</time>
      </trkpt>
      <trkpt lat="59.8923154" lon="17.6445207">
        <ele>34.2642</ele>
        <time>2014-06-15T12:29:54Z</time>
      </trkpt>
      <trkpt lat="59.8923005" lon="17.6446692">
        <ele>34.2642</ele>
        <time>2014-06-15T12:29:55Z</time>
      </trkpt>
      <trkpt lat="59.8922871" lon="17.644819">
        <ele>34.2642</ele>
        <time>2014-06-15T12:29:56Z</time>
      </trkpt>
      <trkpt lat="59.8922668" lon="17.6449564">
        <ele>34.2642</ele>
        <time>2014-06-15T12:29:57Z</time>
      </trkpt>
      <trkpt lat="59.8922575" lon="17.6451043">
        <ele>34.2642</ele>
        <time>2014-06-15T12:29:58Z</time>
      </trkpt>
      <trkpt lat="59.892245" lon="17.6452516">
        <ele>34.2642</ele>
        <time>2014-06-15T12:29:59Z</time>
      </trkpt>
      <trkpt lat="59.8922288" lon="17.6454026">
        <ele>34.2642</ele>
        <time>2014-06-15T12:30:00Z</time>
      </trkpt>
      <trkpt lat="59.8922114" lon="17.6455577">
        <ele>34.2642</ele>
        <time>2014-06-15T12:30:01Z</time>
      </trkpt>
      <trkpt lat="59.8921954" lon="17.6457101">
        <ele>34.2642</ele>
        <time>2014-06-15T12:30:02Z</time>
      </trkpt>
      <trkpt lat="59.8921798" lon="17.6458593">
        <ele>34.2642</ele>
        <time>2014-06-15T12:30:03Z</time>
      </trkpt>
      <trkpt lat="59.8921653" lon="17.6460056">
        <ele>34.2642</ele>
        <time>2014-06-15T12:30:04Z</time>
      </trkpt>
      <trkpt lat="59.8921509" lon="17.6461486">
        <ele>34.2642</ele>
        <time>2014-06-15T12:30:05Z</time>
      </trkpt>
      <trkpt lat="59.8921357" lon="17.6462881">
        <ele>34.2642</ele>
        <time>2014-06-15T12:30:06Z</time>
      </trkpt>
      <trkpt lat="59.8921202" lon="17.6464242">
        <ele>34.2642</ele>
        <time>2014-06-15T12:30:07Z</time>
      </trkpt>
      <trkpt lat="59.8921047" lon="17.646559">
        <ele>34.2642</ele>
        <time>2014-06-15T12:30:08Z</time>
      </trkpt>
      <trkpt lat="59.8920882" lon="17.6466941">
        <ele>34.2642</ele>
        <time>2014-06-15T12:30:09Z</time>
      </trkpt>
      <trkpt lat="59.8920694" lon="17.6468284">
        <ele>34.2642</ele>
        <time>2014-06-15T12:30:10Z</time>
      </trkpt>
      <trkpt lat="59.8920519" lon="17.646961">
        <ele>34.2642</ele>
        <time>2014-06-15T12:30:11Z</time>
      </trkpt>
      <trkpt lat="59.8920341" lon="17.6470943">
        <ele>34.2642</ele>
        <time>2014-06-15T12:30:12Z</time>
      </trkpt>
      <trkpt lat="59.8920139" lon="17.6472268">
        <ele>34.2642</ele>
        <time>2014-06-15T12:30:13Z</time>
      </trkpt>
      <trkpt lat="59.8919918" lon="17.6473573">
        <ele>34.2642</ele>
        <time>2014-06-15T12:30:14Z</time>
      </trkpt>
      <trkpt lat="59.8919706" lon="17.6474888">
        <ele>34.2642</ele>
        <time>2014-06-15T12:30:15Z</time>
      </trkpt>
      <trkpt lat="59.8919512" lon="17.6476223">
        <ele>34.2642</ele>
        <time>2014-06-15T12:30:16Z</time>
      </trkpt>
      <trkpt lat="59.8919343" lon="17.6477581">
        <ele>34.7449</ele>
        <time>2014-06-15T12:30:17Z</time>
      </trkpt>
      <trkpt lat="59.8919176" lon="17.647895">
        <ele>34.7449</ele>
        <time>2014-06-15T12:30:18Z</time>
      </trkpt>
      <trkpt lat="59.8918964" lon="17.6480313">
        <ele>34.7449</ele>
        <time>2014-06-15T12:30:19Z</time>
      </trkpt>
      <trkpt lat="59.8918737" lon="17.6481613">
        <ele>34.7449</ele>
        <time>2014-06-15T12:30:20Z</time>
      </trkpt>
      <trkpt lat="59.8918482" lon="17.6482846">
        <ele>34.7449</ele>
        <time>2014-06-15T12:30:21Z</time>
      </trkpt>
      <trkpt lat="59.891814" lon="17.648416">
        <ele>34.7449</ele>
        <time>2014-06-15T12:30:22Z</time>
      </trkpt>
      <trkpt lat="59.8917792" lon="17.6485405">
        <ele>34.7449</ele>
        <time>2014-06-15T12:30:23Z</time>
      </trkpt>
      <trkpt lat="59.8917504" lon="17.6486671">
        <ele>34.7449</ele>
        <time>2014-06-15T12:30:24Z</time>
      </trkpt>
      <trkpt lat="59.8917191" lon="17.6487878">
        <ele>34.7449</ele>
        <time>2014-06-15T12:30:25Z</time>
      </trkpt>
      <trkpt lat="59.8916797" lon="17.6488941">
        <ele>34.2642</ele>
        <time>2014-06-15T12:30:26Z</time>
      </trkpt>
      <trkpt lat="59.8916344" lon="17.6489884">
        <ele>34.2642</ele>
        <time>2014-06-15T12:30:27Z</time>
      </trkpt>
      <trkpt lat="59.8915929" lon="17.6490834">
        <ele>34.2642</ele>
        <time>2014-06-15T12:30:28Z</time>
      </trkpt>
      <trkpt lat="59.8915574" lon="17.6491931">
        <ele>33.7834</ele>
        <time>2014-06-15T12:30:29Z</time>
      </trkpt>
      <trkpt lat="59.8915277" lon="17.6493154">
        <ele>33.7834</ele>
        <time>2014-06-15T12:30:30Z</time>
      </trkpt>
      <trkpt lat="59.8915072" lon="17.6494506">
        <ele>33.7834</ele>
        <time>2014-06-15T12:30:31Z</time>
      </trkpt>
      <trkpt lat="59.8914991" lon="17.6495937">
        <ele>33.7834</ele>
        <time>2014-06-15T12:30:32Z</time>
      </trkpt>
      <trkpt lat="59.8914929" lon="17.6497411">
        <ele>33.7834</ele>
        <time>2014-06-15T12:30:33Z</time>
      </trkpt>
      <trkpt lat="59.8914742" lon="17.6498863">
        <ele>33.7834</ele>
        <time>2014-06-15T12:30:34Z</time>
      </trkpt>
      <trkpt lat="59.8914437" lon="17.650024">
        <ele>33.7834</ele>
        <time>2014-06-15T12:30:35Z</time>
      </trkpt>
      <trkpt lat="59.8914086" lon="17.6501565">
        <ele>33.7834</ele>
        <time>2014-06-15T12:30:36Z</time>
      </trkpt>
      <trkpt lat="59.8913726" lon="17.6502885">
        <ele>33.7834</ele>
        <time>2014-06-15T12:30:37Z</time>
      </trkpt>
      <trkpt lat="59.8913344" lon="17.6504187">
        <ele>33.7834</ele>
        <time>2014-06-15T12:30:38Z</time>
      </trkpt>
      <trkpt lat="59.8912935" lon="17.6505478">
        <ele>33.7834</ele>
        <time>2014-06-15T12:30:39Z</time>
      </trkpt>
      <trkpt lat="59.891252" lon="17.6506781">
        <ele>33.3029</ele>
        <time>2014-06-15T12:30:40Z</time>
      </trkpt>
      <trkpt lat="59.8912101" lon="17.6508094">
        <ele>33.3029</ele>
        <time>2014-06-15T12:30:41Z</time>
      </trkpt>
      <trkpt lat="59.891168" lon="17.6509424">
        <ele>33.3029</ele>
        <time>2014-06-15T12:30:42Z</time>
      </trkpt>
      <trkpt lat="59.8911261" lon="17.6510781">
        <ele>33.3029</ele>
        <time>2014-06-15T12:30:43Z</time>
      </trkpt>
      <trkpt lat="59.8910871" lon="17.6512171">
        <ele>33.3029</ele>
        <time>2014-06-15T12:30:44Z</time>
      </trkpt>
      <trkpt lat="59.8910498" lon="17.6513584">
        <ele>33.3029</ele>
        <time>2014-06-15T12:30:45Z</time>
      </trkpt>
      <trkpt lat="59.8910089" lon="17.6514961">
        <ele>33.3029</ele>
        <time>2014-06-15T12:30:46Z</time>
      </trkpt>
      <trkpt lat="59.8909639" lon="17.651631">
        <ele>33.3029</ele>
        <time>2014-06-15T12:30:47Z</time>
      </trkpt>
      <trkpt lat="59.8909194" lon="17.6517685">
        <ele>33.3029</ele>
        <time>2014-06-15T12:30:48Z</time>
      </trkpt>
      <trkpt lat="59.8908766" lon="17.651908">
        <ele>33.3029</ele>
        <time>2014-06-15T12:30:49Z</time>
      </trkpt>
      <trkpt lat="59.8908332" lon="17.6520462">
        <ele>33.3029</ele>
        <time>2014-06-15T12:30:50Z</time>
      </trkpt>
      <trkpt lat="59.8907861" lon="17.6521819">
        <ele>33.3029</ele>
        <time>2014-06-15T12:30:51Z</time>
      </trkpt>
      <trkpt lat="59.8907356" lon="17.6523161">
        <ele>33.3029</ele>
        <time>2014-06-15T12:30:52Z</time>
      </trkpt>
      <trkpt lat="59.8906839" lon="17.6524508">
        <ele>32.8223</ele>
        <time>2014-06-15T12:30:53Z</time>
      </trkpt>
      <trkpt lat="59.8906325" lon="17.6525866">
        <ele>32.8223</ele>
        <time>2014-06-15T12:30:54Z</time>
      </trkpt>
      <trkpt lat="59.8905808" lon="17.652724">
        <ele>32.8223</ele>
        <time>2014-06-15T12:30:55Z</time>
      </trkpt>
      <trkpt lat="59.8905288" lon="17.6528632">
        <ele>32.8223</ele>
        <time>2014-06-15T12:30:56Z</time>
      </trkpt>
      <trkpt lat="59.8904759" lon="17.6530041">
        <ele>32.3416</ele>
        <time>2014-06-15T12:30:57Z</time>
      </trkpt>
      <trkpt lat="59.8904221" lon="17.6531475">
        <ele>32.3416</ele>
        <time>2014-06-15T12:30:58Z</time>
      </trkpt>
      <trkpt lat="59.8903681" lon="17.6532927">
        <ele>32.3416</ele>
        <time>2014-06-15T12:30:59Z</time>
      </trkpt>
      <trkpt lat="59.890314" lon="17.6534399">
        <ele>32.3416</ele>
        <time>2014-06-15T12:31:00Z</time>
      </trkpt>
      <trkpt lat="59.8902601" lon="17.6535878">
        <ele>32.3416</ele>
        <time>2014-06-15T12:31:01Z</time>
      </trkpt>
      <trkpt lat="59.8902071" lon="17.653735">
        <ele>32.3416</ele>
        <time>2014-06-15T12:31:02Z</time>
      </trkpt>
      <trkpt lat="59.8901544" lon="17.6538822">
        <ele>31.8607</ele>
        <time>2014-06-15T12:31:03Z</time>
      </trkpt>
      <trkpt lat="59.8901034" lon="17.6540299">
        <ele>31.8607</ele>
        <time>2014-06-15T12:31:04Z</time>
      </trkpt>
      <trkpt lat="59.8900518" lon="17.6541753">
        <ele>31.8607</ele>
        <time>2014-06-15T12:31:05Z</time>
      </trkpt>
      <trkpt lat="59.8899972" lon="17.6543188">
        <ele>31.3801</ele>
        <time>2014-06-15T12:31:06Z</time>
      </trkpt>
      <trkpt lat="59.8899403" lon="17.6544611">
        <ele>31.3801</ele>
        <time>2014-06-15T12:31:07Z</time>
      </trkpt>
      <trkpt lat="59.8898829" lon="17.6546013">
        <ele>31.3801</ele>
        <time>2014-06-15T12:31:08Z</time>
      </trkpt>
      <trkpt lat="59.8898259" lon="17.6547424">
        <ele>31.3801</ele>
        <time>2014-06-15T12:31:09Z</time>
      </trkpt>
      <trkpt lat="59.8897711" lon="17.6548871">
        <ele>31.3801</ele>
        <time>2014-06-15T12:31:10Z</time>
      </trkpt>
      <trkpt lat="59.8897187" lon="17.6550362">
        <ele>30.8995</ele>
        <time>2014-06-15T12:31:11Z</time>
      </trkpt>
      <trkpt lat="59.8896657" lon="17.6551858">
        <ele>30.8995</ele>
        <time>2014-06-15T12:31:12Z</time>
      </trkpt>
      <trkpt lat="59.8896095" lon="17.6553357">
        <ele>30.8995</ele>
        <time>2014-06-15T12:31:13Z</time>
      </trkpt>
      <trkpt lat="59.8895548" lon="17.6554873">
        <ele>30.8995</ele>
        <time>2014-06-15T12:31:14Z</time>
      </trkpt>
      <trkpt lat="59.889499" lon="17.6556398">
        <ele>30.8995</ele>
        <time>2014-06-15T12:31:15Z</time>
      </trkpt>
      <trkpt lat="59.8894426" lon="17.6557921">
        <ele>30.8995</ele>
        <time>2014-06-15T12:31:16Z</time>
      </trkpt>
      <trkpt lat="59.8893846" lon="17.6559448">
        <ele>30.8995</ele>
        <time>2014-06-15T12:31:17Z</time>
      </trkpt>
      <trkpt lat="59.8893276" lon="17.6560987">
        <ele>30.8995</ele>
        <time>2014-06-15T12:31:18Z</time>
      </trkpt>
      <trkpt lat="59.8892709" lon="17.6562535">
        <ele>30.8995</ele>
        <time>2014-06-15T12:31:19Z</time>
      </trkpt>
      <trkpt lat="59.8892139" lon="17.6564101">
        <ele>30.8995</ele>
        <time>2014-06-15T12:31:20Z</time>
      </trkpt>
      <trkpt lat="59.8891586" lon="17.6565659">
        <ele>30.8995</ele>
        <time>2014-06-15T12:31:21Z</time>
      </trkpt>
      <trkpt lat="59.8891049" lon="17.6567223">
        <ele>30.4188</ele>
        <time>2014-06-15T12:31:22Z</time>
      </trkpt>
      <trkpt lat="59.8890524" lon="17.6568761">
        <ele>30.4188</ele>
        <time>2014-06-15T12:31:23Z</time>
      </trkpt>
      <trkpt lat="59.8890011" lon="17.6570285">
        <ele>30.4188</ele>
        <time>2014-06-15T12:31:24Z</time>
      </trkpt>
      <trkpt lat="59.8889489" lon="17.6571808">
        <ele>29.9381</ele>
        <time>2014-06-15T12:31:25Z</time>
      </trkpt>
      <trkpt lat="59.8888981" lon="17.6573365">
        <ele>29.9381</ele>
        <time>2014-06-15T12:31:26Z</time>
      </trkpt>
      <trkpt lat="59.8888458" lon="17.6574937">
        <ele>29.9381</ele>
        <time>2014-06-15T12:31:27Z</time>
      </trkpt>
      <trkpt lat="59.8887913" lon="17.6576499">
        <ele>29.9381</ele>
        <time>2014-06-15T12:31:28Z</time>
      </trkpt>
      <trkpt lat="59.8887355" lon="17.6578054">
        <ele>29.9381</ele>
        <time>2014-06-15T12:31:29Z</time>
      </trkpt>
      <trkpt lat="59.888679" lon="17.6579603">
        <ele>29.9381</ele>
        <time>2014-06-15T12:31:30Z</time>
      </trkpt>
      <trkpt lat="59.8886216" lon="17.6581149">
        <ele>29.9381</ele>
        <time>2014-06-15T12:31:31Z</time>
      </trkpt>
      <trkpt lat="59.8885639" lon="17.6582711">
        <ele>29.9381</ele>
        <time>2014-06-15T12:31:32Z</time>
      </trkpt>
      <trkpt lat="59.8885055" lon="17.6584286">
        <ele>29.9381</ele>
        <time>2014-06-15T12:31:33Z</time>
      </trkpt>
      <trkpt lat="59.8884466" lon="17.6585862">
        <ele>29.4575</ele>
        <time>2014-06-15T12:31:34Z</time>
      </trkpt>
      <trkpt lat="59.8883878" lon="17.6587441">
        <ele>29.4575</ele>
        <time>2014-06-15T12:31:35Z</time>
      </trkpt>
      <trkpt lat="59.8883293" lon="17.6589015">
        <ele>29.4575</ele>
        <time>2014-06-15T12:31:36Z</time>
      </trkpt>
      <trkpt lat="59.8882717" lon="17.6590591">
        <ele>29.4575</ele>
        <time>2014-06-15T12:31:37Z</time>
      </trkpt>
      <trkpt lat="59.8882161" lon="17.6592161">
        <ele>29.4575</ele>
        <time>2014-06-15T12:31:38Z</time>
      </trkpt>
      <trkpt lat="59.8881617" lon="17.6593705">
        <ele>29.4575</ele>
        <time>2014-06-15T12:31:39Z</time>
      </trkpt>
      <trkpt lat="59.8881067" lon="17.6595216">
        <ele>29.4575</ele>
        <time>2014-06-15T12:31:40Z</time>
      </trkpt>
      <trkpt lat="59.888051" lon="17.6596709">
        <ele>29.4575</ele>
        <time>2014-06-15T12:31:41Z</time>
      </trkpt>
      <trkpt lat="59.8879951" lon="17.6598211">
        <ele>29.4575</ele>
        <time>2014-06-15T12:31:42Z</time>
      </trkpt>
      <trkpt lat="59.8879391" lon="17.6599719">
        <ele>29.4575</ele>
        <time>2014-06-15T12:31:43Z</time>
      </trkpt>
      <trkpt lat="59.8878811" lon="17.6601217">
        <ele>28.9769</ele>
        <time>2014-06-15T12:31:44Z</time>
      </trkpt>
      <trkpt lat="59.8878211" lon="17.6602701">
        <ele>28.9769</ele>
        <time>2014-06-15T12:31:45Z</time>
      </trkpt>
      <trkpt lat="59.887759" lon="17.6604159">
        <ele>28.9769</ele>
        <time>2014-06-15T12:31:46Z</time>
      </trkpt>
      <trkpt lat="59.8876931" lon="17.6605542">
        <ele>28.9769</ele>
        <time>2014-06-15T12:31:47Z</time>
      </trkpt>
      <trkpt lat="59.8876219" lon="17.6606795">
        <ele>28.9769</ele>
        <time>2014-06-15T12:31:48Z</time>
      </trkpt>
      <trkpt lat="59.8875463" lon="17.6607891">
        <ele>29.4575</ele>
        <time>2014-06-15T12:31:49Z</time>
      </trkpt>
      <trkpt lat="59.8874673" lon="17.6608789">
        <ele>29.4575</ele>
        <time>2014-06-15T12:31:50Z</time>
      </trkpt>
      <trkpt lat="59.8873841" lon="17.6609422">
        <ele>29.4575</ele>
        <time>2014-06-15T12:31:51Z</time>
      </trkpt>
      <trkpt lat="59.8872992" lon="17.6609709">
        <ele>29.4575</ele>
        <time>2014-06-15T12:31:52Z</time>
      </trkpt>
      <trkpt lat="59.8872171" lon="17.660956">
        <ele>29.4575</ele>
        <time>2014-06-15T12:31:53Z</time>
      </trkpt>
      <trkpt lat="59.8871412" lon="17.6609104">
        <ele>29.4575</ele>
        <time>2014-06-15T12:31:54Z</time>
      </trkpt>
      <trkpt lat="59.8870699" lon="17.6608809">
        <ele>29.4575</ele>
        <time>2014-06-15T12:31:55Z</time>
      </trkpt>
      <trkpt lat="59.8870001" lon="17.6608929">
        <ele>28.9769</ele>
        <time>2014-06-15T12:31:56Z</time>
      </trkpt>
      <trkpt lat="59.886952" lon="17.6609819">
        <ele>28.9769</ele>
        <time>2014-06-15T12:31:57Z</time>
      </trkpt>
      <trkpt lat="59.8869326" lon="17.6611108">
        <ele>28.9769</ele>
        <time>2014-06-15T12:31:58Z</time>
      </trkpt>
      <trkpt lat="59.8869391" lon="17.6612383">
        <ele>28.9769</ele>
        <time>2014-06-15T12:31:59Z</time>
      </trkpt>
      <trkpt lat="59.8869588" lon="17.6613688">
        <ele>28.9769</ele>
        <time>2014-06-15T12:32:00Z</time>
      </trkpt>
      <trkpt lat="59.886985" lon="17.6615008">
        <ele>28.9769</ele>
        <time>2014-06-15T12:32:01Z</time>
      </trkpt>
      <trkpt lat="59.8870033" lon="17.6616443">
        <ele>28.9769</ele>
        <time>2014-06-15T12:32:02Z</time>
      </trkpt>
      <trkpt lat="59.8870083" lon="17.6617938">
        <ele>28.9769</ele>
        <time>2014-06-15T12:32:03Z</time>
      </trkpt>
      <trkpt lat="59.8870017" lon="17.6619489">
        <ele>28.9769</ele>
        <time>2014-06-15T12:32:04Z</time>
      </trkpt>
      <trkpt lat="59.8869867" lon="17.6621035">
        <ele>28.9769</ele>
        <time>2014-06-15T12:32:05Z</time>
      </trkpt>
      <trkpt lat="59.8869637" lon="17.6622531">
        <ele>28.9769</ele>
        <time>2014-06-15T12:32:06Z</time>
      </trkpt>
      <trkpt lat="59.8869337" lon="17.6623982">
        <ele>28.4962</ele>
        <time>2014-06-15T12:32:07Z</time>
      </trkpt>
      <trkpt lat="59.8868981" lon="17.6625366">
        <ele>28.4962</ele>
        <time>2014-06-15T12:32:08Z</time>
      </trkpt>
      <trkpt lat="59.8868593" lon="17.6626697">
        <ele>28.4962</ele>
        <time>2014-06-15T12:32:09Z</time>
      </trkpt>
      <trkpt lat="59.8868189" lon="17.6628003">
        <ele>28.0155</ele>
        <time>2014-06-15T12:32:10Z</time>
      </trkpt>
      <trkpt lat="59.8867752" lon="17.6629261">
        <ele>28.0155</ele>
        <time>2014-06-15T12:32:11Z</time>
      </trkpt>
      <trkpt lat="59.8867272" lon="17.6630451">
        <ele>28.0155</ele>
        <time>2014-06-15T12:32:12Z</time>
      </trkpt>
      <trkpt lat="59.8866755" lon="17.6631562">
        <ele>28.0155</ele>
        <time>2014-06-15T12:32:13Z</time>
      </trkpt>
      <trkpt lat="59.8866211" lon="17.6632615">
        <ele>27.5349</ele>
        <time>2014-06-15T12:32:14Z</time>
      </trkpt>
      <trkpt lat="59.886563" lon="17.6633617">
        <ele>27.5349</ele>
        <time>2014-06-15T12:32:15Z</time>
      </trkpt>
      <trkpt lat="59.8864994" lon="17.6634561">
        <ele>27.5349</ele>
        <time>2014-06-15T12:32:16Z</time>
      </trkpt>
      <trkpt lat="59.8864304" lon="17.6635436">
        <ele>27.5349</ele>
        <time>2014-06-15T12:32:17Z</time>
      </trkpt>
      <trkpt lat="59.8863563" lon="17.6636211">
        <ele>27.5349</ele>
        <time>2014-06-15T12:32:18Z</time>
      </trkpt>
      <trkpt lat="59.8862786" lon="17.6636782">
        <ele>27.5349</ele>
        <time>2014-06-15T12:32:19Z</time>
      </trkpt>
      <trkpt lat="59.8861984" lon="17.6636996">
        <ele>27.5349</ele>
        <time>2014-06-15T12:32:20Z</time>
      </trkpt>
      <trkpt lat="59.8861196" lon="17.663687">
        <ele>27.5349</ele>
        <time>2014-06-15T12:32:21Z</time>
      </trkpt>
      <trkpt lat="59.886045" lon="17.6636526">
        <ele>27.5349</ele>
        <time>2014-06-15T12:32:22Z</time>
      </trkpt>
      <trkpt lat="59.8859713" lon="17.6636099">
        <ele>27.5349</ele>
        <time>2014-06-15T12:32:23Z</time>
      </trkpt>
      <trkpt lat="59.8858935" lon="17.6635837">
        <ele>27.5349</ele>
        <time>2014-06-15T12:32:24Z</time>
      </trkpt>
      <trkpt lat="59.8858119" lon="17.6635886">
        <ele>27.5349</ele>
        <time>2014-06-15T12:32:25Z</time>
      </trkpt>
      <trkpt lat="59.8857299" lon="17.6636273">
        <ele>27.5349</ele>
        <time>2014-06-15T12:32:26Z</time>
      </trkpt>
      <trkpt lat="59.8856524" lon="17.6637026">
        <ele>28.0155</ele>
        <time>2014-06-15T12:32:27Z</time>
      </trkpt>
      <trkpt lat="59.8855845" lon="17.6638146">
        <ele>28.0155</ele>
        <time>2014-06-15T12:32:28Z</time>
      </trkpt>
      <trkpt lat="59.8855294" lon="17.6639568">
        <ele>28.0155</ele>
        <time>2014-06-15T12:32:29Z</time>
      </trkpt>
      <trkpt lat="59.8854869" lon="17.6641174">
        <ele>28.0155</ele>
        <time>2014-06-15T12:32:30Z</time>
      </trkpt>
      <trkpt lat="59.8854493" lon="17.6642841">
        <ele>28.0155</ele>
        <time>2014-06-15T12:32:31Z</time>
      </trkpt>
      <trkpt lat="59.8854098" lon="17.6644507">
        <ele>28.0155</ele>
        <time>2014-06-15T12:32:32Z</time>
      </trkpt>
      <trkpt lat="59.8853669" lon="17.6646146">
        <ele>28.0155</ele>
        <time>2014-06-15T12:32:33Z</time>
      </trkpt>
      <trkpt lat="59.8853225" lon="17.6647749">
        <ele>28.0155</ele>
        <time>2014-06-15T12:32:34Z</time>
      </trkpt>
      <trkpt lat="59.8852783" lon="17.6649333">
        <ele>28.0155</ele>
        <time>2014-06-15T12:32:35Z</time>
      </trkpt>
      <trkpt lat="59.8852349" lon="17.6650898">
        <ele>28.0155</ele>
        <time>2014-06-15T12:32:36Z</time>
      </trkpt>
      <trkpt lat="59.8851939" lon="17.6652436">
        <ele>28.0155</ele>
        <time>2014-06-15T12:32:37Z</time>
      </trkpt>
      <trkpt lat="59.885158" lon="17.6653971">
        <ele>28.0155</ele>
        <time>2014-06-15T12:32:38Z</time>
      </trkpt>
      <trkpt lat="59.8851286" lon="17.6655535">
        <ele>28.4962</ele>
        <time>2014-06-15T12:32:39Z</time>
      </trkpt>
      <trkpt lat="59.8851043" lon="17.6657121">
        <ele>28.4962</ele>
        <time>2014-06-15T12:32:40Z</time>
      </trkpt>
      <trkpt lat="59.885084" lon="17.6658711">
        <ele>28.4962</ele>
        <time>2014-06-15T12:32:41Z</time>
      </trkpt>
      <trkpt lat="59.8850658" lon="17.6660305">
        <ele>28.4962</ele>
        <time>2014-06-15T12:32:42Z</time>
      </trkpt>
      <trkpt lat="59.8850488" lon="17.6661897">
        <ele>28.4962</ele>
        <time>2014-06-15T12:32:43Z</time>
      </trkpt>
      <trkpt lat="59.8850333" lon="17.6663487">
        <ele>28.4962</ele>
        <time>2014-06-15T12:32:44Z</time>
      </trkpt>
      <trkpt lat="59.8850198" lon="17.6665081">
        <ele>28.4962</ele>
        <time>2014-06-15T12:32:45Z</time>
      </trkpt>
      <trkpt lat="59.8850088" lon="17.6666677">
        <ele>28.9769</ele>
        <time>2014-06-15T12:32:46Z</time>
      </trkpt>
      <trkpt lat="59.8849938" lon="17.6668241">
        <ele>28.9769</ele>
        <time>2014-06-15T12:32:47Z</time>
      </trkpt>
      <trkpt lat="59.8849665" lon="17.6669718">
        <ele>28.9769</ele>
        <time>2014-06-15T12:32:48Z</time>
      </trkpt>
      <trkpt lat="59.8849251" lon="17.6671041">
        <ele>28.9769</ele>
        <time>2014-06-15T12:32:49Z</time>
      </trkpt>
      <trkpt lat="59.8848733" lon="17.6672203">
        <ele>28.9769</ele>
        <time>2014-06-15T12:32:50Z</time>
      </trkpt>
      <trkpt lat="59.884822" lon="17.6673367">
        <ele>28.9769</ele>
        <time>2014-06-15T12:32:51Z</time>
      </trkpt>
      <trkpt lat="59.8847848" lon="17.667471">
        <ele>29.4575</ele>
        <time>2014-06-15T12:32:52Z</time>
      </trkpt>
      <trkpt lat="59.8847689" lon="17.6676213">
        <ele>29.4575</ele>
        <time>2014-06-15T12:32:53Z</time>
      </trkpt>
      <trkpt lat="59.8847705" lon="17.6677773">
        <ele>29.4575</ele>
        <time>2014-06-15T12:32:54Z</time>
      </trkpt>
      <trkpt lat="59.8847764" lon="17.6679358">
        <ele>29.4575</ele>
        <time>2014-06-15T12:32:55Z</time>
      </trkpt>
      <trkpt lat="59.8847702" lon="17.6680889">
        <ele>29.4575</ele>
        <time>2014-06-15T12:32:56Z</time>
      </trkpt>
      <trkpt lat="59.8847492" lon="17.6682367">
        <ele>29.4575</ele>
        <time>2014-06-15T12:32:57Z</time>
      </trkpt>
      <trkpt lat="59.8847182" lon="17.6683823">
        <ele>29.4575</ele>
        <time>2014-06-15T12:32:58Z</time>
      </trkpt>
      <trkpt lat="59.884681" lon="17.6685233">
        <ele>29.9381</ele>
        <time>2014-06-15T12:32:59Z</time>
      </trkpt>
      <trkpt lat="59.8846411" lon="17.6686615">
        <ele>29.9381</ele>
        <time>2014-06-15T12:33:00Z</time>
      </trkpt>
      <trkpt lat="59.884599" lon="17.6687971">
        <ele>29.9381</ele>
        <time>2014-06-15T12:33:01Z</time>
      </trkpt>
      <trkpt lat="59.8845546" lon="17.6689312">
        <ele>29.9381</ele>
        <time>2014-06-15T12:33:02Z</time>
      </trkpt>
      <trkpt lat="59.8845084" lon="17.6690641">
        <ele>29.9381</ele>
        <time>2014-06-15T12:33:03Z</time>
      </trkpt>
      <trkpt lat="59.8844612" lon="17.6691956">
        <ele>30.4188</ele>
        <time>2014-06-15T12:33:04Z</time>
      </trkpt>
      <trkpt lat="59.8844125" lon="17.6693246">
        <ele>30.4188</ele>
        <time>2014-06-15T12:33:05Z</time>
      </trkpt>
      <trkpt lat="59.8843618" lon="17.669452">
        <ele>30.4188</ele>
        <time>2014-06-15T12:33:06Z</time>
      </trkpt>
      <trkpt lat="59.8843096" lon="17.6695792">
        <ele>30.4188</ele>
        <time>2014-06-15T12:33:07Z</time>
      </trkpt>
      <trkpt lat="59.8842558" lon="17.6697058">
        <ele>30.4188</ele>
        <time>2014-06-15T12:33:08Z</time>
      </trkpt>
      <trkpt lat="59.8842004" lon="17.6698306">
        <ele>30.4188</ele>
        <time>2014-06-15T12:33:09Z</time>
      </trkpt>
      <trkpt lat="59.8841439" lon="17.6699542">
        <ele>30.4188</ele>
        <time>2014-06-15T12:33:10Z</time>
      </trkpt>
      <trkpt lat="59.8840865" lon="17.6700741">
        <ele>30.4188</ele>
        <time>2014-06-15T12:33:11Z</time>
      </trkpt>
      <trkpt lat="59.8840261" lon="17.6701833">
        <ele>30.4188</ele>
        <time>2014-06-15T12:33:12Z</time>
      </trkpt>
      <trkpt lat="59.8839584" lon="17.6702688">
        <ele>30.8995</ele>
        <time>2014-06-15T12:33:13Z</time>
      </trkpt>
      <trkpt lat="59.8838833" lon="17.670322">
        <ele>30.8995</ele>
        <time>2014-06-15T12:33:14Z</time>
      </trkpt>
      <trkpt lat="59.8838057" lon="17.6703615">
        <ele>30.8995</ele>
        <time>2014-06-15T12:33:15Z</time>
      </trkpt>
      <trkpt lat="59.8837324" lon="17.6704232">
        <ele>30.8995</ele>
        <time>2014-06-15T12:33:16Z</time>
      </trkpt>
      <trkpt lat="59.8836694" lon="17.6705226">
        <ele>30.8995</ele>
        <time>2014-06-15T12:33:17Z</time>
      </trkpt>
      <trkpt lat="59.8836212" lon="17.6706527">
        <ele>30.8995</ele>
        <time>2014-06-15T12:33:18Z</time>
      </trkpt>
      <trkpt lat="59.8835834" lon="17.6707992">
        <ele>30.8995</ele>
        <time>2014-06-15T12:33:19Z</time>
      </trkpt>
      <trkpt lat="59.8835438" lon="17.6709453">
        <ele>30.8995</ele>
        <time>2014-06-15T12:33:20Z</time>
      </trkpt>
      <trkpt lat="59.8834923" lon="17.6710754">
        <ele>31.3801</ele>
        <time>2014-06-15T12:33:21Z</time>
      </trkpt>
      <trkpt lat="59.8834309" lon="17.6711871">
        <ele>31.3801</ele>
        <time>2014-06-15T12:33:22Z</time>
      </trkpt>
      <trkpt lat="59.8833651" lon="17.6712888">
        <ele>31.3801</ele>
        <time>2014-06-15T12:33:23Z</time>
      </trkpt>
      <trkpt lat="59.8832973" lon="17.671386">
        <ele>31.3801</ele>
        <time>2014-06-15T12:33:24Z</time>
      </trkpt>
      <trkpt lat="59.8832283" lon="17.671482">
        <ele>31.3801</ele>
        <time>2014-06-15T12:33:25Z</time>
      </trkpt>
      <trkpt lat="59.8831584" lon="17.671577">
        <ele>31.3801</ele>
        <time>2014-06-15T12:33:26Z</time>
      </trkpt>
      <trkpt lat="59.8830861" lon="17.6716671">
        <ele>31.3801</ele>
        <time>2014-06-15T12:33:27Z</time>
      </trkpt>
      <trkpt lat="59.8830111" lon="17.6717514">
        <ele>31.3801</ele>
        <time>2014-06-15T12:33:28Z</time>
      </trkpt>
      <trkpt lat="59.8829346" lon="17.6718303">
        <ele>31.3801</ele>
        <time>2014-06-15T12:33:29Z</time>
      </trkpt>
      <trkpt lat="59.8828571" lon="17.6719027">
        <ele>31.8607</ele>
        <time>2014-06-15T12:33:30Z</time>
      </trkpt>
      <trkpt lat="59.8827803" lon="17.6719716">
        <ele>31.8607</ele>
        <time>2014-06-15T12:33:31Z</time>
      </trkpt>
      <trkpt lat="59.8827041" lon="17.6720373">
        <ele>31.8607</ele>
        <time>2014-06-15T12:33:32Z</time>
      </trkpt>
      <trkpt lat="59.8826292" lon="17.6720995">
        <ele>31.8607</ele>
        <time>2014-06-15T12:33:33Z</time>
      </trkpt>
      <trkpt lat="59.8825552" lon="17.6721607">
        <ele>31.8607</ele>
        <time>2014-06-15T12:33:34Z</time>
      </trkpt>
      <trkpt lat="59.8824809" lon="17.6722218">
        <ele>31.8607</ele>
        <time>2014-06-15T12:33:35Z</time>
      </trkpt>
      <trkpt lat="59.8824065" lon="17.6722839">
        <ele>31.8607</ele>
        <time>2014-06-15T12:33:36Z</time>
      </trkpt>
      <trkpt lat="59.8823323" lon="17.6723456">
        <ele>31.8607</ele>
        <time>2014-06-15T12:33:37Z</time>
      </trkpt>
      <trkpt lat="59.8822578" lon="17.6724067">
        <ele>31.8607</ele>
        <time>2014-06-15T12:33:38Z</time>
      </trkpt>
      <trkpt lat="59.8821832" lon="17.6724678">
        <ele>31.8607</ele>
        <time>2014-06-15T12:33:39Z</time>
      </trkpt>
      <trkpt lat="59.8821081" lon="17.6725291">
        <ele>31.8607</ele>
        <time>2014-06-15T12:33:40Z</time>
      </trkpt>
      <trkpt lat="59.882033" lon="17.6725911">
        <ele>31.8607</ele>
        <time>2014-06-15T12:33:41Z</time>
      </trkpt>
      <trkpt lat="59.8819583" lon="17.6726536">
        <ele>31.8607</ele>
        <time>2014-06-15T12:33:42Z</time>
      </trkpt>
      <trkpt lat="59.8818839" lon="17.6727169">
        <ele>32.3416</ele>
        <time>2014-06-15T12:33:43Z</time>
      </trkpt>
      <trkpt lat="59.8818098" lon="17.6727792">
        <ele>32.3416</ele>
        <time>2014-06-15T12:33:44Z</time>
      </trkpt>
      <trkpt lat="59.8817358" lon="17.6728403">
        <ele>32.3416</ele>
        <time>2014-06-15T12:33:45Z</time>
      </trkpt>
      <trkpt lat="59.8816621" lon="17.6728998">
        <ele>32.3416</ele>
        <time>2014-06-15T12:33:46Z</time>
      </trkpt>
      <trkpt lat="59.8815886" lon="17.6729602">
        <ele>32.3416</ele>
        <time>2014-06-15T12:33:47Z</time>
      </trkpt>
      <trkpt lat="59.8815155" lon="17.6730215">
        <ele>32.3416</ele>
        <time>2014-06-15T12:33:48Z</time>
      </trkpt>
      <trkpt lat="59.8814424" lon="17.673082">
        <ele>32.3416</ele>
        <time>2014-06-15T12:33:49Z</time>
      </trkpt>
      <trkpt lat="59.8813694" lon="17.6731427">
        <ele>32.3416</ele>
        <time>2014-06-15T12:33:50Z</time>
      </trkpt>
      <trkpt lat="59.8812964" lon="17.6732044">
        <ele>32.8223</ele>
        <time>2014-06-15T12:33:51Z</time>
      </trkpt>
      <trkpt lat="59.8812237" lon="17.6732662">
        <ele>32.8223</ele>
        <time>2014-06-15T12:33:52Z</time>
      </trkpt>
      <trkpt lat="59.8811508" lon="17.6733283">
        <ele>32.8223</ele>
        <time>2014-06-15T12:33:53Z</time>
      </trkpt>
      <trkpt lat="59.8810781" lon="17.6733903">
        <ele>32.8223</ele>
        <time>2014-06-15T12:33:54Z</time>
      </trkpt>
      <trkpt lat="59.8810053" lon="17.6734518">
        <ele>32.8223</ele>
        <time>2014-06-15T12:33:55Z</time>
      </trkpt>
      <trkpt lat="59.8809328" lon="17.673515">
        <ele>32.8223</ele>
        <time>2014-06-15T12:33:56Z</time>
      </trkpt>
      <trkpt lat="59.8808607" lon="17.67358">
        <ele>32.8223</ele>
        <time>2014-06-15T12:33:57Z</time>
      </trkpt>
      <trkpt lat="59.880788" lon="17.6736452">
        <ele>32.8223</ele>
        <time>2014-06-15T12:33:58Z</time>
      </trkpt>
      <trkpt lat="59.8807147" lon="17.6737116">
        <ele>32.8223</ele>
        <time>2014-06-15T12:33:59Z</time>
      </trkpt>
      <trkpt lat="59.8806411" lon="17.6737798">
        <ele>32.8223</ele>
        <time>2014-06-15T12:34:00Z</time>
      </trkpt>
      <trkpt lat="59.8805674" lon="17.673849">
        <ele>32.8223</ele>
        <time>2014-06-15T12:34:01Z</time>
      </trkpt>
      <trkpt lat="59.8804935" lon="17.6739194">
        <ele>32.8223</ele>
        <time>2014-06-15T12:34:02Z</time>
      </trkpt>
      <trkpt lat="59.8804199" lon="17.6739908">
        <ele>32.8223</ele>
        <time>2014-06-15T12:34:03Z</time>
      </trkpt>
      <trkpt lat="59.8803474" lon="17.6740617">
        <ele>33.3029</ele>
        <time>2014-06-15T12:34:04Z</time>
      </trkpt>
      <trkpt lat="59.8802754" lon="17.6741322">
        <ele>33.3029</ele>
        <time>2014-06-15T12:34:05Z</time>
      </trkpt>
      <trkpt lat="59.8802037" lon="17.6742035">
        <ele>33.3029</ele>
        <time>2014-06-15T12:34:06Z</time>
      </trkpt>
      <trkpt lat="59.880132" lon="17.6742755">
        <ele>33.3029</ele>
        <time>2014-06-15T12:34:07Z</time>
      </trkpt>
      <trkpt lat="59.8800604" lon="17.6743465">
        <ele>33.3029</ele>
        <time>2014-06-15T12:34:08Z</time>
      </trkpt>
      <trkpt lat="59.8799884" lon="17.6744171">
        <ele>33.7834</ele>
        <time>2014-06-15T12:34:09Z</time>
      </trkpt>
      <trkpt lat="59.8799168" lon="17.6744895">
        <ele>33.7834</ele>
        <time>2014-06-15T12:34:10Z</time>
      </trkpt>
      <trkpt lat="59.8798453" lon="17.6745626">
        <ele>33.7834</ele>
        <time>2014-06-15T12:34:11Z</time>
      </trkpt>
      <trkpt lat="59.8797739" lon="17.6746357">
        <ele>33.7834</ele>
        <time>2014-06-15T12:34:12Z</time>
      </trkpt>
      <trkpt lat="59.8797019" lon="17.6747096">
        <ele>33.7834</ele>
        <time>2014-06-15T12:34:13Z</time>
      </trkpt>
      <trkpt lat="59.8796292" lon="17.6747831">
        <ele>33.7834</ele>
        <time>2014-06-15T12:34:14Z</time>
      </trkpt>
      <trkpt lat="59.8795553" lon="17.6748525">
        <ele>33.7834</ele>
        <time>2014-06-15T12:34:15Z</time>
      </trkpt>
      <trkpt lat="59.8794823" lon="17.6749196">
        <ele>33.7834</ele>
        <time>2014-06-15T12:34:16Z</time>
      </trkpt>
      <trkpt lat="59.8794118" lon="17.6749898">
        <ele>33.7834</ele>
        <time>2014-06-15T12:34:17Z</time>
      </trkpt>
      <trkpt lat="59.8793424" lon="17.6750608">
        <ele>33.7834</ele>
        <time>2014-06-15T12:34:18Z</time>
      </trkpt>
      <trkpt lat="59.8792725" lon="17.6751266">
        <ele>33.7834</ele>
        <time>2014-06-15T12:34:19Z</time>
      </trkpt>
      <trkpt lat="59.8792001" lon="17.6751744">
        <ele>33.7834</ele>
        <time>2014-06-15T12:34:20Z</time>
      </trkpt>
      <trkpt lat="59.8791254" lon="17.6751833">
        <ele>33.7834</ele>
        <time>2014-06-15T12:34:21Z</time>
      </trkpt>
      <trkpt lat="59.8790524" lon="17.6751447">
        <ele>33.3029</ele>
        <time>2014-06-15T12:34:22Z</time>
      </trkpt>
      <trkpt lat="59.8789889" lon="17.6750618">
        <ele>33.3029</ele>
        <time>2014-06-15T12:34:23Z</time>
      </trkpt>
      <trkpt lat="59.8789374" lon="17.6749474">
        <ele>33.3029</ele>
        <time>2014-06-15T12:34:24Z</time>
      </trkpt>
      <trkpt lat="59.8788903" lon="17.6748283">
        <ele>32.8223</ele>
        <time>2014-06-15T12:34:25Z</time>
      </trkpt>
      <trkpt lat="59.8788333" lon="17.6747326">
        <ele>32.8223</ele>
        <time>2014-06-15T12:34:26Z</time>
      </trkpt>
      <trkpt lat="59.8787567" lon="17.6746493">
        <ele>32.8223</ele>
        <time>2014-06-15T12:34:27Z</time>
      </trkpt>
      <trkpt lat="59.878681" lon="17.6746315">
        <ele>32.8223</ele>
        <time>2014-06-15T12:34:28Z</time>
      </trkpt>
      <trkpt lat="59.8786068" lon="17.6746414">
        <ele>32.8223</ele>
        <time>2014-06-15T12:34:29Z</time>
      </trkpt>
      <trkpt lat="59.8785375" lon="17.6746588">
        <ele>32.8223</ele>
        <time>2014-06-15T12:34:30Z</time>
      </trkpt>
      <trkpt lat="59.8784686" lon="17.6746818">
        <ele>32.3416</ele>
        <time>2014-06-15T12:34:31Z</time>
      </trkpt>
      <trkpt lat="59.8784106" lon="17.6746963">
        <ele>31.3801</ele>
        <time>2014-06-15T12:34:32Z</time>
      </trkpt>
      <trkpt lat="59.8783545" lon="17.6747261">
        <ele>31.3801</ele>
        <time>2014-06-15T12:34:33Z</time>
      </trkpt>
      <trkpt lat="59.8782934" lon="17.6747829">
        <ele>30.8995</ele>
        <time>2014-06-15T12:34:34Z</time>
      </trkpt>
      <trkpt lat="59.878233" lon="17.674848">
        <ele>30.4188</ele>
        <time>2014-06-15T12:34:35Z</time>
      </trkpt>
      <trkpt lat="59.8781738" lon="17.6749155">
        <ele>30.4188</ele>
        <time>2014-06-15T12:34:36Z</time>
      </trkpt>
      <trkpt lat="59.8781156" lon="17.6749865">
        <ele>29.9381</ele>
        <time>2014-06-15T12:34:37Z</time>
      </trkpt>
      <trkpt lat="59.8780573" lon="17.6750567">
        <ele>29.9381</ele>
        <time>2014-06-15T12:34:38Z</time>
      </trkpt>
      <trkpt lat="59.8780001" lon="17.675125">
        <ele>29.4575</ele>
        <time>2014-06-15T12:34:39Z</time>
      </trkpt>
      <trkpt lat="59.8779462" lon="17.6751899">
        <ele>29.4575</ele>
        <time>2014-06-15T12:34:40Z</time>
      </trkpt>
      <trkpt lat="59.8778972" lon="17.6752436">
        <ele>29.4575</ele>
        <time>2014-06-15T12:34:41Z</time>
      </trkpt>
      <trkpt lat="59.8778522" lon="17.6752859">
        <ele>29.4575</ele>
        <time>2014-06-15T12:34:42Z</time>
      </trkpt>
      <trkpt lat="59.877809" lon="17.6753165">
        <ele>29.4575</ele>
        <time>2014-06-15T12:34:43Z</time>
      </trkpt>
      <trkpt lat="59.8777678" lon="17.6753339">
        <ele>28.9769</ele>
        <time>2014-06-15T12:34:44Z</time>
      </trkpt>
      <trkpt lat="59.8777351" lon="17.6753691">
        <ele>28.9769</ele>
        <time>2014-06-15T12:34:45Z</time>
      </trkpt>
      <trkpt lat="59.8777238" lon="17.6754535">
        <ele>28.9769</ele>
        <time>2014-06-15T12:34:46Z</time>
      </trkpt>
      <trkpt lat="59.8777284" lon="17.6755544">
        <ele>28.9769</ele>
        <time>2014-06-15T12:34:47Z</time>
      </trkpt>
      <trkpt lat="59.8777408" lon="17.6756682">
        <ele>28.9769</ele>
        <time>2014-06-15T12:34:48Z</time>
      </trkpt>
      <trkpt lat="59.8777542" lon="17.6757981">
        <ele>28.9769</ele>
        <time>2014-06-15T12:34:49Z</time>
      </trkpt>
      <trkpt lat="59.8777697" lon="17.6759323">
        <ele>28.4962</ele>
        <time>2014-06-15T12:34:50Z</time>
      </trkpt>
      <trkpt lat="59.8777894" lon="17.6760815">
        <ele>28.4962</ele>
        <time>2014-06-15T12:34:51Z</time>
      </trkpt>
      <trkpt lat="59.8778267" lon="17.6762255">
        <ele>28.4962</ele>
        <time>2014-06-15T12:34:52Z</time>
      </trkpt>
      <trkpt lat="59.8778547" lon="17.6763771">
        <ele>28.0155</ele>
        <time>2014-06-15T12:34:53Z</time>
      </trkpt>
      <trkpt lat="59.8778857" lon="17.6765154">
        <ele>28.0155</ele>
        <time>2014-06-15T12:34:54Z</time>
      </trkpt>
      <trkpt lat="59.8778925" lon="17.6766156">
        <ele>27.0543</ele>
        <time>2014-06-15T12:34:55Z</time>
      </trkpt>
      <trkpt lat="59.8779402" lon="17.6767738">
        <ele>26.0929</ele>
        <time>2014-06-15T12:34:56Z</time>
      </trkpt>
      <trkpt lat="59.8779909" lon="17.6769523">
        <ele>25.6123</ele>
        <time>2014-06-15T12:34:57Z</time>
      </trkpt>
      <trkpt lat="59.8780543" lon="17.6770479">
        <ele>26.0929</ele>
        <time>2014-06-15T12:34:58Z</time>
      </trkpt>
      <trkpt lat="59.8780909" lon="17.6771242">
        <ele>26.5736</ele>
        <time>2014-06-15T12:34:59Z</time>
      </trkpt>
      <trkpt lat="59.8781412" lon="17.6772084">
        <ele>27.0543</ele>
        <time>2014-06-15T12:35:00Z</time>
      </trkpt>
      <trkpt lat="59.8781737" lon="17.6772973">
        <ele>28.0155</ele>
        <time>2014-06-15T12:35:01Z</time>
      </trkpt>
      <trkpt lat="59.8781899" lon="17.6773987">
        <ele>28.4962</ele>
        <time>2014-06-15T12:35:02Z</time>
      </trkpt>
      <trkpt lat="59.8781887" lon="17.6775017">
        <ele>28.9769</ele>
        <time>2014-06-15T12:35:03Z</time>
      </trkpt>
      <trkpt lat="59.8781726" lon="17.6775987">
        <ele>29.4575</ele>
        <time>2014-06-15T12:35:04Z</time>
      </trkpt>
      <trkpt lat="59.8781504" lon="17.6776842">
        <ele>29.9381</ele>
        <time>2014-06-15T12:35:05Z</time>
      </trkpt>
      <trkpt lat="59.8781343" lon="17.6777708">
        <ele>30.4188</ele>
        <time>2014-06-15T12:35:06Z</time>
      </trkpt>
      <trkpt lat="59.8781309" lon="17.6778586">
        <ele>30.8995</ele>
        <time>2014-06-15T12:35:07Z</time>
      </trkpt>
      <trkpt lat="59.8781418" lon="17.6779411">
        <ele>31.3801</ele>
        <time>2014-06-15T12:35:08Z</time>
      </trkpt>
      <trkpt lat="59.8781624" lon="17.6780158">
        <ele>31.3801</ele>
        <time>2014-06-15T12:35:09Z</time>
      </trkpt>
      <trkpt lat="59.8781774" lon="17.678095">
        <ele>31.8607</ele>
        <time>2014-06-15T12:35:10Z</time>
      </trkpt>
      <trkpt lat="59.8781737" lon="17.6781806">
        <ele>31.8607</ele>
        <time>2014-06-15T12:35:11Z</time>
      </trkpt>
      <trkpt lat="59.8781495" lon="17.6782587">
        <ele>32.3416</ele>
        <time>2014-06-15T12:35:12Z</time>
      </trkpt>
      <trkpt lat="59.8781166" lon="17.6783263">
        <ele>32.3416</ele>
        <time>2014-06-15T12:35:13Z</time>
      </trkpt>
      <trkpt lat="59.8780831" lon="17.6783906">
        <ele>32.8223</ele>
        <time>2014-06-15T12:35:14Z</time>
      </trkpt>
      <trkpt lat="59.8780515" lon="17.6784575">
        <ele>32.8223</ele>
        <time>2014-06-15T12:35:15Z</time>
      </trkpt>
      <trkpt lat="59.8780205" lon="17.6785296">
        <ele>33.3029</ele>
        <time>2014-06-15T12:35:16Z</time>
      </trkpt>
      <trkpt lat="59.8779884" lon="17.6786068">
        <ele>33.3029</ele>
        <time>2014-06-15T12:35:17Z</time>
      </trkpt>
      <trkpt lat="59.877953" lon="17.678685">
        <ele>33.3029</ele>
        <time>2014-06-15T12:35:18Z</time>
      </trkpt>
      <trkpt lat="59.8779153" lon="17.6787616">
        <ele>33.7834</ele>
        <time>2014-06-15T12:35:19Z</time>
      </trkpt>
      <trkpt lat="59.8778753" lon="17.6788347">
        <ele>33.7834</ele>
        <time>2014-06-15T12:35:20Z</time>
      </trkpt>
      <trkpt lat="59.8778314" lon="17.6789004">
        <ele>33.7834</ele>
        <time>2014-06-15T12:35:21Z</time>
      </trkpt>
      <trkpt lat="59.8777851" lon="17.678957">
        <ele>33.7834</ele>
        <time>2014-06-15T12:35:22Z</time>
      </trkpt>
      <trkpt lat="59.87774" lon="17.6790143">
        <ele>33.7834</ele>
        <time>2014-06-15T12:35:23Z</time>
      </trkpt>
      <trkpt lat="59.8776965" lon="17.6790761">
        <ele>33.7834</ele>
        <time>2014-06-15T12:35:24Z</time>
      </trkpt>
      <trkpt lat="59.877653" lon="17.679138">
        <ele>33.7834</ele>
        <time>2014-06-15T12:35:25Z</time>
      </trkpt>
      <trkpt lat="59.8776108" lon="17.6792021">
        <ele>33.7834</ele>
        <time>2014-06-15T12:35:26Z</time>
      </trkpt>
      <trkpt lat="59.8775719" lon="17.6792724">
        <ele>34.2642</ele>
        <time>2014-06-15T12:35:27Z</time>
      </trkpt>
      <trkpt lat="59.8775342" lon="17.6793429">
        <ele>34.2642</ele>
        <time>2014-06-15T12:35:28Z</time>
      </trkpt>
      <trkpt lat="59.8774966" lon="17.6794127">
        <ele>34.2642</ele>
        <time>2014-06-15T12:35:29Z</time>
      </trkpt>
      <trkpt lat="59.8774606" lon="17.6794862">
        <ele>34.2642</ele>
        <time>2014-06-15T12:35:30Z</time>
      </trkpt>
      <trkpt lat="59.8774249" lon="17.6795574">
        <ele>34.2642</ele>
        <time>2014-06-15T12:35:31Z</time>
      </trkpt>
      <trkpt lat="59.8773871" lon="17.6796153">
        <ele>34.7449</ele>
        <time>2014-06-15T12:35:32Z</time>
      </trkpt>
      <trkpt lat="59.8773497" lon="17.6796563">
        <ele>34.7449</ele>
        <time>2014-06-15T12:35:33Z</time>
      </trkpt>
      <trkpt lat="59.8773164" lon="17.6796962">
        <ele>35.2255</ele>
        <time>2014-06-15T12:35:34Z</time>
      </trkpt>
      <trkpt lat="59.8772869" lon="17.6797423">
        <ele>35.2255</ele>
        <time>2014-06-15T12:35:35Z</time>
      </trkpt>
      <trkpt lat="59.87726" lon="17.6797959">
        <ele>35.2255</ele>
        <time>2014-06-15T12:35:36Z</time>
      </trkpt>
      <trkpt lat="59.8772404" lon="17.6798655">
        <ele>35.7061</ele>
        <time>2014-06-15T12:35:37Z</time>
      </trkpt>
      <trkpt lat="59.8772294" lon="17.6799509">
        <ele>35.7061</ele>
        <time>2014-06-15T12:35:38Z</time>
      </trkpt>
      <trkpt lat="59.8772207" lon="17.6800463">
        <ele>35.7061</ele>
        <time>2014-06-15T12:35:39Z</time>
      </trkpt>
      <trkpt lat="59.8772077" lon="17.6801484">
        <ele>35.2255</ele>
        <time>2014-06-15T12:35:40Z</time>
      </trkpt>
      <trkpt lat="59.877187" lon="17.6802514">
        <ele>35.2255</ele>
        <time>2014-06-15T12:35:41Z</time>
      </trkpt>
      <trkpt lat="59.877158" lon="17.6803519">
        <ele>35.2255</ele>
        <time>2014-06-15T12:35:42Z</time>
      </trkpt>
      <trkpt lat="59.8771208" lon="17.6804473">
        <ele>35.2255</ele>
        <time>2014-06-15T12:35:43Z</time>
      </trkpt>
      <trkpt lat="59.8770787" lon="17.680541">
        <ele>35.2255</ele>
        <time>2014-06-15T12:35:44Z</time>
      </trkpt>
      <trkpt lat="59.877036" lon="17.6806377">
        <ele>35.2255</ele>
        <time>2014-06-15T12:35:45Z</time>
      </trkpt>
      <trkpt lat="59.8769927" lon="17.6807346">
        <ele>35.2255</ele>
        <time>2014-06-15T12:35:46Z</time>
      </trkpt>
      <trkpt lat="59.8769483" lon="17.680833">
        <ele>35.2255</ele>
        <time>2014-06-15T12:35:47Z</time>
      </trkpt>
      <trkpt lat="59.8769036" lon="17.6809346">
        <ele>35.2255</ele>
        <time>2014-06-15T12:35:48Z</time>
      </trkpt>
      <trkpt lat="59.8768574" lon="17.6810379">
        <ele>35.2255</ele>
        <time>2014-06-15T12:35:49Z</time>
      </trkpt>
      <trkpt lat="59.8768093" lon="17.6811433">
        <ele>35.2255</ele>
        <time>2014-06-15T12:35:50Z</time>
      </trkpt>
      <trkpt lat="59.8767592" lon="17.6812503">
        <ele>35.2255</ele>
        <time>2014-06-15T12:35:51Z</time>
      </trkpt>
      <trkpt lat="59.8767076" lon="17.6813601">
        <ele>35.2255</ele>
        <time>2014-06-15T12:35:52Z</time>
      </trkpt>
      <trkpt lat="59.8766558" lon="17.6814728">
        <ele>35.2255</ele>
        <time>2014-06-15T12:35:53Z</time>
      </trkpt>
      <trkpt lat="59.8766037" lon="17.6815858">
        <ele>35.2255</ele>
        <time>2014-06-15T12:35:54Z</time>
      </trkpt>
      <trkpt lat="59.8765513" lon="17.6816987">
        <ele>35.2255</ele>
        <time>2014-06-15T12:35:55Z</time>
      </trkpt>
      <trkpt lat="59.8764991" lon="17.6818104">
        <ele>35.2255</ele>
        <time>2014-06-15T12:35:56Z</time>
      </trkpt>
      <trkpt lat="59.8764469" lon="17.6819224">
        <ele>35.2255</ele>
        <time>2014-06-15T12:35:57Z</time>
      </trkpt>
      <trkpt lat="59.8763943" lon="17.6820355">
        <ele>35.2255</ele>
        <time>2014-06-15T12:35:58Z</time>
      </trkpt>
      <trkpt lat="59.8763412" lon="17.6821488">
        <ele>35.2255</ele>
        <time>2014-06-15T12:35:59Z</time>
      </trkpt>
      <trkpt lat="59.8762883" lon="17.6822633">
        <ele>35.2255</ele>
        <time>2014-06-15T12:36:00Z</time>
      </trkpt>
      <trkpt lat="59.8762343" lon="17.6823803">
        <ele>35.2255</ele>
        <time>2014-06-15T12:36:01Z</time>
      </trkpt>
      <trkpt lat="59.8761795" lon="17.6824984">
        <ele>35.2255</ele>
        <time>2014-06-15T12:36:02Z</time>
      </trkpt>
      <trkpt lat="59.8761238" lon="17.6826178">
        <ele>35.2255</ele>
        <time>2014-06-15T12:36:03Z</time>
      </trkpt>
      <trkpt lat="59.8760727" lon="17.68274">
        <ele>34.7449</ele>
        <time>2014-06-15T12:36:04Z</time>
      </trkpt>
      <trkpt lat="59.876021" lon="17.6828642">
        <ele>34.7449</ele>
        <time>2014-06-15T12:36:05Z</time>
      </trkpt>
      <trkpt lat="59.875965" lon="17.6829869">
        <ele>34.7449</ele>
        <time>2014-06-15T12:36:06Z</time>
      </trkpt>
      <trkpt lat="59.87591" lon="17.6831061">
        <ele>34.2642</ele>
        <time>2014-06-15T12:36:07Z</time>
      </trkpt>
      <trkpt lat="59.8758545" lon="17.6832248">
        <ele>34.2642</ele>
        <time>2014-06-15T12:36:08Z</time>
      </trkpt>
      <trkpt lat="59.8757978" lon="17.6833444">
        <ele>34.2642</ele>
        <time>2014-06-15T12:36:09Z</time>
      </trkpt>
      <trkpt lat="59.8757402" lon="17.6834652">
        <ele>33.7834</ele>
        <time>2014-06-15T12:36:10Z</time>
      </trkpt>
      <trkpt lat="59.8756821" lon="17.6835889">
        <ele>33.7834</ele>
        <time>2014-06-15T12:36:11Z</time>
      </trkpt>
      <trkpt lat="59.8756236" lon="17.6837143">
        <ele>33.7834</ele>
        <time>2014-06-15T12:36:12Z</time>
      </trkpt>
      <trkpt lat="59.8755651" lon="17.6838407">
        <ele>33.3029</ele>
        <time>2014-06-15T12:36:13Z</time>
      </trkpt>
      <trkpt lat="59.8755056" lon="17.6839675">
        <ele>33.3029</ele>
        <time>2014-06-15T12:36:14Z</time>
      </trkpt>
      <trkpt lat="59.875446" lon="17.6840951">
        <ele>32.8223</ele>
        <time>2014-06-15T12:36:15Z</time>
      </trkpt>
      <trkpt lat="59.875387" lon="17.6842241">
        <ele>32.8223</ele>
        <time>2014-06-15T12:36:16Z</time>
      </trkpt>
      <trkpt lat="59.875329" lon="17.6843531">
        <ele>32.8223</ele>
        <time>2014-06-15T12:36:17Z</time>
      </trkpt>
      <trkpt lat="59.8752712" lon="17.6844805">
        <ele>32.3416</ele>
        <time>2014-06-15T12:36:18Z</time>
      </trkpt>
      <trkpt lat="59.8752118" lon="17.6846046">
        <ele>32.3416</ele>
        <time>2014-06-15T12:36:19Z</time>
      </trkpt>
      <trkpt lat="59.875152" lon="17.6847265">
        <ele>32.3416</ele>
        <time>2014-06-15T12:36:20Z</time>
      </trkpt>
      <trkpt lat="59.8750928" lon="17.6848497">
        <ele>31.8607</ele>
        <time>2014-06-15T12:36:21Z</time>
      </trkpt>
      <trkpt lat="59.8750351" lon="17.6849731">
        <ele>31.8607</ele>
        <time>2014-06-15T12:36:22Z</time>
      </trkpt>
      <trkpt lat="59.8749776" lon="17.6850959">
        <ele>31.8607</ele>
        <time>2014-06-15T12:36:23Z</time>
      </trkpt>
      <trkpt lat="59.8749202" lon="17.6852197">
        <ele>31.3801</ele>
        <time>2014-06-15T12:36:24Z</time>
      </trkpt>
      <trkpt lat="59.8748622" lon="17.6853459">
        <ele>31.3801</ele>
        <time>2014-06-15T12:36:25Z</time>
      </trkpt>
      <trkpt lat="59.8748029" lon="17.6854745">
        <ele>30.8995</ele>
        <time>2014-06-15T12:36:26Z</time>
      </trkpt>
      <trkpt lat="59.8747423" lon="17.6856051">
        <ele>30.8995</ele>
        <time>2014-06-15T12:36:27Z</time>
      </trkpt>
      <trkpt lat="59.8746813" lon="17.6857387">
        <ele>30.8995</ele>
        <time>2014-06-15T12:36:28Z</time>
      </trkpt>
      <trkpt lat="59.8746195" lon="17.6858729">
        <ele>30.8995</ele>
        <time>2014-06-15T12:36:29Z</time>
      </trkpt>
      <trkpt lat="59.8745567" lon="17.6860076">
        <ele>30.4188</ele>
        <time>2014-06-15T12:36:30Z</time>
      </trkpt>
      <trkpt lat="59.8744933" lon="17.6861436">
        <ele>30.4188</ele>
        <time>2014-06-15T12:36:31Z</time>
      </trkpt>
      <trkpt lat="59.8744291" lon="17.6862805">
        <ele>30.4188</ele>
        <time>2014-06-15T12:36:32Z</time>
      </trkpt>
      <trkpt lat="59.8743674" lon="17.6864193">
        <ele>30.4188</ele>
        <time>2014-06-15T12:36:33Z</time>
      </trkpt>
      <trkpt lat="59.8743054" lon="17.6865599">
        <ele>30.4188</ele>
        <time>2014-06-15T12:36:34Z</time>
      </trkpt>
      <trkpt lat="59.874238" lon="17.6867008">
        <ele>30.4188</ele>
        <time>2014-06-15T12:36:35Z</time>
      </trkpt>
      <trkpt lat="59.8741699" lon="17.6868437">
        <ele>30.4188</ele>
        <time>2014-06-15T12:36:36Z</time>
      </trkpt>
      <trkpt lat="59.8741043" lon="17.6869885">
        <ele>30.4188</ele>
        <time>2014-06-15T12:36:37Z</time>
      </trkpt>
      <trkpt lat="59.8740386" lon="17.6871328">
        <ele>29.9381</ele>
        <time>2014-06-15T12:36:38Z</time>
      </trkpt>
      <trkpt lat="59.873977" lon="17.6872813">
        <ele>29.9381</ele>
        <time>2014-06-15T12:36:39Z</time>
      </trkpt>
      <trkpt lat="59.8739297" lon="17.6874428">
        <ele>29.9381</ele>
        <time>2014-06-15T12:36:40Z</time>
      </trkpt>
      <trkpt lat="59.8738997" lon="17.6876163">
        <ele>29.9381</ele>
        <time>2014-06-15T12:36:41Z</time>
      </trkpt>
      <trkpt lat="59.8738866" lon="17.6877936">
        <ele>29.9381</ele>
        <time>2014-06-15T12:36:42Z</time>
      </trkpt>
      <trkpt lat="59.873894" lon="17.6879682">
        <ele>29.9381</ele>
        <time>2014-06-15T12:36:43Z</time>
      </trkpt>
      <trkpt lat="59.8739197" lon="17.6881361">
        <ele>29.9381</ele>
        <time>2014-06-15T12:36:44Z</time>
      </trkpt>
      <trkpt lat="59.8739572" lon="17.688296">
        <ele>29.4575</ele>
        <time>2014-06-15T12:36:45Z</time>
      </trkpt>
      <trkpt lat="59.8739975" lon="17.688454">
        <ele>29.4575</ele>
        <time>2014-06-15T12:36:46Z</time>
      </trkpt>
      <trkpt lat="59.874037" lon="17.6886125">
        <ele>29.4575</ele>
        <time>2014-06-15T12:36:47Z</time>
      </trkpt>
      <trkpt lat="59.8740763" lon="17.6887702">
        <ele>28.9769</ele>
        <time>2014-06-15T12:36:48Z</time>
      </trkpt>
      <trkpt lat="59.8741165" lon="17.6889256">
        <ele>28.9769</ele>
        <time>2014-06-15T12:36:49Z</time>
      </trkpt>
      <trkpt lat="59.8741566" lon="17.6890787">
        <ele>28.9769</ele>
        <time>2014-06-15T12:36:50Z</time>
      </trkpt>
      <trkpt lat="59.8741963" lon="17.6892306">
        <ele>28.4962</ele>
        <time>2014-06-15T12:36:51Z</time>
      </trkpt>
      <trkpt lat="59.8742359" lon="17.6893819">
        <ele>28.4962</ele>
        <time>2014-06-15T12:36:52Z</time>
      </trkpt>
      <trkpt lat="59.8742756" lon="17.6895316">
        <ele>28.4962</ele>
        <time>2014-06-15T12:36:53Z</time>
      </trkpt>
      <trkpt lat="59.874315" lon="17.689679">
        <ele>28.4962</ele>
        <time>2014-06-15T12:36:54Z</time>
      </trkpt>
      <trkpt lat="59.874354" lon="17.6898235">
        <ele>28.0155</ele>
        <time>2014-06-15T12:36:55Z</time>
      </trkpt>
      <trkpt lat="59.8743939" lon="17.689965">
        <ele>28.0155</ele>
        <time>2014-06-15T12:36:56Z</time>
      </trkpt>
      <trkpt lat="59.8744344" lon="17.6901031">
        <ele>28.0155</ele>
        <time>2014-06-15T12:36:57Z</time>
      </trkpt>
      <trkpt lat="59.874475" lon="17.6902385">
        <ele>28.0155</ele>
        <time>2014-06-15T12:36:58Z</time>
      </trkpt>
      <trkpt lat="59.874516" lon="17.6903708">
        <ele>28.0155</ele>
        <time>2014-06-15T12:36:59Z</time>
      </trkpt>
      <trkpt lat="59.8745584" lon="17.6904993">
        <ele>28.0155</ele>
        <time>2014-06-15T12:37:00Z</time>
      </trkpt>
      <trkpt lat="59.8746017" lon="17.6906241">
        <ele>28.0155</ele>
        <time>2014-06-15T12:37:01Z</time>
      </trkpt>
      <trkpt lat="59.8746456" lon="17.6907448">
        <ele>28.0155</ele>
        <time>2014-06-15T12:37:02Z</time>
      </trkpt>
      <trkpt lat="59.8746896" lon="17.6908611">
        <ele>28.0155</ele>
        <time>2014-06-15T12:37:03Z</time>
      </trkpt>
      <trkpt lat="59.8747337" lon="17.6909737">
        <ele>28.0155</ele>
        <time>2014-06-15T12:37:04Z</time>
      </trkpt>
      <trkpt lat="59.8747784" lon="17.6910831">
        <ele>28.0155</ele>
        <time>2014-06-15T12:37:05Z</time>
      </trkpt>
      <trkpt lat="59.8748232" lon="17.6911911">
        <ele>28.4962</ele>
        <time>2014-06-15T12:37:06Z</time>
      </trkpt>
      <trkpt lat="59.8748677" lon="17.6912978">
        <ele>28.4962</ele>
        <time>2014-06-15T12:37:07Z</time>
      </trkpt>
      <trkpt lat="59.8749125" lon="17.6914028">
        <ele>28.4962</ele>
        <time>2014-06-15T12:37:08Z</time>
      </trkpt>
      <trkpt lat="59.8749575" lon="17.6915076">
        <ele>28.4962</ele>
        <time>2014-06-15T12:37:09Z</time>
      </trkpt>
      <trkpt lat="59.875003" lon="17.6916125">
        <ele>28.4962</ele>
        <time>2014-06-15T12:37:10Z</time>
      </trkpt>
      <trkpt lat="59.8750485" lon="17.6917171">
        <ele>28.4962</ele>
        <time>2014-06-15T12:37:11Z</time>
      </trkpt>
      <trkpt lat="59.8750941" lon="17.6918227">
        <ele>28.4962</ele>
        <time>2014-06-15T12:37:12Z</time>
      </trkpt>
      <trkpt lat="59.8751407" lon="17.69193">
        <ele>28.4962</ele>
        <time>2014-06-15T12:37:13Z</time>
      </trkpt>
      <trkpt lat="59.8751879" lon="17.6920393">
        <ele>28.4962</ele>
        <time>2014-06-15T12:37:14Z</time>
      </trkpt>
      <trkpt lat="59.8752352" lon="17.6921495">
        <ele>28.4962</ele>
        <time>2014-06-15T12:37:15Z</time>
      </trkpt>
      <trkpt lat="59.8752828" lon="17.6922605">
        <ele>28.4962</ele>
        <time>2014-06-15T12:37:16Z</time>
      </trkpt>
      <trkpt lat="59.8753305" lon="17.6923725">
        <ele>28.4962</ele>
        <time>2014-06-15T12:37:17Z</time>
      </trkpt>
      <trkpt lat="59.8753786" lon="17.6924844">
        <ele>28.0155</ele>
        <time>2014-06-15T12:37:18Z</time>
      </trkpt>
      <trkpt lat="59.8754264" lon="17.6925973">
        <ele>28.0155</ele>
        <time>2014-06-15T12:37:19Z</time>
      </trkpt>
      <trkpt lat="59.8754754" lon="17.6927101">
        <ele>28.0155</ele>
        <time>2014-06-15T12:37:20Z</time>
      </trkpt>
      <trkpt lat="59.8755251" lon="17.692822">
        <ele>27.5349</ele>
        <time>2014-06-15T12:37:21Z</time>
      </trkpt>
      <trkpt lat="59.8755743" lon="17.6929364">
        <ele>27.5349</ele>
        <time>2014-06-15T12:37:22Z</time>
      </trkpt>
      <trkpt lat="59.8756229" lon="17.693053">
        <ele>27.0543</ele>
        <time>2014-06-15T12:37:23Z</time>
      </trkpt>
      <trkpt lat="59.8756722" lon="17.6931707">
        <ele>26.5736</ele>
        <time>2014-06-15T12:37:24Z</time>
      </trkpt>
      <trkpt lat="59.8757229" lon="17.6932892">
        <ele>26.5736</ele>
        <time>2014-06-15T12:37:25Z</time>
      </trkpt>
      <trkpt lat="59.875774" lon="17.693411">
        <ele>26.0929</ele>
        <time>2014-06-15T12:37:26Z</time>
      </trkpt>
      <trkpt lat="59.8758256" lon="17.6935373">
        <ele>25.6123</ele>
        <time>2014-06-15T12:37:27Z</time>
      </trkpt>
      <trkpt lat="59.8758785" lon="17.6936652">
        <ele>25.1317</ele>
        <time>2014-06-15T12:37:28Z</time>
      </trkpt>
      <trkpt lat="59.875932" lon="17.693796">
        <ele>24.651</ele>
        <time>2014-06-15T12:37:29Z</time>
      </trkpt>
      <trkpt lat="59.8759852" lon="17.6939322">
        <ele>24.651</ele>
        <time>2014-06-15T12:37:30Z</time>
      </trkpt>
      <trkpt lat="59.8760384" lon="17.6940718">
        <ele>24.1703</ele>
        <time>2014-06-15T12:37:31Z</time>
      </trkpt>
      <trkpt lat="59.876093" lon="17.6942123">
        <ele>23.6896</ele>
        <time>2014-06-15T12:37:32Z</time>
      </trkpt>
      <trkpt lat="59.8761488" lon="17.6943543">
        <ele>23.209</ele>
        <time>2014-06-15T12:37:33Z</time>
      </trkpt>
      <trkpt lat="59.8762036" lon="17.6945004">
        <ele>22.7283</ele>
        <time>2014-06-15T12:37:34Z</time>
      </trkpt>
      <trkpt lat="59.8762562" lon="17.6946515">
        <ele>22.2476</ele>
        <time>2014-06-15T12:37:35Z</time>
      </trkpt>
      <trkpt lat="59.8763085" lon="17.6948047">
        <ele>22.2476</ele>
        <time>2014-06-15T12:37:36Z</time>
      </trkpt>
      <trkpt lat="59.8763609" lon="17.6949577">
        <ele>21.767</ele>
        <time>2014-06-15T12:37:37Z</time>
      </trkpt>
      <trkpt lat="59.8764119" lon="17.6951106">
        <ele>21.2864</ele>
        <time>2014-06-15T12:37:38Z</time>
      </trkpt>
      <trkpt lat="59.8764607" lon="17.6952614">
        <ele>21.2864</ele>
        <time>2014-06-15T12:37:39Z</time>
      </trkpt>
      <trkpt lat="59.876512" lon="17.6954106">
        <ele>21.2864</ele>
        <time>2014-06-15T12:37:40Z</time>
      </trkpt>
      <trkpt lat="59.876558" lon="17.6955554">
        <ele>20.325</ele>
        <time>2014-06-15T12:37:41Z</time>
      </trkpt>
      <trkpt lat="59.8766068" lon="17.6957021">
        <ele>21.2864</ele>
        <time>2014-06-15T12:37:42Z</time>
      </trkpt>
      <trkpt lat="59.8766491" lon="17.6958418">
        <ele>21.2864</ele>
        <time>2014-06-15T12:37:43Z</time>
      </trkpt>
      <trkpt lat="59.8766905" lon="17.6959803">
        <ele>21.2864</ele>
        <time>2014-06-15T12:37:44Z</time>
      </trkpt>
      <trkpt lat="59.8767321" lon="17.6961159">
        <ele>22.2476</ele>
        <time>2014-06-15T12:37:45Z</time>
      </trkpt>
      <trkpt lat="59.8767698" lon="17.6962456">
        <ele>22.7283</ele>
        <time>2014-06-15T12:37:46Z</time>
      </trkpt>
      <trkpt lat="59.8768063" lon="17.6963683">
        <ele>23.209</ele>
        <time>2014-06-15T12:37:47Z</time>
      </trkpt>
      <trkpt lat="59.8768416" lon="17.6964848">
        <ele>23.6896</ele>
        <time>2014-06-15T12:37:48Z</time>
      </trkpt>
      <trkpt lat="59.8768732" lon="17.6965982">
        <ele>23.6896</ele>
        <time>2014-06-15T12:37:49Z</time>
      </trkpt>
      <trkpt lat="59.8769035" lon="17.6967091">
        <ele>24.1703</ele>
        <time>2014-06-15T12:37:50Z</time>
      </trkpt>
      <trkpt lat="59.8769327" lon="17.696817">
        <ele>24.651</ele>
        <time>2014-06-15T12:37:51Z</time>
      </trkpt>
      <trkpt lat="59.8769607" lon="17.6969218">
        <ele>25.1317</ele>
        <time>2014-06-15T12:37:52Z</time>
      </trkpt>
      <trkpt lat="59.8769874" lon="17.6970231">
        <ele>25.6123</ele>
        <time>2014-06-15T12:37:53Z</time>
      </trkpt>
      <trkpt lat="59.8770123" lon="17.697121">
        <ele>25.6123</ele>
        <time>2014-06-15T12:37:54Z</time>
      </trkpt>
      <trkpt lat="59.8770371" lon="17.6972148">
        <ele>26.0929</ele>
        <time>2014-06-15T12:37:55Z</time>
      </trkpt>
      <trkpt lat="59.8770616" lon="17.6973041">
        <ele>26.5736</ele>
        <time>2014-06-15T12:37:56Z</time>
      </trkpt>
      <trkpt lat="59.8770844" lon="17.6973901">
        <ele>26.5736</ele>
        <time>2014-06-15T12:37:57Z</time>
      </trkpt>
      <trkpt lat="59.8771053" lon="17.6974753">
        <ele>27.0543</ele>
        <time>2014-06-15T12:37:58Z</time>
      </trkpt>
      <trkpt lat="59.8771258" lon="17.6975605">
        <ele>27.5349</ele>
        <time>2014-06-15T12:37:59Z</time>
      </trkpt>
      <trkpt lat="59.8771465" lon="17.6976453">
        <ele>27.5349</ele>
        <time>2014-06-15T12:38:00Z</time>
      </trkpt>
      <trkpt lat="59.8771682" lon="17.6977299">
        <ele>27.5349</ele>
        <time>2014-06-15T12:38:01Z</time>
      </trkpt>
      <trkpt lat="59.8771889" lon="17.697816">
        <ele>28.0155</ele>
        <time>2014-06-15T12:38:02Z</time>
      </trkpt>
      <trkpt lat="59.8772091" lon="17.6979046">
        <ele>28.0155</ele>
        <time>2014-06-15T12:38:03Z</time>
      </trkpt>
      <trkpt lat="59.8772306" lon="17.6979943">
        <ele>28.0155</ele>
        <time>2014-06-15T12:38:04Z</time>
      </trkpt>
      <trkpt lat="59.8772536" lon="17.6980856">
        <ele>28.4962</ele>
        <time>2014-06-15T12:38:05Z</time>
      </trkpt>
      <trkpt lat="59.8772765" lon="17.6981803">
        <ele>28.4962</ele>
        <time>2014-06-15T12:38:06Z</time>
      </trkpt>
      <trkpt lat="59.8772997" lon="17.6982772">
        <ele>28.4962</ele>
        <time>2014-06-15T12:38:07Z</time>
      </trkpt>
      <trkpt lat="59.8773243" lon="17.6983756">
        <ele>28.4962</ele>
        <time>2014-06-15T12:38:08Z</time>
      </trkpt>
      <trkpt lat="59.8773496" lon="17.6984756">
        <ele>28.4962</ele>
        <time>2014-06-15T12:38:09Z</time>
      </trkpt>
      <trkpt lat="59.877376" lon="17.6985774">
        <ele>28.4962</ele>
        <time>2014-06-15T12:38:10Z</time>
      </trkpt>
      <trkpt lat="59.8774039" lon="17.6986817">
        <ele>28.4962</ele>
        <time>2014-06-15T12:38:11Z</time>
      </trkpt>
      <trkpt lat="59.8774325" lon="17.6987882">
        <ele>28.4962</ele>
        <time>2014-06-15T12:38:12Z</time>
      </trkpt>
      <trkpt lat="59.8774614" lon="17.6988961">
        <ele>28.4962</ele>
        <time>2014-06-15T12:38:13Z</time>
      </trkpt>
      <trkpt lat="59.877491" lon="17.6990051">
        <ele>28.4962</ele>
        <time>2014-06-15T12:38:14Z</time>
      </trkpt>
      <trkpt lat="59.8775214" lon="17.6991157">
        <ele>28.0155</ele>
        <time>2014-06-15T12:38:15Z</time>
      </trkpt>
      <trkpt lat="59.8775528" lon="17.6992278">
        <ele>28.0155</ele>
        <time>2014-06-15T12:38:16Z</time>
      </trkpt>
      <trkpt lat="59.8775862" lon="17.6993411">
        <ele>28.0155</ele>
        <time>2014-06-15T12:38:17Z</time>
      </trkpt>
      <trkpt lat="59.877621" lon="17.6994546">
        <ele>28.0155</ele>
        <time>2014-06-15T12:38:18Z</time>
      </trkpt>
      <trkpt lat="59.8776563" lon="17.6995676">
        <ele>28.0155</ele>
        <time>2014-06-15T12:38:19Z</time>
      </trkpt>
      <trkpt lat="59.8776906" lon="17.6996808">
        <ele>28.0155</ele>
        <time>2014-06-15T12:38:20Z</time>
      </trkpt>
      <trkpt lat="59.8777247" lon="17.6997926">
        <ele>28.0155</ele>
        <time>2014-06-15T12:38:21Z</time>
      </trkpt>
      <trkpt lat="59.8777579" lon="17.6998954">
        <ele>28.0155</ele>
        <time>2014-06-15T12:38:22Z</time>
      </trkpt>
      <trkpt lat="59.877791" lon="17.7000007">
        <ele>28.0155</ele>
        <time>2014-06-15T12:38:23Z</time>
      </trkpt>
      <trkpt lat="59.8778252" lon="17.7001099">
        <ele>28.0155</ele>
        <time>2014-06-15T12:38:24Z</time>
      </trkpt>
      <trkpt lat="59.8778583" lon="17.7002134">
        <ele>28.0155</ele>
        <time>2014-06-15T12:38:25Z</time>
      </trkpt>
      <trkpt lat="59.8778914" lon="17.7003165">
        <ele>28.0155</ele>
        <time>2014-06-15T12:38:26Z</time>
      </trkpt>
      <trkpt lat="59.8779256" lon="17.7004189">
        <ele>28.0155</ele>
        <time>2014-06-15T12:38:27Z</time>
      </trkpt>
      <trkpt lat="59.8779608" lon="17.7005211">
        <ele>28.0155</ele>
        <time>2014-06-15T12:38:28Z</time>
      </trkpt>
      <trkpt lat="59.8779964" lon="17.7006235">
        <ele>28.0155</ele>
        <time>2014-06-15T12:38:29Z</time>
      </trkpt>
      <trkpt lat="59.8780334" lon="17.7007254">
        <ele>28.0155</ele>
        <time>2014-06-15T12:38:30Z</time>
      </trkpt>
      <trkpt lat="59.8780724" lon="17.7008271">
        <ele>28.0155</ele>
        <time>2014-06-15T12:38:31Z</time>
      </trkpt>
      <trkpt lat="59.8781125" lon="17.7009299">
        <ele>28.0155</ele>
        <time>2014-06-15T12:38:32Z</time>
      </trkpt>
      <trkpt lat="59.8781526" lon="17.7010346">
        <ele>28.0155</ele>
        <time>2014-06-15T12:38:33Z</time>
      </trkpt>
      <trkpt lat="59.8781944" lon="17.7011397">
        <ele>28.0155</ele>
        <time>2014-06-15T12:38:34Z</time>
      </trkpt>
      <trkpt lat="59.8782375" lon="17.7012444">
        <ele>27.5349</ele>
        <time>2014-06-15T12:38:35Z</time>
      </trkpt>
      <trkpt lat="59.878281" lon="17.701352">
        <ele>27.5349</ele>
        <time>2014-06-15T12:38:36Z</time>
      </trkpt>
      <trkpt lat="59.8783251" lon="17.701462">
        <ele>27.5349</ele>
        <time>2014-06-15T12:38:37Z</time>
      </trkpt>
      <trkpt lat="59.8783694" lon="17.7015739">
        <ele>27.5349</ele>
        <time>2014-06-15T12:38:38Z</time>
      </trkpt>
      <trkpt lat="59.8784132" lon="17.701688">
        <ele>27.5349</ele>
        <time>2014-06-15T12:38:39Z</time>
      </trkpt>
      <trkpt lat="59.8784565" lon="17.7018043">
        <ele>27.5349</ele>
        <time>2014-06-15T12:38:40Z</time>
      </trkpt>
      <trkpt lat="59.8784995" lon="17.7019223">
        <ele>27.0543</ele>
        <time>2014-06-15T12:38:41Z</time>
      </trkpt>
      <trkpt lat="59.8785421" lon="17.7020416">
        <ele>27.0543</ele>
        <time>2014-06-15T12:38:42Z</time>
      </trkpt>
      <trkpt lat="59.8785839" lon="17.7021637">
        <ele>27.0543</ele>
        <time>2014-06-15T12:38:43Z</time>
      </trkpt>
      <trkpt lat="59.878625" lon="17.7022869">
        <ele>27.0543</ele>
        <time>2014-06-15T12:38:44Z</time>
      </trkpt>
      <trkpt lat="59.8786663" lon="17.7024078">
        <ele>27.0543</ele>
        <time>2014-06-15T12:38:45Z</time>
      </trkpt>
      <trkpt lat="59.8787074" lon="17.7025263">
        <ele>27.0543</ele>
        <time>2014-06-15T12:38:46Z</time>
      </trkpt>
      <trkpt lat="59.8787472" lon="17.7026435">
        <ele>27.0543</ele>
        <time>2014-06-15T12:38:47Z</time>
      </trkpt>
      <trkpt lat="59.8787866" lon="17.7027586">
        <ele>27.0543</ele>
        <time>2014-06-15T12:38:48Z</time>
      </trkpt>
      <trkpt lat="59.8788265" lon="17.7028729">
        <ele>27.0543</ele>
        <time>2014-06-15T12:38:49Z</time>
      </trkpt>
      <trkpt lat="59.878867" lon="17.7029868">
        <ele>27.0543</ele>
        <time>2014-06-15T12:38:50Z</time>
      </trkpt>
      <trkpt lat="59.8789084" lon="17.7031003">
        <ele>27.0543</ele>
        <time>2014-06-15T12:38:51Z</time>
      </trkpt>
      <trkpt lat="59.8789502" lon="17.7032137">
        <ele>26.5736</ele>
        <time>2014-06-15T12:38:52Z</time>
      </trkpt>
      <trkpt lat="59.8789923" lon="17.7033272">
        <ele>26.5736</ele>
        <time>2014-06-15T12:38:53Z</time>
      </trkpt>
      <trkpt lat="59.8790347" lon="17.7034417">
        <ele>26.5736</ele>
        <time>2014-06-15T12:38:54Z</time>
      </trkpt>
      <trkpt lat="59.8790773" lon="17.7035573">
        <ele>26.5736</ele>
        <time>2014-06-15T12:38:55Z</time>
      </trkpt>
      <trkpt lat="59.8791198" lon="17.7036751">
        <ele>26.5736</ele>
        <time>2014-06-15T12:38:56Z</time>
      </trkpt>
      <trkpt lat="59.879163" lon="17.7037935">
        <ele>26.5736</ele>
        <time>2014-06-15T12:38:57Z</time>
      </trkpt>
      <trkpt lat="59.8792067" lon="17.7039124">
        <ele>26.5736</ele>
        <time>2014-06-15T12:38:58Z</time>
      </trkpt>
      <trkpt lat="59.8792502" lon="17.7040322">
        <ele>26.0929</ele>
        <time>2014-06-15T12:38:59Z</time>
      </trkpt>
      <trkpt lat="59.8792937" lon="17.7041524">
        <ele>26.0929</ele>
        <time>2014-06-15T12:39:00Z</time>
      </trkpt>
      <trkpt lat="59.8793367" lon="17.7042717">
        <ele>26.0929</ele>
        <time>2014-06-15T12:39:01Z</time>
      </trkpt>
      <trkpt lat="59.8793786" lon="17.7043923">
        <ele>26.0929</ele>
        <time>2014-06-15T12:39:02Z</time>
      </trkpt>
      <trkpt lat="59.8794197" lon="17.704515">
        <ele>26.0929</ele>
        <time>2014-06-15T12:39:03Z</time>
      </trkpt>
      <trkpt lat="59.8794607" lon="17.7046384">
        <ele>26.0929</ele>
        <time>2014-06-15T12:39:04Z</time>
      </trkpt>
      <trkpt lat="59.8795013" lon="17.7047615">
        <ele>26.0929</ele>
        <time>2014-06-15T12:39:05Z</time>
      </trkpt>
      <trkpt lat="59.8795413" lon="17.704885">
        <ele>26.0929</ele>
        <time>2014-06-15T12:39:06Z</time>
      </trkpt>
      <trkpt lat="59.8795812" lon="17.7050097">
        <ele>26.0929</ele>
        <time>2014-06-15T12:39:07Z</time>
      </trkpt>
      <trkpt lat="59.8796216" lon="17.7051361">
        <ele>25.6123</ele>
        <time>2014-06-15T12:39:08Z</time>
      </trkpt>
      <trkpt lat="59.8796621" lon="17.705263">
        <ele>25.6123</ele>
        <time>2014-06-15T12:39:09Z</time>
      </trkpt>
      <trkpt lat="59.8797024" lon="17.7053923">
        <ele>25.6123</ele>
        <time>2014-06-15T12:39:10Z</time>
      </trkpt>
      <trkpt lat="59.8797425" lon="17.7055237">
        <ele>25.6123</ele>
        <time>2014-06-15T12:39:11Z</time>
      </trkpt>
      <trkpt lat="59.8797829" lon="17.7056547">
        <ele>25.6123</ele>
        <time>2014-06-15T12:39:12Z</time>
      </trkpt>
      <trkpt lat="59.879822" lon="17.705784">
        <ele>25.6123</ele>
        <time>2014-06-15T12:39:13Z</time>
      </trkpt>
      <trkpt lat="59.8798599" lon="17.7059119">
        <ele>25.1317</ele>
        <time>2014-06-15T12:39:14Z</time>
      </trkpt>
      <trkpt lat="59.8798977" lon="17.7060364">
        <ele>25.1317</ele>
        <time>2014-06-15T12:39:15Z</time>
      </trkpt>
      <trkpt lat="59.8799356" lon="17.7061601">
        <ele>25.1317</ele>
        <time>2014-06-15T12:39:16Z</time>
      </trkpt>
      <trkpt lat="59.8799718" lon="17.706287">
        <ele>25.1317</ele>
        <time>2014-06-15T12:39:17Z</time>
      </trkpt>
      <trkpt lat="59.880007" lon="17.7064156">
        <ele>25.1317</ele>
        <time>2014-06-15T12:39:18Z</time>
      </trkpt>
      <trkpt lat="59.8800417" lon="17.7065457">
        <ele>25.1317</ele>
        <time>2014-06-15T12:39:19Z</time>
      </trkpt>
      <trkpt lat="59.8800747" lon="17.7066791">
        <ele>25.1317</ele>
        <time>2014-06-15T12:39:20Z</time>
      </trkpt>
      <trkpt lat="59.8801063" lon="17.706815">
        <ele>25.1317</ele>
        <time>2014-06-15T12:39:21Z</time>
      </trkpt>
      <trkpt lat="59.8801365" lon="17.7069516">
        <ele>25.1317</ele>
        <time>2014-06-15T12:39:22Z</time>
      </trkpt>
      <trkpt lat="59.8801646" lon="17.707089">
        <ele>25.1317</ele>
        <time>2014-06-15T12:39:23Z</time>
      </trkpt>
      <trkpt lat="59.8801912" lon="17.7072274">
        <ele>25.1317</ele>
        <time>2014-06-15T12:39:24Z</time>
      </trkpt>
      <trkpt lat="59.8802158" lon="17.7073661">
        <ele>25.1317</ele>
        <time>2014-06-15T12:39:25Z</time>
      </trkpt>
      <trkpt lat="59.88024" lon="17.7075055">
        <ele>25.1317</ele>
        <time>2014-06-15T12:39:26Z</time>
      </trkpt>
      <trkpt lat="59.8802638" lon="17.7076459">
        <ele>25.1317</ele>
        <time>2014-06-15T12:39:27Z</time>
      </trkpt>
      <trkpt lat="59.8802869" lon="17.7077873">
        <ele>25.1317</ele>
        <time>2014-06-15T12:39:28Z</time>
      </trkpt>
      <trkpt lat="59.88031" lon="17.7079285">
        <ele>25.1317</ele>
        <time>2014-06-15T12:39:29Z</time>
      </trkpt>
      <trkpt lat="59.8803334" lon="17.7080687">
        <ele>25.1317</ele>
        <time>2014-06-15T12:39:30Z</time>
      </trkpt>
      <trkpt lat="59.8803572" lon="17.7082084">
        <ele>25.1317</ele>
        <time>2014-06-15T12:39:31Z</time>
      </trkpt>
      <trkpt lat="59.8803842" lon="17.7083457">
        <ele>25.1317</ele>
        <time>2014-06-15T12:39:32Z</time>
      </trkpt>
      <trkpt lat="59.8804148" lon="17.7084778">
        <ele>25.1317</ele>
        <time>2014-06-15T12:39:33Z</time>
      </trkpt>
      <trkpt lat="59.8804479" lon="17.7086072">
        <ele>25.1317</ele>
        <time>2014-06-15T12:39:34Z</time>
      </trkpt>
      <trkpt lat="59.880483" lon="17.7087364">
        <ele>25.1317</ele>
        <time>2014-06-15T12:39:35Z</time>
      </trkpt>
      <trkpt lat="59.8805207" lon="17.7088741">
        <ele>25.6123</ele>
        <time>2014-06-15T12:39:36Z</time>
      </trkpt>
      <trkpt lat="59.8805577" lon="17.7089944">
        <ele>25.6123</ele>
        <time>2014-06-15T12:39:37Z</time>
      </trkpt>
      <trkpt lat="59.880595" lon="17.7091066">
        <ele>25.6123</ele>
        <time>2014-06-15T12:39:38Z</time>
      </trkpt>
      <trkpt lat="59.8806314" lon="17.7092187">
        <ele>26.0929</ele>
        <time>2014-06-15T12:39:39Z</time>
      </trkpt>
      <trkpt lat="59.8806685" lon="17.7093238">
        <ele>26.0929</ele>
        <time>2014-06-15T12:39:40Z</time>
      </trkpt>
      <trkpt lat="59.8807064" lon="17.7094211">
        <ele>25.6123</ele>
        <time>2014-06-15T12:39:41Z</time>
      </trkpt>
      <trkpt lat="59.88075" lon="17.7095129">
        <ele>26.0929</ele>
        <time>2014-06-15T12:39:42Z</time>
      </trkpt>
      <trkpt lat="59.8807947" lon="17.7096023">
        <ele>25.6123</ele>
        <time>2014-06-15T12:39:43Z</time>
      </trkpt>
      <trkpt lat="59.8808405" lon="17.7096945">
        <ele>25.6123</ele>
        <time>2014-06-15T12:39:44Z</time>
      </trkpt>
      <trkpt lat="59.8808909" lon="17.7097949">
        <ele>25.1317</ele>
        <time>2014-06-15T12:39:45Z</time>
      </trkpt>
      <trkpt lat="59.8809363" lon="17.7099007">
        <ele>25.1317</ele>
        <time>2014-06-15T12:39:46Z</time>
      </trkpt>
      <trkpt lat="59.8809742" lon="17.7100187">
        <ele>25.6123</ele>
        <time>2014-06-15T12:39:47Z</time>
      </trkpt>
      <trkpt lat="59.8810089" lon="17.7101451">
        <ele>25.6123</ele>
        <time>2014-06-15T12:39:48Z</time>
      </trkpt>
      <trkpt lat="59.881044" lon="17.7102757">
        <ele>25.6123</ele>
        <time>2014-06-15T12:39:49Z</time>
      </trkpt>
      <trkpt lat="59.8810836" lon="17.7104101">
        <ele>25.1317</ele>
        <time>2014-06-15T12:39:50Z</time>
      </trkpt>
      <trkpt lat="59.881125" lon="17.7105369">
        <ele>25.1317</ele>
        <time>2014-06-15T12:39:51Z</time>
      </trkpt>
      <trkpt lat="59.881167" lon="17.7106554">
        <ele>25.1317</ele>
        <time>2014-06-15T12:39:52Z</time>
      </trkpt>
      <trkpt lat="59.8812057" lon="17.7107672">
        <ele>24.651</ele>
        <time>2014-06-15T12:39:53Z</time>
      </trkpt>
      <trkpt lat="59.8812495" lon="17.7108926">
        <ele>24.651</ele>
        <time>2014-06-15T12:39:54Z</time>
      </trkpt>
      <trkpt lat="59.8812943" lon="17.7110113">
        <ele>24.651</ele>
        <time>2014-06-15T12:39:55Z</time>
      </trkpt>
      <trkpt lat="59.8813402" lon="17.7111277">
        <ele>24.651</ele>
        <time>2014-06-15T12:39:56Z</time>
      </trkpt>
      <trkpt lat="59.8813886" lon="17.7112476">
        <ele>24.651</ele>
        <time>2014-06-15T12:39:57Z</time>
      </trkpt>
      <trkpt lat="59.8814334" lon="17.7113717">
        <ele>24.651</ele>
        <time>2014-06-15T12:39:58Z</time>
      </trkpt>
      <trkpt lat="59.8814747" lon="17.7115002">
        <ele>24.651</ele>
        <time>2014-06-15T12:39:59Z</time>
      </trkpt>
      <trkpt lat="59.8815127" lon="17.711633">
        <ele>24.651</ele>
        <time>2014-06-15T12:40:00Z</time>
      </trkpt>
      <trkpt lat="59.8815458" lon="17.7117685">
        <ele>24.651</ele>
        <time>2014-06-15T12:40:01Z</time>
      </trkpt>
      <trkpt lat="59.8815744" lon="17.7119079">
        <ele>24.651</ele>
        <time>2014-06-15T12:40:02Z</time>
      </trkpt>
      <trkpt lat="59.8816002" lon="17.7120482">
        <ele>24.651</ele>
        <time>2014-06-15T12:40:03Z</time>
      </trkpt>
      <trkpt lat="59.8816238" lon="17.71219">
        <ele>24.651</ele>
        <time>2014-06-15T12:40:04Z</time>
      </trkpt>
      <trkpt lat="59.8816456" lon="17.7123335">
        <ele>24.651</ele>
        <time>2014-06-15T12:40:05Z</time>
      </trkpt>
      <trkpt lat="59.8816662" lon="17.7124789">
        <ele>24.651</ele>
        <time>2014-06-15T12:40:06Z</time>
      </trkpt>
      <trkpt lat="59.881686" lon="17.7126246">
        <ele>24.651</ele>
        <time>2014-06-15T12:40:07Z</time>
      </trkpt>
      <trkpt lat="59.8817057" lon="17.7127699">
        <ele>24.651</ele>
        <time>2014-06-15T12:40:08Z</time>
      </trkpt>
      <trkpt lat="59.8817257" lon="17.7129149">
        <ele>24.651</ele>
        <time>2014-06-15T12:40:09Z</time>
      </trkpt>
      <trkpt lat="59.8817449" lon="17.7130601">
        <ele>24.651</ele>
        <time>2014-06-15T12:40:10Z</time>
      </trkpt>
      <trkpt lat="59.8817631" lon="17.7132052">
        <ele>25.1317</ele>
        <time>2014-06-15T12:40:11Z</time>
      </trkpt>
      <trkpt lat="59.8817817" lon="17.7133491">
        <ele>25.1317</ele>
        <time>2014-06-15T12:40:12Z</time>
      </trkpt>
      <trkpt lat="59.8818007" lon="17.7134917">
        <ele>25.1317</ele>
        <time>2014-06-15T12:40:13Z</time>
      </trkpt>
      <trkpt lat="59.8818197" lon="17.7136335">
        <ele>25.1317</ele>
        <time>2014-06-15T12:40:14Z</time>
      </trkpt>
      <trkpt lat="59.8818388" lon="17.7137741">
        <ele>25.1317</ele>
        <time>2014-06-15T12:40:15Z</time>
      </trkpt>
      <trkpt lat="59.881858" lon="17.7139148">
        <ele>25.1317</ele>
        <time>2014-06-15T12:40:16Z</time>
      </trkpt>
      <trkpt lat="59.8818777" lon="17.7140562">
        <ele>25.1317</ele>
        <time>2014-06-15T12:40:17Z</time>
      </trkpt>
      <trkpt lat="59.8818982" lon="17.7141986">
        <ele>25.1317</ele>
        <time>2014-06-15T12:40:18Z</time>
      </trkpt>
      <trkpt lat="59.881919" lon="17.7143416">
        <ele>25.1317</ele>
        <time>2014-06-15T12:40:19Z</time>
      </trkpt>
      <trkpt lat="59.8819402" lon="17.7144853">
        <ele>25.1317</ele>
        <time>2014-06-15T12:40:20Z</time>
      </trkpt>
      <trkpt lat="59.8819615" lon="17.7146295">
        <ele>25.1317</ele>
        <time>2014-06-15T12:40:21Z</time>
      </trkpt>
      <trkpt lat="59.8819821" lon="17.714774">
        <ele>25.1317</ele>
        <time>2014-06-15T12:40:22Z</time>
      </trkpt>
      <trkpt lat="59.8820019" lon="17.7149188">
        <ele>24.651</ele>
        <time>2014-06-15T12:40:23Z</time>
      </trkpt>
      <trkpt lat="59.8820222" lon="17.7150642">
        <ele>24.651</ele>
        <time>2014-06-15T12:40:24Z</time>
      </trkpt>
      <trkpt lat="59.8820426" lon="17.7152102">
        <ele>25.1317</ele>
        <time>2014-06-15T12:40:25Z</time>
      </trkpt>
      <trkpt lat="59.8820623" lon="17.7153566">
        <ele>25.1317</ele>
        <time>2014-06-15T12:40:26Z</time>
      </trkpt>
      <trkpt lat="59.8820825" lon="17.7155036">
        <ele>25.1317</ele>
        <time>2014-06-15T12:40:27Z</time>
      </trkpt>
      <trkpt lat="59.8821034" lon="17.7156507">
        <ele>25.1317</ele>
        <time>2014-06-15T12:40:28Z</time>
      </trkpt>
      <trkpt lat="59.8821235" lon="17.7157976">
        <ele>25.1317</ele>
        <time>2014-06-15T12:40:29Z</time>
      </trkpt>
      <trkpt lat="59.8821418" lon="17.7159454">
        <ele>25.1317</ele>
        <time>2014-06-15T12:40:30Z</time>
      </trkpt>
      <trkpt lat="59.8821599" lon="17.7160935">
        <ele>25.1317</ele>
        <time>2014-06-15T12:40:31Z</time>
      </trkpt>
      <trkpt lat="59.8821791" lon="17.7162407">
        <ele>25.1317</ele>
        <time>2014-06-15T12:40:32Z</time>
      </trkpt>
      <trkpt lat="59.8821987" lon="17.7163871">
        <ele>25.1317</ele>
        <time>2014-06-15T12:40:33Z</time>
      </trkpt>
      <trkpt lat="59.8822179" lon="17.7165329">
        <ele>25.1317</ele>
        <time>2014-06-15T12:40:34Z</time>
      </trkpt>
      <trkpt lat="59.882236" lon="17.7166787">
        <ele>25.1317</ele>
        <time>2014-06-15T12:40:35Z</time>
      </trkpt>
      <trkpt lat="59.8822529" lon="17.716824">
        <ele>25.1317</ele>
        <time>2014-06-15T12:40:36Z</time>
      </trkpt>
      <trkpt lat="59.8822685" lon="17.7169669">
        <ele>25.1317</ele>
        <time>2014-06-15T12:40:37Z</time>
      </trkpt>
      <trkpt lat="59.8822825" lon="17.7171068">
        <ele>25.1317</ele>
        <time>2014-06-15T12:40:38Z</time>
      </trkpt>
      <trkpt lat="59.8822952" lon="17.717244">
        <ele>25.6123</ele>
        <time>2014-06-15T12:40:39Z</time>
      </trkpt>
      <trkpt lat="59.882306" lon="17.7173798">
        <ele>25.6123</ele>
        <time>2014-06-15T12:40:40Z</time>
      </trkpt>
      <trkpt lat="59.8823141" lon="17.7175166">
        <ele>25.6123</ele>
        <time>2014-06-15T12:40:41Z</time>
      </trkpt>
      <trkpt lat="59.8823194" lon="17.7176549">
        <ele>25.6123</ele>
        <time>2014-06-15T12:40:42Z</time>
      </trkpt>
      <trkpt lat="59.8823226" lon="17.7177931">
        <ele>25.6123</ele>
        <time>2014-06-15T12:40:43Z</time>
      </trkpt>
      <trkpt lat="59.8823247" lon="17.7179288">
        <ele>25.6123</ele>
        <time>2014-06-15T12:40:44Z</time>
      </trkpt>
      <trkpt lat="59.8823291" lon="17.7180625">
        <ele>26.0929</ele>
        <time>2014-06-15T12:40:45Z</time>
      </trkpt>
      <trkpt lat="59.8823396" lon="17.7181951">
        <ele>26.0929</ele>
        <time>2014-06-15T12:40:46Z</time>
      </trkpt>
      <trkpt lat="59.882356" lon="17.7183276">
        <ele>26.0929</ele>
        <time>2014-06-15T12:40:47Z</time>
      </trkpt>
      <trkpt lat="59.8823764" lon="17.7184597">
        <ele>25.6123</ele>
        <time>2014-06-15T12:40:48Z</time>
      </trkpt>
      <trkpt lat="59.8823997" lon="17.7185924">
        <ele>25.6123</ele>
        <time>2014-06-15T12:40:49Z</time>
      </trkpt>
      <trkpt lat="59.8824245" lon="17.7187251">
        <ele>25.6123</ele>
        <time>2014-06-15T12:40:50Z</time>
      </trkpt>
      <trkpt lat="59.8824505" lon="17.7188575">
        <ele>25.6123</ele>
        <time>2014-06-15T12:40:51Z</time>
      </trkpt>
      <trkpt lat="59.882478" lon="17.7189899">
        <ele>25.6123</ele>
        <time>2014-06-15T12:40:52Z</time>
      </trkpt>
      <trkpt lat="59.8825064" lon="17.7191233">
        <ele>25.6123</ele>
        <time>2014-06-15T12:40:53Z</time>
      </trkpt>
      <trkpt lat="59.8825354" lon="17.719256">
        <ele>25.6123</ele>
        <time>2014-06-15T12:40:54Z</time>
      </trkpt>
      <trkpt lat="59.8825649" lon="17.7193877">
        <ele>25.6123</ele>
        <time>2014-06-15T12:40:55Z</time>
      </trkpt>
      <trkpt lat="59.882594" lon="17.7195198">
        <ele>26.0929</ele>
        <time>2014-06-15T12:40:56Z</time>
      </trkpt>
      <trkpt lat="59.8826226" lon="17.7196521">
        <ele>26.0929</ele>
        <time>2014-06-15T12:40:57Z</time>
      </trkpt>
      <trkpt lat="59.8826516" lon="17.7197835">
        <ele>26.0929</ele>
        <time>2014-06-15T12:40:58Z</time>
      </trkpt>
      <trkpt lat="59.8826806" lon="17.719914">
        <ele>26.0929</ele>
        <time>2014-06-15T12:40:59Z</time>
      </trkpt>
      <trkpt lat="59.8827098" lon="17.720044">
        <ele>26.0929</ele>
        <time>2014-06-15T12:41:00Z</time>
      </trkpt>
      <trkpt lat="59.8827391" lon="17.7201729">
        <ele>26.0929</ele>
        <time>2014-06-15T12:41:01Z</time>
      </trkpt>
      <trkpt lat="59.882767" lon="17.7202993">
        <ele>26.0929</ele>
        <time>2014-06-15T12:41:02Z</time>
      </trkpt>
      <trkpt lat="59.8827929" lon="17.7204227">
        <ele>26.0929</ele>
        <time>2014-06-15T12:41:03Z</time>
      </trkpt>
      <trkpt lat="59.882816" lon="17.7205438">
        <ele>26.0929</ele>
        <time>2014-06-15T12:41:04Z</time>
      </trkpt>
      <trkpt lat="59.8828323" lon="17.7206655">
        <ele>26.5736</ele>
        <time>2014-06-15T12:41:05Z</time>
      </trkpt>
      <trkpt lat="59.8828369" lon="17.7207894">
        <ele>26.5736</ele>
        <time>2014-06-15T12:41:06Z</time>
      </trkpt>
      <trkpt lat="59.8828246" lon="17.7209101">
        <ele>26.5736</ele>
        <time>2014-06-15T12:41:07Z</time>
      </trkpt>
      <trkpt lat="59.8827938" lon="17.7210194">
        <ele>26.0929</ele>
        <time>2014-06-15T12:41:08Z</time>
      </trkpt>
      <trkpt lat="59.8827468" lon="17.721109">
        <ele>26.0929</ele>
        <time>2014-06-15T12:41:09Z</time>
      </trkpt>
      <trkpt lat="59.8826893" lon="17.7211802">
        <ele>26.0929</ele>
        <time>2014-06-15T12:41:10Z</time>
      </trkpt>
      <trkpt lat="59.8826276" lon="17.7212416">
        <ele>25.6123</ele>
        <time>2014-06-15T12:41:11Z</time>
      </trkpt>
      <trkpt lat="59.8825641" lon="17.7213001">
        <ele>25.6123</ele>
        <time>2014-06-15T12:41:12Z</time>
      </trkpt>
      <trkpt lat="59.8825005" lon="17.7213612">
        <ele>25.6123</ele>
        <time>2014-06-15T12:41:13Z</time>
      </trkpt>
      <trkpt lat="59.8824348" lon="17.7214229">
        <ele>25.6123</ele>
        <time>2014-06-15T12:41:14Z</time>
      </trkpt>
      <trkpt lat="59.8823682" lon="17.7214879">
        <ele>25.6123</ele>
        <time>2014-06-15T12:41:15Z</time>
      </trkpt>
      <trkpt lat="59.8823029" lon="17.7215576">
        <ele>25.6123</ele>
        <time>2014-06-15T12:41:16Z</time>
      </trkpt>
      <trkpt lat="59.8822361" lon="17.7216307">
        <ele>25.6123</ele>
        <time>2014-06-15T12:41:17Z</time>
      </trkpt>
      <trkpt lat="59.8821703" lon="17.7217094">
        <ele>25.6123</ele>
        <time>2014-06-15T12:41:18Z</time>
      </trkpt>
      <trkpt lat="59.8821059" lon="17.7217937">
        <ele>25.6123</ele>
        <time>2014-06-15T12:41:19Z</time>
      </trkpt>
      <trkpt lat="59.8820435" lon="17.7218839">
        <ele>25.6123</ele>
        <time>2014-06-15T12:41:20Z</time>
      </trkpt>
      <trkpt lat="59.8819848" lon="17.7219821">
        <ele>25.6123</ele>
        <time>2014-06-15T12:41:21Z</time>
      </trkpt>
      <trkpt lat="59.8819295" lon="17.722088">
        <ele>25.6123</ele>
        <time>2014-06-15T12:41:22Z</time>
      </trkpt>
      <trkpt lat="59.8818761" lon="17.7221984">
        <ele>25.1317</ele>
        <time>2014-06-15T12:41:23Z</time>
      </trkpt>
      <trkpt lat="59.8818237" lon="17.7223108">
        <ele>25.1317</ele>
        <time>2014-06-15T12:41:24Z</time>
      </trkpt>
      <trkpt lat="59.8817709" lon="17.7224229">
        <ele>25.1317</ele>
        <time>2014-06-15T12:41:25Z</time>
      </trkpt>
      <trkpt lat="59.8817168" lon="17.7225335">
        <ele>25.1317</ele>
        <time>2014-06-15T12:41:26Z</time>
      </trkpt>
      <trkpt lat="59.8816626" lon="17.7226455">
        <ele>25.1317</ele>
        <time>2014-06-15T12:41:27Z</time>
      </trkpt>
      <trkpt lat="59.8816098" lon="17.7227599">
        <ele>25.6123</ele>
        <time>2014-06-15T12:41:28Z</time>
      </trkpt>
      <trkpt lat="59.881558" lon="17.7228759">
        <ele>25.6123</ele>
        <time>2014-06-15T12:41:29Z</time>
      </trkpt>
      <trkpt lat="59.8815077" lon="17.7229938">
        <ele>25.6123</ele>
        <time>2014-06-15T12:41:30Z</time>
      </trkpt>
      <trkpt lat="59.881461" lon="17.7231172">
        <ele>25.6123</ele>
        <time>2014-06-15T12:41:31Z</time>
      </trkpt>
      <trkpt lat="59.8814229" lon="17.7232513">
        <ele>25.6123</ele>
        <time>2014-06-15T12:41:32Z</time>
      </trkpt>
      <trkpt lat="59.8813993" lon="17.7233981">
        <ele>25.6123</ele>
        <time>2014-06-15T12:41:33Z</time>
      </trkpt>
      <trkpt lat="59.8813928" lon="17.7235535">
        <ele>25.6123</ele>
        <time>2014-06-15T12:41:34Z</time>
      </trkpt>
      <trkpt lat="59.8814029" lon="17.7237097">
        <ele>25.6123</ele>
        <time>2014-06-15T12:41:35Z</time>
      </trkpt>
      <trkpt lat="59.8814259" lon="17.7238604">
        <ele>25.6123</ele>
        <time>2014-06-15T12:41:36Z</time>
      </trkpt>
      <trkpt lat="59.881457" lon="17.7240057">
        <ele>25.6123</ele>
        <time>2014-06-15T12:41:37Z</time>
      </trkpt>
      <trkpt lat="59.8814909" lon="17.7241482">
        <ele>25.6123</ele>
        <time>2014-06-15T12:41:38Z</time>
      </trkpt>
      <trkpt lat="59.8815263" lon="17.7242886">
        <ele>25.6123</ele>
        <time>2014-06-15T12:41:39Z</time>
      </trkpt>
      <trkpt lat="59.8815627" lon="17.7244268">
        <ele>25.6123</ele>
        <time>2014-06-15T12:41:40Z</time>
      </trkpt>
      <trkpt lat="59.8815989" lon="17.7245646">
        <ele>25.6123</ele>
        <time>2014-06-15T12:41:41Z</time>
      </trkpt>
      <trkpt lat="59.8816351" lon="17.7246999">
        <ele>26.0929</ele>
        <time>2014-06-15T12:41:42Z</time>
      </trkpt>
      <trkpt lat="59.8816712" lon="17.7248335">
        <ele>26.0929</ele>
        <time>2014-06-15T12:41:43Z</time>
      </trkpt>
      <trkpt lat="59.8817067" lon="17.7249671">
        <ele>26.0929</ele>
        <time>2014-06-15T12:41:44Z</time>
      </trkpt>
      <trkpt lat="59.8817415" lon="17.7251013">
        <ele>26.0929</ele>
        <time>2014-06-15T12:41:45Z</time>
      </trkpt>
      <trkpt lat="59.8817771" lon="17.7252343">
        <ele>26.0929</ele>
        <time>2014-06-15T12:41:46Z</time>
      </trkpt>
      <trkpt lat="59.8818142" lon="17.725365">
        <ele>26.5736</ele>
        <time>2014-06-15T12:41:47Z</time>
      </trkpt>
      <trkpt lat="59.8818517" lon="17.7254945">
        <ele>26.5736</ele>
        <time>2014-06-15T12:41:48Z</time>
      </trkpt>
      <trkpt lat="59.8818894" lon="17.7256223">
        <ele>26.5736</ele>
        <time>2014-06-15T12:41:49Z</time>
      </trkpt>
      <trkpt lat="59.8819279" lon="17.7257477">
        <ele>26.5736</ele>
        <time>2014-06-15T12:41:50Z</time>
      </trkpt>
      <trkpt lat="59.8819681" lon="17.725871">
        <ele>27.0543</ele>
        <time>2014-06-15T12:41:51Z</time>
      </trkpt>
      <trkpt lat="59.8820087" lon="17.7259934">
        <ele>27.0543</ele>
        <time>2014-06-15T12:41:52Z</time>
      </trkpt>
      <trkpt lat="59.8820494" lon="17.726115">
        <ele>27.0543</ele>
        <time>2014-06-15T12:41:53Z</time>
      </trkpt>
      <trkpt lat="59.8820899" lon="17.7262357">
        <ele>27.0543</ele>
        <time>2014-06-15T12:41:54Z</time>
      </trkpt>
      <trkpt lat="59.88213" lon="17.7263554">
        <ele>27.0543</ele>
        <time>2014-06-15T12:41:55Z</time>
      </trkpt>
      <trkpt lat="59.8821696" lon="17.7264739">
        <ele>27.5349</ele>
        <time>2014-06-15T12:41:56Z</time>
      </trkpt>
      <trkpt lat="59.8822081" lon="17.7265916">
        <ele>27.5349</ele>
        <time>2014-06-15T12:41:57Z</time>
      </trkpt>
      <trkpt lat="59.8822459" lon="17.7267097">
        <ele>27.5349</ele>
        <time>2014-06-15T12:41:58Z</time>
      </trkpt>
      <trkpt lat="59.8822832" lon="17.7268278">
        <ele>27.5349</ele>
        <time>2014-06-15T12:41:59Z</time>
      </trkpt>
      <trkpt lat="59.8823198" lon="17.7269452">
        <ele>27.5349</ele>
        <time>2014-06-15T12:42:00Z</time>
      </trkpt>
      <trkpt lat="59.8823552" lon="17.7270625">
        <ele>27.5349</ele>
        <time>2014-06-15T12:42:01Z</time>
      </trkpt>
      <trkpt lat="59.8823897" lon="17.7271805">
        <ele>28.0155</ele>
        <time>2014-06-15T12:42:02Z</time>
      </trkpt>
      <trkpt lat="59.8824213" lon="17.7272993">
        <ele>28.0155</ele>
        <time>2014-06-15T12:42:03Z</time>
      </trkpt>
      <trkpt lat="59.8824503" lon="17.727421">
        <ele>28.0155</ele>
        <time>2014-06-15T12:42:04Z</time>
      </trkpt>
      <trkpt lat="59.8824785" lon="17.7275426">
        <ele>28.0155</ele>
        <time>2014-06-15T12:42:05Z</time>
      </trkpt>
      <trkpt lat="59.882507" lon="17.7276652">
        <ele>28.0155</ele>
        <time>2014-06-15T12:42:06Z</time>
      </trkpt>
      <trkpt lat="59.8825348" lon="17.7277912">
        <ele>27.5349</ele>
        <time>2014-06-15T12:42:07Z</time>
      </trkpt>
      <trkpt lat="59.8825619" lon="17.7279201">
        <ele>27.5349</ele>
        <time>2014-06-15T12:42:08Z</time>
      </trkpt>
      <trkpt lat="59.8825888" lon="17.7280524">
        <ele>27.5349</ele>
        <time>2014-06-15T12:42:09Z</time>
      </trkpt>
      <trkpt lat="59.8826167" lon="17.7281788">
        <ele>27.5349</ele>
        <time>2014-06-15T12:42:10Z</time>
      </trkpt>
      <trkpt lat="59.8826438" lon="17.7283112">
        <ele>27.5349</ele>
        <time>2014-06-15T12:42:11Z</time>
      </trkpt>
      <trkpt lat="59.8826692" lon="17.7284496">
        <ele>27.0543</ele>
        <time>2014-06-15T12:42:12Z</time>
      </trkpt>
      <trkpt lat="59.8826941" lon="17.7285791">
        <ele>27.0543</ele>
        <time>2014-06-15T12:42:13Z</time>
      </trkpt>
      <trkpt lat="59.8827186" lon="17.7287072">
        <ele>27.0543</ele>
        <time>2014-06-15T12:42:14Z</time>
      </trkpt>
      <trkpt lat="59.882743" lon="17.7288347">
        <ele>27.0543</ele>
        <time>2014-06-15T12:42:15Z</time>
      </trkpt>
      <trkpt lat="59.8827669" lon="17.7289625">
        <ele>27.0543</ele>
        <time>2014-06-15T12:42:16Z</time>
      </trkpt>
      <trkpt lat="59.8827894" lon="17.7290936">
        <ele>27.0543</ele>
        <time>2014-06-15T12:42:17Z</time>
      </trkpt>
      <trkpt lat="59.8828101" lon="17.7292266">
        <ele>26.5736</ele>
        <time>2014-06-15T12:42:18Z</time>
      </trkpt>
      <trkpt lat="59.8828288" lon="17.7293628">
        <ele>26.5736</ele>
        <time>2014-06-15T12:42:19Z</time>
      </trkpt>
      <trkpt lat="59.882844" lon="17.7295007">
        <ele>26.5736</ele>
        <time>2014-06-15T12:42:20Z</time>
      </trkpt>
      <trkpt lat="59.8828528" lon="17.7296401">
        <ele>26.5736</ele>
        <time>2014-06-15T12:42:21Z</time>
      </trkpt>
      <trkpt lat="59.8828576" lon="17.7297806">
        <ele>27.0543</ele>
        <time>2014-06-15T12:42:22Z</time>
      </trkpt>
      <trkpt lat="59.8828514" lon="17.7299177">
        <ele>27.5349</ele>
        <time>2014-06-15T12:42:23Z</time>
      </trkpt>
      <trkpt lat="59.8828334" lon="17.7300482">
        <ele>27.5349</ele>
        <time>2014-06-15T12:42:24Z</time>
      </trkpt>
      <trkpt lat="59.8828065" lon="17.7301656">
        <ele>28.0155</ele>
        <time>2014-06-15T12:42:25Z</time>
      </trkpt>
      <trkpt lat="59.8827733" lon="17.7302647">
        <ele>28.0155</ele>
        <time>2014-06-15T12:42:26Z</time>
      </trkpt>
      <trkpt lat="59.8827401" lon="17.7303563">
        <ele>28.4962</ele>
        <time>2014-06-15T12:42:27Z</time>
      </trkpt>
      <trkpt lat="59.8827095" lon="17.7304441">
        <ele>28.4962</ele>
        <time>2014-06-15T12:42:28Z</time>
      </trkpt>
      <trkpt lat="59.8826836" lon="17.7305419">
        <ele>28.4962</ele>
        <time>2014-06-15T12:42:29Z</time>
      </trkpt>
      <trkpt lat="59.8826685" lon="17.7306572">
        <ele>28.4962</ele>
        <time>2014-06-15T12:42:30Z</time>
      </trkpt>
      <trkpt lat="59.8826695" lon="17.7307771">
        <ele>28.4962</ele>
        <time>2014-06-15T12:42:31Z</time>
      </trkpt>
      <trkpt lat="59.8826819" lon="17.7309005">
        <ele>28.4962</ele>
        <time>2014-06-15T12:42:32Z</time>
      </trkpt>
      <trkpt lat="59.8827021" lon="17.7310305">
        <ele>28.4962</ele>
        <time>2014-06-15T12:42:33Z</time>
      </trkpt>
      <trkpt lat="59.882735" lon="17.7311629">
        <ele>28.0155</ele>
        <time>2014-06-15T12:42:34Z</time>
      </trkpt>
      <trkpt lat="59.8827643" lon="17.7312959">
        <ele>27.5349</ele>
        <time>2014-06-15T12:42:35Z</time>
      </trkpt>
      <trkpt lat="59.8828046" lon="17.7314433">
        <ele>27.5349</ele>
        <time>2014-06-15T12:42:36Z</time>
      </trkpt>
      <trkpt lat="59.8828547" lon="17.7315811">
        <ele>27.0543</ele>
        <time>2014-06-15T12:42:37Z</time>
      </trkpt>
      <trkpt lat="59.8829099" lon="17.7317194">
        <ele>26.5736</ele>
        <time>2014-06-15T12:42:38Z</time>
      </trkpt>
      <trkpt lat="59.8829707" lon="17.7318572">
        <ele>26.0929</ele>
        <time>2014-06-15T12:42:39Z</time>
      </trkpt>
      <trkpt lat="59.8830352" lon="17.731995">
        <ele>25.6123</ele>
        <time>2014-06-15T12:42:40Z</time>
      </trkpt>
      <trkpt lat="59.8830989" lon="17.7321359">
        <ele>25.1317</ele>
        <time>2014-06-15T12:42:41Z</time>
      </trkpt>
      <trkpt lat="59.8831615" lon="17.7322793">
        <ele>25.1317</ele>
        <time>2014-06-15T12:42:42Z</time>
      </trkpt>
      <trkpt lat="59.8832217" lon="17.7324245">
        <ele>25.1317</ele>
        <time>2014-06-15T12:42:43Z</time>
      </trkpt>
      <trkpt lat="59.8832778" lon="17.732577">
        <ele>24.651</ele>
        <time>2014-06-15T12:42:44Z</time>
      </trkpt>
      <trkpt lat="59.8833262" lon="17.7327379">
        <ele>24.651</ele>
        <time>2014-06-15T12:42:45Z</time>
      </trkpt>
      <trkpt lat="59.8833658" lon="17.732908">
        <ele>24.1703</ele>
        <time>2014-06-15T12:42:46Z</time>
      </trkpt>
      <trkpt lat="59.8833989" lon="17.7330817">
        <ele>24.1703</ele>
        <time>2014-06-15T12:42:47Z</time>
      </trkpt>
      <trkpt lat="59.8834283" lon="17.7332564">
        <ele>24.1703</ele>
        <time>2014-06-15T12:42:48Z</time>
      </trkpt>
      <trkpt lat="59.8834563" lon="17.7334309">
        <ele>24.1703</ele>
        <time>2014-06-15T12:42:49Z</time>
      </trkpt>
      <trkpt lat="59.8834843" lon="17.7336049">
        <ele>24.1703</ele>
        <time>2014-06-15T12:42:50Z</time>
      </trkpt>
      <trkpt lat="59.8835105" lon="17.7337785">
        <ele>24.1703</ele>
        <time>2014-06-15T12:42:51Z</time>
      </trkpt>
      <trkpt lat="59.8835326" lon="17.7339518">
        <ele>24.1703</ele>
        <time>2014-06-15T12:42:52Z</time>
      </trkpt>
      <trkpt lat="59.8835478" lon="17.7341253">
        <ele>24.1703</ele>
        <time>2014-06-15T12:42:53Z</time>
      </trkpt>
      <trkpt lat="59.8835531" lon="17.7343005">
        <ele>24.1703</ele>
        <time>2014-06-15T12:42:54Z</time>
      </trkpt>
      <trkpt lat="59.8835438" lon="17.7344753">
        <ele>24.1703</ele>
        <time>2014-06-15T12:42:55Z</time>
      </trkpt>
      <trkpt lat="59.8835189" lon="17.7346449">
        <ele>24.1703</ele>
        <time>2014-06-15T12:42:56Z</time>
      </trkpt>
      <trkpt lat="59.8834788" lon="17.7348032">
        <ele>24.1703</ele>
        <time>2014-06-15T12:42:57Z</time>
      </trkpt>
      <trkpt lat="59.8834289" lon="17.7349489">
        <ele>24.1703</ele>
        <time>2014-06-15T12:42:58Z</time>
      </trkpt>
      <trkpt lat="59.8833783" lon="17.7350925">
        <ele>24.1703</ele>
        <time>2014-06-15T12:42:59Z</time>
      </trkpt>
      <trkpt lat="59.8833368" lon="17.7352459">
        <ele>24.1703</ele>
        <time>2014-06-15T12:43:00Z</time>
      </trkpt>
      <trkpt lat="59.883313" lon="17.7354107">
        <ele>24.1703</ele>
        <time>2014-06-15T12:43:01Z</time>
      </trkpt>
      <trkpt lat="59.8833086" lon="17.7355804">
        <ele>24.651</ele>
        <time>2014-06-15T12:43:02Z</time>
      </trkpt>
      <trkpt lat="59.8833214" lon="17.7357478">
        <ele>24.651</ele>
        <time>2014-06-15T12:43:03Z</time>
      </trkpt>
      <trkpt lat="59.8833454" lon="17.7359078">
        <ele>25.1317</ele>
        <time>2014-06-15T12:43:04Z</time>
      </trkpt>
      <trkpt lat="59.8833746" lon="17.736059">
        <ele>25.6123</ele>
        <time>2014-06-15T12:43:05Z</time>
      </trkpt>
      <trkpt lat="59.8834046" lon="17.7362048">
        <ele>25.6123</ele>
        <time>2014-06-15T12:43:06Z</time>
      </trkpt>
      <trkpt lat="59.883435" lon="17.7363442">
        <ele>26.0929</ele>
        <time>2014-06-15T12:43:07Z</time>
      </trkpt>
      <trkpt lat="59.8834667" lon="17.7364747">
        <ele>26.5736</ele>
        <time>2014-06-15T12:43:08Z</time>
      </trkpt>
      <trkpt lat="59.8834991" lon="17.7365962">
        <ele>27.0543</ele>
        <time>2014-06-15T12:43:09Z</time>
      </trkpt>
      <trkpt lat="59.8835316" lon="17.7367109">
        <ele>27.5349</ele>
        <time>2014-06-15T12:43:10Z</time>
      </trkpt>
      <trkpt lat="59.8835647" lon="17.7368206">
        <ele>27.5349</ele>
        <time>2014-06-15T12:43:11Z</time>
      </trkpt>
      <trkpt lat="59.883599" lon="17.7369264">
        <ele>28.0155</ele>
        <time>2014-06-15T12:43:12Z</time>
      </trkpt>
      <trkpt lat="59.8836342" lon="17.7370305">
        <ele>28.0155</ele>
        <time>2014-06-15T12:43:13Z</time>
      </trkpt>
      <trkpt lat="59.8836693" lon="17.7371351">
        <ele>28.0155</ele>
        <time>2014-06-15T12:43:14Z</time>
      </trkpt>
      <trkpt lat="59.8837031" lon="17.7372425">
        <ele>28.4962</ele>
        <time>2014-06-15T12:43:15Z</time>
      </trkpt>
      <trkpt lat="59.8837355" lon="17.7373539">
        <ele>28.4962</ele>
        <time>2014-06-15T12:43:16Z</time>
      </trkpt>
      <trkpt lat="59.8837652" lon="17.7374704">
        <ele>28.4962</ele>
        <time>2014-06-15T12:43:17Z</time>
      </trkpt>
      <trkpt lat="59.8837909" lon="17.7375934">
        <ele>28.4962</ele>
        <time>2014-06-15T12:43:18Z</time>
      </trkpt>
      <trkpt lat="59.8838122" lon="17.7377221">
        <ele>28.4962</ele>
        <time>2014-06-15T12:43:19Z</time>
      </trkpt>
      <trkpt lat="59.8838297" lon="17.7378545">
        <ele>28.4962</ele>
        <time>2014-06-15T12:43:20Z</time>
      </trkpt>
      <trkpt lat="59.8838441" lon="17.7379878">
        <ele>28.4962</ele>
        <time>2014-06-15T12:43:21Z</time>
      </trkpt>
      <trkpt lat="59.8838568" lon="17.7381194">
        <ele>28.4962</ele>
        <time>2014-06-15T12:43:22Z</time>
      </trkpt>
      <trkpt lat="59.8838688" lon="17.7382489">
        <ele>28.4962</ele>
        <time>2014-06-15T12:43:23Z</time>
      </trkpt>
      <trkpt lat="59.8838808" lon="17.7383784">
        <ele>28.4962</ele>
        <time>2014-06-15T12:43:24Z</time>
      </trkpt>
      <trkpt lat="59.8838931" lon="17.7385088">
        <ele>28.4962</ele>
        <time>2014-06-15T12:43:25Z</time>
      </trkpt>
      <trkpt lat="59.8839056" lon="17.7386394">
        <ele>28.4962</ele>
        <time>2014-06-15T12:43:26Z</time>
      </trkpt>
      <trkpt lat="59.8839185" lon="17.73877">
        <ele>28.9769</ele>
        <time>2014-06-15T12:43:27Z</time>
      </trkpt>
      <trkpt lat="59.8839316" lon="17.7389011">
        <ele>28.9769</ele>
        <time>2014-06-15T12:43:28Z</time>
      </trkpt>
      <trkpt lat="59.8839435" lon="17.7390325">
        <ele>28.9769</ele>
        <time>2014-06-15T12:43:29Z</time>
      </trkpt>
      <trkpt lat="59.8839557" lon="17.7391595">
        <ele>28.9769</ele>
        <time>2014-06-15T12:43:30Z</time>
      </trkpt>
      <trkpt lat="59.8839681" lon="17.7392821">
        <ele>28.9769</ele>
        <time>2014-06-15T12:43:31Z</time>
      </trkpt>
      <trkpt lat="59.8839781" lon="17.7394045">
        <ele>28.9769</ele>
        <time>2014-06-15T12:43:32Z</time>
      </trkpt>
      <trkpt lat="59.8839906" lon="17.7395221">
        <ele>28.9769</ele>
        <time>2014-06-15T12:43:33Z</time>
      </trkpt>
      <trkpt lat="59.8840077" lon="17.739632">
        <ele>28.9769</ele>
        <time>2014-06-15T12:43:34Z</time>
      </trkpt>
      <trkpt lat="59.8840325" lon="17.7397326">
        <ele>28.9769</ele>
        <time>2014-06-15T12:43:35Z</time>
      </trkpt>
      <trkpt lat="59.8840698" lon="17.7398147">
        <ele>28.9769</ele>
        <time>2014-06-15T12:43:36Z</time>
      </trkpt>
      <trkpt lat="59.884118" lon="17.7398697">
        <ele>28.9769</ele>
        <time>2014-06-15T12:43:37Z</time>
      </trkpt>
      <trkpt lat="59.8841734" lon="17.7398924">
        <ele>28.9769</ele>
        <time>2014-06-15T12:43:38Z</time>
      </trkpt>
      <trkpt lat="59.884234" lon="17.7398904">
        <ele>28.9769</ele>
        <time>2014-06-15T12:43:39Z</time>
      </trkpt>
      <trkpt lat="59.8842951" lon="17.7398724">
        <ele>28.9769</ele>
        <time>2014-06-15T12:43:40Z</time>
      </trkpt>
      <trkpt lat="59.8843571" lon="17.7398413">
        <ele>28.9769</ele>
        <time>2014-06-15T12:43:41Z</time>
      </trkpt>
      <trkpt lat="59.8844206" lon="17.7398034">
        <ele>28.4962</ele>
        <time>2014-06-15T12:43:42Z</time>
      </trkpt>
      <trkpt lat="59.8844858" lon="17.739763">
        <ele>28.4962</ele>
        <time>2014-06-15T12:43:43Z</time>
      </trkpt>
      <trkpt lat="59.884551" lon="17.7397217">
        <ele>28.4962</ele>
        <time>2014-06-15T12:43:44Z</time>
      </trkpt>
      <trkpt lat="59.8846156" lon="17.7396773">
        <ele>28.4962</ele>
        <time>2014-06-15T12:43:45Z</time>
      </trkpt>
      <trkpt lat="59.8846803" lon="17.739632">
        <ele>28.0155</ele>
        <time>2014-06-15T12:43:46Z</time>
      </trkpt>
      <trkpt lat="59.8847471" lon="17.7395891">
        <ele>28.0155</ele>
        <time>2014-06-15T12:43:47Z</time>
      </trkpt>
      <trkpt lat="59.8848152" lon="17.7395458">
        <ele>27.5349</ele>
        <time>2014-06-15T12:43:48Z</time>
      </trkpt>
      <trkpt lat="59.8848845" lon="17.7395015">
        <ele>27.5349</ele>
        <time>2014-06-15T12:43:49Z</time>
      </trkpt>
      <trkpt lat="59.8849559" lon="17.7394668">
        <ele>27.0543</ele>
        <time>2014-06-15T12:43:50Z</time>
      </trkpt>
      <trkpt lat="59.8850297" lon="17.7394536">
        <ele>27.0543</ele>
        <time>2014-06-15T12:43:51Z</time>
      </trkpt>
      <trkpt lat="59.8851042" lon="17.7394712">
        <ele>26.5736</ele>
        <time>2014-06-15T12:43:52Z</time>
      </trkpt>
      <trkpt lat="59.8851733" lon="17.7395298">
        <ele>26.5736</ele>
        <time>2014-06-15T12:43:53Z</time>
      </trkpt>
      <trkpt lat="59.8852276" lon="17.7396309">
        <ele>26.0929</ele>
        <time>2014-06-15T12:43:54Z</time>
      </trkpt>
      <trkpt lat="59.8852638" lon="17.7397593">
        <ele>26.0929</ele>
        <time>2014-06-15T12:43:55Z</time>
      </trkpt>
      <trkpt lat="59.8852902" lon="17.739895">
        <ele>26.0929</ele>
        <time>2014-06-15T12:43:56Z</time>
      </trkpt>
      <trkpt lat="59.8853142" lon="17.7400312">
        <ele>26.0929</ele>
        <time>2014-06-15T12:43:57Z</time>
      </trkpt>
      <trkpt lat="59.8853373" lon="17.7401682">
        <ele>26.0929</ele>
        <time>2014-06-15T12:43:58Z</time>
      </trkpt>
      <trkpt lat="59.8853595" lon="17.7403049">
        <ele>26.0929</ele>
        <time>2014-06-15T12:43:59Z</time>
      </trkpt>
      <trkpt lat="59.8853824" lon="17.7404399">
        <ele>26.0929</ele>
        <time>2014-06-15T12:44:00Z</time>
      </trkpt>
      <trkpt lat="59.8854078" lon="17.7405741">
        <ele>25.6123</ele>
        <time>2014-06-15T12:44:01Z</time>
      </trkpt>
      <trkpt lat="59.8854372" lon="17.7407197">
        <ele>25.6123</ele>
        <time>2014-06-15T12:44:02Z</time>
      </trkpt>
      <trkpt lat="59.8854711" lon="17.7408539">
        <ele>25.6123</ele>
        <time>2014-06-15T12:44:03Z</time>
      </trkpt>
      <trkpt lat="59.8855139" lon="17.7409778">
        <ele>25.6123</ele>
        <time>2014-06-15T12:44:04Z</time>
      </trkpt>
      <trkpt lat="59.8855663" lon="17.7410895">
        <ele>25.1317</ele>
        <time>2014-06-15T12:44:05Z</time>
      </trkpt>
      <trkpt lat="59.8856279" lon="17.7411858">
        <ele>25.1317</ele>
        <time>2014-06-15T12:44:06Z</time>
      </trkpt>
      <trkpt lat="59.8856959" lon="17.7412677">
        <ele>24.651</ele>
        <time>2014-06-15T12:44:07Z</time>
      </trkpt>
      <trkpt lat="59.8857636" lon="17.7413341">
        <ele>24.1703</ele>
        <time>2014-06-15T12:44:08Z</time>
      </trkpt>
      <trkpt lat="59.8858368" lon="17.7413987">
        <ele>23.6896</ele>
        <time>2014-06-15T12:44:09Z</time>
      </trkpt>
      <trkpt lat="59.8859138" lon="17.7414683">
        <ele>23.209</ele>
        <time>2014-06-15T12:44:10Z</time>
      </trkpt>
      <trkpt lat="59.885993" lon="17.7415449">
        <ele>22.7283</ele>
        <time>2014-06-15T12:44:11Z</time>
      </trkpt>
      <trkpt lat="59.8860736" lon="17.7416284">
        <ele>22.2476</ele>
        <time>2014-06-15T12:44:12Z</time>
      </trkpt>
      <trkpt lat="59.8861548" lon="17.7417171">
        <ele>22.2476</ele>
        <time>2014-06-15T12:44:13Z</time>
      </trkpt>
      <trkpt lat="59.8862352" lon="17.7418071">
        <ele>21.767</ele>
        <time>2014-06-15T12:44:14Z</time>
      </trkpt>
      <trkpt lat="59.8863139" lon="17.7418972">
        <ele>21.767</ele>
        <time>2014-06-15T12:44:15Z</time>
      </trkpt>
      <trkpt lat="59.8863905" lon="17.7419893">
        <ele>21.767</ele>
        <time>2014-06-15T12:44:16Z</time>
      </trkpt>
      <trkpt lat="59.8864645" lon="17.7420817">
        <ele>21.2864</ele>
        <time>2014-06-15T12:44:17Z</time>
      </trkpt>
      <trkpt lat="59.8865366" lon="17.7421723">
        <ele>21.2864</ele>
        <time>2014-06-15T12:44:18Z</time>
      </trkpt>
      <trkpt lat="59.886607" lon="17.742262">
        <ele>21.2864</ele>
        <time>2014-06-15T12:44:19Z</time>
      </trkpt>
      <trkpt lat="59.8866774" lon="17.7423508">
        <ele>21.2864</ele>
        <time>2014-06-15T12:44:20Z</time>
      </trkpt>
      <trkpt lat="59.8867468" lon="17.7424391">
        <ele>21.767</ele>
        <time>2014-06-15T12:44:21Z</time>
      </trkpt>
      <trkpt lat="59.8868136" lon="17.7425322">
        <ele>21.767</ele>
        <time>2014-06-15T12:44:22Z</time>
      </trkpt>
      <trkpt lat="59.8868785" lon="17.7426302">
        <ele>21.767</ele>
        <time>2014-06-15T12:44:23Z</time>
      </trkpt>
      <trkpt lat="59.8869435" lon="17.742732">
        <ele>21.767</ele>
        <time>2014-06-15T12:44:24Z</time>
      </trkpt>
      <trkpt lat="59.8870093" lon="17.7428359">
        <ele>21.767</ele>
        <time>2014-06-15T12:44:25Z</time>
      </trkpt>
      <trkpt lat="59.8870758" lon="17.7429408">
        <ele>21.767</ele>
        <time>2014-06-15T12:44:26Z</time>
      </trkpt>
      <trkpt lat="59.8871426" lon="17.7430483">
        <ele>21.767</ele>
        <time>2014-06-15T12:44:27Z</time>
      </trkpt>
      <trkpt lat="59.8872094" lon="17.7431586">
        <ele>21.767</ele>
        <time>2014-06-15T12:44:28Z</time>
      </trkpt>
      <trkpt lat="59.8872759" lon="17.7432698">
        <ele>21.767</ele>
        <time>2014-06-15T12:44:29Z</time>
      </trkpt>
      <trkpt lat="59.8873429" lon="17.7433808">
        <ele>21.767</ele>
        <time>2014-06-15T12:44:30Z</time>
      </trkpt>
      <trkpt lat="59.8874095" lon="17.7434907">
        <ele>21.767</ele>
        <time>2014-06-15T12:44:31Z</time>
      </trkpt>
      <trkpt lat="59.8874767" lon="17.7436005">
        <ele>22.2476</ele>
        <time>2014-06-15T12:44:32Z</time>
      </trkpt>
      <trkpt lat="59.8875424" lon="17.7437093">
        <ele>22.2476</ele>
        <time>2014-06-15T12:44:33Z</time>
      </trkpt>
      <trkpt lat="59.8876063" lon="17.7438164">
        <ele>22.7283</ele>
        <time>2014-06-15T12:44:34Z</time>
      </trkpt>
      <trkpt lat="59.8876689" lon="17.74392">
        <ele>23.209</ele>
        <time>2014-06-15T12:44:35Z</time>
      </trkpt>
      <trkpt lat="59.8877305" lon="17.7440216">
        <ele>23.209</ele>
        <time>2014-06-15T12:44:36Z</time>
      </trkpt>
      <trkpt lat="59.8877915" lon="17.7441232">
        <ele>23.6896</ele>
        <time>2014-06-15T12:44:37Z</time>
      </trkpt>
      <trkpt lat="59.8878526" lon="17.7442252">
        <ele>23.6896</ele>
        <time>2014-06-15T12:44:38Z</time>
      </trkpt>
      <trkpt lat="59.8879137" lon="17.7443272">
        <ele>23.6896</ele>
        <time>2014-06-15T12:44:39Z</time>
      </trkpt>
      <trkpt lat="59.8879744" lon="17.7444288">
        <ele>24.1703</ele>
        <time>2014-06-15T12:44:40Z</time>
      </trkpt>
      <trkpt lat="59.8880348" lon="17.7445297">
        <ele>24.1703</ele>
        <time>2014-06-15T12:44:41Z</time>
      </trkpt>
      <trkpt lat="59.8880948" lon="17.7446297">
        <ele>24.651</ele>
        <time>2014-06-15T12:44:42Z</time>
      </trkpt>
      <trkpt lat="59.8881543" lon="17.7447293">
        <ele>24.651</ele>
        <time>2014-06-15T12:44:43Z</time>
      </trkpt>
      <trkpt lat="59.8882129" lon="17.7448285">
        <ele>25.1317</ele>
        <time>2014-06-15T12:44:44Z</time>
      </trkpt>
      <trkpt lat="59.8882712" lon="17.7449267">
        <ele>25.1317</ele>
        <time>2014-06-15T12:44:45Z</time>
      </trkpt>
      <trkpt lat="59.8883292" lon="17.745024">
        <ele>25.1317</ele>
        <time>2014-06-15T12:44:46Z</time>
      </trkpt>
      <trkpt lat="59.8883873" lon="17.7451218">
        <ele>25.6123</ele>
        <time>2014-06-15T12:44:47Z</time>
      </trkpt>
      <trkpt lat="59.8884455" lon="17.7452197">
        <ele>25.6123</ele>
        <time>2014-06-15T12:44:48Z</time>
      </trkpt>
      <trkpt lat="59.8885038" lon="17.7453182">
        <ele>25.6123</ele>
        <time>2014-06-15T12:44:49Z</time>
      </trkpt>
      <trkpt lat="59.8885619" lon="17.7454179">
        <ele>26.0929</ele>
        <time>2014-06-15T12:44:50Z</time>
      </trkpt>
      <trkpt lat="59.88862" lon="17.7455179">
        <ele>26.0929</ele>
        <time>2014-06-15T12:44:51Z</time>
      </trkpt>
      <trkpt lat="59.8886784" lon="17.7456175">
        <ele>26.0929</ele>
        <time>2014-06-15T12:44:52Z</time>
      </trkpt>
      <trkpt lat="59.8887365" lon="17.7457163">
        <ele>26.5736</ele>
        <time>2014-06-15T12:44:53Z</time>
      </trkpt>
      <trkpt lat="59.8887944" lon="17.7458143">
        <ele>26.5736</ele>
        <time>2014-06-15T12:44:54Z</time>
      </trkpt>
      <trkpt lat="59.8888516" lon="17.7459117">
        <ele>26.5736</ele>
        <time>2014-06-15T12:44:55Z</time>
      </trkpt>
      <trkpt lat="59.8889085" lon="17.7460088">
        <ele>27.0543</ele>
        <time>2014-06-15T12:44:56Z</time>
      </trkpt>
      <trkpt lat="59.8889648" lon="17.7461061">
        <ele>27.0543</ele>
        <time>2014-06-15T12:44:57Z</time>
      </trkpt>
      <trkpt lat="59.8890209" lon="17.7462022">
        <ele>27.0543</ele>
        <time>2014-06-15T12:44:58Z</time>
      </trkpt>
      <trkpt lat="59.8890767" lon="17.7462961">
        <ele>27.0543</ele>
        <time>2014-06-15T12:44:59Z</time>
      </trkpt>
      <trkpt lat="59.8891318" lon="17.7463884">
        <ele>27.5349</ele>
        <time>2014-06-15T12:45:00Z</time>
      </trkpt>
      <trkpt lat="59.8891856" lon="17.7464807">
        <ele>27.5349</ele>
        <time>2014-06-15T12:45:01Z</time>
      </trkpt>
      <trkpt lat="59.8892384" lon="17.7465716">
        <ele>27.5349</ele>
        <time>2014-06-15T12:45:02Z</time>
      </trkpt>
      <trkpt lat="59.8892907" lon="17.7466594">
        <ele>28.0155</ele>
        <time>2014-06-15T12:45:03Z</time>
      </trkpt>
      <trkpt lat="59.889342" lon="17.7467454">
        <ele>28.0155</ele>
        <time>2014-06-15T12:45:04Z</time>
      </trkpt>
      <trkpt lat="59.8893921" lon="17.7468311">
        <ele>28.0155</ele>
        <time>2014-06-15T12:45:05Z</time>
      </trkpt>
      <trkpt lat="59.889441" lon="17.7469166">
        <ele>28.0155</ele>
        <time>2014-06-15T12:45:06Z</time>
      </trkpt>
      <trkpt lat="59.8894888" lon="17.7470007">
        <ele>28.4962</ele>
        <time>2014-06-15T12:45:07Z</time>
      </trkpt>
      <trkpt lat="59.8895368" lon="17.7470824">
        <ele>28.4962</ele>
        <time>2014-06-15T12:45:08Z</time>
      </trkpt>
      <trkpt lat="59.8895841" lon="17.7471637">
        <ele>28.4962</ele>
        <time>2014-06-15T12:45:09Z</time>
      </trkpt>
      <trkpt lat="59.8896312" lon="17.7472445">
        <ele>28.4962</ele>
        <time>2014-06-15T12:45:10Z</time>
      </trkpt>
      <trkpt lat="59.8896772" lon="17.7473238">
        <ele>28.9769</ele>
        <time>2014-06-15T12:45:11Z</time>
      </trkpt>
      <trkpt lat="59.8897228" lon="17.7474011">
        <ele>28.9769</ele>
        <time>2014-06-15T12:45:12Z</time>
      </trkpt>
      <trkpt lat="59.8897685" lon="17.7474768">
        <ele>28.9769</ele>
        <time>2014-06-15T12:45:13Z</time>
      </trkpt>
      <trkpt lat="59.8898138" lon="17.747553">
        <ele>28.9769</ele>
        <time>2014-06-15T12:45:14Z</time>
      </trkpt>
      <trkpt lat="59.8898579" lon="17.7476296">
        <ele>29.4575</ele>
        <time>2014-06-15T12:45:15Z</time>
      </trkpt>
      <trkpt lat="59.8899013" lon="17.747704">
        <ele>29.4575</ele>
        <time>2014-06-15T12:45:16Z</time>
      </trkpt>
      <trkpt lat="59.8899436" lon="17.7477764">
        <ele>29.4575</ele>
        <time>2014-06-15T12:45:17Z</time>
      </trkpt>
      <trkpt lat="59.8899853" lon="17.7478492">
        <ele>29.9381</ele>
        <time>2014-06-15T12:45:18Z</time>
      </trkpt>
      <trkpt lat="59.8900269" lon="17.7479212">
        <ele>29.9381</ele>
        <time>2014-06-15T12:45:19Z</time>
      </trkpt>
      <trkpt lat="59.8900692" lon="17.7479916">
        <ele>30.4188</ele>
        <time>2014-06-15T12:45:20Z</time>
      </trkpt>
      <trkpt lat="59.8901124" lon="17.7480621">
        <ele>30.4188</ele>
        <time>2014-06-15T12:45:21Z</time>
      </trkpt>
      <trkpt lat="59.8901567" lon="17.7481339">
        <ele>30.4188</ele>
        <time>2014-06-15T12:45:22Z</time>
      </trkpt>
      <trkpt lat="59.8902025" lon="17.7482059">
        <ele>30.8995</ele>
        <time>2014-06-15T12:45:23Z</time>
      </trkpt>
      <trkpt lat="59.8902498" lon="17.7482749">
        <ele>30.8995</ele>
        <time>2014-06-15T12:45:24Z</time>
      </trkpt>
      <trkpt lat="59.8902981" lon="17.7483409">
        <ele>31.3801</ele>
        <time>2014-06-15T12:45:25Z</time>
      </trkpt>
      <trkpt lat="59.8903459" lon="17.748405">
        <ele>31.3801</ele>
        <time>2014-06-15T12:45:26Z</time>
      </trkpt>
      <trkpt lat="59.8903943" lon="17.7484656">
        <ele>31.3801</ele>
        <time>2014-06-15T12:45:27Z</time>
      </trkpt>
      <trkpt lat="59.8904459" lon="17.7485149">
        <ele>31.3801</ele>
        <time>2014-06-15T12:45:28Z</time>
      </trkpt>
      <trkpt lat="59.8905019" lon="17.7485418">
        <ele>31.3801</ele>
        <time>2014-06-15T12:45:29Z</time>
      </trkpt>
      <trkpt lat="59.8905605" lon="17.7485391">
        <ele>31.3801</ele>
        <time>2014-06-15T12:45:30Z</time>
      </trkpt>
      <trkpt lat="59.8906189" lon="17.7485101">
        <ele>30.8995</ele>
        <time>2014-06-15T12:45:31Z</time>
      </trkpt>
      <trkpt lat="59.890676" lon="17.7484623">
        <ele>30.8995</ele>
        <time>2014-06-15T12:45:32Z</time>
      </trkpt>
      <trkpt lat="59.8907298" lon="17.7484012">
        <ele>30.4188</ele>
        <time>2014-06-15T12:45:33Z</time>
      </trkpt>
      <trkpt lat="59.8907826" lon="17.7483382">
        <ele>29.9381</ele>
        <time>2014-06-15T12:45:34Z</time>
      </trkpt>
      <trkpt lat="59.8908369" lon="17.7482714">
        <ele>29.9381</ele>
        <time>2014-06-15T12:45:35Z</time>
      </trkpt>
      <trkpt lat="59.8908904" lon="17.7482012">
        <ele>29.4575</ele>
        <time>2014-06-15T12:45:36Z</time>
      </trkpt>
      <trkpt lat="59.8909437" lon="17.7481325">
        <ele>29.4575</ele>
        <time>2014-06-15T12:45:37Z</time>
      </trkpt>
      <trkpt lat="59.8909961" lon="17.7480657">
        <ele>29.4575</ele>
        <time>2014-06-15T12:45:38Z</time>
      </trkpt>
      <trkpt lat="59.8910477" lon="17.7480007">
        <ele>28.9769</ele>
        <time>2014-06-15T12:45:39Z</time>
      </trkpt>
      <trkpt lat="59.8910991" lon="17.7479352">
        <ele>28.9769</ele>
        <time>2014-06-15T12:45:40Z</time>
      </trkpt>
      <trkpt lat="59.8911498" lon="17.7478683">
        <ele>28.9769</ele>
        <time>2014-06-15T12:45:41Z</time>
      </trkpt>
      <trkpt lat="59.8912" lon="17.747801">
        <ele>28.9769</ele>
        <time>2014-06-15T12:45:42Z</time>
      </trkpt>
      <trkpt lat="59.8912499" lon="17.7477356">
        <ele>29.4575</ele>
        <time>2014-06-15T12:45:43Z</time>
      </trkpt>
      <trkpt lat="59.8912987" lon="17.7476703">
        <ele>29.4575</ele>
        <time>2014-06-15T12:45:44Z</time>
      </trkpt>
      <trkpt lat="59.8913461" lon="17.7476031">
        <ele>29.4575</ele>
        <time>2014-06-15T12:45:45Z</time>
      </trkpt>
      <trkpt lat="59.8913924" lon="17.7475354">
        <ele>29.4575</ele>
        <time>2014-06-15T12:45:46Z</time>
      </trkpt>
      <trkpt lat="59.8914384" lon="17.7474674">
        <ele>29.4575</ele>
        <time>2014-06-15T12:45:47Z</time>
      </trkpt>
      <trkpt lat="59.8914842" lon="17.7473986">
        <ele>29.4575</ele>
        <time>2014-06-15T12:45:48Z</time>
      </trkpt>
      <trkpt lat="59.8915308" lon="17.747329">
        <ele>29.4575</ele>
        <time>2014-06-15T12:45:49Z</time>
      </trkpt>
      <trkpt lat="59.8915778" lon="17.7472584">
        <ele>29.4575</ele>
        <time>2014-06-15T12:45:50Z</time>
      </trkpt>
      <trkpt lat="59.8916263" lon="17.7471861">
        <ele>29.4575</ele>
        <time>2014-06-15T12:45:51Z</time>
      </trkpt>
      <trkpt lat="59.8916757" lon="17.7471125">
        <ele>29.4575</ele>
        <time>2014-06-15T12:45:52Z</time>
      </trkpt>
      <trkpt lat="59.8917248" lon="17.7470385">
        <ele>29.4575</ele>
        <time>2014-06-15T12:45:53Z</time>
      </trkpt>
      <trkpt lat="59.8917747" lon="17.7469645">
        <ele>29.4575</ele>
        <time>2014-06-15T12:45:54Z</time>
      </trkpt>
      <trkpt lat="59.8918255" lon="17.7468892">
        <ele>28.9769</ele>
        <time>2014-06-15T12:45:55Z</time>
      </trkpt>
      <trkpt lat="59.8918771" lon="17.7468129">
        <ele>28.9769</ele>
        <time>2014-06-15T12:45:56Z</time>
      </trkpt>
      <trkpt lat="59.8919291" lon="17.7467363">
        <ele>28.9769</ele>
        <time>2014-06-15T12:45:57Z</time>
      </trkpt>
      <trkpt lat="59.8919815" lon="17.7466587">
        <ele>28.9769</ele>
        <time>2014-06-15T12:45:58Z</time>
      </trkpt>
      <trkpt lat="59.892033" lon="17.7465779">
        <ele>28.9769</ele>
        <time>2014-06-15T12:45:59Z</time>
      </trkpt>
      <trkpt lat="59.8920828" lon="17.7464925">
        <ele>28.9769</ele>
        <time>2014-06-15T12:46:00Z</time>
      </trkpt>
      <trkpt lat="59.892131" lon="17.7464049">
        <ele>28.9769</ele>
        <time>2014-06-15T12:46:01Z</time>
      </trkpt>
      <trkpt lat="59.8921767" lon="17.7463158">
        <ele>29.4575</ele>
        <time>2014-06-15T12:46:02Z</time>
      </trkpt>
      <trkpt lat="59.8922191" lon="17.7462241">
        <ele>29.4575</ele>
        <time>2014-06-15T12:46:03Z</time>
      </trkpt>
      <trkpt lat="59.8922579" lon="17.7461295">
        <ele>29.4575</ele>
        <time>2014-06-15T12:46:04Z</time>
      </trkpt>
      <trkpt lat="59.8922937" lon="17.7460325">
        <ele>29.4575</ele>
        <time>2014-06-15T12:46:05Z</time>
      </trkpt>
      <trkpt lat="59.892327" lon="17.745933">
        <ele>29.4575</ele>
        <time>2014-06-15T12:46:06Z</time>
      </trkpt>
      <trkpt lat="59.8923593" lon="17.7458315">
        <ele>29.4575</ele>
        <time>2014-06-15T12:46:07Z</time>
      </trkpt>
      <trkpt lat="59.892392" lon="17.7457305">
        <ele>29.9381</ele>
        <time>2014-06-15T12:46:08Z</time>
      </trkpt>
      <trkpt lat="59.8924248" lon="17.74563">
        <ele>29.9381</ele>
        <time>2014-06-15T12:46:09Z</time>
      </trkpt>
      <trkpt lat="59.8924569" lon="17.745529">
        <ele>29.9381</ele>
        <time>2014-06-15T12:46:10Z</time>
      </trkpt>
      <trkpt lat="59.8924884" lon="17.7454274">
        <ele>29.9381</ele>
        <time>2014-06-15T12:46:11Z</time>
      </trkpt>
      <trkpt lat="59.8925194" lon="17.7453263">
        <ele>29.9381</ele>
        <time>2014-06-15T12:46:12Z</time>
      </trkpt>
      <trkpt lat="59.8925507" lon="17.745227">
        <ele>30.4188</ele>
        <time>2014-06-15T12:46:13Z</time>
      </trkpt>
      <trkpt lat="59.8925811" lon="17.7451295">
        <ele>30.4188</ele>
        <time>2014-06-15T12:46:14Z</time>
      </trkpt>
      <trkpt lat="59.8926107" lon="17.7450342">
        <ele>30.4188</ele>
        <time>2014-06-15T12:46:15Z</time>
      </trkpt>
      <trkpt lat="59.8926398" lon="17.7449422">
        <ele>30.8995</ele>
        <time>2014-06-15T12:46:16Z</time>
      </trkpt>
      <trkpt lat="59.8926675" lon="17.744854">
        <ele>30.8995</ele>
        <time>2014-06-15T12:46:17Z</time>
      </trkpt>
      <trkpt lat="59.8926943" lon="17.7447675">
        <ele>31.3801</ele>
        <time>2014-06-15T12:46:18Z</time>
      </trkpt>
      <trkpt lat="59.892722" lon="17.7446814">
        <ele>31.3801</ele>
        <time>2014-06-15T12:46:19Z</time>
      </trkpt>
      <trkpt lat="59.8927504" lon="17.744594">
        <ele>31.3801</ele>
        <time>2014-06-15T12:46:20Z</time>
      </trkpt>
      <trkpt lat="59.8927786" lon="17.7445043">
        <ele>31.8607</ele>
        <time>2014-06-15T12:46:21Z</time>
      </trkpt>
      <trkpt lat="59.8928076" lon="17.7444154">
        <ele>32.3416</ele>
        <time>2014-06-15T12:46:22Z</time>
      </trkpt>
      <trkpt lat="59.8928369" lon="17.7443317">
        <ele>32.3416</ele>
        <time>2014-06-15T12:46:23Z</time>
      </trkpt>
      <trkpt lat="59.8928651" lon="17.7442491">
        <ele>32.3416</ele>
        <time>2014-06-15T12:46:24Z</time>
      </trkpt>
      <trkpt lat="59.8928925" lon="17.7441669">
        <ele>32.3416</ele>
        <time>2014-06-15T12:46:25Z</time>
      </trkpt>
      <trkpt lat="59.8929174" lon="17.7440733">
        <ele>32.8223</ele>
        <time>2014-06-15T12:46:26Z</time>
      </trkpt>
      <trkpt lat="59.8929444" lon="17.7439944">
        <ele>32.8223</ele>
        <time>2014-06-15T12:46:27Z</time>
      </trkpt>
      <trkpt lat="59.8929688" lon="17.74391">
        <ele>32.8223</ele>
        <time>2014-06-15T12:46:28Z</time>
      </trkpt>
      <trkpt lat="59.8929935" lon="17.7438232">
        <ele>32.8223</ele>
        <time>2014-06-15T12:46:29Z</time>
      </trkpt>
      <trkpt lat="59.8930184" lon="17.7437289">
        <ele>33.3029</ele>
        <time>2014-06-15T12:46:30Z</time>
      </trkpt>
      <trkpt lat="59.8930422" lon="17.7436335">
        <ele>33.3029</ele>
        <time>2014-06-15T12:46:31Z</time>
      </trkpt>
      <trkpt lat="59.8930671" lon="17.7435466">
        <ele>33.3029</ele>
        <time>2014-06-15T12:46:32Z</time>
      </trkpt>
      <trkpt lat="59.893093" lon="17.743457">
        <ele>33.3029</ele>
        <time>2014-06-15T12:46:33Z</time>
      </trkpt>
      <trkpt lat="59.8931204" lon="17.7433648">
        <ele>33.3029</ele>
        <time>2014-06-15T12:46:34Z</time>
      </trkpt>
      <trkpt lat="59.8931485" lon="17.7432751">
        <ele>33.3029</ele>
        <time>2014-06-15T12:46:35Z</time>
      </trkpt>
      <trkpt lat="59.8931775" lon="17.7431815">
        <ele>33.3029</ele>
        <time>2014-06-15T12:46:36Z</time>
      </trkpt>
      <trkpt lat="59.8932091" lon="17.7430865">
        <ele>33.3029</ele>
        <time>2014-06-15T12:46:37Z</time>
      </trkpt>
      <trkpt lat="59.893242" lon="17.7429883">
        <ele>33.3029</ele>
        <time>2014-06-15T12:46:38Z</time>
      </trkpt>
      <trkpt lat="59.8932738" lon="17.7428881">
        <ele>32.8223</ele>
        <time>2014-06-15T12:46:39Z</time>
      </trkpt>
      <trkpt lat="59.8933071" lon="17.7427839">
        <ele>32.8223</ele>
        <time>2014-06-15T12:46:40Z</time>
      </trkpt>
      <trkpt lat="59.8933418" lon="17.7426737">
        <ele>32.8223</ele>
        <time>2014-06-15T12:46:41Z</time>
      </trkpt>
      <trkpt lat="59.8933803" lon="17.7425585">
        <ele>32.3416</ele>
        <time>2014-06-15T12:46:42Z</time>
      </trkpt>
      <trkpt lat="59.8934204" lon="17.7424369">
        <ele>31.8607</ele>
        <time>2014-06-15T12:46:43Z</time>
      </trkpt>
      <trkpt lat="59.8934617" lon="17.742308">
        <ele>31.8607</ele>
        <time>2014-06-15T12:46:44Z</time>
      </trkpt>
      <trkpt lat="59.8935038" lon="17.7421768">
        <ele>31.3801</ele>
        <time>2014-06-15T12:46:45Z</time>
      </trkpt>
      <trkpt lat="59.8935467" lon="17.7420446">
        <ele>31.3801</ele>
        <time>2014-06-15T12:46:46Z</time>
      </trkpt>
      <trkpt lat="59.8935894" lon="17.7419133">
        <ele>31.3801</ele>
        <time>2014-06-15T12:46:47Z</time>
      </trkpt>
      <trkpt lat="59.8936317" lon="17.7417833">
        <ele>31.3801</ele>
        <time>2014-06-15T12:46:48Z</time>
      </trkpt>
      <trkpt lat="59.8936723" lon="17.7416553">
        <ele>31.3801</ele>
        <time>2014-06-15T12:46:49Z</time>
      </trkpt>
      <trkpt lat="59.8937126" lon="17.7415315">
        <ele>31.3801</ele>
        <time>2014-06-15T12:46:50Z</time>
      </trkpt>
      <trkpt lat="59.8937519" lon="17.7414129">
        <ele>31.3801</ele>
        <time>2014-06-15T12:46:51Z</time>
      </trkpt>
      <trkpt lat="59.8937898" lon="17.7412983">
        <ele>31.3801</ele>
        <time>2014-06-15T12:46:52Z</time>
      </trkpt>
      <trkpt lat="59.8938259" lon="17.7411853">
        <ele>31.3801</ele>
        <time>2014-06-15T12:46:53Z</time>
      </trkpt>
      <trkpt lat="59.8938615" lon="17.7410744">
        <ele>31.3801</ele>
        <time>2014-06-15T12:46:54Z</time>
      </trkpt>
      <trkpt lat="59.8938971" lon="17.7409639">
        <ele>31.3801</ele>
        <time>2014-06-15T12:46:55Z</time>
      </trkpt>
      <trkpt lat="59.8939322" lon="17.7408506">
        <ele>31.3801</ele>
        <time>2014-06-15T12:46:56Z</time>
      </trkpt>
      <trkpt lat="59.8939675" lon="17.740736">
        <ele>31.3801</ele>
        <time>2014-06-15T12:46:57Z</time>
      </trkpt>
      <trkpt lat="59.8940031" lon="17.7406212">
        <ele>31.3801</ele>
        <time>2014-06-15T12:46:58Z</time>
      </trkpt>
      <trkpt lat="59.8940379" lon="17.7405056">
        <ele>31.3801</ele>
        <time>2014-06-15T12:46:59Z</time>
      </trkpt>
      <trkpt lat="59.8940722" lon="17.7403922">
        <ele>31.3801</ele>
        <time>2014-06-15T12:47:00Z</time>
      </trkpt>
      <trkpt lat="59.8941056" lon="17.7402835">
        <ele>31.8607</ele>
        <time>2014-06-15T12:47:01Z</time>
      </trkpt>
      <trkpt lat="59.8941383" lon="17.7401816">
        <ele>31.8607</ele>
        <time>2014-06-15T12:47:02Z</time>
      </trkpt>
      <trkpt lat="59.8941709" lon="17.7400887">
        <ele>32.3416</ele>
        <time>2014-06-15T12:47:03Z</time>
      </trkpt>
      <trkpt lat="59.8942027" lon="17.7400038">
        <ele>32.8223</ele>
        <time>2014-06-15T12:47:04Z</time>
      </trkpt>
      <trkpt lat="59.8942346" lon="17.7399237">
        <ele>32.8223</ele>
        <time>2014-06-15T12:47:05Z</time>
      </trkpt>
      <trkpt lat="59.8942673" lon="17.7398474">
        <ele>32.8223</ele>
        <time>2014-06-15T12:47:06Z</time>
      </trkpt>
      <trkpt lat="59.8943035" lon="17.7397734">
        <ele>33.3029</ele>
        <time>2014-06-15T12:47:07Z</time>
      </trkpt>
      <trkpt lat="59.8943435" lon="17.7397055">
        <ele>33.3029</ele>
        <time>2014-06-15T12:47:08Z</time>
      </trkpt>
      <trkpt lat="59.8943871" lon="17.7396423">
        <ele>33.3029</ele>
        <time>2014-06-15T12:47:09Z</time>
      </trkpt>
      <trkpt lat="59.8944341" lon="17.7395828">
        <ele>33.3029</ele>
        <time>2014-06-15T12:47:10Z</time>
      </trkpt>
      <trkpt lat="59.8944834" lon="17.7395247">
        <ele>33.3029</ele>
        <time>2014-06-15T12:47:11Z</time>
      </trkpt>
      <trkpt lat="59.8945357" lon="17.7394687">
        <ele>33.3029</ele>
        <time>2014-06-15T12:47:12Z</time>
      </trkpt>
      <trkpt lat="59.8945933" lon="17.7394186">
        <ele>32.8223</ele>
        <time>2014-06-15T12:47:13Z</time>
      </trkpt>
      <trkpt lat="59.8946548" lon="17.7393753">
        <ele>32.3416</ele>
        <time>2014-06-15T12:47:14Z</time>
      </trkpt>
      <trkpt lat="59.8947207" lon="17.7393351">
        <ele>32.3416</ele>
        <time>2014-06-15T12:47:15Z</time>
      </trkpt>
      <trkpt lat="59.8947903" lon="17.7392987">
        <ele>31.8607</ele>
        <time>2014-06-15T12:47:16Z</time>
      </trkpt>
      <trkpt lat="59.8948629" lon="17.7392651">
        <ele>31.8607</ele>
        <time>2014-06-15T12:47:17Z</time>
      </trkpt>
      <trkpt lat="59.8949378" lon="17.7392337">
        <ele>31.8607</ele>
        <time>2014-06-15T12:47:18Z</time>
      </trkpt>
      <trkpt lat="59.8950143" lon="17.7392046">
        <ele>31.3801</ele>
        <time>2014-06-15T12:47:19Z</time>
      </trkpt>
      <trkpt lat="59.8950919" lon="17.7391765">
        <ele>31.3801</ele>
        <time>2014-06-15T12:47:20Z</time>
      </trkpt>
      <trkpt lat="59.8951701" lon="17.7391517">
        <ele>31.3801</ele>
        <time>2014-06-15T12:47:21Z</time>
      </trkpt>
      <trkpt lat="59.8952486" lon="17.7391294">
        <ele>31.3801</ele>
        <time>2014-06-15T12:47:22Z</time>
      </trkpt>
      <trkpt lat="59.8953272" lon="17.7391082">
        <ele>31.3801</ele>
        <time>2014-06-15T12:47:23Z</time>
      </trkpt>
      <trkpt lat="59.895406" lon="17.7390889">
        <ele>31.3801</ele>
        <time>2014-06-15T12:47:24Z</time>
      </trkpt>
      <trkpt lat="59.8954847" lon="17.739071">
        <ele>31.3801</ele>
        <time>2014-06-15T12:47:25Z</time>
      </trkpt>
      <trkpt lat="59.8955624" lon="17.7390533">
        <ele>31.3801</ele>
        <time>2014-06-15T12:47:26Z</time>
      </trkpt>
      <trkpt lat="59.8956396" lon="17.739035">
        <ele>31.3801</ele>
        <time>2014-06-15T12:47:27Z</time>
      </trkpt>
      <trkpt lat="59.8957161" lon="17.7390141">
        <ele>31.3801</ele>
        <time>2014-06-15T12:47:28Z</time>
      </trkpt>
      <trkpt lat="59.8957908" lon="17.7389918">
        <ele>31.8607</ele>
        <time>2014-06-15T12:47:29Z</time>
      </trkpt>
      <trkpt lat="59.8958636" lon="17.7389706">
        <ele>31.8607</ele>
        <time>2014-06-15T12:47:30Z</time>
      </trkpt>
      <trkpt lat="59.8959358" lon="17.7389478">
        <ele>31.8607</ele>
        <time>2014-06-15T12:47:31Z</time>
      </trkpt>
      <trkpt lat="59.8960071" lon="17.7389217">
        <ele>31.8607</ele>
        <time>2014-06-15T12:47:32Z</time>
      </trkpt>
      <trkpt lat="59.8960778" lon="17.7388951">
        <ele>31.8607</ele>
        <time>2014-06-15T12:47:33Z</time>
      </trkpt>
      <trkpt lat="59.8961481" lon="17.7388705">
        <ele>32.3416</ele>
        <time>2014-06-15T12:47:34Z</time>
      </trkpt>
      <trkpt lat="59.896217" lon="17.7388507">
        <ele>32.3416</ele>
        <time>2014-06-15T12:47:35Z</time>
      </trkpt>
      <trkpt lat="59.8962835" lon="17.7388288">
        <ele>32.8223</ele>
        <time>2014-06-15T12:47:36Z</time>
      </trkpt>
      <trkpt lat="59.896346" lon="17.7387949">
        <ele>32.8223</ele>
        <time>2014-06-15T12:47:37Z</time>
      </trkpt>
      <trkpt lat="59.896404" lon="17.7387472">
        <ele>32.8223</ele>
        <time>2014-06-15T12:47:38Z</time>
      </trkpt>
      <trkpt lat="59.896458" lon="17.7386819">
        <ele>32.8223</ele>
        <time>2014-06-15T12:47:39Z</time>
      </trkpt>
      <trkpt lat="59.8965056" lon="17.7385938">
        <ele>32.8223</ele>
        <time>2014-06-15T12:47:40Z</time>
      </trkpt>
      <trkpt lat="59.8965464" lon="17.7384872">
        <ele>32.3416</ele>
        <time>2014-06-15T12:47:41Z</time>
      </trkpt>
      <trkpt lat="59.8965817" lon="17.7383674">
        <ele>32.3416</ele>
        <time>2014-06-15T12:47:42Z</time>
      </trkpt>
      <trkpt lat="59.8966124" lon="17.738239">
        <ele>32.3416</ele>
        <time>2014-06-15T12:47:43Z</time>
      </trkpt>
      <trkpt lat="59.896642" lon="17.7381101">
        <ele>32.3416</ele>
        <time>2014-06-15T12:47:44Z</time>
      </trkpt>
      <trkpt lat="59.8966723" lon="17.7379826">
        <ele>32.8223</ele>
        <time>2014-06-15T12:47:45Z</time>
      </trkpt>
      <trkpt lat="59.8967044" lon="17.7378579">
        <ele>32.8223</ele>
        <time>2014-06-15T12:47:46Z</time>
      </trkpt>
      <trkpt lat="59.8967403" lon="17.7377386">
        <ele>32.8223</ele>
        <time>2014-06-15T12:47:47Z</time>
      </trkpt>
      <trkpt lat="59.8967792" lon="17.7376235">
        <ele>32.8223</ele>
        <time>2014-06-15T12:47:48Z</time>
      </trkpt>
      <trkpt lat="59.8968181" lon="17.7375084">
        <ele>32.8223</ele>
        <time>2014-06-15T12:47:49Z</time>
      </trkpt>
      <trkpt lat="59.8968569" lon="17.737392">
        <ele>32.8223</ele>
        <time>2014-06-15T12:47:50Z</time>
      </trkpt>
      <trkpt lat="59.8968971" lon="17.7372731">
        <ele>32.8223</ele>
        <time>2014-06-15T12:47:51Z</time>
      </trkpt>
      <trkpt lat="59.8969382" lon="17.7371497">
        <ele>32.3416</ele>
        <time>2014-06-15T12:47:52Z</time>
      </trkpt>
      <trkpt lat="59.8969802" lon="17.7370215">
        <ele>32.3416</ele>
        <time>2014-06-15T12:47:53Z</time>
      </trkpt>
      <trkpt lat="59.8970226" lon="17.7368886">
        <ele>32.3416</ele>
        <time>2014-06-15T12:47:54Z</time>
      </trkpt>
      <trkpt lat="59.8970629" lon="17.7367491">
        <ele>31.8607</ele>
        <time>2014-06-15T12:47:55Z</time>
      </trkpt>
      <trkpt lat="59.8970993" lon="17.7366021">
        <ele>31.8607</ele>
        <time>2014-06-15T12:47:56Z</time>
      </trkpt>
      <trkpt lat="59.8971308" lon="17.7364498">
        <ele>31.8607</ele>
        <time>2014-06-15T12:47:57Z</time>
      </trkpt>
      <trkpt lat="59.8971545" lon="17.736293">
        <ele>31.8607</ele>
        <time>2014-06-15T12:47:58Z</time>
      </trkpt>
      <trkpt lat="59.8971713" lon="17.736135">
        <ele>31.8607</ele>
        <time>2014-06-15T12:47:59Z</time>
      </trkpt>
      <trkpt lat="59.8971823" lon="17.7359774">
        <ele>31.8607</ele>
        <time>2014-06-15T12:48:00Z</time>
      </trkpt>
      <trkpt lat="59.8971885" lon="17.7358209">
        <ele>32.3416</ele>
        <time>2014-06-15T12:48:01Z</time>
      </trkpt>
      <trkpt lat="59.897191" lon="17.7356664">
        <ele>32.3416</ele>
        <time>2014-06-15T12:48:02Z</time>
      </trkpt>
      <trkpt lat="59.8971919" lon="17.7355149">
        <ele>32.3416</ele>
        <time>2014-06-15T12:48:03Z</time>
      </trkpt>
      <trkpt lat="59.8971936" lon="17.7353685">
        <ele>32.8223</ele>
        <time>2014-06-15T12:48:04Z</time>
      </trkpt>
      <trkpt lat="59.8971962" lon="17.735224">
        <ele>33.3029</ele>
        <time>2014-06-15T12:48:05Z</time>
      </trkpt>
      <trkpt lat="59.8971991" lon="17.7350806">
        <ele>33.3029</ele>
        <time>2014-06-15T12:48:06Z</time>
      </trkpt>
      <trkpt lat="59.8972058" lon="17.7349383">
        <ele>33.3029</ele>
        <time>2014-06-15T12:48:07Z</time>
      </trkpt>
      <trkpt lat="59.8972186" lon="17.7347965">
        <ele>33.7834</ele>
        <time>2014-06-15T12:48:08Z</time>
      </trkpt>
      <trkpt lat="59.8972382" lon="17.7346602">
        <ele>33.7834</ele>
        <time>2014-06-15T12:48:09Z</time>
      </trkpt>
      <trkpt lat="59.8972628" lon="17.7345279">
        <ele>34.2642</ele>
        <time>2014-06-15T12:48:10Z</time>
      </trkpt>
      <trkpt lat="59.897293" lon="17.7344011">
        <ele>34.2642</ele>
        <time>2014-06-15T12:48:11Z</time>
      </trkpt>
      <trkpt lat="59.8973262" lon="17.7342788">
        <ele>34.2642</ele>
        <time>2014-06-15T12:48:12Z</time>
      </trkpt>
      <trkpt lat="59.8973589" lon="17.7341549">
        <ele>34.7449</ele>
        <time>2014-06-15T12:48:13Z</time>
      </trkpt>
      <trkpt lat="59.8973907" lon="17.7340281">
        <ele>34.7449</ele>
        <time>2014-06-15T12:48:14Z</time>
      </trkpt>
      <trkpt lat="59.8974195" lon="17.7338967">
        <ele>34.7449</ele>
        <time>2014-06-15T12:48:15Z</time>
      </trkpt>
      <trkpt lat="59.8974443" lon="17.7337612">
        <ele>34.7449</ele>
        <time>2014-06-15T12:48:16Z</time>
      </trkpt>
      <trkpt lat="59.8974666" lon="17.733625">
        <ele>34.7449</ele>
        <time>2014-06-15T12:48:17Z</time>
      </trkpt>
      <trkpt lat="59.8974858" lon="17.7334889">
        <ele>34.7449</ele>
        <time>2014-06-15T12:48:18Z</time>
      </trkpt>
      <trkpt lat="59.8975013" lon="17.7333501">
        <ele>34.7449</ele>
        <time>2014-06-15T12:48:19Z</time>
      </trkpt>
      <trkpt lat="59.8975137" lon="17.733208">
        <ele>34.7449</ele>
        <time>2014-06-15T12:48:20Z</time>
      </trkpt>
      <trkpt lat="59.8975198" lon="17.7330697">
        <ele>34.7449</ele>
        <time>2014-06-15T12:48:21Z</time>
      </trkpt>
      <trkpt lat="59.8975234" lon="17.7329289">
        <ele>34.7449</ele>
        <time>2014-06-15T12:48:22Z</time>
      </trkpt>
      <trkpt lat="59.8975281" lon="17.7327854">
        <ele>34.7449</ele>
        <time>2014-06-15T12:48:23Z</time>
      </trkpt>
      <trkpt lat="59.8975325" lon="17.732648">
        <ele>34.7449</ele>
        <time>2014-06-15T12:48:24Z</time>
      </trkpt>
      <trkpt lat="59.8975391" lon="17.7325128">
        <ele>34.7449</ele>
        <time>2014-06-15T12:48:25Z</time>
      </trkpt>
      <trkpt lat="59.8975474" lon="17.7323784">
        <ele>34.2642</ele>
        <time>2014-06-15T12:48:26Z</time>
      </trkpt>
      <trkpt lat="59.8975547" lon="17.7322431">
        <ele>34.2642</ele>
        <time>2014-06-15T12:48:27Z</time>
      </trkpt>
      <trkpt lat="59.8975602" lon="17.7321048">
        <ele>34.2642</ele>
        <time>2014-06-15T12:48:28Z</time>
      </trkpt>
      <trkpt lat="59.897565" lon="17.7319675">
        <ele>34.2642</ele>
        <time>2014-06-15T12:48:29Z</time>
      </trkpt>
      <trkpt lat="59.8975703" lon="17.7318307">
        <ele>34.2642</ele>
        <time>2014-06-15T12:48:30Z</time>
      </trkpt>
      <trkpt lat="59.8975753" lon="17.7316954">
        <ele>34.2642</ele>
        <time>2014-06-15T12:48:31Z</time>
      </trkpt>
      <trkpt lat="59.8975783" lon="17.7315614">
        <ele>34.2642</ele>
        <time>2014-06-15T12:48:32Z</time>
      </trkpt>
      <trkpt lat="59.89758" lon="17.7314292">
        <ele>34.2642</ele>
        <time>2014-06-15T12:48:33Z</time>
      </trkpt>
      <trkpt lat="59.8975795" lon="17.7312977">
        <ele>34.2642</ele>
        <time>2014-06-15T12:48:34Z</time>
      </trkpt>
      <trkpt lat="59.8975764" lon="17.7311711">
        <ele>34.2642</ele>
        <time>2014-06-15T12:48:35Z</time>
      </trkpt>
      <trkpt lat="59.8975677" lon="17.7310397">
        <ele>34.2642</ele>
        <time>2014-06-15T12:48:36Z</time>
      </trkpt>
      <trkpt lat="59.8975565" lon="17.7309122">
        <ele>33.7834</ele>
        <time>2014-06-15T12:48:37Z</time>
      </trkpt>
      <trkpt lat="59.8975415" lon="17.7307781">
        <ele>33.3029</ele>
        <time>2014-06-15T12:48:38Z</time>
      </trkpt>
      <trkpt lat="59.897524" lon="17.7306347">
        <ele>32.8223</ele>
        <time>2014-06-15T12:48:39Z</time>
      </trkpt>
      <trkpt lat="59.8975074" lon="17.7304813">
        <ele>32.8223</ele>
        <time>2014-06-15T12:48:40Z</time>
      </trkpt>
      <trkpt lat="59.8974936" lon="17.7303197">
        <ele>31.8607</ele>
        <time>2014-06-15T12:48:41Z</time>
      </trkpt>
      <trkpt lat="59.8974821" lon="17.730148">
        <ele>31.3801</ele>
        <time>2014-06-15T12:48:42Z</time>
      </trkpt>
      <trkpt lat="59.897478" lon="17.7299681">
        <ele>30.8995</ele>
        <time>2014-06-15T12:48:43Z</time>
      </trkpt>
      <trkpt lat="59.8974845" lon="17.7297842">
        <ele>30.4188</ele>
        <time>2014-06-15T12:48:44Z</time>
      </trkpt>
      <trkpt lat="59.8975008" lon="17.7296033">
        <ele>29.9381</ele>
        <time>2014-06-15T12:48:45Z</time>
      </trkpt>
      <trkpt lat="59.8975234" lon="17.7294251">
        <ele>29.9381</ele>
        <time>2014-06-15T12:48:46Z</time>
      </trkpt>
      <trkpt lat="59.89755" lon="17.729251">
        <ele>29.4575</ele>
        <time>2014-06-15T12:48:47Z</time>
      </trkpt>
      <trkpt lat="59.8975805" lon="17.729083">
        <ele>29.4575</ele>
        <time>2014-06-15T12:48:48Z</time>
      </trkpt>
      <trkpt lat="59.8976121" lon="17.7289199">
        <ele>29.4575</ele>
        <time>2014-06-15T12:48:49Z</time>
      </trkpt>
      <trkpt lat="59.8976432" lon="17.7287624">
        <ele>29.4575</ele>
        <time>2014-06-15T12:48:50Z</time>
      </trkpt>
      <trkpt lat="59.8976731" lon="17.7286097">
        <ele>28.9769</ele>
        <time>2014-06-15T12:48:51Z</time>
      </trkpt>
      <trkpt lat="59.8977028" lon="17.7284622">
        <ele>28.9769</ele>
        <time>2014-06-15T12:48:52Z</time>
      </trkpt>
      <trkpt lat="59.8977338" lon="17.7283198">
        <ele>28.9769</ele>
        <time>2014-06-15T12:48:53Z</time>
      </trkpt>
      <trkpt lat="59.8977664" lon="17.7281814">
        <ele>28.9769</ele>
        <time>2014-06-15T12:48:54Z</time>
      </trkpt>
      <trkpt lat="59.8978018" lon="17.7280477">
        <ele>28.9769</ele>
        <time>2014-06-15T12:48:55Z</time>
      </trkpt>
      <trkpt lat="59.8978401" lon="17.7279187">
        <ele>28.9769</ele>
        <time>2014-06-15T12:48:56Z</time>
      </trkpt>
      <trkpt lat="59.897881" lon="17.7277947">
        <ele>28.9769</ele>
        <time>2014-06-15T12:48:57Z</time>
      </trkpt>
      <trkpt lat="59.8979235" lon="17.7276746">
        <ele>28.9769</ele>
        <time>2014-06-15T12:48:58Z</time>
      </trkpt>
      <trkpt lat="59.8979665" lon="17.7275575">
        <ele>28.9769</ele>
        <time>2014-06-15T12:48:59Z</time>
      </trkpt>
      <trkpt lat="59.8980098" lon="17.7274428">
        <ele>28.9769</ele>
        <time>2014-06-15T12:49:00Z</time>
      </trkpt>
      <trkpt lat="59.898053" lon="17.7273283">
        <ele>28.9769</ele>
        <time>2014-06-15T12:49:01Z</time>
      </trkpt>
      <trkpt lat="59.8980957" lon="17.7272122">
        <ele>28.9769</ele>
        <time>2014-06-15T12:49:02Z</time>
      </trkpt>
      <trkpt lat="59.8981373" lon="17.7270946">
        <ele>28.9769</ele>
        <time>2014-06-15T12:49:03Z</time>
      </trkpt>
      <trkpt lat="59.8981771" lon="17.7269754">
        <ele>28.9769</ele>
        <time>2014-06-15T12:49:04Z</time>
      </trkpt>
      <trkpt lat="59.898215" lon="17.7268535">
        <ele>28.9769</ele>
        <time>2014-06-15T12:49:05Z</time>
      </trkpt>
      <trkpt lat="59.8982512" lon="17.7267289">
        <ele>28.9769</ele>
        <time>2014-06-15T12:49:06Z</time>
      </trkpt>
      <trkpt lat="59.8982862" lon="17.7266026">
        <ele>28.9769</ele>
        <time>2014-06-15T12:49:07Z</time>
      </trkpt>
      <trkpt lat="59.8983204" lon="17.7264767">
        <ele>28.9769</ele>
        <time>2014-06-15T12:49:08Z</time>
      </trkpt>
      <trkpt lat="59.8983533" lon="17.7263512">
        <ele>28.9769</ele>
        <time>2014-06-15T12:49:09Z</time>
      </trkpt>
      <trkpt lat="59.8983849" lon="17.7262252">
        <ele>28.9769</ele>
        <time>2014-06-15T12:49:10Z</time>
      </trkpt>
      <trkpt lat="59.898415" lon="17.7260977">
        <ele>28.9769</ele>
        <time>2014-06-15T12:49:11Z</time>
      </trkpt>
      <trkpt lat="59.8984441" lon="17.7259695">
        <ele>28.9769</ele>
        <time>2014-06-15T12:49:12Z</time>
      </trkpt>
      <trkpt lat="59.8984726" lon="17.725842">
        <ele>29.4575</ele>
        <time>2014-06-15T12:49:13Z</time>
      </trkpt>
      <trkpt lat="59.8984994" lon="17.7257145">
        <ele>29.4575</ele>
        <time>2014-06-15T12:49:14Z</time>
      </trkpt>
      <trkpt lat="59.8985232" lon="17.7255856">
        <ele>29.4575</ele>
        <time>2014-06-15T12:49:15Z</time>
      </trkpt>
      <trkpt lat="59.8985454" lon="17.7254562">
        <ele>29.4575</ele>
        <time>2014-06-15T12:49:16Z</time>
      </trkpt>
      <trkpt lat="59.8985673" lon="17.7253271">
        <ele>29.9381</ele>
        <time>2014-06-15T12:49:17Z</time>
      </trkpt>
      <trkpt lat="59.898589" lon="17.725198">
        <ele>29.9381</ele>
        <time>2014-06-15T12:49:18Z</time>
      </trkpt>
      <trkpt lat="59.8986102" lon="17.7250697">
        <ele>29.9381</ele>
        <time>2014-06-15T12:49:19Z</time>
      </trkpt>
      <trkpt lat="59.8986309" lon="17.7249423">
        <ele>30.4188</ele>
        <time>2014-06-15T12:49:20Z</time>
      </trkpt>
      <trkpt lat="59.8986513" lon="17.7248156">
        <ele>30.4188</ele>
        <time>2014-06-15T12:49:21Z</time>
      </trkpt>
      <trkpt lat="59.8986718" lon="17.7246903">
        <ele>30.4188</ele>
        <time>2014-06-15T12:49:22Z</time>
      </trkpt>
      <trkpt lat="59.8986923" lon="17.7245675">
        <ele>30.4188</ele>
        <time>2014-06-15T12:49:23Z</time>
      </trkpt>
      <trkpt lat="59.8987124" lon="17.724447">
        <ele>30.8995</ele>
        <time>2014-06-15T12:49:24Z</time>
      </trkpt>
      <trkpt lat="59.8987311" lon="17.7243287">
        <ele>30.8995</ele>
        <time>2014-06-15T12:49:25Z</time>
      </trkpt>
      <trkpt lat="59.8987493" lon="17.7242124">
        <ele>30.8995</ele>
        <time>2014-06-15T12:49:26Z</time>
      </trkpt>
      <trkpt lat="59.8987673" lon="17.7240974">
        <ele>30.8995</ele>
        <time>2014-06-15T12:49:27Z</time>
      </trkpt>
      <trkpt lat="59.8987847" lon="17.7239838">
        <ele>31.3801</ele>
        <time>2014-06-15T12:49:28Z</time>
      </trkpt>
      <trkpt lat="59.8988021" lon="17.7238721">
        <ele>31.3801</ele>
        <time>2014-06-15T12:49:29Z</time>
      </trkpt>
      <trkpt lat="59.8988202" lon="17.7237626">
        <ele>31.3801</ele>
        <time>2014-06-15T12:49:30Z</time>
      </trkpt>
      <trkpt lat="59.8988377" lon="17.7236537">
        <ele>31.8607</ele>
        <time>2014-06-15T12:49:31Z</time>
      </trkpt>
      <trkpt lat="59.8988553" lon="17.7235452">
        <ele>31.8607</ele>
        <time>2014-06-15T12:49:32Z</time>
      </trkpt>
      <trkpt lat="59.898873" lon="17.723437">
        <ele>31.8607</ele>
        <time>2014-06-15T12:49:33Z</time>
      </trkpt>
      <trkpt lat="59.8988901" lon="17.7233286">
        <ele>31.8607</ele>
        <time>2014-06-15T12:49:34Z</time>
      </trkpt>
      <trkpt lat="59.8989077" lon="17.7232191">
        <ele>32.3416</ele>
        <time>2014-06-15T12:49:35Z</time>
      </trkpt>
      <trkpt lat="59.8989256" lon="17.7231081">
        <ele>32.3416</ele>
        <time>2014-06-15T12:49:36Z</time>
      </trkpt>
      <trkpt lat="59.8989434" lon="17.7229944">
        <ele>32.3416</ele>
        <time>2014-06-15T12:49:37Z</time>
      </trkpt>
      <trkpt lat="59.8989611" lon="17.7228774">
        <ele>32.3416</ele>
        <time>2014-06-15T12:49:38Z</time>
      </trkpt>
      <trkpt lat="59.8989792" lon="17.7227583">
        <ele>32.3416</ele>
        <time>2014-06-15T12:49:39Z</time>
      </trkpt>
      <trkpt lat="59.8989973" lon="17.7226376">
        <ele>32.3416</ele>
        <time>2014-06-15T12:49:40Z</time>
      </trkpt>
      <trkpt lat="59.899016" lon="17.7225163">
        <ele>32.3416</ele>
        <time>2014-06-15T12:49:41Z</time>
      </trkpt>
      <trkpt lat="59.8990351" lon="17.7223947">
        <ele>32.3416</ele>
        <time>2014-06-15T12:49:42Z</time>
      </trkpt>
      <trkpt lat="59.8990538" lon="17.7222724">
        <ele>32.3416</ele>
        <time>2014-06-15T12:49:43Z</time>
      </trkpt>
      <trkpt lat="59.8990725" lon="17.7221494">
        <ele>32.3416</ele>
        <time>2014-06-15T12:49:44Z</time>
      </trkpt>
      <trkpt lat="59.8990911" lon="17.7220247">
        <ele>32.3416</ele>
        <time>2014-06-15T12:49:45Z</time>
      </trkpt>
      <trkpt lat="59.8991096" lon="17.7218985">
        <ele>32.3416</ele>
        <time>2014-06-15T12:49:46Z</time>
      </trkpt>
      <trkpt lat="59.8991282" lon="17.721772">
        <ele>32.3416</ele>
        <time>2014-06-15T12:49:47Z</time>
      </trkpt>
      <trkpt lat="59.899147" lon="17.7216444">
        <ele>32.3416</ele>
        <time>2014-06-15T12:49:48Z</time>
      </trkpt>
      <trkpt lat="59.8991661" lon="17.7215177">
        <ele>32.3416</ele>
        <time>2014-06-15T12:49:49Z</time>
      </trkpt>
      <trkpt lat="59.8991836" lon="17.7213965">
        <ele>32.3416</ele>
        <time>2014-06-15T12:49:50Z</time>
      </trkpt>
      <trkpt lat="59.8992013" lon="17.7212776">
        <ele>32.3416</ele>
        <time>2014-06-15T12:49:51Z</time>
      </trkpt>
      <trkpt lat="59.89922" lon="17.7211618">
        <ele>31.8607</ele>
        <time>2014-06-15T12:49:52Z</time>
      </trkpt>
      <trkpt lat="59.8992402" lon="17.7210492">
        <ele>31.8607</ele>
        <time>2014-06-15T12:49:53Z</time>
      </trkpt>
      <trkpt lat="59.8995076" lon="17.720757">
        <ele>32.8223</ele>
        <time>2014-06-15T13:07:10Z</time>
      </trkpt>
      <trkpt lat="59.8995058" lon="17.7207632">
        <ele>31.8607</ele>
        <time>2014-06-15T13:07:11Z</time>
      </trkpt>
      <trkpt lat="59.8995028" lon="17.7207682">
        <ele>31.8607</ele>
        <time>2014-06-15T13:07:12Z</time>
      </trkpt>
      <trkpt lat="59.8995614" lon="17.7207899">
        <ele>50.6066</ele>
        <time>2014-06-15T13:15:56Z</time>
      </trkpt>
      <trkpt lat="59.8995645" lon="17.7207732">
        <ele>52.0486</ele>
        <time>2014-06-15T13:15:57Z</time>
      </trkpt>
      <trkpt lat="59.8995676" lon="17.720767">
        <ele>53.0098</ele>
        <time>2014-06-15T13:15:58Z</time>
      </trkpt>
      <trkpt lat="59.8995692" lon="17.7207548">
        <ele>53.9712</ele>
        <time>2014-06-15T13:15:59Z</time>
      </trkpt>
      <trkpt lat="59.8995687" lon="17.7207396">
        <ele>54.9324</ele>
        <time>2014-06-15T13:16:00Z</time>
      </trkpt>
      <trkpt lat="59.8995691" lon="17.7207527">
        <ele>54.9324</ele>
        <time>2014-06-15T13:16:01Z</time>
      </trkpt>
      <trkpt lat="59.8995687" lon="17.7207557">
        <ele>55.4131</ele>
        <time>2014-06-15T13:16:02Z</time>
      </trkpt>
      <trkpt lat="59.899569" lon="17.7207436">
        <ele>54.9324</ele>
        <time>2014-06-15T13:16:03Z</time>
      </trkpt>
      <trkpt lat="59.89957" lon="17.7207395">
        <ele>53.4905</ele>
        <time>2014-06-15T13:16:04Z</time>
      </trkpt>
      <trkpt lat="59.8995716" lon="17.7207265">
        <ele>53.9712</ele>
        <time>2014-06-15T13:16:05Z</time>
      </trkpt>
      <trkpt lat="59.8995744" lon="17.7207035">
        <ele>54.4518</ele>
        <time>2014-06-15T13:16:06Z</time>
      </trkpt>
      <trkpt lat="59.8995765" lon="17.7206961">
        <ele>53.9712</ele>
        <time>2014-06-15T13:16:07Z</time>
      </trkpt>
      <trkpt lat="59.899577" lon="17.7206954">
        <ele>54.9324</ele>
        <time>2014-06-15T13:16:08Z</time>
      </trkpt>
      <trkpt lat="59.8995858" lon="17.7206649">
        <ele>57.3358</ele>
        <time>2014-06-15T13:16:09Z</time>
      </trkpt>
      <trkpt lat="59.8995893" lon="17.7206588">
        <ele>57.8165</ele>
        <time>2014-06-15T13:16:10Z</time>
      </trkpt>
      <trkpt lat="59.8995909" lon="17.7206541">
        <ele>59.2584</ele>
        <time>2014-06-15T13:16:11Z</time>
      </trkpt>
      <trkpt lat="59.8995904" lon="17.7206491">
        <ele>61.181</ele>
        <time>2014-06-15T13:16:12Z</time>
      </trkpt>
      <trkpt lat="59.8996202" lon="17.7207622">
        <ele>70.3135</ele>
        <time>2014-06-15T13:16:50Z</time>
      </trkpt>
      <trkpt lat="59.8996182" lon="17.7207804">
        <ele>69.8329</ele>
        <time>2014-06-15T13:16:51Z</time>
      </trkpt>
      <trkpt lat="59.8996184" lon="17.7207952">
        <ele>69.3523</ele>
        <time>2014-06-15T13:16:52Z</time>
      </trkpt>
      <trkpt lat="59.8996216" lon="17.7208032">
        <ele>68.8716</ele>
        <time>2014-06-15T13:16:53Z</time>
      </trkpt>
      <trkpt lat="59.8996228" lon="17.7208091">
        <ele>68.3909</ele>
        <time>2014-06-15T13:16:54Z</time>
      </trkpt>
      <trkpt lat="59.8996239" lon="17.7208119">
        <ele>67.9103</ele>
        <time>2014-06-15T13:16:55Z</time>
      </trkpt>
      <trkpt lat="59.8995478" lon="17.7207816">
        <ele>60.2197</ele>
        <time>2014-06-15T13:17:11Z</time>
      </trkpt>
      <trkpt lat="59.8995475" lon="17.7207769">
        <ele>59.2584</ele>
        <time>2014-06-15T13:17:12Z</time>
      </trkpt>
      <trkpt lat="59.899536" lon="17.7207852">
        <ele>56.3745</ele>
        <time>2014-06-15T13:17:13Z</time>
      </trkpt>
      <trkpt lat="59.8995337" lon="17.720782">
        <ele>55.4131</ele>
        <time>2014-06-15T13:17:14Z</time>
      </trkpt>
      <trkpt lat="59.8995196" lon="17.7207925">
        <ele>52.5292</ele>
        <time>2014-06-15T13:17:15Z</time>
      </trkpt>
      <trkpt lat="59.8995085" lon="17.7207957">
        <ele>51.0872</ele>
        <time>2014-06-15T13:17:16Z</time>
      </trkpt>
      <trkpt lat="59.8994986" lon="17.7207985">
        <ele>49.1646</ele>
        <time>2014-06-15T13:17:17Z</time>
      </trkpt>
      <trkpt lat="59.8994904" lon="17.7207988">
        <ele>47.2418</ele>
        <time>2014-06-15T13:17:18Z</time>
      </trkpt>
      <trkpt lat="59.8994837" lon="17.7207998">
        <ele>45.7999</ele>
        <time>2014-06-15T13:17:19Z</time>
      </trkpt>
      <trkpt lat="59.8994785" lon="17.7208058">
        <ele>43.3966</ele>
        <time>2014-06-15T13:17:20Z</time>
      </trkpt>
      <trkpt lat="59.8994723" lon="17.7208111">
        <ele>41.474</ele>
        <time>2014-06-15T13:17:21Z</time>
      </trkpt>
      <trkpt lat="59.8994676" lon="17.7208157">
        <ele>39.5513</ele>
        <time>2014-06-15T13:17:22Z</time>
      </trkpt>
      <trkpt lat="59.8994629" lon="17.7208211">
        <ele>38.1094</ele>
        <time>2014-06-15T13:17:23Z</time>
      </trkpt>
      <trkpt lat="59.8994582" lon="17.7208286">
        <ele>36.1868</ele>
        <time>2014-06-15T13:17:24Z</time>
      </trkpt>
      <trkpt lat="59.8994557" lon="17.7208328">
        <ele>34.7449</ele>
        <time>2014-06-15T13:17:25Z</time>
      </trkpt>
      <trkpt lat="59.8994538" lon="17.7208382">
        <ele>33.3029</ele>
        <time>2014-06-15T13:17:26Z</time>
      </trkpt>
      <trkpt lat="59.8994985" lon="17.7207955">
        <ele>36.1868</ele>
        <time>2014-06-15T13:21:55Z</time>
      </trkpt>
      <trkpt lat="59.8994885" lon="17.7207892">
        <ele>37.6287</ele>
        <time>2014-06-15T13:21:56Z</time>
      </trkpt>
      <trkpt lat="59.8994766" lon="17.7207933">
        <ele>38.1094</ele>
        <time>2014-06-15T13:21:57Z</time>
      </trkpt>
      <trkpt lat="59.8994618" lon="17.7208021">
        <ele>38.1094</ele>
        <time>2014-06-15T13:21:58Z</time>
      </trkpt>
      <trkpt lat="59.8994505" lon="17.720814">
        <ele>38.1094</ele>
        <time>2014-06-15T13:21:59Z</time>
      </trkpt>
      <trkpt lat="59.8994402" lon="17.7208254">
        <ele>38.5901</ele>
        <time>2014-06-15T13:22:00Z</time>
      </trkpt>
      <trkpt lat="59.8994335" lon="17.7208432">
        <ele>38.5901</ele>
        <time>2014-06-15T13:22:01Z</time>
      </trkpt>
      <trkpt lat="59.8994137" lon="17.7208726">
        <ele>39.5513</ele>
        <time>2014-06-15T13:22:02Z</time>
      </trkpt>
      <trkpt lat="59.8993961" lon="17.7208893">
        <ele>40.5128</ele>
        <time>2014-06-15T13:22:03Z</time>
      </trkpt>
      <trkpt lat="59.8993846" lon="17.7208775">
        <ele>40.9934</ele>
        <time>2014-06-15T13:22:04Z</time>
      </trkpt>
      <trkpt lat="59.8993975" lon="17.7208974">
        <ele>40.0321</ele>
        <time>2014-06-15T13:22:05Z</time>
      </trkpt>
      <trkpt lat="59.8994133" lon="17.7209068">
        <ele>39.0707</ele>
        <time>2014-06-15T13:22:06Z</time>
      </trkpt>
      <trkpt lat="59.8994272" lon="17.7209117">
        <ele>37.6287</ele>
        <time>2014-06-15T13:22:07Z</time>
      </trkpt>
      <trkpt lat="59.8994392" lon="17.7209115">
        <ele>36.1868</ele>
        <time>2014-06-15T13:22:08Z</time>
      </trkpt>
      <trkpt lat="59.8994473" lon="17.7208872">
        <ele>35.7061</ele>
        <time>2014-06-15T13:22:09Z</time>
      </trkpt>
      <trkpt lat="59.8994495" lon="17.7208731">
        <ele>36.1868</ele>
        <time>2014-06-15T13:22:10Z</time>
      </trkpt>
      <trkpt lat="59.8994541" lon="17.7208872">
        <ele>35.7061</ele>
        <time>2014-06-15T13:22:11Z</time>
      </trkpt>
      <trkpt lat="59.8994603" lon="17.7209005">
        <ele>34.2642</ele>
        <time>2014-06-15T13:22:12Z</time>
      </trkpt>
      <trkpt lat="59.8994716" lon="17.7208971">
        <ele>31.8607</ele>
        <time>2014-06-15T13:22:13Z</time>
      </trkpt>
      <trkpt lat="59.8994748" lon="17.7208845">
        <ele>30.4188</ele>
        <time>2014-06-15T13:22:14Z</time>
      </trkpt>
      <trkpt lat="59.8994806" lon="17.7208897">
        <ele>29.4575</ele>
        <time>2014-06-15T13:22:15Z</time>
      </trkpt>
      <trkpt lat="59.8994846" lon="17.7208843">
        <ele>28.9769</ele>
        <time>2014-06-15T13:22:16Z</time>
      </trkpt>
      <trkpt lat="59.8994887" lon="17.7208721">
        <ele>28.0155</ele>
        <time>2014-06-15T13:22:17Z</time>
      </trkpt>
      <trkpt lat="59.8994914" lon="17.7208581">
        <ele>27.5349</ele>
        <time>2014-06-15T13:22:18Z</time>
      </trkpt>
      <trkpt lat="59.8994944" lon="17.7208655">
        <ele>26.5736</ele>
        <time>2014-06-15T13:22:19Z</time>
      </trkpt>
      <trkpt lat="59.8994931" lon="17.7208705">
        <ele>27.0543</ele>
        <time>2014-06-15T13:22:20Z</time>
      </trkpt>
      <trkpt lat="59.8994987" lon="17.7208805">
        <ele>26.0929</ele>
        <time>2014-06-15T13:22:21Z</time>
      </trkpt>
      <trkpt lat="59.8994983" lon="17.7208763">
        <ele>25.6123</ele>
        <time>2014-06-15T13:22:22Z</time>
      </trkpt>
      <trkpt lat="59.8995034" lon="17.7208655">
        <ele>24.651</ele>
        <time>2014-06-15T13:22:23Z</time>
      </trkpt>
      <trkpt lat="59.8995139" lon="17.7208531">
        <ele>23.6896</ele>
        <time>2014-06-15T13:22:24Z</time>
      </trkpt>
      <trkpt lat="59.899522" lon="17.7208391">
        <ele>24.1703</ele>
        <time>2014-06-15T13:22:25Z</time>
      </trkpt>
      <trkpt lat="59.8995277" lon="17.7208348">
        <ele>24.1703</ele>
        <time>2014-06-15T13:22:26Z</time>
      </trkpt>
      <trkpt lat="59.8995298" lon="17.720848">
        <ele>24.651</ele>
        <time>2014-06-15T13:22:27Z</time>
      </trkpt>
      <trkpt lat="59.8995308" lon="17.7208554">
        <ele>25.6123</ele>
        <time>2014-06-15T13:22:28Z</time>
      </trkpt>
      <trkpt lat="59.899528" lon="17.7208588">
        <ele>26.5736</ele>
        <time>2014-06-15T13:22:29Z</time>
      </trkpt>
      <trkpt lat="59.8995262" lon="17.7208829">
        <ele>26.5736</ele>
        <time>2014-06-15T13:22:32Z</time>
      </trkpt>
      <trkpt lat="59.8995122" lon="17.7209022">
        <ele>27.5349</ele>
        <time>2014-06-15T13:22:33Z</time>
      </trkpt>
      <trkpt lat="59.8995112" lon="17.720925">
        <ele>26.5736</ele>
        <time>2014-06-15T13:22:34Z</time>
      </trkpt>
      <trkpt lat="59.8995109" lon="17.7209203">
        <ele>26.0929</ele>
        <time>2014-06-15T13:22:35Z</time>
      </trkpt>
      <trkpt lat="59.8995045" lon="17.7209244">
        <ele>25.6123</ele>
        <time>2014-06-15T13:22:36Z</time>
      </trkpt>
      <trkpt lat="59.8995078" lon="17.7209194">
        <ele>24.651</ele>
        <time>2014-06-15T13:22:37Z</time>
      </trkpt>
      <trkpt lat="59.8995105" lon="17.7209308">
        <ele>24.651</ele>
        <time>2014-06-15T13:22:38Z</time>
      </trkpt>
      <trkpt lat="59.8995104" lon="17.7209308">
        <ele>25.1317</ele>
        <time>2014-06-15T13:22:39Z</time>
      </trkpt>
      <trkpt lat="59.8995112" lon="17.7209273">
        <ele>26.0929</ele>
        <time>2014-06-15T13:22:40Z</time>
      </trkpt>
      <trkpt lat="59.8994899" lon="17.720825">
        <ele>28.4962</ele>
        <time>2014-06-15T13:24:25Z</time>
      </trkpt>
      <trkpt lat="59.8994871" lon="17.7208332">
        <ele>28.9769</ele>
        <time>2014-06-15T13:24:26Z</time>
      </trkpt>
      <trkpt lat="59.8994815" lon="17.7208318">
        <ele>28.4962</ele>
        <time>2014-06-15T13:24:27Z</time>
      </trkpt>
      <trkpt lat="59.8994747" lon="17.7208302">
        <ele>28.9769</ele>
        <time>2014-06-15T13:24:28Z</time>
      </trkpt>
      <trkpt lat="59.8994714" lon="17.7208386">
        <ele>28.4962</ele>
        <time>2014-06-15T13:24:29Z</time>
      </trkpt>
      <trkpt lat="59.8994641" lon="17.7208333">
        <ele>28.9769</ele>
        <time>2014-06-15T13:24:30Z</time>
      </trkpt>
      <trkpt lat="59.8994581" lon="17.7208271">
        <ele>29.4575</ele>
        <time>2014-06-15T13:24:31Z</time>
      </trkpt>
      <trkpt lat="59.8994582" lon="17.7208183">
        <ele>28.9769</ele>
        <time>2014-06-15T13:24:32Z</time>
      </trkpt>
      <trkpt lat="59.8994636" lon="17.7208197">
        <ele>28.4962</ele>
        <time>2014-06-15T13:24:33Z</time>
      </trkpt>
      <trkpt lat="59.899464" lon="17.7208233">
        <ele>28.0155</ele>
        <time>2014-06-15T13:24:34Z</time>
      </trkpt>
      <trkpt lat="59.8994667" lon="17.7208178">
        <ele>28.4962</ele>
        <time>2014-06-15T13:24:35Z</time>
      </trkpt>
      <trkpt lat="59.8993604" lon="17.7203263">
        <ele>34.7449</ele>
        <time>2014-06-15T13:44:54Z</time>
      </trkpt>
      <trkpt lat="59.8993734" lon="17.7202697">
        <ele>34.7449</ele>
        <time>2014-06-15T13:44:55Z</time>
      </trkpt>
      <trkpt lat="59.8993905" lon="17.7202072">
        <ele>34.7449</ele>
        <time>2014-06-15T13:44:56Z</time>
      </trkpt>
      <trkpt lat="59.8994086" lon="17.7201419">
        <ele>34.7449</ele>
        <time>2014-06-15T13:44:57Z</time>
      </trkpt>
      <trkpt lat="59.8994247" lon="17.7200704">
        <ele>34.2642</ele>
        <time>2014-06-15T13:44:58Z</time>
      </trkpt>
      <trkpt lat="59.8994407" lon="17.719991">
        <ele>34.2642</ele>
        <time>2014-06-15T13:44:59Z</time>
      </trkpt>
      <trkpt lat="59.8994584" lon="17.7199108">
        <ele>34.2642</ele>
        <time>2014-06-15T13:45:00Z</time>
      </trkpt>
      <trkpt lat="59.899478" lon="17.7198284">
        <ele>34.2642</ele>
        <time>2014-06-15T13:45:01Z</time>
      </trkpt>
      <trkpt lat="59.8994971" lon="17.7197424">
        <ele>33.7834</ele>
        <time>2014-06-15T13:45:02Z</time>
      </trkpt>
      <trkpt lat="59.8995154" lon="17.7196547">
        <ele>33.7834</ele>
        <time>2014-06-15T13:45:03Z</time>
      </trkpt>
      <trkpt lat="59.8995339" lon="17.7195659">
        <ele>33.7834</ele>
        <time>2014-06-15T13:45:04Z</time>
      </trkpt>
      <trkpt lat="59.8995541" lon="17.7194772">
        <ele>33.7834</ele>
        <time>2014-06-15T13:45:05Z</time>
      </trkpt>
      <trkpt lat="59.8995745" lon="17.7193918">
        <ele>33.3029</ele>
        <time>2014-06-15T13:45:06Z</time>
      </trkpt>
      <trkpt lat="59.899594" lon="17.7193033">
        <ele>33.3029</ele>
        <time>2014-06-15T13:45:07Z</time>
      </trkpt>
      <trkpt lat="59.8996147" lon="17.7192111">
        <ele>32.8223</ele>
        <time>2014-06-15T13:45:08Z</time>
      </trkpt>
      <trkpt lat="59.8996395" lon="17.7191202">
        <ele>32.3416</ele>
        <time>2014-06-15T13:45:09Z</time>
      </trkpt>
      <trkpt lat="59.8996661" lon="17.719031">
        <ele>32.3416</ele>
        <time>2014-06-15T13:45:10Z</time>
      </trkpt>
      <trkpt lat="59.8996952" lon="17.7189416">
        <ele>32.3416</ele>
        <time>2014-06-15T13:45:11Z</time>
      </trkpt>
      <trkpt lat="59.8997252" lon="17.7188542">
        <ele>32.3416</ele>
        <time>2014-06-15T13:45:12Z</time>
      </trkpt>
      <trkpt lat="59.8997537" lon="17.7187653">
        <ele>32.3416</ele>
        <time>2014-06-15T13:45:13Z</time>
      </trkpt>
      <trkpt lat="59.899782" lon="17.7186798">
        <ele>32.3416</ele>
        <time>2014-06-15T13:45:14Z</time>
      </trkpt>
      <trkpt lat="59.8998075" lon="17.7185897">
        <ele>32.3416</ele>
        <time>2014-06-15T13:45:15Z</time>
      </trkpt>
      <trkpt lat="59.8998358" lon="17.7185034">
        <ele>32.3416</ele>
        <time>2014-06-15T13:45:16Z</time>
      </trkpt>
      <trkpt lat="59.8998655" lon="17.7184195">
        <ele>32.3416</ele>
        <time>2014-06-15T13:45:17Z</time>
      </trkpt>
      <trkpt lat="59.8998946" lon="17.7183335">
        <ele>32.3416</ele>
        <time>2014-06-15T13:45:18Z</time>
      </trkpt>
      <trkpt lat="59.899924" lon="17.7182423">
        <ele>32.3416</ele>
        <time>2014-06-15T13:45:19Z</time>
      </trkpt>
      <trkpt lat="59.8999508" lon="17.7181473">
        <ele>32.3416</ele>
        <time>2014-06-15T13:45:20Z</time>
      </trkpt>
      <trkpt lat="59.8999744" lon="17.7180512">
        <ele>32.3416</ele>
        <time>2014-06-15T13:45:21Z</time>
      </trkpt>
      <trkpt lat="59.8999963" lon="17.7179541">
        <ele>31.8607</ele>
        <time>2014-06-15T13:45:22Z</time>
      </trkpt>
      <trkpt lat="59.9000158" lon="17.7178552">
        <ele>31.8607</ele>
        <time>2014-06-15T13:45:23Z</time>
      </trkpt>
      <trkpt lat="59.9000321" lon="17.7177533">
        <ele>31.8607</ele>
        <time>2014-06-15T13:45:24Z</time>
      </trkpt>
      <trkpt lat="59.9000469" lon="17.7176554">
        <ele>31.8607</ele>
        <time>2014-06-15T13:45:25Z</time>
      </trkpt>
      <trkpt lat="59.9000601" lon="17.7175533">
        <ele>31.8607</ele>
        <time>2014-06-15T13:45:26Z</time>
      </trkpt>
      <trkpt lat="59.9000711" lon="17.7174488">
        <ele>31.3801</ele>
        <time>2014-06-15T13:45:27Z</time>
      </trkpt>
      <trkpt lat="59.9000808" lon="17.7173376">
        <ele>30.8995</ele>
        <time>2014-06-15T13:45:28Z</time>
      </trkpt>
      <trkpt lat="59.9000902" lon="17.7172195">
        <ele>30.8995</ele>
        <time>2014-06-15T13:45:29Z</time>
      </trkpt>
      <trkpt lat="59.9000977" lon="17.7170985">
        <ele>30.8995</ele>
        <time>2014-06-15T13:45:30Z</time>
      </trkpt>
      <trkpt lat="59.9001049" lon="17.7169756">
        <ele>30.8995</ele>
        <time>2014-06-15T13:45:31Z</time>
      </trkpt>
      <trkpt lat="59.9001111" lon="17.7168489">
        <ele>30.8995</ele>
        <time>2014-06-15T13:45:32Z</time>
      </trkpt>
      <trkpt lat="59.9001162" lon="17.7167168">
        <ele>30.8995</ele>
        <time>2014-06-15T13:45:33Z</time>
      </trkpt>
      <trkpt lat="59.9001238" lon="17.7165862">
        <ele>30.8995</ele>
        <time>2014-06-15T13:45:34Z</time>
      </trkpt>
      <trkpt lat="59.9001323" lon="17.7164552">
        <ele>30.4188</ele>
        <time>2014-06-15T13:45:35Z</time>
      </trkpt>
      <trkpt lat="59.9001414" lon="17.7163236">
        <ele>30.8995</ele>
        <time>2014-06-15T13:45:36Z</time>
      </trkpt>
      <trkpt lat="59.9001518" lon="17.7161936">
        <ele>30.8995</ele>
        <time>2014-06-15T13:45:37Z</time>
      </trkpt>
      <trkpt lat="59.9001645" lon="17.7160683">
        <ele>30.8995</ele>
        <time>2014-06-15T13:45:38Z</time>
      </trkpt>
      <trkpt lat="59.90018" lon="17.7159468">
        <ele>30.8995</ele>
        <time>2014-06-15T13:45:39Z</time>
      </trkpt>
      <trkpt lat="59.9001975" lon="17.7158279">
        <ele>30.4188</ele>
        <time>2014-06-15T13:45:40Z</time>
      </trkpt>
      <trkpt lat="59.9002156" lon="17.7157106">
        <ele>30.4188</ele>
        <time>2014-06-15T13:45:41Z</time>
      </trkpt>
      <trkpt lat="59.9002351" lon="17.7155966">
        <ele>30.4188</ele>
        <time>2014-06-15T13:45:42Z</time>
      </trkpt>
      <trkpt lat="59.9002577" lon="17.7154878">
        <ele>30.4188</ele>
        <time>2014-06-15T13:45:43Z</time>
      </trkpt>
      <trkpt lat="59.9002814" lon="17.715383">
        <ele>30.4188</ele>
        <time>2014-06-15T13:45:44Z</time>
      </trkpt>
      <trkpt lat="59.900304" lon="17.7152814">
        <ele>30.4188</ele>
        <time>2014-06-15T13:45:45Z</time>
      </trkpt>
      <trkpt lat="59.9003253" lon="17.7151792">
        <ele>30.4188</ele>
        <time>2014-06-15T13:45:46Z</time>
      </trkpt>
      <trkpt lat="59.9003471" lon="17.7150804">
        <ele>30.4188</ele>
        <time>2014-06-15T13:45:47Z</time>
      </trkpt>
      <trkpt lat="59.900369" lon="17.714984">
        <ele>30.4188</ele>
        <time>2014-06-15T13:45:48Z</time>
      </trkpt>
      <trkpt lat="59.9003918" lon="17.7148881">
        <ele>30.4188</ele>
        <time>2014-06-15T13:45:49Z</time>
      </trkpt>
      <trkpt lat="59.9004167" lon="17.7147914">
        <ele>30.4188</ele>
        <time>2014-06-15T13:45:50Z</time>
      </trkpt>
      <trkpt lat="59.9004437" lon="17.7146955">
        <ele>30.4188</ele>
        <time>2014-06-15T13:45:51Z</time>
      </trkpt>
      <trkpt lat="59.9004715" lon="17.7145981">
        <ele>30.4188</ele>
        <time>2014-06-15T13:45:52Z</time>
      </trkpt>
      <trkpt lat="59.9005" lon="17.7145">
        <ele>30.4188</ele>
        <time>2014-06-15T13:45:53Z</time>
      </trkpt>
      <trkpt lat="59.90053" lon="17.7144039">
        <ele>30.4188</ele>
        <time>2014-06-15T13:45:54Z</time>
      </trkpt>
      <trkpt lat="59.9005606" lon="17.7143105">
        <ele>30.4188</ele>
        <time>2014-06-15T13:45:55Z</time>
      </trkpt>
      <trkpt lat="59.9005902" lon="17.7142175">
        <ele>29.9381</ele>
        <time>2014-06-15T13:45:56Z</time>
      </trkpt>
      <trkpt lat="59.9006195" lon="17.7141257">
        <ele>29.9381</ele>
        <time>2014-06-15T13:45:57Z</time>
      </trkpt>
      <trkpt lat="59.9006483" lon="17.7140361">
        <ele>29.9381</ele>
        <time>2014-06-15T13:45:58Z</time>
      </trkpt>
      <trkpt lat="59.9006765" lon="17.7139485">
        <ele>29.9381</ele>
        <time>2014-06-15T13:45:59Z</time>
      </trkpt>
      <trkpt lat="59.9007042" lon="17.7138641">
        <ele>29.9381</ele>
        <time>2014-06-15T13:46:00Z</time>
      </trkpt>
      <trkpt lat="59.9007319" lon="17.7137836">
        <ele>29.9381</ele>
        <time>2014-06-15T13:46:01Z</time>
      </trkpt>
      <trkpt lat="59.9007581" lon="17.713705">
        <ele>29.9381</ele>
        <time>2014-06-15T13:46:02Z</time>
      </trkpt>
      <trkpt lat="59.9007837" lon="17.7136293">
        <ele>29.9381</ele>
        <time>2014-06-15T13:46:03Z</time>
      </trkpt>
      <trkpt lat="59.9008093" lon="17.713556">
        <ele>29.9381</ele>
        <time>2014-06-15T13:46:04Z</time>
      </trkpt>
      <trkpt lat="59.9008331" lon="17.7134819">
        <ele>29.9381</ele>
        <time>2014-06-15T13:46:05Z</time>
      </trkpt>
      <trkpt lat="59.9008564" lon="17.7134091">
        <ele>29.9381</ele>
        <time>2014-06-15T13:46:06Z</time>
      </trkpt>
      <trkpt lat="59.9008803" lon="17.7133377">
        <ele>29.9381</ele>
        <time>2014-06-15T13:46:07Z</time>
      </trkpt>
      <trkpt lat="59.9009028" lon="17.7132623">
        <ele>30.4188</ele>
        <time>2014-06-15T13:46:08Z</time>
      </trkpt>
      <trkpt lat="59.9009272" lon="17.7131819">
        <ele>30.4188</ele>
        <time>2014-06-15T13:46:09Z</time>
      </trkpt>
      <trkpt lat="59.9009495" lon="17.7130917">
        <ele>30.4188</ele>
        <time>2014-06-15T13:46:10Z</time>
      </trkpt>
      <trkpt lat="59.9009678" lon="17.7129938">
        <ele>30.4188</ele>
        <time>2014-06-15T13:46:11Z</time>
      </trkpt>
      <trkpt lat="59.9009893" lon="17.7128963">
        <ele>30.8995</ele>
        <time>2014-06-15T13:46:12Z</time>
      </trkpt>
      <trkpt lat="59.9010134" lon="17.712783">
        <ele>30.8995</ele>
        <time>2014-06-15T13:46:13Z</time>
      </trkpt>
      <trkpt lat="59.9010294" lon="17.7126836">
        <ele>30.8995</ele>
        <time>2014-06-15T13:46:14Z</time>
      </trkpt>
      <trkpt lat="59.901017" lon="17.7125982">
        <ele>30.8995</ele>
        <time>2014-06-15T13:46:15Z</time>
      </trkpt>
      <trkpt lat="59.9009798" lon="17.7125352">
        <ele>30.8995</ele>
        <time>2014-06-15T13:46:16Z</time>
      </trkpt>
      <trkpt lat="59.9009315" lon="17.7124852">
        <ele>30.8995</ele>
        <time>2014-06-15T13:46:17Z</time>
      </trkpt>
      <trkpt lat="59.9008823" lon="17.7124366">
        <ele>30.8995</ele>
        <time>2014-06-15T13:46:18Z</time>
      </trkpt>
      <trkpt lat="59.9008331" lon="17.7123851">
        <ele>30.8995</ele>
        <time>2014-06-15T13:46:19Z</time>
      </trkpt>
      <trkpt lat="59.9007838" lon="17.7123288">
        <ele>30.8995</ele>
        <time>2014-06-15T13:46:20Z</time>
      </trkpt>
      <trkpt lat="59.9007326" lon="17.71227">
        <ele>30.8995</ele>
        <time>2014-06-15T13:46:21Z</time>
      </trkpt>
      <trkpt lat="59.9006791" lon="17.7122111">
        <ele>30.8995</ele>
        <time>2014-06-15T13:46:22Z</time>
      </trkpt>
      <trkpt lat="59.9006233" lon="17.7121508">
        <ele>30.8995</ele>
        <time>2014-06-15T13:46:23Z</time>
      </trkpt>
      <trkpt lat="59.9005654" lon="17.7120881">
        <ele>31.3801</ele>
        <time>2014-06-15T13:46:24Z</time>
      </trkpt>
      <trkpt lat="59.9005067" lon="17.7120232">
        <ele>31.3801</ele>
        <time>2014-06-15T13:46:25Z</time>
      </trkpt>
      <trkpt lat="59.9004477" lon="17.7119568">
        <ele>31.3801</ele>
        <time>2014-06-15T13:46:26Z</time>
      </trkpt>
      <trkpt lat="59.9003887" lon="17.7118903">
        <ele>31.3801</ele>
        <time>2014-06-15T13:46:27Z</time>
      </trkpt>
      <trkpt lat="59.9003292" lon="17.7118253">
        <ele>31.3801</ele>
        <time>2014-06-15T13:46:28Z</time>
      </trkpt>
      <trkpt lat="59.9002695" lon="17.7117604">
        <ele>30.8995</ele>
        <time>2014-06-15T13:46:29Z</time>
      </trkpt>
      <trkpt lat="59.9002094" lon="17.7116934">
        <ele>30.8995</ele>
        <time>2014-06-15T13:46:30Z</time>
      </trkpt>
      <trkpt lat="59.9001488" lon="17.7116253">
        <ele>30.8995</ele>
        <time>2014-06-15T13:46:31Z</time>
      </trkpt>
      <trkpt lat="59.9000881" lon="17.7115556">
        <ele>30.8995</ele>
        <time>2014-06-15T13:46:32Z</time>
      </trkpt>
      <trkpt lat="59.9000271" lon="17.7114829">
        <ele>30.8995</ele>
        <time>2014-06-15T13:46:33Z</time>
      </trkpt>
      <trkpt lat="59.8999654" lon="17.7114097">
        <ele>30.8995</ele>
        <time>2014-06-15T13:46:34Z</time>
      </trkpt>
      <trkpt lat="59.8999028" lon="17.7113368">
        <ele>30.8995</ele>
        <time>2014-06-15T13:46:35Z</time>
      </trkpt>
      <trkpt lat="59.8998396" lon="17.7112643">
        <ele>30.8995</ele>
        <time>2014-06-15T13:46:36Z</time>
      </trkpt>
      <trkpt lat="59.8997753" lon="17.7111921">
        <ele>30.8995</ele>
        <time>2014-06-15T13:46:37Z</time>
      </trkpt>
      <trkpt lat="59.8997105" lon="17.7111186">
        <ele>30.8995</ele>
        <time>2014-06-15T13:46:38Z</time>
      </trkpt>
      <trkpt lat="59.8996458" lon="17.7110416">
        <ele>30.8995</ele>
        <time>2014-06-15T13:46:39Z</time>
      </trkpt>
      <trkpt lat="59.8995815" lon="17.7109617">
        <ele>30.8995</ele>
        <time>2014-06-15T13:46:40Z</time>
      </trkpt>
      <trkpt lat="59.8995168" lon="17.7108819">
        <ele>30.8995</ele>
        <time>2014-06-15T13:46:41Z</time>
      </trkpt>
      <trkpt lat="59.899451" lon="17.7108045">
        <ele>30.8995</ele>
        <time>2014-06-15T13:46:42Z</time>
      </trkpt>
      <trkpt lat="59.8993847" lon="17.7107273">
        <ele>30.8995</ele>
        <time>2014-06-15T13:46:43Z</time>
      </trkpt>
      <trkpt lat="59.8993185" lon="17.7106475">
        <ele>30.8995</ele>
        <time>2014-06-15T13:46:44Z</time>
      </trkpt>
      <trkpt lat="59.8992522" lon="17.7105655">
        <ele>30.8995</ele>
        <time>2014-06-15T13:46:45Z</time>
      </trkpt>
      <trkpt lat="59.8991853" lon="17.7104825">
        <ele>30.8995</ele>
        <time>2014-06-15T13:46:46Z</time>
      </trkpt>
      <trkpt lat="59.8991176" lon="17.7103975">
        <ele>30.8995</ele>
        <time>2014-06-15T13:46:47Z</time>
      </trkpt>
      <trkpt lat="59.8990507" lon="17.7103099">
        <ele>30.8995</ele>
        <time>2014-06-15T13:46:48Z</time>
      </trkpt>
      <trkpt lat="59.8989838" lon="17.710222">
        <ele>30.8995</ele>
        <time>2014-06-15T13:46:49Z</time>
      </trkpt>
      <trkpt lat="59.8989159" lon="17.7101348">
        <ele>30.8995</ele>
        <time>2014-06-15T13:46:50Z</time>
      </trkpt>
      <trkpt lat="59.8988479" lon="17.7100468">
        <ele>30.8995</ele>
        <time>2014-06-15T13:46:51Z</time>
      </trkpt>
      <trkpt lat="59.8987797" lon="17.7099584">
        <ele>30.8995</ele>
        <time>2014-06-15T13:46:52Z</time>
      </trkpt>
      <trkpt lat="59.8987119" lon="17.7098697">
        <ele>30.8995</ele>
        <time>2014-06-15T13:46:53Z</time>
      </trkpt>
      <trkpt lat="59.898644" lon="17.7097825">
        <ele>30.8995</ele>
        <time>2014-06-15T13:46:54Z</time>
      </trkpt>
      <trkpt lat="59.8985757" lon="17.7096965">
        <ele>30.8995</ele>
        <time>2014-06-15T13:46:55Z</time>
      </trkpt>
      <trkpt lat="59.8985083" lon="17.7096082">
        <ele>30.8995</ele>
        <time>2014-06-15T13:46:56Z</time>
      </trkpt>
      <trkpt lat="59.898442" lon="17.7095176">
        <ele>30.4188</ele>
        <time>2014-06-15T13:46:57Z</time>
      </trkpt>
      <trkpt lat="59.8983758" lon="17.7094276">
        <ele>30.4188</ele>
        <time>2014-06-15T13:46:58Z</time>
      </trkpt>
      <trkpt lat="59.8983089" lon="17.7093407">
        <ele>30.4188</ele>
        <time>2014-06-15T13:46:59Z</time>
      </trkpt>
      <trkpt lat="59.8982416" lon="17.7092551">
        <ele>30.4188</ele>
        <time>2014-06-15T13:47:00Z</time>
      </trkpt>
      <trkpt lat="59.8981756" lon="17.7091676">
        <ele>30.4188</ele>
        <time>2014-06-15T13:47:01Z</time>
      </trkpt>
      <trkpt lat="59.8981105" lon="17.7090787">
        <ele>30.4188</ele>
        <time>2014-06-15T13:47:02Z</time>
      </trkpt>
      <trkpt lat="59.8980455" lon="17.7089912">
        <ele>30.4188</ele>
        <time>2014-06-15T13:47:03Z</time>
      </trkpt>
      <trkpt lat="59.8979804" lon="17.7089065">
        <ele>30.4188</ele>
        <time>2014-06-15T13:47:04Z</time>
      </trkpt>
      <trkpt lat="59.8979153" lon="17.7088224">
        <ele>30.4188</ele>
        <time>2014-06-15T13:47:05Z</time>
      </trkpt>
      <trkpt lat="59.8978508" lon="17.7087389">
        <ele>30.4188</ele>
        <time>2014-06-15T13:47:06Z</time>
      </trkpt>
      <trkpt lat="59.8977862" lon="17.708658">
        <ele>30.4188</ele>
        <time>2014-06-15T13:47:07Z</time>
      </trkpt>
      <trkpt lat="59.8977209" lon="17.7085825">
        <ele>30.4188</ele>
        <time>2014-06-15T13:47:08Z</time>
      </trkpt>
      <trkpt lat="59.8976544" lon="17.7085125">
        <ele>30.4188</ele>
        <time>2014-06-15T13:47:09Z</time>
      </trkpt>
      <trkpt lat="59.8975889" lon="17.708441">
        <ele>30.4188</ele>
        <time>2014-06-15T13:47:10Z</time>
      </trkpt>
      <trkpt lat="59.8975261" lon="17.7083623">
        <ele>30.4188</ele>
        <time>2014-06-15T13:47:11Z</time>
      </trkpt>
      <trkpt lat="59.8974661" lon="17.7082753">
        <ele>30.4188</ele>
        <time>2014-06-15T13:47:12Z</time>
      </trkpt>
      <trkpt lat="59.8974091" lon="17.7081806">
        <ele>30.4188</ele>
        <time>2014-06-15T13:47:13Z</time>
      </trkpt>
      <trkpt lat="59.8973526" lon="17.7080855">
        <ele>30.4188</ele>
        <time>2014-06-15T13:47:14Z</time>
      </trkpt>
      <trkpt lat="59.8972944" lon="17.707994">
        <ele>30.4188</ele>
        <time>2014-06-15T13:47:15Z</time>
      </trkpt>
      <trkpt lat="59.8972343" lon="17.7079071">
        <ele>30.8995</ele>
        <time>2014-06-15T13:47:16Z</time>
      </trkpt>
      <trkpt lat="59.8971725" lon="17.7078257">
        <ele>30.8995</ele>
        <time>2014-06-15T13:47:17Z</time>
      </trkpt>
      <trkpt lat="59.8971107" lon="17.707746">
        <ele>30.8995</ele>
        <time>2014-06-15T13:47:18Z</time>
      </trkpt>
      <trkpt lat="59.8970501" lon="17.7076646">
        <ele>30.8995</ele>
        <time>2014-06-15T13:47:19Z</time>
      </trkpt>
      <trkpt lat="59.8969905" lon="17.7075823">
        <ele>30.8995</ele>
        <time>2014-06-15T13:47:20Z</time>
      </trkpt>
      <trkpt lat="59.8969314" lon="17.7075017">
        <ele>30.8995</ele>
        <time>2014-06-15T13:47:21Z</time>
      </trkpt>
      <trkpt lat="59.8968724" lon="17.7074224">
        <ele>30.8995</ele>
        <time>2014-06-15T13:47:22Z</time>
      </trkpt>
      <trkpt lat="59.8968139" lon="17.7073433">
        <ele>30.8995</ele>
        <time>2014-06-15T13:47:23Z</time>
      </trkpt>
      <trkpt lat="59.8967558" lon="17.7072651">
        <ele>30.8995</ele>
        <time>2014-06-15T13:47:24Z</time>
      </trkpt>
      <trkpt lat="59.8966972" lon="17.7071875">
        <ele>30.8995</ele>
        <time>2014-06-15T13:47:25Z</time>
      </trkpt>
      <trkpt lat="59.8966381" lon="17.7071108">
        <ele>30.8995</ele>
        <time>2014-06-15T13:47:26Z</time>
      </trkpt>
      <trkpt lat="59.8965792" lon="17.7070347">
        <ele>30.8995</ele>
        <time>2014-06-15T13:47:27Z</time>
      </trkpt>
      <trkpt lat="59.8965217" lon="17.706959">
        <ele>30.8995</ele>
        <time>2014-06-15T13:47:28Z</time>
      </trkpt>
      <trkpt lat="59.8964654" lon="17.7068833">
        <ele>30.8995</ele>
        <time>2014-06-15T13:47:29Z</time>
      </trkpt>
      <trkpt lat="59.8964105" lon="17.7068084">
        <ele>30.8995</ele>
        <time>2014-06-15T13:47:30Z</time>
      </trkpt>
      <trkpt lat="59.8963566" lon="17.7067345">
        <ele>30.8995</ele>
        <time>2014-06-15T13:47:31Z</time>
      </trkpt>
      <trkpt lat="59.8963035" lon="17.7066607">
        <ele>30.8995</ele>
        <time>2014-06-15T13:47:32Z</time>
      </trkpt>
      <trkpt lat="59.8962499" lon="17.706589">
        <ele>30.8995</ele>
        <time>2014-06-15T13:47:33Z</time>
      </trkpt>
      <trkpt lat="59.896196" lon="17.7065185">
        <ele>30.8995</ele>
        <time>2014-06-15T13:47:34Z</time>
      </trkpt>
      <trkpt lat="59.8961416" lon="17.7064488">
        <ele>30.8995</ele>
        <time>2014-06-15T13:47:35Z</time>
      </trkpt>
      <trkpt lat="59.8960874" lon="17.7063791">
        <ele>30.8995</ele>
        <time>2014-06-15T13:47:36Z</time>
      </trkpt>
      <trkpt lat="59.8960338" lon="17.7063061">
        <ele>30.8995</ele>
        <time>2014-06-15T13:47:37Z</time>
      </trkpt>
      <trkpt lat="59.8959803" lon="17.7062329">
        <ele>30.8995</ele>
        <time>2014-06-15T13:47:38Z</time>
      </trkpt>
      <trkpt lat="59.8959259" lon="17.7061601">
        <ele>30.8995</ele>
        <time>2014-06-15T13:47:39Z</time>
      </trkpt>
      <trkpt lat="59.8958712" lon="17.7060856">
        <ele>30.8995</ele>
        <time>2014-06-15T13:47:40Z</time>
      </trkpt>
      <trkpt lat="59.8958152" lon="17.706012">
        <ele>30.8995</ele>
        <time>2014-06-15T13:47:41Z</time>
      </trkpt>
      <trkpt lat="59.8957581" lon="17.7059389">
        <ele>30.8995</ele>
        <time>2014-06-15T13:47:42Z</time>
      </trkpt>
      <trkpt lat="59.8957015" lon="17.705863">
        <ele>30.8995</ele>
        <time>2014-06-15T13:47:43Z</time>
      </trkpt>
      <trkpt lat="59.8956456" lon="17.7057852">
        <ele>30.8995</ele>
        <time>2014-06-15T13:47:44Z</time>
      </trkpt>
      <trkpt lat="59.8955889" lon="17.7057083">
        <ele>30.8995</ele>
        <time>2014-06-15T13:47:45Z</time>
      </trkpt>
      <trkpt lat="59.8955314" lon="17.7056324">
        <ele>30.8995</ele>
        <time>2014-06-15T13:47:46Z</time>
      </trkpt>
      <trkpt lat="59.8954734" lon="17.7055565">
        <ele>30.8995</ele>
        <time>2014-06-15T13:47:47Z</time>
      </trkpt>
      <trkpt lat="59.895414" lon="17.7054825">
        <ele>30.8995</ele>
        <time>2014-06-15T13:47:48Z</time>
      </trkpt>
      <trkpt lat="59.8953521" lon="17.7054167">
        <ele>30.8995</ele>
        <time>2014-06-15T13:47:49Z</time>
      </trkpt>
      <trkpt lat="59.89529" lon="17.7053564">
        <ele>30.8995</ele>
        <time>2014-06-15T13:47:50Z</time>
      </trkpt>
      <trkpt lat="59.8952303" lon="17.7052919">
        <ele>30.8995</ele>
        <time>2014-06-15T13:47:51Z</time>
      </trkpt>
      <trkpt lat="59.8951747" lon="17.7052188">
        <ele>30.8995</ele>
        <time>2014-06-15T13:47:52Z</time>
      </trkpt>
      <trkpt lat="59.8951225" lon="17.7051402">
        <ele>31.3801</ele>
        <time>2014-06-15T13:47:53Z</time>
      </trkpt>
      <trkpt lat="59.8950727" lon="17.7050572">
        <ele>31.3801</ele>
        <time>2014-06-15T13:47:54Z</time>
      </trkpt>
      <trkpt lat="59.8950234" lon="17.7049745">
        <ele>31.3801</ele>
        <time>2014-06-15T13:47:55Z</time>
      </trkpt>
      <trkpt lat="59.8949718" lon="17.7048985">
        <ele>31.3801</ele>
        <time>2014-06-15T13:47:56Z</time>
      </trkpt>
      <trkpt lat="59.8949188" lon="17.7048273">
        <ele>31.3801</ele>
        <time>2014-06-15T13:47:57Z</time>
      </trkpt>
      <trkpt lat="59.8948656" lon="17.7047563">
        <ele>31.8607</ele>
        <time>2014-06-15T13:47:58Z</time>
      </trkpt>
      <trkpt lat="59.8948136" lon="17.7046823">
        <ele>31.8607</ele>
        <time>2014-06-15T13:47:59Z</time>
      </trkpt>
      <trkpt lat="59.8947626" lon="17.7046052">
        <ele>31.8607</ele>
        <time>2014-06-15T13:48:00Z</time>
      </trkpt>
      <trkpt lat="59.8947113" lon="17.7045291">
        <ele>31.8607</ele>
        <time>2014-06-15T13:48:01Z</time>
      </trkpt>
      <trkpt lat="59.8946584" lon="17.7044564">
        <ele>32.3416</ele>
        <time>2014-06-15T13:48:02Z</time>
      </trkpt>
      <trkpt lat="59.8946051" lon="17.704385">
        <ele>32.3416</ele>
        <time>2014-06-15T13:48:03Z</time>
      </trkpt>
      <trkpt lat="59.8945522" lon="17.7043147">
        <ele>32.3416</ele>
        <time>2014-06-15T13:48:04Z</time>
      </trkpt>
      <trkpt lat="59.8944998" lon="17.7042437">
        <ele>32.3416</ele>
        <time>2014-06-15T13:48:05Z</time>
      </trkpt>
      <trkpt lat="59.8944486" lon="17.7041721">
        <ele>32.8223</ele>
        <time>2014-06-15T13:48:06Z</time>
      </trkpt>
      <trkpt lat="59.8943969" lon="17.7041028">
        <ele>32.8223</ele>
        <time>2014-06-15T13:48:07Z</time>
      </trkpt>
      <trkpt lat="59.8943449" lon="17.7040354">
        <ele>32.8223</ele>
        <time>2014-06-15T13:48:08Z</time>
      </trkpt>
      <trkpt lat="59.8942937" lon="17.7039666">
        <ele>32.8223</ele>
        <time>2014-06-15T13:48:09Z</time>
      </trkpt>
      <trkpt lat="59.8942436" lon="17.7038955">
        <ele>32.8223</ele>
        <time>2014-06-15T13:48:10Z</time>
      </trkpt>
      <trkpt lat="59.8941946" lon="17.7038233">
        <ele>33.3029</ele>
        <time>2014-06-15T13:48:11Z</time>
      </trkpt>
      <trkpt lat="59.8941451" lon="17.7037536">
        <ele>33.3029</ele>
        <time>2014-06-15T13:48:12Z</time>
      </trkpt>
      <trkpt lat="59.8940948" lon="17.7036873">
        <ele>33.3029</ele>
        <time>2014-06-15T13:48:13Z</time>
      </trkpt>
      <trkpt lat="59.8940452" lon="17.7036219">
        <ele>33.3029</ele>
        <time>2014-06-15T13:48:14Z</time>
      </trkpt>
      <trkpt lat="59.8939965" lon="17.7035566">
        <ele>33.3029</ele>
        <time>2014-06-15T13:48:15Z</time>
      </trkpt>
      <trkpt lat="59.8939487" lon="17.7034915">
        <ele>33.7834</ele>
        <time>2014-06-15T13:48:16Z</time>
      </trkpt>
      <trkpt lat="59.893901" lon="17.7034265">
        <ele>33.7834</ele>
        <time>2014-06-15T13:48:17Z</time>
      </trkpt>
      <trkpt lat="59.8938529" lon="17.7033619">
        <ele>33.7834</ele>
        <time>2014-06-15T13:48:18Z</time>
      </trkpt>
      <trkpt lat="59.8938045" lon="17.703297">
        <ele>33.7834</ele>
        <time>2014-06-15T13:48:19Z</time>
      </trkpt>
      <trkpt lat="59.8937561" lon="17.7032293">
        <ele>33.7834</ele>
        <time>2014-06-15T13:48:20Z</time>
      </trkpt>
      <trkpt lat="59.8937069" lon="17.703163">
        <ele>33.7834</ele>
        <time>2014-06-15T13:48:21Z</time>
      </trkpt>
      <trkpt lat="59.8936569" lon="17.7030984">
        <ele>33.7834</ele>
        <time>2014-06-15T13:48:22Z</time>
      </trkpt>
      <trkpt lat="59.8936074" lon="17.7030336">
        <ele>33.7834</ele>
        <time>2014-06-15T13:48:23Z</time>
      </trkpt>
      <trkpt lat="59.8935575" lon="17.702971">
        <ele>33.7834</ele>
        <time>2014-06-15T13:48:24Z</time>
      </trkpt>
      <trkpt lat="59.8935065" lon="17.70291">
        <ele>33.7834</ele>
        <time>2014-06-15T13:48:25Z</time>
      </trkpt>
      <trkpt lat="59.8934562" lon="17.7028484">
        <ele>33.7834</ele>
        <time>2014-06-15T13:48:26Z</time>
      </trkpt>
      <trkpt lat="59.893407" lon="17.7027854">
        <ele>33.7834</ele>
        <time>2014-06-15T13:48:27Z</time>
      </trkpt>
      <trkpt lat="59.8933582" lon="17.7027211">
        <ele>33.7834</ele>
        <time>2014-06-15T13:48:28Z</time>
      </trkpt>
      <trkpt lat="59.8933095" lon="17.7026559">
        <ele>33.7834</ele>
        <time>2014-06-15T13:48:29Z</time>
      </trkpt>
      <trkpt lat="59.8932606" lon="17.7025909">
        <ele>33.7834</ele>
        <time>2014-06-15T13:48:30Z</time>
      </trkpt>
      <trkpt lat="59.8932111" lon="17.7025269">
        <ele>33.7834</ele>
        <time>2014-06-15T13:48:31Z</time>
      </trkpt>
      <trkpt lat="59.8931618" lon="17.7024622">
        <ele>33.7834</ele>
        <time>2014-06-15T13:48:32Z</time>
      </trkpt>
      <trkpt lat="59.8931128" lon="17.7023954">
        <ele>33.7834</ele>
        <time>2014-06-15T13:48:33Z</time>
      </trkpt>
      <trkpt lat="59.8930644" lon="17.7023295">
        <ele>33.7834</ele>
        <time>2014-06-15T13:48:34Z</time>
      </trkpt>
      <trkpt lat="59.8930158" lon="17.7022669">
        <ele>33.7834</ele>
        <time>2014-06-15T13:48:35Z</time>
      </trkpt>
      <trkpt lat="59.8929677" lon="17.7022046">
        <ele>33.7834</ele>
        <time>2014-06-15T13:48:36Z</time>
      </trkpt>
      <trkpt lat="59.8929208" lon="17.7021418">
        <ele>33.7834</ele>
        <time>2014-06-15T13:48:37Z</time>
      </trkpt>
      <trkpt lat="59.8928733" lon="17.7020838">
        <ele>33.7834</ele>
        <time>2014-06-15T13:48:38Z</time>
      </trkpt>
      <trkpt lat="59.8928246" lon="17.7020317">
        <ele>33.3029</ele>
        <time>2014-06-15T13:48:39Z</time>
      </trkpt>
      <trkpt lat="59.8927756" lon="17.7019799">
        <ele>33.3029</ele>
        <time>2014-06-15T13:48:40Z</time>
      </trkpt>
      <trkpt lat="59.8927268" lon="17.7019274">
        <ele>33.3029</ele>
        <time>2014-06-15T13:48:41Z</time>
      </trkpt>
      <trkpt lat="59.8926776" lon="17.7018732">
        <ele>33.3029</ele>
        <time>2014-06-15T13:48:42Z</time>
      </trkpt>
      <trkpt lat="59.8926299" lon="17.701812">
        <ele>33.3029</ele>
        <time>2014-06-15T13:48:43Z</time>
      </trkpt>
      <trkpt lat="59.8925838" lon="17.7017437">
        <ele>33.3029</ele>
        <time>2014-06-15T13:48:44Z</time>
      </trkpt>
      <trkpt lat="59.8925398" lon="17.7016685">
        <ele>33.3029</ele>
        <time>2014-06-15T13:48:45Z</time>
      </trkpt>
      <trkpt lat="59.8924967" lon="17.7015914">
        <ele>33.3029</ele>
        <time>2014-06-15T13:48:46Z</time>
      </trkpt>
      <trkpt lat="59.8924508" lon="17.701523">
        <ele>33.3029</ele>
        <time>2014-06-15T13:48:47Z</time>
      </trkpt>
      <trkpt lat="59.8924035" lon="17.7014615">
        <ele>33.3029</ele>
        <time>2014-06-15T13:48:48Z</time>
      </trkpt>
      <trkpt lat="59.8923616" lon="17.7014045">
        <ele>32.8223</ele>
        <time>2014-06-15T13:48:49Z</time>
      </trkpt>
      <trkpt lat="59.8923274" lon="17.7013558">
        <ele>32.8223</ele>
        <time>2014-06-15T13:48:50Z</time>
      </trkpt>
      <trkpt lat="59.8923025" lon="17.7013141">
        <ele>32.8223</ele>
        <time>2014-06-15T13:48:51Z</time>
      </trkpt>
      <trkpt lat="59.8922959" lon="17.7012713">
        <ele>32.8223</ele>
        <time>2014-06-15T13:48:52Z</time>
      </trkpt>
      <trkpt lat="59.8923087" lon="17.701241">
        <ele>32.8223</ele>
        <time>2014-06-15T13:48:53Z</time>
      </trkpt>
      <trkpt lat="59.8923295" lon="17.7012241">
        <ele>33.3029</ele>
        <time>2014-06-15T13:48:54Z</time>
      </trkpt>
      <trkpt lat="59.892351" lon="17.7011976">
        <ele>33.3029</ele>
        <time>2014-06-15T13:48:55Z</time>
      </trkpt>
      <trkpt lat="59.8923694" lon="17.7011568">
        <ele>33.3029</ele>
        <time>2014-06-15T13:48:56Z</time>
      </trkpt>
      <trkpt lat="59.8923828" lon="17.7011064">
        <ele>33.3029</ele>
        <time>2014-06-15T13:48:57Z</time>
      </trkpt>
      <trkpt lat="59.8923974" lon="17.7010538">
        <ele>32.8223</ele>
        <time>2014-06-15T13:48:58Z</time>
      </trkpt>
      <trkpt lat="59.8924161" lon="17.701007">
        <ele>32.8223</ele>
        <time>2014-06-15T13:48:59Z</time>
      </trkpt>
      <trkpt lat="59.8924345" lon="17.7009703">
        <ele>32.8223</ele>
        <time>2014-06-15T13:49:00Z</time>
      </trkpt>
      <trkpt lat="59.8924492" lon="17.7009432">
        <ele>32.8223</ele>
        <time>2014-06-15T13:49:01Z</time>
      </trkpt>
      <trkpt lat="59.8924627" lon="17.7009328">
        <ele>32.8223</ele>
        <time>2014-06-15T13:49:02Z</time>
      </trkpt>
      <trkpt lat="59.8924744" lon="17.700933">
        <ele>32.8223</ele>
        <time>2014-06-15T13:49:03Z</time>
      </trkpt>
      <trkpt lat="59.8924867" lon="17.7009202">
        <ele>32.3416</ele>
        <time>2014-06-15T13:49:04Z</time>
      </trkpt>
      <trkpt lat="59.8925009" lon="17.7008844">
        <ele>32.3416</ele>
        <time>2014-06-15T13:49:05Z</time>
      </trkpt>
      <trkpt lat="59.8925169" lon="17.7008329">
        <ele>32.3416</ele>
        <time>2014-06-15T13:49:06Z</time>
      </trkpt>
      <trkpt lat="59.8925362" lon="17.7007759">
        <ele>32.3416</ele>
        <time>2014-06-15T13:49:07Z</time>
      </trkpt>
      <trkpt lat="59.892559" lon="17.7007189">
        <ele>31.8607</ele>
        <time>2014-06-15T13:49:08Z</time>
      </trkpt>
      <trkpt lat="59.8925834" lon="17.7006593">
        <ele>31.8607</ele>
        <time>2014-06-15T13:49:09Z</time>
      </trkpt>
      <trkpt lat="59.8926072" lon="17.7005945">
        <ele>31.8607</ele>
        <time>2014-06-15T13:49:10Z</time>
      </trkpt>
      <trkpt lat="59.8926326" lon="17.7005263">
        <ele>31.3801</ele>
        <time>2014-06-15T13:49:11Z</time>
      </trkpt>
      <trkpt lat="59.8926613" lon="17.7004596">
        <ele>31.3801</ele>
        <time>2014-06-15T13:49:12Z</time>
      </trkpt>
      <trkpt lat="59.8926906" lon="17.7003952">
        <ele>31.3801</ele>
        <time>2014-06-15T13:49:13Z</time>
      </trkpt>
      <trkpt lat="59.89272" lon="17.7003298">
        <ele>31.3801</ele>
        <time>2014-06-15T13:49:14Z</time>
      </trkpt>
      <trkpt lat="59.8927491" lon="17.7002616">
        <ele>31.8607</ele>
        <time>2014-06-15T13:49:15Z</time>
      </trkpt>
      <trkpt lat="59.89278" lon="17.7001944">
        <ele>31.8607</ele>
        <time>2014-06-15T13:49:16Z</time>
      </trkpt>
      <trkpt lat="59.8928124" lon="17.7001296">
        <ele>31.3801</ele>
        <time>2014-06-15T13:49:17Z</time>
      </trkpt>
      <trkpt lat="59.8928459" lon="17.7000636">
        <ele>31.8607</ele>
        <time>2014-06-15T13:49:18Z</time>
      </trkpt>
      <trkpt lat="59.8928774" lon="17.6999933">
        <ele>31.8607</ele>
        <time>2014-06-15T13:49:19Z</time>
      </trkpt>
      <trkpt lat="59.8929061" lon="17.6999166">
        <ele>31.8607</ele>
        <time>2014-06-15T13:49:20Z</time>
      </trkpt>
      <trkpt lat="59.8929359" lon="17.6998385">
        <ele>31.8607</ele>
        <time>2014-06-15T13:49:21Z</time>
      </trkpt>
      <trkpt lat="59.892968" lon="17.6997613">
        <ele>31.8607</ele>
        <time>2014-06-15T13:49:22Z</time>
      </trkpt>
      <trkpt lat="59.8930018" lon="17.699686">
        <ele>31.8607</ele>
        <time>2014-06-15T13:49:23Z</time>
      </trkpt>
      <trkpt lat="59.8930376" lon="17.6996129">
        <ele>31.8607</ele>
        <time>2014-06-15T13:49:24Z</time>
      </trkpt>
      <trkpt lat="59.8930716" lon="17.6995378">
        <ele>31.8607</ele>
        <time>2014-06-15T13:49:25Z</time>
      </trkpt>
      <trkpt lat="59.8931034" lon="17.6994628">
        <ele>31.8607</ele>
        <time>2014-06-15T13:49:26Z</time>
      </trkpt>
      <trkpt lat="59.8931345" lon="17.6993908">
        <ele>31.8607</ele>
        <time>2014-06-15T13:49:27Z</time>
      </trkpt>
      <trkpt lat="59.8931634" lon="17.6993199">
        <ele>31.8607</ele>
        <time>2014-06-15T13:49:28Z</time>
      </trkpt>
      <trkpt lat="59.8931878" lon="17.6992474">
        <ele>31.8607</ele>
        <time>2014-06-15T13:49:29Z</time>
      </trkpt>
      <trkpt lat="59.8932047" lon="17.6991714">
        <ele>31.8607</ele>
        <time>2014-06-15T13:49:30Z</time>
      </trkpt>
      <trkpt lat="59.8932152" lon="17.6990911">
        <ele>31.8607</ele>
        <time>2014-06-15T13:49:31Z</time>
      </trkpt>
      <trkpt lat="59.8932209" lon="17.699011">
        <ele>32.3416</ele>
        <time>2014-06-15T13:49:32Z</time>
      </trkpt>
      <trkpt lat="59.8932272" lon="17.6989313">
        <ele>32.3416</ele>
        <time>2014-06-15T13:49:33Z</time>
      </trkpt>
      <trkpt lat="59.8932401" lon="17.698855">
        <ele>32.8223</ele>
        <time>2014-06-15T13:49:34Z</time>
      </trkpt>
      <trkpt lat="59.8932603" lon="17.6987847">
        <ele>32.8223</ele>
        <time>2014-06-15T13:49:35Z</time>
      </trkpt>
      <trkpt lat="59.8932889" lon="17.6987231">
        <ele>32.8223</ele>
        <time>2014-06-15T13:49:36Z</time>
      </trkpt>
      <trkpt lat="59.893322" lon="17.6986667">
        <ele>33.3029</ele>
        <time>2014-06-15T13:49:37Z</time>
      </trkpt>
      <trkpt lat="59.893356" lon="17.6986108">
        <ele>33.3029</ele>
        <time>2014-06-15T13:49:38Z</time>
      </trkpt>
      <trkpt lat="59.8933908" lon="17.6985549">
        <ele>33.3029</ele>
        <time>2014-06-15T13:49:39Z</time>
      </trkpt>
      <trkpt lat="59.8934245" lon="17.6984942">
        <ele>33.3029</ele>
        <time>2014-06-15T13:49:40Z</time>
      </trkpt>
      <trkpt lat="59.8934577" lon="17.6984269">
        <ele>33.3029</ele>
        <time>2014-06-15T13:49:41Z</time>
      </trkpt>
      <trkpt lat="59.8934903" lon="17.698358">
        <ele>33.3029</ele>
        <time>2014-06-15T13:49:42Z</time>
      </trkpt>
      <trkpt lat="59.8935204" lon="17.6982896">
        <ele>33.3029</ele>
        <time>2014-06-15T13:49:43Z</time>
      </trkpt>
      <trkpt lat="59.8935481" lon="17.6982201">
        <ele>33.3029</ele>
        <time>2014-06-15T13:49:44Z</time>
      </trkpt>
      <trkpt lat="59.8935737" lon="17.698146">
        <ele>33.3029</ele>
        <time>2014-06-15T13:49:45Z</time>
      </trkpt>
      <trkpt lat="59.8935977" lon="17.6980661">
        <ele>33.3029</ele>
        <time>2014-06-15T13:49:46Z</time>
      </trkpt>
      <trkpt lat="59.8936209" lon="17.6979828">
        <ele>33.7834</ele>
        <time>2014-06-15T13:49:47Z</time>
      </trkpt>
      <trkpt lat="59.8936426" lon="17.6978943">
        <ele>33.7834</ele>
        <time>2014-06-15T13:49:48Z</time>
      </trkpt>
      <trkpt lat="59.8936623" lon="17.6978017">
        <ele>33.7834</ele>
        <time>2014-06-15T13:49:49Z</time>
      </trkpt>
      <trkpt lat="59.8936799" lon="17.6977087">
        <ele>33.7834</ele>
        <time>2014-06-15T13:49:50Z</time>
      </trkpt>
      <trkpt lat="59.8936956" lon="17.6976186">
        <ele>33.7834</ele>
        <time>2014-06-15T13:49:51Z</time>
      </trkpt>
      <trkpt lat="59.8937093" lon="17.6975339">
        <ele>33.7834</ele>
        <time>2014-06-15T13:49:52Z</time>
      </trkpt>
      <trkpt lat="59.8937229" lon="17.6974494">
        <ele>33.7834</ele>
        <time>2014-06-15T13:49:53Z</time>
      </trkpt>
      <trkpt lat="59.8937367" lon="17.6973648">
        <ele>33.7834</ele>
        <time>2014-06-15T13:49:54Z</time>
      </trkpt>
      <trkpt lat="59.8937489" lon="17.6972784">
        <ele>34.2642</ele>
        <time>2014-06-15T13:49:55Z</time>
      </trkpt>
      <trkpt lat="59.8937596" lon="17.697191">
        <ele>34.2642</ele>
        <time>2014-06-15T13:49:56Z</time>
      </trkpt>
      <trkpt lat="59.893769" lon="17.6971024">
        <ele>34.2642</ele>
        <time>2014-06-15T13:49:57Z</time>
      </trkpt>
      <trkpt lat="59.8937776" lon="17.6970137">
        <ele>34.7449</ele>
        <time>2014-06-15T13:49:58Z</time>
      </trkpt>
      <trkpt lat="59.8937835" lon="17.6969249">
        <ele>34.7449</ele>
        <time>2014-06-15T13:49:59Z</time>
      </trkpt>
      <trkpt lat="59.893785" lon="17.6968328">
        <ele>34.7449</ele>
        <time>2014-06-15T13:50:00Z</time>
      </trkpt>
      <trkpt lat="59.8937869" lon="17.6967443">
        <ele>35.2255</ele>
        <time>2014-06-15T13:50:01Z</time>
      </trkpt>
      <trkpt lat="59.8937865" lon="17.6966552">
        <ele>35.2255</ele>
        <time>2014-06-15T13:50:02Z</time>
      </trkpt>
      <trkpt lat="59.893787" lon="17.6965701">
        <ele>35.2255</ele>
        <time>2014-06-15T13:50:03Z</time>
      </trkpt>
      <trkpt lat="59.8937882" lon="17.6964859">
        <ele>35.2255</ele>
        <time>2014-06-15T13:50:04Z</time>
      </trkpt>
      <trkpt lat="59.8937892" lon="17.6963999">
        <ele>35.2255</ele>
        <time>2014-06-15T13:50:05Z</time>
      </trkpt>
      <trkpt lat="59.8937896" lon="17.6963088">
        <ele>35.2255</ele>
        <time>2014-06-15T13:50:06Z</time>
      </trkpt>
      <trkpt lat="59.89379" lon="17.6962093">
        <ele>35.2255</ele>
        <time>2014-06-15T13:50:07Z</time>
      </trkpt>
      <trkpt lat="59.8937912" lon="17.6961071">
        <ele>34.7449</ele>
        <time>2014-06-15T13:50:08Z</time>
      </trkpt>
      <trkpt lat="59.8937929" lon="17.6959995">
        <ele>34.7449</ele>
        <time>2014-06-15T13:50:09Z</time>
      </trkpt>
      <trkpt lat="59.8937954" lon="17.6958892">
        <ele>34.2642</ele>
        <time>2014-06-15T13:50:10Z</time>
      </trkpt>
      <trkpt lat="59.8937964" lon="17.6957724">
        <ele>34.2642</ele>
        <time>2014-06-15T13:50:11Z</time>
      </trkpt>
      <trkpt lat="59.8937991" lon="17.6956555">
        <ele>34.2642</ele>
        <time>2014-06-15T13:50:12Z</time>
      </trkpt>
      <trkpt lat="59.8938018" lon="17.6955398">
        <ele>33.7834</ele>
        <time>2014-06-15T13:50:13Z</time>
      </trkpt>
      <trkpt lat="59.8938043" lon="17.6954218">
        <ele>33.7834</ele>
        <time>2014-06-15T13:50:14Z</time>
      </trkpt>
      <trkpt lat="59.8938071" lon="17.6953018">
        <ele>33.3029</ele>
        <time>2014-06-15T13:50:15Z</time>
      </trkpt>
      <trkpt lat="59.8938099" lon="17.6951815">
        <ele>33.3029</ele>
        <time>2014-06-15T13:50:16Z</time>
      </trkpt>
      <trkpt lat="59.8938136" lon="17.6950627">
        <ele>32.8223</ele>
        <time>2014-06-15T13:50:17Z</time>
      </trkpt>
      <trkpt lat="59.8938168" lon="17.6949449">
        <ele>32.8223</ele>
        <time>2014-06-15T13:50:18Z</time>
      </trkpt>
      <trkpt lat="59.8938189" lon="17.6948277">
        <ele>32.8223</ele>
        <time>2014-06-15T13:50:19Z</time>
      </trkpt>
      <trkpt lat="59.8938219" lon="17.6947118">
        <ele>32.3416</ele>
        <time>2014-06-15T13:50:20Z</time>
      </trkpt>
      <trkpt lat="59.8938256" lon="17.6945963">
        <ele>32.3416</ele>
        <time>2014-06-15T13:50:21Z</time>
      </trkpt>
      <trkpt lat="59.8938297" lon="17.694479">
        <ele>32.3416</ele>
        <time>2014-06-15T13:50:22Z</time>
      </trkpt>
      <trkpt lat="59.8938334" lon="17.694358">
        <ele>32.3416</ele>
        <time>2014-06-15T13:50:23Z</time>
      </trkpt>
      <trkpt lat="59.8938364" lon="17.6942355">
        <ele>32.3416</ele>
        <time>2014-06-15T13:50:24Z</time>
      </trkpt>
      <trkpt lat="59.8938394" lon="17.6941138">
        <ele>32.3416</ele>
        <time>2014-06-15T13:50:25Z</time>
      </trkpt>
      <trkpt lat="59.8938429" lon="17.6939936">
        <ele>32.3416</ele>
        <time>2014-06-15T13:50:26Z</time>
      </trkpt>
      <trkpt lat="59.8938472" lon="17.6938754">
        <ele>32.3416</ele>
        <time>2014-06-15T13:50:27Z</time>
      </trkpt>
      <trkpt lat="59.8938499" lon="17.6937592">
        <ele>32.3416</ele>
        <time>2014-06-15T13:50:28Z</time>
      </trkpt>
      <trkpt lat="59.8938529" lon="17.6936455">
        <ele>32.3416</ele>
        <time>2014-06-15T13:50:29Z</time>
      </trkpt>
      <trkpt lat="59.8938566" lon="17.6935321">
        <ele>32.3416</ele>
        <time>2014-06-15T13:50:30Z</time>
      </trkpt>
      <trkpt lat="59.8938603" lon="17.6934167">
        <ele>32.3416</ele>
        <time>2014-06-15T13:50:31Z</time>
      </trkpt>
      <trkpt lat="59.8938639" lon="17.6932986">
        <ele>32.3416</ele>
        <time>2014-06-15T13:50:32Z</time>
      </trkpt>
      <trkpt lat="59.8938668" lon="17.6931772">
        <ele>31.8607</ele>
        <time>2014-06-15T13:50:33Z</time>
      </trkpt>
      <trkpt lat="59.8938705" lon="17.6930562">
        <ele>31.8607</ele>
        <time>2014-06-15T13:50:34Z</time>
      </trkpt>
      <trkpt lat="59.893874" lon="17.6929312">
        <ele>31.8607</ele>
        <time>2014-06-15T13:50:35Z</time>
      </trkpt>
      <trkpt lat="59.8938766" lon="17.6928033">
        <ele>31.8607</ele>
        <time>2014-06-15T13:50:36Z</time>
      </trkpt>
      <trkpt lat="59.8938797" lon="17.6926771">
        <ele>31.8607</ele>
        <time>2014-06-15T13:50:37Z</time>
      </trkpt>
      <trkpt lat="59.8938793" lon="17.6925486">
        <ele>31.8607</ele>
        <time>2014-06-15T13:50:38Z</time>
      </trkpt>
      <trkpt lat="59.8938761" lon="17.692424">
        <ele>31.8607</ele>
        <time>2014-06-15T13:50:39Z</time>
      </trkpt>
      <trkpt lat="59.8938764" lon="17.6923133">
        <ele>31.8607</ele>
        <time>2014-06-15T13:50:40Z</time>
      </trkpt>
      <trkpt lat="59.8938794" lon="17.6922131">
        <ele>31.3801</ele>
        <time>2014-06-15T13:50:41Z</time>
      </trkpt>
      <trkpt lat="59.8938823" lon="17.6921131">
        <ele>31.3801</ele>
        <time>2014-06-15T13:50:42Z</time>
      </trkpt>
      <trkpt lat="59.8938794" lon="17.6920104">
        <ele>30.8995</ele>
        <time>2014-06-15T13:50:43Z</time>
      </trkpt>
      <trkpt lat="59.8938829" lon="17.6919265">
        <ele>30.8995</ele>
        <time>2014-06-15T13:50:44Z</time>
      </trkpt>
      <trkpt lat="59.893885" lon="17.6918382">
        <ele>30.4188</ele>
        <time>2014-06-15T13:50:45Z</time>
      </trkpt>
      <trkpt lat="59.8938849" lon="17.6917366">
        <ele>29.9381</ele>
        <time>2014-06-15T13:50:46Z</time>
      </trkpt>
      <trkpt lat="59.8938839" lon="17.6916343">
        <ele>29.4575</ele>
        <time>2014-06-15T13:50:47Z</time>
      </trkpt>
      <trkpt lat="59.8938857" lon="17.6915345">
        <ele>29.4575</ele>
        <time>2014-06-15T13:50:48Z</time>
      </trkpt>
      <trkpt lat="59.8938922" lon="17.6914409">
        <ele>29.4575</ele>
        <time>2014-06-15T13:50:49Z</time>
      </trkpt>
      <trkpt lat="59.8938981" lon="17.6913415">
        <ele>29.4575</ele>
        <time>2014-06-15T13:50:50Z</time>
      </trkpt>
      <trkpt lat="59.8939074" lon="17.6912439">
        <ele>29.4575</ele>
        <time>2014-06-15T13:50:51Z</time>
      </trkpt>
      <trkpt lat="59.8939159" lon="17.6911385">
        <ele>29.4575</ele>
        <time>2014-06-15T13:50:52Z</time>
      </trkpt>
      <trkpt lat="59.8939208" lon="17.6910321">
        <ele>29.9381</ele>
        <time>2014-06-15T13:50:53Z</time>
      </trkpt>
      <trkpt lat="59.893927" lon="17.690924">
        <ele>30.4188</ele>
        <time>2014-06-15T13:50:54Z</time>
      </trkpt>
      <trkpt lat="59.8939387" lon="17.6908236">
        <ele>30.4188</ele>
        <time>2014-06-15T13:50:55Z</time>
      </trkpt>
      <trkpt lat="59.8939553" lon="17.6907282">
        <ele>30.8995</ele>
        <time>2014-06-15T13:50:56Z</time>
      </trkpt>
      <trkpt lat="59.8939751" lon="17.6906303">
        <ele>31.8607</ele>
        <time>2014-06-15T13:50:57Z</time>
      </trkpt>
      <trkpt lat="59.8939928" lon="17.6905351">
        <ele>32.3416</ele>
        <time>2014-06-15T13:50:58Z</time>
      </trkpt>
      <trkpt lat="59.8940063" lon="17.6904381">
        <ele>32.3416</ele>
        <time>2014-06-15T13:50:59Z</time>
      </trkpt>
      <trkpt lat="59.8940203" lon="17.6903419">
        <ele>33.3029</ele>
        <time>2014-06-15T13:51:00Z</time>
      </trkpt>
      <trkpt lat="59.8940353" lon="17.6902499">
        <ele>33.3029</ele>
        <time>2014-06-15T13:51:01Z</time>
      </trkpt>
      <trkpt lat="59.8940506" lon="17.6901589">
        <ele>34.2642</ele>
        <time>2014-06-15T13:51:02Z</time>
      </trkpt>
      <trkpt lat="59.8940623" lon="17.6900631">
        <ele>34.7449</ele>
        <time>2014-06-15T13:51:03Z</time>
      </trkpt>
      <trkpt lat="59.8940724" lon="17.6899732">
        <ele>34.7449</ele>
        <time>2014-06-15T13:51:04Z</time>
      </trkpt>
      <trkpt lat="59.8940815" lon="17.6898821">
        <ele>34.2642</ele>
        <time>2014-06-15T13:51:05Z</time>
      </trkpt>
      <trkpt lat="59.8940938" lon="17.68979">
        <ele>34.2642</ele>
        <time>2014-06-15T13:51:06Z</time>
      </trkpt>
      <trkpt lat="59.8941073" lon="17.6896967">
        <ele>34.2642</ele>
        <time>2014-06-15T13:51:07Z</time>
      </trkpt>
      <trkpt lat="59.8941213" lon="17.6895995">
        <ele>34.2642</ele>
        <time>2014-06-15T13:51:08Z</time>
      </trkpt>
      <trkpt lat="59.8941352" lon="17.6894969">
        <ele>34.7449</ele>
        <time>2014-06-15T13:51:09Z</time>
      </trkpt>
      <trkpt lat="59.894147" lon="17.6893924">
        <ele>34.7449</ele>
        <time>2014-06-15T13:51:10Z</time>
      </trkpt>
      <trkpt lat="59.8941586" lon="17.6892861">
        <ele>34.7449</ele>
        <time>2014-06-15T13:51:11Z</time>
      </trkpt>
      <trkpt lat="59.8941706" lon="17.689181">
        <ele>34.2642</ele>
        <time>2014-06-15T13:51:12Z</time>
      </trkpt>
      <trkpt lat="59.8941813" lon="17.6890737">
        <ele>34.2642</ele>
        <time>2014-06-15T13:51:13Z</time>
      </trkpt>
      <trkpt lat="59.8941917" lon="17.6889644">
        <ele>34.2642</ele>
        <time>2014-06-15T13:51:14Z</time>
      </trkpt>
      <trkpt lat="59.8942041" lon="17.6888534">
        <ele>34.2642</ele>
        <time>2014-06-15T13:51:15Z</time>
      </trkpt>
      <trkpt lat="59.8942184" lon="17.6887401">
        <ele>33.7834</ele>
        <time>2014-06-15T13:51:16Z</time>
      </trkpt>
      <trkpt lat="59.8942321" lon="17.6886187">
        <ele>33.7834</ele>
        <time>2014-06-15T13:51:17Z</time>
      </trkpt>
      <trkpt lat="59.8942492" lon="17.6884971">
        <ele>33.7834</ele>
        <time>2014-06-15T13:51:18Z</time>
      </trkpt>
      <trkpt lat="59.894271" lon="17.6883785">
        <ele>33.3029</ele>
        <time>2014-06-15T13:51:19Z</time>
      </trkpt>
      <trkpt lat="59.8942965" lon="17.6882547">
        <ele>33.3029</ele>
        <time>2014-06-15T13:51:20Z</time>
      </trkpt>
      <trkpt lat="59.8943269" lon="17.6881382">
        <ele>32.8223</ele>
        <time>2014-06-15T13:51:21Z</time>
      </trkpt>
      <trkpt lat="59.894356" lon="17.6880164">
        <ele>32.3416</ele>
        <time>2014-06-15T13:51:22Z</time>
      </trkpt>
      <trkpt lat="59.8943859" lon="17.6878982">
        <ele>32.3416</ele>
        <time>2014-06-15T13:51:23Z</time>
      </trkpt>
      <trkpt lat="59.8944158" lon="17.6877841">
        <ele>32.3416</ele>
        <time>2014-06-15T13:51:24Z</time>
      </trkpt>
      <trkpt lat="59.894444" lon="17.6876702">
        <ele>31.8607</ele>
        <time>2014-06-15T13:51:25Z</time>
      </trkpt>
      <trkpt lat="59.8944704" lon="17.6875554">
        <ele>31.8607</ele>
        <time>2014-06-15T13:51:26Z</time>
      </trkpt>
      <trkpt lat="59.8944964" lon="17.687441">
        <ele>31.8607</ele>
        <time>2014-06-15T13:51:27Z</time>
      </trkpt>
      <trkpt lat="59.894521" lon="17.6873264">
        <ele>31.8607</ele>
        <time>2014-06-15T13:51:28Z</time>
      </trkpt>
      <trkpt lat="59.8945438" lon="17.6872094">
        <ele>31.8607</ele>
        <time>2014-06-15T13:51:29Z</time>
      </trkpt>
      <trkpt lat="59.8945665" lon="17.687091">
        <ele>31.8607</ele>
        <time>2014-06-15T13:51:30Z</time>
      </trkpt>
      <trkpt lat="59.8945895" lon="17.6869725">
        <ele>31.3801</ele>
        <time>2014-06-15T13:51:31Z</time>
      </trkpt>
      <trkpt lat="59.8946111" lon="17.68685">
        <ele>31.3801</ele>
        <time>2014-06-15T13:51:32Z</time>
      </trkpt>
      <trkpt lat="59.894632" lon="17.6867245">
        <ele>31.8607</ele>
        <time>2014-06-15T13:51:33Z</time>
      </trkpt>
      <trkpt lat="59.8946522" lon="17.6865967">
        <ele>31.8607</ele>
        <time>2014-06-15T13:51:34Z</time>
      </trkpt>
      <trkpt lat="59.8946707" lon="17.6864656">
        <ele>31.8607</ele>
        <time>2014-06-15T13:51:35Z</time>
      </trkpt>
      <trkpt lat="59.8946873" lon="17.6863313">
        <ele>31.8607</ele>
        <time>2014-06-15T13:51:36Z</time>
      </trkpt>
      <trkpt lat="59.8947026" lon="17.686196">
        <ele>31.8607</ele>
        <time>2014-06-15T13:51:37Z</time>
      </trkpt>
      <trkpt lat="59.8947165" lon="17.686059">
        <ele>32.3416</ele>
        <time>2014-06-15T13:51:38Z</time>
      </trkpt>
      <trkpt lat="59.8947287" lon="17.6859209">
        <ele>32.3416</ele>
        <time>2014-06-15T13:51:39Z</time>
      </trkpt>
      <trkpt lat="59.8947391" lon="17.6857823">
        <ele>32.8223</ele>
        <time>2014-06-15T13:51:40Z</time>
      </trkpt>
      <trkpt lat="59.8947476" lon="17.6856454">
        <ele>32.8223</ele>
        <time>2014-06-15T13:51:41Z</time>
      </trkpt>
      <trkpt lat="59.8947548" lon="17.6855117">
        <ele>32.8223</ele>
        <time>2014-06-15T13:51:42Z</time>
      </trkpt>
      <trkpt lat="59.8947625" lon="17.685383">
        <ele>33.3029</ele>
        <time>2014-06-15T13:51:43Z</time>
      </trkpt>
      <trkpt lat="59.8947708" lon="17.6852628">
        <ele>32.8223</ele>
        <time>2014-06-15T13:51:44Z</time>
      </trkpt>
      <trkpt lat="59.8947802" lon="17.6851434">
        <ele>32.3416</ele>
        <time>2014-06-15T13:51:45Z</time>
      </trkpt>
      <trkpt lat="59.8947852" lon="17.6850133">
        <ele>32.3416</ele>
        <time>2014-06-15T13:51:46Z</time>
      </trkpt>
      <trkpt lat="59.8947926" lon="17.6848917">
        <ele>31.8607</ele>
        <time>2014-06-15T13:51:47Z</time>
      </trkpt>
      <trkpt lat="59.8948005" lon="17.6847669">
        <ele>31.8607</ele>
        <time>2014-06-15T13:51:48Z</time>
      </trkpt>
      <trkpt lat="59.8948113" lon="17.6846486">
        <ele>31.8607</ele>
        <time>2014-06-15T13:51:49Z</time>
      </trkpt>
      <trkpt lat="59.8948214" lon="17.6845313">
        <ele>31.8607</ele>
        <time>2014-06-15T13:51:50Z</time>
      </trkpt>
      <trkpt lat="59.8948305" lon="17.6844178">
        <ele>32.3416</ele>
        <time>2014-06-15T13:51:51Z</time>
      </trkpt>
      <trkpt lat="59.8948408" lon="17.6843106">
        <ele>32.3416</ele>
        <time>2014-06-15T13:51:52Z</time>
      </trkpt>
      <trkpt lat="59.894849" lon="17.6842068">
        <ele>32.3416</ele>
        <time>2014-06-15T13:51:53Z</time>
      </trkpt>
      <trkpt lat="59.8948598" lon="17.684104">
        <ele>32.3416</ele>
        <time>2014-06-15T13:51:54Z</time>
      </trkpt>
      <trkpt lat="59.8948563" lon="17.683938">
        <ele>32.3416</ele>
        <time>2014-06-15T13:51:55Z</time>
      </trkpt>
      <trkpt lat="59.8948775" lon="17.6838445">
        <ele>31.8607</ele>
        <time>2014-06-15T13:51:56Z</time>
      </trkpt>
      <trkpt lat="59.8948979" lon="17.6837257">
        <ele>31.8607</ele>
        <time>2014-06-15T13:51:57Z</time>
      </trkpt>
      <trkpt lat="59.8949304" lon="17.6836154">
        <ele>31.3801</ele>
        <time>2014-06-15T13:51:58Z</time>
      </trkpt>
      <trkpt lat="59.8949698" lon="17.6835104">
        <ele>30.8995</ele>
        <time>2014-06-15T13:51:59Z</time>
      </trkpt>
      <trkpt lat="59.8950151" lon="17.6834215">
        <ele>30.4188</ele>
        <time>2014-06-15T13:52:00Z</time>
      </trkpt>
      <trkpt lat="59.8950652" lon="17.6833517">
        <ele>30.4188</ele>
        <time>2014-06-15T13:52:01Z</time>
      </trkpt>
      <trkpt lat="59.8951138" lon="17.6832901">
        <ele>29.9381</ele>
        <time>2014-06-15T13:52:02Z</time>
      </trkpt>
      <trkpt lat="59.895165" lon="17.6832345">
        <ele>30.4188</ele>
        <time>2014-06-15T13:52:03Z</time>
      </trkpt>
      <trkpt lat="59.8952161" lon="17.6831812">
        <ele>30.8995</ele>
        <time>2014-06-15T13:52:04Z</time>
      </trkpt>
      <trkpt lat="59.8952664" lon="17.6831278">
        <ele>30.8995</ele>
        <time>2014-06-15T13:52:05Z</time>
      </trkpt>
      <trkpt lat="59.8953157" lon="17.683073">
        <ele>31.3801</ele>
        <time>2014-06-15T13:52:06Z</time>
      </trkpt>
      <trkpt lat="59.8953635" lon="17.6830156">
        <ele>31.3801</ele>
        <time>2014-06-15T13:52:07Z</time>
      </trkpt>
      <trkpt lat="59.8954091" lon="17.682957">
        <ele>31.8607</ele>
        <time>2014-06-15T13:52:08Z</time>
      </trkpt>
      <trkpt lat="59.8954536" lon="17.6829005">
        <ele>31.8607</ele>
        <time>2014-06-15T13:52:09Z</time>
      </trkpt>
      <trkpt lat="59.8955" lon="17.6828463">
        <ele>31.8607</ele>
        <time>2014-06-15T13:52:10Z</time>
      </trkpt>
      <trkpt lat="59.8955469" lon="17.682799">
        <ele>31.3801</ele>
        <time>2014-06-15T13:52:11Z</time>
      </trkpt>
      <trkpt lat="59.8955945" lon="17.6827545">
        <ele>31.3801</ele>
        <time>2014-06-15T13:52:12Z</time>
      </trkpt>
      <trkpt lat="59.8956422" lon="17.6827152">
        <ele>31.3801</ele>
        <time>2014-06-15T13:52:13Z</time>
      </trkpt>
      <trkpt lat="59.8956913" lon="17.6826835">
        <ele>31.8607</ele>
        <time>2014-06-15T13:52:14Z</time>
      </trkpt>
      <trkpt lat="59.8957378" lon="17.6826582">
        <ele>31.8607</ele>
        <time>2014-06-15T13:52:15Z</time>
      </trkpt>
      <trkpt lat="59.8957856" lon="17.6826338">
        <ele>31.8607</ele>
        <time>2014-06-15T13:52:16Z</time>
      </trkpt>
      <trkpt lat="59.8958322" lon="17.6826075">
        <ele>32.3416</ele>
        <time>2014-06-15T13:52:17Z</time>
      </trkpt>
      <trkpt lat="59.8958779" lon="17.6825773">
        <ele>32.3416</ele>
        <time>2014-06-15T13:52:18Z</time>
      </trkpt>
      <trkpt lat="59.8959235" lon="17.6825401">
        <ele>32.3416</ele>
        <time>2014-06-15T13:52:19Z</time>
      </trkpt>
      <trkpt lat="59.8959715" lon="17.6824951">
        <ele>32.3416</ele>
        <time>2014-06-15T13:52:20Z</time>
      </trkpt>
      <trkpt lat="59.8960223" lon="17.6824488">
        <ele>32.3416</ele>
        <time>2014-06-15T13:52:21Z</time>
      </trkpt>
      <trkpt lat="59.8960742" lon="17.6823997">
        <ele>32.3416</ele>
        <time>2014-06-15T13:52:22Z</time>
      </trkpt>
      <trkpt lat="59.896128" lon="17.6823468">
        <ele>32.3416</ele>
        <time>2014-06-15T13:52:23Z</time>
      </trkpt>
      <trkpt lat="59.8961819" lon="17.6822908">
        <ele>31.8607</ele>
        <time>2014-06-15T13:52:24Z</time>
      </trkpt>
      <trkpt lat="59.8962361" lon="17.6822323">
        <ele>31.8607</ele>
        <time>2014-06-15T13:52:25Z</time>
      </trkpt>
      <trkpt lat="59.8962928" lon="17.6821753">
        <ele>31.8607</ele>
        <time>2014-06-15T13:52:26Z</time>
      </trkpt>
      <trkpt lat="59.8963495" lon="17.6821143">
        <ele>31.8607</ele>
        <time>2014-06-15T13:52:27Z</time>
      </trkpt>
      <trkpt lat="59.8964052" lon="17.6820498">
        <ele>31.3801</ele>
        <time>2014-06-15T13:52:28Z</time>
      </trkpt>
      <trkpt lat="59.8964606" lon="17.6819847">
        <ele>31.3801</ele>
        <time>2014-06-15T13:52:29Z</time>
      </trkpt>
      <trkpt lat="59.8965151" lon="17.6819183">
        <ele>30.8995</ele>
        <time>2014-06-15T13:52:30Z</time>
      </trkpt>
      <trkpt lat="59.8965683" lon="17.6818515">
        <ele>30.8995</ele>
        <time>2014-06-15T13:52:31Z</time>
      </trkpt>
      <trkpt lat="59.8966205" lon="17.6817889">
        <ele>30.8995</ele>
        <time>2014-06-15T13:52:32Z</time>
      </trkpt>
      <trkpt lat="59.8966704" lon="17.6817239">
        <ele>30.8995</ele>
        <time>2014-06-15T13:52:33Z</time>
      </trkpt>
      <trkpt lat="59.8967191" lon="17.6816566">
        <ele>30.8995</ele>
        <time>2014-06-15T13:52:34Z</time>
      </trkpt>
      <trkpt lat="59.896767" lon="17.6815856">
        <ele>30.4188</ele>
        <time>2014-06-15T13:52:35Z</time>
      </trkpt>
      <trkpt lat="59.8968135" lon="17.6815088">
        <ele>30.4188</ele>
        <time>2014-06-15T13:52:36Z</time>
      </trkpt>
      <trkpt lat="59.8968585" lon="17.6814247">
        <ele>30.4188</ele>
        <time>2014-06-15T13:52:37Z</time>
      </trkpt>
      <trkpt lat="59.8969029" lon="17.6813381">
        <ele>30.4188</ele>
        <time>2014-06-15T13:52:38Z</time>
      </trkpt>
      <trkpt lat="59.8969463" lon="17.6812508">
        <ele>30.4188</ele>
        <time>2014-06-15T13:52:39Z</time>
      </trkpt>
      <trkpt lat="59.8969882" lon="17.6811647">
        <ele>30.4188</ele>
        <time>2014-06-15T13:52:40Z</time>
      </trkpt>
      <trkpt lat="59.8970289" lon="17.6810787">
        <ele>30.8995</ele>
        <time>2014-06-15T13:52:41Z</time>
      </trkpt>
      <trkpt lat="59.8970688" lon="17.6809922">
        <ele>30.8995</ele>
        <time>2014-06-15T13:52:42Z</time>
      </trkpt>
      <trkpt lat="59.8971082" lon="17.6809041">
        <ele>30.8995</ele>
        <time>2014-06-15T13:52:43Z</time>
      </trkpt>
      <trkpt lat="59.8971457" lon="17.6808117">
        <ele>30.8995</ele>
        <time>2014-06-15T13:52:44Z</time>
      </trkpt>
      <trkpt lat="59.8971817" lon="17.6807161">
        <ele>30.8995</ele>
        <time>2014-06-15T13:52:45Z</time>
      </trkpt>
      <trkpt lat="59.8972182" lon="17.6806196">
        <ele>30.8995</ele>
        <time>2014-06-15T13:52:46Z</time>
      </trkpt>
      <trkpt lat="59.897255" lon="17.6805229">
        <ele>30.8995</ele>
        <time>2014-06-15T13:52:47Z</time>
      </trkpt>
      <trkpt lat="59.897292" lon="17.6804261">
        <ele>30.8995</ele>
        <time>2014-06-15T13:52:48Z</time>
      </trkpt>
      <trkpt lat="59.8973291" lon="17.6803282">
        <ele>31.3801</ele>
        <time>2014-06-15T13:52:49Z</time>
      </trkpt>
      <trkpt lat="59.8973665" lon="17.68023">
        <ele>31.3801</ele>
        <time>2014-06-15T13:52:50Z</time>
      </trkpt>
      <trkpt lat="59.8974044" lon="17.6801316">
        <ele>31.3801</ele>
        <time>2014-06-15T13:52:51Z</time>
      </trkpt>
      <trkpt lat="59.8974425" lon="17.6800314">
        <ele>31.3801</ele>
        <time>2014-06-15T13:52:52Z</time>
      </trkpt>
      <trkpt lat="59.8974811" lon="17.6799319">
        <ele>31.3801</ele>
        <time>2014-06-15T13:52:53Z</time>
      </trkpt>
      <trkpt lat="59.8975184" lon="17.6798348">
        <ele>31.8607</ele>
        <time>2014-06-15T13:52:54Z</time>
      </trkpt>
      <trkpt lat="59.8975536" lon="17.6797403">
        <ele>31.8607</ele>
        <time>2014-06-15T13:52:55Z</time>
      </trkpt>
      <trkpt lat="59.8975882" lon="17.6796496">
        <ele>31.8607</ele>
        <time>2014-06-15T13:52:56Z</time>
      </trkpt>
      <trkpt lat="59.8976216" lon="17.679562">
        <ele>31.8607</ele>
        <time>2014-06-15T13:52:57Z</time>
      </trkpt>
      <trkpt lat="59.8976546" lon="17.6794768">
        <ele>31.8607</ele>
        <time>2014-06-15T13:52:58Z</time>
      </trkpt>
      <trkpt lat="59.8976874" lon="17.6793932">
        <ele>31.8607</ele>
        <time>2014-06-15T13:52:59Z</time>
      </trkpt>
      <trkpt lat="59.8977198" lon="17.679309">
        <ele>31.8607</ele>
        <time>2014-06-15T13:53:00Z</time>
      </trkpt>
      <trkpt lat="59.8977519" lon="17.6792232">
        <ele>31.8607</ele>
        <time>2014-06-15T13:53:01Z</time>
      </trkpt>
      <trkpt lat="59.8977841" lon="17.6791357">
        <ele>32.3416</ele>
        <time>2014-06-15T13:53:02Z</time>
      </trkpt>
      <trkpt lat="59.8978169" lon="17.6790476">
        <ele>32.3416</ele>
        <time>2014-06-15T13:53:03Z</time>
      </trkpt>
      <trkpt lat="59.8978509" lon="17.67896">
        <ele>32.3416</ele>
        <time>2014-06-15T13:53:04Z</time>
      </trkpt>
      <trkpt lat="59.897885" lon="17.6788723">
        <ele>32.3416</ele>
        <time>2014-06-15T13:53:05Z</time>
      </trkpt>
      <trkpt lat="59.8979189" lon="17.6787824">
        <ele>32.3416</ele>
        <time>2014-06-15T13:53:06Z</time>
      </trkpt>
      <trkpt lat="59.897953" lon="17.6786926">
        <ele>32.3416</ele>
        <time>2014-06-15T13:53:07Z</time>
      </trkpt>
      <trkpt lat="59.8979868" lon="17.6786016">
        <ele>32.3416</ele>
        <time>2014-06-15T13:53:08Z</time>
      </trkpt>
      <trkpt lat="59.8980198" lon="17.6785112">
        <ele>32.3416</ele>
        <time>2014-06-15T13:53:09Z</time>
      </trkpt>
      <trkpt lat="59.8980509" lon="17.6784177">
        <ele>32.3416</ele>
        <time>2014-06-15T13:53:10Z</time>
      </trkpt>
      <trkpt lat="59.898081" lon="17.6783219">
        <ele>32.3416</ele>
        <time>2014-06-15T13:53:11Z</time>
      </trkpt>
      <trkpt lat="59.898111" lon="17.6782245">
        <ele>32.3416</ele>
        <time>2014-06-15T13:53:12Z</time>
      </trkpt>
      <trkpt lat="59.8981394" lon="17.6781231">
        <ele>32.3416</ele>
        <time>2014-06-15T13:53:13Z</time>
      </trkpt>
      <trkpt lat="59.8981655" lon="17.6780173">
        <ele>32.3416</ele>
        <time>2014-06-15T13:53:14Z</time>
      </trkpt>
      <trkpt lat="59.8981908" lon="17.677909">
        <ele>32.3416</ele>
        <time>2014-06-15T13:53:15Z</time>
      </trkpt>
      <trkpt lat="59.8982156" lon="17.6777993">
        <ele>32.8223</ele>
        <time>2014-06-15T13:53:16Z</time>
      </trkpt>
      <trkpt lat="59.8982389" lon="17.6776883">
        <ele>32.8223</ele>
        <time>2014-06-15T13:53:17Z</time>
      </trkpt>
      <trkpt lat="59.8982597" lon="17.6775755">
        <ele>32.8223</ele>
        <time>2014-06-15T13:53:18Z</time>
      </trkpt>
      <trkpt lat="59.8982788" lon="17.6774625">
        <ele>32.8223</ele>
        <time>2014-06-15T13:53:19Z</time>
      </trkpt>
      <trkpt lat="59.8982969" lon="17.6773493">
        <ele>32.8223</ele>
        <time>2014-06-15T13:53:20Z</time>
      </trkpt>
      <trkpt lat="59.8983135" lon="17.6772369">
        <ele>32.8223</ele>
        <time>2014-06-15T13:53:21Z</time>
      </trkpt>
      <trkpt lat="59.8983289" lon="17.6771241">
        <ele>33.3029</ele>
        <time>2014-06-15T13:53:22Z</time>
      </trkpt>
      <trkpt lat="59.898343" lon="17.6770109">
        <ele>33.3029</ele>
        <time>2014-06-15T13:53:23Z</time>
      </trkpt>
      <trkpt lat="59.8983555" lon="17.6768987">
        <ele>33.3029</ele>
        <time>2014-06-15T13:53:24Z</time>
      </trkpt>
      <trkpt lat="59.8983669" lon="17.676789">
        <ele>33.7834</ele>
        <time>2014-06-15T13:53:25Z</time>
      </trkpt>
      <trkpt lat="59.8983775" lon="17.6766832">
        <ele>33.7834</ele>
        <time>2014-06-15T13:53:26Z</time>
      </trkpt>
      <trkpt lat="59.8983855" lon="17.6765793">
        <ele>34.2642</ele>
        <time>2014-06-15T13:53:27Z</time>
      </trkpt>
      <trkpt lat="59.8983926" lon="17.6764772">
        <ele>34.2642</ele>
        <time>2014-06-15T13:53:28Z</time>
      </trkpt>
      <trkpt lat="59.8983995" lon="17.6763782">
        <ele>34.7449</ele>
        <time>2014-06-15T13:53:29Z</time>
      </trkpt>
      <trkpt lat="59.8984062" lon="17.6762833">
        <ele>34.7449</ele>
        <time>2014-06-15T13:53:30Z</time>
      </trkpt>
      <trkpt lat="59.898413" lon="17.6761916">
        <ele>34.7449</ele>
        <time>2014-06-15T13:53:31Z</time>
      </trkpt>
      <trkpt lat="59.898419" lon="17.6761009">
        <ele>34.7449</ele>
        <time>2014-06-15T13:53:32Z</time>
      </trkpt>
      <trkpt lat="59.8984243" lon="17.6760125">
        <ele>35.2255</ele>
        <time>2014-06-15T13:53:33Z</time>
      </trkpt>
      <trkpt lat="59.8984276" lon="17.675925">
        <ele>35.2255</ele>
        <time>2014-06-15T13:53:34Z</time>
      </trkpt>
      <trkpt lat="59.898429" lon="17.6758364">
        <ele>35.2255</ele>
        <time>2014-06-15T13:53:35Z</time>
      </trkpt>
      <trkpt lat="59.8984295" lon="17.6757479">
        <ele>35.7061</ele>
        <time>2014-06-15T13:53:36Z</time>
      </trkpt>
      <trkpt lat="59.8984316" lon="17.6756654">
        <ele>35.7061</ele>
        <time>2014-06-15T13:53:37Z</time>
      </trkpt>
      <trkpt lat="59.8984352" lon="17.6755842">
        <ele>36.1868</ele>
        <time>2014-06-15T13:53:38Z</time>
      </trkpt>
      <trkpt lat="59.898442" lon="17.6755075">
        <ele>36.1868</ele>
        <time>2014-06-15T13:53:39Z</time>
      </trkpt>
      <trkpt lat="59.8984517" lon="17.6754312">
        <ele>36.1868</ele>
        <time>2014-06-15T13:53:40Z</time>
      </trkpt>
      <trkpt lat="59.8984635" lon="17.675352">
        <ele>36.1868</ele>
        <time>2014-06-15T13:53:41Z</time>
      </trkpt>
      <trkpt lat="59.8984752" lon="17.6752654">
        <ele>36.1868</ele>
        <time>2014-06-15T13:53:42Z</time>
      </trkpt>
      <trkpt lat="59.8984926" lon="17.6751808">
        <ele>36.1868</ele>
        <time>2014-06-15T13:53:43Z</time>
      </trkpt>
      <trkpt lat="59.8985151" lon="17.6750994">
        <ele>36.1868</ele>
        <time>2014-06-15T13:53:44Z</time>
      </trkpt>
      <trkpt lat="59.8985421" lon="17.6750216">
        <ele>36.1868</ele>
        <time>2014-06-15T13:53:45Z</time>
      </trkpt>
      <trkpt lat="59.8985721" lon="17.6749476">
        <ele>36.1868</ele>
        <time>2014-06-15T13:53:46Z</time>
      </trkpt>
      <trkpt lat="59.8986037" lon="17.6748786">
        <ele>36.1868</ele>
        <time>2014-06-15T13:53:47Z</time>
      </trkpt>
      <trkpt lat="59.8986402" lon="17.6748191">
        <ele>36.1868</ele>
        <time>2014-06-15T13:53:48Z</time>
      </trkpt>
      <trkpt lat="59.8986787" lon="17.6747672">
        <ele>36.1868</ele>
        <time>2014-06-15T13:53:49Z</time>
      </trkpt>
      <trkpt lat="59.8987174" lon="17.6747103">
        <ele>36.1868</ele>
        <time>2014-06-15T13:53:50Z</time>
      </trkpt>
      <trkpt lat="59.8987522" lon="17.6746589">
        <ele>35.7061</ele>
        <time>2014-06-15T13:53:51Z</time>
      </trkpt>
      <trkpt lat="59.8987888" lon="17.6746163">
        <ele>36.1868</ele>
        <time>2014-06-15T13:53:52Z</time>
      </trkpt>
      <trkpt lat="59.8988239" lon="17.6745725">
        <ele>36.1868</ele>
        <time>2014-06-15T13:53:53Z</time>
      </trkpt>
      <trkpt lat="59.898858" lon="17.6745286">
        <ele>36.1868</ele>
        <time>2014-06-15T13:53:54Z</time>
      </trkpt>
      <trkpt lat="59.8988947" lon="17.6744789">
        <ele>36.6675</ele>
        <time>2014-06-15T13:53:55Z</time>
      </trkpt>
      <trkpt lat="59.8989319" lon="17.6744316">
        <ele>36.6675</ele>
        <time>2014-06-15T13:53:56Z</time>
      </trkpt>
      <trkpt lat="59.8989689" lon="17.6743771">
        <ele>36.6675</ele>
        <time>2014-06-15T13:53:57Z</time>
      </trkpt>
      <trkpt lat="59.8990047" lon="17.6743162">
        <ele>36.1868</ele>
        <time>2014-06-15T13:53:58Z</time>
      </trkpt>
      <trkpt lat="59.8990378" lon="17.6742467">
        <ele>36.1868</ele>
        <time>2014-06-15T13:53:59Z</time>
      </trkpt>
      <trkpt lat="59.8990675" lon="17.6741643">
        <ele>36.1868</ele>
        <time>2014-06-15T13:54:00Z</time>
      </trkpt>
      <trkpt lat="59.8990916" lon="17.6740735">
        <ele>36.6675</ele>
        <time>2014-06-15T13:54:01Z</time>
      </trkpt>
      <trkpt lat="59.8991065" lon="17.6739671">
        <ele>37.1481</ele>
        <time>2014-06-15T13:54:02Z</time>
      </trkpt>
      <trkpt lat="59.8991107" lon="17.6738484">
        <ele>37.1481</ele>
        <time>2014-06-15T13:54:03Z</time>
      </trkpt>
      <trkpt lat="59.8991101" lon="17.6737287">
        <ele>37.6287</ele>
        <time>2014-06-15T13:54:04Z</time>
      </trkpt>
      <trkpt lat="59.899111" lon="17.6736176">
        <ele>38.1094</ele>
        <time>2014-06-15T13:54:05Z</time>
      </trkpt>
      <trkpt lat="59.8991128" lon="17.6735162">
        <ele>38.5901</ele>
        <time>2014-06-15T13:54:06Z</time>
      </trkpt>
      <trkpt lat="59.8991144" lon="17.6734233">
        <ele>39.0707</ele>
        <time>2014-06-15T13:54:07Z</time>
      </trkpt>
      <trkpt lat="59.8991138" lon="17.6733317">
        <ele>39.5513</ele>
        <time>2014-06-15T13:54:08Z</time>
      </trkpt>
      <trkpt lat="59.8991154" lon="17.6732483">
        <ele>40.0321</ele>
        <time>2014-06-15T13:54:09Z</time>
      </trkpt>
      <trkpt lat="59.8991179" lon="17.6731621">
        <ele>40.5128</ele>
        <time>2014-06-15T13:54:10Z</time>
      </trkpt>
      <trkpt lat="59.8991281" lon="17.6730827">
        <ele>40.5128</ele>
        <time>2014-06-15T13:54:11Z</time>
      </trkpt>
      <trkpt lat="59.8991434" lon="17.672997">
        <ele>40.9934</ele>
        <time>2014-06-15T13:54:12Z</time>
      </trkpt>
      <trkpt lat="59.8991605" lon="17.6729039">
        <ele>40.9934</ele>
        <time>2014-06-15T13:54:13Z</time>
      </trkpt>
      <trkpt lat="59.8991812" lon="17.6728055">
        <ele>40.9934</ele>
        <time>2014-06-15T13:54:14Z</time>
      </trkpt>
      <trkpt lat="59.8992076" lon="17.6727107">
        <ele>41.474</ele>
        <time>2014-06-15T13:54:15Z</time>
      </trkpt>
      <trkpt lat="59.8992325" lon="17.6726165">
        <ele>41.474</ele>
        <time>2014-06-15T13:54:16Z</time>
      </trkpt>
      <trkpt lat="59.8992563" lon="17.672523">
        <ele>40.9934</ele>
        <time>2014-06-15T13:54:17Z</time>
      </trkpt>
      <trkpt lat="59.8992781" lon="17.672431">
        <ele>41.474</ele>
        <time>2014-06-15T13:54:18Z</time>
      </trkpt>
      <trkpt lat="59.8993044" lon="17.6723407">
        <ele>41.474</ele>
        <time>2014-06-15T13:54:19Z</time>
      </trkpt>
      <trkpt lat="59.8993312" lon="17.6722491">
        <ele>41.474</ele>
        <time>2014-06-15T13:54:20Z</time>
      </trkpt>
      <trkpt lat="59.8993564" lon="17.6721539">
        <ele>40.9934</ele>
        <time>2014-06-15T13:54:21Z</time>
      </trkpt>
      <trkpt lat="59.8993685" lon="17.6720528">
        <ele>40.5128</ele>
        <time>2014-06-15T13:54:22Z</time>
      </trkpt>
      <trkpt lat="59.8993677" lon="17.6719418">
        <ele>39.5513</ele>
        <time>2014-06-15T13:54:23Z</time>
      </trkpt>
      <trkpt lat="59.8993621" lon="17.6718166">
        <ele>39.5513</ele>
        <time>2014-06-15T13:54:24Z</time>
      </trkpt>
      <trkpt lat="59.8993553" lon="17.6716887">
        <ele>39.5513</ele>
        <time>2014-06-15T13:54:25Z</time>
      </trkpt>
      <trkpt lat="59.8993348" lon="17.6715498">
        <ele>39.0707</ele>
        <time>2014-06-15T13:54:26Z</time>
      </trkpt>
      <trkpt lat="59.8993159" lon="17.6714098">
        <ele>39.5513</ele>
        <time>2014-06-15T13:54:27Z</time>
      </trkpt>
      <trkpt lat="59.8993053" lon="17.671285">
        <ele>39.5513</ele>
        <time>2014-06-15T13:54:28Z</time>
      </trkpt>
      <trkpt lat="59.8993046" lon="17.671164">
        <ele>40.5128</ele>
        <time>2014-06-15T13:54:29Z</time>
      </trkpt>
      <trkpt lat="59.8992958" lon="17.6710372">
        <ele>40.0321</ele>
        <time>2014-06-15T13:54:30Z</time>
      </trkpt>
      <trkpt lat="59.8992956" lon="17.6709237">
        <ele>40.5128</ele>
        <time>2014-06-15T13:54:31Z</time>
      </trkpt>
      <trkpt lat="59.8992971" lon="17.6708154">
        <ele>40.0321</ele>
        <time>2014-06-15T13:54:32Z</time>
      </trkpt>
      <trkpt lat="59.8993097" lon="17.6707043">
        <ele>39.5513</ele>
        <time>2014-06-15T13:54:33Z</time>
      </trkpt>
      <trkpt lat="59.8993284" lon="17.6706083">
        <ele>39.0707</ele>
        <time>2014-06-15T13:54:34Z</time>
      </trkpt>
      <trkpt lat="59.8993511" lon="17.6705118">
        <ele>39.0707</ele>
        <time>2014-06-15T13:54:35Z</time>
      </trkpt>
      <trkpt lat="59.8993799" lon="17.6704227">
        <ele>39.0707</ele>
        <time>2014-06-15T13:54:36Z</time>
      </trkpt>
      <trkpt lat="59.8994121" lon="17.6703335">
        <ele>38.5901</ele>
        <time>2014-06-15T13:54:37Z</time>
      </trkpt>
      <trkpt lat="59.8994613" lon="17.6702834">
        <ele>38.5901</ele>
        <time>2014-06-15T13:54:38Z</time>
      </trkpt>
      <trkpt lat="59.8995144" lon="17.6702461">
        <ele>38.5901</ele>
        <time>2014-06-15T13:54:39Z</time>
      </trkpt>
      <trkpt lat="59.8995674" lon="17.6702139">
        <ele>38.5901</ele>
        <time>2014-06-15T13:54:40Z</time>
      </trkpt>
      <trkpt lat="59.8996185" lon="17.6701843">
        <ele>38.1094</ele>
        <time>2014-06-15T13:54:41Z</time>
      </trkpt>
      <trkpt lat="59.8996687" lon="17.6701554">
        <ele>37.6287</ele>
        <time>2014-06-15T13:54:42Z</time>
      </trkpt>
      <trkpt lat="59.8997218" lon="17.6701307">
        <ele>37.6287</ele>
        <time>2014-06-15T13:54:43Z</time>
      </trkpt>
      <trkpt lat="59.8997747" lon="17.6701047">
        <ele>38.1094</ele>
        <time>2014-06-15T13:54:44Z</time>
      </trkpt>
      <trkpt lat="59.8998275" lon="17.6700782">
        <ele>38.1094</ele>
        <time>2014-06-15T13:54:45Z</time>
      </trkpt>
      <trkpt lat="59.8998784" lon="17.6700545">
        <ele>37.6287</ele>
        <time>2014-06-15T13:54:46Z</time>
      </trkpt>
      <trkpt lat="59.8999333" lon="17.6700299">
        <ele>38.1094</ele>
        <time>2014-06-15T13:54:47Z</time>
      </trkpt>
      <trkpt lat="59.8999886" lon="17.6700052">
        <ele>37.6287</ele>
        <time>2014-06-15T13:54:48Z</time>
      </trkpt>
      <trkpt lat="59.9000481" lon="17.6699823">
        <ele>37.6287</ele>
        <time>2014-06-15T13:54:49Z</time>
      </trkpt>
      <trkpt lat="59.900109" lon="17.669954">
        <ele>37.1481</ele>
        <time>2014-06-15T13:54:50Z</time>
      </trkpt>
      <trkpt lat="59.9001742" lon="17.6699247">
        <ele>36.6675</ele>
        <time>2014-06-15T13:54:51Z</time>
      </trkpt>
      <trkpt lat="59.900245" lon="17.6698968">
        <ele>36.1868</ele>
        <time>2014-06-15T13:54:52Z</time>
      </trkpt>
      <trkpt lat="59.9003208" lon="17.6698705">
        <ele>36.1868</ele>
        <time>2014-06-15T13:54:53Z</time>
      </trkpt>
      <trkpt lat="59.9004016" lon="17.6698431">
        <ele>36.1868</ele>
        <time>2014-06-15T13:54:54Z</time>
      </trkpt>
      <trkpt lat="59.9004819" lon="17.6698162">
        <ele>36.6675</ele>
        <time>2014-06-15T13:54:55Z</time>
      </trkpt>
      <trkpt lat="59.9005607" lon="17.6697888">
        <ele>37.1481</ele>
        <time>2014-06-15T13:54:56Z</time>
      </trkpt>
      <trkpt lat="59.9006366" lon="17.669768">
        <ele>37.1481</ele>
        <time>2014-06-15T13:54:57Z</time>
      </trkpt>
      <trkpt lat="59.9007124" lon="17.6697564">
        <ele>37.6287</ele>
        <time>2014-06-15T13:54:58Z</time>
      </trkpt>
      <trkpt lat="59.900783" lon="17.6697406">
        <ele>38.1094</ele>
        <time>2014-06-15T13:54:59Z</time>
      </trkpt>
      <trkpt lat="59.9008491" lon="17.6697208">
        <ele>38.5901</ele>
        <time>2014-06-15T13:55:00Z</time>
      </trkpt>
      <trkpt lat="59.9009155" lon="17.6697032">
        <ele>38.5901</ele>
        <time>2014-06-15T13:55:01Z</time>
      </trkpt>
      <trkpt lat="59.900986" lon="17.6696912">
        <ele>38.5901</ele>
        <time>2014-06-15T13:55:02Z</time>
      </trkpt>
      <trkpt lat="59.9010642" lon="17.6696773">
        <ele>39.0707</ele>
        <time>2014-06-15T13:55:03Z</time>
      </trkpt>
      <trkpt lat="59.9011424" lon="17.6696551">
        <ele>39.0707</ele>
        <time>2014-06-15T13:55:04Z</time>
      </trkpt>
      <trkpt lat="59.901224" lon="17.6696297">
        <ele>39.0707</ele>
        <time>2014-06-15T13:55:05Z</time>
      </trkpt>
      <trkpt lat="59.9013076" lon="17.6696111">
        <ele>38.5901</ele>
        <time>2014-06-15T13:55:06Z</time>
      </trkpt>
      <trkpt lat="59.9013884" lon="17.6696011">
        <ele>38.1094</ele>
        <time>2014-06-15T13:55:07Z</time>
      </trkpt>
      <trkpt lat="59.9014664" lon="17.6695989">
        <ele>37.6287</ele>
        <time>2014-06-15T13:55:08Z</time>
      </trkpt>
      <trkpt lat="59.9015452" lon="17.6696011">
        <ele>37.6287</ele>
        <time>2014-06-15T13:55:09Z</time>
      </trkpt>
      <trkpt lat="59.9016173" lon="17.6696168">
        <ele>37.6287</ele>
        <time>2014-06-15T13:55:10Z</time>
      </trkpt>
      <trkpt lat="59.9016852" lon="17.6696451">
        <ele>37.6287</ele>
        <time>2014-06-15T13:55:11Z</time>
      </trkpt>
      <trkpt lat="59.9017468" lon="17.6696828">
        <ele>37.6287</ele>
        <time>2014-06-15T13:55:12Z</time>
      </trkpt>
      <trkpt lat="59.901808" lon="17.6697253">
        <ele>37.6287</ele>
        <time>2014-06-15T13:55:13Z</time>
      </trkpt>
      <trkpt lat="59.9018661" lon="17.669767">
        <ele>38.1094</ele>
        <time>2014-06-15T13:55:14Z</time>
      </trkpt>
      <trkpt lat="59.9019229" lon="17.6698167">
        <ele>38.5901</ele>
        <time>2014-06-15T13:55:15Z</time>
      </trkpt>
      <trkpt lat="59.901985" lon="17.6698642">
        <ele>38.1094</ele>
        <time>2014-06-15T13:55:16Z</time>
      </trkpt>
      <trkpt lat="59.9020508" lon="17.6699109">
        <ele>38.1094</ele>
        <time>2014-06-15T13:55:17Z</time>
      </trkpt>
      <trkpt lat="59.9021188" lon="17.669952">
        <ele>38.1094</ele>
        <time>2014-06-15T13:55:18Z</time>
      </trkpt>
      <trkpt lat="59.9021873" lon="17.6699835">
        <ele>38.1094</ele>
        <time>2014-06-15T13:55:19Z</time>
      </trkpt>
      <trkpt lat="59.9022546" lon="17.6700021">
        <ele>37.6287</ele>
        <time>2014-06-15T13:55:20Z</time>
      </trkpt>
      <trkpt lat="59.9023224" lon="17.6700089">
        <ele>37.6287</ele>
        <time>2014-06-15T13:55:21Z</time>
      </trkpt>
      <trkpt lat="59.9023877" lon="17.6700089">
        <ele>37.1481</ele>
        <time>2014-06-15T13:55:22Z</time>
      </trkpt>
      <trkpt lat="59.9024518" lon="17.6700005">
        <ele>37.1481</ele>
        <time>2014-06-15T13:55:23Z</time>
      </trkpt>
      <trkpt lat="59.9025135" lon="17.6699844">
        <ele>37.1481</ele>
        <time>2014-06-15T13:55:24Z</time>
      </trkpt>
      <trkpt lat="59.902571" lon="17.6699613">
        <ele>37.6287</ele>
        <time>2014-06-15T13:55:25Z</time>
      </trkpt>
      <trkpt lat="59.9026237" lon="17.6699327">
        <ele>37.1481</ele>
        <time>2014-06-15T13:55:26Z</time>
      </trkpt>
      <trkpt lat="59.9026726" lon="17.669902">
        <ele>37.1481</ele>
        <time>2014-06-15T13:55:27Z</time>
      </trkpt>
      <trkpt lat="59.9027161" lon="17.669871">
        <ele>37.1481</ele>
        <time>2014-06-15T13:55:28Z</time>
      </trkpt>
      <trkpt lat="59.9027548" lon="17.6698551">
        <ele>37.1481</ele>
        <time>2014-06-15T13:55:29Z</time>
      </trkpt>
      <trkpt lat="59.9027871" lon="17.6698498">
        <ele>37.1481</ele>
        <time>2014-06-15T13:55:30Z</time>
      </trkpt>
      <trkpt lat="59.9028119" lon="17.669842">
        <ele>37.1481</ele>
        <time>2014-06-15T13:55:31Z</time>
      </trkpt>
      <trkpt lat="59.9028265" lon="17.669824">
        <ele>37.1481</ele>
        <time>2014-06-15T13:55:32Z</time>
      </trkpt>
      <trkpt lat="59.9028265" lon="17.6698048">
        <ele>36.6675</ele>
        <time>2014-06-15T13:55:33Z</time>
      </trkpt>
      <trkpt lat="59.9028155" lon="17.6697985">
        <ele>36.6675</ele>
        <time>2014-06-15T13:55:34Z</time>
      </trkpt>
      <trkpt lat="59.9027947" lon="17.6698059">
        <ele>36.1868</ele>
        <time>2014-06-15T13:55:35Z</time>
      </trkpt>
      <trkpt lat="59.9027649" lon="17.6698252">
        <ele>36.1868</ele>
        <time>2014-06-15T13:55:36Z</time>
      </trkpt>
      <trkpt lat="59.9027306" lon="17.6698501">
        <ele>36.1868</ele>
        <time>2014-06-15T13:55:37Z</time>
      </trkpt>
      <trkpt lat="59.9026938" lon="17.6698747">
        <ele>36.1868</ele>
        <time>2014-06-15T13:55:38Z</time>
      </trkpt>
      <trkpt lat="59.9026519" lon="17.6698975">
        <ele>35.7061</ele>
        <time>2014-06-15T13:55:39Z</time>
      </trkpt>
      <trkpt lat="59.9026074" lon="17.6699208">
        <ele>35.2255</ele>
        <time>2014-06-15T13:55:40Z</time>
      </trkpt>
      <trkpt lat="59.9025672" lon="17.6699546">
        <ele>34.7449</ele>
        <time>2014-06-15T13:55:41Z</time>
      </trkpt>
      <trkpt lat="59.9025408" lon="17.6700099">
        <ele>34.7449</ele>
        <time>2014-06-15T13:55:42Z</time>
      </trkpt>
      <trkpt lat="59.9025275" lon="17.6700755">
        <ele>34.7449</ele>
        <time>2014-06-15T13:55:43Z</time>
      </trkpt>
      <trkpt lat="59.9025229" lon="17.6701488">
        <ele>34.2642</ele>
        <time>2014-06-15T13:55:44Z</time>
      </trkpt>
      <trkpt lat="59.9025207" lon="17.670229">
        <ele>34.2642</ele>
        <time>2014-06-15T13:55:45Z</time>
      </trkpt>
      <trkpt lat="59.9025204" lon="17.6703088">
        <ele>34.2642</ele>
        <time>2014-06-15T13:55:46Z</time>
      </trkpt>
      <trkpt lat="59.9025197" lon="17.670388">
        <ele>34.2642</ele>
        <time>2014-06-15T13:55:47Z</time>
      </trkpt>
      <trkpt lat="59.9025211" lon="17.6704634">
        <ele>34.2642</ele>
        <time>2014-06-15T13:55:48Z</time>
      </trkpt>
      <trkpt lat="59.9025244" lon="17.6705351">
        <ele>34.2642</ele>
        <time>2014-06-15T13:55:49Z</time>
      </trkpt>
      <trkpt lat="59.9025249" lon="17.6706059">
        <ele>34.2642</ele>
        <time>2014-06-15T13:55:50Z</time>
      </trkpt>
      <trkpt lat="59.9025214" lon="17.6706719">
        <ele>34.2642</ele>
        <time>2014-06-15T13:55:51Z</time>
      </trkpt>
      <trkpt lat="59.9025162" lon="17.6707309">
        <ele>34.2642</ele>
        <time>2014-06-15T13:55:52Z</time>
      </trkpt>
      <trkpt lat="59.9025105" lon="17.6707827">
        <ele>34.7449</ele>
        <time>2014-06-15T13:55:53Z</time>
      </trkpt>
      <trkpt lat="59.9025056" lon="17.6708284">
        <ele>34.7449</ele>
        <time>2014-06-15T13:55:54Z</time>
      </trkpt>
      <trkpt lat="59.9025026" lon="17.6708692">
        <ele>34.7449</ele>
        <time>2014-06-15T13:55:55Z</time>
      </trkpt>
      <trkpt lat="59.902504" lon="17.6709064">
        <ele>34.7449</ele>
        <time>2014-06-15T13:55:56Z</time>
      </trkpt>
      <trkpt lat="59.9025074" lon="17.6709341">
        <ele>34.7449</ele>
        <time>2014-06-15T13:55:57Z</time>
      </trkpt>
      <trkpt lat="59.9025104" lon="17.6709469">
        <ele>35.2255</ele>
        <time>2014-06-15T13:55:58Z</time>
      </trkpt>
      <trkpt lat="59.9025016" lon="17.6706989">
        <ele>37.6287</ele>
        <time>2014-06-15T14:20:02Z</time>
      </trkpt>
      <trkpt lat="59.9025043" lon="17.6706512">
        <ele>37.6287</ele>
        <time>2014-06-15T14:20:03Z</time>
      </trkpt>
      <trkpt lat="59.9025038" lon="17.6705955">
        <ele>37.1481</ele>
        <time>2014-06-15T14:20:04Z</time>
      </trkpt>
      <trkpt lat="59.9025045" lon="17.6705341">
        <ele>37.1481</ele>
        <time>2014-06-15T14:20:05Z</time>
      </trkpt>
      <trkpt lat="59.9025072" lon="17.6704658">
        <ele>37.1481</ele>
        <time>2014-06-15T14:20:06Z</time>
      </trkpt>
      <trkpt lat="59.9025124" lon="17.6703948">
        <ele>36.6675</ele>
        <time>2014-06-15T14:20:07Z</time>
      </trkpt>
      <trkpt lat="59.9025167" lon="17.6703227">
        <ele>36.6675</ele>
        <time>2014-06-15T14:20:08Z</time>
      </trkpt>
      <trkpt lat="59.9025156" lon="17.67025">
        <ele>36.1868</ele>
        <time>2014-06-15T14:20:09Z</time>
      </trkpt>
      <trkpt lat="59.9025137" lon="17.6701742">
        <ele>36.1868</ele>
        <time>2014-06-15T14:20:10Z</time>
      </trkpt>
      <trkpt lat="59.9025155" lon="17.6701017">
        <ele>35.7061</ele>
        <time>2014-06-15T14:20:11Z</time>
      </trkpt>
      <trkpt lat="59.9025275" lon="17.6700321">
        <ele>35.7061</ele>
        <time>2014-06-15T14:20:12Z</time>
      </trkpt>
      <trkpt lat="59.902555" lon="17.6699729">
        <ele>35.7061</ele>
        <time>2014-06-15T14:20:13Z</time>
      </trkpt>
      <trkpt lat="59.902595" lon="17.669928">
        <ele>35.7061</ele>
        <time>2014-06-15T14:20:14Z</time>
      </trkpt>
      <trkpt lat="59.902641" lon="17.669899">
        <ele>35.7061</ele>
        <time>2014-06-15T14:20:15Z</time>
      </trkpt>
      <trkpt lat="59.9026876" lon="17.669876">
        <ele>35.7061</ele>
        <time>2014-06-15T14:20:16Z</time>
      </trkpt>
      <trkpt lat="59.9027357" lon="17.669858">
        <ele>35.7061</ele>
        <time>2014-06-15T14:20:17Z</time>
      </trkpt>
      <trkpt lat="59.902784" lon="17.6698456">
        <ele>35.7061</ele>
        <time>2014-06-15T14:20:18Z</time>
      </trkpt>
      <trkpt lat="59.9028357" lon="17.66984">
        <ele>35.7061</ele>
        <time>2014-06-15T14:20:19Z</time>
      </trkpt>
      <trkpt lat="59.902886" lon="17.6698451">
        <ele>35.2255</ele>
        <time>2014-06-15T14:20:20Z</time>
      </trkpt>
      <trkpt lat="59.9029386" lon="17.6698643">
        <ele>34.7449</ele>
        <time>2014-06-15T14:20:21Z</time>
      </trkpt>
      <trkpt lat="59.9029949" lon="17.6698952">
        <ele>34.2642</ele>
        <time>2014-06-15T14:20:22Z</time>
      </trkpt>
      <trkpt lat="59.9030543" lon="17.6699326">
        <ele>34.2642</ele>
        <time>2014-06-15T14:20:23Z</time>
      </trkpt>
      <trkpt lat="59.9031156" lon="17.6699641">
        <ele>33.7834</ele>
        <time>2014-06-15T14:20:24Z</time>
      </trkpt>
      <trkpt lat="59.9031744" lon="17.6699813">
        <ele>33.3029</ele>
        <time>2014-06-15T14:20:25Z</time>
      </trkpt>
      <trkpt lat="59.903233" lon="17.6699732">
        <ele>32.8223</ele>
        <time>2014-06-15T14:20:26Z</time>
      </trkpt>
      <trkpt lat="59.9032941" lon="17.6699504">
        <ele>32.8223</ele>
        <time>2014-06-15T14:20:27Z</time>
      </trkpt>
      <trkpt lat="59.9033593" lon="17.6699177">
        <ele>32.3416</ele>
        <time>2014-06-15T14:20:28Z</time>
      </trkpt>
      <trkpt lat="59.9034207" lon="17.6698603">
        <ele>30.8995</ele>
        <time>2014-06-15T14:20:29Z</time>
      </trkpt>
      <trkpt lat="59.9034728" lon="17.6697798">
        <ele>30.4188</ele>
        <time>2014-06-15T14:20:30Z</time>
      </trkpt>
      <trkpt lat="59.9035112" lon="17.6696752">
        <ele>30.4188</ele>
        <time>2014-06-15T14:20:31Z</time>
      </trkpt>
      <trkpt lat="59.9035427" lon="17.6695534">
        <ele>29.9381</ele>
        <time>2014-06-15T14:20:32Z</time>
      </trkpt>
      <trkpt lat="59.9035665" lon="17.6694153">
        <ele>29.9381</ele>
        <time>2014-06-15T14:20:33Z</time>
      </trkpt>
      <trkpt lat="59.9035914" lon="17.669281">
        <ele>30.4188</ele>
        <time>2014-06-15T14:20:34Z</time>
      </trkpt>
      <trkpt lat="59.9036243" lon="17.6691666">
        <ele>29.9381</ele>
        <time>2014-06-15T14:20:35Z</time>
      </trkpt>
      <trkpt lat="59.9036589" lon="17.6690587">
        <ele>29.4575</ele>
        <time>2014-06-15T14:20:36Z</time>
      </trkpt>
      <trkpt lat="59.9036926" lon="17.6689536">
        <ele>29.4575</ele>
        <time>2014-06-15T14:20:37Z</time>
      </trkpt>
      <trkpt lat="59.9037257" lon="17.6688516">
        <ele>29.9381</ele>
        <time>2014-06-15T14:20:38Z</time>
      </trkpt>
      <trkpt lat="59.9037666" lon="17.6687667">
        <ele>29.9381</ele>
        <time>2014-06-15T14:20:39Z</time>
      </trkpt>
      <trkpt lat="59.9038029" lon="17.6686742">
        <ele>29.9381</ele>
        <time>2014-06-15T14:20:40Z</time>
      </trkpt>
      <trkpt lat="59.9038361" lon="17.6685853">
        <ele>29.9381</ele>
        <time>2014-06-15T14:20:41Z</time>
      </trkpt>
      <trkpt lat="59.9038724" lon="17.6685014">
        <ele>30.4188</ele>
        <time>2014-06-15T14:20:42Z</time>
      </trkpt>
      <trkpt lat="59.9039132" lon="17.6684262">
        <ele>30.8995</ele>
        <time>2014-06-15T14:20:43Z</time>
      </trkpt>
      <trkpt lat="59.9039542" lon="17.6683528">
        <ele>31.3801</ele>
        <time>2014-06-15T14:20:44Z</time>
      </trkpt>
      <trkpt lat="59.9039955" lon="17.6682835">
        <ele>32.3416</ele>
        <time>2014-06-15T14:20:45Z</time>
      </trkpt>
      <trkpt lat="59.904038" lon="17.6682216">
        <ele>32.3416</ele>
        <time>2014-06-15T14:20:46Z</time>
      </trkpt>
      <trkpt lat="59.9040816" lon="17.6681678">
        <ele>32.8223</ele>
        <time>2014-06-15T14:20:47Z</time>
      </trkpt>
      <trkpt lat="59.9041266" lon="17.668122">
        <ele>33.3029</ele>
        <time>2014-06-15T14:20:48Z</time>
      </trkpt>
      <trkpt lat="59.9041713" lon="17.6680787">
        <ele>33.7834</ele>
        <time>2014-06-15T14:20:49Z</time>
      </trkpt>
      <trkpt lat="59.9042186" lon="17.6680389">
        <ele>33.7834</ele>
        <time>2014-06-15T14:20:50Z</time>
      </trkpt>
      <trkpt lat="59.9042706" lon="17.6680078">
        <ele>34.2642</ele>
        <time>2014-06-15T14:20:51Z</time>
      </trkpt>
      <trkpt lat="59.9043267" lon="17.6679861">
        <ele>34.2642</ele>
        <time>2014-06-15T14:20:52Z</time>
      </trkpt>
      <trkpt lat="59.9043849" lon="17.667971">
        <ele>34.2642</ele>
        <time>2014-06-15T14:20:53Z</time>
      </trkpt>
      <trkpt lat="59.9044442" lon="17.6679579">
        <ele>34.2642</ele>
        <time>2014-06-15T14:20:54Z</time>
      </trkpt>
      <trkpt lat="59.9045043" lon="17.6679425">
        <ele>34.2642</ele>
        <time>2014-06-15T14:20:55Z</time>
      </trkpt>
      <trkpt lat="59.904568" lon="17.6679297">
        <ele>34.2642</ele>
        <time>2014-06-15T14:20:56Z</time>
      </trkpt>
      <trkpt lat="59.9046322" lon="17.6679183">
        <ele>33.7834</ele>
        <time>2014-06-15T14:20:57Z</time>
      </trkpt>
      <trkpt lat="59.9047001" lon="17.6679099">
        <ele>33.7834</ele>
        <time>2014-06-15T14:20:58Z</time>
      </trkpt>
      <trkpt lat="59.9047701" lon="17.6679141">
        <ele>33.3029</ele>
        <time>2014-06-15T14:20:59Z</time>
      </trkpt>
      <trkpt lat="59.9048447" lon="17.6679336">
        <ele>32.8223</ele>
        <time>2014-06-15T14:21:00Z</time>
      </trkpt>
      <trkpt lat="59.9049231" lon="17.667969">
        <ele>32.3416</ele>
        <time>2014-06-15T14:21:01Z</time>
      </trkpt>
      <trkpt lat="59.9050042" lon="17.6680176">
        <ele>32.3416</ele>
        <time>2014-06-15T14:21:02Z</time>
      </trkpt>
      <trkpt lat="59.905087" lon="17.6680679">
        <ele>31.8607</ele>
        <time>2014-06-15T14:21:03Z</time>
      </trkpt>
      <trkpt lat="59.905171" lon="17.668119">
        <ele>31.8607</ele>
        <time>2014-06-15T14:21:04Z</time>
      </trkpt>
      <trkpt lat="59.9052596" lon="17.6681668">
        <ele>31.8607</ele>
        <time>2014-06-15T14:21:05Z</time>
      </trkpt>
      <trkpt lat="59.9053482" lon="17.6682094">
        <ele>31.8607</ele>
        <time>2014-06-15T14:21:06Z</time>
      </trkpt>
      <trkpt lat="59.9054356" lon="17.6682512">
        <ele>31.8607</ele>
        <time>2014-06-15T14:21:07Z</time>
      </trkpt>
      <trkpt lat="59.9055279" lon="17.6682938">
        <ele>31.8607</ele>
        <time>2014-06-15T14:21:08Z</time>
      </trkpt>
      <trkpt lat="59.9056168" lon="17.6683365">
        <ele>31.8607</ele>
        <time>2014-06-15T14:21:09Z</time>
      </trkpt>
      <trkpt lat="59.905703" lon="17.668378">
        <ele>32.3416</ele>
        <time>2014-06-15T14:21:10Z</time>
      </trkpt>
      <trkpt lat="59.9057878" lon="17.6684211">
        <ele>32.3416</ele>
        <time>2014-06-15T14:21:11Z</time>
      </trkpt>
      <trkpt lat="59.9058719" lon="17.6684615">
        <ele>32.3416</ele>
        <time>2014-06-15T14:21:12Z</time>
      </trkpt>
      <trkpt lat="59.9059562" lon="17.6684951">
        <ele>32.8223</ele>
        <time>2014-06-15T14:21:13Z</time>
      </trkpt>
      <trkpt lat="59.9060401" lon="17.6685235">
        <ele>32.8223</ele>
        <time>2014-06-15T14:21:14Z</time>
      </trkpt>
      <trkpt lat="59.9061229" lon="17.6685521">
        <ele>33.3029</ele>
        <time>2014-06-15T14:21:15Z</time>
      </trkpt>
      <trkpt lat="59.9062038" lon="17.6685818">
        <ele>33.7834</ele>
        <time>2014-06-15T14:21:16Z</time>
      </trkpt>
      <trkpt lat="59.9062821" lon="17.6686072">
        <ele>33.7834</ele>
        <time>2014-06-15T14:21:17Z</time>
      </trkpt>
      <trkpt lat="59.9063608" lon="17.6686245">
        <ele>34.2642</ele>
        <time>2014-06-15T14:21:18Z</time>
      </trkpt>
      <trkpt lat="59.9064362" lon="17.6686308">
        <ele>34.7449</ele>
        <time>2014-06-15T14:21:19Z</time>
      </trkpt>
      <trkpt lat="59.9065093" lon="17.6686283">
        <ele>34.7449</ele>
        <time>2014-06-15T14:21:20Z</time>
      </trkpt>
      <trkpt lat="59.9065804" lon="17.6686186">
        <ele>34.7449</ele>
        <time>2014-06-15T14:21:21Z</time>
      </trkpt>
      <trkpt lat="59.9066517" lon="17.6686024">
        <ele>35.2255</ele>
        <time>2014-06-15T14:21:22Z</time>
      </trkpt>
      <trkpt lat="59.9067229" lon="17.6685791">
        <ele>35.2255</ele>
        <time>2014-06-15T14:21:23Z</time>
      </trkpt>
      <trkpt lat="59.9067939" lon="17.6685537">
        <ele>35.2255</ele>
        <time>2014-06-15T14:21:24Z</time>
      </trkpt>
      <trkpt lat="59.9068629" lon="17.668517">
        <ele>35.2255</ele>
        <time>2014-06-15T14:21:25Z</time>
      </trkpt>
      <trkpt lat="59.9069361" lon="17.668476">
        <ele>35.2255</ele>
        <time>2014-06-15T14:21:26Z</time>
      </trkpt>
      <trkpt lat="59.907017" lon="17.6684454">
        <ele>35.2255</ele>
        <time>2014-06-15T14:21:27Z</time>
      </trkpt>
      <trkpt lat="59.9070956" lon="17.6684217">
        <ele>34.7449</ele>
        <time>2014-06-15T14:21:28Z</time>
      </trkpt>
      <trkpt lat="59.9071759" lon="17.6683971">
        <ele>34.7449</ele>
        <time>2014-06-15T14:21:29Z</time>
      </trkpt>
      <trkpt lat="59.9072576" lon="17.6683717">
        <ele>34.2642</ele>
        <time>2014-06-15T14:21:30Z</time>
      </trkpt>
      <trkpt lat="59.9073386" lon="17.668345">
        <ele>34.2642</ele>
        <time>2014-06-15T14:21:31Z</time>
      </trkpt>
      <trkpt lat="59.9074191" lon="17.6683116">
        <ele>34.2642</ele>
        <time>2014-06-15T14:21:32Z</time>
      </trkpt>
      <trkpt lat="59.9074958" lon="17.6682691">
        <ele>34.2642</ele>
        <time>2014-06-15T14:21:33Z</time>
      </trkpt>
      <trkpt lat="59.9075658" lon="17.6682049">
        <ele>34.7449</ele>
        <time>2014-06-15T14:21:34Z</time>
      </trkpt>
      <trkpt lat="59.9076282" lon="17.668118">
        <ele>34.7449</ele>
        <time>2014-06-15T14:21:35Z</time>
      </trkpt>
      <trkpt lat="59.9076803" lon="17.6679843">
        <ele>34.2642</ele>
        <time>2014-06-15T14:21:36Z</time>
      </trkpt>
      <trkpt lat="59.9077024" lon="17.667826">
        <ele>34.2642</ele>
        <time>2014-06-15T14:21:37Z</time>
      </trkpt>
      <trkpt lat="59.9077134" lon="17.6676607">
        <ele>33.7834</ele>
        <time>2014-06-15T14:21:38Z</time>
      </trkpt>
      <trkpt lat="59.9077375" lon="17.6675063">
        <ele>33.7834</ele>
        <time>2014-06-15T14:21:39Z</time>
      </trkpt>
      <trkpt lat="59.9077372" lon="17.6673675">
        <ele>34.2642</ele>
        <time>2014-06-15T14:21:40Z</time>
      </trkpt>
      <trkpt lat="59.9077417" lon="17.6672297">
        <ele>33.7834</ele>
        <time>2014-06-15T14:21:41Z</time>
      </trkpt>
      <trkpt lat="59.907749" lon="17.6671011">
        <ele>33.7834</ele>
        <time>2014-06-15T14:21:42Z</time>
      </trkpt>
      <trkpt lat="59.9077563" lon="17.6669819">
        <ele>33.3029</ele>
        <time>2014-06-15T14:21:43Z</time>
      </trkpt>
      <trkpt lat="59.9077689" lon="17.6668639">
        <ele>32.8223</ele>
        <time>2014-06-15T14:21:44Z</time>
      </trkpt>
      <trkpt lat="59.9077899" lon="17.6667465">
        <ele>32.8223</ele>
        <time>2014-06-15T14:21:45Z</time>
      </trkpt>
      <trkpt lat="59.9078015" lon="17.6666231">
        <ele>32.8223</ele>
        <time>2014-06-15T14:21:46Z</time>
      </trkpt>
      <trkpt lat="59.9078113" lon="17.6664983">
        <ele>32.3416</ele>
        <time>2014-06-15T14:21:47Z</time>
      </trkpt>
      <trkpt lat="59.9078216" lon="17.6663714">
        <ele>32.3416</ele>
        <time>2014-06-15T14:21:48Z</time>
      </trkpt>
      <trkpt lat="59.9078313" lon="17.66625">
        <ele>31.8607</ele>
        <time>2014-06-15T14:21:49Z</time>
      </trkpt>
      <trkpt lat="59.9078459" lon="17.6661345">
        <ele>31.8607</ele>
        <time>2014-06-15T14:21:50Z</time>
      </trkpt>
      <trkpt lat="59.9078589" lon="17.6660165">
        <ele>31.3801</ele>
        <time>2014-06-15T14:21:51Z</time>
      </trkpt>
      <trkpt lat="59.9078722" lon="17.6659018">
        <ele>31.3801</ele>
        <time>2014-06-15T14:21:52Z</time>
      </trkpt>
      <trkpt lat="59.9078888" lon="17.6657952">
        <ele>30.4188</ele>
        <time>2014-06-15T14:21:53Z</time>
      </trkpt>
      <trkpt lat="59.9079082" lon="17.6656932">
        <ele>30.4188</ele>
        <time>2014-06-15T14:21:54Z</time>
      </trkpt>
      <trkpt lat="59.9079164" lon="17.6655784">
        <ele>30.4188</ele>
        <time>2014-06-15T14:21:55Z</time>
      </trkpt>
      <trkpt lat="59.9079221" lon="17.6654545">
        <ele>30.4188</ele>
        <time>2014-06-15T14:21:56Z</time>
      </trkpt>
      <trkpt lat="59.90793" lon="17.6653276">
        <ele>30.4188</ele>
        <time>2014-06-15T14:21:57Z</time>
      </trkpt>
      <trkpt lat="59.9079402" lon="17.6652013">
        <ele>30.4188</ele>
        <time>2014-06-15T14:21:58Z</time>
      </trkpt>
      <trkpt lat="59.9079545" lon="17.6650759">
        <ele>30.4188</ele>
        <time>2014-06-15T14:21:59Z</time>
      </trkpt>
      <trkpt lat="59.9079681" lon="17.6649526">
        <ele>30.4188</ele>
        <time>2014-06-15T14:22:00Z</time>
      </trkpt>
      <trkpt lat="59.9079775" lon="17.6648317">
        <ele>30.4188</ele>
        <time>2014-06-15T14:22:01Z</time>
      </trkpt>
      <trkpt lat="59.9079894" lon="17.6647113">
        <ele>30.4188</ele>
        <time>2014-06-15T14:22:02Z</time>
      </trkpt>
      <trkpt lat="59.9079962" lon="17.6645863">
        <ele>30.4188</ele>
        <time>2014-06-15T14:22:03Z</time>
      </trkpt>
      <trkpt lat="59.9079982" lon="17.6644579">
        <ele>30.4188</ele>
        <time>2014-06-15T14:22:04Z</time>
      </trkpt>
      <trkpt lat="59.9079977" lon="17.6643292">
        <ele>30.4188</ele>
        <time>2014-06-15T14:22:05Z</time>
      </trkpt>
      <trkpt lat="59.9079934" lon="17.6641961">
        <ele>30.8995</ele>
        <time>2014-06-15T14:22:06Z</time>
      </trkpt>
      <trkpt lat="59.9079846" lon="17.6640609">
        <ele>30.8995</ele>
        <time>2014-06-15T14:22:07Z</time>
      </trkpt>
      <trkpt lat="59.9079727" lon="17.6639246">
        <ele>30.8995</ele>
        <time>2014-06-15T14:22:08Z</time>
      </trkpt>
      <trkpt lat="59.9079603" lon="17.663788">
        <ele>30.8995</ele>
        <time>2014-06-15T14:22:09Z</time>
      </trkpt>
      <trkpt lat="59.9079476" lon="17.6636514">
        <ele>31.3801</ele>
        <time>2014-06-15T14:22:10Z</time>
      </trkpt>
      <trkpt lat="59.907934" lon="17.6635171">
        <ele>31.3801</ele>
        <time>2014-06-15T14:22:11Z</time>
      </trkpt>
      <trkpt lat="59.9079206" lon="17.6633835">
        <ele>31.3801</ele>
        <time>2014-06-15T14:22:12Z</time>
      </trkpt>
      <trkpt lat="59.9079065" lon="17.6632518">
        <ele>31.8607</ele>
        <time>2014-06-15T14:22:13Z</time>
      </trkpt>
      <trkpt lat="59.9078911" lon="17.6631199">
        <ele>31.8607</ele>
        <time>2014-06-15T14:22:14Z</time>
      </trkpt>
      <trkpt lat="59.9078722" lon="17.662986">
        <ele>31.8607</ele>
        <time>2014-06-15T14:22:15Z</time>
      </trkpt>
      <trkpt lat="59.907853" lon="17.6628494">
        <ele>31.8607</ele>
        <time>2014-06-15T14:22:16Z</time>
      </trkpt>
      <trkpt lat="59.9078335" lon="17.6627105">
        <ele>31.8607</ele>
        <time>2014-06-15T14:22:17Z</time>
      </trkpt>
      <trkpt lat="59.9078138" lon="17.6625697">
        <ele>31.8607</ele>
        <time>2014-06-15T14:22:18Z</time>
      </trkpt>
      <trkpt lat="59.9077944" lon="17.6624283">
        <ele>31.8607</ele>
        <time>2014-06-15T14:22:19Z</time>
      </trkpt>
      <trkpt lat="59.9077754" lon="17.6622867">
        <ele>31.8607</ele>
        <time>2014-06-15T14:22:20Z</time>
      </trkpt>
      <trkpt lat="59.9077578" lon="17.6621447">
        <ele>32.3416</ele>
        <time>2014-06-15T14:22:21Z</time>
      </trkpt>
      <trkpt lat="59.9077422" lon="17.6620035">
        <ele>32.3416</ele>
        <time>2014-06-15T14:22:22Z</time>
      </trkpt>
      <trkpt lat="59.9077294" lon="17.6618647">
        <ele>32.3416</ele>
        <time>2014-06-15T14:22:23Z</time>
      </trkpt>
      <trkpt lat="59.9077186" lon="17.6617274">
        <ele>32.3416</ele>
        <time>2014-06-15T14:22:24Z</time>
      </trkpt>
      <trkpt lat="59.9077081" lon="17.6615911">
        <ele>32.3416</ele>
        <time>2014-06-15T14:22:25Z</time>
      </trkpt>
      <trkpt lat="59.9076962" lon="17.6614544">
        <ele>32.8223</ele>
        <time>2014-06-15T14:22:26Z</time>
      </trkpt>
      <trkpt lat="59.9076878" lon="17.6613218">
        <ele>32.8223</ele>
        <time>2014-06-15T14:22:27Z</time>
      </trkpt>
      <trkpt lat="59.9076795" lon="17.6611927">
        <ele>32.8223</ele>
        <time>2014-06-15T14:22:28Z</time>
      </trkpt>
      <trkpt lat="59.9076694" lon="17.661068">
        <ele>32.8223</ele>
        <time>2014-06-15T14:22:29Z</time>
      </trkpt>
      <trkpt lat="59.9076565" lon="17.6609416">
        <ele>32.8223</ele>
        <time>2014-06-15T14:22:30Z</time>
      </trkpt>
      <trkpt lat="59.9076404" lon="17.66081">
        <ele>32.8223</ele>
        <time>2014-06-15T14:22:31Z</time>
      </trkpt>
      <trkpt lat="59.9076211" lon="17.6606784">
        <ele>32.8223</ele>
        <time>2014-06-15T14:22:32Z</time>
      </trkpt>
      <trkpt lat="59.9075979" lon="17.6605457">
        <ele>32.3416</ele>
        <time>2014-06-15T14:22:33Z</time>
      </trkpt>
      <trkpt lat="59.9075715" lon="17.6604096">
        <ele>32.3416</ele>
        <time>2014-06-15T14:22:34Z</time>
      </trkpt>
      <trkpt lat="59.9075444" lon="17.6602708">
        <ele>32.3416</ele>
        <time>2014-06-15T14:22:35Z</time>
      </trkpt>
      <trkpt lat="59.90752" lon="17.6601307">
        <ele>32.3416</ele>
        <time>2014-06-15T14:22:36Z</time>
      </trkpt>
      <trkpt lat="59.9074966" lon="17.6599868">
        <ele>32.3416</ele>
        <time>2014-06-15T14:22:37Z</time>
      </trkpt>
      <trkpt lat="59.9074755" lon="17.6598386">
        <ele>32.3416</ele>
        <time>2014-06-15T14:22:38Z</time>
      </trkpt>
      <trkpt lat="59.9074555" lon="17.6596873">
        <ele>32.8223</ele>
        <time>2014-06-15T14:22:39Z</time>
      </trkpt>
      <trkpt lat="59.9074382" lon="17.6595363">
        <ele>32.8223</ele>
        <time>2014-06-15T14:22:40Z</time>
      </trkpt>
      <trkpt lat="59.9074231" lon="17.6593859">
        <ele>33.3029</ele>
        <time>2014-06-15T14:22:41Z</time>
      </trkpt>
      <trkpt lat="59.9074103" lon="17.6592364">
        <ele>33.3029</ele>
        <time>2014-06-15T14:22:42Z</time>
      </trkpt>
      <trkpt lat="59.9073976" lon="17.6590896">
        <ele>33.3029</ele>
        <time>2014-06-15T14:22:43Z</time>
      </trkpt>
      <trkpt lat="59.9073852" lon="17.6589463">
        <ele>33.3029</ele>
        <time>2014-06-15T14:22:44Z</time>
      </trkpt>
      <trkpt lat="59.9073718" lon="17.6588043">
        <ele>33.3029</ele>
        <time>2014-06-15T14:22:45Z</time>
      </trkpt>
      <trkpt lat="59.9073564" lon="17.6586613">
        <ele>33.3029</ele>
        <time>2014-06-15T14:22:46Z</time>
      </trkpt>
      <trkpt lat="59.9073398" lon="17.6585164">
        <ele>33.3029</ele>
        <time>2014-06-15T14:22:47Z</time>
      </trkpt>
      <trkpt lat="59.9073196" lon="17.6583427">
        <ele>32.8223</ele>
        <time>2014-06-15T14:22:48Z</time>
      </trkpt>
      <trkpt lat="59.9072957" lon="17.6581749">
        <ele>32.8223</ele>
        <time>2014-06-15T14:22:49Z</time>
      </trkpt>
      <trkpt lat="59.9072739" lon="17.6580199">
        <ele>32.8223</ele>
        <time>2014-06-15T14:22:50Z</time>
      </trkpt>
      <trkpt lat="59.9072518" lon="17.6578687">
        <ele>32.8223</ele>
        <time>2014-06-15T14:22:51Z</time>
      </trkpt>
      <trkpt lat="59.9072269" lon="17.6577178">
        <ele>32.8223</ele>
        <time>2014-06-15T14:22:52Z</time>
      </trkpt>
      <trkpt lat="59.9072004" lon="17.6575669">
        <ele>32.8223</ele>
        <time>2014-06-15T14:22:53Z</time>
      </trkpt>
      <trkpt lat="59.9071725" lon="17.6574164">
        <ele>32.8223</ele>
        <time>2014-06-15T14:22:54Z</time>
      </trkpt>
      <trkpt lat="59.9071471" lon="17.6572641">
        <ele>32.8223</ele>
        <time>2014-06-15T14:22:55Z</time>
      </trkpt>
      <trkpt lat="59.907126" lon="17.6571105">
        <ele>32.8223</ele>
        <time>2014-06-15T14:22:56Z</time>
      </trkpt>
      <trkpt lat="59.9071072" lon="17.6569575">
        <ele>32.8223</ele>
        <time>2014-06-15T14:22:57Z</time>
      </trkpt>
      <trkpt lat="59.9070908" lon="17.6568073">
        <ele>32.8223</ele>
        <time>2014-06-15T14:22:58Z</time>
      </trkpt>
      <trkpt lat="59.9070777" lon="17.6566613">
        <ele>33.3029</ele>
        <time>2014-06-15T14:22:59Z</time>
      </trkpt>
      <trkpt lat="59.9070669" lon="17.6565181">
        <ele>33.3029</ele>
        <time>2014-06-15T14:23:00Z</time>
      </trkpt>
      <trkpt lat="59.9070586" lon="17.6563769">
        <ele>33.3029</ele>
        <time>2014-06-15T14:23:01Z</time>
      </trkpt>
      <trkpt lat="59.9070523" lon="17.656236">
        <ele>33.3029</ele>
        <time>2014-06-15T14:23:02Z</time>
      </trkpt>
      <trkpt lat="59.9070472" lon="17.656093">
        <ele>32.8223</ele>
        <time>2014-06-15T14:23:03Z</time>
      </trkpt>
      <trkpt lat="59.9070431" lon="17.6559462">
        <ele>32.8223</ele>
        <time>2014-06-15T14:23:04Z</time>
      </trkpt>
      <trkpt lat="59.9070404" lon="17.6557952">
        <ele>32.8223</ele>
        <time>2014-06-15T14:23:05Z</time>
      </trkpt>
      <trkpt lat="59.9070382" lon="17.6556403">
        <ele>32.8223</ele>
        <time>2014-06-15T14:23:06Z</time>
      </trkpt>
      <trkpt lat="59.9070369" lon="17.6554818">
        <ele>32.3416</ele>
        <time>2014-06-15T14:23:07Z</time>
      </trkpt>
      <trkpt lat="59.9070368" lon="17.6553205">
        <ele>32.3416</ele>
        <time>2014-06-15T14:23:08Z</time>
      </trkpt>
      <trkpt lat="59.9070369" lon="17.6551573">
        <ele>32.3416</ele>
        <time>2014-06-15T14:23:09Z</time>
      </trkpt>
      <trkpt lat="59.9070376" lon="17.6549954">
        <ele>31.8607</ele>
        <time>2014-06-15T14:23:10Z</time>
      </trkpt>
      <trkpt lat="59.9070384" lon="17.6548374">
        <ele>31.8607</ele>
        <time>2014-06-15T14:23:11Z</time>
      </trkpt>
      <trkpt lat="59.9070395" lon="17.6546829">
        <ele>31.8607</ele>
        <time>2014-06-15T14:23:12Z</time>
      </trkpt>
      <trkpt lat="59.9070425" lon="17.65453">
        <ele>31.8607</ele>
        <time>2014-06-15T14:23:13Z</time>
      </trkpt>
      <trkpt lat="59.9070464" lon="17.6543768">
        <ele>31.8607</ele>
        <time>2014-06-15T14:23:14Z</time>
      </trkpt>
      <trkpt lat="59.9070501" lon="17.6542243">
        <ele>31.8607</ele>
        <time>2014-06-15T14:23:15Z</time>
      </trkpt>
      <trkpt lat="59.907054" lon="17.6540726">
        <ele>31.8607</ele>
        <time>2014-06-15T14:23:16Z</time>
      </trkpt>
      <trkpt lat="59.907058" lon="17.6539214">
        <ele>31.8607</ele>
        <time>2014-06-15T14:23:17Z</time>
      </trkpt>
      <trkpt lat="59.9070626" lon="17.6537719">
        <ele>31.8607</ele>
        <time>2014-06-15T14:23:18Z</time>
      </trkpt>
      <trkpt lat="59.907068" lon="17.6536256">
        <ele>32.3416</ele>
        <time>2014-06-15T14:23:19Z</time>
      </trkpt>
      <trkpt lat="59.9070735" lon="17.6534818">
        <ele>32.3416</ele>
        <time>2014-06-15T14:23:20Z</time>
      </trkpt>
      <trkpt lat="59.9070786" lon="17.6533404">
        <ele>32.3416</ele>
        <time>2014-06-15T14:23:21Z</time>
      </trkpt>
      <trkpt lat="59.9070845" lon="17.6532015">
        <ele>32.3416</ele>
        <time>2014-06-15T14:23:22Z</time>
      </trkpt>
      <trkpt lat="59.9070911" lon="17.6530657">
        <ele>32.3416</ele>
        <time>2014-06-15T14:23:23Z</time>
      </trkpt>
      <trkpt lat="59.907096" lon="17.6529327">
        <ele>32.3416</ele>
        <time>2014-06-15T14:23:24Z</time>
      </trkpt>
      <trkpt lat="59.9070984" lon="17.6528012">
        <ele>32.3416</ele>
        <time>2014-06-15T14:23:25Z</time>
      </trkpt>
      <trkpt lat="59.9070988" lon="17.6526704">
        <ele>32.3416</ele>
        <time>2014-06-15T14:23:26Z</time>
      </trkpt>
      <trkpt lat="59.9070977" lon="17.6525398">
        <ele>32.3416</ele>
        <time>2014-06-15T14:23:27Z</time>
      </trkpt>
      <trkpt lat="59.9070942" lon="17.6524093">
        <ele>32.3416</ele>
        <time>2014-06-15T14:23:28Z</time>
      </trkpt>
      <trkpt lat="59.9070864" lon="17.652278">
        <ele>32.3416</ele>
        <time>2014-06-15T14:23:29Z</time>
      </trkpt>
      <trkpt lat="59.9070756" lon="17.6521464">
        <ele>32.3416</ele>
        <time>2014-06-15T14:23:30Z</time>
      </trkpt>
      <trkpt lat="59.9070635" lon="17.6520151">
        <ele>32.3416</ele>
        <time>2014-06-15T14:23:31Z</time>
      </trkpt>
      <trkpt lat="59.9070493" lon="17.6518832">
        <ele>32.3416</ele>
        <time>2014-06-15T14:23:32Z</time>
      </trkpt>
      <trkpt lat="59.9070321" lon="17.6517511">
        <ele>32.3416</ele>
        <time>2014-06-15T14:23:33Z</time>
      </trkpt>
      <trkpt lat="59.9070113" lon="17.651619">
        <ele>31.8607</ele>
        <time>2014-06-15T14:23:34Z</time>
      </trkpt>
      <trkpt lat="59.9069866" lon="17.6514872">
        <ele>31.8607</ele>
        <time>2014-06-15T14:23:35Z</time>
      </trkpt>
      <trkpt lat="59.9069599" lon="17.6513546">
        <ele>31.8607</ele>
        <time>2014-06-15T14:23:36Z</time>
      </trkpt>
      <trkpt lat="59.9069331" lon="17.6512226">
        <ele>31.8607</ele>
        <time>2014-06-15T14:23:37Z</time>
      </trkpt>
      <trkpt lat="59.9069042" lon="17.651089">
        <ele>31.8607</ele>
        <time>2014-06-15T14:23:38Z</time>
      </trkpt>
      <trkpt lat="59.9068745" lon="17.6509538">
        <ele>31.8607</ele>
        <time>2014-06-15T14:23:39Z</time>
      </trkpt>
      <trkpt lat="59.9068436" lon="17.6508185">
        <ele>31.8607</ele>
        <time>2014-06-15T14:23:40Z</time>
      </trkpt>
      <trkpt lat="59.9068126" lon="17.650684">
        <ele>31.3801</ele>
        <time>2014-06-15T14:23:41Z</time>
      </trkpt>
      <trkpt lat="59.9067814" lon="17.6505497">
        <ele>31.3801</ele>
        <time>2014-06-15T14:23:42Z</time>
      </trkpt>
      <trkpt lat="59.9067497" lon="17.6504142">
        <ele>31.3801</ele>
        <time>2014-06-15T14:23:43Z</time>
      </trkpt>
      <trkpt lat="59.9067168" lon="17.6502788">
        <ele>31.3801</ele>
        <time>2014-06-15T14:23:44Z</time>
      </trkpt>
      <trkpt lat="59.9066835" lon="17.650143">
        <ele>31.3801</ele>
        <time>2014-06-15T14:23:45Z</time>
      </trkpt>
      <trkpt lat="59.9066505" lon="17.650005">
        <ele>31.3801</ele>
        <time>2014-06-15T14:23:46Z</time>
      </trkpt>
      <trkpt lat="59.9066172" lon="17.6498641">
        <ele>31.3801</ele>
        <time>2014-06-15T14:23:47Z</time>
      </trkpt>
      <trkpt lat="59.906583" lon="17.6497204">
        <ele>30.8995</ele>
        <time>2014-06-15T14:23:48Z</time>
      </trkpt>
      <trkpt lat="59.9065478" lon="17.6495743">
        <ele>30.8995</ele>
        <time>2014-06-15T14:23:49Z</time>
      </trkpt>
      <trkpt lat="59.9065105" lon="17.6494286">
        <ele>30.8995</ele>
        <time>2014-06-15T14:23:50Z</time>
      </trkpt>
      <trkpt lat="59.9064702" lon="17.6492851">
        <ele>30.4188</ele>
        <time>2014-06-15T14:23:51Z</time>
      </trkpt>
      <trkpt lat="59.9064274" lon="17.6491453">
        <ele>30.4188</ele>
        <time>2014-06-15T14:23:52Z</time>
      </trkpt>
      <trkpt lat="59.906382" lon="17.6490096">
        <ele>30.4188</ele>
        <time>2014-06-15T14:23:53Z</time>
      </trkpt>
      <trkpt lat="59.9063349" lon="17.6488778">
        <ele>30.4188</ele>
        <time>2014-06-15T14:23:54Z</time>
      </trkpt>
      <trkpt lat="59.9062862" lon="17.648751">
        <ele>30.4188</ele>
        <time>2014-06-15T14:23:55Z</time>
      </trkpt>
      <trkpt lat="59.9062369" lon="17.6486274">
        <ele>29.9381</ele>
        <time>2014-06-15T14:23:56Z</time>
      </trkpt>
      <trkpt lat="59.9061899" lon="17.6485036">
        <ele>29.9381</ele>
        <time>2014-06-15T14:23:57Z</time>
      </trkpt>
      <trkpt lat="59.9061465" lon="17.6483779">
        <ele>29.9381</ele>
        <time>2014-06-15T14:23:58Z</time>
      </trkpt>
      <trkpt lat="59.9061069" lon="17.6482502">
        <ele>29.9381</ele>
        <time>2014-06-15T14:23:59Z</time>
      </trkpt>
      <trkpt lat="59.9060707" lon="17.6481207">
        <ele>30.4188</ele>
        <time>2014-06-15T14:24:00Z</time>
      </trkpt>
      <trkpt lat="59.9060384" lon="17.6479898">
        <ele>30.4188</ele>
        <time>2014-06-15T14:24:01Z</time>
      </trkpt>
      <trkpt lat="59.9060111" lon="17.6478561">
        <ele>30.4188</ele>
        <time>2014-06-15T14:24:02Z</time>
      </trkpt>
      <trkpt lat="59.9059899" lon="17.6477194">
        <ele>30.4188</ele>
        <time>2014-06-15T14:24:03Z</time>
      </trkpt>
      <trkpt lat="59.9059747" lon="17.647579">
        <ele>30.4188</ele>
        <time>2014-06-15T14:24:04Z</time>
      </trkpt>
      <trkpt lat="59.9059657" lon="17.6474364">
        <ele>30.4188</ele>
        <time>2014-06-15T14:24:05Z</time>
      </trkpt>
      <trkpt lat="59.905961" lon="17.6472931">
        <ele>30.4188</ele>
        <time>2014-06-15T14:24:06Z</time>
      </trkpt>
      <trkpt lat="59.9059602" lon="17.6471506">
        <ele>30.4188</ele>
        <time>2014-06-15T14:24:07Z</time>
      </trkpt>
      <trkpt lat="59.9059638" lon="17.6470109">
        <ele>30.4188</ele>
        <time>2014-06-15T14:24:08Z</time>
      </trkpt>
      <trkpt lat="59.9059702" lon="17.6468748">
        <ele>30.4188</ele>
        <time>2014-06-15T14:24:09Z</time>
      </trkpt>
      <trkpt lat="59.905978" lon="17.6467425">
        <ele>30.4188</ele>
        <time>2014-06-15T14:24:10Z</time>
      </trkpt>
      <trkpt lat="59.9059878" lon="17.6466195">
        <ele>30.4188</ele>
        <time>2014-06-15T14:24:11Z</time>
      </trkpt>
      <trkpt lat="59.9059997" lon="17.6465046">
        <ele>30.4188</ele>
        <time>2014-06-15T14:24:12Z</time>
      </trkpt>
      <trkpt lat="59.9060128" lon="17.6463943">
        <ele>30.8995</ele>
        <time>2014-06-15T14:24:13Z</time>
      </trkpt>
      <trkpt lat="59.9060251" lon="17.6462886">
        <ele>30.8995</ele>
        <time>2014-06-15T14:24:14Z</time>
      </trkpt>
      <trkpt lat="59.906038" lon="17.6461906">
        <ele>30.4188</ele>
        <time>2014-06-15T14:24:15Z</time>
      </trkpt>
      <trkpt lat="59.9060508" lon="17.6460992">
        <ele>30.4188</ele>
        <time>2014-06-15T14:24:16Z</time>
      </trkpt>
      <trkpt lat="59.906066" lon="17.646012">
        <ele>30.4188</ele>
        <time>2014-06-15T14:24:17Z</time>
      </trkpt>
      <trkpt lat="59.9060831" lon="17.6459251">
        <ele>30.4188</ele>
        <time>2014-06-15T14:24:18Z</time>
      </trkpt>
      <trkpt lat="59.9061008" lon="17.645837">
        <ele>29.9381</ele>
        <time>2014-06-15T14:24:19Z</time>
      </trkpt>
      <trkpt lat="59.9061179" lon="17.6457489">
        <ele>29.9381</ele>
        <time>2014-06-15T14:24:20Z</time>
      </trkpt>
      <trkpt lat="59.9061334" lon="17.6456593">
        <ele>29.9381</ele>
        <time>2014-06-15T14:24:21Z</time>
      </trkpt>
      <trkpt lat="59.9061469" lon="17.6455654">
        <ele>29.9381</ele>
        <time>2014-06-15T14:24:22Z</time>
      </trkpt>
      <trkpt lat="59.9061581" lon="17.6454655">
        <ele>29.4575</ele>
        <time>2014-06-15T14:24:23Z</time>
      </trkpt>
      <trkpt lat="59.9061674" lon="17.6453599">
        <ele>29.4575</ele>
        <time>2014-06-15T14:24:24Z</time>
      </trkpt>
      <trkpt lat="59.9061752" lon="17.6452484">
        <ele>29.4575</ele>
        <time>2014-06-15T14:24:25Z</time>
      </trkpt>
      <trkpt lat="59.9061808" lon="17.645131">
        <ele>28.9769</ele>
        <time>2014-06-15T14:24:26Z</time>
      </trkpt>
      <trkpt lat="59.9061821" lon="17.6450102">
        <ele>28.9769</ele>
        <time>2014-06-15T14:24:27Z</time>
      </trkpt>
      <trkpt lat="59.906177" lon="17.644888">
        <ele>28.4962</ele>
        <time>2014-06-15T14:24:28Z</time>
      </trkpt>
      <trkpt lat="59.906167" lon="17.644766">
        <ele>28.4962</ele>
        <time>2014-06-15T14:24:29Z</time>
      </trkpt>
      <trkpt lat="59.9061515" lon="17.644646">
        <ele>28.4962</ele>
        <time>2014-06-15T14:24:30Z</time>
      </trkpt>
      <trkpt lat="59.9061293" lon="17.6445295">
        <ele>28.0155</ele>
        <time>2014-06-15T14:24:31Z</time>
      </trkpt>
      <trkpt lat="59.9061017" lon="17.6444174">
        <ele>28.0155</ele>
        <time>2014-06-15T14:24:32Z</time>
      </trkpt>
      <trkpt lat="59.9060708" lon="17.6443081">
        <ele>28.0155</ele>
        <time>2014-06-15T14:24:33Z</time>
      </trkpt>
      <trkpt lat="59.9060376" lon="17.6442006">
        <ele>28.0155</ele>
        <time>2014-06-15T14:24:34Z</time>
      </trkpt>
      <trkpt lat="59.9060065" lon="17.6440898">
        <ele>28.0155</ele>
        <time>2014-06-15T14:24:35Z</time>
      </trkpt>
      <trkpt lat="59.9059781" lon="17.6439768">
        <ele>27.5349</ele>
        <time>2014-06-15T14:24:36Z</time>
      </trkpt>
      <trkpt lat="59.9059454" lon="17.6438712">
        <ele>27.5349</ele>
        <time>2014-06-15T14:24:37Z</time>
      </trkpt>
      <trkpt lat="59.9059091" lon="17.6437707">
        <ele>27.5349</ele>
        <time>2014-06-15T14:24:38Z</time>
      </trkpt>
      <trkpt lat="59.9058801" lon="17.6436696">
        <ele>27.5349</ele>
        <time>2014-06-15T14:24:39Z</time>
      </trkpt>
      <trkpt lat="59.9058649" lon="17.6435739">
        <ele>27.5349</ele>
        <time>2014-06-15T14:24:40Z</time>
      </trkpt>
      <trkpt lat="59.9058651" lon="17.6434893">
        <ele>27.5349</ele>
        <time>2014-06-15T14:24:41Z</time>
      </trkpt>
      <trkpt lat="59.9058815" lon="17.6434183">
        <ele>27.5349</ele>
        <time>2014-06-15T14:24:42Z</time>
      </trkpt>
      <trkpt lat="59.9059113" lon="17.6433669">
        <ele>27.5349</ele>
        <time>2014-06-15T14:24:43Z</time>
      </trkpt>
      <trkpt lat="59.9059522" lon="17.6433477">
        <ele>28.0155</ele>
        <time>2014-06-15T14:24:44Z</time>
      </trkpt>
      <trkpt lat="59.905999" lon="17.643361">
        <ele>28.0155</ele>
        <time>2014-06-15T14:24:45Z</time>
      </trkpt>
      <trkpt lat="59.906046" lon="17.643383">
        <ele>28.0155</ele>
        <time>2014-06-15T14:24:46Z</time>
      </trkpt>
      <trkpt lat="59.9060955" lon="17.6434058">
        <ele>28.0155</ele>
        <time>2014-06-15T14:24:47Z</time>
      </trkpt>
      <trkpt lat="59.9061465" lon="17.6434306">
        <ele>28.0155</ele>
        <time>2014-06-15T14:24:48Z</time>
      </trkpt>
      <trkpt lat="59.9061986" lon="17.6434556">
        <ele>28.0155</ele>
        <time>2014-06-15T14:24:49Z</time>
      </trkpt>
      <trkpt lat="59.9062487" lon="17.643479">
        <ele>28.0155</ele>
        <time>2014-06-15T14:24:50Z</time>
      </trkpt>
      <trkpt lat="59.9062987" lon="17.6435017">
        <ele>28.0155</ele>
        <time>2014-06-15T14:24:51Z</time>
      </trkpt>
      <trkpt lat="59.906349" lon="17.6435212">
        <ele>27.5349</ele>
        <time>2014-06-15T14:24:52Z</time>
      </trkpt>
      <trkpt lat="59.9063997" lon="17.6435433">
        <ele>27.5349</ele>
        <time>2014-06-15T14:24:53Z</time>
      </trkpt>
      <trkpt lat="59.9064504" lon="17.6435686">
        <ele>27.5349</ele>
        <time>2014-06-15T14:24:54Z</time>
      </trkpt>
      <trkpt lat="59.9065017" lon="17.6435902">
        <ele>28.0155</ele>
        <time>2014-06-15T14:24:55Z</time>
      </trkpt>
      <trkpt lat="59.906554" lon="17.6436062">
        <ele>28.0155</ele>
        <time>2014-06-15T14:24:56Z</time>
      </trkpt>
      <trkpt lat="59.9066064" lon="17.6436223">
        <ele>28.0155</ele>
        <time>2014-06-15T14:24:57Z</time>
      </trkpt>
      <trkpt lat="59.906658" lon="17.6436425">
        <ele>28.0155</ele>
        <time>2014-06-15T14:24:58Z</time>
      </trkpt>
      <trkpt lat="59.9067094" lon="17.6436619">
        <ele>28.0155</ele>
        <time>2014-06-15T14:24:59Z</time>
      </trkpt>
      <trkpt lat="59.9067606" lon="17.6436783">
        <ele>28.0155</ele>
        <time>2014-06-15T14:25:00Z</time>
      </trkpt>
      <trkpt lat="59.9068121" lon="17.6436933">
        <ele>28.0155</ele>
        <time>2014-06-15T14:25:01Z</time>
      </trkpt>
      <trkpt lat="59.9068636" lon="17.6437074">
        <ele>28.0155</ele>
        <time>2014-06-15T14:25:02Z</time>
      </trkpt>
      <trkpt lat="59.9069144" lon="17.6437207">
        <ele>28.0155</ele>
        <time>2014-06-15T14:25:03Z</time>
      </trkpt>
      <trkpt lat="59.9069647" lon="17.6437316">
        <ele>28.0155</ele>
        <time>2014-06-15T14:25:04Z</time>
      </trkpt>
      <trkpt lat="59.9070145" lon="17.6437421">
        <ele>28.4962</ele>
        <time>2014-06-15T14:25:05Z</time>
      </trkpt>
      <trkpt lat="59.9070639" lon="17.6437531">
        <ele>28.4962</ele>
        <time>2014-06-15T14:25:06Z</time>
      </trkpt>
      <trkpt lat="59.907114" lon="17.6437644">
        <ele>28.4962</ele>
        <time>2014-06-15T14:25:07Z</time>
      </trkpt>
      <trkpt lat="59.9071649" lon="17.6437771">
        <ele>28.4962</ele>
        <time>2014-06-15T14:25:08Z</time>
      </trkpt>
      <trkpt lat="59.9072163" lon="17.6437887">
        <ele>28.4962</ele>
        <time>2014-06-15T14:25:09Z</time>
      </trkpt>
      <trkpt lat="59.9072681" lon="17.6438002">
        <ele>28.4962</ele>
        <time>2014-06-15T14:25:10Z</time>
      </trkpt>
      <trkpt lat="59.90732" lon="17.643814">
        <ele>28.4962</ele>
        <time>2014-06-15T14:25:11Z</time>
      </trkpt>
      <trkpt lat="59.907372" lon="17.643826">
        <ele>28.4962</ele>
        <time>2014-06-15T14:25:12Z</time>
      </trkpt>
      <trkpt lat="59.9074252" lon="17.6438372">
        <ele>28.4962</ele>
        <time>2014-06-15T14:25:13Z</time>
      </trkpt>
      <trkpt lat="59.9074795" lon="17.6438483">
        <ele>28.9769</ele>
        <time>2014-06-15T14:25:14Z</time>
      </trkpt>
      <trkpt lat="59.9075346" lon="17.6438585">
        <ele>28.9769</ele>
        <time>2014-06-15T14:25:15Z</time>
      </trkpt>
      <trkpt lat="59.9075894" lon="17.6438693">
        <ele>28.9769</ele>
        <time>2014-06-15T14:25:16Z</time>
      </trkpt>
      <trkpt lat="59.9076429" lon="17.6438795">
        <ele>28.9769</ele>
        <time>2014-06-15T14:25:17Z</time>
      </trkpt>
      <trkpt lat="59.9076952" lon="17.6438891">
        <ele>28.9769</ele>
        <time>2014-06-15T14:25:18Z</time>
      </trkpt>
      <trkpt lat="59.9077475" lon="17.6438984">
        <ele>28.9769</ele>
        <time>2014-06-15T14:25:19Z</time>
      </trkpt>
      <trkpt lat="59.9077996" lon="17.6439073">
        <ele>28.9769</ele>
        <time>2014-06-15T14:25:20Z</time>
      </trkpt>
      <trkpt lat="59.9078519" lon="17.6439156">
        <ele>28.9769</ele>
        <time>2014-06-15T14:25:21Z</time>
      </trkpt>
      <trkpt lat="59.9079048" lon="17.6439227">
        <ele>29.4575</ele>
        <time>2014-06-15T14:25:22Z</time>
      </trkpt>
      <trkpt lat="59.9079583" lon="17.6439286">
        <ele>29.4575</ele>
        <time>2014-06-15T14:25:23Z</time>
      </trkpt>
      <trkpt lat="59.9080115" lon="17.6439342">
        <ele>29.4575</ele>
        <time>2014-06-15T14:25:24Z</time>
      </trkpt>
      <trkpt lat="59.908065" lon="17.643939">
        <ele>29.4575</ele>
        <time>2014-06-15T14:25:25Z</time>
      </trkpt>
      <trkpt lat="59.9081198" lon="17.6439445">
        <ele>29.4575</ele>
        <time>2014-06-15T14:25:26Z</time>
      </trkpt>
      <trkpt lat="59.9081767" lon="17.6439503">
        <ele>29.4575</ele>
        <time>2014-06-15T14:25:27Z</time>
      </trkpt>
      <trkpt lat="59.908235" lon="17.643955">
        <ele>29.4575</ele>
        <time>2014-06-15T14:25:28Z</time>
      </trkpt>
      <trkpt lat="59.9082945" lon="17.6439597">
        <ele>29.4575</ele>
        <time>2014-06-15T14:25:29Z</time>
      </trkpt>
      <trkpt lat="59.9083545" lon="17.6439642">
        <ele>29.4575</ele>
        <time>2014-06-15T14:25:30Z</time>
      </trkpt>
      <trkpt lat="59.9084147" lon="17.6439674">
        <ele>29.9381</ele>
        <time>2014-06-15T14:25:31Z</time>
      </trkpt>
      <trkpt lat="59.9084748" lon="17.6439698">
        <ele>29.9381</ele>
        <time>2014-06-15T14:25:32Z</time>
      </trkpt>
      <trkpt lat="59.9085347" lon="17.6439711">
        <ele>29.9381</ele>
        <time>2014-06-15T14:25:33Z</time>
      </trkpt>
      <trkpt lat="59.9085943" lon="17.6439715">
        <ele>29.9381</ele>
        <time>2014-06-15T14:25:34Z</time>
      </trkpt>
      <trkpt lat="59.9086533" lon="17.6439719">
        <ele>29.9381</ele>
        <time>2014-06-15T14:25:35Z</time>
      </trkpt>
      <trkpt lat="59.9087113" lon="17.6439735">
        <ele>29.9381</ele>
        <time>2014-06-15T14:25:36Z</time>
      </trkpt>
      <trkpt lat="59.9087678" lon="17.6439746">
        <ele>29.9381</ele>
        <time>2014-06-15T14:25:37Z</time>
      </trkpt>
      <trkpt lat="59.9088237" lon="17.6439752">
        <ele>29.9381</ele>
        <time>2014-06-15T14:25:38Z</time>
      </trkpt>
      <trkpt lat="59.9088793" lon="17.6439752">
        <ele>29.9381</ele>
        <time>2014-06-15T14:25:39Z</time>
      </trkpt>
      <trkpt lat="59.9089342" lon="17.6439745">
        <ele>29.9381</ele>
        <time>2014-06-15T14:25:40Z</time>
      </trkpt>
      <trkpt lat="59.908989" lon="17.6439734">
        <ele>29.9381</ele>
        <time>2014-06-15T14:25:41Z</time>
      </trkpt>
      <trkpt lat="59.9090441" lon="17.6439717">
        <ele>29.9381</ele>
        <time>2014-06-15T14:25:42Z</time>
      </trkpt>
      <trkpt lat="59.9091003" lon="17.6439695">
        <ele>29.9381</ele>
        <time>2014-06-15T14:25:43Z</time>
      </trkpt>
      <trkpt lat="59.9091569" lon="17.6439686">
        <ele>30.4188</ele>
        <time>2014-06-15T14:25:44Z</time>
      </trkpt>
      <trkpt lat="59.9092143" lon="17.6439679">
        <ele>30.4188</ele>
        <time>2014-06-15T14:25:45Z</time>
      </trkpt>
      <trkpt lat="59.9092723" lon="17.6439646">
        <ele>30.4188</ele>
        <time>2014-06-15T14:25:46Z</time>
      </trkpt>
      <trkpt lat="59.909331" lon="17.6439596">
        <ele>30.4188</ele>
        <time>2014-06-15T14:25:47Z</time>
      </trkpt>
      <trkpt lat="59.9093896" lon="17.6439544">
        <ele>30.4188</ele>
        <time>2014-06-15T14:25:48Z</time>
      </trkpt>
      <trkpt lat="59.9094481" lon="17.6439479">
        <ele>30.4188</ele>
        <time>2014-06-15T14:25:49Z</time>
      </trkpt>
      <trkpt lat="59.9095062" lon="17.6439404">
        <ele>30.4188</ele>
        <time>2014-06-15T14:25:50Z</time>
      </trkpt>
      <trkpt lat="59.9095642" lon="17.6439341">
        <ele>30.4188</ele>
        <time>2014-06-15T14:25:51Z</time>
      </trkpt>
      <trkpt lat="59.909622" lon="17.6439277">
        <ele>30.4188</ele>
        <time>2014-06-15T14:25:52Z</time>
      </trkpt>
      <trkpt lat="59.9096797" lon="17.6439203">
        <ele>30.8995</ele>
        <time>2014-06-15T14:25:53Z</time>
      </trkpt>
      <trkpt lat="59.9097373" lon="17.6439126">
        <ele>30.8995</ele>
        <time>2014-06-15T14:25:54Z</time>
      </trkpt>
      <trkpt lat="59.9097948" lon="17.6439049">
        <ele>30.8995</ele>
        <time>2014-06-15T14:25:55Z</time>
      </trkpt>
      <trkpt lat="59.9098518" lon="17.6438958">
        <ele>30.8995</ele>
        <time>2014-06-15T14:25:56Z</time>
      </trkpt>
      <trkpt lat="59.9099087" lon="17.6438861">
        <ele>30.8995</ele>
        <time>2014-06-15T14:25:57Z</time>
      </trkpt>
      <trkpt lat="59.9099659" lon="17.6438772">
        <ele>30.8995</ele>
        <time>2014-06-15T14:25:58Z</time>
      </trkpt>
      <trkpt lat="59.9100237" lon="17.6438674">
        <ele>30.8995</ele>
        <time>2014-06-15T14:25:59Z</time>
      </trkpt>
      <trkpt lat="59.9100817" lon="17.6438575">
        <ele>30.8995</ele>
        <time>2014-06-15T14:26:00Z</time>
      </trkpt>
      <trkpt lat="59.9101397" lon="17.6438473">
        <ele>30.8995</ele>
        <time>2014-06-15T14:26:01Z</time>
      </trkpt>
      <trkpt lat="59.9101978" lon="17.6438359">
        <ele>30.8995</ele>
        <time>2014-06-15T14:26:02Z</time>
      </trkpt>
      <trkpt lat="59.910256" lon="17.643825">
        <ele>30.8995</ele>
        <time>2014-06-15T14:26:03Z</time>
      </trkpt>
      <trkpt lat="59.9103135" lon="17.6438141">
        <ele>30.8995</ele>
        <time>2014-06-15T14:26:04Z</time>
      </trkpt>
      <trkpt lat="59.9103711" lon="17.6438026">
        <ele>30.8995</ele>
        <time>2014-06-15T14:26:05Z</time>
      </trkpt>
      <trkpt lat="59.9104293" lon="17.6437908">
        <ele>30.8995</ele>
        <time>2014-06-15T14:26:06Z</time>
      </trkpt>
      <trkpt lat="59.9104879" lon="17.643779">
        <ele>30.8995</ele>
        <time>2014-06-15T14:26:07Z</time>
      </trkpt>
      <trkpt lat="59.9105475" lon="17.6437671">
        <ele>30.8995</ele>
        <time>2014-06-15T14:26:08Z</time>
      </trkpt>
      <trkpt lat="59.910608" lon="17.6437556">
        <ele>30.8995</ele>
        <time>2014-06-15T14:26:09Z</time>
      </trkpt>
      <trkpt lat="59.9106689" lon="17.6437445">
        <ele>30.8995</ele>
        <time>2014-06-15T14:26:10Z</time>
      </trkpt>
      <trkpt lat="59.9107295" lon="17.6437316">
        <ele>30.8995</ele>
        <time>2014-06-15T14:26:11Z</time>
      </trkpt>
      <trkpt lat="59.9107893" lon="17.6437165">
        <ele>30.8995</ele>
        <time>2014-06-15T14:26:12Z</time>
      </trkpt>
      <trkpt lat="59.9108474" lon="17.6436959">
        <ele>30.4188</ele>
        <time>2014-06-15T14:26:13Z</time>
      </trkpt>
      <trkpt lat="59.9109041" lon="17.643664">
        <ele>30.8995</ele>
        <time>2014-06-15T14:26:14Z</time>
      </trkpt>
      <trkpt lat="59.9109607" lon="17.6436281">
        <ele>30.8995</ele>
        <time>2014-06-15T14:26:15Z</time>
      </trkpt>
      <trkpt lat="59.9110168" lon="17.6435945">
        <ele>30.8995</ele>
        <time>2014-06-15T14:26:16Z</time>
      </trkpt>
      <trkpt lat="59.911074" lon="17.643565">
        <ele>30.8995</ele>
        <time>2014-06-15T14:26:17Z</time>
      </trkpt>
      <trkpt lat="59.9111312" lon="17.643543">
        <ele>30.8995</ele>
        <time>2014-06-15T14:26:18Z</time>
      </trkpt>
      <trkpt lat="59.9111871" lon="17.6435269">
        <ele>30.8995</ele>
        <time>2014-06-15T14:26:19Z</time>
      </trkpt>
      <trkpt lat="59.9112414" lon="17.6435133">
        <ele>30.8995</ele>
        <time>2014-06-15T14:26:20Z</time>
      </trkpt>
      <trkpt lat="59.911292" lon="17.6434915">
        <ele>30.8995</ele>
        <time>2014-06-15T14:26:21Z</time>
      </trkpt>
      <trkpt lat="59.9113345" lon="17.6434432">
        <ele>30.4188</ele>
        <time>2014-06-15T14:26:22Z</time>
      </trkpt>
      <trkpt lat="59.9113725" lon="17.6433781">
        <ele>30.4188</ele>
        <time>2014-06-15T14:26:23Z</time>
      </trkpt>
      <trkpt lat="59.9114176" lon="17.6433296">
        <ele>30.4188</ele>
        <time>2014-06-15T14:26:24Z</time>
      </trkpt>
      <trkpt lat="59.91147" lon="17.6433081">
        <ele>30.4188</ele>
        <time>2014-06-15T14:26:25Z</time>
      </trkpt>
      <trkpt lat="59.9115265" lon="17.6433008">
        <ele>30.4188</ele>
        <time>2014-06-15T14:26:26Z</time>
      </trkpt>
      <trkpt lat="59.9115856" lon="17.6432956">
        <ele>30.4188</ele>
        <time>2014-06-15T14:26:27Z</time>
      </trkpt>
      <trkpt lat="59.9116466" lon="17.6432864">
        <ele>30.4188</ele>
        <time>2014-06-15T14:26:28Z</time>
      </trkpt>
      <trkpt lat="59.9117091" lon="17.6432754">
        <ele>30.4188</ele>
        <time>2014-06-15T14:26:29Z</time>
      </trkpt>
      <trkpt lat="59.9117714" lon="17.6432643">
        <ele>30.4188</ele>
        <time>2014-06-15T14:26:30Z</time>
      </trkpt>
      <trkpt lat="59.9118324" lon="17.6432513">
        <ele>30.4188</ele>
        <time>2014-06-15T14:26:31Z</time>
      </trkpt>
      <trkpt lat="59.9118912" lon="17.6432364">
        <ele>30.4188</ele>
        <time>2014-06-15T14:26:32Z</time>
      </trkpt>
      <trkpt lat="59.9119499" lon="17.6432216">
        <ele>30.4188</ele>
        <time>2014-06-15T14:26:33Z</time>
      </trkpt>
      <trkpt lat="59.9120083" lon="17.643206">
        <ele>30.4188</ele>
        <time>2014-06-15T14:26:34Z</time>
      </trkpt>
      <trkpt lat="59.9120681" lon="17.6431893">
        <ele>30.4188</ele>
        <time>2014-06-15T14:26:35Z</time>
      </trkpt>
      <trkpt lat="59.9121307" lon="17.6431707">
        <ele>29.9381</ele>
        <time>2014-06-15T14:26:36Z</time>
      </trkpt>
      <trkpt lat="59.9121962" lon="17.6431499">
        <ele>29.9381</ele>
        <time>2014-06-15T14:26:37Z</time>
      </trkpt>
      <trkpt lat="59.9122646" lon="17.6431283">
        <ele>29.9381</ele>
        <time>2014-06-15T14:26:38Z</time>
      </trkpt>
      <trkpt lat="59.9123341" lon="17.6431091">
        <ele>29.4575</ele>
        <time>2014-06-15T14:26:39Z</time>
      </trkpt>
      <trkpt lat="59.9124032" lon="17.643092">
        <ele>29.4575</ele>
        <time>2014-06-15T14:26:40Z</time>
      </trkpt>
      <trkpt lat="59.9124718" lon="17.6430791">
        <ele>29.4575</ele>
        <time>2014-06-15T14:26:41Z</time>
      </trkpt>
      <trkpt lat="59.9125395" lon="17.6430759">
        <ele>29.4575</ele>
        <time>2014-06-15T14:26:42Z</time>
      </trkpt>
      <trkpt lat="59.9126055" lon="17.6430863">
        <ele>29.4575</ele>
        <time>2014-06-15T14:26:43Z</time>
      </trkpt>
      <trkpt lat="59.9126676" lon="17.6431091">
        <ele>29.9381</ele>
        <time>2014-06-15T14:26:44Z</time>
      </trkpt>
      <trkpt lat="59.9127214" lon="17.6431354">
        <ele>30.4188</ele>
        <time>2014-06-15T14:26:45Z</time>
      </trkpt>
      <trkpt lat="59.9127691" lon="17.6431526">
        <ele>30.4188</ele>
        <time>2014-06-15T14:26:46Z</time>
      </trkpt>
      <trkpt lat="59.9128152" lon="17.6431583">
        <ele>30.8995</ele>
        <time>2014-06-15T14:26:47Z</time>
      </trkpt>
      <trkpt lat="59.9128624" lon="17.6431566">
        <ele>30.8995</ele>
        <time>2014-06-15T14:26:48Z</time>
      </trkpt>
      <trkpt lat="59.9129106" lon="17.6431484">
        <ele>30.8995</ele>
        <time>2014-06-15T14:26:49Z</time>
      </trkpt>
      <trkpt lat="59.9129598" lon="17.643138">
        <ele>30.8995</ele>
        <time>2014-06-15T14:26:50Z</time>
      </trkpt>
      <trkpt lat="59.9130101" lon="17.6431309">
        <ele>30.8995</ele>
        <time>2014-06-15T14:26:51Z</time>
      </trkpt>
      <trkpt lat="59.9130611" lon="17.6431231">
        <ele>30.8995</ele>
        <time>2014-06-15T14:26:52Z</time>
      </trkpt>
      <trkpt lat="59.9131131" lon="17.6431127">
        <ele>30.8995</ele>
        <time>2014-06-15T14:26:53Z</time>
      </trkpt>
      <trkpt lat="59.9131659" lon="17.643105">
        <ele>30.4188</ele>
        <time>2014-06-15T14:26:54Z</time>
      </trkpt>
      <trkpt lat="59.9132203" lon="17.6430961">
        <ele>30.4188</ele>
        <time>2014-06-15T14:26:55Z</time>
      </trkpt>
      <trkpt lat="59.9132765" lon="17.6430847">
        <ele>30.4188</ele>
        <time>2014-06-15T14:26:56Z</time>
      </trkpt>
      <trkpt lat="59.9133332" lon="17.6430704">
        <ele>30.4188</ele>
        <time>2014-06-15T14:26:57Z</time>
      </trkpt>
      <trkpt lat="59.913391" lon="17.643053">
        <ele>30.4188</ele>
        <time>2014-06-15T14:26:58Z</time>
      </trkpt>
      <trkpt lat="59.9134496" lon="17.6430371">
        <ele>30.4188</ele>
        <time>2014-06-15T14:26:59Z</time>
      </trkpt>
      <trkpt lat="59.9135069" lon="17.6430255">
        <ele>29.9381</ele>
        <time>2014-06-15T14:27:00Z</time>
      </trkpt>
      <trkpt lat="59.9135663" lon="17.643016">
        <ele>29.9381</ele>
        <time>2014-06-15T14:27:01Z</time>
      </trkpt>
      <trkpt lat="59.9136273" lon="17.6430069">
        <ele>29.9381</ele>
        <time>2014-06-15T14:27:02Z</time>
      </trkpt>
      <trkpt lat="59.9136894" lon="17.642995">
        <ele>29.9381</ele>
        <time>2014-06-15T14:27:03Z</time>
      </trkpt>
      <trkpt lat="59.9137538" lon="17.6429827">
        <ele>29.9381</ele>
        <time>2014-06-15T14:27:04Z</time>
      </trkpt>
      <trkpt lat="59.9138202" lon="17.6429713">
        <ele>29.9381</ele>
        <time>2014-06-15T14:27:05Z</time>
      </trkpt>
      <trkpt lat="59.9138875" lon="17.6429599">
        <ele>29.4575</ele>
        <time>2014-06-15T14:27:06Z</time>
      </trkpt>
      <trkpt lat="59.9139558" lon="17.642948">
        <ele>29.4575</ele>
        <time>2014-06-15T14:27:07Z</time>
      </trkpt>
      <trkpt lat="59.9140254" lon="17.6429344">
        <ele>29.9381</ele>
        <time>2014-06-15T14:27:08Z</time>
      </trkpt>
      <trkpt lat="59.9140938" lon="17.6429203">
        <ele>29.4575</ele>
        <time>2014-06-15T14:27:09Z</time>
      </trkpt>
      <trkpt lat="59.9141634" lon="17.6429074">
        <ele>29.4575</ele>
        <time>2014-06-15T14:27:10Z</time>
      </trkpt>
      <trkpt lat="59.9142351" lon="17.6428941">
        <ele>29.4575</ele>
        <time>2014-06-15T14:27:11Z</time>
      </trkpt>
      <trkpt lat="59.9143071" lon="17.6428807">
        <ele>29.4575</ele>
        <time>2014-06-15T14:27:12Z</time>
      </trkpt>
      <trkpt lat="59.9143784" lon="17.6428675">
        <ele>28.9769</ele>
        <time>2014-06-15T14:27:13Z</time>
      </trkpt>
      <trkpt lat="59.9144494" lon="17.6428563">
        <ele>28.9769</ele>
        <time>2014-06-15T14:27:14Z</time>
      </trkpt>
      <trkpt lat="59.9145198" lon="17.6428449">
        <ele>28.9769</ele>
        <time>2014-06-15T14:27:15Z</time>
      </trkpt>
      <trkpt lat="59.9145904" lon="17.6428314">
        <ele>28.9769</ele>
        <time>2014-06-15T14:27:16Z</time>
      </trkpt>
      <trkpt lat="59.9146617" lon="17.6428185">
        <ele>28.4962</ele>
        <time>2014-06-15T14:27:17Z</time>
      </trkpt>
      <trkpt lat="59.9147342" lon="17.6428075">
        <ele>28.4962</ele>
        <time>2014-06-15T14:27:18Z</time>
      </trkpt>
      <trkpt lat="59.9148074" lon="17.6427971">
        <ele>28.4962</ele>
        <time>2014-06-15T14:27:19Z</time>
      </trkpt>
      <trkpt lat="59.9148816" lon="17.642786">
        <ele>28.4962</ele>
        <time>2014-06-15T14:27:20Z</time>
      </trkpt>
      <trkpt lat="59.9149567" lon="17.6427728">
        <ele>28.4962</ele>
        <time>2014-06-15T14:27:21Z</time>
      </trkpt>
      <trkpt lat="59.9150326" lon="17.6427568">
        <ele>28.4962</ele>
        <time>2014-06-15T14:27:22Z</time>
      </trkpt>
      <trkpt lat="59.9151079" lon="17.642738">
        <ele>28.0155</ele>
        <time>2014-06-15T14:27:23Z</time>
      </trkpt>
      <trkpt lat="59.9151826" lon="17.6427051">
        <ele>28.0155</ele>
        <time>2014-06-15T14:27:24Z</time>
      </trkpt>
      <trkpt lat="59.915258" lon="17.6426513">
        <ele>28.0155</ele>
        <time>2014-06-15T14:27:25Z</time>
      </trkpt>
      <trkpt lat="59.9153384" lon="17.6425922">
        <ele>27.5349</ele>
        <time>2014-06-15T14:27:26Z</time>
      </trkpt>
      <trkpt lat="59.9154332" lon="17.6425305">
        <ele>27.5349</ele>
        <time>2014-06-15T14:27:27Z</time>
      </trkpt>
      <trkpt lat="59.9155237" lon="17.642503">
        <ele>27.5349</ele>
        <time>2014-06-15T14:27:28Z</time>
      </trkpt>
      <trkpt lat="59.9156135" lon="17.642487">
        <ele>27.5349</ele>
        <time>2014-06-15T14:27:29Z</time>
      </trkpt>
      <trkpt lat="59.9157024" lon="17.6424775">
        <ele>27.5349</ele>
        <time>2014-06-15T14:27:30Z</time>
      </trkpt>
      <trkpt lat="59.915789" lon="17.6424704">
        <ele>27.5349</ele>
        <time>2014-06-15T14:27:31Z</time>
      </trkpt>
      <trkpt lat="59.9158744" lon="17.6424682">
        <ele>27.5349</ele>
        <time>2014-06-15T14:27:32Z</time>
      </trkpt>
      <trkpt lat="59.9159579" lon="17.6424693">
        <ele>27.5349</ele>
        <time>2014-06-15T14:27:33Z</time>
      </trkpt>
      <trkpt lat="59.9160396" lon="17.6424702">
        <ele>28.0155</ele>
        <time>2014-06-15T14:27:34Z</time>
      </trkpt>
      <trkpt lat="59.9161205" lon="17.6424697">
        <ele>28.0155</ele>
        <time>2014-06-15T14:27:35Z</time>
      </trkpt>
      <trkpt lat="59.9162009" lon="17.6424676">
        <ele>28.0155</ele>
        <time>2014-06-15T14:27:36Z</time>
      </trkpt>
      <trkpt lat="59.9162807" lon="17.6424636">
        <ele>28.0155</ele>
        <time>2014-06-15T14:27:37Z</time>
      </trkpt>
      <trkpt lat="59.91636" lon="17.6424565">
        <ele>28.0155</ele>
        <time>2014-06-15T14:27:38Z</time>
      </trkpt>
      <trkpt lat="59.9164392" lon="17.6424465">
        <ele>28.0155</ele>
        <time>2014-06-15T14:27:39Z</time>
      </trkpt>
      <trkpt lat="59.9165186" lon="17.6424342">
        <ele>28.0155</ele>
        <time>2014-06-15T14:27:40Z</time>
      </trkpt>
      <trkpt lat="59.916598" lon="17.6424217">
        <ele>28.0155</ele>
        <time>2014-06-15T14:27:41Z</time>
      </trkpt>
      <trkpt lat="59.9166779" lon="17.6424103">
        <ele>28.0155</ele>
        <time>2014-06-15T14:27:42Z</time>
      </trkpt>
      <trkpt lat="59.9167589" lon="17.6423988">
        <ele>28.0155</ele>
        <time>2014-06-15T14:27:43Z</time>
      </trkpt>
      <trkpt lat="59.9168407" lon="17.6423863">
        <ele>27.5349</ele>
        <time>2014-06-15T14:27:44Z</time>
      </trkpt>
      <trkpt lat="59.9169214" lon="17.642372">
        <ele>27.5349</ele>
        <time>2014-06-15T14:27:45Z</time>
      </trkpt>
      <trkpt lat="59.9170007" lon="17.6423544">
        <ele>27.5349</ele>
        <time>2014-06-15T14:27:46Z</time>
      </trkpt>
      <trkpt lat="59.9170784" lon="17.6423331">
        <ele>27.0543</ele>
        <time>2014-06-15T14:27:47Z</time>
      </trkpt>
      <trkpt lat="59.9171542" lon="17.6423083">
        <ele>27.0543</ele>
        <time>2014-06-15T14:27:48Z</time>
      </trkpt>
      <trkpt lat="59.9172295" lon="17.6422894">
        <ele>27.0543</ele>
        <time>2014-06-15T14:27:49Z</time>
      </trkpt>
      <trkpt lat="59.9173031" lon="17.6422865">
        <ele>27.0543</ele>
        <time>2014-06-15T14:27:50Z</time>
      </trkpt>
      <trkpt lat="59.9173732" lon="17.6422912">
        <ele>26.5736</ele>
        <time>2014-06-15T14:27:51Z</time>
      </trkpt>
      <trkpt lat="59.9174405" lon="17.6422931">
        <ele>26.5736</ele>
        <time>2014-06-15T14:27:52Z</time>
      </trkpt>
      <trkpt lat="59.9175058" lon="17.6422917">
        <ele>26.5736</ele>
        <time>2014-06-15T14:27:53Z</time>
      </trkpt>
      <trkpt lat="59.9175694" lon="17.6422901">
        <ele>27.0543</ele>
        <time>2014-06-15T14:27:54Z</time>
      </trkpt>
      <trkpt lat="59.9176311" lon="17.6422907">
        <ele>27.0543</ele>
        <time>2014-06-15T14:27:55Z</time>
      </trkpt>
      <trkpt lat="59.9176918" lon="17.6422922">
        <ele>27.0543</ele>
        <time>2014-06-15T14:27:56Z</time>
      </trkpt>
      <trkpt lat="59.9177514" lon="17.6422927">
        <ele>27.0543</ele>
        <time>2014-06-15T14:27:57Z</time>
      </trkpt>
      <trkpt lat="59.9178104" lon="17.6422912">
        <ele>27.0543</ele>
        <time>2014-06-15T14:27:58Z</time>
      </trkpt>
      <trkpt lat="59.9178684" lon="17.6422879">
        <ele>27.0543</ele>
        <time>2014-06-15T14:27:59Z</time>
      </trkpt>
      <trkpt lat="59.9179257" lon="17.6422824">
        <ele>27.0543</ele>
        <time>2014-06-15T14:28:00Z</time>
      </trkpt>
      <trkpt lat="59.9179825" lon="17.642276">
        <ele>27.0543</ele>
        <time>2014-06-15T14:28:01Z</time>
      </trkpt>
      <trkpt lat="59.9180388" lon="17.6422699">
        <ele>27.5349</ele>
        <time>2014-06-15T14:28:02Z</time>
      </trkpt>
      <trkpt lat="59.9180937" lon="17.6422648">
        <ele>27.5349</ele>
        <time>2014-06-15T14:28:03Z</time>
      </trkpt>
      <trkpt lat="59.918147" lon="17.6422601">
        <ele>27.5349</ele>
        <time>2014-06-15T14:28:04Z</time>
      </trkpt>
      <trkpt lat="59.9181985" lon="17.6422548">
        <ele>28.0155</ele>
        <time>2014-06-15T14:28:05Z</time>
      </trkpt>
      <trkpt lat="59.9182492" lon="17.6422492">
        <ele>28.0155</ele>
        <time>2014-06-15T14:28:06Z</time>
      </trkpt>
      <trkpt lat="59.9182995" lon="17.6422445">
        <ele>28.0155</ele>
        <time>2014-06-15T14:28:07Z</time>
      </trkpt>
      <trkpt lat="59.91835" lon="17.6422409">
        <ele>28.4962</ele>
        <time>2014-06-15T14:28:08Z</time>
      </trkpt>
      <trkpt lat="59.9183995" lon="17.6422353">
        <ele>28.4962</ele>
        <time>2014-06-15T14:28:09Z</time>
      </trkpt>
      <trkpt lat="59.9184492" lon="17.6422284">
        <ele>28.4962</ele>
        <time>2014-06-15T14:28:10Z</time>
      </trkpt>
      <trkpt lat="59.9184997" lon="17.6422232">
        <ele>28.4962</ele>
        <time>2014-06-15T14:28:11Z</time>
      </trkpt>
      <trkpt lat="59.9185506" lon="17.6422175">
        <ele>28.4962</ele>
        <time>2014-06-15T14:28:12Z</time>
      </trkpt>
      <trkpt lat="59.9186023" lon="17.6422108">
        <ele>28.9769</ele>
        <time>2014-06-15T14:28:13Z</time>
      </trkpt>
      <trkpt lat="59.918655" lon="17.6422041">
        <ele>28.9769</ele>
        <time>2014-06-15T14:28:14Z</time>
      </trkpt>
      <trkpt lat="59.9187081" lon="17.6421974">
        <ele>28.9769</ele>
        <time>2014-06-15T14:28:15Z</time>
      </trkpt>
      <trkpt lat="59.918762" lon="17.6421907">
        <ele>28.9769</ele>
        <time>2014-06-15T14:28:16Z</time>
      </trkpt>
      <trkpt lat="59.9188164" lon="17.6421842">
        <ele>28.9769</ele>
        <time>2014-06-15T14:28:17Z</time>
      </trkpt>
      <trkpt lat="59.9188713" lon="17.6421778">
        <ele>28.9769</ele>
        <time>2014-06-15T14:28:18Z</time>
      </trkpt>
      <trkpt lat="59.9189261" lon="17.6421713">
        <ele>28.9769</ele>
        <time>2014-06-15T14:28:19Z</time>
      </trkpt>
      <trkpt lat="59.9189809" lon="17.6421628">
        <ele>28.9769</ele>
        <time>2014-06-15T14:28:20Z</time>
      </trkpt>
      <trkpt lat="59.9190354" lon="17.6421544">
        <ele>28.9769</ele>
        <time>2014-06-15T14:28:21Z</time>
      </trkpt>
      <trkpt lat="59.9190899" lon="17.6421485">
        <ele>29.4575</ele>
        <time>2014-06-15T14:28:22Z</time>
      </trkpt>
      <trkpt lat="59.9191442" lon="17.642143">
        <ele>29.4575</ele>
        <time>2014-06-15T14:28:23Z</time>
      </trkpt>
      <trkpt lat="59.919199" lon="17.6421363">
        <ele>29.4575</ele>
        <time>2014-06-15T14:28:24Z</time>
      </trkpt>
      <trkpt lat="59.9192547" lon="17.6421295">
        <ele>28.9769</ele>
        <time>2014-06-15T14:28:25Z</time>
      </trkpt>
      <trkpt lat="59.919312" lon="17.6421234">
        <ele>28.9769</ele>
        <time>2014-06-15T14:28:26Z</time>
      </trkpt>
      <trkpt lat="59.9193702" lon="17.6421169">
        <ele>28.9769</ele>
        <time>2014-06-15T14:28:27Z</time>
      </trkpt>
      <trkpt lat="59.9194297" lon="17.6421109">
        <ele>28.9769</ele>
        <time>2014-06-15T14:28:28Z</time>
      </trkpt>
      <trkpt lat="59.9194868" lon="17.6421046">
        <ele>28.9769</ele>
        <time>2014-06-15T14:28:29Z</time>
      </trkpt>
      <trkpt lat="59.919541" lon="17.6420983">
        <ele>29.4575</ele>
        <time>2014-06-15T14:28:30Z</time>
      </trkpt>
      <trkpt lat="59.9195948" lon="17.6420948">
        <ele>28.9769</ele>
        <time>2014-06-15T14:28:31Z</time>
      </trkpt>
      <trkpt lat="59.9196503" lon="17.6420897">
        <ele>28.9769</ele>
        <time>2014-06-15T14:28:32Z</time>
      </trkpt>
      <trkpt lat="59.9197048" lon="17.6420809">
        <ele>28.9769</ele>
        <time>2014-06-15T14:28:33Z</time>
      </trkpt>
      <trkpt lat="59.9197591" lon="17.6420703">
        <ele>28.9769</ele>
        <time>2014-06-15T14:28:34Z</time>
      </trkpt>
      <trkpt lat="59.919814" lon="17.6420553">
        <ele>28.9769</ele>
        <time>2014-06-15T14:28:35Z</time>
      </trkpt>
      <trkpt lat="59.9198695" lon="17.6420379">
        <ele>28.9769</ele>
        <time>2014-06-15T14:28:36Z</time>
      </trkpt>
      <trkpt lat="59.9199253" lon="17.6420218">
        <ele>28.4962</ele>
        <time>2014-06-15T14:28:37Z</time>
      </trkpt>
      <trkpt lat="59.9199817" lon="17.6420095">
        <ele>28.4962</ele>
        <time>2014-06-15T14:28:38Z</time>
      </trkpt>
      <trkpt lat="59.9200397" lon="17.6420041">
        <ele>28.4962</ele>
        <time>2014-06-15T14:28:39Z</time>
      </trkpt>
      <trkpt lat="59.9200983" lon="17.642001">
        <ele>28.4962</ele>
        <time>2014-06-15T14:28:40Z</time>
      </trkpt>
      <trkpt lat="59.9201559" lon="17.6419975">
        <ele>28.4962</ele>
        <time>2014-06-15T14:28:41Z</time>
      </trkpt>
      <trkpt lat="59.9202122" lon="17.6419948">
        <ele>28.4962</ele>
        <time>2014-06-15T14:28:42Z</time>
      </trkpt>
      <trkpt lat="59.9202682" lon="17.6419915">
        <ele>28.4962</ele>
        <time>2014-06-15T14:28:43Z</time>
      </trkpt>
      <trkpt lat="59.9203264" lon="17.6419889">
        <ele>28.4962</ele>
        <time>2014-06-15T14:28:44Z</time>
      </trkpt>
      <trkpt lat="59.9203864" lon="17.6419865">
        <ele>28.4962</ele>
        <time>2014-06-15T14:28:45Z</time>
      </trkpt>
      <trkpt lat="59.9204455" lon="17.641984">
        <ele>28.4962</ele>
        <time>2014-06-15T14:28:46Z</time>
      </trkpt>
      <trkpt lat="59.9205033" lon="17.6419827">
        <ele>28.4962</ele>
        <time>2014-06-15T14:28:47Z</time>
      </trkpt>
      <trkpt lat="59.9205614" lon="17.6419809">
        <ele>28.4962</ele>
        <time>2014-06-15T14:28:48Z</time>
      </trkpt>
      <trkpt lat="59.9206195" lon="17.6419772">
        <ele>28.4962</ele>
        <time>2014-06-15T14:28:49Z</time>
      </trkpt>
      <trkpt lat="59.9206782" lon="17.6419758">
        <ele>28.4962</ele>
        <time>2014-06-15T14:28:50Z</time>
      </trkpt>
      <trkpt lat="59.9207374" lon="17.6419752">
        <ele>28.4962</ele>
        <time>2014-06-15T14:28:51Z</time>
      </trkpt>
      <trkpt lat="59.9207975" lon="17.6419732">
        <ele>28.4962</ele>
        <time>2014-06-15T14:28:52Z</time>
      </trkpt>
      <trkpt lat="59.9208589" lon="17.6419716">
        <ele>28.4962</ele>
        <time>2014-06-15T14:28:53Z</time>
      </trkpt>
      <trkpt lat="59.92092" lon="17.6419688">
        <ele>28.4962</ele>
        <time>2014-06-15T14:28:54Z</time>
      </trkpt>
      <trkpt lat="59.9209802" lon="17.6419667">
        <ele>28.9769</ele>
        <time>2014-06-15T14:28:55Z</time>
      </trkpt>
      <trkpt lat="59.9210402" lon="17.6419633">
        <ele>28.9769</ele>
        <time>2014-06-15T14:28:56Z</time>
      </trkpt>
      <trkpt lat="59.9211004" lon="17.641957">
        <ele>28.9769</ele>
        <time>2014-06-15T14:28:57Z</time>
      </trkpt>
      <trkpt lat="59.9211607" lon="17.6419504">
        <ele>29.4575</ele>
        <time>2014-06-15T14:28:58Z</time>
      </trkpt>
      <trkpt lat="59.9212203" lon="17.6419451">
        <ele>29.4575</ele>
        <time>2014-06-15T14:28:59Z</time>
      </trkpt>
      <trkpt lat="59.9212793" lon="17.641939">
        <ele>29.4575</ele>
        <time>2014-06-15T14:29:00Z</time>
      </trkpt>
      <trkpt lat="59.921338" lon="17.6419327">
        <ele>29.9381</ele>
        <time>2014-06-15T14:29:01Z</time>
      </trkpt>
      <trkpt lat="59.9213951" lon="17.6419263">
        <ele>29.9381</ele>
        <time>2014-06-15T14:29:02Z</time>
      </trkpt>
      <trkpt lat="59.921451" lon="17.6419177">
        <ele>29.9381</ele>
        <time>2014-06-15T14:29:03Z</time>
      </trkpt>
      <trkpt lat="59.9215058" lon="17.6419102">
        <ele>29.9381</ele>
        <time>2014-06-15T14:29:04Z</time>
      </trkpt>
      <trkpt lat="59.9215592" lon="17.6419052">
        <ele>29.9381</ele>
        <time>2014-06-15T14:29:05Z</time>
      </trkpt>
      <trkpt lat="59.9216145" lon="17.6418991">
        <ele>29.9381</ele>
        <time>2014-06-15T14:29:06Z</time>
      </trkpt>
      <trkpt lat="59.9216728" lon="17.6418896">
        <ele>29.9381</ele>
        <time>2014-06-15T14:29:07Z</time>
      </trkpt>
      <trkpt lat="59.921732" lon="17.6418796">
        <ele>29.9381</ele>
        <time>2014-06-15T14:29:08Z</time>
      </trkpt>
      <trkpt lat="59.9217931" lon="17.6418724">
        <ele>29.4575</ele>
        <time>2014-06-15T14:29:09Z</time>
      </trkpt>
      <trkpt lat="59.921855" lon="17.6418649">
        <ele>29.4575</ele>
        <time>2014-06-15T14:29:10Z</time>
      </trkpt>
      <trkpt lat="59.921918" lon="17.6418587">
        <ele>29.4575</ele>
        <time>2014-06-15T14:29:11Z</time>
      </trkpt>
      <trkpt lat="59.9219819" lon="17.6418533">
        <ele>29.4575</ele>
        <time>2014-06-15T14:29:12Z</time>
      </trkpt>
      <trkpt lat="59.9220467" lon="17.641847">
        <ele>28.9769</ele>
        <time>2014-06-15T14:29:13Z</time>
      </trkpt>
      <trkpt lat="59.9221125" lon="17.6418396">
        <ele>28.9769</ele>
        <time>2014-06-15T14:29:14Z</time>
      </trkpt>
      <trkpt lat="59.9221798" lon="17.6418321">
        <ele>28.9769</ele>
        <time>2014-06-15T14:29:15Z</time>
      </trkpt>
      <trkpt lat="59.9222488" lon="17.6418244">
        <ele>29.4575</ele>
        <time>2014-06-15T14:29:16Z</time>
      </trkpt>
      <trkpt lat="59.9223185" lon="17.6418167">
        <ele>29.4575</ele>
        <time>2014-06-15T14:29:17Z</time>
      </trkpt>
      <trkpt lat="59.922388" lon="17.6418088">
        <ele>29.4575</ele>
        <time>2014-06-15T14:29:18Z</time>
      </trkpt>
      <trkpt lat="59.9224574" lon="17.6417985">
        <ele>29.4575</ele>
        <time>2014-06-15T14:29:19Z</time>
      </trkpt>
      <trkpt lat="59.9225274" lon="17.6417867">
        <ele>29.4575</ele>
        <time>2014-06-15T14:29:20Z</time>
      </trkpt>
      <trkpt lat="59.9225967" lon="17.641775">
        <ele>29.4575</ele>
        <time>2014-06-15T14:29:21Z</time>
      </trkpt>
      <trkpt lat="59.9226648" lon="17.6417646">
        <ele>29.4575</ele>
        <time>2014-06-15T14:29:22Z</time>
      </trkpt>
      <trkpt lat="59.9227337" lon="17.6417561">
        <ele>29.4575</ele>
        <time>2014-06-15T14:29:23Z</time>
      </trkpt>
      <trkpt lat="59.9228034" lon="17.6417494">
        <ele>29.4575</ele>
        <time>2014-06-15T14:29:24Z</time>
      </trkpt>
      <trkpt lat="59.9228733" lon="17.6417437">
        <ele>29.4575</ele>
        <time>2014-06-15T14:29:25Z</time>
      </trkpt>
      <trkpt lat="59.9229453" lon="17.6417385">
        <ele>28.9769</ele>
        <time>2014-06-15T14:29:26Z</time>
      </trkpt>
      <trkpt lat="59.9230191" lon="17.6417327">
        <ele>28.9769</ele>
        <time>2014-06-15T14:29:27Z</time>
      </trkpt>
      <trkpt lat="59.9230942" lon="17.6417253">
        <ele>28.9769</ele>
        <time>2014-06-15T14:29:28Z</time>
      </trkpt>
      <trkpt lat="59.92317" lon="17.6417152">
        <ele>28.4962</ele>
        <time>2014-06-15T14:29:29Z</time>
      </trkpt>
      <trkpt lat="59.9232452" lon="17.6417026">
        <ele>28.4962</ele>
        <time>2014-06-15T14:29:30Z</time>
      </trkpt>
      <trkpt lat="59.9233188" lon="17.6416909">
        <ele>28.4962</ele>
        <time>2014-06-15T14:29:31Z</time>
      </trkpt>
      <trkpt lat="59.9233914" lon="17.6416813">
        <ele>28.4962</ele>
        <time>2014-06-15T14:29:32Z</time>
      </trkpt>
      <trkpt lat="59.9234627" lon="17.6416715">
        <ele>28.0155</ele>
        <time>2014-06-15T14:29:33Z</time>
      </trkpt>
      <trkpt lat="59.9235334" lon="17.6416605">
        <ele>28.0155</ele>
        <time>2014-06-15T14:29:34Z</time>
      </trkpt>
      <trkpt lat="59.9236036" lon="17.6416477">
        <ele>27.5349</ele>
        <time>2014-06-15T14:29:35Z</time>
      </trkpt>
      <trkpt lat="59.9236732" lon="17.641638">
        <ele>27.5349</ele>
        <time>2014-06-15T14:29:36Z</time>
      </trkpt>
      <trkpt lat="59.9237429" lon="17.6416317">
        <ele>27.0543</ele>
        <time>2014-06-15T14:29:37Z</time>
      </trkpt>
      <trkpt lat="59.923812" lon="17.6416234">
        <ele>27.0543</ele>
        <time>2014-06-15T14:29:38Z</time>
      </trkpt>
      <trkpt lat="59.9238809" lon="17.6416141">
        <ele>27.0543</ele>
        <time>2014-06-15T14:29:39Z</time>
      </trkpt>
      <trkpt lat="59.9239488" lon="17.6416054">
        <ele>27.0543</ele>
        <time>2014-06-15T14:29:40Z</time>
      </trkpt>
      <trkpt lat="59.9240164" lon="17.6415985">
        <ele>26.5736</ele>
        <time>2014-06-15T14:29:41Z</time>
      </trkpt>
      <trkpt lat="59.9240835" lon="17.6415922">
        <ele>26.5736</ele>
        <time>2014-06-15T14:29:42Z</time>
      </trkpt>
      <trkpt lat="59.9241501" lon="17.6415857">
        <ele>26.5736</ele>
        <time>2014-06-15T14:29:43Z</time>
      </trkpt>
      <trkpt lat="59.9242169" lon="17.6415818">
        <ele>26.5736</ele>
        <time>2014-06-15T14:29:44Z</time>
      </trkpt>
      <trkpt lat="59.9242834" lon="17.6415795">
        <ele>26.5736</ele>
        <time>2014-06-15T14:29:45Z</time>
      </trkpt>
      <trkpt lat="59.9243495" lon="17.6415749">
        <ele>26.5736</ele>
        <time>2014-06-15T14:29:46Z</time>
      </trkpt>
      <trkpt lat="59.9244155" lon="17.6415683">
        <ele>26.5736</ele>
        <time>2014-06-15T14:29:47Z</time>
      </trkpt>
      <trkpt lat="59.9244823" lon="17.6415612">
        <ele>26.5736</ele>
        <time>2014-06-15T14:29:48Z</time>
      </trkpt>
      <trkpt lat="59.9245485" lon="17.641552">
        <ele>26.5736</ele>
        <time>2014-06-15T14:29:49Z</time>
      </trkpt>
      <trkpt lat="59.9246149" lon="17.6415391">
        <ele>26.5736</ele>
        <time>2014-06-15T14:29:50Z</time>
      </trkpt>
      <trkpt lat="59.9246809" lon="17.6415215">
        <ele>26.5736</ele>
        <time>2014-06-15T14:29:51Z</time>
      </trkpt>
      <trkpt lat="59.9247469" lon="17.6415022">
        <ele>26.5736</ele>
        <time>2014-06-15T14:29:52Z</time>
      </trkpt>
      <trkpt lat="59.9248128" lon="17.6414846">
        <ele>26.5736</ele>
        <time>2014-06-15T14:29:53Z</time>
      </trkpt>
      <trkpt lat="59.9248789" lon="17.6414716">
        <ele>26.5736</ele>
        <time>2014-06-15T14:29:54Z</time>
      </trkpt>
      <trkpt lat="59.9249452" lon="17.6414635">
        <ele>26.0929</ele>
        <time>2014-06-15T14:29:55Z</time>
      </trkpt>
      <trkpt lat="59.9250124" lon="17.6414591">
        <ele>26.0929</ele>
        <time>2014-06-15T14:29:56Z</time>
      </trkpt>
      <trkpt lat="59.92508" lon="17.6414561">
        <ele>26.0929</ele>
        <time>2014-06-15T14:29:57Z</time>
      </trkpt>
      <trkpt lat="59.925148" lon="17.6414551">
        <ele>26.0929</ele>
        <time>2014-06-15T14:29:58Z</time>
      </trkpt>
      <trkpt lat="59.9252164" lon="17.6414549">
        <ele>26.0929</ele>
        <time>2014-06-15T14:29:59Z</time>
      </trkpt>
      <trkpt lat="59.9252846" lon="17.6414545">
        <ele>26.0929</ele>
        <time>2014-06-15T14:30:00Z</time>
      </trkpt>
      <trkpt lat="59.9253524" lon="17.6414525">
        <ele>26.0929</ele>
        <time>2014-06-15T14:30:01Z</time>
      </trkpt>
      <trkpt lat="59.9254206" lon="17.6414483">
        <ele>26.0929</ele>
        <time>2014-06-15T14:30:02Z</time>
      </trkpt>
      <trkpt lat="59.92549" lon="17.641442">
        <ele>25.6123</ele>
        <time>2014-06-15T14:30:03Z</time>
      </trkpt>
      <trkpt lat="59.9255603" lon="17.6414338">
        <ele>25.6123</ele>
        <time>2014-06-15T14:30:04Z</time>
      </trkpt>
      <trkpt lat="59.9256313" lon="17.641424">
        <ele>25.6123</ele>
        <time>2014-06-15T14:30:05Z</time>
      </trkpt>
      <trkpt lat="59.9257017" lon="17.6414132">
        <ele>25.6123</ele>
        <time>2014-06-15T14:30:06Z</time>
      </trkpt>
      <trkpt lat="59.9257682" lon="17.641401">
        <ele>26.0929</ele>
        <time>2014-06-15T14:30:07Z</time>
      </trkpt>
      <trkpt lat="59.9258337" lon="17.6413814">
        <ele>26.0929</ele>
        <time>2014-06-15T14:30:08Z</time>
      </trkpt>
      <trkpt lat="59.925901" lon="17.6413684">
        <ele>26.0929</ele>
        <time>2014-06-15T14:30:09Z</time>
      </trkpt>
      <trkpt lat="59.9259664" lon="17.6413632">
        <ele>25.6123</ele>
        <time>2014-06-15T14:30:10Z</time>
      </trkpt>
      <trkpt lat="59.9260302" lon="17.6413544">
        <ele>25.6123</ele>
        <time>2014-06-15T14:30:11Z</time>
      </trkpt>
      <trkpt lat="59.9260934" lon="17.6413447">
        <ele>25.6123</ele>
        <time>2014-06-15T14:30:12Z</time>
      </trkpt>
      <trkpt lat="59.9261564" lon="17.641337">
        <ele>25.6123</ele>
        <time>2014-06-15T14:30:13Z</time>
      </trkpt>
      <trkpt lat="59.9262187" lon="17.6413306">
        <ele>25.1317</ele>
        <time>2014-06-15T14:30:14Z</time>
      </trkpt>
      <trkpt lat="59.9262804" lon="17.641323">
        <ele>25.1317</ele>
        <time>2014-06-15T14:30:15Z</time>
      </trkpt>
      <trkpt lat="59.926342" lon="17.6413143">
        <ele>25.1317</ele>
        <time>2014-06-15T14:30:16Z</time>
      </trkpt>
      <trkpt lat="59.9264032" lon="17.6413072">
        <ele>25.1317</ele>
        <time>2014-06-15T14:30:17Z</time>
      </trkpt>
      <trkpt lat="59.9264646" lon="17.6413008">
        <ele>25.1317</ele>
        <time>2014-06-15T14:30:18Z</time>
      </trkpt>
      <trkpt lat="59.9265259" lon="17.6412924">
        <ele>25.1317</ele>
        <time>2014-06-15T14:30:19Z</time>
      </trkpt>
      <trkpt lat="59.9265874" lon="17.6412842">
        <ele>25.1317</ele>
        <time>2014-06-15T14:30:20Z</time>
      </trkpt>
      <trkpt lat="59.926649" lon="17.641277">
        <ele>25.1317</ele>
        <time>2014-06-15T14:30:21Z</time>
      </trkpt>
      <trkpt lat="59.9267099" lon="17.6412702">
        <ele>25.1317</ele>
        <time>2014-06-15T14:30:22Z</time>
      </trkpt>
      <trkpt lat="59.9267695" lon="17.6412639">
        <ele>25.1317</ele>
        <time>2014-06-15T14:30:23Z</time>
      </trkpt>
      <trkpt lat="59.9268277" lon="17.6412561">
        <ele>25.1317</ele>
        <time>2014-06-15T14:30:24Z</time>
      </trkpt>
      <trkpt lat="59.9268842" lon="17.6412464">
        <ele>25.1317</ele>
        <time>2014-06-15T14:30:25Z</time>
      </trkpt>
      <trkpt lat="59.9269404" lon="17.64124">
        <ele>25.1317</ele>
        <time>2014-06-15T14:30:26Z</time>
      </trkpt>
      <trkpt lat="59.9269977" lon="17.641237">
        <ele>25.1317</ele>
        <time>2014-06-15T14:30:27Z</time>
      </trkpt>
      <trkpt lat="59.9270548" lon="17.6412323">
        <ele>25.1317</ele>
        <time>2014-06-15T14:30:28Z</time>
      </trkpt>
      <trkpt lat="59.9271118" lon="17.6412256">
        <ele>24.651</ele>
        <time>2014-06-15T14:30:29Z</time>
      </trkpt>
      <trkpt lat="59.9271696" lon="17.6412194">
        <ele>24.651</ele>
        <time>2014-06-15T14:30:30Z</time>
      </trkpt>
      <trkpt lat="59.9272273" lon="17.6412164">
        <ele>24.651</ele>
        <time>2014-06-15T14:30:31Z</time>
      </trkpt>
      <trkpt lat="59.9272851" lon="17.6412156">
        <ele>24.651</ele>
        <time>2014-06-15T14:30:32Z</time>
      </trkpt>
      <trkpt lat="59.9273426" lon="17.6412127">
        <ele>24.651</ele>
        <time>2014-06-15T14:30:33Z</time>
      </trkpt>
      <trkpt lat="59.9274003" lon="17.6412076">
        <ele>24.651</ele>
        <time>2014-06-15T14:30:34Z</time>
      </trkpt>
      <trkpt lat="59.9274587" lon="17.6412023">
        <ele>24.651</ele>
        <time>2014-06-15T14:30:35Z</time>
      </trkpt>
      <trkpt lat="59.9275173" lon="17.6411967">
        <ele>24.651</ele>
        <time>2014-06-15T14:30:36Z</time>
      </trkpt>
      <trkpt lat="59.9275762" lon="17.6411903">
        <ele>24.651</ele>
        <time>2014-06-15T14:30:37Z</time>
      </trkpt>
      <trkpt lat="59.9276355" lon="17.6411837">
        <ele>24.651</ele>
        <time>2014-06-15T14:30:38Z</time>
      </trkpt>
      <trkpt lat="59.9276952" lon="17.6411781">
        <ele>24.651</ele>
        <time>2014-06-15T14:30:39Z</time>
      </trkpt>
      <trkpt lat="59.9277551" lon="17.6411738">
        <ele>24.651</ele>
        <time>2014-06-15T14:30:40Z</time>
      </trkpt>
      <trkpt lat="59.9278152" lon="17.6411697">
        <ele>24.651</ele>
        <time>2014-06-15T14:30:41Z</time>
      </trkpt>
      <trkpt lat="59.9278754" lon="17.641164">
        <ele>24.651</ele>
        <time>2014-06-15T14:30:42Z</time>
      </trkpt>
      <trkpt lat="59.927936" lon="17.6411566">
        <ele>24.651</ele>
        <time>2014-06-15T14:30:43Z</time>
      </trkpt>
      <trkpt lat="59.9279968" lon="17.6411496">
        <ele>24.651</ele>
        <time>2014-06-15T14:30:44Z</time>
      </trkpt>
      <trkpt lat="59.9280575" lon="17.6411446">
        <ele>24.651</ele>
        <time>2014-06-15T14:30:45Z</time>
      </trkpt>
      <trkpt lat="59.9281183" lon="17.641139">
        <ele>24.651</ele>
        <time>2014-06-15T14:30:46Z</time>
      </trkpt>
      <trkpt lat="59.9281792" lon="17.6411316">
        <ele>24.651</ele>
        <time>2014-06-15T14:30:47Z</time>
      </trkpt>
      <trkpt lat="59.9282399" lon="17.641123">
        <ele>24.651</ele>
        <time>2014-06-15T14:30:48Z</time>
      </trkpt>
      <trkpt lat="59.9283006" lon="17.6411153">
        <ele>24.651</ele>
        <time>2014-06-15T14:30:49Z</time>
      </trkpt>
      <trkpt lat="59.9283613" lon="17.6411075">
        <ele>24.651</ele>
        <time>2014-06-15T14:30:50Z</time>
      </trkpt>
      <trkpt lat="59.9284218" lon="17.6410987">
        <ele>24.651</ele>
        <time>2014-06-15T14:30:51Z</time>
      </trkpt>
      <trkpt lat="59.9284822" lon="17.6410888">
        <ele>24.651</ele>
        <time>2014-06-15T14:30:52Z</time>
      </trkpt>
      <trkpt lat="59.9285415" lon="17.641079">
        <ele>24.651</ele>
        <time>2014-06-15T14:30:53Z</time>
      </trkpt>
      <trkpt lat="59.9286003" lon="17.6410702">
        <ele>24.651</ele>
        <time>2014-06-15T14:30:54Z</time>
      </trkpt>
      <trkpt lat="59.928659" lon="17.6410614">
        <ele>24.651</ele>
        <time>2014-06-15T14:30:55Z</time>
      </trkpt>
      <trkpt lat="59.928718" lon="17.64105">
        <ele>24.651</ele>
        <time>2014-06-15T14:30:56Z</time>
      </trkpt>
      <trkpt lat="59.9287773" lon="17.6410355">
        <ele>24.651</ele>
        <time>2014-06-15T14:30:57Z</time>
      </trkpt>
      <trkpt lat="59.9288377" lon="17.6410194">
        <ele>24.651</ele>
        <time>2014-06-15T14:30:58Z</time>
      </trkpt>
      <trkpt lat="59.9288983" lon="17.6410039">
        <ele>24.651</ele>
        <time>2014-06-15T14:30:59Z</time>
      </trkpt>
      <trkpt lat="59.9289593" lon="17.6409907">
        <ele>24.651</ele>
        <time>2014-06-15T14:31:00Z</time>
      </trkpt>
      <trkpt lat="59.9290204" lon="17.6409819">
        <ele>24.651</ele>
        <time>2014-06-15T14:31:01Z</time>
      </trkpt>
      <trkpt lat="59.929081" lon="17.6409775">
        <ele>24.651</ele>
        <time>2014-06-15T14:31:02Z</time>
      </trkpt>
      <trkpt lat="59.9291419" lon="17.6409748">
        <ele>24.651</ele>
        <time>2014-06-15T14:31:03Z</time>
      </trkpt>
      <trkpt lat="59.929203" lon="17.6409722">
        <ele>24.651</ele>
        <time>2014-06-15T14:31:04Z</time>
      </trkpt>
      <trkpt lat="59.9292636" lon="17.6409691">
        <ele>24.651</ele>
        <time>2014-06-15T14:31:05Z</time>
      </trkpt>
      <trkpt lat="59.9293237" lon="17.640965">
        <ele>24.651</ele>
        <time>2014-06-15T14:31:06Z</time>
      </trkpt>
      <trkpt lat="59.9293839" lon="17.6409581">
        <ele>24.651</ele>
        <time>2014-06-15T14:31:07Z</time>
      </trkpt>
      <trkpt lat="59.9294444" lon="17.6409489">
        <ele>24.651</ele>
        <time>2014-06-15T14:31:08Z</time>
      </trkpt>
      <trkpt lat="59.929505" lon="17.6409417">
        <ele>24.651</ele>
        <time>2014-06-15T14:31:09Z</time>
      </trkpt>
      <trkpt lat="59.9295659" lon="17.6409375">
        <ele>24.651</ele>
        <time>2014-06-15T14:31:10Z</time>
      </trkpt>
      <trkpt lat="59.9296256" lon="17.6409299">
        <ele>24.651</ele>
        <time>2014-06-15T14:31:11Z</time>
      </trkpt>
      <trkpt lat="59.9296838" lon="17.6409154">
        <ele>24.651</ele>
        <time>2014-06-15T14:31:12Z</time>
      </trkpt>
      <trkpt lat="59.9297408" lon="17.6408993">
        <ele>24.651</ele>
        <time>2014-06-15T14:31:13Z</time>
      </trkpt>
      <trkpt lat="59.9297962" lon="17.6408877">
        <ele>25.1317</ele>
        <time>2014-06-15T14:31:14Z</time>
      </trkpt>
      <trkpt lat="59.9298505" lon="17.6408837">
        <ele>24.651</ele>
        <time>2014-06-15T14:31:15Z</time>
      </trkpt>
      <trkpt lat="59.9299069" lon="17.6408843">
        <ele>24.651</ele>
        <time>2014-06-15T14:31:16Z</time>
      </trkpt>
      <trkpt lat="59.9299658" lon="17.6408857">
        <ele>24.651</ele>
        <time>2014-06-15T14:31:17Z</time>
      </trkpt>
      <trkpt lat="59.930027" lon="17.6408858">
        <ele>24.651</ele>
        <time>2014-06-15T14:31:18Z</time>
      </trkpt>
      <trkpt lat="59.9300889" lon="17.6408845">
        <ele>24.651</ele>
        <time>2014-06-15T14:31:19Z</time>
      </trkpt>
      <trkpt lat="59.9301512" lon="17.6408847">
        <ele>24.651</ele>
        <time>2014-06-15T14:31:20Z</time>
      </trkpt>
      <trkpt lat="59.9302129" lon="17.6408874">
        <ele>24.651</ele>
        <time>2014-06-15T14:31:21Z</time>
      </trkpt>
      <trkpt lat="59.930274" lon="17.6408903">
        <ele>24.651</ele>
        <time>2014-06-15T14:31:22Z</time>
      </trkpt>
      <trkpt lat="59.9303352" lon="17.6408925">
        <ele>24.651</ele>
        <time>2014-06-15T14:31:23Z</time>
      </trkpt>
      <trkpt lat="59.930396" lon="17.6408952">
        <ele>24.651</ele>
        <time>2014-06-15T14:31:24Z</time>
      </trkpt>
      <trkpt lat="59.9304558" lon="17.640896">
        <ele>25.1317</ele>
        <time>2014-06-15T14:31:25Z</time>
      </trkpt>
      <trkpt lat="59.9305135" lon="17.6408932">
        <ele>25.1317</ele>
        <time>2014-06-15T14:31:26Z</time>
      </trkpt>
      <trkpt lat="59.9305684" lon="17.6408882">
        <ele>25.6123</ele>
        <time>2014-06-15T14:31:27Z</time>
      </trkpt>
      <trkpt lat="59.9306207" lon="17.6408806">
        <ele>25.6123</ele>
        <time>2014-06-15T14:31:28Z</time>
      </trkpt>
      <trkpt lat="59.9306703" lon="17.6408702">
        <ele>25.6123</ele>
        <time>2014-06-15T14:31:29Z</time>
      </trkpt>
      <trkpt lat="59.930718" lon="17.6408598">
        <ele>25.6123</ele>
        <time>2014-06-15T14:31:30Z</time>
      </trkpt>
      <trkpt lat="59.9307644" lon="17.6408558">
        <ele>25.6123</ele>
        <time>2014-06-15T14:31:31Z</time>
      </trkpt>
      <trkpt lat="59.9308123" lon="17.6408587">
        <ele>25.6123</ele>
        <time>2014-06-15T14:31:32Z</time>
      </trkpt>
      <trkpt lat="59.9308626" lon="17.6408636">
        <ele>25.6123</ele>
        <time>2014-06-15T14:31:33Z</time>
      </trkpt>
      <trkpt lat="59.9309148" lon="17.6408743">
        <ele>25.6123</ele>
        <time>2014-06-15T14:31:34Z</time>
      </trkpt>
      <trkpt lat="59.9309673" lon="17.6408957">
        <ele>25.6123</ele>
        <time>2014-06-15T14:31:35Z</time>
      </trkpt>
      <trkpt lat="59.9310191" lon="17.6409258">
        <ele>25.6123</ele>
        <time>2014-06-15T14:31:36Z</time>
      </trkpt>
      <trkpt lat="59.9310697" lon="17.6409623">
        <ele>25.6123</ele>
        <time>2014-06-15T14:31:37Z</time>
      </trkpt>
      <trkpt lat="59.93112" lon="17.6410008">
        <ele>26.0929</ele>
        <time>2014-06-15T14:31:38Z</time>
      </trkpt>
      <trkpt lat="59.9311688" lon="17.6410381">
        <ele>26.0929</ele>
        <time>2014-06-15T14:31:39Z</time>
      </trkpt>
      <trkpt lat="59.9312154" lon="17.6410741">
        <ele>26.5736</ele>
        <time>2014-06-15T14:31:40Z</time>
      </trkpt>
      <trkpt lat="59.9312589" lon="17.6411085">
        <ele>26.5736</ele>
        <time>2014-06-15T14:31:41Z</time>
      </trkpt>
      <trkpt lat="59.9313004" lon="17.64114">
        <ele>27.0543</ele>
        <time>2014-06-15T14:31:42Z</time>
      </trkpt>
      <trkpt lat="59.9313396" lon="17.6411686">
        <ele>27.0543</ele>
        <time>2014-06-15T14:31:43Z</time>
      </trkpt>
      <trkpt lat="59.9313763" lon="17.6411954">
        <ele>27.5349</ele>
        <time>2014-06-15T14:31:44Z</time>
      </trkpt>
      <trkpt lat="59.9314114" lon="17.6412218">
        <ele>27.5349</ele>
        <time>2014-06-15T14:31:45Z</time>
      </trkpt>
      <trkpt lat="59.9314483" lon="17.6412499">
        <ele>27.5349</ele>
        <time>2014-06-15T14:31:46Z</time>
      </trkpt>
      <trkpt lat="59.9314879" lon="17.6412783">
        <ele>27.5349</ele>
        <time>2014-06-15T14:31:47Z</time>
      </trkpt>
      <trkpt lat="59.9315295" lon="17.6413083">
        <ele>27.5349</ele>
        <time>2014-06-15T14:31:48Z</time>
      </trkpt>
      <trkpt lat="59.9315723" lon="17.6413396">
        <ele>27.5349</ele>
        <time>2014-06-15T14:31:49Z</time>
      </trkpt>
      <trkpt lat="59.9316163" lon="17.6413707">
        <ele>27.5349</ele>
        <time>2014-06-15T14:31:50Z</time>
      </trkpt>
      <trkpt lat="59.9316609" lon="17.6414039">
        <ele>27.5349</ele>
        <time>2014-06-15T14:31:51Z</time>
      </trkpt>
      <trkpt lat="59.931706" lon="17.6414391">
        <ele>27.5349</ele>
        <time>2014-06-15T14:31:52Z</time>
      </trkpt>
      <trkpt lat="59.9317524" lon="17.641474">
        <ele>27.5349</ele>
        <time>2014-06-15T14:31:53Z</time>
      </trkpt>
      <trkpt lat="59.9317998" lon="17.6415063">
        <ele>28.0155</ele>
        <time>2014-06-15T14:31:54Z</time>
      </trkpt>
      <trkpt lat="59.9318475" lon="17.6415372">
        <ele>28.0155</ele>
        <time>2014-06-15T14:31:55Z</time>
      </trkpt>
      <trkpt lat="59.9318956" lon="17.641567">
        <ele>28.0155</ele>
        <time>2014-06-15T14:31:56Z</time>
      </trkpt>
      <trkpt lat="59.9319438" lon="17.6415943">
        <ele>28.0155</ele>
        <time>2014-06-15T14:31:57Z</time>
      </trkpt>
      <trkpt lat="59.9319909" lon="17.6416239">
        <ele>28.4962</ele>
        <time>2014-06-15T14:31:58Z</time>
      </trkpt>
      <trkpt lat="59.9320349" lon="17.6416605">
        <ele>28.4962</ele>
        <time>2014-06-15T14:31:59Z</time>
      </trkpt>
      <trkpt lat="59.9320769" lon="17.6417011">
        <ele>28.4962</ele>
        <time>2014-06-15T14:32:00Z</time>
      </trkpt>
      <trkpt lat="59.9321209" lon="17.6417462">
        <ele>28.4962</ele>
        <time>2014-06-15T14:32:01Z</time>
      </trkpt>
      <trkpt lat="59.9321691" lon="17.6417962">
        <ele>28.4962</ele>
        <time>2014-06-15T14:32:02Z</time>
      </trkpt>
      <trkpt lat="59.9322193" lon="17.641841">
        <ele>28.4962</ele>
        <time>2014-06-15T14:32:03Z</time>
      </trkpt>
      <trkpt lat="59.932274" lon="17.6418843">
        <ele>29.4575</ele>
        <time>2014-06-15T14:32:04Z</time>
      </trkpt>
      <trkpt lat="59.9323282" lon="17.6419306">
        <ele>29.4575</ele>
        <time>2014-06-15T14:32:05Z</time>
      </trkpt>
      <trkpt lat="59.9323802" lon="17.6419767">
        <ele>29.4575</ele>
        <time>2014-06-15T14:32:06Z</time>
      </trkpt>
      <trkpt lat="59.9324297" lon="17.6420219">
        <ele>29.4575</ele>
        <time>2014-06-15T14:32:07Z</time>
      </trkpt>
      <trkpt lat="59.9324781" lon="17.6420674">
        <ele>29.4575</ele>
        <time>2014-06-15T14:32:08Z</time>
      </trkpt>
      <trkpt lat="59.9325254" lon="17.6421145">
        <ele>29.4575</ele>
        <time>2014-06-15T14:32:09Z</time>
      </trkpt>
      <trkpt lat="59.932572" lon="17.6421633">
        <ele>29.4575</ele>
        <time>2014-06-15T14:32:10Z</time>
      </trkpt>
      <trkpt lat="59.9326176" lon="17.6422138">
        <ele>29.9381</ele>
        <time>2014-06-15T14:32:11Z</time>
      </trkpt>
      <trkpt lat="59.9326623" lon="17.6422657">
        <ele>29.9381</ele>
        <time>2014-06-15T14:32:12Z</time>
      </trkpt>
      <trkpt lat="59.9327058" lon="17.642319">
        <ele>29.9381</ele>
        <time>2014-06-15T14:32:13Z</time>
      </trkpt>
      <trkpt lat="59.9327468" lon="17.6423754">
        <ele>29.9381</ele>
        <time>2014-06-15T14:32:14Z</time>
      </trkpt>
      <trkpt lat="59.9327848" lon="17.6424363">
        <ele>30.4188</ele>
        <time>2014-06-15T14:32:15Z</time>
      </trkpt>
      <trkpt lat="59.9328192" lon="17.6425013">
        <ele>30.4188</ele>
        <time>2014-06-15T14:32:16Z</time>
      </trkpt>
      <trkpt lat="59.9328527" lon="17.6425686">
        <ele>30.4188</ele>
        <time>2014-06-15T14:32:17Z</time>
      </trkpt>
      <trkpt lat="59.9328877" lon="17.6426344">
        <ele>30.4188</ele>
        <time>2014-06-15T14:32:18Z</time>
      </trkpt>
      <trkpt lat="59.9329269" lon="17.6426948">
        <ele>30.4188</ele>
        <time>2014-06-15T14:32:19Z</time>
      </trkpt>
      <trkpt lat="59.9329679" lon="17.6427509">
        <ele>30.8995</ele>
        <time>2014-06-15T14:32:20Z</time>
      </trkpt>
      <trkpt lat="59.9330101" lon="17.6428031">
        <ele>30.8995</ele>
        <time>2014-06-15T14:32:21Z</time>
      </trkpt>
      <trkpt lat="59.9330516" lon="17.6428531">
        <ele>30.8995</ele>
        <time>2014-06-15T14:32:22Z</time>
      </trkpt>
      <trkpt lat="59.9330896" lon="17.642905">
        <ele>30.8995</ele>
        <time>2014-06-15T14:32:23Z</time>
      </trkpt>
      <trkpt lat="59.9331274" lon="17.642961">
        <ele>31.3801</ele>
        <time>2014-06-15T14:32:24Z</time>
      </trkpt>
      <trkpt lat="59.9331689" lon="17.6430198">
        <ele>31.3801</ele>
        <time>2014-06-15T14:32:25Z</time>
      </trkpt>
      <trkpt lat="59.9332128" lon="17.6430832">
        <ele>31.8607</ele>
        <time>2014-06-15T14:32:26Z</time>
      </trkpt>
      <trkpt lat="59.9332569" lon="17.6431524">
        <ele>31.8607</ele>
        <time>2014-06-15T14:32:27Z</time>
      </trkpt>
      <trkpt lat="59.9333" lon="17.6432231">
        <ele>32.3416</ele>
        <time>2014-06-15T14:32:28Z</time>
      </trkpt>
      <trkpt lat="59.9333407" lon="17.6432939">
        <ele>32.8223</ele>
        <time>2014-06-15T14:32:29Z</time>
      </trkpt>
      <trkpt lat="59.9333797" lon="17.6433598">
        <ele>33.3029</ele>
        <time>2014-06-15T14:32:30Z</time>
      </trkpt>
      <trkpt lat="59.9334191" lon="17.6434209">
        <ele>33.3029</ele>
        <time>2014-06-15T14:32:31Z</time>
      </trkpt>
      <trkpt lat="59.9334615" lon="17.6434809">
        <ele>33.7834</ele>
        <time>2014-06-15T14:32:32Z</time>
      </trkpt>
      <trkpt lat="59.9335054" lon="17.6435396">
        <ele>34.2642</ele>
        <time>2014-06-15T14:32:33Z</time>
      </trkpt>
      <trkpt lat="59.9335502" lon="17.6435972">
        <ele>34.2642</ele>
        <time>2014-06-15T14:32:34Z</time>
      </trkpt>
      <trkpt lat="59.9335961" lon="17.6436544">
        <ele>34.7449</ele>
        <time>2014-06-15T14:32:35Z</time>
      </trkpt>
      <trkpt lat="59.9336422" lon="17.6437109">
        <ele>35.2255</ele>
        <time>2014-06-15T14:32:36Z</time>
      </trkpt>
      <trkpt lat="59.9336896" lon="17.6437648">
        <ele>35.2255</ele>
        <time>2014-06-15T14:32:37Z</time>
      </trkpt>
      <trkpt lat="59.9337402" lon="17.6438139">
        <ele>35.7061</ele>
        <time>2014-06-15T14:32:38Z</time>
      </trkpt>
      <trkpt lat="59.9337932" lon="17.6438582">
        <ele>35.7061</ele>
        <time>2014-06-15T14:32:39Z</time>
      </trkpt>
      <trkpt lat="59.9338474" lon="17.6439036">
        <ele>35.7061</ele>
        <time>2014-06-15T14:32:40Z</time>
      </trkpt>
      <trkpt lat="59.9339024" lon="17.6439545">
        <ele>36.1868</ele>
        <time>2014-06-15T14:32:41Z</time>
      </trkpt>
      <trkpt lat="59.9339566" lon="17.644012">
        <ele>36.1868</ele>
        <time>2014-06-15T14:32:42Z</time>
      </trkpt>
      <trkpt lat="59.934007" lon="17.6440726">
        <ele>36.1868</ele>
        <time>2014-06-15T14:32:43Z</time>
      </trkpt>
      <trkpt lat="59.9340557" lon="17.6441338">
        <ele>36.1868</ele>
        <time>2014-06-15T14:32:44Z</time>
      </trkpt>
      <trkpt lat="59.9341029" lon="17.6441949">
        <ele>36.6675</ele>
        <time>2014-06-15T14:32:45Z</time>
      </trkpt>
      <trkpt lat="59.9341503" lon="17.644253">
        <ele>36.6675</ele>
        <time>2014-06-15T14:32:46Z</time>
      </trkpt>
      <trkpt lat="59.9341966" lon="17.6443104">
        <ele>36.6675</ele>
        <time>2014-06-15T14:32:47Z</time>
      </trkpt>
      <trkpt lat="59.9342411" lon="17.6443694">
        <ele>36.6675</ele>
        <time>2014-06-15T14:32:48Z</time>
      </trkpt>
      <trkpt lat="59.9342857" lon="17.6444279">
        <ele>36.6675</ele>
        <time>2014-06-15T14:32:49Z</time>
      </trkpt>
      <trkpt lat="59.9343297" lon="17.644487">
        <ele>36.6675</ele>
        <time>2014-06-15T14:32:50Z</time>
      </trkpt>
      <trkpt lat="59.9343727" lon="17.6445497">
        <ele>37.1481</ele>
        <time>2014-06-15T14:32:51Z</time>
      </trkpt>
      <trkpt lat="59.9344112" lon="17.6446153">
        <ele>37.1481</ele>
        <time>2014-06-15T14:32:52Z</time>
      </trkpt>
      <trkpt lat="59.9344447" lon="17.6446792">
        <ele>37.6287</ele>
        <time>2014-06-15T14:32:53Z</time>
      </trkpt>
      <trkpt lat="59.9344753" lon="17.644738">
        <ele>37.6287</ele>
        <time>2014-06-15T14:32:54Z</time>
      </trkpt>
      <trkpt lat="59.9345063" lon="17.6447916">
        <ele>38.1094</ele>
        <time>2014-06-15T14:32:55Z</time>
      </trkpt>
      <trkpt lat="59.9345395" lon="17.644843">
        <ele>38.1094</ele>
        <time>2014-06-15T14:32:56Z</time>
      </trkpt>
      <trkpt lat="59.9345763" lon="17.6448942">
        <ele>38.1094</ele>
        <time>2014-06-15T14:32:57Z</time>
      </trkpt>
      <trkpt lat="59.9346165" lon="17.6449448">
        <ele>38.5901</ele>
        <time>2014-06-15T14:32:58Z</time>
      </trkpt>
      <trkpt lat="59.9346579" lon="17.6449947">
        <ele>38.5901</ele>
        <time>2014-06-15T14:32:59Z</time>
      </trkpt>
      <trkpt lat="59.9347005" lon="17.6450469">
        <ele>39.0707</ele>
        <time>2014-06-15T14:33:00Z</time>
      </trkpt>
      <trkpt lat="59.9347444" lon="17.6451025">
        <ele>39.0707</ele>
        <time>2014-06-15T14:33:01Z</time>
      </trkpt>
      <trkpt lat="59.9347901" lon="17.6451602">
        <ele>39.0707</ele>
        <time>2014-06-15T14:33:02Z</time>
      </trkpt>
      <trkpt lat="59.9348357" lon="17.6452194">
        <ele>39.0707</ele>
        <time>2014-06-15T14:33:03Z</time>
      </trkpt>
      <trkpt lat="59.9348819" lon="17.6452781">
        <ele>39.0707</ele>
        <time>2014-06-15T14:33:04Z</time>
      </trkpt>
      <trkpt lat="59.9349295" lon="17.6453339">
        <ele>39.0707</ele>
        <time>2014-06-15T14:33:05Z</time>
      </trkpt>
      <trkpt lat="59.9349779" lon="17.6453862">
        <ele>39.0707</ele>
        <time>2014-06-15T14:33:06Z</time>
      </trkpt>
      <trkpt lat="59.9350278" lon="17.6454365">
        <ele>39.0707</ele>
        <time>2014-06-15T14:33:07Z</time>
      </trkpt>
      <trkpt lat="59.935078" lon="17.6454892">
        <ele>38.5901</ele>
        <time>2014-06-15T14:33:08Z</time>
      </trkpt>
      <trkpt lat="59.9351284" lon="17.6455462">
        <ele>38.5901</ele>
        <time>2014-06-15T14:33:09Z</time>
      </trkpt>
      <trkpt lat="59.9351802" lon="17.6456098">
        <ele>38.5901</ele>
        <time>2014-06-15T14:33:10Z</time>
      </trkpt>
      <trkpt lat="59.9352316" lon="17.6456762">
        <ele>38.5901</ele>
        <time>2014-06-15T14:33:11Z</time>
      </trkpt>
      <trkpt lat="59.9352829" lon="17.6457437">
        <ele>38.5901</ele>
        <time>2014-06-15T14:33:12Z</time>
      </trkpt>
      <trkpt lat="59.9353345" lon="17.645808">
        <ele>38.5901</ele>
        <time>2014-06-15T14:33:13Z</time>
      </trkpt>
      <trkpt lat="59.935389" lon="17.6458669">
        <ele>38.5901</ele>
        <time>2014-06-15T14:33:14Z</time>
      </trkpt>
      <trkpt lat="59.9354453" lon="17.6459244">
        <ele>38.5901</ele>
        <time>2014-06-15T14:33:15Z</time>
      </trkpt>
      <trkpt lat="59.935502" lon="17.6459835">
        <ele>38.5901</ele>
        <time>2014-06-15T14:33:16Z</time>
      </trkpt>
      <trkpt lat="59.9355583" lon="17.6460435">
        <ele>38.5901</ele>
        <time>2014-06-15T14:33:17Z</time>
      </trkpt>
      <trkpt lat="59.9356128" lon="17.6461053">
        <ele>39.0707</ele>
        <time>2014-06-15T14:33:18Z</time>
      </trkpt>
      <trkpt lat="59.9356656" lon="17.6461696">
        <ele>39.0707</ele>
        <time>2014-06-15T14:33:19Z</time>
      </trkpt>
      <trkpt lat="59.9357178" lon="17.6462348">
        <ele>39.0707</ele>
        <time>2014-06-15T14:33:20Z</time>
      </trkpt>
      <trkpt lat="59.9357688" lon="17.646299">
        <ele>39.0707</ele>
        <time>2014-06-15T14:33:21Z</time>
      </trkpt>
      <trkpt lat="59.9358178" lon="17.6463604">
        <ele>39.0707</ele>
        <time>2014-06-15T14:33:22Z</time>
      </trkpt>
      <trkpt lat="59.9358661" lon="17.6464202">
        <ele>39.0707</ele>
        <time>2014-06-15T14:33:23Z</time>
      </trkpt>
      <trkpt lat="59.9359136" lon="17.646482">
        <ele>39.0707</ele>
        <time>2014-06-15T14:33:24Z</time>
      </trkpt>
      <trkpt lat="59.9359623" lon="17.6465426">
        <ele>39.0707</ele>
        <time>2014-06-15T14:33:25Z</time>
      </trkpt>
      <trkpt lat="59.9360111" lon="17.6466026">
        <ele>39.0707</ele>
        <time>2014-06-15T14:33:26Z</time>
      </trkpt>
      <trkpt lat="59.9360583" lon="17.6466635">
        <ele>39.0707</ele>
        <time>2014-06-15T14:33:27Z</time>
      </trkpt>
      <trkpt lat="59.9361056" lon="17.6467243">
        <ele>39.0707</ele>
        <time>2014-06-15T14:33:28Z</time>
      </trkpt>
      <trkpt lat="59.9361545" lon="17.6467848">
        <ele>38.5901</ele>
        <time>2014-06-15T14:33:29Z</time>
      </trkpt>
      <trkpt lat="59.9362033" lon="17.6468482">
        <ele>38.5901</ele>
        <time>2014-06-15T14:33:30Z</time>
      </trkpt>
      <trkpt lat="59.9362527" lon="17.6469117">
        <ele>38.5901</ele>
        <time>2014-06-15T14:33:31Z</time>
      </trkpt>
      <trkpt lat="59.9363034" lon="17.6469734">
        <ele>38.5901</ele>
        <time>2014-06-15T14:33:32Z</time>
      </trkpt>
      <trkpt lat="59.9363537" lon="17.6470351">
        <ele>38.5901</ele>
        <time>2014-06-15T14:33:33Z</time>
      </trkpt>
      <trkpt lat="59.9364034" lon="17.6471014">
        <ele>38.5901</ele>
        <time>2014-06-15T14:33:34Z</time>
      </trkpt>
      <trkpt lat="59.9364555" lon="17.6471701">
        <ele>38.5901</ele>
        <time>2014-06-15T14:33:35Z</time>
      </trkpt>
      <trkpt lat="59.93651" lon="17.6472355">
        <ele>38.5901</ele>
        <time>2014-06-15T14:33:36Z</time>
      </trkpt>
      <trkpt lat="59.9365654" lon="17.6473028">
        <ele>38.5901</ele>
        <time>2014-06-15T14:33:37Z</time>
      </trkpt>
      <trkpt lat="59.9366209" lon="17.6473747">
        <ele>38.5901</ele>
        <time>2014-06-15T14:33:38Z</time>
      </trkpt>
      <trkpt lat="59.9366758" lon="17.647451">
        <ele>38.5901</ele>
        <time>2014-06-15T14:33:39Z</time>
      </trkpt>
      <trkpt lat="59.93673" lon="17.647532">
        <ele>38.5901</ele>
        <time>2014-06-15T14:33:40Z</time>
      </trkpt>
      <trkpt lat="59.9367838" lon="17.6476126">
        <ele>38.5901</ele>
        <time>2014-06-15T14:33:41Z</time>
      </trkpt>
      <trkpt lat="59.9368405" lon="17.6476903">
        <ele>38.5901</ele>
        <time>2014-06-15T14:33:42Z</time>
      </trkpt>
      <trkpt lat="59.9368988" lon="17.6477615">
        <ele>38.5901</ele>
        <time>2014-06-15T14:33:43Z</time>
      </trkpt>
      <trkpt lat="59.9369535" lon="17.6478234">
        <ele>38.5901</ele>
        <time>2014-06-15T14:33:44Z</time>
      </trkpt>
      <trkpt lat="59.9370102" lon="17.6478862">
        <ele>38.5901</ele>
        <time>2014-06-15T14:33:45Z</time>
      </trkpt>
      <trkpt lat="59.9370695" lon="17.6479561">
        <ele>38.5901</ele>
        <time>2014-06-15T14:33:46Z</time>
      </trkpt>
      <trkpt lat="59.9371258" lon="17.6480271">
        <ele>38.5901</ele>
        <time>2014-06-15T14:33:47Z</time>
      </trkpt>
      <trkpt lat="59.9371801" lon="17.6480958">
        <ele>39.0707</ele>
        <time>2014-06-15T14:33:48Z</time>
      </trkpt>
      <trkpt lat="59.9372328" lon="17.6481642">
        <ele>38.5901</ele>
        <time>2014-06-15T14:33:49Z</time>
      </trkpt>
      <trkpt lat="59.9372869" lon="17.6482336">
        <ele>38.5901</ele>
        <time>2014-06-15T14:33:50Z</time>
      </trkpt>
      <trkpt lat="59.9373409" lon="17.6483111">
        <ele>38.5901</ele>
        <time>2014-06-15T14:33:51Z</time>
      </trkpt>
      <trkpt lat="59.9373889" lon="17.6483972">
        <ele>38.5901</ele>
        <time>2014-06-15T14:33:52Z</time>
      </trkpt>
      <trkpt lat="59.9374274" lon="17.6484853">
        <ele>39.0707</ele>
        <time>2014-06-15T14:33:53Z</time>
      </trkpt>
      <trkpt lat="59.9374584" lon="17.6485757">
        <ele>39.0707</ele>
        <time>2014-06-15T14:33:54Z</time>
      </trkpt>
      <trkpt lat="59.9374865" lon="17.648673">
        <ele>39.0707</ele>
        <time>2014-06-15T14:33:55Z</time>
      </trkpt>
      <trkpt lat="59.937515" lon="17.6487771">
        <ele>38.5901</ele>
        <time>2014-06-15T14:33:56Z</time>
      </trkpt>
      <trkpt lat="59.9375489" lon="17.6488826">
        <ele>38.5901</ele>
        <time>2014-06-15T14:33:57Z</time>
      </trkpt>
      <trkpt lat="59.9375899" lon="17.6489849">
        <ele>38.5901</ele>
        <time>2014-06-15T14:33:58Z</time>
      </trkpt>
      <trkpt lat="59.9376362" lon="17.6490847">
        <ele>38.5901</ele>
        <time>2014-06-15T14:33:59Z</time>
      </trkpt>
      <trkpt lat="59.9376854" lon="17.6491853">
        <ele>38.5901</ele>
        <time>2014-06-15T14:34:00Z</time>
      </trkpt>
      <trkpt lat="59.9377356" lon="17.6492891">
        <ele>38.5901</ele>
        <time>2014-06-15T14:34:01Z</time>
      </trkpt>
      <trkpt lat="59.9377833" lon="17.649401">
        <ele>38.5901</ele>
        <time>2014-06-15T14:34:02Z</time>
      </trkpt>
      <trkpt lat="59.9378256" lon="17.6495234">
        <ele>38.1094</ele>
        <time>2014-06-15T14:34:03Z</time>
      </trkpt>
      <trkpt lat="59.9378673" lon="17.6496482">
        <ele>38.1094</ele>
        <time>2014-06-15T14:34:04Z</time>
      </trkpt>
      <trkpt lat="59.9379122" lon="17.6497705">
        <ele>38.1094</ele>
        <time>2014-06-15T14:34:05Z</time>
      </trkpt>
      <trkpt lat="59.9379589" lon="17.6498919">
        <ele>38.1094</ele>
        <time>2014-06-15T14:34:06Z</time>
      </trkpt>
      <trkpt lat="59.9380066" lon="17.6500131">
        <ele>38.1094</ele>
        <time>2014-06-15T14:34:07Z</time>
      </trkpt>
      <trkpt lat="59.9380538" lon="17.6501357">
        <ele>38.1094</ele>
        <time>2014-06-15T14:34:08Z</time>
      </trkpt>
      <trkpt lat="59.9380999" lon="17.6502608">
        <ele>37.6287</ele>
        <time>2014-06-15T14:34:09Z</time>
      </trkpt>
      <trkpt lat="59.9381445" lon="17.6503888">
        <ele>37.6287</ele>
        <time>2014-06-15T14:34:10Z</time>
      </trkpt>
      <trkpt lat="59.9381879" lon="17.6505166">
        <ele>37.6287</ele>
        <time>2014-06-15T14:34:11Z</time>
      </trkpt>
      <trkpt lat="59.9382329" lon="17.650641">
        <ele>37.6287</ele>
        <time>2014-06-15T14:34:12Z</time>
      </trkpt>
      <trkpt lat="59.9382801" lon="17.6507605">
        <ele>37.6287</ele>
        <time>2014-06-15T14:34:13Z</time>
      </trkpt>
      <trkpt lat="59.9383303" lon="17.6508751">
        <ele>37.6287</ele>
        <time>2014-06-15T14:34:14Z</time>
      </trkpt>
      <trkpt lat="59.9383831" lon="17.6509847">
        <ele>37.6287</ele>
        <time>2014-06-15T14:34:15Z</time>
      </trkpt>
      <trkpt lat="59.9384359" lon="17.6510954">
        <ele>37.6287</ele>
        <time>2014-06-15T14:34:16Z</time>
      </trkpt>
      <trkpt lat="59.9384837" lon="17.6512149">
        <ele>37.6287</ele>
        <time>2014-06-15T14:34:17Z</time>
      </trkpt>
      <trkpt lat="59.9385264" lon="17.6513414">
        <ele>37.6287</ele>
        <time>2014-06-15T14:34:18Z</time>
      </trkpt>
      <trkpt lat="59.9385671" lon="17.6514698">
        <ele>37.6287</ele>
        <time>2014-06-15T14:34:19Z</time>
      </trkpt>
      <trkpt lat="59.9386079" lon="17.6515987">
        <ele>37.6287</ele>
        <time>2014-06-15T14:34:20Z</time>
      </trkpt>
      <trkpt lat="59.9386471" lon="17.6517284">
        <ele>37.6287</ele>
        <time>2014-06-15T14:34:21Z</time>
      </trkpt>
      <trkpt lat="59.9386861" lon="17.6518591">
        <ele>37.6287</ele>
        <time>2014-06-15T14:34:22Z</time>
      </trkpt>
      <trkpt lat="59.9387253" lon="17.6519893">
        <ele>37.6287</ele>
        <time>2014-06-15T14:34:23Z</time>
      </trkpt>
      <trkpt lat="59.938764" lon="17.6521198">
        <ele>37.6287</ele>
        <time>2014-06-15T14:34:24Z</time>
      </trkpt>
      <trkpt lat="59.9388018" lon="17.6522505">
        <ele>37.6287</ele>
        <time>2014-06-15T14:34:25Z</time>
      </trkpt>
      <trkpt lat="59.938839" lon="17.652382">
        <ele>37.6287</ele>
        <time>2014-06-15T14:34:26Z</time>
      </trkpt>
      <trkpt lat="59.9388763" lon="17.652513">
        <ele>38.1094</ele>
        <time>2014-06-15T14:34:27Z</time>
      </trkpt>
      <trkpt lat="59.9389131" lon="17.6526431">
        <ele>38.1094</ele>
        <time>2014-06-15T14:34:28Z</time>
      </trkpt>
      <trkpt lat="59.9389488" lon="17.6527731">
        <ele>38.1094</ele>
        <time>2014-06-15T14:34:29Z</time>
      </trkpt>
      <trkpt lat="59.9389834" lon="17.6529041">
        <ele>38.1094</ele>
        <time>2014-06-15T14:34:30Z</time>
      </trkpt>
      <trkpt lat="59.9390163" lon="17.6530369">
        <ele>38.1094</ele>
        <time>2014-06-15T14:34:31Z</time>
      </trkpt>
      <trkpt lat="59.9390479" lon="17.6531708">
        <ele>38.1094</ele>
        <time>2014-06-15T14:34:32Z</time>
      </trkpt>
      <trkpt lat="59.9390791" lon="17.6533041">
        <ele>38.1094</ele>
        <time>2014-06-15T14:34:33Z</time>
      </trkpt>
      <trkpt lat="59.93911" lon="17.653437">
        <ele>38.1094</ele>
        <time>2014-06-15T14:34:34Z</time>
      </trkpt>
      <trkpt lat="59.9391415" lon="17.6535688">
        <ele>38.5901</ele>
        <time>2014-06-15T14:34:35Z</time>
      </trkpt>
      <trkpt lat="59.9391736" lon="17.6537003">
        <ele>38.5901</ele>
        <time>2014-06-15T14:34:36Z</time>
      </trkpt>
      <trkpt lat="59.9392043" lon="17.6538335">
        <ele>38.5901</ele>
        <time>2014-06-15T14:34:37Z</time>
      </trkpt>
      <trkpt lat="59.9392337" lon="17.6539682">
        <ele>38.5901</ele>
        <time>2014-06-15T14:34:38Z</time>
      </trkpt>
      <trkpt lat="59.9392612" lon="17.6541049">
        <ele>38.5901</ele>
        <time>2014-06-15T14:34:39Z</time>
      </trkpt>
      <trkpt lat="59.9392896" lon="17.6542428">
        <ele>38.5901</ele>
        <time>2014-06-15T14:34:40Z</time>
      </trkpt>
      <trkpt lat="59.9393188" lon="17.6543818">
        <ele>38.5901</ele>
        <time>2014-06-15T14:34:41Z</time>
      </trkpt>
      <trkpt lat="59.939347" lon="17.6545229">
        <ele>38.5901</ele>
        <time>2014-06-15T14:34:42Z</time>
      </trkpt>
      <trkpt lat="59.9393746" lon="17.6546649">
        <ele>38.5901</ele>
        <time>2014-06-15T14:34:43Z</time>
      </trkpt>
      <trkpt lat="59.9394025" lon="17.6548072">
        <ele>38.5901</ele>
        <time>2014-06-15T14:34:44Z</time>
      </trkpt>
      <trkpt lat="59.9394306" lon="17.6549487">
        <ele>38.5901</ele>
        <time>2014-06-15T14:34:45Z</time>
      </trkpt>
      <trkpt lat="59.9394596" lon="17.6550894">
        <ele>38.5901</ele>
        <time>2014-06-15T14:34:46Z</time>
      </trkpt>
      <trkpt lat="59.9394891" lon="17.6552304">
        <ele>38.5901</ele>
        <time>2014-06-15T14:34:47Z</time>
      </trkpt>
      <trkpt lat="59.9395177" lon="17.6553713">
        <ele>38.5901</ele>
        <time>2014-06-15T14:34:48Z</time>
      </trkpt>
      <trkpt lat="59.9395461" lon="17.6555123">
        <ele>38.5901</ele>
        <time>2014-06-15T14:34:49Z</time>
      </trkpt>
      <trkpt lat="59.9395744" lon="17.6556541">
        <ele>38.5901</ele>
        <time>2014-06-15T14:34:50Z</time>
      </trkpt>
      <trkpt lat="59.9396037" lon="17.655796">
        <ele>38.5901</ele>
        <time>2014-06-15T14:34:51Z</time>
      </trkpt>
      <trkpt lat="59.939635" lon="17.6559374">
        <ele>38.5901</ele>
        <time>2014-06-15T14:34:52Z</time>
      </trkpt>
      <trkpt lat="59.9396657" lon="17.6560799">
        <ele>38.5901</ele>
        <time>2014-06-15T14:34:53Z</time>
      </trkpt>
      <trkpt lat="59.9396947" lon="17.6562237">
        <ele>38.5901</ele>
        <time>2014-06-15T14:34:54Z</time>
      </trkpt>
      <trkpt lat="59.9397227" lon="17.6563675">
        <ele>38.5901</ele>
        <time>2014-06-15T14:34:55Z</time>
      </trkpt>
      <trkpt lat="59.9397501" lon="17.6565101">
        <ele>38.1094</ele>
        <time>2014-06-15T14:34:56Z</time>
      </trkpt>
      <trkpt lat="59.9397777" lon="17.6566498">
        <ele>38.1094</ele>
        <time>2014-06-15T14:34:57Z</time>
      </trkpt>
      <trkpt lat="59.939807" lon="17.6567856">
        <ele>38.1094</ele>
        <time>2014-06-15T14:34:58Z</time>
      </trkpt>
      <trkpt lat="59.9398356" lon="17.6569198">
        <ele>38.1094</ele>
        <time>2014-06-15T14:34:59Z</time>
      </trkpt>
      <trkpt lat="59.9398621" lon="17.657054">
        <ele>38.1094</ele>
        <time>2014-06-15T14:35:00Z</time>
      </trkpt>
      <trkpt lat="59.9398879" lon="17.6571887">
        <ele>37.6287</ele>
        <time>2014-06-15T14:35:01Z</time>
      </trkpt>
      <trkpt lat="59.9399134" lon="17.6573244">
        <ele>37.6287</ele>
        <time>2014-06-15T14:35:02Z</time>
      </trkpt>
      <trkpt lat="59.9399396" lon="17.6574611">
        <ele>37.6287</ele>
        <time>2014-06-15T14:35:03Z</time>
      </trkpt>
      <trkpt lat="59.9399667" lon="17.6575985">
        <ele>37.1481</ele>
        <time>2014-06-15T14:35:04Z</time>
      </trkpt>
      <trkpt lat="59.9399952" lon="17.6577363">
        <ele>37.1481</ele>
        <time>2014-06-15T14:35:05Z</time>
      </trkpt>
      <trkpt lat="59.9400247" lon="17.6578745">
        <ele>37.1481</ele>
        <time>2014-06-15T14:35:06Z</time>
      </trkpt>
      <trkpt lat="59.9400547" lon="17.6580138">
        <ele>36.6675</ele>
        <time>2014-06-15T14:35:07Z</time>
      </trkpt>
      <trkpt lat="59.9400843" lon="17.6581553">
        <ele>36.6675</ele>
        <time>2014-06-15T14:35:08Z</time>
      </trkpt>
      <trkpt lat="59.9401138" lon="17.6582986">
        <ele>36.6675</ele>
        <time>2014-06-15T14:35:09Z</time>
      </trkpt>
      <trkpt lat="59.9401445" lon="17.6584415">
        <ele>36.1868</ele>
        <time>2014-06-15T14:35:10Z</time>
      </trkpt>
      <trkpt lat="59.9401769" lon="17.6585825">
        <ele>36.1868</ele>
        <time>2014-06-15T14:35:11Z</time>
      </trkpt>
      <trkpt lat="59.9402105" lon="17.6587224">
        <ele>36.1868</ele>
        <time>2014-06-15T14:35:12Z</time>
      </trkpt>
      <trkpt lat="59.9402438" lon="17.6588631">
        <ele>36.1868</ele>
        <time>2014-06-15T14:35:13Z</time>
      </trkpt>
      <trkpt lat="59.9402752" lon="17.6590048">
        <ele>36.1868</ele>
        <time>2014-06-15T14:35:14Z</time>
      </trkpt>
      <trkpt lat="59.9403024" lon="17.6591457">
        <ele>36.1868</ele>
        <time>2014-06-15T14:35:15Z</time>
      </trkpt>
      <trkpt lat="59.9403261" lon="17.6592849">
        <ele>36.1868</ele>
        <time>2014-06-15T14:35:16Z</time>
      </trkpt>
      <trkpt lat="59.940347" lon="17.6594217">
        <ele>36.1868</ele>
        <time>2014-06-15T14:35:17Z</time>
      </trkpt>
      <trkpt lat="59.9403672" lon="17.6595537">
        <ele>36.6675</ele>
        <time>2014-06-15T14:35:18Z</time>
      </trkpt>
      <trkpt lat="59.9403902" lon="17.6596783">
        <ele>36.6675</ele>
        <time>2014-06-15T14:35:19Z</time>
      </trkpt>
      <trkpt lat="59.9404174" lon="17.6597994">
        <ele>36.6675</ele>
        <time>2014-06-15T14:35:20Z</time>
      </trkpt>
      <trkpt lat="59.9404479" lon="17.6599201">
        <ele>37.1481</ele>
        <time>2014-06-15T14:35:21Z</time>
      </trkpt>
      <trkpt lat="59.940479" lon="17.660044">
        <ele>37.1481</ele>
        <time>2014-06-15T14:35:22Z</time>
      </trkpt>
      <trkpt lat="59.9405128" lon="17.6601598">
        <ele>37.1481</ele>
        <time>2014-06-15T14:35:23Z</time>
      </trkpt>
      <trkpt lat="59.9405436" lon="17.6602753">
        <ele>37.1481</ele>
        <time>2014-06-15T14:35:24Z</time>
      </trkpt>
      <trkpt lat="59.9405547" lon="17.6604016">
        <ele>36.6675</ele>
        <time>2014-06-15T14:35:25Z</time>
      </trkpt>
      <trkpt lat="59.9405408" lon="17.6605382">
        <ele>33.7834</ele>
        <time>2014-06-15T14:35:26Z</time>
      </trkpt>
      <trkpt lat="59.9405114" lon="17.6606877">
        <ele>34.2642</ele>
        <time>2014-06-15T14:35:27Z</time>
      </trkpt>
      <trkpt lat="59.9404738" lon="17.6608281">
        <ele>33.7834</ele>
        <time>2014-06-15T14:35:28Z</time>
      </trkpt>
      <trkpt lat="59.9404387" lon="17.6609726">
        <ele>33.7834</ele>
        <time>2014-06-15T14:35:29Z</time>
      </trkpt>
      <trkpt lat="59.9404148" lon="17.6611224">
        <ele>33.7834</ele>
        <time>2014-06-15T14:35:30Z</time>
      </trkpt>
      <trkpt lat="59.9404039" lon="17.6612669">
        <ele>33.3029</ele>
        <time>2014-06-15T14:35:31Z</time>
      </trkpt>
      <trkpt lat="59.9403995" lon="17.6614135">
        <ele>33.3029</ele>
        <time>2014-06-15T14:35:32Z</time>
      </trkpt>
      <trkpt lat="59.9404066" lon="17.6615609">
        <ele>33.7834</ele>
        <time>2014-06-15T14:35:33Z</time>
      </trkpt>
      <trkpt lat="59.9404213" lon="17.6617009">
        <ele>33.7834</ele>
        <time>2014-06-15T14:35:34Z</time>
      </trkpt>
      <trkpt lat="59.9404467" lon="17.6618319">
        <ele>34.2642</ele>
        <time>2014-06-15T14:35:35Z</time>
      </trkpt>
      <trkpt lat="59.9404801" lon="17.6619367">
        <ele>33.7834</ele>
        <time>2014-06-15T14:35:36Z</time>
      </trkpt>
      <trkpt lat="59.9405256" lon="17.6620217">
        <ele>34.2642</ele>
        <time>2014-06-15T14:35:37Z</time>
      </trkpt>
      <trkpt lat="59.9405788" lon="17.6620895">
        <ele>34.2642</ele>
        <time>2014-06-15T14:35:38Z</time>
      </trkpt>
      <trkpt lat="59.940635" lon="17.6621452">
        <ele>34.7449</ele>
        <time>2014-06-15T14:35:39Z</time>
      </trkpt>
      <trkpt lat="59.9406945" lon="17.6621821">
        <ele>34.7449</ele>
        <time>2014-06-15T14:35:40Z</time>
      </trkpt>
      <trkpt lat="59.940755" lon="17.6622002">
        <ele>34.7449</ele>
        <time>2014-06-15T14:35:41Z</time>
      </trkpt>
      <trkpt lat="59.9408167" lon="17.6622082">
        <ele>34.7449</ele>
        <time>2014-06-15T14:35:42Z</time>
      </trkpt>
      <trkpt lat="59.9408792" lon="17.6622181">
        <ele>34.7449</ele>
        <time>2014-06-15T14:35:43Z</time>
      </trkpt>
      <trkpt lat="59.9409431" lon="17.6622348">
        <ele>34.7449</ele>
        <time>2014-06-15T14:35:44Z</time>
      </trkpt>
      <trkpt lat="59.941007" lon="17.6622572">
        <ele>34.7449</ele>
        <time>2014-06-15T14:35:45Z</time>
      </trkpt>
      <trkpt lat="59.9410702" lon="17.6622858">
        <ele>35.2255</ele>
        <time>2014-06-15T14:35:46Z</time>
      </trkpt>
      <trkpt lat="59.9411331" lon="17.6623211">
        <ele>35.2255</ele>
        <time>2014-06-15T14:35:47Z</time>
      </trkpt>
      <trkpt lat="59.9411949" lon="17.6623626">
        <ele>35.2255</ele>
        <time>2014-06-15T14:35:48Z</time>
      </trkpt>
      <trkpt lat="59.9412565" lon="17.6624095">
        <ele>35.2255</ele>
        <time>2014-06-15T14:35:49Z</time>
      </trkpt>
      <trkpt lat="59.9413187" lon="17.6624608">
        <ele>35.2255</ele>
        <time>2014-06-15T14:35:50Z</time>
      </trkpt>
      <trkpt lat="59.9413796" lon="17.6625206">
        <ele>35.2255</ele>
        <time>2014-06-15T14:35:51Z</time>
      </trkpt>
      <trkpt lat="59.9414376" lon="17.66259">
        <ele>35.2255</ele>
        <time>2014-06-15T14:35:52Z</time>
      </trkpt>
      <trkpt lat="59.9414938" lon="17.6626638">
        <ele>35.2255</ele>
        <time>2014-06-15T14:35:53Z</time>
      </trkpt>
      <trkpt lat="59.9415475" lon="17.6627418">
        <ele>35.2255</ele>
        <time>2014-06-15T14:35:54Z</time>
      </trkpt>
      <trkpt lat="59.9415983" lon="17.6628272">
        <ele>35.2255</ele>
        <time>2014-06-15T14:35:55Z</time>
      </trkpt>
      <trkpt lat="59.9416482" lon="17.662916">
        <ele>35.7061</ele>
        <time>2014-06-15T14:35:56Z</time>
      </trkpt>
      <trkpt lat="59.9416982" lon="17.6630053">
        <ele>35.7061</ele>
        <time>2014-06-15T14:35:57Z</time>
      </trkpt>
      <trkpt lat="59.9417484" lon="17.663095">
        <ele>35.7061</ele>
        <time>2014-06-15T14:35:58Z</time>
      </trkpt>
      <trkpt lat="59.9417994" lon="17.6631851">
        <ele>35.7061</ele>
        <time>2014-06-15T14:35:59Z</time>
      </trkpt>
      <trkpt lat="59.9418512" lon="17.6632752">
        <ele>35.7061</ele>
        <time>2014-06-15T14:36:00Z</time>
      </trkpt>
      <trkpt lat="59.9419042" lon="17.6633642">
        <ele>35.7061</ele>
        <time>2014-06-15T14:36:01Z</time>
      </trkpt>
      <trkpt lat="59.9419582" lon="17.6634523">
        <ele>35.7061</ele>
        <time>2014-06-15T14:36:02Z</time>
      </trkpt>
      <trkpt lat="59.9420133" lon="17.6635403">
        <ele>35.7061</ele>
        <time>2014-06-15T14:36:03Z</time>
      </trkpt>
      <trkpt lat="59.9420693" lon="17.663628">
        <ele>35.7061</ele>
        <time>2014-06-15T14:36:04Z</time>
      </trkpt>
      <trkpt lat="59.9421262" lon="17.6637146">
        <ele>35.7061</ele>
        <time>2014-06-15T14:36:05Z</time>
      </trkpt>
      <trkpt lat="59.9421842" lon="17.6637984">
        <ele>35.7061</ele>
        <time>2014-06-15T14:36:06Z</time>
      </trkpt>
      <trkpt lat="59.9422438" lon="17.6638809">
        <ele>35.7061</ele>
        <time>2014-06-15T14:36:07Z</time>
      </trkpt>
      <trkpt lat="59.9423039" lon="17.663964">
        <ele>35.7061</ele>
        <time>2014-06-15T14:36:08Z</time>
      </trkpt>
      <trkpt lat="59.9423644" lon="17.6640464">
        <ele>35.7061</ele>
        <time>2014-06-15T14:36:09Z</time>
      </trkpt>
      <trkpt lat="59.9424256" lon="17.6641272">
        <ele>35.7061</ele>
        <time>2014-06-15T14:36:10Z</time>
      </trkpt>
      <trkpt lat="59.9424879" lon="17.6642064">
        <ele>35.7061</ele>
        <time>2014-06-15T14:36:11Z</time>
      </trkpt>
      <trkpt lat="59.9425516" lon="17.6642846">
        <ele>35.2255</ele>
        <time>2014-06-15T14:36:12Z</time>
      </trkpt>
      <trkpt lat="59.9426173" lon="17.664361">
        <ele>35.2255</ele>
        <time>2014-06-15T14:36:13Z</time>
      </trkpt>
      <trkpt lat="59.9426842" lon="17.6644356">
        <ele>35.2255</ele>
        <time>2014-06-15T14:36:14Z</time>
      </trkpt>
      <trkpt lat="59.942752" lon="17.6645106">
        <ele>35.2255</ele>
        <time>2014-06-15T14:36:15Z</time>
      </trkpt>
      <trkpt lat="59.9428203" lon="17.6645859">
        <ele>34.7449</ele>
        <time>2014-06-15T14:36:16Z</time>
      </trkpt>
      <trkpt lat="59.9428892" lon="17.6646603">
        <ele>34.7449</ele>
        <time>2014-06-15T14:36:17Z</time>
      </trkpt>
      <trkpt lat="59.9429591" lon="17.6647339">
        <ele>34.7449</ele>
        <time>2014-06-15T14:36:18Z</time>
      </trkpt>
      <trkpt lat="59.94303" lon="17.6648057">
        <ele>34.7449</ele>
        <time>2014-06-15T14:36:19Z</time>
      </trkpt>
      <trkpt lat="59.9431021" lon="17.6648734">
        <ele>34.2642</ele>
        <time>2014-06-15T14:36:20Z</time>
      </trkpt>
      <trkpt lat="59.9431752" lon="17.6649383">
        <ele>34.2642</ele>
        <time>2014-06-15T14:36:21Z</time>
      </trkpt>
      <trkpt lat="59.9432493" lon="17.6650015">
        <ele>34.2642</ele>
        <time>2014-06-15T14:36:22Z</time>
      </trkpt>
      <trkpt lat="59.9433244" lon="17.665063">
        <ele>34.2642</ele>
        <time>2014-06-15T14:36:23Z</time>
      </trkpt>
      <trkpt lat="59.943401" lon="17.665123">
        <ele>33.7834</ele>
        <time>2014-06-15T14:36:24Z</time>
      </trkpt>
      <trkpt lat="59.9434787" lon="17.6651815">
        <ele>33.7834</ele>
        <time>2014-06-15T14:36:25Z</time>
      </trkpt>
      <trkpt lat="59.9435571" lon="17.6652386">
        <ele>33.7834</ele>
        <time>2014-06-15T14:36:26Z</time>
      </trkpt>
      <trkpt lat="59.9436363" lon="17.6652933">
        <ele>33.7834</ele>
        <time>2014-06-15T14:36:27Z</time>
      </trkpt>
      <trkpt lat="59.9437161" lon="17.665346">
        <ele>33.3029</ele>
        <time>2014-06-15T14:36:28Z</time>
      </trkpt>
      <trkpt lat="59.9437963" lon="17.665397">
        <ele>33.3029</ele>
        <time>2014-06-15T14:36:29Z</time>
      </trkpt>
      <trkpt lat="59.943877" lon="17.6654457">
        <ele>33.3029</ele>
        <time>2014-06-15T14:36:30Z</time>
      </trkpt>
      <trkpt lat="59.9439584" lon="17.6654918">
        <ele>33.3029</ele>
        <time>2014-06-15T14:36:31Z</time>
      </trkpt>
      <trkpt lat="59.9440406" lon="17.6655349">
        <ele>32.8223</ele>
        <time>2014-06-15T14:36:32Z</time>
      </trkpt>
      <trkpt lat="59.9441233" lon="17.6655756">
        <ele>32.8223</ele>
        <time>2014-06-15T14:36:33Z</time>
      </trkpt>
      <trkpt lat="59.9442066" lon="17.665614">
        <ele>32.8223</ele>
        <time>2014-06-15T14:36:34Z</time>
      </trkpt>
      <trkpt lat="59.9442904" lon="17.6656481">
        <ele>32.8223</ele>
        <time>2014-06-15T14:36:35Z</time>
      </trkpt>
      <trkpt lat="59.9443737" lon="17.6656793">
        <ele>32.3416</ele>
        <time>2014-06-15T14:36:36Z</time>
      </trkpt>
      <trkpt lat="59.9444568" lon="17.6657119">
        <ele>32.3416</ele>
        <time>2014-06-15T14:36:37Z</time>
      </trkpt>
      <trkpt lat="59.9445402" lon="17.6657451">
        <ele>32.3416</ele>
        <time>2014-06-15T14:36:38Z</time>
      </trkpt>
      <trkpt lat="59.9446232" lon="17.6657776">
        <ele>32.3416</ele>
        <time>2014-06-15T14:36:39Z</time>
      </trkpt>
      <trkpt lat="59.9447065" lon="17.6658102">
        <ele>32.3416</ele>
        <time>2014-06-15T14:36:40Z</time>
      </trkpt>
      <trkpt lat="59.9447895" lon="17.6658426">
        <ele>32.3416</ele>
        <time>2014-06-15T14:36:41Z</time>
      </trkpt>
      <trkpt lat="59.9448712" lon="17.6658741">
        <ele>32.3416</ele>
        <time>2014-06-15T14:36:42Z</time>
      </trkpt>
      <trkpt lat="59.944951" lon="17.665904">
        <ele>32.3416</ele>
        <time>2014-06-15T14:36:43Z</time>
      </trkpt>
      <trkpt lat="59.9450293" lon="17.6659326">
        <ele>31.8607</ele>
        <time>2014-06-15T14:36:44Z</time>
      </trkpt>
      <trkpt lat="59.9451064" lon="17.6659611">
        <ele>31.8607</ele>
        <time>2014-06-15T14:36:45Z</time>
      </trkpt>
      <trkpt lat="59.9451823" lon="17.6659892">
        <ele>31.8607</ele>
        <time>2014-06-15T14:36:46Z</time>
      </trkpt>
      <trkpt lat="59.9452569" lon="17.6660166">
        <ele>31.8607</ele>
        <time>2014-06-15T14:36:47Z</time>
      </trkpt>
      <trkpt lat="59.9453302" lon="17.6660439">
        <ele>31.8607</ele>
        <time>2014-06-15T14:36:48Z</time>
      </trkpt>
      <trkpt lat="59.9454022" lon="17.6660712">
        <ele>31.8607</ele>
        <time>2014-06-15T14:36:49Z</time>
      </trkpt>
      <trkpt lat="59.945473" lon="17.666098">
        <ele>31.8607</ele>
        <time>2014-06-15T14:36:50Z</time>
      </trkpt>
      <trkpt lat="59.9455425" lon="17.6661236">
        <ele>31.8607</ele>
        <time>2014-06-15T14:36:51Z</time>
      </trkpt>
      <trkpt lat="59.9456115" lon="17.6661469">
        <ele>31.8607</ele>
        <time>2014-06-15T14:36:52Z</time>
      </trkpt>
      <trkpt lat="59.9456803" lon="17.6661689">
        <ele>31.8607</ele>
        <time>2014-06-15T14:36:53Z</time>
      </trkpt>
      <trkpt lat="59.9457488" lon="17.6661927">
        <ele>31.8607</ele>
        <time>2014-06-15T14:36:54Z</time>
      </trkpt>
      <trkpt lat="59.9458169" lon="17.6662187">
        <ele>31.8607</ele>
        <time>2014-06-15T14:36:55Z</time>
      </trkpt>
      <trkpt lat="59.9458843" lon="17.6662455">
        <ele>31.8607</ele>
        <time>2014-06-15T14:36:56Z</time>
      </trkpt>
      <trkpt lat="59.9459507" lon="17.6662727">
        <ele>31.8607</ele>
        <time>2014-06-15T14:36:57Z</time>
      </trkpt>
      <trkpt lat="59.946016" lon="17.666299">
        <ele>31.8607</ele>
        <time>2014-06-15T14:36:58Z</time>
      </trkpt>
      <trkpt lat="59.9460818" lon="17.6663257">
        <ele>31.8607</ele>
        <time>2014-06-15T14:36:59Z</time>
      </trkpt>
      <trkpt lat="59.946148" lon="17.666353">
        <ele>31.8607</ele>
        <time>2014-06-15T14:37:00Z</time>
      </trkpt>
      <trkpt lat="59.9462138" lon="17.6663812">
        <ele>31.8607</ele>
        <time>2014-06-15T14:37:01Z</time>
      </trkpt>
      <trkpt lat="59.9462787" lon="17.666419">
        <ele>31.8607</ele>
        <time>2014-06-15T14:37:02Z</time>
      </trkpt>
      <trkpt lat="59.9463423" lon="17.6664691">
        <ele>31.8607</ele>
        <time>2014-06-15T14:37:03Z</time>
      </trkpt>
      <trkpt lat="59.9464067" lon="17.6665173">
        <ele>31.8607</ele>
        <time>2014-06-15T14:37:04Z</time>
      </trkpt>
      <trkpt lat="59.9464739" lon="17.6665537">
        <ele>31.8607</ele>
        <time>2014-06-15T14:37:05Z</time>
      </trkpt>
      <trkpt lat="59.9465428" lon="17.6665787">
        <ele>31.8607</ele>
        <time>2014-06-15T14:37:06Z</time>
      </trkpt>
      <trkpt lat="59.9466127" lon="17.6665936">
        <ele>31.8607</ele>
        <time>2014-06-15T14:37:07Z</time>
      </trkpt>
      <trkpt lat="59.9466828" lon="17.6665981">
        <ele>31.8607</ele>
        <time>2014-06-15T14:37:08Z</time>
      </trkpt>
      <trkpt lat="59.9467542" lon="17.6666009">
        <ele>31.8607</ele>
        <time>2014-06-15T14:37:09Z</time>
      </trkpt>
      <trkpt lat="59.9468262" lon="17.6666151">
        <ele>31.8607</ele>
        <time>2014-06-15T14:37:10Z</time>
      </trkpt>
      <trkpt lat="59.9468977" lon="17.6666407">
        <ele>31.8607</ele>
        <time>2014-06-15T14:37:11Z</time>
      </trkpt>
      <trkpt lat="59.9469691" lon="17.6666719">
        <ele>31.8607</ele>
        <time>2014-06-15T14:37:12Z</time>
      </trkpt>
      <trkpt lat="59.94704" lon="17.6667063">
        <ele>31.3801</ele>
        <time>2014-06-15T14:37:13Z</time>
      </trkpt>
      <trkpt lat="59.9471106" lon="17.6667395">
        <ele>31.3801</ele>
        <time>2014-06-15T14:37:14Z</time>
      </trkpt>
      <trkpt lat="59.9471811" lon="17.6667708">
        <ele>31.3801</ele>
        <time>2014-06-15T14:37:15Z</time>
      </trkpt>
      <trkpt lat="59.9472511" lon="17.6668027">
        <ele>31.3801</ele>
        <time>2014-06-15T14:37:16Z</time>
      </trkpt>
      <trkpt lat="59.9473203" lon="17.6668345">
        <ele>31.3801</ele>
        <time>2014-06-15T14:37:17Z</time>
      </trkpt>
      <trkpt lat="59.9473882" lon="17.6668661">
        <ele>31.3801</ele>
        <time>2014-06-15T14:37:18Z</time>
      </trkpt>
      <trkpt lat="59.9474556" lon="17.6668982">
        <ele>31.3801</ele>
        <time>2014-06-15T14:37:19Z</time>
      </trkpt>
      <trkpt lat="59.9475232" lon="17.6669293">
        <ele>31.3801</ele>
        <time>2014-06-15T14:37:20Z</time>
      </trkpt>
      <trkpt lat="59.9475909" lon="17.6669593">
        <ele>31.3801</ele>
        <time>2014-06-15T14:37:21Z</time>
      </trkpt>
      <trkpt lat="59.9476587" lon="17.6669909">
        <ele>31.3801</ele>
        <time>2014-06-15T14:37:22Z</time>
      </trkpt>
      <trkpt lat="59.9477256" lon="17.6670251">
        <ele>31.3801</ele>
        <time>2014-06-15T14:37:23Z</time>
      </trkpt>
      <trkpt lat="59.9477926" lon="17.6670608">
        <ele>31.3801</ele>
        <time>2014-06-15T14:37:24Z</time>
      </trkpt>
      <trkpt lat="59.9478596" lon="17.6670955">
        <ele>31.3801</ele>
        <time>2014-06-15T14:37:25Z</time>
      </trkpt>
      <trkpt lat="59.9479264" lon="17.6671301">
        <ele>31.3801</ele>
        <time>2014-06-15T14:37:26Z</time>
      </trkpt>
      <trkpt lat="59.9479918" lon="17.6671665">
        <ele>30.8995</ele>
        <time>2014-06-15T14:37:27Z</time>
      </trkpt>
      <trkpt lat="59.9480569" lon="17.6672017">
        <ele>30.8995</ele>
        <time>2014-06-15T14:37:28Z</time>
      </trkpt>
      <trkpt lat="59.9481213" lon="17.6672364">
        <ele>30.8995</ele>
        <time>2014-06-15T14:37:29Z</time>
      </trkpt>
      <trkpt lat="59.9481854" lon="17.6672722">
        <ele>30.8995</ele>
        <time>2014-06-15T14:37:30Z</time>
      </trkpt>
      <trkpt lat="59.9482491" lon="17.6673065">
        <ele>30.8995</ele>
        <time>2014-06-15T14:37:31Z</time>
      </trkpt>
      <trkpt lat="59.9483129" lon="17.6673416">
        <ele>30.8995</ele>
        <time>2014-06-15T14:37:32Z</time>
      </trkpt>
      <trkpt lat="59.948376" lon="17.6673782">
        <ele>30.8995</ele>
        <time>2014-06-15T14:37:33Z</time>
      </trkpt>
      <trkpt lat="59.9484381" lon="17.6674126">
        <ele>30.8995</ele>
        <time>2014-06-15T14:37:34Z</time>
      </trkpt>
      <trkpt lat="59.9484989" lon="17.6674456">
        <ele>30.8995</ele>
        <time>2014-06-15T14:37:35Z</time>
      </trkpt>
      <trkpt lat="59.9485546" lon="17.6674752">
        <ele>30.8995</ele>
        <time>2014-06-15T14:37:36Z</time>
      </trkpt>
      <trkpt lat="59.9486098" lon="17.6675042">
        <ele>30.8995</ele>
        <time>2014-06-15T14:37:37Z</time>
      </trkpt>
      <trkpt lat="59.9486677" lon="17.6675357">
        <ele>30.8995</ele>
        <time>2014-06-15T14:37:38Z</time>
      </trkpt>
      <trkpt lat="59.9487212" lon="17.6675672">
        <ele>30.8995</ele>
        <time>2014-06-15T14:37:39Z</time>
      </trkpt>
      <trkpt lat="59.9487749" lon="17.6675999">
        <ele>30.8995</ele>
        <time>2014-06-15T14:37:40Z</time>
      </trkpt>
      <trkpt lat="59.9488296" lon="17.6676302">
        <ele>30.8995</ele>
        <time>2014-06-15T14:37:41Z</time>
      </trkpt>
      <trkpt lat="59.9488848" lon="17.6676602">
        <ele>30.8995</ele>
        <time>2014-06-15T14:37:42Z</time>
      </trkpt>
      <trkpt lat="59.9489402" lon="17.6676936">
        <ele>30.8995</ele>
        <time>2014-06-15T14:37:43Z</time>
      </trkpt>
      <trkpt lat="59.9489965" lon="17.6677281">
        <ele>30.8995</ele>
        <time>2014-06-15T14:37:44Z</time>
      </trkpt>
      <trkpt lat="59.9490527" lon="17.6677623">
        <ele>30.8995</ele>
        <time>2014-06-15T14:37:45Z</time>
      </trkpt>
      <trkpt lat="59.9491094" lon="17.6677965">
        <ele>30.4188</ele>
        <time>2014-06-15T14:37:46Z</time>
      </trkpt>
      <trkpt lat="59.9491666" lon="17.6678294">
        <ele>30.4188</ele>
        <time>2014-06-15T14:37:47Z</time>
      </trkpt>
      <trkpt lat="59.9492244" lon="17.6678612">
        <ele>30.4188</ele>
        <time>2014-06-15T14:37:48Z</time>
      </trkpt>
      <trkpt lat="59.9492825" lon="17.6678931">
        <ele>30.4188</ele>
        <time>2014-06-15T14:37:49Z</time>
      </trkpt>
      <trkpt lat="59.949341" lon="17.6679264">
        <ele>30.4188</ele>
        <time>2014-06-15T14:37:50Z</time>
      </trkpt>
      <trkpt lat="59.9494002" lon="17.6679609">
        <ele>30.4188</ele>
        <time>2014-06-15T14:37:51Z</time>
      </trkpt>
      <trkpt lat="59.9494603" lon="17.6679948">
        <ele>30.4188</ele>
        <time>2014-06-15T14:37:52Z</time>
      </trkpt>
      <trkpt lat="59.9495213" lon="17.6680281">
        <ele>30.4188</ele>
        <time>2014-06-15T14:37:53Z</time>
      </trkpt>
      <trkpt lat="59.9495839" lon="17.6680616">
        <ele>30.4188</ele>
        <time>2014-06-15T14:37:54Z</time>
      </trkpt>
      <trkpt lat="59.9496467" lon="17.6680939">
        <ele>29.9381</ele>
        <time>2014-06-15T14:37:55Z</time>
      </trkpt>
      <trkpt lat="59.9497104" lon="17.6681259">
        <ele>29.9381</ele>
        <time>2014-06-15T14:37:56Z</time>
      </trkpt>
      <trkpt lat="59.9497751" lon="17.6681575">
        <ele>29.9381</ele>
        <time>2014-06-15T14:37:57Z</time>
      </trkpt>
      <trkpt lat="59.9498404" lon="17.6681879">
        <ele>29.9381</ele>
        <time>2014-06-15T14:37:58Z</time>
      </trkpt>
      <trkpt lat="59.9499063" lon="17.6682165">
        <ele>29.9381</ele>
        <time>2014-06-15T14:37:59Z</time>
      </trkpt>
      <trkpt lat="59.9499731" lon="17.6682415">
        <ele>29.9381</ele>
        <time>2014-06-15T14:38:00Z</time>
      </trkpt>
      <trkpt lat="59.9500408" lon="17.6682638">
        <ele>29.9381</ele>
        <time>2014-06-15T14:38:01Z</time>
      </trkpt>
      <trkpt lat="59.9501086" lon="17.668284">
        <ele>29.9381</ele>
        <time>2014-06-15T14:38:02Z</time>
      </trkpt>
      <trkpt lat="59.9501771" lon="17.6683013">
        <ele>29.9381</ele>
        <time>2014-06-15T14:38:03Z</time>
      </trkpt>
      <trkpt lat="59.950246" lon="17.668318">
        <ele>29.9381</ele>
        <time>2014-06-15T14:38:04Z</time>
      </trkpt>
      <trkpt lat="59.9503155" lon="17.6683342">
        <ele>29.9381</ele>
        <time>2014-06-15T14:38:05Z</time>
      </trkpt>
      <trkpt lat="59.9503859" lon="17.6683454">
        <ele>29.9381</ele>
        <time>2014-06-15T14:38:06Z</time>
      </trkpt>
      <trkpt lat="59.9504565" lon="17.6683505">
        <ele>29.9381</ele>
        <time>2014-06-15T14:38:07Z</time>
      </trkpt>
      <trkpt lat="59.9505274" lon="17.6683517">
        <ele>29.9381</ele>
        <time>2014-06-15T14:38:08Z</time>
      </trkpt>
      <trkpt lat="59.9505979" lon="17.668348">
        <ele>29.4575</ele>
        <time>2014-06-15T14:38:09Z</time>
      </trkpt>
      <trkpt lat="59.9506679" lon="17.6683404">
        <ele>29.4575</ele>
        <time>2014-06-15T14:38:10Z</time>
      </trkpt>
      <trkpt lat="59.9507382" lon="17.6683304">
        <ele>29.4575</ele>
        <time>2014-06-15T14:38:11Z</time>
      </trkpt>
      <trkpt lat="59.9508084" lon="17.6683168">
        <ele>29.4575</ele>
        <time>2014-06-15T14:38:12Z</time>
      </trkpt>
      <trkpt lat="59.9508789" lon="17.6683002">
        <ele>29.4575</ele>
        <time>2014-06-15T14:38:13Z</time>
      </trkpt>
      <trkpt lat="59.9509507" lon="17.6682806">
        <ele>28.9769</ele>
        <time>2014-06-15T14:38:14Z</time>
      </trkpt>
      <trkpt lat="59.9510247" lon="17.6682595">
        <ele>28.9769</ele>
        <time>2014-06-15T14:38:15Z</time>
      </trkpt>
      <trkpt lat="59.9510998" lon="17.6682371">
        <ele>28.4962</ele>
        <time>2014-06-15T14:38:16Z</time>
      </trkpt>
      <trkpt lat="59.9511753" lon="17.6682129">
        <ele>28.4962</ele>
        <time>2014-06-15T14:38:17Z</time>
      </trkpt>
      <trkpt lat="59.9512496" lon="17.6681854">
        <ele>28.0155</ele>
        <time>2014-06-15T14:38:18Z</time>
      </trkpt>
      <trkpt lat="59.9513239" lon="17.6681555">
        <ele>28.0155</ele>
        <time>2014-06-15T14:38:19Z</time>
      </trkpt>
      <trkpt lat="59.9513972" lon="17.6681277">
        <ele>27.5349</ele>
        <time>2014-06-15T14:38:20Z</time>
      </trkpt>
      <trkpt lat="59.9514705" lon="17.668111">
        <ele>27.5349</ele>
        <time>2014-06-15T14:38:21Z</time>
      </trkpt>
      <trkpt lat="59.9515436" lon="17.6681112">
        <ele>27.5349</ele>
        <time>2014-06-15T14:38:22Z</time>
      </trkpt>
      <trkpt lat="59.9516147" lon="17.6681357">
        <ele>27.0543</ele>
        <time>2014-06-15T14:38:23Z</time>
      </trkpt>
      <trkpt lat="59.9516773" lon="17.6682015">
        <ele>27.0543</ele>
        <time>2014-06-15T14:38:24Z</time>
      </trkpt>
      <trkpt lat="59.9517259" lon="17.6683061">
        <ele>26.5736</ele>
        <time>2014-06-15T14:38:25Z</time>
      </trkpt>
      <trkpt lat="59.9517626" lon="17.6684319">
        <ele>26.5736</ele>
        <time>2014-06-15T14:38:26Z</time>
      </trkpt>
      <trkpt lat="59.9517932" lon="17.6685642">
        <ele>26.5736</ele>
        <time>2014-06-15T14:38:27Z</time>
      </trkpt>
      <trkpt lat="59.9518184" lon="17.6686982">
        <ele>26.5736</ele>
        <time>2014-06-15T14:38:28Z</time>
      </trkpt>
      <trkpt lat="59.9518368" lon="17.6688338">
        <ele>26.5736</ele>
        <time>2014-06-15T14:38:29Z</time>
      </trkpt>
      <trkpt lat="59.951845" lon="17.6689708">
        <ele>26.5736</ele>
        <time>2014-06-15T14:38:30Z</time>
      </trkpt>
      <trkpt lat="59.9518437" lon="17.6691055">
        <ele>26.5736</ele>
        <time>2014-06-15T14:38:31Z</time>
      </trkpt>
      <trkpt lat="59.9518367" lon="17.6692364">
        <ele>26.5736</ele>
        <time>2014-06-15T14:38:32Z</time>
      </trkpt>
      <trkpt lat="59.9518285" lon="17.6693661">
        <ele>26.5736</ele>
        <time>2014-06-15T14:38:33Z</time>
      </trkpt>
      <trkpt lat="59.9518212" lon="17.6694971">
        <ele>26.5736</ele>
        <time>2014-06-15T14:38:34Z</time>
      </trkpt>
      <trkpt lat="59.9518147" lon="17.6696298">
        <ele>26.0929</ele>
        <time>2014-06-15T14:38:35Z</time>
      </trkpt>
      <trkpt lat="59.9518088" lon="17.6697637">
        <ele>26.5736</ele>
        <time>2014-06-15T14:38:36Z</time>
      </trkpt>
      <trkpt lat="59.9518022" lon="17.6698974">
        <ele>26.5736</ele>
        <time>2014-06-15T14:38:37Z</time>
      </trkpt>
      <trkpt lat="59.9517949" lon="17.6700311">
        <ele>26.5736</ele>
        <time>2014-06-15T14:38:38Z</time>
      </trkpt>
      <trkpt lat="59.9517862" lon="17.6701649">
        <ele>26.5736</ele>
        <time>2014-06-15T14:38:39Z</time>
      </trkpt>
      <trkpt lat="59.9517766" lon="17.6702979">
        <ele>26.5736</ele>
        <time>2014-06-15T14:38:40Z</time>
      </trkpt>
      <trkpt lat="59.9517664" lon="17.6704299">
        <ele>27.0543</ele>
        <time>2014-06-15T14:38:41Z</time>
      </trkpt>
      <trkpt lat="59.9517565" lon="17.6705617">
        <ele>27.0543</ele>
        <time>2014-06-15T14:38:42Z</time>
      </trkpt>
      <trkpt lat="59.9517472" lon="17.670694">
        <ele>27.0543</ele>
        <time>2014-06-15T14:38:43Z</time>
      </trkpt>
      <trkpt lat="59.951741" lon="17.6708252">
        <ele>27.5349</ele>
        <time>2014-06-15T14:38:44Z</time>
      </trkpt>
      <trkpt lat="59.9517416" lon="17.6709545">
        <ele>27.5349</ele>
        <time>2014-06-15T14:38:45Z</time>
      </trkpt>
      <trkpt lat="59.951751" lon="17.6710796">
        <ele>28.0155</ele>
        <time>2014-06-15T14:38:46Z</time>
      </trkpt>
      <trkpt lat="59.9517696" lon="17.671198">
        <ele>28.4962</ele>
        <time>2014-06-15T14:38:47Z</time>
      </trkpt>
      <trkpt lat="59.9517921" lon="17.6713094">
        <ele>28.4962</ele>
        <time>2014-06-15T14:38:48Z</time>
      </trkpt>
      <trkpt lat="59.95181" lon="17.6714179">
        <ele>28.9769</ele>
        <time>2014-06-15T14:38:49Z</time>
      </trkpt>
      <trkpt lat="59.9518209" lon="17.671526">
        <ele>29.4575</ele>
        <time>2014-06-15T14:38:50Z</time>
      </trkpt>
      <trkpt lat="59.9518274" lon="17.6716332">
        <ele>29.9381</ele>
        <time>2014-06-15T14:38:51Z</time>
      </trkpt>
      <trkpt lat="59.9518308" lon="17.6717404">
        <ele>29.9381</ele>
        <time>2014-06-15T14:38:52Z</time>
      </trkpt>
      <trkpt lat="59.9518316" lon="17.6718481">
        <ele>30.4188</ele>
        <time>2014-06-15T14:38:53Z</time>
      </trkpt>
      <trkpt lat="59.9518317" lon="17.6719556">
        <ele>30.4188</ele>
        <time>2014-06-15T14:38:54Z</time>
      </trkpt>
      <trkpt lat="59.9518347" lon="17.6720642">
        <ele>30.4188</ele>
        <time>2014-06-15T14:38:55Z</time>
      </trkpt>
      <trkpt lat="59.9518412" lon="17.672175">
        <ele>30.4188</ele>
        <time>2014-06-15T14:38:56Z</time>
      </trkpt>
      <trkpt lat="59.9518503" lon="17.6722868">
        <ele>30.8995</ele>
        <time>2014-06-15T14:38:57Z</time>
      </trkpt>
      <trkpt lat="59.9518621" lon="17.6723977">
        <ele>30.8995</ele>
        <time>2014-06-15T14:38:58Z</time>
      </trkpt>
      <trkpt lat="59.9518757" lon="17.6725087">
        <ele>30.8995</ele>
        <time>2014-06-15T14:38:59Z</time>
      </trkpt>
      <trkpt lat="59.9518892" lon="17.6726196">
        <ele>31.3801</ele>
        <time>2014-06-15T14:39:00Z</time>
      </trkpt>
      <trkpt lat="59.9519023" lon="17.6727284">
        <ele>31.8607</ele>
        <time>2014-06-15T14:39:01Z</time>
      </trkpt>
      <trkpt lat="59.9519155" lon="17.672836">
        <ele>31.8607</ele>
        <time>2014-06-15T14:39:02Z</time>
      </trkpt>
      <trkpt lat="59.9519286" lon="17.6729442">
        <ele>31.8607</ele>
        <time>2014-06-15T14:39:03Z</time>
      </trkpt>
      <trkpt lat="59.9519422" lon="17.6730537">
        <ele>32.3416</ele>
        <time>2014-06-15T14:39:04Z</time>
      </trkpt>
      <trkpt lat="59.9519571" lon="17.673164">
        <ele>32.3416</ele>
        <time>2014-06-15T14:39:05Z</time>
      </trkpt>
      <trkpt lat="59.9519737" lon="17.6732754">
        <ele>32.8223</ele>
        <time>2014-06-15T14:39:06Z</time>
      </trkpt>
      <trkpt lat="59.9519922" lon="17.6733863">
        <ele>32.8223</ele>
        <time>2014-06-15T14:39:07Z</time>
      </trkpt>
      <trkpt lat="59.9520111" lon="17.6734955">
        <ele>32.8223</ele>
        <time>2014-06-15T14:39:08Z</time>
      </trkpt>
      <trkpt lat="59.9520301" lon="17.6736048">
        <ele>33.3029</ele>
        <time>2014-06-15T14:39:09Z</time>
      </trkpt>
      <trkpt lat="59.9520493" lon="17.673714">
        <ele>33.3029</ele>
        <time>2014-06-15T14:39:10Z</time>
      </trkpt>
      <trkpt lat="59.9520688" lon="17.6738219">
        <ele>33.3029</ele>
        <time>2014-06-15T14:39:11Z</time>
      </trkpt>
      <trkpt lat="59.9520886" lon="17.6739271">
        <ele>33.7834</ele>
        <time>2014-06-15T14:39:12Z</time>
      </trkpt>
      <trkpt lat="59.9521088" lon="17.6740291">
        <ele>33.7834</ele>
        <time>2014-06-15T14:39:13Z</time>
      </trkpt>
      <trkpt lat="59.9521281" lon="17.6741297">
        <ele>33.7834</ele>
        <time>2014-06-15T14:39:14Z</time>
      </trkpt>
      <trkpt lat="59.9521471" lon="17.6742297">
        <ele>33.7834</ele>
        <time>2014-06-15T14:39:15Z</time>
      </trkpt>
      <trkpt lat="59.9521684" lon="17.674328">
        <ele>34.2642</ele>
        <time>2014-06-15T14:39:16Z</time>
      </trkpt>
      <trkpt lat="59.9521907" lon="17.6744255">
        <ele>34.2642</ele>
        <time>2014-06-15T14:39:17Z</time>
      </trkpt>
      <trkpt lat="59.9522122" lon="17.6745224">
        <ele>34.2642</ele>
        <time>2014-06-15T14:39:18Z</time>
      </trkpt>
      <trkpt lat="59.9522309" lon="17.6746186">
        <ele>34.2642</ele>
        <time>2014-06-15T14:39:19Z</time>
      </trkpt>
      <trkpt lat="59.9522468" lon="17.6747124">
        <ele>34.7449</ele>
        <time>2014-06-15T14:39:20Z</time>
      </trkpt>
      <trkpt lat="59.9522622" lon="17.6748011">
        <ele>35.2255</ele>
        <time>2014-06-15T14:39:21Z</time>
      </trkpt>
      <trkpt lat="59.9522749" lon="17.6748812">
        <ele>35.7061</ele>
        <time>2014-06-15T14:39:22Z</time>
      </trkpt>
      <trkpt lat="59.9522871" lon="17.6749507">
        <ele>35.7061</ele>
        <time>2014-06-15T14:39:23Z</time>
      </trkpt>
      <trkpt lat="59.9523011" lon="17.6750107">
        <ele>36.1868</ele>
        <time>2014-06-15T14:39:24Z</time>
      </trkpt>
      <trkpt lat="59.9523122" lon="17.6750709">
        <ele>36.1868</ele>
        <time>2014-06-15T14:39:25Z</time>
      </trkpt>
      <trkpt lat="59.9523207" lon="17.6751397">
        <ele>36.1868</ele>
        <time>2014-06-15T14:39:26Z</time>
      </trkpt>
      <trkpt lat="59.9523364" lon="17.6752138">
        <ele>36.6675</ele>
        <time>2014-06-15T14:39:27Z</time>
      </trkpt>
      <trkpt lat="59.9523627" lon="17.6752904">
        <ele>36.6675</ele>
        <time>2014-06-15T14:39:28Z</time>
      </trkpt>
      <trkpt lat="59.9523948" lon="17.6753714">
        <ele>36.1868</ele>
        <time>2014-06-15T14:39:29Z</time>
      </trkpt>
      <trkpt lat="59.952429" lon="17.6754586">
        <ele>36.1868</ele>
        <time>2014-06-15T14:39:30Z</time>
      </trkpt>
      <trkpt lat="59.9524652" lon="17.675552">
        <ele>36.1868</ele>
        <time>2014-06-15T14:39:31Z</time>
      </trkpt>
      <trkpt lat="59.9525044" lon="17.6756515">
        <ele>35.7061</ele>
        <time>2014-06-15T14:39:32Z</time>
      </trkpt>
      <trkpt lat="59.9525475" lon="17.6757591">
        <ele>35.2255</ele>
        <time>2014-06-15T14:39:33Z</time>
      </trkpt>
      <trkpt lat="59.9525923" lon="17.6758748">
        <ele>35.2255</ele>
        <time>2014-06-15T14:39:34Z</time>
      </trkpt>
      <trkpt lat="59.9526376" lon="17.6759969">
        <ele>34.7449</ele>
        <time>2014-06-15T14:39:35Z</time>
      </trkpt>
      <trkpt lat="59.9526798" lon="17.676112">
        <ele>34.2642</ele>
        <time>2014-06-15T14:39:36Z</time>
      </trkpt>
      <trkpt lat="59.9527212" lon="17.6762227">
        <ele>34.2642</ele>
        <time>2014-06-15T14:39:37Z</time>
      </trkpt>
      <trkpt lat="59.9527631" lon="17.6763444">
        <ele>33.7834</ele>
        <time>2014-06-15T14:39:38Z</time>
      </trkpt>
      <trkpt lat="59.9528077" lon="17.6764688">
        <ele>33.7834</ele>
        <time>2014-06-15T14:39:39Z</time>
      </trkpt>
      <trkpt lat="59.9528573" lon="17.6765865">
        <ele>33.7834</ele>
        <time>2014-06-15T14:39:40Z</time>
      </trkpt>
      <trkpt lat="59.9529076" lon="17.6767045">
        <ele>33.7834</ele>
        <time>2014-06-15T14:39:41Z</time>
      </trkpt>
      <trkpt lat="59.9529569" lon="17.6768238">
        <ele>33.3029</ele>
        <time>2014-06-15T14:39:42Z</time>
      </trkpt>
      <trkpt lat="59.9530048" lon="17.6769458">
        <ele>33.3029</ele>
        <time>2014-06-15T14:39:43Z</time>
      </trkpt>
      <trkpt lat="59.9530505" lon="17.6770715">
        <ele>33.3029</ele>
        <time>2014-06-15T14:39:44Z</time>
      </trkpt>
      <trkpt lat="59.9530945" lon="17.6771983">
        <ele>33.3029</ele>
        <time>2014-06-15T14:39:45Z</time>
      </trkpt>
      <trkpt lat="59.9531387" lon="17.677322">
        <ele>33.3029</ele>
        <time>2014-06-15T14:39:46Z</time>
      </trkpt>
      <trkpt lat="59.9531835" lon="17.6774432">
        <ele>33.3029</ele>
        <time>2014-06-15T14:39:47Z</time>
      </trkpt>
      <trkpt lat="59.9532276" lon="17.677565">
        <ele>33.3029</ele>
        <time>2014-06-15T14:39:48Z</time>
      </trkpt>
      <trkpt lat="59.9532708" lon="17.6776883">
        <ele>33.3029</ele>
        <time>2014-06-15T14:39:49Z</time>
      </trkpt>
      <trkpt lat="59.9533148" lon="17.6778114">
        <ele>33.3029</ele>
        <time>2014-06-15T14:39:50Z</time>
      </trkpt>
      <trkpt lat="59.9533588" lon="17.6779349">
        <ele>33.3029</ele>
        <time>2014-06-15T14:39:51Z</time>
      </trkpt>
      <trkpt lat="59.9534018" lon="17.6780608">
        <ele>33.3029</ele>
        <time>2014-06-15T14:39:52Z</time>
      </trkpt>
      <trkpt lat="59.9534452" lon="17.678188">
        <ele>33.3029</ele>
        <time>2014-06-15T14:39:53Z</time>
      </trkpt>
      <trkpt lat="59.9534874" lon="17.6783166">
        <ele>33.3029</ele>
        <time>2014-06-15T14:39:54Z</time>
      </trkpt>
      <trkpt lat="59.9535287" lon="17.6784478">
        <ele>32.8223</ele>
        <time>2014-06-15T14:39:55Z</time>
      </trkpt>
      <trkpt lat="59.9535702" lon="17.6785809">
        <ele>32.8223</ele>
        <time>2014-06-15T14:39:56Z</time>
      </trkpt>
      <trkpt lat="59.9536131" lon="17.678714">
        <ele>32.8223</ele>
        <time>2014-06-15T14:39:57Z</time>
      </trkpt>
      <trkpt lat="59.9536578" lon="17.6788471">
        <ele>32.3416</ele>
        <time>2014-06-15T14:39:58Z</time>
      </trkpt>
      <trkpt lat="59.9537038" lon="17.6789811">
        <ele>32.3416</ele>
        <time>2014-06-15T14:39:59Z</time>
      </trkpt>
      <trkpt lat="59.9537495" lon="17.6791163">
        <ele>32.3416</ele>
        <time>2014-06-15T14:40:00Z</time>
      </trkpt>
      <trkpt lat="59.9537951" lon="17.6792536">
        <ele>31.8607</ele>
        <time>2014-06-15T14:40:01Z</time>
      </trkpt>
      <trkpt lat="59.9538425" lon="17.6793936">
        <ele>31.8607</ele>
        <time>2014-06-15T14:40:02Z</time>
      </trkpt>
      <trkpt lat="59.9538883" lon="17.6795346">
        <ele>32.3416</ele>
        <time>2014-06-15T14:40:03Z</time>
      </trkpt>
      <trkpt lat="59.9539338" lon="17.6796745">
        <ele>31.8607</ele>
        <time>2014-06-15T14:40:04Z</time>
      </trkpt>
      <trkpt lat="59.9539785" lon="17.6798127">
        <ele>31.8607</ele>
        <time>2014-06-15T14:40:05Z</time>
      </trkpt>
      <trkpt lat="59.9540233" lon="17.6799483">
        <ele>31.8607</ele>
        <time>2014-06-15T14:40:06Z</time>
      </trkpt>
      <trkpt lat="59.9540686" lon="17.6800795">
        <ele>31.8607</ele>
        <time>2014-06-15T14:40:07Z</time>
      </trkpt>
      <trkpt lat="59.954114" lon="17.6802073">
        <ele>31.8607</ele>
        <time>2014-06-15T14:40:08Z</time>
      </trkpt>
      <trkpt lat="59.9541589" lon="17.6803332">
        <ele>31.8607</ele>
        <time>2014-06-15T14:40:09Z</time>
      </trkpt>
      <trkpt lat="59.9542032" lon="17.6804582">
        <ele>31.8607</ele>
        <time>2014-06-15T14:40:10Z</time>
      </trkpt>
      <trkpt lat="59.9542462" lon="17.6805835">
        <ele>31.8607</ele>
        <time>2014-06-15T14:40:11Z</time>
      </trkpt>
      <trkpt lat="59.954288" lon="17.6807082">
        <ele>31.8607</ele>
        <time>2014-06-15T14:40:12Z</time>
      </trkpt>
      <trkpt lat="59.954329" lon="17.6808325">
        <ele>32.3416</ele>
        <time>2014-06-15T14:40:13Z</time>
      </trkpt>
      <trkpt lat="59.9543692" lon="17.6809575">
        <ele>32.3416</ele>
        <time>2014-06-15T14:40:14Z</time>
      </trkpt>
      <trkpt lat="59.9544088" lon="17.6810844">
        <ele>31.8607</ele>
        <time>2014-06-15T14:40:15Z</time>
      </trkpt>
      <trkpt lat="59.9544478" lon="17.6812121">
        <ele>32.3416</ele>
        <time>2014-06-15T14:40:16Z</time>
      </trkpt>
      <trkpt lat="59.9544865" lon="17.6813356">
        <ele>32.3416</ele>
        <time>2014-06-15T14:40:17Z</time>
      </trkpt>
      <trkpt lat="59.954525" lon="17.6814544">
        <ele>32.3416</ele>
        <time>2014-06-15T14:40:18Z</time>
      </trkpt>
      <trkpt lat="59.9545642" lon="17.6815691">
        <ele>32.8223</ele>
        <time>2014-06-15T14:40:19Z</time>
      </trkpt>
      <trkpt lat="59.9546051" lon="17.6816796">
        <ele>32.8223</ele>
        <time>2014-06-15T14:40:20Z</time>
      </trkpt>
      <trkpt lat="59.9546464" lon="17.6817867">
        <ele>32.8223</ele>
        <time>2014-06-15T14:40:21Z</time>
      </trkpt>
      <trkpt lat="59.9546904" lon="17.6818857">
        <ele>32.8223</ele>
        <time>2014-06-15T14:40:22Z</time>
      </trkpt>
      <trkpt lat="59.9547396" lon="17.6819679">
        <ele>32.8223</ele>
        <time>2014-06-15T14:40:23Z</time>
      </trkpt>
      <trkpt lat="59.9547928" lon="17.682036">
        <ele>32.8223</ele>
        <time>2014-06-15T14:40:24Z</time>
      </trkpt>
      <trkpt lat="59.9548394" lon="17.6821121">
        <ele>32.8223</ele>
        <time>2014-06-15T14:40:25Z</time>
      </trkpt>
      <trkpt lat="59.9548762" lon="17.6822049">
        <ele>32.8223</ele>
        <time>2014-06-15T14:40:26Z</time>
      </trkpt>
      <trkpt lat="59.9549062" lon="17.6823051">
        <ele>32.8223</ele>
        <time>2014-06-15T14:40:27Z</time>
      </trkpt>
      <trkpt lat="59.9549359" lon="17.6824069">
        <ele>32.8223</ele>
        <time>2014-06-15T14:40:28Z</time>
      </trkpt>
      <trkpt lat="59.9549672" lon="17.6825074">
        <ele>32.8223</ele>
        <time>2014-06-15T14:40:29Z</time>
      </trkpt>
      <trkpt lat="59.9549999" lon="17.6826087">
        <ele>33.3029</ele>
        <time>2014-06-15T14:40:30Z</time>
      </trkpt>
      <trkpt lat="59.9550311" lon="17.6827131">
        <ele>33.3029</ele>
        <time>2014-06-15T14:40:31Z</time>
      </trkpt>
      <trkpt lat="59.9550616" lon="17.68282">
        <ele>33.3029</ele>
        <time>2014-06-15T14:40:32Z</time>
      </trkpt>
      <trkpt lat="59.9550926" lon="17.6829279">
        <ele>33.3029</ele>
        <time>2014-06-15T14:40:33Z</time>
      </trkpt>
      <trkpt lat="59.9551242" lon="17.6830382">
        <ele>33.3029</ele>
        <time>2014-06-15T14:40:34Z</time>
      </trkpt>
      <trkpt lat="59.9551547" lon="17.6831521">
        <ele>33.3029</ele>
        <time>2014-06-15T14:40:35Z</time>
      </trkpt>
      <trkpt lat="59.9551837" lon="17.6832693">
        <ele>33.3029</ele>
        <time>2014-06-15T14:40:36Z</time>
      </trkpt>
      <trkpt lat="59.9552127" lon="17.6833893">
        <ele>33.3029</ele>
        <time>2014-06-15T14:40:37Z</time>
      </trkpt>
      <trkpt lat="59.9552417" lon="17.6835127">
        <ele>33.3029</ele>
        <time>2014-06-15T14:40:38Z</time>
      </trkpt>
      <trkpt lat="59.9552712" lon="17.6836391">
        <ele>33.3029</ele>
        <time>2014-06-15T14:40:39Z</time>
      </trkpt>
      <trkpt lat="59.9553008" lon="17.6837677">
        <ele>33.3029</ele>
        <time>2014-06-15T14:40:40Z</time>
      </trkpt>
      <trkpt lat="59.9553297" lon="17.6838968">
        <ele>33.3029</ele>
        <time>2014-06-15T14:40:41Z</time>
      </trkpt>
      <trkpt lat="59.9553572" lon="17.6840265">
        <ele>33.3029</ele>
        <time>2014-06-15T14:40:42Z</time>
      </trkpt>
      <trkpt lat="59.9553827" lon="17.6841563">
        <ele>33.3029</ele>
        <time>2014-06-15T14:40:43Z</time>
      </trkpt>
      <trkpt lat="59.9554066" lon="17.6842841">
        <ele>33.3029</ele>
        <time>2014-06-15T14:40:44Z</time>
      </trkpt>
      <trkpt lat="59.9554297" lon="17.6844094">
        <ele>33.7834</ele>
        <time>2014-06-15T14:40:45Z</time>
      </trkpt>
      <trkpt lat="59.9554505" lon="17.6845349">
        <ele>33.7834</ele>
        <time>2014-06-15T14:40:46Z</time>
      </trkpt>
      <trkpt lat="59.95547" lon="17.6846618">
        <ele>33.7834</ele>
        <time>2014-06-15T14:40:47Z</time>
      </trkpt>
      <trkpt lat="59.9554904" lon="17.6847891">
        <ele>33.7834</ele>
        <time>2014-06-15T14:40:48Z</time>
      </trkpt>
      <trkpt lat="59.9555122" lon="17.6849157">
        <ele>33.7834</ele>
        <time>2014-06-15T14:40:49Z</time>
      </trkpt>
      <trkpt lat="59.9555334" lon="17.6850437">
        <ele>33.7834</ele>
        <time>2014-06-15T14:40:50Z</time>
      </trkpt>
      <trkpt lat="59.955553" lon="17.6851746">
        <ele>33.7834</ele>
        <time>2014-06-15T14:40:51Z</time>
      </trkpt>
      <trkpt lat="59.9555717" lon="17.685307">
        <ele>34.2642</ele>
        <time>2014-06-15T14:40:52Z</time>
      </trkpt>
      <trkpt lat="59.9555905" lon="17.6854403">
        <ele>34.2642</ele>
        <time>2014-06-15T14:40:53Z</time>
      </trkpt>
      <trkpt lat="59.955609" lon="17.6855743">
        <ele>34.2642</ele>
        <time>2014-06-15T14:40:54Z</time>
      </trkpt>
      <trkpt lat="59.9556271" lon="17.6857083">
        <ele>34.2642</ele>
        <time>2014-06-15T14:40:55Z</time>
      </trkpt>
      <trkpt lat="59.9556451" lon="17.6858421">
        <ele>34.2642</ele>
        <time>2014-06-15T14:40:56Z</time>
      </trkpt>
      <trkpt lat="59.9556637" lon="17.6859754">
        <ele>34.7449</ele>
        <time>2014-06-15T14:40:57Z</time>
      </trkpt>
      <trkpt lat="59.9556836" lon="17.6861086">
        <ele>34.7449</ele>
        <time>2014-06-15T14:40:58Z</time>
      </trkpt>
      <trkpt lat="59.955704" lon="17.6862432">
        <ele>34.7449</ele>
        <time>2014-06-15T14:40:59Z</time>
      </trkpt>
      <trkpt lat="59.9557234" lon="17.6863794">
        <ele>34.7449</ele>
        <time>2014-06-15T14:41:00Z</time>
      </trkpt>
      <trkpt lat="59.9557422" lon="17.6865158">
        <ele>34.7449</ele>
        <time>2014-06-15T14:41:01Z</time>
      </trkpt>
      <trkpt lat="59.9557613" lon="17.686652">
        <ele>34.7449</ele>
        <time>2014-06-15T14:41:02Z</time>
      </trkpt>
      <trkpt lat="59.9557801" lon="17.6867867">
        <ele>34.7449</ele>
        <time>2014-06-15T14:41:03Z</time>
      </trkpt>
      <trkpt lat="59.9557997" lon="17.6869197">
        <ele>35.2255</ele>
        <time>2014-06-15T14:41:04Z</time>
      </trkpt>
      <trkpt lat="59.9558204" lon="17.6870518">
        <ele>35.2255</ele>
        <time>2014-06-15T14:41:05Z</time>
      </trkpt>
      <trkpt lat="59.9558411" lon="17.6871838">
        <ele>35.2255</ele>
        <time>2014-06-15T14:41:06Z</time>
      </trkpt>
      <trkpt lat="59.9558623" lon="17.6873165">
        <ele>35.2255</ele>
        <time>2014-06-15T14:41:07Z</time>
      </trkpt>
      <trkpt lat="59.9558834" lon="17.6874495">
        <ele>35.2255</ele>
        <time>2014-06-15T14:41:08Z</time>
      </trkpt>
      <trkpt lat="59.9559038" lon="17.6875826">
        <ele>35.2255</ele>
        <time>2014-06-15T14:41:09Z</time>
      </trkpt>
      <trkpt lat="59.9559236" lon="17.6877159">
        <ele>35.2255</ele>
        <time>2014-06-15T14:41:10Z</time>
      </trkpt>
      <trkpt lat="59.955944" lon="17.6878491">
        <ele>35.2255</ele>
        <time>2014-06-15T14:41:11Z</time>
      </trkpt>
      <trkpt lat="59.9559654" lon="17.6879821">
        <ele>35.2255</ele>
        <time>2014-06-15T14:41:12Z</time>
      </trkpt>
      <trkpt lat="59.9559877" lon="17.6881134">
        <ele>35.2255</ele>
        <time>2014-06-15T14:41:13Z</time>
      </trkpt>
      <trkpt lat="59.9560095" lon="17.6882433">
        <ele>35.2255</ele>
        <time>2014-06-15T14:41:14Z</time>
      </trkpt>
      <trkpt lat="59.9560301" lon="17.6883723">
        <ele>35.7061</ele>
        <time>2014-06-15T14:41:15Z</time>
      </trkpt>
      <trkpt lat="59.9560499" lon="17.6884996">
        <ele>35.7061</ele>
        <time>2014-06-15T14:41:16Z</time>
      </trkpt>
      <trkpt lat="59.95607" lon="17.6886259">
        <ele>35.7061</ele>
        <time>2014-06-15T14:41:17Z</time>
      </trkpt>
      <trkpt lat="59.9560899" lon="17.6887503">
        <ele>35.7061</ele>
        <time>2014-06-15T14:41:18Z</time>
      </trkpt>
      <trkpt lat="59.9561093" lon="17.688871">
        <ele>36.1868</ele>
        <time>2014-06-15T14:41:19Z</time>
      </trkpt>
      <trkpt lat="59.9561281" lon="17.6889896">
        <ele>36.1868</ele>
        <time>2014-06-15T14:41:20Z</time>
      </trkpt>
      <trkpt lat="59.9561481" lon="17.6891094">
        <ele>35.7061</ele>
        <time>2014-06-15T14:41:21Z</time>
      </trkpt>
      <trkpt lat="59.9561711" lon="17.6892325">
        <ele>35.7061</ele>
        <time>2014-06-15T14:41:22Z</time>
      </trkpt>
      <trkpt lat="59.9561991" lon="17.689353">
        <ele>36.1868</ele>
        <time>2014-06-15T14:41:23Z</time>
      </trkpt>
      <trkpt lat="59.9562338" lon="17.6894653">
        <ele>36.1868</ele>
        <time>2014-06-15T14:41:24Z</time>
      </trkpt>
      <trkpt lat="59.9562709" lon="17.6895687">
        <ele>36.6675</ele>
        <time>2014-06-15T14:41:25Z</time>
      </trkpt>
      <trkpt lat="59.9563051" lon="17.6896705">
        <ele>36.6675</ele>
        <time>2014-06-15T14:41:26Z</time>
      </trkpt>
      <trkpt lat="59.9563367" lon="17.689775">
        <ele>36.6675</ele>
        <time>2014-06-15T14:41:27Z</time>
      </trkpt>
      <trkpt lat="59.9563675" lon="17.6898796">
        <ele>37.1481</ele>
        <time>2014-06-15T14:41:28Z</time>
      </trkpt>
      <trkpt lat="59.9563996" lon="17.6899822">
        <ele>37.1481</ele>
        <time>2014-06-15T14:41:29Z</time>
      </trkpt>
      <trkpt lat="59.9564315" lon="17.6900852">
        <ele>37.1481</ele>
        <time>2014-06-15T14:41:30Z</time>
      </trkpt>
      <trkpt lat="59.9564632" lon="17.6901884">
        <ele>37.1481</ele>
        <time>2014-06-15T14:41:31Z</time>
      </trkpt>
      <trkpt lat="59.9564967" lon="17.6902905">
        <ele>37.1481</ele>
        <time>2014-06-15T14:41:32Z</time>
      </trkpt>
      <trkpt lat="59.9565311" lon="17.6903944">
        <ele>37.1481</ele>
        <time>2014-06-15T14:41:33Z</time>
      </trkpt>
      <trkpt lat="59.9565673" lon="17.6905004">
        <ele>37.1481</ele>
        <time>2014-06-15T14:41:34Z</time>
      </trkpt>
      <trkpt lat="59.9566043" lon="17.690609">
        <ele>37.1481</ele>
        <time>2014-06-15T14:41:35Z</time>
      </trkpt>
      <trkpt lat="59.9566408" lon="17.6907156">
        <ele>37.1481</ele>
        <time>2014-06-15T14:41:36Z</time>
      </trkpt>
      <trkpt lat="59.9566751" lon="17.6908137">
        <ele>36.6675</ele>
        <time>2014-06-15T14:41:37Z</time>
      </trkpt>
      <trkpt lat="59.9567125" lon="17.6909146">
        <ele>36.6675</ele>
        <time>2014-06-15T14:41:38Z</time>
      </trkpt>
      <trkpt lat="59.9567519" lon="17.691026">
        <ele>36.1868</ele>
        <time>2014-06-15T14:41:39Z</time>
      </trkpt>
      <trkpt lat="59.9567886" lon="17.6911426">
        <ele>36.1868</ele>
        <time>2014-06-15T14:41:40Z</time>
      </trkpt>
      <trkpt lat="59.9568278" lon="17.6912602">
        <ele>35.7061</ele>
        <time>2014-06-15T14:41:41Z</time>
      </trkpt>
      <trkpt lat="59.9568694" lon="17.6913798">
        <ele>35.7061</ele>
        <time>2014-06-15T14:41:42Z</time>
      </trkpt>
      <trkpt lat="59.9569112" lon="17.6915016">
        <ele>35.2255</ele>
        <time>2014-06-15T14:41:43Z</time>
      </trkpt>
      <trkpt lat="59.9569528" lon="17.691625">
        <ele>35.2255</ele>
        <time>2014-06-15T14:41:44Z</time>
      </trkpt>
      <trkpt lat="59.9569937" lon="17.6917485">
        <ele>35.2255</ele>
        <time>2014-06-15T14:41:45Z</time>
      </trkpt>
      <trkpt lat="59.9570341" lon="17.6918705">
        <ele>35.2255</ele>
        <time>2014-06-15T14:41:46Z</time>
      </trkpt>
      <trkpt lat="59.9570741" lon="17.6919906">
        <ele>34.7449</ele>
        <time>2014-06-15T14:41:47Z</time>
      </trkpt>
      <trkpt lat="59.9571153" lon="17.6921111">
        <ele>34.7449</ele>
        <time>2014-06-15T14:41:48Z</time>
      </trkpt>
      <trkpt lat="59.9571564" lon="17.6922314">
        <ele>34.7449</ele>
        <time>2014-06-15T14:41:49Z</time>
      </trkpt>
      <trkpt lat="59.9571979" lon="17.6923515">
        <ele>34.7449</ele>
        <time>2014-06-15T14:41:50Z</time>
      </trkpt>
      <trkpt lat="59.9572386" lon="17.6924708">
        <ele>34.7449</ele>
        <time>2014-06-15T14:41:51Z</time>
      </trkpt>
      <trkpt lat="59.957279" lon="17.6925904">
        <ele>34.7449</ele>
        <time>2014-06-15T14:41:52Z</time>
      </trkpt>
      <trkpt lat="59.9573199" lon="17.69271">
        <ele>34.7449</ele>
        <time>2014-06-15T14:41:53Z</time>
      </trkpt>
      <trkpt lat="59.9573603" lon="17.6928282">
        <ele>34.7449</ele>
        <time>2014-06-15T14:41:54Z</time>
      </trkpt>
      <trkpt lat="59.9574013" lon="17.6929456">
        <ele>34.7449</ele>
        <time>2014-06-15T14:41:55Z</time>
      </trkpt>
      <trkpt lat="59.9574417" lon="17.6930618">
        <ele>34.7449</ele>
        <time>2014-06-15T14:41:56Z</time>
      </trkpt>
      <trkpt lat="59.9574817" lon="17.6931784">
        <ele>34.2642</ele>
        <time>2014-06-15T14:41:57Z</time>
      </trkpt>
      <trkpt lat="59.957521" lon="17.6932958">
        <ele>34.2642</ele>
        <time>2014-06-15T14:41:58Z</time>
      </trkpt>
      <trkpt lat="59.9575604" lon="17.6934124">
        <ele>34.2642</ele>
        <time>2014-06-15T14:41:59Z</time>
      </trkpt>
      <trkpt lat="59.9576006" lon="17.693527">
        <ele>34.2642</ele>
        <time>2014-06-15T14:42:00Z</time>
      </trkpt>
      <trkpt lat="59.9576412" lon="17.6936414">
        <ele>34.7449</ele>
        <time>2014-06-15T14:42:01Z</time>
      </trkpt>
      <trkpt lat="59.9576806" lon="17.6937552">
        <ele>34.2642</ele>
        <time>2014-06-15T14:42:02Z</time>
      </trkpt>
      <trkpt lat="59.9577189" lon="17.6938664">
        <ele>34.2642</ele>
        <time>2014-06-15T14:42:03Z</time>
      </trkpt>
      <trkpt lat="59.9577563" lon="17.6939749">
        <ele>34.7449</ele>
        <time>2014-06-15T14:42:04Z</time>
      </trkpt>
      <trkpt lat="59.9577921" lon="17.6940802">
        <ele>34.7449</ele>
        <time>2014-06-15T14:42:05Z</time>
      </trkpt>
      <trkpt lat="59.9578275" lon="17.6941838">
        <ele>34.2642</ele>
        <time>2014-06-15T14:42:06Z</time>
      </trkpt>
      <trkpt lat="59.9578632" lon="17.6942869">
        <ele>34.2642</ele>
        <time>2014-06-15T14:42:07Z</time>
      </trkpt>
      <trkpt lat="59.9578988" lon="17.6943898">
        <ele>34.2642</ele>
        <time>2014-06-15T14:42:08Z</time>
      </trkpt>
      <trkpt lat="59.9579348" lon="17.6944929">
        <ele>34.2642</ele>
        <time>2014-06-15T14:42:09Z</time>
      </trkpt>
      <trkpt lat="59.9579706" lon="17.6945965">
        <ele>34.2642</ele>
        <time>2014-06-15T14:42:10Z</time>
      </trkpt>
      <trkpt lat="59.9580059" lon="17.6947009">
        <ele>34.2642</ele>
        <time>2014-06-15T14:42:11Z</time>
      </trkpt>
      <trkpt lat="59.9580416" lon="17.6948058">
        <ele>34.2642</ele>
        <time>2014-06-15T14:42:12Z</time>
      </trkpt>
      <trkpt lat="59.9580784" lon="17.6949091">
        <ele>34.2642</ele>
        <time>2014-06-15T14:42:13Z</time>
      </trkpt>
      <trkpt lat="59.9581152" lon="17.6950125">
        <ele>34.2642</ele>
        <time>2014-06-15T14:42:14Z</time>
      </trkpt>
      <trkpt lat="59.958151" lon="17.6951173">
        <ele>34.2642</ele>
        <time>2014-06-15T14:42:15Z</time>
      </trkpt>
      <trkpt lat="59.958187" lon="17.6952224">
        <ele>34.2642</ele>
        <time>2014-06-15T14:42:16Z</time>
      </trkpt>
      <trkpt lat="59.9582245" lon="17.6953249">
        <ele>34.2642</ele>
        <time>2014-06-15T14:42:17Z</time>
      </trkpt>
      <trkpt lat="59.9582633" lon="17.6954258">
        <ele>34.2642</ele>
        <time>2014-06-15T14:42:18Z</time>
      </trkpt>
      <trkpt lat="59.9583036" lon="17.6955263">
        <ele>34.2642</ele>
        <time>2014-06-15T14:42:19Z</time>
      </trkpt>
      <trkpt lat="59.9583446" lon="17.695626">
        <ele>34.2642</ele>
        <time>2014-06-15T14:42:20Z</time>
      </trkpt>
      <trkpt lat="59.9583864" lon="17.6957263">
        <ele>34.2642</ele>
        <time>2014-06-15T14:42:21Z</time>
      </trkpt>
      <trkpt lat="59.9584286" lon="17.6958283">
        <ele>34.2642</ele>
        <time>2014-06-15T14:42:22Z</time>
      </trkpt>
      <trkpt lat="59.9584706" lon="17.6959321">
        <ele>34.2642</ele>
        <time>2014-06-15T14:42:23Z</time>
      </trkpt>
      <trkpt lat="59.9585126" lon="17.6960377">
        <ele>34.2642</ele>
        <time>2014-06-15T14:42:24Z</time>
      </trkpt>
      <trkpt lat="59.9585556" lon="17.6961436">
        <ele>34.7449</ele>
        <time>2014-06-15T14:42:25Z</time>
      </trkpt>
      <trkpt lat="59.958599" lon="17.6962505">
        <ele>34.7449</ele>
        <time>2014-06-15T14:42:26Z</time>
      </trkpt>
      <trkpt lat="59.9586421" lon="17.6963599">
        <ele>34.7449</ele>
        <time>2014-06-15T14:42:27Z</time>
      </trkpt>
      <trkpt lat="59.9586839" lon="17.6964729">
        <ele>34.7449</ele>
        <time>2014-06-15T14:42:28Z</time>
      </trkpt>
      <trkpt lat="59.9587232" lon="17.696591">
        <ele>34.7449</ele>
        <time>2014-06-15T14:42:29Z</time>
      </trkpt>
      <trkpt lat="59.9587605" lon="17.6967146">
        <ele>34.7449</ele>
        <time>2014-06-15T14:42:30Z</time>
      </trkpt>
      <trkpt lat="59.9587954" lon="17.6968428">
        <ele>34.7449</ele>
        <time>2014-06-15T14:42:31Z</time>
      </trkpt>
      <trkpt lat="59.9588285" lon="17.6969757">
        <ele>34.7449</ele>
        <time>2014-06-15T14:42:32Z</time>
      </trkpt>
      <trkpt lat="59.9588595" lon="17.6971117">
        <ele>34.7449</ele>
        <time>2014-06-15T14:42:33Z</time>
      </trkpt>
      <trkpt lat="59.958887" lon="17.6972492">
        <ele>34.7449</ele>
        <time>2014-06-15T14:42:34Z</time>
      </trkpt>
      <trkpt lat="59.9589119" lon="17.6973875">
        <ele>35.2255</ele>
        <time>2014-06-15T14:42:35Z</time>
      </trkpt>
      <trkpt lat="59.9589356" lon="17.6975246">
        <ele>35.2255</ele>
        <time>2014-06-15T14:42:36Z</time>
      </trkpt>
      <trkpt lat="59.9589576" lon="17.6976587">
        <ele>35.7061</ele>
        <time>2014-06-15T14:42:37Z</time>
      </trkpt>
      <trkpt lat="59.9589773" lon="17.6977895">
        <ele>35.7061</ele>
        <time>2014-06-15T14:42:38Z</time>
      </trkpt>
      <trkpt lat="59.9589928" lon="17.6979174">
        <ele>36.1868</ele>
        <time>2014-06-15T14:42:39Z</time>
      </trkpt>
      <trkpt lat="59.9590049" lon="17.698041">
        <ele>36.1868</ele>
        <time>2014-06-15T14:42:40Z</time>
      </trkpt>
      <trkpt lat="59.9590164" lon="17.698162">
        <ele>36.1868</ele>
        <time>2014-06-15T14:42:41Z</time>
      </trkpt>
      <trkpt lat="59.9590268" lon="17.6982814">
        <ele>36.6675</ele>
        <time>2014-06-15T14:42:42Z</time>
      </trkpt>
      <trkpt lat="59.9590342" lon="17.6983994">
        <ele>36.6675</ele>
        <time>2014-06-15T14:42:43Z</time>
      </trkpt>
      <trkpt lat="59.9590389" lon="17.6985149">
        <ele>37.1481</ele>
        <time>2014-06-15T14:42:44Z</time>
      </trkpt>
      <trkpt lat="59.9590414" lon="17.6986274">
        <ele>37.1481</ele>
        <time>2014-06-15T14:42:45Z</time>
      </trkpt>
      <trkpt lat="59.9590418" lon="17.698738">
        <ele>37.1481</ele>
        <time>2014-06-15T14:42:46Z</time>
      </trkpt>
      <trkpt lat="59.959042" lon="17.6988485">
        <ele>37.1481</ele>
        <time>2014-06-15T14:42:47Z</time>
      </trkpt>
      <trkpt lat="59.9590444" lon="17.6989604">
        <ele>37.1481</ele>
        <time>2014-06-15T14:42:48Z</time>
      </trkpt>
      <trkpt lat="59.9590481" lon="17.6990748">
        <ele>37.1481</ele>
        <time>2014-06-15T14:42:49Z</time>
      </trkpt>
      <trkpt lat="59.9590515" lon="17.6991925">
        <ele>37.1481</ele>
        <time>2014-06-15T14:42:50Z</time>
      </trkpt>
      <trkpt lat="59.9590553" lon="17.6993143">
        <ele>36.6675</ele>
        <time>2014-06-15T14:42:51Z</time>
      </trkpt>
      <trkpt lat="59.9590609" lon="17.6994401">
        <ele>36.6675</ele>
        <time>2014-06-15T14:42:52Z</time>
      </trkpt>
      <trkpt lat="59.9590681" lon="17.69957">
        <ele>36.6675</ele>
        <time>2014-06-15T14:42:53Z</time>
      </trkpt>
      <trkpt lat="59.959077" lon="17.699703">
        <ele>36.6675</ele>
        <time>2014-06-15T14:42:54Z</time>
      </trkpt>
      <trkpt lat="59.959087" lon="17.6998377">
        <ele>36.6675</ele>
        <time>2014-06-15T14:42:55Z</time>
      </trkpt>
      <trkpt lat="59.9590973" lon="17.6999716">
        <ele>36.6675</ele>
        <time>2014-06-15T14:42:56Z</time>
      </trkpt>
      <trkpt lat="59.959108" lon="17.7001017">
        <ele>36.6675</ele>
        <time>2014-06-15T14:42:57Z</time>
      </trkpt>
      <trkpt lat="59.9591201" lon="17.7002284">
        <ele>36.6675</ele>
        <time>2014-06-15T14:42:58Z</time>
      </trkpt>
      <trkpt lat="59.9591341" lon="17.7003545">
        <ele>36.6675</ele>
        <time>2014-06-15T14:42:59Z</time>
      </trkpt>
      <trkpt lat="59.9591476" lon="17.7004813">
        <ele>36.6675</ele>
        <time>2014-06-15T14:43:00Z</time>
      </trkpt>
      <trkpt lat="59.9591598" lon="17.7006077">
        <ele>36.6675</ele>
        <time>2014-06-15T14:43:01Z</time>
      </trkpt>
      <trkpt lat="59.9591713" lon="17.7007328">
        <ele>36.6675</ele>
        <time>2014-06-15T14:43:02Z</time>
      </trkpt>
      <trkpt lat="59.9591828" lon="17.7008546">
        <ele>36.6675</ele>
        <time>2014-06-15T14:43:03Z</time>
      </trkpt>
      <trkpt lat="59.9591951" lon="17.7009734">
        <ele>37.1481</ele>
        <time>2014-06-15T14:43:04Z</time>
      </trkpt>
      <trkpt lat="59.9592081" lon="17.7010905">
        <ele>37.1481</ele>
        <time>2014-06-15T14:43:05Z</time>
      </trkpt>
      <trkpt lat="59.9592222" lon="17.7012049">
        <ele>37.1481</ele>
        <time>2014-06-15T14:43:06Z</time>
      </trkpt>
      <trkpt lat="59.9592382" lon="17.7013171">
        <ele>37.6287</ele>
        <time>2014-06-15T14:43:07Z</time>
      </trkpt>
      <trkpt lat="59.9592556" lon="17.7014272">
        <ele>37.6287</ele>
        <time>2014-06-15T14:43:08Z</time>
      </trkpt>
      <trkpt lat="59.9592733" lon="17.7015363">
        <ele>37.6287</ele>
        <time>2014-06-15T14:43:09Z</time>
      </trkpt>
      <trkpt lat="59.9592914" lon="17.7016451">
        <ele>37.1481</ele>
        <time>2014-06-15T14:43:10Z</time>
      </trkpt>
      <trkpt lat="59.9593113" lon="17.7017561">
        <ele>37.1481</ele>
        <time>2014-06-15T14:43:11Z</time>
      </trkpt>
      <trkpt lat="59.9593357" lon="17.7018668">
        <ele>37.1481</ele>
        <time>2014-06-15T14:43:12Z</time>
      </trkpt>
      <trkpt lat="59.9593651" lon="17.7019768">
        <ele>37.1481</ele>
        <time>2014-06-15T14:43:13Z</time>
      </trkpt>
      <trkpt lat="59.959396" lon="17.7020891">
        <ele>36.6675</ele>
        <time>2014-06-15T14:43:14Z</time>
      </trkpt>
      <trkpt lat="59.9594292" lon="17.7022033">
        <ele>36.6675</ele>
        <time>2014-06-15T14:43:15Z</time>
      </trkpt>
      <trkpt lat="59.9594636" lon="17.7023182">
        <ele>37.1481</ele>
        <time>2014-06-15T14:43:16Z</time>
      </trkpt>
      <trkpt lat="59.9594981" lon="17.7024333">
        <ele>37.1481</ele>
        <time>2014-06-15T14:43:17Z</time>
      </trkpt>
      <trkpt lat="59.959532" lon="17.702549">
        <ele>37.1481</ele>
        <time>2014-06-15T14:43:18Z</time>
      </trkpt>
      <trkpt lat="59.9595659" lon="17.7026636">
        <ele>37.1481</ele>
        <time>2014-06-15T14:43:19Z</time>
      </trkpt>
      <trkpt lat="59.9596004" lon="17.7027775">
        <ele>37.1481</ele>
        <time>2014-06-15T14:43:20Z</time>
      </trkpt>
      <trkpt lat="59.9596345" lon="17.7028915">
        <ele>37.1481</ele>
        <time>2014-06-15T14:43:21Z</time>
      </trkpt>
      <trkpt lat="59.9596678" lon="17.7030071">
        <ele>37.1481</ele>
        <time>2014-06-15T14:43:22Z</time>
      </trkpt>
      <trkpt lat="59.9597007" lon="17.7031241">
        <ele>37.1481</ele>
        <time>2014-06-15T14:43:23Z</time>
      </trkpt>
      <trkpt lat="59.9597345" lon="17.7032392">
        <ele>37.1481</ele>
        <time>2014-06-15T14:43:24Z</time>
      </trkpt>
      <trkpt lat="59.9597697" lon="17.7033521">
        <ele>37.1481</ele>
        <time>2014-06-15T14:43:25Z</time>
      </trkpt>
      <trkpt lat="59.959805" lon="17.703463">
        <ele>36.6675</ele>
        <time>2014-06-15T14:43:26Z</time>
      </trkpt>
      <trkpt lat="59.9598443" lon="17.7035746">
        <ele>36.6675</ele>
        <time>2014-06-15T14:43:27Z</time>
      </trkpt>
      <trkpt lat="59.9598863" lon="17.7036886">
        <ele>36.6675</ele>
        <time>2014-06-15T14:43:28Z</time>
      </trkpt>
      <trkpt lat="59.9599282" lon="17.7038078">
        <ele>36.6675</ele>
        <time>2014-06-15T14:43:29Z</time>
      </trkpt>
      <trkpt lat="59.9599712" lon="17.7039296">
        <ele>36.6675</ele>
        <time>2014-06-15T14:43:30Z</time>
      </trkpt>
      <trkpt lat="59.9600151" lon="17.7040505">
        <ele>36.6675</ele>
        <time>2014-06-15T14:43:31Z</time>
      </trkpt>
      <trkpt lat="59.9600608" lon="17.70417">
        <ele>36.6675</ele>
        <time>2014-06-15T14:43:32Z</time>
      </trkpt>
      <trkpt lat="59.960108" lon="17.7042778">
        <ele>36.6675</ele>
        <time>2014-06-15T14:43:33Z</time>
      </trkpt>
      <trkpt lat="59.9601603" lon="17.7043714">
        <ele>36.6675</ele>
        <time>2014-06-15T14:43:34Z</time>
      </trkpt>
      <trkpt lat="59.9602156" lon="17.7044555">
        <ele>36.1868</ele>
        <time>2014-06-15T14:43:35Z</time>
      </trkpt>
      <trkpt lat="59.9602737" lon="17.7045351">
        <ele>36.1868</ele>
        <time>2014-06-15T14:43:36Z</time>
      </trkpt>
      <trkpt lat="59.9603328" lon="17.7046123">
        <ele>36.1868</ele>
        <time>2014-06-15T14:43:37Z</time>
      </trkpt>
      <trkpt lat="59.960393" lon="17.7046863">
        <ele>36.1868</ele>
        <time>2014-06-15T14:43:38Z</time>
      </trkpt>
      <trkpt lat="59.960455" lon="17.704758">
        <ele>36.1868</ele>
        <time>2014-06-15T14:43:39Z</time>
      </trkpt>
      <trkpt lat="59.9605163" lon="17.7048291">
        <ele>35.7061</ele>
        <time>2014-06-15T14:43:40Z</time>
      </trkpt>
      <trkpt lat="59.9605773" lon="17.7049005">
        <ele>35.7061</ele>
        <time>2014-06-15T14:43:41Z</time>
      </trkpt>
      <trkpt lat="59.9606383" lon="17.7049745">
        <ele>35.7061</ele>
        <time>2014-06-15T14:43:42Z</time>
      </trkpt>
      <trkpt lat="59.9606995" lon="17.7050522">
        <ele>35.7061</ele>
        <time>2014-06-15T14:43:43Z</time>
      </trkpt>
      <trkpt lat="59.9607606" lon="17.7051309">
        <ele>36.1868</ele>
        <time>2014-06-15T14:43:44Z</time>
      </trkpt>
      <trkpt lat="59.9608227" lon="17.7052103">
        <ele>36.1868</ele>
        <time>2014-06-15T14:43:45Z</time>
      </trkpt>
      <trkpt lat="59.960885" lon="17.705292">
        <ele>36.1868</ele>
        <time>2014-06-15T14:43:46Z</time>
      </trkpt>
      <trkpt lat="59.9609466" lon="17.7053778">
        <ele>36.1868</ele>
        <time>2014-06-15T14:43:47Z</time>
      </trkpt>
      <trkpt lat="59.9610077" lon="17.7054681">
        <ele>36.1868</ele>
        <time>2014-06-15T14:43:48Z</time>
      </trkpt>
      <trkpt lat="59.9610668" lon="17.7055633">
        <ele>36.6675</ele>
        <time>2014-06-15T14:43:49Z</time>
      </trkpt>
      <trkpt lat="59.9611227" lon="17.7056627">
        <ele>36.6675</ele>
        <time>2014-06-15T14:43:50Z</time>
      </trkpt>
      <trkpt lat="59.9611788" lon="17.7057634">
        <ele>36.6675</ele>
        <time>2014-06-15T14:43:51Z</time>
      </trkpt>
      <trkpt lat="59.9612326" lon="17.7058633">
        <ele>36.6675</ele>
        <time>2014-06-15T14:43:52Z</time>
      </trkpt>
      <trkpt lat="59.9612871" lon="17.7059644">
        <ele>36.6675</ele>
        <time>2014-06-15T14:43:53Z</time>
      </trkpt>
      <trkpt lat="59.9613417" lon="17.7060653">
        <ele>36.6675</ele>
        <time>2014-06-15T14:43:54Z</time>
      </trkpt>
      <trkpt lat="59.9613963" lon="17.7061653">
        <ele>36.6675</ele>
        <time>2014-06-15T14:43:55Z</time>
      </trkpt>
      <trkpt lat="59.9614513" lon="17.7062645">
        <ele>36.6675</ele>
        <time>2014-06-15T14:43:56Z</time>
      </trkpt>
      <trkpt lat="59.9615075" lon="17.7063607">
        <ele>36.6675</ele>
        <time>2014-06-15T14:43:57Z</time>
      </trkpt>
      <trkpt lat="59.9615656" lon="17.7064502">
        <ele>36.6675</ele>
        <time>2014-06-15T14:43:58Z</time>
      </trkpt>
      <trkpt lat="59.9616266" lon="17.7065323">
        <ele>36.6675</ele>
        <time>2014-06-15T14:43:59Z</time>
      </trkpt>
      <trkpt lat="59.9616901" lon="17.7066092">
        <ele>36.6675</ele>
        <time>2014-06-15T14:44:00Z</time>
      </trkpt>
      <trkpt lat="59.9617548" lon="17.7066817">
        <ele>36.6675</ele>
        <time>2014-06-15T14:44:01Z</time>
      </trkpt>
      <trkpt lat="59.9618209" lon="17.7067467">
        <ele>36.6675</ele>
        <time>2014-06-15T14:44:02Z</time>
      </trkpt>
      <trkpt lat="59.961889" lon="17.7068041">
        <ele>36.6675</ele>
        <time>2014-06-15T14:44:03Z</time>
      </trkpt>
      <trkpt lat="59.9619588" lon="17.706858">
        <ele>36.6675</ele>
        <time>2014-06-15T14:44:04Z</time>
      </trkpt>
      <trkpt lat="59.9620298" lon="17.7069078">
        <ele>36.6675</ele>
        <time>2014-06-15T14:44:05Z</time>
      </trkpt>
      <trkpt lat="59.9621033" lon="17.7069537">
        <ele>36.6675</ele>
        <time>2014-06-15T14:44:06Z</time>
      </trkpt>
      <trkpt lat="59.9621779" lon="17.7069976">
        <ele>36.6675</ele>
        <time>2014-06-15T14:44:07Z</time>
      </trkpt>
      <trkpt lat="59.9622535" lon="17.7070388">
        <ele>36.1868</ele>
        <time>2014-06-15T14:44:08Z</time>
      </trkpt>
      <trkpt lat="59.9623305" lon="17.7070776">
        <ele>36.1868</ele>
        <time>2014-06-15T14:44:09Z</time>
      </trkpt>
      <trkpt lat="59.9624085" lon="17.7071139">
        <ele>36.1868</ele>
        <time>2014-06-15T14:44:10Z</time>
      </trkpt>
      <trkpt lat="59.9624871" lon="17.7071458">
        <ele>36.1868</ele>
        <time>2014-06-15T14:44:11Z</time>
      </trkpt>
      <trkpt lat="59.9625652" lon="17.7071725">
        <ele>35.7061</ele>
        <time>2014-06-15T14:44:12Z</time>
      </trkpt>
      <trkpt lat="59.9626422" lon="17.707194">
        <ele>35.7061</ele>
        <time>2014-06-15T14:44:13Z</time>
      </trkpt>
      <trkpt lat="59.9627161" lon="17.7072108">
        <ele>35.7061</ele>
        <time>2014-06-15T14:44:14Z</time>
      </trkpt>
      <trkpt lat="59.9627881" lon="17.7072236">
        <ele>35.7061</ele>
        <time>2014-06-15T14:44:15Z</time>
      </trkpt>
      <trkpt lat="59.9628582" lon="17.707232">
        <ele>35.2255</ele>
        <time>2014-06-15T14:44:16Z</time>
      </trkpt>
      <trkpt lat="59.9629269" lon="17.7072352">
        <ele>35.2255</ele>
        <time>2014-06-15T14:44:17Z</time>
      </trkpt>
      <trkpt lat="59.9629948" lon="17.707235">
        <ele>35.2255</ele>
        <time>2014-06-15T14:44:18Z</time>
      </trkpt>
      <trkpt lat="59.9630628" lon="17.7072341">
        <ele>34.7449</ele>
        <time>2014-06-15T14:44:19Z</time>
      </trkpt>
      <trkpt lat="59.9631312" lon="17.7072326">
        <ele>34.7449</ele>
        <time>2014-06-15T14:44:20Z</time>
      </trkpt>
      <trkpt lat="59.9631985" lon="17.7072311">
        <ele>34.7449</ele>
        <time>2014-06-15T14:44:21Z</time>
      </trkpt>
      <trkpt lat="59.9632663" lon="17.70723">
        <ele>34.7449</ele>
        <time>2014-06-15T14:44:22Z</time>
      </trkpt>
      <trkpt lat="59.9633368" lon="17.707229">
        <ele>34.2642</ele>
        <time>2014-06-15T14:44:23Z</time>
      </trkpt>
      <trkpt lat="59.9634091" lon="17.707228">
        <ele>34.2642</ele>
        <time>2014-06-15T14:44:24Z</time>
      </trkpt>
      <trkpt lat="59.9634834" lon="17.7072293">
        <ele>34.2642</ele>
        <time>2014-06-15T14:44:25Z</time>
      </trkpt>
      <trkpt lat="59.9635589" lon="17.7072335">
        <ele>34.2642</ele>
        <time>2014-06-15T14:44:26Z</time>
      </trkpt>
      <trkpt lat="59.963636" lon="17.7072387">
        <ele>34.2642</ele>
        <time>2014-06-15T14:44:27Z</time>
      </trkpt>
      <trkpt lat="59.9637148" lon="17.7072424">
        <ele>34.2642</ele>
        <time>2014-06-15T14:44:28Z</time>
      </trkpt>
      <trkpt lat="59.9637945" lon="17.7072492">
        <ele>34.2642</ele>
        <time>2014-06-15T14:44:29Z</time>
      </trkpt>
      <trkpt lat="59.9638739" lon="17.7072572">
        <ele>34.2642</ele>
        <time>2014-06-15T14:44:30Z</time>
      </trkpt>
      <trkpt lat="59.9639499" lon="17.7072693">
        <ele>33.7834</ele>
        <time>2014-06-15T14:44:31Z</time>
      </trkpt>
      <trkpt lat="59.9640246" lon="17.7072817">
        <ele>33.7834</ele>
        <time>2014-06-15T14:44:32Z</time>
      </trkpt>
      <trkpt lat="59.9640983" lon="17.7072931">
        <ele>33.7834</ele>
        <time>2014-06-15T14:44:33Z</time>
      </trkpt>
      <trkpt lat="59.9641705" lon="17.7073081">
        <ele>33.7834</ele>
        <time>2014-06-15T14:44:34Z</time>
      </trkpt>
      <trkpt lat="59.9642418" lon="17.7073246">
        <ele>33.7834</ele>
        <time>2014-06-15T14:44:35Z</time>
      </trkpt>
      <trkpt lat="59.9643121" lon="17.707343">
        <ele>33.7834</ele>
        <time>2014-06-15T14:44:36Z</time>
      </trkpt>
      <trkpt lat="59.9643814" lon="17.7073654">
        <ele>33.7834</ele>
        <time>2014-06-15T14:44:37Z</time>
      </trkpt>
      <trkpt lat="59.9644498" lon="17.707392">
        <ele>33.7834</ele>
        <time>2014-06-15T14:44:38Z</time>
      </trkpt>
      <trkpt lat="59.9645167" lon="17.707422">
        <ele>33.3029</ele>
        <time>2014-06-15T14:44:39Z</time>
      </trkpt>
      <trkpt lat="59.9645825" lon="17.7074569">
        <ele>33.3029</ele>
        <time>2014-06-15T14:44:40Z</time>
      </trkpt>
      <trkpt lat="59.9646472" lon="17.7074965">
        <ele>33.3029</ele>
        <time>2014-06-15T14:44:41Z</time>
      </trkpt>
      <trkpt lat="59.964711" lon="17.7075381">
        <ele>33.3029</ele>
        <time>2014-06-15T14:44:42Z</time>
      </trkpt>
      <trkpt lat="59.9647747" lon="17.7075825">
        <ele>33.3029</ele>
        <time>2014-06-15T14:44:43Z</time>
      </trkpt>
      <trkpt lat="59.9648385" lon="17.7076272">
        <ele>33.3029</ele>
        <time>2014-06-15T14:44:44Z</time>
      </trkpt>
      <trkpt lat="59.9649027" lon="17.7076716">
        <ele>33.3029</ele>
        <time>2014-06-15T14:44:45Z</time>
      </trkpt>
      <trkpt lat="59.9649672" lon="17.7077184">
        <ele>32.8223</ele>
        <time>2014-06-15T14:44:46Z</time>
      </trkpt>
      <trkpt lat="59.9650312" lon="17.7077681">
        <ele>32.8223</ele>
        <time>2014-06-15T14:44:47Z</time>
      </trkpt>
      <trkpt lat="59.9650948" lon="17.7078199">
        <ele>32.8223</ele>
        <time>2014-06-15T14:44:48Z</time>
      </trkpt>
      <trkpt lat="59.9651585" lon="17.7078722">
        <ele>32.8223</ele>
        <time>2014-06-15T14:44:49Z</time>
      </trkpt>
      <trkpt lat="59.9652221" lon="17.7079252">
        <ele>32.8223</ele>
        <time>2014-06-15T14:44:50Z</time>
      </trkpt>
      <trkpt lat="59.965285" lon="17.7079795">
        <ele>32.8223</ele>
        <time>2014-06-15T14:44:51Z</time>
      </trkpt>
      <trkpt lat="59.9653469" lon="17.7080354">
        <ele>32.3416</ele>
        <time>2014-06-15T14:44:52Z</time>
      </trkpt>
      <trkpt lat="59.9654088" lon="17.7080928">
        <ele>32.3416</ele>
        <time>2014-06-15T14:44:53Z</time>
      </trkpt>
      <trkpt lat="59.965471" lon="17.7081511">
        <ele>32.3416</ele>
        <time>2014-06-15T14:44:54Z</time>
      </trkpt>
      <trkpt lat="59.9655316" lon="17.7082135">
        <ele>32.3416</ele>
        <time>2014-06-15T14:44:55Z</time>
      </trkpt>
      <trkpt lat="59.9655911" lon="17.7082836">
        <ele>32.3416</ele>
        <time>2014-06-15T14:44:56Z</time>
      </trkpt>
      <trkpt lat="59.9656482" lon="17.7083642">
        <ele>32.3416</ele>
        <time>2014-06-15T14:44:57Z</time>
      </trkpt>
      <trkpt lat="59.9657014" lon="17.7084545">
        <ele>32.3416</ele>
        <time>2014-06-15T14:44:58Z</time>
      </trkpt>
      <trkpt lat="59.9657512" lon="17.7085465">
        <ele>32.3416</ele>
        <time>2014-06-15T14:44:59Z</time>
      </trkpt>
      <trkpt lat="59.9657994" lon="17.7086393">
        <ele>32.8223</ele>
        <time>2014-06-15T14:45:00Z</time>
      </trkpt>
      <trkpt lat="59.9658418" lon="17.7087393">
        <ele>32.8223</ele>
        <time>2014-06-15T14:45:01Z</time>
      </trkpt>
      <trkpt lat="59.9658808" lon="17.7088425">
        <ele>32.8223</ele>
        <time>2014-06-15T14:45:02Z</time>
      </trkpt>
      <trkpt lat="59.965917" lon="17.7089451">
        <ele>32.8223</ele>
        <time>2014-06-15T14:45:03Z</time>
      </trkpt>
      <trkpt lat="59.9659516" lon="17.7090488">
        <ele>32.8223</ele>
        <time>2014-06-15T14:45:04Z</time>
      </trkpt>
      <trkpt lat="59.9659847" lon="17.7091543">
        <ele>32.8223</ele>
        <time>2014-06-15T14:45:05Z</time>
      </trkpt>
      <trkpt lat="59.9660169" lon="17.7092605">
        <ele>32.8223</ele>
        <time>2014-06-15T14:45:06Z</time>
      </trkpt>
      <trkpt lat="59.9660488" lon="17.7093656">
        <ele>32.8223</ele>
        <time>2014-06-15T14:45:07Z</time>
      </trkpt>
      <trkpt lat="59.9660806" lon="17.7094688">
        <ele>32.8223</ele>
        <time>2014-06-15T14:45:08Z</time>
      </trkpt>
      <trkpt lat="59.9661117" lon="17.7095717">
        <ele>32.8223</ele>
        <time>2014-06-15T14:45:09Z</time>
      </trkpt>
      <trkpt lat="59.9661417" lon="17.709676">
        <ele>32.8223</ele>
        <time>2014-06-15T14:45:10Z</time>
      </trkpt>
      <trkpt lat="59.9661713" lon="17.7097816">
        <ele>32.8223</ele>
        <time>2014-06-15T14:45:11Z</time>
      </trkpt>
      <trkpt lat="59.9662016" lon="17.7098882">
        <ele>32.8223</ele>
        <time>2014-06-15T14:45:12Z</time>
      </trkpt>
      <trkpt lat="59.9662314" lon="17.7099967">
        <ele>32.8223</ele>
        <time>2014-06-15T14:45:13Z</time>
      </trkpt>
      <trkpt lat="59.9662614" lon="17.7101071">
        <ele>32.8223</ele>
        <time>2014-06-15T14:45:14Z</time>
      </trkpt>
      <trkpt lat="59.9662926" lon="17.7102172">
        <ele>33.3029</ele>
        <time>2014-06-15T14:45:15Z</time>
      </trkpt>
      <trkpt lat="59.9663249" lon="17.7103269">
        <ele>33.3029</ele>
        <time>2014-06-15T14:45:16Z</time>
      </trkpt>
      <trkpt lat="59.9663557" lon="17.7104375">
        <ele>33.3029</ele>
        <time>2014-06-15T14:45:17Z</time>
      </trkpt>
      <trkpt lat="59.9663862" lon="17.7105484">
        <ele>33.3029</ele>
        <time>2014-06-15T14:45:18Z</time>
      </trkpt>
      <trkpt lat="59.9664166" lon="17.7106589">
        <ele>33.7834</ele>
        <time>2014-06-15T14:45:19Z</time>
      </trkpt>
      <trkpt lat="59.9664472" lon="17.7107679">
        <ele>33.7834</ele>
        <time>2014-06-15T14:45:20Z</time>
      </trkpt>
      <trkpt lat="59.9664773" lon="17.7108744">
        <ele>33.7834</ele>
        <time>2014-06-15T14:45:21Z</time>
      </trkpt>
      <trkpt lat="59.9665071" lon="17.7109799">
        <ele>33.7834</ele>
        <time>2014-06-15T14:45:22Z</time>
      </trkpt>
      <trkpt lat="59.9665376" lon="17.7110855">
        <ele>33.7834</ele>
        <time>2014-06-15T14:45:23Z</time>
      </trkpt>
      <trkpt lat="59.9665692" lon="17.7111902">
        <ele>33.7834</ele>
        <time>2014-06-15T14:45:24Z</time>
      </trkpt>
      <trkpt lat="59.966601" lon="17.7112958">
        <ele>33.7834</ele>
        <time>2014-06-15T14:45:25Z</time>
      </trkpt>
      <trkpt lat="59.9666312" lon="17.7114033">
        <ele>33.7834</ele>
        <time>2014-06-15T14:45:26Z</time>
      </trkpt>
      <trkpt lat="59.9666613" lon="17.7115086">
        <ele>33.7834</ele>
        <time>2014-06-15T14:45:27Z</time>
      </trkpt>
      <trkpt lat="59.9666959" lon="17.7116106">
        <ele>33.7834</ele>
        <time>2014-06-15T14:45:28Z</time>
      </trkpt>
      <trkpt lat="59.9667308" lon="17.7117131">
        <ele>33.7834</ele>
        <time>2014-06-15T14:45:29Z</time>
      </trkpt>
      <trkpt lat="59.966766" lon="17.7118165">
        <ele>33.7834</ele>
        <time>2014-06-15T14:45:30Z</time>
      </trkpt>
      <trkpt lat="59.9668022" lon="17.7119204">
        <ele>33.7834</ele>
        <time>2014-06-15T14:45:31Z</time>
      </trkpt>
      <trkpt lat="59.966839" lon="17.7120241">
        <ele>33.7834</ele>
        <time>2014-06-15T14:45:32Z</time>
      </trkpt>
      <trkpt lat="59.9668769" lon="17.712128">
        <ele>33.7834</ele>
        <time>2014-06-15T14:45:33Z</time>
      </trkpt>
      <trkpt lat="59.9669154" lon="17.7122322">
        <ele>33.7834</ele>
        <time>2014-06-15T14:45:34Z</time>
      </trkpt>
      <trkpt lat="59.9669538" lon="17.712337">
        <ele>33.7834</ele>
        <time>2014-06-15T14:45:35Z</time>
      </trkpt>
      <trkpt lat="59.9669923" lon="17.7124424">
        <ele>33.7834</ele>
        <time>2014-06-15T14:45:36Z</time>
      </trkpt>
      <trkpt lat="59.9670306" lon="17.7125489">
        <ele>33.7834</ele>
        <time>2014-06-15T14:45:37Z</time>
      </trkpt>
      <trkpt lat="59.9670681" lon="17.7126586">
        <ele>33.7834</ele>
        <time>2014-06-15T14:45:38Z</time>
      </trkpt>
      <trkpt lat="59.9671038" lon="17.7127729">
        <ele>33.3029</ele>
        <time>2014-06-15T14:45:39Z</time>
      </trkpt>
      <trkpt lat="59.967137" lon="17.7128918">
        <ele>33.3029</ele>
        <time>2014-06-15T14:45:40Z</time>
      </trkpt>
      <trkpt lat="59.9671685" lon="17.7130147">
        <ele>33.3029</ele>
        <time>2014-06-15T14:45:41Z</time>
      </trkpt>
      <trkpt lat="59.967199" lon="17.7131409">
        <ele>33.3029</ele>
        <time>2014-06-15T14:45:42Z</time>
      </trkpt>
      <trkpt lat="59.9672283" lon="17.71327">
        <ele>32.8223</ele>
        <time>2014-06-15T14:45:43Z</time>
      </trkpt>
      <trkpt lat="59.9672563" lon="17.7134028">
        <ele>32.3416</ele>
        <time>2014-06-15T14:45:44Z</time>
      </trkpt>
      <trkpt lat="59.967282" lon="17.7135391">
        <ele>32.3416</ele>
        <time>2014-06-15T14:45:45Z</time>
      </trkpt>
      <trkpt lat="59.9673058" lon="17.7136791">
        <ele>31.8607</ele>
        <time>2014-06-15T14:45:46Z</time>
      </trkpt>
      <trkpt lat="59.9673288" lon="17.7138231">
        <ele>31.3801</ele>
        <time>2014-06-15T14:45:47Z</time>
      </trkpt>
      <trkpt lat="59.9673502" lon="17.7139713">
        <ele>30.8995</ele>
        <time>2014-06-15T14:45:48Z</time>
      </trkpt>
      <trkpt lat="59.9673715" lon="17.714124">
        <ele>30.4188</ele>
        <time>2014-06-15T14:45:49Z</time>
      </trkpt>
      <trkpt lat="59.9673923" lon="17.7142811">
        <ele>29.9381</ele>
        <time>2014-06-15T14:45:50Z</time>
      </trkpt>
      <trkpt lat="59.9674135" lon="17.7144415">
        <ele>29.4575</ele>
        <time>2014-06-15T14:45:51Z</time>
      </trkpt>
      <trkpt lat="59.9674352" lon="17.7146034">
        <ele>28.4962</ele>
        <time>2014-06-15T14:45:52Z</time>
      </trkpt>
      <trkpt lat="59.967457" lon="17.7147664">
        <ele>28.4962</ele>
        <time>2014-06-15T14:45:53Z</time>
      </trkpt>
      <trkpt lat="59.9674773" lon="17.7149273">
        <ele>28.0155</ele>
        <time>2014-06-15T14:45:54Z</time>
      </trkpt>
      <trkpt lat="59.9674995" lon="17.7150867">
        <ele>28.0155</ele>
        <time>2014-06-15T14:45:55Z</time>
      </trkpt>
      <trkpt lat="59.9675197" lon="17.7152528">
        <ele>27.5349</ele>
        <time>2014-06-15T14:45:56Z</time>
      </trkpt>
      <trkpt lat="59.9675362" lon="17.7154159">
        <ele>27.5349</ele>
        <time>2014-06-15T14:45:57Z</time>
      </trkpt>
      <trkpt lat="59.9675621" lon="17.7155672">
        <ele>27.5349</ele>
        <time>2014-06-15T14:45:58Z</time>
      </trkpt>
      <trkpt lat="59.9675927" lon="17.7157097">
        <ele>27.5349</ele>
        <time>2014-06-15T14:45:59Z</time>
      </trkpt>
      <trkpt lat="59.9676279" lon="17.715846">
        <ele>28.0155</ele>
        <time>2014-06-15T14:46:00Z</time>
      </trkpt>
      <trkpt lat="59.9676647" lon="17.7159734">
        <ele>28.0155</ele>
        <time>2014-06-15T14:46:01Z</time>
      </trkpt>
      <trkpt lat="59.9677023" lon="17.7160904">
        <ele>28.4962</ele>
        <time>2014-06-15T14:46:02Z</time>
      </trkpt>
      <trkpt lat="59.9677434" lon="17.7161976">
        <ele>28.9769</ele>
        <time>2014-06-15T14:46:03Z</time>
      </trkpt>
      <trkpt lat="59.9677859" lon="17.7162982">
        <ele>29.4575</ele>
        <time>2014-06-15T14:46:04Z</time>
      </trkpt>
      <trkpt lat="59.9678278" lon="17.7163939">
        <ele>29.9381</ele>
        <time>2014-06-15T14:46:05Z</time>
      </trkpt>
      <trkpt lat="59.9678699" lon="17.7164831">
        <ele>30.4188</ele>
        <time>2014-06-15T14:46:06Z</time>
      </trkpt>
      <trkpt lat="59.9679137" lon="17.7165655">
        <ele>30.8995</ele>
        <time>2014-06-15T14:46:07Z</time>
      </trkpt>
      <trkpt lat="59.9679574" lon="17.7166407">
        <ele>31.3801</ele>
        <time>2014-06-15T14:46:08Z</time>
      </trkpt>
      <trkpt lat="59.9680018" lon="17.716711">
        <ele>31.8607</ele>
        <time>2014-06-15T14:46:09Z</time>
      </trkpt>
      <trkpt lat="59.968046" lon="17.716777">
        <ele>32.3416</ele>
        <time>2014-06-15T14:46:10Z</time>
      </trkpt>
      <trkpt lat="59.96809" lon="17.7168385">
        <ele>32.8223</ele>
        <time>2014-06-15T14:46:11Z</time>
      </trkpt>
      <trkpt lat="59.968133" lon="17.716896">
        <ele>32.8223</ele>
        <time>2014-06-15T14:46:12Z</time>
      </trkpt>
      <trkpt lat="59.968177" lon="17.7169486">
        <ele>33.3029</ele>
        <time>2014-06-15T14:46:13Z</time>
      </trkpt>
      <trkpt lat="59.9682216" lon="17.7169981">
        <ele>33.7834</ele>
        <time>2014-06-15T14:46:14Z</time>
      </trkpt>
      <trkpt lat="59.9682661" lon="17.7170467">
        <ele>33.7834</ele>
        <time>2014-06-15T14:46:15Z</time>
      </trkpt>
      <trkpt lat="59.9683122" lon="17.7170902">
        <ele>34.2642</ele>
        <time>2014-06-15T14:46:16Z</time>
      </trkpt>
      <trkpt lat="59.9683602" lon="17.7171263">
        <ele>34.7449</ele>
        <time>2014-06-15T14:46:17Z</time>
      </trkpt>
      <trkpt lat="59.9684084" lon="17.71716">
        <ele>34.7449</ele>
        <time>2014-06-15T14:46:18Z</time>
      </trkpt>
      <trkpt lat="59.9684562" lon="17.7171929">
        <ele>35.2255</ele>
        <time>2014-06-15T14:46:19Z</time>
      </trkpt>
      <trkpt lat="59.9685048" lon="17.717223">
        <ele>35.2255</ele>
        <time>2014-06-15T14:46:20Z</time>
      </trkpt>
      <trkpt lat="59.9685539" lon="17.7172511">
        <ele>35.2255</ele>
        <time>2014-06-15T14:46:21Z</time>
      </trkpt>
      <trkpt lat="59.9686026" lon="17.7172783">
        <ele>35.7061</ele>
        <time>2014-06-15T14:46:22Z</time>
      </trkpt>
      <trkpt lat="59.9686531" lon="17.7173031">
        <ele>35.7061</ele>
        <time>2014-06-15T14:46:23Z</time>
      </trkpt>
      <trkpt lat="59.9687049" lon="17.7173233">
        <ele>35.7061</ele>
        <time>2014-06-15T14:46:24Z</time>
      </trkpt>
      <trkpt lat="59.9687578" lon="17.7173424">
        <ele>35.7061</ele>
        <time>2014-06-15T14:46:25Z</time>
      </trkpt>
      <trkpt lat="59.9688111" lon="17.7173638">
        <ele>36.1868</ele>
        <time>2014-06-15T14:46:26Z</time>
      </trkpt>
      <trkpt lat="59.9688675" lon="17.7173843">
        <ele>36.1868</ele>
        <time>2014-06-15T14:46:27Z</time>
      </trkpt>
      <trkpt lat="59.9689239" lon="17.7174047">
        <ele>36.1868</ele>
        <time>2014-06-15T14:46:28Z</time>
      </trkpt>
      <trkpt lat="59.9689783" lon="17.7174254">
        <ele>36.1868</ele>
        <time>2014-06-15T14:46:29Z</time>
      </trkpt>
      <trkpt lat="59.9690327" lon="17.7174457">
        <ele>36.1868</ele>
        <time>2014-06-15T14:46:30Z</time>
      </trkpt>
      <trkpt lat="59.9690872" lon="17.7174649">
        <ele>36.1868</ele>
        <time>2014-06-15T14:46:31Z</time>
      </trkpt>
      <trkpt lat="59.9691425" lon="17.7174845">
        <ele>36.1868</ele>
        <time>2014-06-15T14:46:32Z</time>
      </trkpt>
      <trkpt lat="59.9691969" lon="17.7175066">
        <ele>36.1868</ele>
        <time>2014-06-15T14:46:33Z</time>
      </trkpt>
      <trkpt lat="59.9692504" lon="17.7175285">
        <ele>36.1868</ele>
        <time>2014-06-15T14:46:34Z</time>
      </trkpt>
      <trkpt lat="59.9693036" lon="17.7175508">
        <ele>36.1868</ele>
        <time>2014-06-15T14:46:35Z</time>
      </trkpt>
      <trkpt lat="59.969357" lon="17.7175751">
        <ele>36.1868</ele>
        <time>2014-06-15T14:46:36Z</time>
      </trkpt>
      <trkpt lat="59.9694113" lon="17.7176014">
        <ele>35.7061</ele>
        <time>2014-06-15T14:46:37Z</time>
      </trkpt>
      <trkpt lat="59.9694664" lon="17.7176312">
        <ele>35.7061</ele>
        <time>2014-06-15T14:46:38Z</time>
      </trkpt>
      <trkpt lat="59.9695226" lon="17.7176647">
        <ele>35.7061</ele>
        <time>2014-06-15T14:46:39Z</time>
      </trkpt>
      <trkpt lat="59.9695798" lon="17.7177008">
        <ele>35.7061</ele>
        <time>2014-06-15T14:46:40Z</time>
      </trkpt>
      <trkpt lat="59.9696379" lon="17.7177398">
        <ele>35.7061</ele>
        <time>2014-06-15T14:46:41Z</time>
      </trkpt>
      <trkpt lat="59.9696974" lon="17.7177805">
        <ele>35.7061</ele>
        <time>2014-06-15T14:46:42Z</time>
      </trkpt>
      <trkpt lat="59.9697573" lon="17.7178222">
        <ele>35.7061</ele>
        <time>2014-06-15T14:46:43Z</time>
      </trkpt>
      <trkpt lat="59.9698175" lon="17.7178673">
        <ele>35.7061</ele>
        <time>2014-06-15T14:46:44Z</time>
      </trkpt>
      <trkpt lat="59.9698774" lon="17.7179178">
        <ele>35.2255</ele>
        <time>2014-06-15T14:46:45Z</time>
      </trkpt>
      <trkpt lat="59.9699373" lon="17.7179713">
        <ele>35.2255</ele>
        <time>2014-06-15T14:46:46Z</time>
      </trkpt>
      <trkpt lat="59.9699983" lon="17.7180247">
        <ele>35.2255</ele>
        <time>2014-06-15T14:46:47Z</time>
      </trkpt>
      <trkpt lat="59.9700601" lon="17.7180791">
        <ele>35.2255</ele>
        <time>2014-06-15T14:46:48Z</time>
      </trkpt>
      <trkpt lat="59.970122" lon="17.718134">
        <ele>35.2255</ele>
        <time>2014-06-15T14:46:49Z</time>
      </trkpt>
      <trkpt lat="59.9701836" lon="17.7181903">
        <ele>35.2255</ele>
        <time>2014-06-15T14:46:50Z</time>
      </trkpt>
      <trkpt lat="59.9702457" lon="17.718247">
        <ele>35.2255</ele>
        <time>2014-06-15T14:46:51Z</time>
      </trkpt>
      <trkpt lat="59.9703081" lon="17.718303">
        <ele>35.2255</ele>
        <time>2014-06-15T14:46:52Z</time>
      </trkpt>
      <trkpt lat="59.9703708" lon="17.7183589">
        <ele>35.2255</ele>
        <time>2014-06-15T14:46:53Z</time>
      </trkpt>
      <trkpt lat="59.9704339" lon="17.7184143">
        <ele>35.2255</ele>
        <time>2014-06-15T14:46:54Z</time>
      </trkpt>
      <trkpt lat="59.970497" lon="17.7184706">
        <ele>35.2255</ele>
        <time>2014-06-15T14:46:55Z</time>
      </trkpt>
      <trkpt lat="59.9705604" lon="17.7185289">
        <ele>35.2255</ele>
        <time>2014-06-15T14:46:56Z</time>
      </trkpt>
      <trkpt lat="59.9706244" lon="17.7185879">
        <ele>35.2255</ele>
        <time>2014-06-15T14:46:57Z</time>
      </trkpt>
      <trkpt lat="59.9706894" lon="17.7186459">
        <ele>35.2255</ele>
        <time>2014-06-15T14:46:58Z</time>
      </trkpt>
      <trkpt lat="59.9707546" lon="17.7187044">
        <ele>35.2255</ele>
        <time>2014-06-15T14:46:59Z</time>
      </trkpt>
      <trkpt lat="59.9708199" lon="17.7187648">
        <ele>35.2255</ele>
        <time>2014-06-15T14:47:00Z</time>
      </trkpt>
      <trkpt lat="59.9708865" lon="17.7188252">
        <ele>34.7449</ele>
        <time>2014-06-15T14:47:01Z</time>
      </trkpt>
      <trkpt lat="59.9709535" lon="17.7188856">
        <ele>34.7449</ele>
        <time>2014-06-15T14:47:02Z</time>
      </trkpt>
      <trkpt lat="59.9710208" lon="17.7189453">
        <ele>34.7449</ele>
        <time>2014-06-15T14:47:03Z</time>
      </trkpt>
      <trkpt lat="59.9710887" lon="17.7190046">
        <ele>34.7449</ele>
        <time>2014-06-15T14:47:04Z</time>
      </trkpt>
      <trkpt lat="59.9711567" lon="17.7190645">
        <ele>34.7449</ele>
        <time>2014-06-15T14:47:05Z</time>
      </trkpt>
      <trkpt lat="59.9712245" lon="17.719126">
        <ele>34.7449</ele>
        <time>2014-06-15T14:47:06Z</time>
      </trkpt>
      <trkpt lat="59.9712924" lon="17.7191898">
        <ele>34.7449</ele>
        <time>2014-06-15T14:47:07Z</time>
      </trkpt>
      <trkpt lat="59.9713606" lon="17.7192555">
        <ele>34.7449</ele>
        <time>2014-06-15T14:47:08Z</time>
      </trkpt>
      <trkpt lat="59.9714296" lon="17.7193203">
        <ele>34.7449</ele>
        <time>2014-06-15T14:47:09Z</time>
      </trkpt>
      <trkpt lat="59.971499" lon="17.7193817">
        <ele>34.2642</ele>
        <time>2014-06-15T14:47:10Z</time>
      </trkpt>
      <trkpt lat="59.971569" lon="17.7194411">
        <ele>34.2642</ele>
        <time>2014-06-15T14:47:11Z</time>
      </trkpt>
      <trkpt lat="59.9716389" lon="17.7195026">
        <ele>34.2642</ele>
        <time>2014-06-15T14:47:12Z</time>
      </trkpt>
      <trkpt lat="59.9717086" lon="17.7195669">
        <ele>34.2642</ele>
        <time>2014-06-15T14:47:13Z</time>
      </trkpt>
      <trkpt lat="59.9717778" lon="17.7196319">
        <ele>34.2642</ele>
        <time>2014-06-15T14:47:14Z</time>
      </trkpt>
      <trkpt lat="59.9718469" lon="17.7196956">
        <ele>34.2642</ele>
        <time>2014-06-15T14:47:15Z</time>
      </trkpt>
      <trkpt lat="59.971916" lon="17.7197579">
        <ele>34.2642</ele>
        <time>2014-06-15T14:47:16Z</time>
      </trkpt>
      <trkpt lat="59.9719854" lon="17.7198197">
        <ele>34.2642</ele>
        <time>2014-06-15T14:47:17Z</time>
      </trkpt>
      <trkpt lat="59.9720549" lon="17.7198824">
        <ele>34.2642</ele>
        <time>2014-06-15T14:47:18Z</time>
      </trkpt>
      <trkpt lat="59.9721253" lon="17.7199453">
        <ele>33.7834</ele>
        <time>2014-06-15T14:47:19Z</time>
      </trkpt>
      <trkpt lat="59.9721963" lon="17.7200082">
        <ele>33.7834</ele>
        <time>2014-06-15T14:47:20Z</time>
      </trkpt>
      <trkpt lat="59.9722677" lon="17.7200717">
        <ele>33.7834</ele>
        <time>2014-06-15T14:47:21Z</time>
      </trkpt>
      <trkpt lat="59.9723387" lon="17.7201367">
        <ele>33.7834</ele>
        <time>2014-06-15T14:47:22Z</time>
      </trkpt>
      <trkpt lat="59.97241" lon="17.7202014">
        <ele>33.7834</ele>
        <time>2014-06-15T14:47:23Z</time>
      </trkpt>
      <trkpt lat="59.9724816" lon="17.7202654">
        <ele>33.7834</ele>
        <time>2014-06-15T14:47:24Z</time>
      </trkpt>
      <trkpt lat="59.972553" lon="17.7203298">
        <ele>33.7834</ele>
        <time>2014-06-15T14:47:25Z</time>
      </trkpt>
      <trkpt lat="59.9726237" lon="17.7203958">
        <ele>33.7834</ele>
        <time>2014-06-15T14:47:26Z</time>
      </trkpt>
      <trkpt lat="59.9726941" lon="17.720465">
        <ele>33.3029</ele>
        <time>2014-06-15T14:47:27Z</time>
      </trkpt>
      <trkpt lat="59.9727636" lon="17.7205371">
        <ele>33.3029</ele>
        <time>2014-06-15T14:47:28Z</time>
      </trkpt>
      <trkpt lat="59.9728329" lon="17.7206133">
        <ele>33.3029</ele>
        <time>2014-06-15T14:47:29Z</time>
      </trkpt>
      <trkpt lat="59.9729012" lon="17.7206947">
        <ele>33.3029</ele>
        <time>2014-06-15T14:47:30Z</time>
      </trkpt>
      <trkpt lat="59.9729677" lon="17.7207809">
        <ele>32.8223</ele>
        <time>2014-06-15T14:47:31Z</time>
      </trkpt>
      <trkpt lat="59.9730333" lon="17.72087">
        <ele>32.8223</ele>
        <time>2014-06-15T14:47:32Z</time>
      </trkpt>
      <trkpt lat="59.9730982" lon="17.7209616">
        <ele>32.8223</ele>
        <time>2014-06-15T14:47:33Z</time>
      </trkpt>
      <trkpt lat="59.9731622" lon="17.7210566">
        <ele>32.8223</ele>
        <time>2014-06-15T14:47:34Z</time>
      </trkpt>
      <trkpt lat="59.9732245" lon="17.721156">
        <ele>32.3416</ele>
        <time>2014-06-15T14:47:35Z</time>
      </trkpt>
      <trkpt lat="59.9732851" lon="17.7212591">
        <ele>32.3416</ele>
        <time>2014-06-15T14:47:36Z</time>
      </trkpt>
      <trkpt lat="59.9733436" lon="17.7213664">
        <ele>32.3416</ele>
        <time>2014-06-15T14:47:37Z</time>
      </trkpt>
      <trkpt lat="59.9734002" lon="17.7214771">
        <ele>32.3416</ele>
        <time>2014-06-15T14:47:38Z</time>
      </trkpt>
      <trkpt lat="59.9734549" lon="17.7215908">
        <ele>32.3416</ele>
        <time>2014-06-15T14:47:39Z</time>
      </trkpt>
      <trkpt lat="59.9735084" lon="17.7217076">
        <ele>32.3416</ele>
        <time>2014-06-15T14:47:40Z</time>
      </trkpt>
      <trkpt lat="59.9735601" lon="17.7218272">
        <ele>31.8607</ele>
        <time>2014-06-15T14:47:41Z</time>
      </trkpt>
      <trkpt lat="59.9736093" lon="17.721951">
        <ele>31.8607</ele>
        <time>2014-06-15T14:47:42Z</time>
      </trkpt>
      <trkpt lat="59.9736566" lon="17.7220777">
        <ele>31.8607</ele>
        <time>2014-06-15T14:47:43Z</time>
      </trkpt>
      <trkpt lat="59.9737026" lon="17.7222061">
        <ele>31.3801</ele>
        <time>2014-06-15T14:47:44Z</time>
      </trkpt>
      <trkpt lat="59.9737464" lon="17.7223361">
        <ele>31.3801</ele>
        <time>2014-06-15T14:47:45Z</time>
      </trkpt>
      <trkpt lat="59.9737872" lon="17.7224685">
        <ele>31.3801</ele>
        <time>2014-06-15T14:47:46Z</time>
      </trkpt>
      <trkpt lat="59.9738264" lon="17.7226029">
        <ele>31.3801</ele>
        <time>2014-06-15T14:47:47Z</time>
      </trkpt>
      <trkpt lat="59.9738636" lon="17.7227391">
        <ele>31.3801</ele>
        <time>2014-06-15T14:47:48Z</time>
      </trkpt>
      <trkpt lat="59.9738984" lon="17.7228765">
        <ele>31.3801</ele>
        <time>2014-06-15T14:47:49Z</time>
      </trkpt>
      <trkpt lat="59.9739315" lon="17.7230146">
        <ele>30.8995</ele>
        <time>2014-06-15T14:47:50Z</time>
      </trkpt>
      <trkpt lat="59.9739632" lon="17.7231539">
        <ele>30.8995</ele>
        <time>2014-06-15T14:47:51Z</time>
      </trkpt>
      <trkpt lat="59.9739912" lon="17.7232953">
        <ele>30.8995</ele>
        <time>2014-06-15T14:47:52Z</time>
      </trkpt>
      <trkpt lat="59.9740161" lon="17.7234373">
        <ele>30.8995</ele>
        <time>2014-06-15T14:47:53Z</time>
      </trkpt>
      <trkpt lat="59.9740392" lon="17.7235782">
        <ele>30.8995</ele>
        <time>2014-06-15T14:47:54Z</time>
      </trkpt>
      <trkpt lat="59.9740606" lon="17.7237173">
        <ele>30.8995</ele>
        <time>2014-06-15T14:47:55Z</time>
      </trkpt>
      <trkpt lat="59.9740811" lon="17.7238549">
        <ele>30.8995</ele>
        <time>2014-06-15T14:47:56Z</time>
      </trkpt>
      <trkpt lat="59.974101" lon="17.7239911">
        <ele>30.8995</ele>
        <time>2014-06-15T14:47:57Z</time>
      </trkpt>
      <trkpt lat="59.9741212" lon="17.7241256">
        <ele>30.8995</ele>
        <time>2014-06-15T14:47:58Z</time>
      </trkpt>
      <trkpt lat="59.9741412" lon="17.7242585">
        <ele>31.3801</ele>
        <time>2014-06-15T14:47:59Z</time>
      </trkpt>
      <trkpt lat="59.9741609" lon="17.7243899">
        <ele>31.3801</ele>
        <time>2014-06-15T14:48:00Z</time>
      </trkpt>
      <trkpt lat="59.9741802" lon="17.7245204">
        <ele>31.3801</ele>
        <time>2014-06-15T14:48:01Z</time>
      </trkpt>
      <trkpt lat="59.9741994" lon="17.7246515">
        <ele>31.3801</ele>
        <time>2014-06-15T14:48:02Z</time>
      </trkpt>
      <trkpt lat="59.9742184" lon="17.7247825">
        <ele>31.3801</ele>
        <time>2014-06-15T14:48:03Z</time>
      </trkpt>
      <trkpt lat="59.9742367" lon="17.7249132">
        <ele>31.3801</ele>
        <time>2014-06-15T14:48:04Z</time>
      </trkpt>
      <trkpt lat="59.9742541" lon="17.7250437">
        <ele>31.3801</ele>
        <time>2014-06-15T14:48:05Z</time>
      </trkpt>
      <trkpt lat="59.9742707" lon="17.7251741">
        <ele>31.3801</ele>
        <time>2014-06-15T14:48:06Z</time>
      </trkpt>
      <trkpt lat="59.9742868" lon="17.7253043">
        <ele>31.3801</ele>
        <time>2014-06-15T14:48:07Z</time>
      </trkpt>
      <trkpt lat="59.9743021" lon="17.7254343">
        <ele>31.3801</ele>
        <time>2014-06-15T14:48:08Z</time>
      </trkpt>
      <trkpt lat="59.9743164" lon="17.7255649">
        <ele>31.3801</ele>
        <time>2014-06-15T14:48:09Z</time>
      </trkpt>
      <trkpt lat="59.9743284" lon="17.7256958">
        <ele>31.8607</ele>
        <time>2014-06-15T14:48:10Z</time>
      </trkpt>
      <trkpt lat="59.9743387" lon="17.7258259">
        <ele>31.8607</ele>
        <time>2014-06-15T14:48:11Z</time>
      </trkpt>
      <trkpt lat="59.9743477" lon="17.7259555">
        <ele>31.3801</ele>
        <time>2014-06-15T14:48:12Z</time>
      </trkpt>
      <trkpt lat="59.9743554" lon="17.7260864">
        <ele>31.3801</ele>
        <time>2014-06-15T14:48:13Z</time>
      </trkpt>
      <trkpt lat="59.9743621" lon="17.7262186">
        <ele>31.3801</ele>
        <time>2014-06-15T14:48:14Z</time>
      </trkpt>
      <trkpt lat="59.9743684" lon="17.7263523">
        <ele>31.3801</ele>
        <time>2014-06-15T14:48:15Z</time>
      </trkpt>
      <trkpt lat="59.9743734" lon="17.726487">
        <ele>31.3801</ele>
        <time>2014-06-15T14:48:16Z</time>
      </trkpt>
      <trkpt lat="59.9743767" lon="17.7266223">
        <ele>31.3801</ele>
        <time>2014-06-15T14:48:17Z</time>
      </trkpt>
      <trkpt lat="59.9743805" lon="17.7267589">
        <ele>31.3801</ele>
        <time>2014-06-15T14:48:18Z</time>
      </trkpt>
      <trkpt lat="59.9743844" lon="17.7268962">
        <ele>31.3801</ele>
        <time>2014-06-15T14:48:19Z</time>
      </trkpt>
      <trkpt lat="59.9743885" lon="17.7270355">
        <ele>30.8995</ele>
        <time>2014-06-15T14:48:20Z</time>
      </trkpt>
      <trkpt lat="59.974392" lon="17.7271783">
        <ele>30.8995</ele>
        <time>2014-06-15T14:48:21Z</time>
      </trkpt>
      <trkpt lat="59.9743951" lon="17.7273251">
        <ele>30.8995</ele>
        <time>2014-06-15T14:48:22Z</time>
      </trkpt>
      <trkpt lat="59.9743979" lon="17.7274757">
        <ele>30.4188</ele>
        <time>2014-06-15T14:48:23Z</time>
      </trkpt>
      <trkpt lat="59.9744012" lon="17.7276291">
        <ele>30.4188</ele>
        <time>2014-06-15T14:48:24Z</time>
      </trkpt>
      <trkpt lat="59.9744043" lon="17.7277851">
        <ele>29.9381</ele>
        <time>2014-06-15T14:48:25Z</time>
      </trkpt>
      <trkpt lat="59.974406" lon="17.7279432">
        <ele>29.9381</ele>
        <time>2014-06-15T14:48:26Z</time>
      </trkpt>
      <trkpt lat="59.9744076" lon="17.728102">
        <ele>29.9381</ele>
        <time>2014-06-15T14:48:27Z</time>
      </trkpt>
      <trkpt lat="59.974411" lon="17.7282614">
        <ele>29.4575</ele>
        <time>2014-06-15T14:48:28Z</time>
      </trkpt>
      <trkpt lat="59.9744155" lon="17.7284196">
        <ele>29.4575</ele>
        <time>2014-06-15T14:48:29Z</time>
      </trkpt>
      <trkpt lat="59.9744197" lon="17.728577">
        <ele>29.4575</ele>
        <time>2014-06-15T14:48:30Z</time>
      </trkpt>
      <trkpt lat="59.9744247" lon="17.7287318">
        <ele>29.4575</ele>
        <time>2014-06-15T14:48:31Z</time>
      </trkpt>
      <trkpt lat="59.9744373" lon="17.7288758">
        <ele>29.4575</ele>
        <time>2014-06-15T14:48:32Z</time>
      </trkpt>
      <trkpt lat="59.974449" lon="17.7290183">
        <ele>29.4575</ele>
        <time>2014-06-15T14:48:33Z</time>
      </trkpt>
      <trkpt lat="59.9744527" lon="17.7291702">
        <ele>29.4575</ele>
        <time>2014-06-15T14:48:34Z</time>
      </trkpt>
      <trkpt lat="59.9744543" lon="17.7293168">
        <ele>29.4575</ele>
        <time>2014-06-15T14:48:35Z</time>
      </trkpt>
      <trkpt lat="59.9744548" lon="17.7294573">
        <ele>29.9381</ele>
        <time>2014-06-15T14:48:36Z</time>
      </trkpt>
      <trkpt lat="59.9744521" lon="17.7295934">
        <ele>29.9381</ele>
        <time>2014-06-15T14:48:37Z</time>
      </trkpt>
      <trkpt lat="59.9744454" lon="17.7297264">
        <ele>29.9381</ele>
        <time>2014-06-15T14:48:38Z</time>
      </trkpt>
      <trkpt lat="59.9744362" lon="17.7298571">
        <ele>29.9381</ele>
        <time>2014-06-15T14:48:39Z</time>
      </trkpt>
      <trkpt lat="59.9744261" lon="17.729986">
        <ele>30.4188</ele>
        <time>2014-06-15T14:48:40Z</time>
      </trkpt>
      <trkpt lat="59.974416" lon="17.7301131">
        <ele>30.4188</ele>
        <time>2014-06-15T14:48:41Z</time>
      </trkpt>
      <trkpt lat="59.9744061" lon="17.7302395">
        <ele>30.4188</ele>
        <time>2014-06-15T14:48:42Z</time>
      </trkpt>
      <trkpt lat="59.9743955" lon="17.7303662">
        <ele>30.4188</ele>
        <time>2014-06-15T14:48:43Z</time>
      </trkpt>
      <trkpt lat="59.9743844" lon="17.7304931">
        <ele>30.4188</ele>
        <time>2014-06-15T14:48:44Z</time>
      </trkpt>
      <trkpt lat="59.9743735" lon="17.7306208">
        <ele>30.4188</ele>
        <time>2014-06-15T14:48:45Z</time>
      </trkpt>
      <trkpt lat="59.9743637" lon="17.7307496">
        <ele>30.4188</ele>
        <time>2014-06-15T14:48:46Z</time>
      </trkpt>
      <trkpt lat="59.9743548" lon="17.7308791">
        <ele>30.4188</ele>
        <time>2014-06-15T14:48:47Z</time>
      </trkpt>
      <trkpt lat="59.9743466" lon="17.7310088">
        <ele>30.4188</ele>
        <time>2014-06-15T14:48:48Z</time>
      </trkpt>
      <trkpt lat="59.9743401" lon="17.7311393">
        <ele>30.8995</ele>
        <time>2014-06-15T14:48:49Z</time>
      </trkpt>
      <trkpt lat="59.9743339" lon="17.7312707">
        <ele>30.8995</ele>
        <time>2014-06-15T14:48:50Z</time>
      </trkpt>
      <trkpt lat="59.9743285" lon="17.7314033">
        <ele>30.8995</ele>
        <time>2014-06-15T14:48:51Z</time>
      </trkpt>
      <trkpt lat="59.9743246" lon="17.7315373">
        <ele>30.8995</ele>
        <time>2014-06-15T14:48:52Z</time>
      </trkpt>
      <trkpt lat="59.9743221" lon="17.7316716">
        <ele>30.8995</ele>
        <time>2014-06-15T14:48:53Z</time>
      </trkpt>
      <trkpt lat="59.9743219" lon="17.7318058">
        <ele>30.8995</ele>
        <time>2014-06-15T14:48:54Z</time>
      </trkpt>
      <trkpt lat="59.9743233" lon="17.73194">
        <ele>30.8995</ele>
        <time>2014-06-15T14:48:55Z</time>
      </trkpt>
      <trkpt lat="59.9743252" lon="17.732075">
        <ele>30.8995</ele>
        <time>2014-06-15T14:48:56Z</time>
      </trkpt>
      <trkpt lat="59.9743279" lon="17.7322105">
        <ele>30.8995</ele>
        <time>2014-06-15T14:48:57Z</time>
      </trkpt>
      <trkpt lat="59.9743315" lon="17.7323472">
        <ele>30.8995</ele>
        <time>2014-06-15T14:48:58Z</time>
      </trkpt>
      <trkpt lat="59.9743341" lon="17.7324844">
        <ele>30.8995</ele>
        <time>2014-06-15T14:48:59Z</time>
      </trkpt>
      <trkpt lat="59.9743365" lon="17.7326221">
        <ele>30.8995</ele>
        <time>2014-06-15T14:49:00Z</time>
      </trkpt>
      <trkpt lat="59.9743382" lon="17.7327602">
        <ele>30.8995</ele>
        <time>2014-06-15T14:49:01Z</time>
      </trkpt>
      <trkpt lat="59.9743382" lon="17.7328997">
        <ele>30.8995</ele>
        <time>2014-06-15T14:49:02Z</time>
      </trkpt>
      <trkpt lat="59.9743361" lon="17.7330401">
        <ele>30.8995</ele>
        <time>2014-06-15T14:49:03Z</time>
      </trkpt>
      <trkpt lat="59.9743325" lon="17.7331807">
        <ele>30.8995</ele>
        <time>2014-06-15T14:49:04Z</time>
      </trkpt>
      <trkpt lat="59.9743279" lon="17.7333211">
        <ele>30.8995</ele>
        <time>2014-06-15T14:49:05Z</time>
      </trkpt>
      <trkpt lat="59.9743226" lon="17.7334604">
        <ele>30.8995</ele>
        <time>2014-06-15T14:49:06Z</time>
      </trkpt>
      <trkpt lat="59.9743165" lon="17.7335982">
        <ele>30.8995</ele>
        <time>2014-06-15T14:49:07Z</time>
      </trkpt>
      <trkpt lat="59.9743095" lon="17.733735">
        <ele>30.8995</ele>
        <time>2014-06-15T14:49:08Z</time>
      </trkpt>
      <trkpt lat="59.9743021" lon="17.7338707">
        <ele>30.8995</ele>
        <time>2014-06-15T14:49:09Z</time>
      </trkpt>
      <trkpt lat="59.9742952" lon="17.7340057">
        <ele>31.3801</ele>
        <time>2014-06-15T14:49:10Z</time>
      </trkpt>
      <trkpt lat="59.974289" lon="17.7341407">
        <ele>31.3801</ele>
        <time>2014-06-15T14:49:11Z</time>
      </trkpt>
      <trkpt lat="59.9742842" lon="17.7342768">
        <ele>31.3801</ele>
        <time>2014-06-15T14:49:12Z</time>
      </trkpt>
      <trkpt lat="59.974281" lon="17.7344135">
        <ele>31.3801</ele>
        <time>2014-06-15T14:49:13Z</time>
      </trkpt>
      <trkpt lat="59.97428" lon="17.7345501">
        <ele>31.3801</ele>
        <time>2014-06-15T14:49:14Z</time>
      </trkpt>
      <trkpt lat="59.9742812" lon="17.734687">
        <ele>31.3801</ele>
        <time>2014-06-15T14:49:15Z</time>
      </trkpt>
      <trkpt lat="59.9742847" lon="17.7348249">
        <ele>31.3801</ele>
        <time>2014-06-15T14:49:16Z</time>
      </trkpt>
      <trkpt lat="59.974291" lon="17.7349643">
        <ele>31.3801</ele>
        <time>2014-06-15T14:49:17Z</time>
      </trkpt>
      <trkpt lat="59.9742997" lon="17.7351052">
        <ele>31.8607</ele>
        <time>2014-06-15T14:49:18Z</time>
      </trkpt>
      <trkpt lat="59.9743106" lon="17.7352465">
        <ele>31.8607</ele>
        <time>2014-06-15T14:49:19Z</time>
      </trkpt>
      <trkpt lat="59.9743242" lon="17.7353859">
        <ele>31.8607</ele>
        <time>2014-06-15T14:49:20Z</time>
      </trkpt>
      <trkpt lat="59.9743403" lon="17.7355222">
        <ele>31.8607</ele>
        <time>2014-06-15T14:49:21Z</time>
      </trkpt>
      <trkpt lat="59.974358" lon="17.7356558">
        <ele>32.3416</ele>
        <time>2014-06-15T14:49:22Z</time>
      </trkpt>
      <trkpt lat="59.9743776" lon="17.7357866">
        <ele>32.3416</ele>
        <time>2014-06-15T14:49:23Z</time>
      </trkpt>
      <trkpt lat="59.9743991" lon="17.7359147">
        <ele>32.3416</ele>
        <time>2014-06-15T14:49:24Z</time>
      </trkpt>
      <trkpt lat="59.9744221" lon="17.7360406">
        <ele>32.3416</ele>
        <time>2014-06-15T14:49:25Z</time>
      </trkpt>
      <trkpt lat="59.9744471" lon="17.736163">
        <ele>32.3416</ele>
        <time>2014-06-15T14:49:26Z</time>
      </trkpt>
      <trkpt lat="59.9744745" lon="17.7362829">
        <ele>32.8223</ele>
        <time>2014-06-15T14:49:27Z</time>
      </trkpt>
      <trkpt lat="59.9745034" lon="17.7364015">
        <ele>32.8223</ele>
        <time>2014-06-15T14:49:28Z</time>
      </trkpt>
      <trkpt lat="59.974534" lon="17.7365202">
        <ele>32.8223</ele>
        <time>2014-06-15T14:49:29Z</time>
      </trkpt>
      <trkpt lat="59.974566" lon="17.7366353">
        <ele>32.8223</ele>
        <time>2014-06-15T14:49:30Z</time>
      </trkpt>
      <trkpt lat="59.9745987" lon="17.7367446">
        <ele>32.8223</ele>
        <time>2014-06-15T14:49:31Z</time>
      </trkpt>
      <trkpt lat="59.9746314" lon="17.7368495">
        <ele>33.3029</ele>
        <time>2014-06-15T14:49:32Z</time>
      </trkpt>
      <trkpt lat="59.9746634" lon="17.7369506">
        <ele>33.3029</ele>
        <time>2014-06-15T14:49:33Z</time>
      </trkpt>
      <trkpt lat="59.9746957" lon="17.7370472">
        <ele>33.3029</ele>
        <time>2014-06-15T14:49:34Z</time>
      </trkpt>
      <trkpt lat="59.9747291" lon="17.7371402">
        <ele>33.3029</ele>
        <time>2014-06-15T14:49:35Z</time>
      </trkpt>
      <trkpt lat="59.9747639" lon="17.7372305">
        <ele>33.3029</ele>
        <time>2014-06-15T14:49:36Z</time>
      </trkpt>
      <trkpt lat="59.9747996" lon="17.7373183">
        <ele>33.3029</ele>
        <time>2014-06-15T14:49:37Z</time>
      </trkpt>
      <trkpt lat="59.9748351" lon="17.7374044">
        <ele>33.7834</ele>
        <time>2014-06-15T14:49:38Z</time>
      </trkpt>
      <trkpt lat="59.9748712" lon="17.7374893">
        <ele>33.7834</ele>
        <time>2014-06-15T14:49:39Z</time>
      </trkpt>
      <trkpt lat="59.9749091" lon="17.7375711">
        <ele>33.7834</ele>
        <time>2014-06-15T14:49:40Z</time>
      </trkpt>
      <trkpt lat="59.974949" lon="17.7376485">
        <ele>33.7834</ele>
        <time>2014-06-15T14:49:41Z</time>
      </trkpt>
      <trkpt lat="59.9749905" lon="17.7377231">
        <ele>34.2642</ele>
        <time>2014-06-15T14:49:42Z</time>
      </trkpt>
      <trkpt lat="59.975033" lon="17.7377971">
        <ele>34.2642</ele>
        <time>2014-06-15T14:49:43Z</time>
      </trkpt>
      <trkpt lat="59.9750758" lon="17.7378728">
        <ele>34.2642</ele>
        <time>2014-06-15T14:49:44Z</time>
      </trkpt>
      <trkpt lat="59.9751193" lon="17.7379489">
        <ele>34.2642</ele>
        <time>2014-06-15T14:49:45Z</time>
      </trkpt>
      <trkpt lat="59.9751634" lon="17.7380246">
        <ele>34.2642</ele>
        <time>2014-06-15T14:49:46Z</time>
      </trkpt>
      <trkpt lat="59.9752077" lon="17.7381021">
        <ele>34.2642</ele>
        <time>2014-06-15T14:49:47Z</time>
      </trkpt>
      <trkpt lat="59.9752528" lon="17.738182">
        <ele>34.2642</ele>
        <time>2014-06-15T14:49:48Z</time>
      </trkpt>
      <trkpt lat="59.9752996" lon="17.7382624">
        <ele>34.2642</ele>
        <time>2014-06-15T14:49:49Z</time>
      </trkpt>
      <trkpt lat="59.9753468" lon="17.7383433">
        <ele>34.2642</ele>
        <time>2014-06-15T14:49:50Z</time>
      </trkpt>
      <trkpt lat="59.9753945" lon="17.738425">
        <ele>34.2642</ele>
        <time>2014-06-15T14:49:51Z</time>
      </trkpt>
      <trkpt lat="59.9754424" lon="17.7385074">
        <ele>34.2642</ele>
        <time>2014-06-15T14:49:52Z</time>
      </trkpt>
      <trkpt lat="59.9754903" lon="17.7385913">
        <ele>34.2642</ele>
        <time>2014-06-15T14:49:53Z</time>
      </trkpt>
      <trkpt lat="59.9755379" lon="17.7386768">
        <ele>34.2642</ele>
        <time>2014-06-15T14:49:54Z</time>
      </trkpt>
      <trkpt lat="59.9755864" lon="17.738761">
        <ele>34.2642</ele>
        <time>2014-06-15T14:49:55Z</time>
      </trkpt>
      <trkpt lat="59.9756351" lon="17.7388445">
        <ele>34.2642</ele>
        <time>2014-06-15T14:49:56Z</time>
      </trkpt>
      <trkpt lat="59.9756831" lon="17.738928">
        <ele>34.2642</ele>
        <time>2014-06-15T14:49:57Z</time>
      </trkpt>
      <trkpt lat="59.9757312" lon="17.7390105">
        <ele>34.7449</ele>
        <time>2014-06-15T14:49:58Z</time>
      </trkpt>
      <trkpt lat="59.9757783" lon="17.7390912">
        <ele>34.7449</ele>
        <time>2014-06-15T14:49:59Z</time>
      </trkpt>
      <trkpt lat="59.9758264" lon="17.7391694">
        <ele>34.7449</ele>
        <time>2014-06-15T14:50:00Z</time>
      </trkpt>
      <trkpt lat="59.9758749" lon="17.7392486">
        <ele>34.7449</ele>
        <time>2014-06-15T14:50:01Z</time>
      </trkpt>
      <trkpt lat="59.9759236" lon="17.7393316">
        <ele>34.7449</ele>
        <time>2014-06-15T14:50:02Z</time>
      </trkpt>
      <trkpt lat="59.9759734" lon="17.7394166">
        <ele>35.2255</ele>
        <time>2014-06-15T14:50:03Z</time>
      </trkpt>
      <trkpt lat="59.9760227" lon="17.7395026">
        <ele>35.2255</ele>
        <time>2014-06-15T14:50:04Z</time>
      </trkpt>
      <trkpt lat="59.9760719" lon="17.7395864">
        <ele>35.7061</ele>
        <time>2014-06-15T14:50:05Z</time>
      </trkpt>
      <trkpt lat="59.9761196" lon="17.7396655">
        <ele>36.1868</ele>
        <time>2014-06-15T14:50:06Z</time>
      </trkpt>
      <trkpt lat="59.9761594" lon="17.739734">
        <ele>36.6675</ele>
        <time>2014-06-15T14:50:07Z</time>
      </trkpt>
      <trkpt lat="59.9761874" lon="17.7397898">
        <ele>37.1481</ele>
        <time>2014-06-15T14:50:08Z</time>
      </trkpt>
      <trkpt lat="59.9762093" lon="17.7398324">
        <ele>37.1481</ele>
        <time>2014-06-15T14:50:09Z</time>
      </trkpt>
      <trkpt lat="59.976229" lon="17.7398673">
        <ele>37.6287</ele>
        <time>2014-06-15T14:50:10Z</time>
      </trkpt>
      <trkpt lat="59.9762526" lon="17.7399009">
        <ele>37.6287</ele>
        <time>2014-06-15T14:50:11Z</time>
      </trkpt>
      <trkpt lat="59.9762839" lon="17.7399235">
        <ele>38.1094</ele>
        <time>2014-06-15T14:50:12Z</time>
      </trkpt>
      <trkpt lat="59.9763186" lon="17.7399262">
        <ele>37.6287</ele>
        <time>2014-06-15T14:50:13Z</time>
      </trkpt>
      <trkpt lat="59.9763549" lon="17.7399055">
        <ele>37.6287</ele>
        <time>2014-06-15T14:50:14Z</time>
      </trkpt>
      <trkpt lat="59.9763983" lon="17.7398598">
        <ele>37.6287</ele>
        <time>2014-06-15T14:50:15Z</time>
      </trkpt>
      <trkpt lat="59.9764412" lon="17.7397982">
        <ele>37.6287</ele>
        <time>2014-06-15T14:50:16Z</time>
      </trkpt>
      <trkpt lat="59.9764828" lon="17.7397338">
        <ele>37.6287</ele>
        <time>2014-06-15T14:50:17Z</time>
      </trkpt>
      <trkpt lat="59.9765278" lon="17.739674">
        <ele>37.6287</ele>
        <time>2014-06-15T14:50:18Z</time>
      </trkpt>
      <trkpt lat="59.9765754" lon="17.7396201">
        <ele>37.6287</ele>
        <time>2014-06-15T14:50:19Z</time>
      </trkpt>
      <trkpt lat="59.9766248" lon="17.7395724">
        <ele>37.6287</ele>
        <time>2014-06-15T14:50:20Z</time>
      </trkpt>
      <trkpt lat="59.9766758" lon="17.7395335">
        <ele>37.6287</ele>
        <time>2014-06-15T14:50:21Z</time>
      </trkpt>
      <trkpt lat="59.9767253" lon="17.739503">
        <ele>38.1094</ele>
        <time>2014-06-15T14:50:22Z</time>
      </trkpt>
      <trkpt lat="59.9767743" lon="17.7394774">
        <ele>38.1094</ele>
        <time>2014-06-15T14:50:23Z</time>
      </trkpt>
      <trkpt lat="59.9768234" lon="17.7394569">
        <ele>38.1094</ele>
        <time>2014-06-15T14:50:24Z</time>
      </trkpt>
      <trkpt lat="59.9768717" lon="17.7394378">
        <ele>38.5901</ele>
        <time>2014-06-15T14:50:25Z</time>
      </trkpt>
      <trkpt lat="59.9769194" lon="17.7394201">
        <ele>38.5901</ele>
        <time>2014-06-15T14:50:26Z</time>
      </trkpt>
      <trkpt lat="59.9769665" lon="17.739402">
        <ele>38.5901</ele>
        <time>2014-06-15T14:50:27Z</time>
      </trkpt>
      <trkpt lat="59.9770122" lon="17.7393802">
        <ele>38.5901</ele>
        <time>2014-06-15T14:50:28Z</time>
      </trkpt>
      <trkpt lat="59.9770579" lon="17.7393569">
        <ele>38.5901</ele>
        <time>2014-06-15T14:50:29Z</time>
      </trkpt>
      <trkpt lat="59.9771042" lon="17.7393315">
        <ele>38.5901</ele>
        <time>2014-06-15T14:50:30Z</time>
      </trkpt>
      <trkpt lat="59.9771487" lon="17.7393025">
        <ele>38.5901</ele>
        <time>2014-06-15T14:50:31Z</time>
      </trkpt>
      <trkpt lat="59.9771924" lon="17.7392712">
        <ele>38.5901</ele>
        <time>2014-06-15T14:50:32Z</time>
      </trkpt>
      <trkpt lat="59.977237" lon="17.7392425">
        <ele>38.5901</ele>
        <time>2014-06-15T14:50:33Z</time>
      </trkpt>
      <trkpt lat="59.9772815" lon="17.7392154">
        <ele>39.0707</ele>
        <time>2014-06-15T14:50:34Z</time>
      </trkpt>
      <trkpt lat="59.977324" lon="17.7391897">
        <ele>39.0707</ele>
        <time>2014-06-15T14:50:35Z</time>
      </trkpt>
      <trkpt lat="59.9773665" lon="17.7391666">
        <ele>39.5513</ele>
        <time>2014-06-15T14:50:36Z</time>
      </trkpt>
      <trkpt lat="59.9774115" lon="17.7391461">
        <ele>39.5513</ele>
        <time>2014-06-15T14:50:37Z</time>
      </trkpt>
      <trkpt lat="59.977457" lon="17.7391257">
        <ele>40.0321</ele>
        <time>2014-06-15T14:50:38Z</time>
      </trkpt>
      <trkpt lat="59.9775023" lon="17.7391062">
        <ele>40.5128</ele>
        <time>2014-06-15T14:50:39Z</time>
      </trkpt>
      <trkpt lat="59.9775478" lon="17.7390921">
        <ele>40.9934</ele>
        <time>2014-06-15T14:50:40Z</time>
      </trkpt>
      <trkpt lat="59.9775932" lon="17.7390848">
        <ele>41.474</ele>
        <time>2014-06-15T14:50:41Z</time>
      </trkpt>
      <trkpt lat="59.9776374" lon="17.7390806">
        <ele>41.474</ele>
        <time>2014-06-15T14:50:42Z</time>
      </trkpt>
      <trkpt lat="59.9776809" lon="17.7390777">
        <ele>41.9547</ele>
        <time>2014-06-15T14:50:43Z</time>
      </trkpt>
      <trkpt lat="59.9777254" lon="17.7390812">
        <ele>41.9547</ele>
        <time>2014-06-15T14:50:44Z</time>
      </trkpt>
      <trkpt lat="59.9777705" lon="17.7390938">
        <ele>41.9547</ele>
        <time>2014-06-15T14:50:45Z</time>
      </trkpt>
      <trkpt lat="59.977817" lon="17.7391125">
        <ele>42.4354</ele>
        <time>2014-06-15T14:50:46Z</time>
      </trkpt>
      <trkpt lat="59.9778652" lon="17.7391348">
        <ele>42.4354</ele>
        <time>2014-06-15T14:50:47Z</time>
      </trkpt>
      <trkpt lat="59.9779141" lon="17.7391601">
        <ele>42.4354</ele>
        <time>2014-06-15T14:50:48Z</time>
      </trkpt>
      <trkpt lat="59.9779639" lon="17.7391865">
        <ele>42.4354</ele>
        <time>2014-06-15T14:50:49Z</time>
      </trkpt>
      <trkpt lat="59.9780125" lon="17.7392142">
        <ele>42.4354</ele>
        <time>2014-06-15T14:50:50Z</time>
      </trkpt>
      <trkpt lat="59.9780592" lon="17.7392378">
        <ele>42.4354</ele>
        <time>2014-06-15T14:50:51Z</time>
      </trkpt>
      <trkpt lat="59.9781057" lon="17.7392564">
        <ele>42.4354</ele>
        <time>2014-06-15T14:50:52Z</time>
      </trkpt>
      <trkpt lat="59.9781533" lon="17.7392713">
        <ele>42.916</ele>
        <time>2014-06-15T14:50:53Z</time>
      </trkpt>
      <trkpt lat="59.9781985" lon="17.7392849">
        <ele>42.916</ele>
        <time>2014-06-15T14:50:54Z</time>
      </trkpt>
      <trkpt lat="59.9782459" lon="17.7392952">
        <ele>42.916</ele>
        <time>2014-06-15T14:50:55Z</time>
      </trkpt>
      <trkpt lat="59.9782953" lon="17.7393045">
        <ele>42.916</ele>
        <time>2014-06-15T14:50:56Z</time>
      </trkpt>
      <trkpt lat="59.9783428" lon="17.7393137">
        <ele>42.4354</ele>
        <time>2014-06-15T14:50:57Z</time>
      </trkpt>
      <trkpt lat="59.9783914" lon="17.7393241">
        <ele>41.9547</ele>
        <time>2014-06-15T14:50:58Z</time>
      </trkpt>
      <trkpt lat="59.9784439" lon="17.7393342">
        <ele>41.9547</ele>
        <time>2014-06-15T14:50:59Z</time>
      </trkpt>
      <trkpt lat="59.9784992" lon="17.739343">
        <ele>41.9547</ele>
        <time>2014-06-15T14:51:00Z</time>
      </trkpt>
      <trkpt lat="59.9785529" lon="17.7393534">
        <ele>41.474</ele>
        <time>2014-06-15T14:51:01Z</time>
      </trkpt>
      <trkpt lat="59.9786118" lon="17.739361">
        <ele>41.9547</ele>
        <time>2014-06-15T14:51:02Z</time>
      </trkpt>
    </trkseg>
  </trk>
</gpx>